<?xml version="1.0" encoding="UTF-8" standalone="no" ?>
<gpx xmlns="http://www.topografix.com/GPX/1/1" xmlns:xsi="http://www.w3.org/2001/XMLSchema-instance" xsi:schemaLocation="http://www.topografix.com/GPX/1/1 http://www.topografix.com/GPX/1/1/gpx.xsd" version="1.1" creator="VisuGPX - https://www.visugpx.com">
  <metadata>
    <name>Rando Reco avec Dom 2026 0903.gpx</name>
    <desc><![CDATA[Démarrage près de chez Alain yoga.]]></desc>
  </metadata>
  <trk>
    <name><![CDATA[Rando Reco avec Dom 2026 0903]]></name>
    <desc><![CDATA[Démarrage près de chez Alain yoga.]]></desc>
    <extensions>
      <line xmlns="http://www.topografix.com/GPX/gpx_style/0/2">
        <color>0000FF</color>
        <opacity>1</opacity>
        <width>4</width>
          <extensions>
            <sens>1</sens>
          </extensions>
      </line>
    </extensions>
    <trkseg>
      <trkpt lat="48.20484" lon="6.67554">
        <ele>476</ele>
        <time>2026-09-03T12:06:08.000Z</time>
      </trkpt>
      <trkpt lat="48.2048" lon="6.67555">
        <ele>476</ele>
        <time>2026-09-03T12:06:09.000Z</time>
      </trkpt>
      <trkpt lat="48.20482" lon="6.67557">
        <ele>476.20001220703</ele>
        <time>2026-09-03T12:06:10.000Z</time>
      </trkpt>
      <trkpt lat="48.20482" lon="6.67556">
        <ele>476.20001220703</ele>
        <time>2026-09-03T12:06:11.000Z</time>
      </trkpt>
      <trkpt lat="48.20483" lon="6.67556">
        <ele>476.40002441406</ele>
        <time>2026-09-03T12:06:12.000Z</time>
      </trkpt>
      <trkpt lat="48.20483" lon="6.67557">
        <ele>476.40002441406</ele>
        <time>2026-09-03T12:06:13.000Z</time>
      </trkpt>
      <trkpt lat="48.20482" lon="6.67558">
        <ele>476.59997558594</ele>
        <time>2026-09-03T12:06:14.000Z</time>
      </trkpt>
      <trkpt lat="48.20482" lon="6.67558">
        <ele>476.59997558594</ele>
        <time>2026-09-03T12:06:15.000Z</time>
      </trkpt>
      <trkpt lat="48.20481" lon="6.6756">
        <ele>476.59997558594</ele>
        <time>2026-09-03T12:06:16.000Z</time>
      </trkpt>
      <trkpt lat="48.20479" lon="6.67561">
        <ele>476.59997558594</ele>
        <time>2026-09-03T12:06:17.000Z</time>
      </trkpt>
      <trkpt lat="48.20479" lon="6.67562">
        <ele>476.59997558594</ele>
        <time>2026-09-03T12:06:18.000Z</time>
      </trkpt>
      <trkpt lat="48.20479" lon="6.67563">
        <ele>476.20001220703</ele>
        <time>2026-09-03T12:06:19.000Z</time>
      </trkpt>
      <trkpt lat="48.2048" lon="6.67564">
        <ele>476.20001220703</ele>
        <time>2026-09-03T12:06:20.000Z</time>
      </trkpt>
      <trkpt lat="48.20479" lon="6.67564">
        <ele>476</ele>
        <time>2026-09-03T12:06:21.000Z</time>
      </trkpt>
      <trkpt lat="48.20479" lon="6.67565">
        <ele>476</ele>
        <time>2026-09-03T12:06:22.000Z</time>
      </trkpt>
      <trkpt lat="48.20479" lon="6.67566">
        <ele>476.20001220703</ele>
        <time>2026-09-03T12:06:23.000Z</time>
      </trkpt>
      <trkpt lat="48.20479" lon="6.67568">
        <ele>476.40002441406</ele>
        <time>2026-09-03T12:06:24.000Z</time>
      </trkpt>
      <trkpt lat="48.20479" lon="6.67569">
        <ele>476.40002441406</ele>
        <time>2026-09-03T12:06:25.000Z</time>
      </trkpt>
      <trkpt lat="48.20479" lon="6.6757">
        <ele>476.20001220703</ele>
        <time>2026-09-03T12:06:26.000Z</time>
      </trkpt>
      <trkpt lat="48.2048" lon="6.67571">
        <ele>476.20001220703</ele>
        <time>2026-09-03T12:06:27.000Z</time>
      </trkpt>
      <trkpt lat="48.2048" lon="6.67573">
        <ele>476.20001220703</ele>
        <time>2026-09-03T12:06:28.000Z</time>
      </trkpt>
      <trkpt lat="48.2048" lon="6.67575">
        <ele>476</ele>
        <time>2026-09-03T12:06:29.000Z</time>
      </trkpt>
      <trkpt lat="48.2048" lon="6.67577">
        <ele>476</ele>
        <time>2026-09-03T12:06:30.000Z</time>
      </trkpt>
      <trkpt lat="48.20481" lon="6.67578">
        <ele>476</ele>
        <time>2026-09-03T12:06:31.000Z</time>
      </trkpt>
      <trkpt lat="48.20481" lon="6.6758">
        <ele>476</ele>
        <time>2026-09-03T12:06:32.000Z</time>
      </trkpt>
      <trkpt lat="48.2048" lon="6.6758">
        <ele>476</ele>
        <time>2026-09-03T12:06:33.000Z</time>
      </trkpt>
      <trkpt lat="48.2048" lon="6.67581">
        <ele>476</ele>
        <time>2026-09-03T12:06:34.000Z</time>
      </trkpt>
      <trkpt lat="48.2048" lon="6.67583">
        <ele>476</ele>
        <time>2026-09-03T12:06:35.000Z</time>
      </trkpt>
      <trkpt lat="48.20481" lon="6.67584">
        <ele>475.79998779297</ele>
        <time>2026-09-03T12:06:36.000Z</time>
      </trkpt>
      <trkpt lat="48.20482" lon="6.67586">
        <ele>475.79998779297</ele>
        <time>2026-09-03T12:06:37.000Z</time>
      </trkpt>
      <trkpt lat="48.20483" lon="6.67587">
        <ele>475.79998779297</ele>
        <time>2026-09-03T12:06:38.000Z</time>
      </trkpt>
      <trkpt lat="48.20483" lon="6.67587">
        <ele>475.79998779297</ele>
        <time>2026-09-03T12:06:39.000Z</time>
      </trkpt>
      <trkpt lat="48.20484" lon="6.67587">
        <ele>475.79998779297</ele>
        <time>2026-09-03T12:06:40.000Z</time>
      </trkpt>
      <trkpt lat="48.20485" lon="6.67587">
        <ele>475.79998779297</ele>
        <time>2026-09-03T12:06:41.000Z</time>
      </trkpt>
      <trkpt lat="48.20486" lon="6.67587">
        <ele>475.59997558594</ele>
        <time>2026-09-03T12:06:42.000Z</time>
      </trkpt>
      <trkpt lat="48.20487" lon="6.67587">
        <ele>475.59997558594</ele>
        <time>2026-09-03T12:06:43.000Z</time>
      </trkpt>
      <trkpt lat="48.20488" lon="6.67587">
        <ele>475.40002441406</ele>
        <time>2026-09-03T12:06:44.000Z</time>
      </trkpt>
      <trkpt lat="48.20488" lon="6.67586">
        <ele>475.40002441406</ele>
        <time>2026-09-03T12:06:45.000Z</time>
      </trkpt>
      <trkpt lat="48.20489" lon="6.67586">
        <ele>475.40002441406</ele>
        <time>2026-09-03T12:06:46.000Z</time>
      </trkpt>
      <trkpt lat="48.20489" lon="6.67584">
        <ele>475.40002441406</ele>
        <time>2026-09-03T12:06:47.000Z</time>
      </trkpt>
      <trkpt lat="48.2049" lon="6.67584">
        <ele>475.59997558594</ele>
        <time>2026-09-03T12:06:48.000Z</time>
      </trkpt>
      <trkpt lat="48.2049" lon="6.67584">
        <ele>475.59997558594</ele>
        <time>2026-09-03T12:06:49.000Z</time>
      </trkpt>
      <trkpt lat="48.20491" lon="6.67582">
        <ele>475.79998779297</ele>
        <time>2026-09-03T12:06:50.000Z</time>
      </trkpt>
      <trkpt lat="48.20491" lon="6.67582">
        <ele>475.79998779297</ele>
        <time>2026-09-03T12:06:51.000Z</time>
      </trkpt>
      <trkpt lat="48.20492" lon="6.67581">
        <ele>476</ele>
        <time>2026-09-03T12:06:52.000Z</time>
      </trkpt>
      <trkpt lat="48.20493" lon="6.6758">
        <ele>476</ele>
        <time>2026-09-03T12:06:53.000Z</time>
      </trkpt>
      <trkpt lat="48.20493" lon="6.6758">
        <ele>475.79998779297</ele>
        <time>2026-09-03T12:06:54.000Z</time>
      </trkpt>
      <trkpt lat="48.20493" lon="6.67581">
        <ele>475.79998779297</ele>
        <time>2026-09-03T12:06:55.000Z</time>
      </trkpt>
      <trkpt lat="48.20493" lon="6.67581">
        <ele>475.79998779297</ele>
        <time>2026-09-03T12:06:56.000Z</time>
      </trkpt>
      <trkpt lat="48.20492" lon="6.67581">
        <ele>475.79998779297</ele>
        <time>2026-09-03T12:06:57.000Z</time>
      </trkpt>
      <trkpt lat="48.20492" lon="6.67581">
        <ele>476</ele>
        <time>2026-09-03T12:06:58.000Z</time>
      </trkpt>
      <trkpt lat="48.20492" lon="6.67581">
        <ele>476.20001220703</ele>
        <time>2026-09-03T12:06:59.000Z</time>
      </trkpt>
      <trkpt lat="48.20492" lon="6.67581">
        <ele>476.20001220703</ele>
        <time>2026-09-03T12:07:00.000Z</time>
      </trkpt>
      <trkpt lat="48.20492" lon="6.67581">
        <ele>476.20001220703</ele>
        <time>2026-09-03T12:07:01.000Z</time>
      </trkpt>
      <trkpt lat="48.20492" lon="6.67581">
        <ele>476</ele>
        <time>2026-09-03T12:07:02.000Z</time>
      </trkpt>
      <trkpt lat="48.20492" lon="6.67581">
        <ele>476</ele>
        <time>2026-09-03T12:07:03.000Z</time>
      </trkpt>
      <trkpt lat="48.20492" lon="6.67581">
        <ele>476</ele>
        <time>2026-09-03T12:07:04.000Z</time>
      </trkpt>
      <trkpt lat="48.20492" lon="6.67581">
        <ele>476</ele>
        <time>2026-09-03T12:07:05.000Z</time>
      </trkpt>
      <trkpt lat="48.20493" lon="6.67579">
        <ele>476</ele>
        <time>2026-09-03T12:07:06.000Z</time>
      </trkpt>
      <trkpt lat="48.20493" lon="6.67578">
        <ele>476</ele>
        <time>2026-09-03T12:07:07.000Z</time>
      </trkpt>
      <trkpt lat="48.20493" lon="6.67578">
        <ele>476</ele>
        <time>2026-09-03T12:07:08.000Z</time>
      </trkpt>
      <trkpt lat="48.20494" lon="6.67577">
        <ele>476</ele>
        <time>2026-09-03T12:07:09.000Z</time>
      </trkpt>
      <trkpt lat="48.20494" lon="6.67576">
        <ele>476.20001220703</ele>
        <time>2026-09-03T12:07:10.000Z</time>
      </trkpt>
      <trkpt lat="48.20494" lon="6.67576">
        <ele>476.20001220703</ele>
        <time>2026-09-03T12:07:11.000Z</time>
      </trkpt>
      <trkpt lat="48.20495" lon="6.67574">
        <ele>476.40002441406</ele>
        <time>2026-09-03T12:07:12.000Z</time>
      </trkpt>
      <trkpt lat="48.20495" lon="6.67573">
        <ele>476.40002441406</ele>
        <time>2026-09-03T12:07:13.000Z</time>
      </trkpt>
      <trkpt lat="48.20496" lon="6.67571">
        <ele>476.40002441406</ele>
        <time>2026-09-03T12:07:14.000Z</time>
      </trkpt>
      <trkpt lat="48.20497" lon="6.67571">
        <ele>476.59997558594</ele>
        <time>2026-09-03T12:07:15.000Z</time>
      </trkpt>
      <trkpt lat="48.20498" lon="6.6757">
        <ele>476.59997558594</ele>
        <time>2026-09-03T12:07:16.000Z</time>
      </trkpt>
      <trkpt lat="48.20498" lon="6.67568">
        <ele>476.59997558594</ele>
        <time>2026-09-03T12:07:17.000Z</time>
      </trkpt>
      <trkpt lat="48.20499" lon="6.67567">
        <ele>476.59997558594</ele>
        <time>2026-09-03T12:07:18.000Z</time>
      </trkpt>
      <trkpt lat="48.205" lon="6.67566">
        <ele>476.59997558594</ele>
        <time>2026-09-03T12:07:19.000Z</time>
      </trkpt>
      <trkpt lat="48.205" lon="6.67566">
        <ele>476.79998779297</ele>
        <time>2026-09-03T12:07:20.000Z</time>
      </trkpt>
      <trkpt lat="48.20501" lon="6.67564">
        <ele>476.79998779297</ele>
        <time>2026-09-03T12:07:21.000Z</time>
      </trkpt>
      <trkpt lat="48.20502" lon="6.67562">
        <ele>476.79998779297</ele>
        <time>2026-09-03T12:07:22.000Z</time>
      </trkpt>
      <trkpt lat="48.20503" lon="6.67561">
        <ele>476.79998779297</ele>
        <time>2026-09-03T12:07:23.000Z</time>
      </trkpt>
      <trkpt lat="48.20503" lon="6.6756">
        <ele>476.79998779297</ele>
        <time>2026-09-03T12:07:24.000Z</time>
      </trkpt>
      <trkpt lat="48.20504" lon="6.67559">
        <ele>477</ele>
        <time>2026-09-03T12:07:25.000Z</time>
      </trkpt>
      <trkpt lat="48.20505" lon="6.67558">
        <ele>477.20001220703</ele>
        <time>2026-09-03T12:07:26.000Z</time>
      </trkpt>
      <trkpt lat="48.20506" lon="6.67557">
        <ele>477.20001220703</ele>
        <time>2026-09-03T12:07:27.000Z</time>
      </trkpt>
      <trkpt lat="48.20506" lon="6.67556">
        <ele>477.40002441406</ele>
        <time>2026-09-03T12:07:28.000Z</time>
      </trkpt>
      <trkpt lat="48.20507" lon="6.67555">
        <ele>477.40002441406</ele>
        <time>2026-09-03T12:07:29.000Z</time>
      </trkpt>
      <trkpt lat="48.20508" lon="6.67553">
        <ele>477.59997558594</ele>
        <time>2026-09-03T12:07:30.000Z</time>
      </trkpt>
      <trkpt lat="48.20508" lon="6.67552">
        <ele>477.59997558594</ele>
        <time>2026-09-03T12:07:31.000Z</time>
      </trkpt>
      <trkpt lat="48.20509" lon="6.67551">
        <ele>477.79998779297</ele>
        <time>2026-09-03T12:07:32.000Z</time>
      </trkpt>
      <trkpt lat="48.20509" lon="6.6755">
        <ele>477.79998779297</ele>
        <time>2026-09-03T12:07:33.000Z</time>
      </trkpt>
      <trkpt lat="48.2051" lon="6.67548">
        <ele>478</ele>
        <time>2026-09-03T12:07:34.000Z</time>
      </trkpt>
      <trkpt lat="48.20511" lon="6.67547">
        <ele>478.20001220703</ele>
        <time>2026-09-03T12:07:35.000Z</time>
      </trkpt>
      <trkpt lat="48.20511" lon="6.67546">
        <ele>478.20001220703</ele>
        <time>2026-09-03T12:07:36.000Z</time>
      </trkpt>
      <trkpt lat="48.20512" lon="6.67546">
        <ele>478.40002441406</ele>
        <time>2026-09-03T12:07:37.000Z</time>
      </trkpt>
      <trkpt lat="48.20513" lon="6.67544">
        <ele>478.40002441406</ele>
        <time>2026-09-03T12:07:38.000Z</time>
      </trkpt>
      <trkpt lat="48.20513" lon="6.67542">
        <ele>478.59997558594</ele>
        <time>2026-09-03T12:07:39.000Z</time>
      </trkpt>
      <trkpt lat="48.20514" lon="6.67542">
        <ele>478.59997558594</ele>
        <time>2026-09-03T12:07:40.000Z</time>
      </trkpt>
      <trkpt lat="48.20514" lon="6.67541">
        <ele>478.59997558594</ele>
        <time>2026-09-03T12:07:41.000Z</time>
      </trkpt>
      <trkpt lat="48.20515" lon="6.6754">
        <ele>478.79998779297</ele>
        <time>2026-09-03T12:07:42.000Z</time>
      </trkpt>
      <trkpt lat="48.20516" lon="6.67538">
        <ele>478.79998779297</ele>
        <time>2026-09-03T12:07:43.000Z</time>
      </trkpt>
      <trkpt lat="48.20516" lon="6.67537">
        <ele>479</ele>
        <time>2026-09-03T12:07:44.000Z</time>
      </trkpt>
      <trkpt lat="48.20517" lon="6.67537">
        <ele>479.20001220703</ele>
        <time>2026-09-03T12:07:45.000Z</time>
      </trkpt>
      <trkpt lat="48.20518" lon="6.67536">
        <ele>479.20001220703</ele>
        <time>2026-09-03T12:07:46.000Z</time>
      </trkpt>
      <trkpt lat="48.20519" lon="6.67533">
        <ele>479.40002441406</ele>
        <time>2026-09-03T12:07:47.000Z</time>
      </trkpt>
      <trkpt lat="48.2052" lon="6.67532">
        <ele>479.59997558594</ele>
        <time>2026-09-03T12:07:48.000Z</time>
      </trkpt>
      <trkpt lat="48.2052" lon="6.67531">
        <ele>479.79998779297</ele>
        <time>2026-09-03T12:07:49.000Z</time>
      </trkpt>
      <trkpt lat="48.20521" lon="6.6753">
        <ele>479.79998779297</ele>
        <time>2026-09-03T12:07:50.000Z</time>
      </trkpt>
      <trkpt lat="48.20522" lon="6.67529">
        <ele>480</ele>
        <time>2026-09-03T12:07:51.000Z</time>
      </trkpt>
      <trkpt lat="48.20522" lon="6.67528">
        <ele>480</ele>
        <time>2026-09-03T12:07:52.000Z</time>
      </trkpt>
      <trkpt lat="48.20522" lon="6.67526">
        <ele>480.20001220703</ele>
        <time>2026-09-03T12:07:53.000Z</time>
      </trkpt>
      <trkpt lat="48.20523" lon="6.67526">
        <ele>480.20001220703</ele>
        <time>2026-09-03T12:07:54.000Z</time>
      </trkpt>
      <trkpt lat="48.20524" lon="6.67525">
        <ele>480.20001220703</ele>
        <time>2026-09-03T12:07:55.000Z</time>
      </trkpt>
      <trkpt lat="48.20524" lon="6.67523">
        <ele>480.40002441406</ele>
        <time>2026-09-03T12:07:56.000Z</time>
      </trkpt>
      <trkpt lat="48.20525" lon="6.67522">
        <ele>480.40002441406</ele>
        <time>2026-09-03T12:07:57.000Z</time>
      </trkpt>
      <trkpt lat="48.20526" lon="6.67521">
        <ele>480.40002441406</ele>
        <time>2026-09-03T12:07:58.000Z</time>
      </trkpt>
      <trkpt lat="48.20526" lon="6.6752">
        <ele>480.20001220703</ele>
        <time>2026-09-03T12:07:59.000Z</time>
      </trkpt>
      <trkpt lat="48.20527" lon="6.67518">
        <ele>480.20001220703</ele>
        <time>2026-09-03T12:08:00.000Z</time>
      </trkpt>
      <trkpt lat="48.20528" lon="6.67517">
        <ele>480.20001220703</ele>
        <time>2026-09-03T12:08:01.000Z</time>
      </trkpt>
      <trkpt lat="48.20528" lon="6.67516">
        <ele>480.20001220703</ele>
        <time>2026-09-03T12:08:02.000Z</time>
      </trkpt>
      <trkpt lat="48.20529" lon="6.67514">
        <ele>480.20001220703</ele>
        <time>2026-09-03T12:08:03.000Z</time>
      </trkpt>
      <trkpt lat="48.2053" lon="6.67513">
        <ele>480.20001220703</ele>
        <time>2026-09-03T12:08:04.000Z</time>
      </trkpt>
      <trkpt lat="48.2053" lon="6.67512">
        <ele>480.40002441406</ele>
        <time>2026-09-03T12:08:05.000Z</time>
      </trkpt>
      <trkpt lat="48.20531" lon="6.67512">
        <ele>480.40002441406</ele>
        <time>2026-09-03T12:08:06.000Z</time>
      </trkpt>
      <trkpt lat="48.20531" lon="6.67512">
        <ele>480.59997558594</ele>
        <time>2026-09-03T12:08:07.000Z</time>
      </trkpt>
      <trkpt lat="48.20532" lon="6.67511">
        <ele>480.59997558594</ele>
        <time>2026-09-03T12:08:08.000Z</time>
      </trkpt>
      <trkpt lat="48.20532" lon="6.6751">
        <ele>480.79998779297</ele>
        <time>2026-09-03T12:08:09.000Z</time>
      </trkpt>
      <trkpt lat="48.20533" lon="6.67508">
        <ele>481.40002441406</ele>
        <time>2026-09-03T12:08:10.000Z</time>
      </trkpt>
      <trkpt lat="48.20533" lon="6.67507">
        <ele>481.59997558594</ele>
        <time>2026-09-03T12:08:11.000Z</time>
      </trkpt>
      <trkpt lat="48.20533" lon="6.67506">
        <ele>481.79998779297</ele>
        <time>2026-09-03T12:08:12.000Z</time>
      </trkpt>
      <trkpt lat="48.20534" lon="6.67505">
        <ele>482</ele>
        <time>2026-09-03T12:08:13.000Z</time>
      </trkpt>
      <trkpt lat="48.20535" lon="6.67504">
        <ele>482.20001220703</ele>
        <time>2026-09-03T12:08:14.000Z</time>
      </trkpt>
      <trkpt lat="48.20536" lon="6.67503">
        <ele>482.20001220703</ele>
        <time>2026-09-03T12:08:15.000Z</time>
      </trkpt>
      <trkpt lat="48.20536" lon="6.67502">
        <ele>482.20001220703</ele>
        <time>2026-09-03T12:08:16.000Z</time>
      </trkpt>
      <trkpt lat="48.20536" lon="6.67502">
        <ele>482.20001220703</ele>
        <time>2026-09-03T12:08:17.000Z</time>
      </trkpt>
      <trkpt lat="48.20537" lon="6.675">
        <ele>482.20001220703</ele>
        <time>2026-09-03T12:08:18.000Z</time>
      </trkpt>
      <trkpt lat="48.20537" lon="6.675">
        <ele>482.20001220703</ele>
        <time>2026-09-03T12:08:19.000Z</time>
      </trkpt>
      <trkpt lat="48.20538" lon="6.675">
        <ele>482.20001220703</ele>
        <time>2026-09-03T12:08:20.000Z</time>
      </trkpt>
      <trkpt lat="48.20539" lon="6.67498">
        <ele>482.20001220703</ele>
        <time>2026-09-03T12:08:21.000Z</time>
      </trkpt>
      <trkpt lat="48.2054" lon="6.67497">
        <ele>482.40002441406</ele>
        <time>2026-09-03T12:08:22.000Z</time>
      </trkpt>
      <trkpt lat="48.2054" lon="6.67497">
        <ele>482.40002441406</ele>
        <time>2026-09-03T12:08:23.000Z</time>
      </trkpt>
      <trkpt lat="48.20542" lon="6.67496">
        <ele>482.59997558594</ele>
        <time>2026-09-03T12:08:24.000Z</time>
      </trkpt>
      <trkpt lat="48.20543" lon="6.67495">
        <ele>482.59997558594</ele>
        <time>2026-09-03T12:08:25.000Z</time>
      </trkpt>
      <trkpt lat="48.20543" lon="6.67495">
        <ele>482.79998779297</ele>
        <time>2026-09-03T12:08:26.000Z</time>
      </trkpt>
      <trkpt lat="48.20544" lon="6.67494">
        <ele>483</ele>
        <time>2026-09-03T12:08:27.000Z</time>
      </trkpt>
      <trkpt lat="48.20545" lon="6.67493">
        <ele>483.20001220703</ele>
        <time>2026-09-03T12:08:28.000Z</time>
      </trkpt>
      <trkpt lat="48.20546" lon="6.67492">
        <ele>483.20001220703</ele>
        <time>2026-09-03T12:08:29.000Z</time>
      </trkpt>
      <trkpt lat="48.20546" lon="6.67492">
        <ele>483.40002441406</ele>
        <time>2026-09-03T12:08:30.000Z</time>
      </trkpt>
      <trkpt lat="48.20547" lon="6.67491">
        <ele>483.59997558594</ele>
        <time>2026-09-03T12:08:31.000Z</time>
      </trkpt>
      <trkpt lat="48.20548" lon="6.67489">
        <ele>483.59997558594</ele>
        <time>2026-09-03T12:08:32.000Z</time>
      </trkpt>
      <trkpt lat="48.20549" lon="6.67489">
        <ele>483.79998779297</ele>
        <time>2026-09-03T12:08:33.000Z</time>
      </trkpt>
      <trkpt lat="48.20549" lon="6.67488">
        <ele>483.79998779297</ele>
        <time>2026-09-03T12:08:34.000Z</time>
      </trkpt>
      <trkpt lat="48.2055" lon="6.67486">
        <ele>484</ele>
        <time>2026-09-03T12:08:35.000Z</time>
      </trkpt>
      <trkpt lat="48.2055" lon="6.67485">
        <ele>484</ele>
        <time>2026-09-03T12:08:36.000Z</time>
      </trkpt>
      <trkpt lat="48.20551" lon="6.67485">
        <ele>484.20001220703</ele>
        <time>2026-09-03T12:08:37.000Z</time>
      </trkpt>
      <trkpt lat="48.20552" lon="6.67484">
        <ele>484.20001220703</ele>
        <time>2026-09-03T12:08:38.000Z</time>
      </trkpt>
      <trkpt lat="48.20552" lon="6.67483">
        <ele>484.40002441406</ele>
        <time>2026-09-03T12:08:39.000Z</time>
      </trkpt>
      <trkpt lat="48.20553" lon="6.67482">
        <ele>484.59997558594</ele>
        <time>2026-09-03T12:08:40.000Z</time>
      </trkpt>
      <trkpt lat="48.20554" lon="6.67481">
        <ele>484.79998779297</ele>
        <time>2026-09-03T12:08:41.000Z</time>
      </trkpt>
      <trkpt lat="48.20555" lon="6.6748">
        <ele>485</ele>
        <time>2026-09-03T12:08:42.000Z</time>
      </trkpt>
      <trkpt lat="48.20555" lon="6.6748">
        <ele>485.20001220703</ele>
        <time>2026-09-03T12:08:43.000Z</time>
      </trkpt>
      <trkpt lat="48.20555" lon="6.67479">
        <ele>485.20001220703</ele>
        <time>2026-09-03T12:08:44.000Z</time>
      </trkpt>
      <trkpt lat="48.20555" lon="6.67478">
        <ele>485.20001220703</ele>
        <time>2026-09-03T12:08:45.000Z</time>
      </trkpt>
      <trkpt lat="48.20556" lon="6.67477">
        <ele>485.40002441406</ele>
        <time>2026-09-03T12:08:46.000Z</time>
      </trkpt>
      <trkpt lat="48.20557" lon="6.67476">
        <ele>485.40002441406</ele>
        <time>2026-09-03T12:08:47.000Z</time>
      </trkpt>
      <trkpt lat="48.20558" lon="6.67475">
        <ele>485.59997558594</ele>
        <time>2026-09-03T12:08:48.000Z</time>
      </trkpt>
      <trkpt lat="48.20558" lon="6.67475">
        <ele>485.79998779297</ele>
        <time>2026-09-03T12:08:49.000Z</time>
      </trkpt>
      <trkpt lat="48.20559" lon="6.67474">
        <ele>486</ele>
        <time>2026-09-03T12:08:50.000Z</time>
      </trkpt>
      <trkpt lat="48.2056" lon="6.67473">
        <ele>486</ele>
        <time>2026-09-03T12:08:51.000Z</time>
      </trkpt>
      <trkpt lat="48.20561" lon="6.67473">
        <ele>486.20001220703</ele>
        <time>2026-09-03T12:08:52.000Z</time>
      </trkpt>
      <trkpt lat="48.20561" lon="6.67472">
        <ele>486.20001220703</ele>
        <time>2026-09-03T12:08:53.000Z</time>
      </trkpt>
      <trkpt lat="48.20562" lon="6.67471">
        <ele>486.40002441406</ele>
        <time>2026-09-03T12:08:54.000Z</time>
      </trkpt>
      <trkpt lat="48.20562" lon="6.6747">
        <ele>486.40002441406</ele>
        <time>2026-09-03T12:08:55.000Z</time>
      </trkpt>
      <trkpt lat="48.20563" lon="6.67469">
        <ele>486.40002441406</ele>
        <time>2026-09-03T12:08:56.000Z</time>
      </trkpt>
      <trkpt lat="48.20563" lon="6.67468">
        <ele>486.59997558594</ele>
        <time>2026-09-03T12:08:57.000Z</time>
      </trkpt>
      <trkpt lat="48.20564" lon="6.67467">
        <ele>486.59997558594</ele>
        <time>2026-09-03T12:08:58.000Z</time>
      </trkpt>
      <trkpt lat="48.20564" lon="6.67467">
        <ele>486.79998779297</ele>
        <time>2026-09-03T12:08:59.000Z</time>
      </trkpt>
      <trkpt lat="48.20565" lon="6.67466">
        <ele>487</ele>
        <time>2026-09-03T12:09:00.000Z</time>
      </trkpt>
      <trkpt lat="48.20565" lon="6.67465">
        <ele>487</ele>
        <time>2026-09-03T12:09:01.000Z</time>
      </trkpt>
      <trkpt lat="48.20566" lon="6.67465">
        <ele>487.20001220703</ele>
        <time>2026-09-03T12:09:02.000Z</time>
      </trkpt>
      <trkpt lat="48.20566" lon="6.67464">
        <ele>487.20001220703</ele>
        <time>2026-09-03T12:09:03.000Z</time>
      </trkpt>
      <trkpt lat="48.20567" lon="6.67463">
        <ele>487.40002441406</ele>
        <time>2026-09-03T12:09:04.000Z</time>
      </trkpt>
      <trkpt lat="48.20568" lon="6.67462">
        <ele>487.40002441406</ele>
        <time>2026-09-03T12:09:05.000Z</time>
      </trkpt>
      <trkpt lat="48.20568" lon="6.67461">
        <ele>487.59997558594</ele>
        <time>2026-09-03T12:09:06.000Z</time>
      </trkpt>
      <trkpt lat="48.20568" lon="6.6746">
        <ele>487.59997558594</ele>
        <time>2026-09-03T12:09:07.000Z</time>
      </trkpt>
      <trkpt lat="48.20569" lon="6.67459">
        <ele>487.79998779297</ele>
        <time>2026-09-03T12:09:08.000Z</time>
      </trkpt>
      <trkpt lat="48.20569" lon="6.67458">
        <ele>487.79998779297</ele>
        <time>2026-09-03T12:09:09.000Z</time>
      </trkpt>
      <trkpt lat="48.2057" lon="6.67458">
        <ele>488</ele>
        <time>2026-09-03T12:09:10.000Z</time>
      </trkpt>
      <trkpt lat="48.2057" lon="6.67456">
        <ele>488.20001220703</ele>
        <time>2026-09-03T12:09:11.000Z</time>
      </trkpt>
      <trkpt lat="48.20572" lon="6.67455">
        <ele>488.20001220703</ele>
        <time>2026-09-03T12:09:12.000Z</time>
      </trkpt>
      <trkpt lat="48.20572" lon="6.67454">
        <ele>488.20001220703</ele>
        <time>2026-09-03T12:09:13.000Z</time>
      </trkpt>
      <trkpt lat="48.20573" lon="6.67453">
        <ele>488.40002441406</ele>
        <time>2026-09-03T12:09:14.000Z</time>
      </trkpt>
      <trkpt lat="48.20574" lon="6.67452">
        <ele>488.40002441406</ele>
        <time>2026-09-03T12:09:15.000Z</time>
      </trkpt>
      <trkpt lat="48.20575" lon="6.67451">
        <ele>488.59997558594</ele>
        <time>2026-09-03T12:09:16.000Z</time>
      </trkpt>
      <trkpt lat="48.20576" lon="6.6745">
        <ele>488.79998779297</ele>
        <time>2026-09-03T12:09:17.000Z</time>
      </trkpt>
      <trkpt lat="48.20576" lon="6.6745">
        <ele>488.79998779297</ele>
        <time>2026-09-03T12:09:18.000Z</time>
      </trkpt>
      <trkpt lat="48.20576" lon="6.67448">
        <ele>489</ele>
        <time>2026-09-03T12:09:19.000Z</time>
      </trkpt>
      <trkpt lat="48.20577" lon="6.67448">
        <ele>489.20001220703</ele>
        <time>2026-09-03T12:09:20.000Z</time>
      </trkpt>
      <trkpt lat="48.20577" lon="6.67447">
        <ele>489.20001220703</ele>
        <time>2026-09-03T12:09:21.000Z</time>
      </trkpt>
      <trkpt lat="48.20578" lon="6.67446">
        <ele>489.40002441406</ele>
        <time>2026-09-03T12:09:22.000Z</time>
      </trkpt>
      <trkpt lat="48.20579" lon="6.67445">
        <ele>489.40002441406</ele>
        <time>2026-09-03T12:09:23.000Z</time>
      </trkpt>
      <trkpt lat="48.20579" lon="6.67445">
        <ele>489.59997558594</ele>
        <time>2026-09-03T12:09:24.000Z</time>
      </trkpt>
      <trkpt lat="48.2058" lon="6.67443">
        <ele>489.59997558594</ele>
        <time>2026-09-03T12:09:25.000Z</time>
      </trkpt>
      <trkpt lat="48.2058" lon="6.67442">
        <ele>489.79998779297</ele>
        <time>2026-09-03T12:09:26.000Z</time>
      </trkpt>
      <trkpt lat="48.2058" lon="6.67442">
        <ele>490</ele>
        <time>2026-09-03T12:09:27.000Z</time>
      </trkpt>
      <trkpt lat="48.20581" lon="6.67441">
        <ele>490</ele>
        <time>2026-09-03T12:09:28.000Z</time>
      </trkpt>
      <trkpt lat="48.20581" lon="6.6744">
        <ele>490.20001220703</ele>
        <time>2026-09-03T12:09:29.000Z</time>
      </trkpt>
      <trkpt lat="48.20582" lon="6.67439">
        <ele>490.40002441406</ele>
        <time>2026-09-03T12:09:30.000Z</time>
      </trkpt>
      <trkpt lat="48.20582" lon="6.67438">
        <ele>490.40002441406</ele>
        <time>2026-09-03T12:09:31.000Z</time>
      </trkpt>
      <trkpt lat="48.20583" lon="6.67437">
        <ele>490.59997558594</ele>
        <time>2026-09-03T12:09:32.000Z</time>
      </trkpt>
      <trkpt lat="48.20584" lon="6.67437">
        <ele>490.79998779297</ele>
        <time>2026-09-03T12:09:33.000Z</time>
      </trkpt>
      <trkpt lat="48.20585" lon="6.67436">
        <ele>491</ele>
        <time>2026-09-03T12:09:34.000Z</time>
      </trkpt>
      <trkpt lat="48.20585" lon="6.67434">
        <ele>491</ele>
        <time>2026-09-03T12:09:35.000Z</time>
      </trkpt>
      <trkpt lat="48.20586" lon="6.67433">
        <ele>491</ele>
        <time>2026-09-03T12:09:36.000Z</time>
      </trkpt>
      <trkpt lat="48.20586" lon="6.67432">
        <ele>491</ele>
        <time>2026-09-03T12:09:37.000Z</time>
      </trkpt>
      <trkpt lat="48.20587" lon="6.6743">
        <ele>491.20001220703</ele>
        <time>2026-09-03T12:09:38.000Z</time>
      </trkpt>
      <trkpt lat="48.20588" lon="6.67429">
        <ele>491.40002441406</ele>
        <time>2026-09-03T12:09:39.000Z</time>
      </trkpt>
      <trkpt lat="48.20588" lon="6.67428">
        <ele>491.59997558594</ele>
        <time>2026-09-03T12:09:40.000Z</time>
      </trkpt>
      <trkpt lat="48.20588" lon="6.67426">
        <ele>491.79998779297</ele>
        <time>2026-09-03T12:09:41.000Z</time>
      </trkpt>
      <trkpt lat="48.20589" lon="6.67425">
        <ele>492</ele>
        <time>2026-09-03T12:09:42.000Z</time>
      </trkpt>
      <trkpt lat="48.2059" lon="6.67424">
        <ele>492</ele>
        <time>2026-09-03T12:09:43.000Z</time>
      </trkpt>
      <trkpt lat="48.2059" lon="6.67423">
        <ele>492.20001220703</ele>
        <time>2026-09-03T12:09:44.000Z</time>
      </trkpt>
      <trkpt lat="48.2059" lon="6.67423">
        <ele>492.20001220703</ele>
        <time>2026-09-03T12:09:45.000Z</time>
      </trkpt>
      <trkpt lat="48.20591" lon="6.67421">
        <ele>492.20001220703</ele>
        <time>2026-09-03T12:09:46.000Z</time>
      </trkpt>
      <trkpt lat="48.20591" lon="6.6742">
        <ele>492.20001220703</ele>
        <time>2026-09-03T12:09:47.000Z</time>
      </trkpt>
      <trkpt lat="48.20592" lon="6.67418">
        <ele>492.20001220703</ele>
        <time>2026-09-03T12:09:48.000Z</time>
      </trkpt>
      <trkpt lat="48.20592" lon="6.67417">
        <ele>492.20001220703</ele>
        <time>2026-09-03T12:09:49.000Z</time>
      </trkpt>
      <trkpt lat="48.20593" lon="6.67415">
        <ele>492.20001220703</ele>
        <time>2026-09-03T12:09:50.000Z</time>
      </trkpt>
      <trkpt lat="48.20594" lon="6.67414">
        <ele>492.40002441406</ele>
        <time>2026-09-03T12:09:51.000Z</time>
      </trkpt>
      <trkpt lat="48.20594" lon="6.67412">
        <ele>492.40002441406</ele>
        <time>2026-09-03T12:09:52.000Z</time>
      </trkpt>
      <trkpt lat="48.20594" lon="6.67411">
        <ele>492.40002441406</ele>
        <time>2026-09-03T12:09:53.000Z</time>
      </trkpt>
      <trkpt lat="48.20595" lon="6.6741">
        <ele>492.40002441406</ele>
        <time>2026-09-03T12:09:54.000Z</time>
      </trkpt>
      <trkpt lat="48.20595" lon="6.67409">
        <ele>492.40002441406</ele>
        <time>2026-09-03T12:09:55.000Z</time>
      </trkpt>
      <trkpt lat="48.20596" lon="6.67408">
        <ele>492.40002441406</ele>
        <time>2026-09-03T12:09:56.000Z</time>
      </trkpt>
      <trkpt lat="48.20597" lon="6.67408">
        <ele>492.59997558594</ele>
        <time>2026-09-03T12:09:57.000Z</time>
      </trkpt>
      <trkpt lat="48.20597" lon="6.67407">
        <ele>492.59997558594</ele>
        <time>2026-09-03T12:09:58.000Z</time>
      </trkpt>
      <trkpt lat="48.20597" lon="6.67406">
        <ele>492.79998779297</ele>
        <time>2026-09-03T12:09:59.000Z</time>
      </trkpt>
      <trkpt lat="48.20598" lon="6.67404">
        <ele>492.79998779297</ele>
        <time>2026-09-03T12:10:00.000Z</time>
      </trkpt>
      <trkpt lat="48.20599" lon="6.67403">
        <ele>492.79998779297</ele>
        <time>2026-09-03T12:10:01.000Z</time>
      </trkpt>
      <trkpt lat="48.206" lon="6.67402">
        <ele>492.79998779297</ele>
        <time>2026-09-03T12:10:02.000Z</time>
      </trkpt>
      <trkpt lat="48.206" lon="6.67401">
        <ele>492.79998779297</ele>
        <time>2026-09-03T12:10:03.000Z</time>
      </trkpt>
      <trkpt lat="48.20601" lon="6.674">
        <ele>493</ele>
        <time>2026-09-03T12:10:04.000Z</time>
      </trkpt>
      <trkpt lat="48.20601" lon="6.67398">
        <ele>493</ele>
        <time>2026-09-03T12:10:05.000Z</time>
      </trkpt>
      <trkpt lat="48.20602" lon="6.67396">
        <ele>493</ele>
        <time>2026-09-03T12:10:06.000Z</time>
      </trkpt>
      <trkpt lat="48.20603" lon="6.67395">
        <ele>493</ele>
        <time>2026-09-03T12:10:07.000Z</time>
      </trkpt>
      <trkpt lat="48.20603" lon="6.67393">
        <ele>493</ele>
        <time>2026-09-03T12:10:08.000Z</time>
      </trkpt>
      <trkpt lat="48.20603" lon="6.67392">
        <ele>493.20001220703</ele>
        <time>2026-09-03T12:10:09.000Z</time>
      </trkpt>
      <trkpt lat="48.20604" lon="6.67391">
        <ele>493.20001220703</ele>
        <time>2026-09-03T12:10:10.000Z</time>
      </trkpt>
      <trkpt lat="48.20605" lon="6.67389">
        <ele>493.20001220703</ele>
        <time>2026-09-03T12:10:11.000Z</time>
      </trkpt>
      <trkpt lat="48.20605" lon="6.67387">
        <ele>493.20001220703</ele>
        <time>2026-09-03T12:10:12.000Z</time>
      </trkpt>
      <trkpt lat="48.20606" lon="6.67386">
        <ele>493.20001220703</ele>
        <time>2026-09-03T12:10:13.000Z</time>
      </trkpt>
      <trkpt lat="48.20607" lon="6.67384">
        <ele>493.40002441406</ele>
        <time>2026-09-03T12:10:14.000Z</time>
      </trkpt>
      <trkpt lat="48.20607" lon="6.67383">
        <ele>493.40002441406</ele>
        <time>2026-09-03T12:10:15.000Z</time>
      </trkpt>
      <trkpt lat="48.20608" lon="6.67382">
        <ele>493.40002441406</ele>
        <time>2026-09-03T12:10:16.000Z</time>
      </trkpt>
      <trkpt lat="48.20609" lon="6.6738">
        <ele>493.40002441406</ele>
        <time>2026-09-03T12:10:17.000Z</time>
      </trkpt>
      <trkpt lat="48.20609" lon="6.67379">
        <ele>493.40002441406</ele>
        <time>2026-09-03T12:10:18.000Z</time>
      </trkpt>
      <trkpt lat="48.2061" lon="6.67378">
        <ele>493.40002441406</ele>
        <time>2026-09-03T12:10:19.000Z</time>
      </trkpt>
      <trkpt lat="48.20611" lon="6.67377">
        <ele>493.40002441406</ele>
        <time>2026-09-03T12:10:20.000Z</time>
      </trkpt>
      <trkpt lat="48.20611" lon="6.67375">
        <ele>493.40002441406</ele>
        <time>2026-09-03T12:10:21.000Z</time>
      </trkpt>
      <trkpt lat="48.20612" lon="6.67374">
        <ele>493.59997558594</ele>
        <time>2026-09-03T12:10:22.000Z</time>
      </trkpt>
      <trkpt lat="48.20612" lon="6.67372">
        <ele>493.59997558594</ele>
        <time>2026-09-03T12:10:23.000Z</time>
      </trkpt>
      <trkpt lat="48.20613" lon="6.67371">
        <ele>493.59997558594</ele>
        <time>2026-09-03T12:10:24.000Z</time>
      </trkpt>
      <trkpt lat="48.20613" lon="6.6737">
        <ele>493.79998779297</ele>
        <time>2026-09-03T12:10:25.000Z</time>
      </trkpt>
      <trkpt lat="48.20614" lon="6.67369">
        <ele>493.79998779297</ele>
        <time>2026-09-03T12:10:26.000Z</time>
      </trkpt>
      <trkpt lat="48.20614" lon="6.67367">
        <ele>493.79998779297</ele>
        <time>2026-09-03T12:10:27.000Z</time>
      </trkpt>
      <trkpt lat="48.20615" lon="6.67366">
        <ele>493.79998779297</ele>
        <time>2026-09-03T12:10:28.000Z</time>
      </trkpt>
      <trkpt lat="48.20615" lon="6.67365">
        <ele>493.79998779297</ele>
        <time>2026-09-03T12:10:29.000Z</time>
      </trkpt>
      <trkpt lat="48.20616" lon="6.67364">
        <ele>494</ele>
        <time>2026-09-03T12:10:30.000Z</time>
      </trkpt>
      <trkpt lat="48.20617" lon="6.67363">
        <ele>494</ele>
        <time>2026-09-03T12:10:31.000Z</time>
      </trkpt>
      <trkpt lat="48.20618" lon="6.67361">
        <ele>494</ele>
        <time>2026-09-03T12:10:32.000Z</time>
      </trkpt>
      <trkpt lat="48.20618" lon="6.6736">
        <ele>494</ele>
        <time>2026-09-03T12:10:33.000Z</time>
      </trkpt>
      <trkpt lat="48.20618" lon="6.67359">
        <ele>494.20001220703</ele>
        <time>2026-09-03T12:10:34.000Z</time>
      </trkpt>
      <trkpt lat="48.20618" lon="6.67358">
        <ele>494.20001220703</ele>
        <time>2026-09-03T12:10:35.000Z</time>
      </trkpt>
      <trkpt lat="48.20619" lon="6.67357">
        <ele>494.20001220703</ele>
        <time>2026-09-03T12:10:36.000Z</time>
      </trkpt>
      <trkpt lat="48.20619" lon="6.67355">
        <ele>494.20001220703</ele>
        <time>2026-09-03T12:10:37.000Z</time>
      </trkpt>
      <trkpt lat="48.20619" lon="6.67354">
        <ele>494.40002441406</ele>
        <time>2026-09-03T12:10:38.000Z</time>
      </trkpt>
      <trkpt lat="48.2062" lon="6.67352">
        <ele>494.40002441406</ele>
        <time>2026-09-03T12:10:39.000Z</time>
      </trkpt>
      <trkpt lat="48.2062" lon="6.6735">
        <ele>494.59997558594</ele>
        <time>2026-09-03T12:10:40.000Z</time>
      </trkpt>
      <trkpt lat="48.20621" lon="6.67349">
        <ele>494.59997558594</ele>
        <time>2026-09-03T12:10:41.000Z</time>
      </trkpt>
      <trkpt lat="48.20621" lon="6.67348">
        <ele>494.79998779297</ele>
        <time>2026-09-03T12:10:42.000Z</time>
      </trkpt>
      <trkpt lat="48.20622" lon="6.67346">
        <ele>494.79998779297</ele>
        <time>2026-09-03T12:10:43.000Z</time>
      </trkpt>
      <trkpt lat="48.20622" lon="6.67344">
        <ele>494.79998779297</ele>
        <time>2026-09-03T12:10:44.000Z</time>
      </trkpt>
      <trkpt lat="48.20623" lon="6.67343">
        <ele>494.79998779297</ele>
        <time>2026-09-03T12:10:45.000Z</time>
      </trkpt>
      <trkpt lat="48.20623" lon="6.67341">
        <ele>494.79998779297</ele>
        <time>2026-09-03T12:10:46.000Z</time>
      </trkpt>
      <trkpt lat="48.20624" lon="6.6734">
        <ele>495</ele>
        <time>2026-09-03T12:10:47.000Z</time>
      </trkpt>
      <trkpt lat="48.20624" lon="6.67338">
        <ele>495</ele>
        <time>2026-09-03T12:10:48.000Z</time>
      </trkpt>
      <trkpt lat="48.20624" lon="6.67336">
        <ele>495</ele>
        <time>2026-09-03T12:10:49.000Z</time>
      </trkpt>
      <trkpt lat="48.20624" lon="6.67335">
        <ele>495</ele>
        <time>2026-09-03T12:10:50.000Z</time>
      </trkpt>
      <trkpt lat="48.20625" lon="6.67334">
        <ele>495</ele>
        <time>2026-09-03T12:10:51.000Z</time>
      </trkpt>
      <trkpt lat="48.20625" lon="6.67332">
        <ele>495</ele>
        <time>2026-09-03T12:10:52.000Z</time>
      </trkpt>
      <trkpt lat="48.20626" lon="6.6733">
        <ele>495.20001220703</ele>
        <time>2026-09-03T12:10:53.000Z</time>
      </trkpt>
      <trkpt lat="48.20626" lon="6.67329">
        <ele>495.20001220703</ele>
        <time>2026-09-03T12:10:54.000Z</time>
      </trkpt>
      <trkpt lat="48.20626" lon="6.67327">
        <ele>495.40002441406</ele>
        <time>2026-09-03T12:10:55.000Z</time>
      </trkpt>
      <trkpt lat="48.20627" lon="6.67326">
        <ele>495.40002441406</ele>
        <time>2026-09-03T12:10:56.000Z</time>
      </trkpt>
      <trkpt lat="48.20628" lon="6.67325">
        <ele>495.40002441406</ele>
        <time>2026-09-03T12:10:57.000Z</time>
      </trkpt>
      <trkpt lat="48.20629" lon="6.67324">
        <ele>495.40002441406</ele>
        <time>2026-09-03T12:10:58.000Z</time>
      </trkpt>
      <trkpt lat="48.20629" lon="6.67322">
        <ele>495.59997558594</ele>
        <time>2026-09-03T12:10:59.000Z</time>
      </trkpt>
      <trkpt lat="48.2063" lon="6.6732">
        <ele>495.59997558594</ele>
        <time>2026-09-03T12:11:00.000Z</time>
      </trkpt>
      <trkpt lat="48.2063" lon="6.67318">
        <ele>495.59997558594</ele>
        <time>2026-09-03T12:11:01.000Z</time>
      </trkpt>
      <trkpt lat="48.20631" lon="6.67318">
        <ele>495.59997558594</ele>
        <time>2026-09-03T12:11:02.000Z</time>
      </trkpt>
      <trkpt lat="48.20631" lon="6.67317">
        <ele>495.59997558594</ele>
        <time>2026-09-03T12:11:03.000Z</time>
      </trkpt>
      <trkpt lat="48.20632" lon="6.67315">
        <ele>495.59997558594</ele>
        <time>2026-09-03T12:11:04.000Z</time>
      </trkpt>
      <trkpt lat="48.20632" lon="6.67313">
        <ele>495.59997558594</ele>
        <time>2026-09-03T12:11:05.000Z</time>
      </trkpt>
      <trkpt lat="48.20632" lon="6.67312">
        <ele>495.40002441406</ele>
        <time>2026-09-03T12:11:06.000Z</time>
      </trkpt>
      <trkpt lat="48.20633" lon="6.6731">
        <ele>495.40002441406</ele>
        <time>2026-09-03T12:11:07.000Z</time>
      </trkpt>
      <trkpt lat="48.20633" lon="6.67309">
        <ele>495.40002441406</ele>
        <time>2026-09-03T12:11:08.000Z</time>
      </trkpt>
      <trkpt lat="48.20633" lon="6.67308">
        <ele>495.40002441406</ele>
        <time>2026-09-03T12:11:09.000Z</time>
      </trkpt>
      <trkpt lat="48.20634" lon="6.67306">
        <ele>495.40002441406</ele>
        <time>2026-09-03T12:11:10.000Z</time>
      </trkpt>
      <trkpt lat="48.20634" lon="6.67304">
        <ele>495.40002441406</ele>
        <time>2026-09-03T12:11:11.000Z</time>
      </trkpt>
      <trkpt lat="48.20635" lon="6.67303">
        <ele>495.40002441406</ele>
        <time>2026-09-03T12:11:12.000Z</time>
      </trkpt>
      <trkpt lat="48.20635" lon="6.67301">
        <ele>495.40002441406</ele>
        <time>2026-09-03T12:11:13.000Z</time>
      </trkpt>
      <trkpt lat="48.20636" lon="6.67299">
        <ele>495.59997558594</ele>
        <time>2026-09-03T12:11:14.000Z</time>
      </trkpt>
      <trkpt lat="48.20637" lon="6.67297">
        <ele>495.40002441406</ele>
        <time>2026-09-03T12:11:15.000Z</time>
      </trkpt>
      <trkpt lat="48.20637" lon="6.67295">
        <ele>495.40002441406</ele>
        <time>2026-09-03T12:11:16.000Z</time>
      </trkpt>
      <trkpt lat="48.20638" lon="6.67294">
        <ele>495.20001220703</ele>
        <time>2026-09-03T12:11:17.000Z</time>
      </trkpt>
      <trkpt lat="48.20638" lon="6.67293">
        <ele>495.20001220703</ele>
        <time>2026-09-03T12:11:18.000Z</time>
      </trkpt>
      <trkpt lat="48.20639" lon="6.67291">
        <ele>495.20001220703</ele>
        <time>2026-09-03T12:11:19.000Z</time>
      </trkpt>
      <trkpt lat="48.2064" lon="6.67289">
        <ele>495.20001220703</ele>
        <time>2026-09-03T12:11:20.000Z</time>
      </trkpt>
      <trkpt lat="48.2064" lon="6.67287">
        <ele>495.20001220703</ele>
        <time>2026-09-03T12:11:21.000Z</time>
      </trkpt>
      <trkpt lat="48.20641" lon="6.67286">
        <ele>495.20001220703</ele>
        <time>2026-09-03T12:11:22.000Z</time>
      </trkpt>
      <trkpt lat="48.20641" lon="6.67285">
        <ele>495.40002441406</ele>
        <time>2026-09-03T12:11:23.000Z</time>
      </trkpt>
      <trkpt lat="48.20642" lon="6.67284">
        <ele>495.40002441406</ele>
        <time>2026-09-03T12:11:24.000Z</time>
      </trkpt>
      <trkpt lat="48.20642" lon="6.67282">
        <ele>495.20001220703</ele>
        <time>2026-09-03T12:11:25.000Z</time>
      </trkpt>
      <trkpt lat="48.20643" lon="6.67281">
        <ele>495.20001220703</ele>
        <time>2026-09-03T12:11:26.000Z</time>
      </trkpt>
      <trkpt lat="48.20644" lon="6.67279">
        <ele>495.20001220703</ele>
        <time>2026-09-03T12:11:27.000Z</time>
      </trkpt>
      <trkpt lat="48.20645" lon="6.67277">
        <ele>495.20001220703</ele>
        <time>2026-09-03T12:11:28.000Z</time>
      </trkpt>
      <trkpt lat="48.20646" lon="6.67276">
        <ele>495.20001220703</ele>
        <time>2026-09-03T12:11:29.000Z</time>
      </trkpt>
      <trkpt lat="48.20647" lon="6.67275">
        <ele>495.20001220703</ele>
        <time>2026-09-03T12:11:30.000Z</time>
      </trkpt>
      <trkpt lat="48.20647" lon="6.67274">
        <ele>495.20001220703</ele>
        <time>2026-09-03T12:11:31.000Z</time>
      </trkpt>
      <trkpt lat="48.20648" lon="6.67273">
        <ele>495.20001220703</ele>
        <time>2026-09-03T12:11:32.000Z</time>
      </trkpt>
      <trkpt lat="48.20649" lon="6.67271">
        <ele>495.20001220703</ele>
        <time>2026-09-03T12:11:33.000Z</time>
      </trkpt>
      <trkpt lat="48.2065" lon="6.6727">
        <ele>495.20001220703</ele>
        <time>2026-09-03T12:11:34.000Z</time>
      </trkpt>
      <trkpt lat="48.20651" lon="6.67269">
        <ele>495.40002441406</ele>
        <time>2026-09-03T12:11:35.000Z</time>
      </trkpt>
      <trkpt lat="48.20651" lon="6.67268">
        <ele>495.40002441406</ele>
        <time>2026-09-03T12:11:36.000Z</time>
      </trkpt>
      <trkpt lat="48.20652" lon="6.67268">
        <ele>495.40002441406</ele>
        <time>2026-09-03T12:11:37.000Z</time>
      </trkpt>
      <trkpt lat="48.20653" lon="6.67267">
        <ele>495.40002441406</ele>
        <time>2026-09-03T12:11:38.000Z</time>
      </trkpt>
      <trkpt lat="48.20655" lon="6.67266">
        <ele>495.40002441406</ele>
        <time>2026-09-03T12:11:39.000Z</time>
      </trkpt>
      <trkpt lat="48.20656" lon="6.67265">
        <ele>495.40002441406</ele>
        <time>2026-09-03T12:11:40.000Z</time>
      </trkpt>
      <trkpt lat="48.20657" lon="6.67264">
        <ele>495.40002441406</ele>
        <time>2026-09-03T12:11:41.000Z</time>
      </trkpt>
      <trkpt lat="48.20658" lon="6.67264">
        <ele>495.40002441406</ele>
        <time>2026-09-03T12:11:42.000Z</time>
      </trkpt>
      <trkpt lat="48.20658" lon="6.67263">
        <ele>495.40002441406</ele>
        <time>2026-09-03T12:11:43.000Z</time>
      </trkpt>
      <trkpt lat="48.20659" lon="6.67262">
        <ele>495.40002441406</ele>
        <time>2026-09-03T12:11:44.000Z</time>
      </trkpt>
      <trkpt lat="48.2066" lon="6.67261">
        <ele>495.59997558594</ele>
        <time>2026-09-03T12:11:45.000Z</time>
      </trkpt>
      <trkpt lat="48.20661" lon="6.6726">
        <ele>495.59997558594</ele>
        <time>2026-09-03T12:11:46.000Z</time>
      </trkpt>
      <trkpt lat="48.20661" lon="6.6726">
        <ele>495.59997558594</ele>
        <time>2026-09-03T12:11:47.000Z</time>
      </trkpt>
      <trkpt lat="48.20662" lon="6.67259">
        <ele>495.79998779297</ele>
        <time>2026-09-03T12:11:48.000Z</time>
      </trkpt>
      <trkpt lat="48.20663" lon="6.67258">
        <ele>495.79998779297</ele>
        <time>2026-09-03T12:11:49.000Z</time>
      </trkpt>
      <trkpt lat="48.20664" lon="6.67257">
        <ele>495.79998779297</ele>
        <time>2026-09-03T12:11:50.000Z</time>
      </trkpt>
      <trkpt lat="48.20664" lon="6.67256">
        <ele>495.79998779297</ele>
        <time>2026-09-03T12:11:51.000Z</time>
      </trkpt>
      <trkpt lat="48.20665" lon="6.67255">
        <ele>496</ele>
        <time>2026-09-03T12:11:52.000Z</time>
      </trkpt>
      <trkpt lat="48.20666" lon="6.67255">
        <ele>496</ele>
        <time>2026-09-03T12:11:53.000Z</time>
      </trkpt>
      <trkpt lat="48.20667" lon="6.67254">
        <ele>496.20001220703</ele>
        <time>2026-09-03T12:11:54.000Z</time>
      </trkpt>
      <trkpt lat="48.20668" lon="6.67253">
        <ele>496.20001220703</ele>
        <time>2026-09-03T12:11:55.000Z</time>
      </trkpt>
      <trkpt lat="48.20669" lon="6.67251">
        <ele>496.20001220703</ele>
        <time>2026-09-03T12:11:56.000Z</time>
      </trkpt>
      <trkpt lat="48.2067" lon="6.6725">
        <ele>496.40002441406</ele>
        <time>2026-09-03T12:11:57.000Z</time>
      </trkpt>
      <trkpt lat="48.2067" lon="6.6725">
        <ele>496.40002441406</ele>
        <time>2026-09-03T12:11:58.000Z</time>
      </trkpt>
      <trkpt lat="48.20671" lon="6.67249">
        <ele>496.40002441406</ele>
        <time>2026-09-03T12:11:59.000Z</time>
      </trkpt>
      <trkpt lat="48.20672" lon="6.67248">
        <ele>496.40002441406</ele>
        <time>2026-09-03T12:12:00.000Z</time>
      </trkpt>
      <trkpt lat="48.20673" lon="6.67246">
        <ele>496.40002441406</ele>
        <time>2026-09-03T12:12:01.000Z</time>
      </trkpt>
      <trkpt lat="48.20674" lon="6.67245">
        <ele>496.40002441406</ele>
        <time>2026-09-03T12:12:02.000Z</time>
      </trkpt>
      <trkpt lat="48.20675" lon="6.67244">
        <ele>496.40002441406</ele>
        <time>2026-09-03T12:12:03.000Z</time>
      </trkpt>
      <trkpt lat="48.20676" lon="6.67243">
        <ele>496.40002441406</ele>
        <time>2026-09-03T12:12:04.000Z</time>
      </trkpt>
      <trkpt lat="48.20676" lon="6.67243">
        <ele>496.59997558594</ele>
        <time>2026-09-03T12:12:05.000Z</time>
      </trkpt>
      <trkpt lat="48.20677" lon="6.67241">
        <ele>496.59997558594</ele>
        <time>2026-09-03T12:12:06.000Z</time>
      </trkpt>
      <trkpt lat="48.20678" lon="6.6724">
        <ele>496.59997558594</ele>
        <time>2026-09-03T12:12:07.000Z</time>
      </trkpt>
      <trkpt lat="48.20679" lon="6.67239">
        <ele>496.59997558594</ele>
        <time>2026-09-03T12:12:08.000Z</time>
      </trkpt>
      <trkpt lat="48.2068" lon="6.67238">
        <ele>496.79998779297</ele>
        <time>2026-09-03T12:12:09.000Z</time>
      </trkpt>
      <trkpt lat="48.2068" lon="6.67237">
        <ele>496.79998779297</ele>
        <time>2026-09-03T12:12:10.000Z</time>
      </trkpt>
      <trkpt lat="48.20681" lon="6.67236">
        <ele>496.79998779297</ele>
        <time>2026-09-03T12:12:11.000Z</time>
      </trkpt>
      <trkpt lat="48.20682" lon="6.67235">
        <ele>496.79998779297</ele>
        <time>2026-09-03T12:12:12.000Z</time>
      </trkpt>
      <trkpt lat="48.20683" lon="6.67233">
        <ele>496.79998779297</ele>
        <time>2026-09-03T12:12:13.000Z</time>
      </trkpt>
      <trkpt lat="48.20683" lon="6.67232">
        <ele>496.79998779297</ele>
        <time>2026-09-03T12:12:14.000Z</time>
      </trkpt>
      <trkpt lat="48.20684" lon="6.67231">
        <ele>496.79998779297</ele>
        <time>2026-09-03T12:12:15.000Z</time>
      </trkpt>
      <trkpt lat="48.20685" lon="6.6723">
        <ele>496.79998779297</ele>
        <time>2026-09-03T12:12:16.000Z</time>
      </trkpt>
      <trkpt lat="48.20686" lon="6.67229">
        <ele>497</ele>
        <time>2026-09-03T12:12:17.000Z</time>
      </trkpt>
      <trkpt lat="48.20687" lon="6.67227">
        <ele>497</ele>
        <time>2026-09-03T12:12:18.000Z</time>
      </trkpt>
      <trkpt lat="48.20688" lon="6.67226">
        <ele>497.20001220703</ele>
        <time>2026-09-03T12:12:19.000Z</time>
      </trkpt>
      <trkpt lat="48.20689" lon="6.67225">
        <ele>497.20001220703</ele>
        <time>2026-09-03T12:12:20.000Z</time>
      </trkpt>
      <trkpt lat="48.2069" lon="6.67224">
        <ele>497.20001220703</ele>
        <time>2026-09-03T12:12:21.000Z</time>
      </trkpt>
      <trkpt lat="48.2069" lon="6.67223">
        <ele>497.20001220703</ele>
        <time>2026-09-03T12:12:22.000Z</time>
      </trkpt>
      <trkpt lat="48.20691" lon="6.67221">
        <ele>497.40002441406</ele>
        <time>2026-09-03T12:12:23.000Z</time>
      </trkpt>
      <trkpt lat="48.20692" lon="6.67221">
        <ele>497.40002441406</ele>
        <time>2026-09-03T12:12:24.000Z</time>
      </trkpt>
      <trkpt lat="48.20693" lon="6.6722">
        <ele>497.40002441406</ele>
        <time>2026-09-03T12:12:25.000Z</time>
      </trkpt>
      <trkpt lat="48.20693" lon="6.67219">
        <ele>497.59997558594</ele>
        <time>2026-09-03T12:12:26.000Z</time>
      </trkpt>
      <trkpt lat="48.20694" lon="6.67218">
        <ele>497.59997558594</ele>
        <time>2026-09-03T12:12:27.000Z</time>
      </trkpt>
      <trkpt lat="48.20694" lon="6.67217">
        <ele>497.59997558594</ele>
        <time>2026-09-03T12:12:28.000Z</time>
      </trkpt>
      <trkpt lat="48.20696" lon="6.67216">
        <ele>497.79998779297</ele>
        <time>2026-09-03T12:12:29.000Z</time>
      </trkpt>
      <trkpt lat="48.20696" lon="6.67215">
        <ele>497.79998779297</ele>
        <time>2026-09-03T12:12:30.000Z</time>
      </trkpt>
      <trkpt lat="48.20697" lon="6.67214">
        <ele>498</ele>
        <time>2026-09-03T12:12:31.000Z</time>
      </trkpt>
      <trkpt lat="48.20697" lon="6.67213">
        <ele>498</ele>
        <time>2026-09-03T12:12:32.000Z</time>
      </trkpt>
      <trkpt lat="48.20698" lon="6.67212">
        <ele>498</ele>
        <time>2026-09-03T12:12:33.000Z</time>
      </trkpt>
      <trkpt lat="48.20699" lon="6.6721">
        <ele>498.20001220703</ele>
        <time>2026-09-03T12:12:34.000Z</time>
      </trkpt>
      <trkpt lat="48.20699" lon="6.67209">
        <ele>498.20001220703</ele>
        <time>2026-09-03T12:12:35.000Z</time>
      </trkpt>
      <trkpt lat="48.207" lon="6.67208">
        <ele>498.20001220703</ele>
        <time>2026-09-03T12:12:36.000Z</time>
      </trkpt>
      <trkpt lat="48.20701" lon="6.67207">
        <ele>498.40002441406</ele>
        <time>2026-09-03T12:12:37.000Z</time>
      </trkpt>
      <trkpt lat="48.20702" lon="6.67206">
        <ele>498.40002441406</ele>
        <time>2026-09-03T12:12:38.000Z</time>
      </trkpt>
      <trkpt lat="48.20702" lon="6.67204">
        <ele>498.40002441406</ele>
        <time>2026-09-03T12:12:39.000Z</time>
      </trkpt>
      <trkpt lat="48.20703" lon="6.67202">
        <ele>498.59997558594</ele>
        <time>2026-09-03T12:12:40.000Z</time>
      </trkpt>
      <trkpt lat="48.20704" lon="6.67201">
        <ele>498.59997558594</ele>
        <time>2026-09-03T12:12:41.000Z</time>
      </trkpt>
      <trkpt lat="48.20705" lon="6.672">
        <ele>498.79998779297</ele>
        <time>2026-09-03T12:12:42.000Z</time>
      </trkpt>
      <trkpt lat="48.20705" lon="6.67199">
        <ele>498.79998779297</ele>
        <time>2026-09-03T12:12:43.000Z</time>
      </trkpt>
      <trkpt lat="48.20706" lon="6.67198">
        <ele>498.79998779297</ele>
        <time>2026-09-03T12:12:44.000Z</time>
      </trkpt>
      <trkpt lat="48.20707" lon="6.67196">
        <ele>498.79998779297</ele>
        <time>2026-09-03T12:12:45.000Z</time>
      </trkpt>
      <trkpt lat="48.20708" lon="6.67195">
        <ele>499</ele>
        <time>2026-09-03T12:12:46.000Z</time>
      </trkpt>
      <trkpt lat="48.20708" lon="6.67194">
        <ele>499</ele>
        <time>2026-09-03T12:12:47.000Z</time>
      </trkpt>
      <trkpt lat="48.20709" lon="6.67193">
        <ele>499</ele>
        <time>2026-09-03T12:12:48.000Z</time>
      </trkpt>
      <trkpt lat="48.20709" lon="6.67192">
        <ele>499</ele>
        <time>2026-09-03T12:12:49.000Z</time>
      </trkpt>
      <trkpt lat="48.20709" lon="6.6719">
        <ele>499.20001220703</ele>
        <time>2026-09-03T12:12:50.000Z</time>
      </trkpt>
      <trkpt lat="48.2071" lon="6.67188">
        <ele>499.20001220703</ele>
        <time>2026-09-03T12:12:51.000Z</time>
      </trkpt>
      <trkpt lat="48.2071" lon="6.67186">
        <ele>499.20001220703</ele>
        <time>2026-09-03T12:12:52.000Z</time>
      </trkpt>
      <trkpt lat="48.20711" lon="6.67185">
        <ele>499.20001220703</ele>
        <time>2026-09-03T12:12:53.000Z</time>
      </trkpt>
      <trkpt lat="48.20711" lon="6.67183">
        <ele>499.20001220703</ele>
        <time>2026-09-03T12:12:54.000Z</time>
      </trkpt>
      <trkpt lat="48.20712" lon="6.67182">
        <ele>499.20001220703</ele>
        <time>2026-09-03T12:12:55.000Z</time>
      </trkpt>
      <trkpt lat="48.20712" lon="6.67181">
        <ele>499.20001220703</ele>
        <time>2026-09-03T12:12:56.000Z</time>
      </trkpt>
      <trkpt lat="48.20713" lon="6.67179">
        <ele>499.40002441406</ele>
        <time>2026-09-03T12:12:57.000Z</time>
      </trkpt>
      <trkpt lat="48.20713" lon="6.67177">
        <ele>499.40002441406</ele>
        <time>2026-09-03T12:12:58.000Z</time>
      </trkpt>
      <trkpt lat="48.20713" lon="6.67176">
        <ele>499.40002441406</ele>
        <time>2026-09-03T12:12:59.000Z</time>
      </trkpt>
      <trkpt lat="48.20714" lon="6.67175">
        <ele>499.40002441406</ele>
        <time>2026-09-03T12:13:00.000Z</time>
      </trkpt>
      <trkpt lat="48.20714" lon="6.67174">
        <ele>499.40002441406</ele>
        <time>2026-09-03T12:13:01.000Z</time>
      </trkpt>
      <trkpt lat="48.20715" lon="6.67172">
        <ele>499.40002441406</ele>
        <time>2026-09-03T12:13:02.000Z</time>
      </trkpt>
      <trkpt lat="48.20715" lon="6.67171">
        <ele>499.59997558594</ele>
        <time>2026-09-03T12:13:03.000Z</time>
      </trkpt>
      <trkpt lat="48.20715" lon="6.67169">
        <ele>499.59997558594</ele>
        <time>2026-09-03T12:13:04.000Z</time>
      </trkpt>
      <trkpt lat="48.20716" lon="6.67168">
        <ele>499.59997558594</ele>
        <time>2026-09-03T12:13:05.000Z</time>
      </trkpt>
      <trkpt lat="48.20716" lon="6.67167">
        <ele>499.59997558594</ele>
        <time>2026-09-03T12:13:06.000Z</time>
      </trkpt>
      <trkpt lat="48.20717" lon="6.67165">
        <ele>499.79998779297</ele>
        <time>2026-09-03T12:13:07.000Z</time>
      </trkpt>
      <trkpt lat="48.20717" lon="6.67163">
        <ele>499.79998779297</ele>
        <time>2026-09-03T12:13:08.000Z</time>
      </trkpt>
      <trkpt lat="48.20717" lon="6.67161">
        <ele>499.79998779297</ele>
        <time>2026-09-03T12:13:09.000Z</time>
      </trkpt>
      <trkpt lat="48.20718" lon="6.6716">
        <ele>500</ele>
        <time>2026-09-03T12:13:10.000Z</time>
      </trkpt>
      <trkpt lat="48.20718" lon="6.67159">
        <ele>500</ele>
        <time>2026-09-03T12:13:11.000Z</time>
      </trkpt>
      <trkpt lat="48.20718" lon="6.67157">
        <ele>500.20001220703</ele>
        <time>2026-09-03T12:13:12.000Z</time>
      </trkpt>
      <trkpt lat="48.20718" lon="6.67156">
        <ele>500.20001220703</ele>
        <time>2026-09-03T12:13:13.000Z</time>
      </trkpt>
      <trkpt lat="48.20719" lon="6.67154">
        <ele>500.40002441406</ele>
        <time>2026-09-03T12:13:14.000Z</time>
      </trkpt>
      <trkpt lat="48.20719" lon="6.67152">
        <ele>500.59997558594</ele>
        <time>2026-09-03T12:13:15.000Z</time>
      </trkpt>
      <trkpt lat="48.2072" lon="6.67151">
        <ele>500.59997558594</ele>
        <time>2026-09-03T12:13:16.000Z</time>
      </trkpt>
      <trkpt lat="48.2072" lon="6.6715">
        <ele>500.79998779297</ele>
        <time>2026-09-03T12:13:17.000Z</time>
      </trkpt>
      <trkpt lat="48.20721" lon="6.67148">
        <ele>500.79998779297</ele>
        <time>2026-09-03T12:13:18.000Z</time>
      </trkpt>
      <trkpt lat="48.20721" lon="6.67147">
        <ele>501</ele>
        <time>2026-09-03T12:13:19.000Z</time>
      </trkpt>
      <trkpt lat="48.20722" lon="6.67146">
        <ele>501.20001220703</ele>
        <time>2026-09-03T12:13:20.000Z</time>
      </trkpt>
      <trkpt lat="48.20723" lon="6.67145">
        <ele>501.40002441406</ele>
        <time>2026-09-03T12:13:21.000Z</time>
      </trkpt>
      <trkpt lat="48.20723" lon="6.67144">
        <ele>501.40002441406</ele>
        <time>2026-09-03T12:13:22.000Z</time>
      </trkpt>
      <trkpt lat="48.20724" lon="6.67142">
        <ele>501.40002441406</ele>
        <time>2026-09-03T12:13:23.000Z</time>
      </trkpt>
      <trkpt lat="48.20724" lon="6.6714">
        <ele>501.40002441406</ele>
        <time>2026-09-03T12:13:24.000Z</time>
      </trkpt>
      <trkpt lat="48.20724" lon="6.67139">
        <ele>501.59997558594</ele>
        <time>2026-09-03T12:13:25.000Z</time>
      </trkpt>
      <trkpt lat="48.20725" lon="6.67137">
        <ele>501.59997558594</ele>
        <time>2026-09-03T12:13:26.000Z</time>
      </trkpt>
      <trkpt lat="48.20725" lon="6.67136">
        <ele>501.59997558594</ele>
        <time>2026-09-03T12:13:27.000Z</time>
      </trkpt>
      <trkpt lat="48.20726" lon="6.67134">
        <ele>501.79998779297</ele>
        <time>2026-09-03T12:13:28.000Z</time>
      </trkpt>
      <trkpt lat="48.20726" lon="6.67132">
        <ele>502</ele>
        <time>2026-09-03T12:13:29.000Z</time>
      </trkpt>
      <trkpt lat="48.20727" lon="6.67131">
        <ele>502</ele>
        <time>2026-09-03T12:13:30.000Z</time>
      </trkpt>
      <trkpt lat="48.20727" lon="6.6713">
        <ele>502</ele>
        <time>2026-09-03T12:13:31.000Z</time>
      </trkpt>
      <trkpt lat="48.20727" lon="6.67128">
        <ele>502.20001220703</ele>
        <time>2026-09-03T12:13:32.000Z</time>
      </trkpt>
      <trkpt lat="48.20728" lon="6.67126">
        <ele>502.20001220703</ele>
        <time>2026-09-03T12:13:33.000Z</time>
      </trkpt>
      <trkpt lat="48.20729" lon="6.67124">
        <ele>502.20001220703</ele>
        <time>2026-09-03T12:13:34.000Z</time>
      </trkpt>
      <trkpt lat="48.20729" lon="6.67123">
        <ele>502.40002441406</ele>
        <time>2026-09-03T12:13:35.000Z</time>
      </trkpt>
      <trkpt lat="48.20729" lon="6.67122">
        <ele>502.40002441406</ele>
        <time>2026-09-03T12:13:36.000Z</time>
      </trkpt>
      <trkpt lat="48.20729" lon="6.67121">
        <ele>502.59997558594</ele>
        <time>2026-09-03T12:13:37.000Z</time>
      </trkpt>
      <trkpt lat="48.20729" lon="6.67119">
        <ele>502.59997558594</ele>
        <time>2026-09-03T12:13:38.000Z</time>
      </trkpt>
      <trkpt lat="48.2073" lon="6.67117">
        <ele>502.59997558594</ele>
        <time>2026-09-03T12:13:39.000Z</time>
      </trkpt>
      <trkpt lat="48.20731" lon="6.67116">
        <ele>502.59997558594</ele>
        <time>2026-09-03T12:13:40.000Z</time>
      </trkpt>
      <trkpt lat="48.20731" lon="6.67115">
        <ele>502.79998779297</ele>
        <time>2026-09-03T12:13:41.000Z</time>
      </trkpt>
      <trkpt lat="48.20731" lon="6.67113">
        <ele>502.79998779297</ele>
        <time>2026-09-03T12:13:42.000Z</time>
      </trkpt>
      <trkpt lat="48.20732" lon="6.67112">
        <ele>503</ele>
        <time>2026-09-03T12:13:43.000Z</time>
      </trkpt>
      <trkpt lat="48.20732" lon="6.67111">
        <ele>503.20001220703</ele>
        <time>2026-09-03T12:13:44.000Z</time>
      </trkpt>
      <trkpt lat="48.20733" lon="6.67109">
        <ele>503.40002441406</ele>
        <time>2026-09-03T12:13:45.000Z</time>
      </trkpt>
      <trkpt lat="48.20733" lon="6.67108">
        <ele>503.40002441406</ele>
        <time>2026-09-03T12:13:46.000Z</time>
      </trkpt>
      <trkpt lat="48.20734" lon="6.67107">
        <ele>503.59997558594</ele>
        <time>2026-09-03T12:13:47.000Z</time>
      </trkpt>
      <trkpt lat="48.20734" lon="6.67105">
        <ele>503.59997558594</ele>
        <time>2026-09-03T12:13:48.000Z</time>
      </trkpt>
      <trkpt lat="48.20734" lon="6.67104">
        <ele>503.59997558594</ele>
        <time>2026-09-03T12:13:49.000Z</time>
      </trkpt>
      <trkpt lat="48.20735" lon="6.67102">
        <ele>503.79998779297</ele>
        <time>2026-09-03T12:13:50.000Z</time>
      </trkpt>
      <trkpt lat="48.20736" lon="6.67101">
        <ele>503.79998779297</ele>
        <time>2026-09-03T12:13:51.000Z</time>
      </trkpt>
      <trkpt lat="48.20736" lon="6.671">
        <ele>503.79998779297</ele>
        <time>2026-09-03T12:13:52.000Z</time>
      </trkpt>
      <trkpt lat="48.20737" lon="6.67098">
        <ele>504</ele>
        <time>2026-09-03T12:13:53.000Z</time>
      </trkpt>
      <trkpt lat="48.20737" lon="6.67097">
        <ele>504</ele>
        <time>2026-09-03T12:13:54.000Z</time>
      </trkpt>
      <trkpt lat="48.20738" lon="6.67095">
        <ele>504.20001220703</ele>
        <time>2026-09-03T12:13:55.000Z</time>
      </trkpt>
      <trkpt lat="48.20738" lon="6.67094">
        <ele>504</ele>
        <time>2026-09-03T12:13:56.000Z</time>
      </trkpt>
      <trkpt lat="48.20738" lon="6.67093">
        <ele>504</ele>
        <time>2026-09-03T12:13:57.000Z</time>
      </trkpt>
      <trkpt lat="48.20739" lon="6.67091">
        <ele>504</ele>
        <time>2026-09-03T12:13:58.000Z</time>
      </trkpt>
      <trkpt lat="48.20739" lon="6.67089">
        <ele>504.20001220703</ele>
        <time>2026-09-03T12:13:59.000Z</time>
      </trkpt>
      <trkpt lat="48.20739" lon="6.67088">
        <ele>504.20001220703</ele>
        <time>2026-09-03T12:14:00.000Z</time>
      </trkpt>
      <trkpt lat="48.2074" lon="6.67088">
        <ele>504.20001220703</ele>
        <time>2026-09-03T12:14:01.000Z</time>
      </trkpt>
      <trkpt lat="48.2074" lon="6.67087">
        <ele>504.40002441406</ele>
        <time>2026-09-03T12:14:02.000Z</time>
      </trkpt>
      <trkpt lat="48.2074" lon="6.67085">
        <ele>504.40002441406</ele>
        <time>2026-09-03T12:14:03.000Z</time>
      </trkpt>
      <trkpt lat="48.20741" lon="6.67084">
        <ele>504.40002441406</ele>
        <time>2026-09-03T12:14:04.000Z</time>
      </trkpt>
      <trkpt lat="48.20742" lon="6.67082">
        <ele>504.59997558594</ele>
        <time>2026-09-03T12:14:05.000Z</time>
      </trkpt>
      <trkpt lat="48.20742" lon="6.67081">
        <ele>504.59997558594</ele>
        <time>2026-09-03T12:14:06.000Z</time>
      </trkpt>
      <trkpt lat="48.20742" lon="6.6708">
        <ele>504.59997558594</ele>
        <time>2026-09-03T12:14:07.000Z</time>
      </trkpt>
      <trkpt lat="48.20742" lon="6.67078">
        <ele>504.79998779297</ele>
        <time>2026-09-03T12:14:08.000Z</time>
      </trkpt>
      <trkpt lat="48.20743" lon="6.67076">
        <ele>504.79998779297</ele>
        <time>2026-09-03T12:14:09.000Z</time>
      </trkpt>
      <trkpt lat="48.20743" lon="6.67075">
        <ele>504.79998779297</ele>
        <time>2026-09-03T12:14:10.000Z</time>
      </trkpt>
      <trkpt lat="48.20743" lon="6.67074">
        <ele>505</ele>
        <time>2026-09-03T12:14:11.000Z</time>
      </trkpt>
      <trkpt lat="48.20743" lon="6.67073">
        <ele>505.20001220703</ele>
        <time>2026-09-03T12:14:12.000Z</time>
      </trkpt>
      <trkpt lat="48.20743" lon="6.67071">
        <ele>505.20001220703</ele>
        <time>2026-09-03T12:14:13.000Z</time>
      </trkpt>
      <trkpt lat="48.20744" lon="6.6707">
        <ele>505.40002441406</ele>
        <time>2026-09-03T12:14:14.000Z</time>
      </trkpt>
      <trkpt lat="48.20744" lon="6.67069">
        <ele>505.59997558594</ele>
        <time>2026-09-03T12:14:15.000Z</time>
      </trkpt>
      <trkpt lat="48.20744" lon="6.67068">
        <ele>505.59997558594</ele>
        <time>2026-09-03T12:14:16.000Z</time>
      </trkpt>
      <trkpt lat="48.20743" lon="6.67067">
        <ele>505.79998779297</ele>
        <time>2026-09-03T12:14:17.000Z</time>
      </trkpt>
      <trkpt lat="48.20744" lon="6.67066">
        <ele>505.79998779297</ele>
        <time>2026-09-03T12:14:18.000Z</time>
      </trkpt>
      <trkpt lat="48.20744" lon="6.67065">
        <ele>506</ele>
        <time>2026-09-03T12:14:19.000Z</time>
      </trkpt>
      <trkpt lat="48.20743" lon="6.67063">
        <ele>506</ele>
        <time>2026-09-03T12:14:20.000Z</time>
      </trkpt>
      <trkpt lat="48.20744" lon="6.67062">
        <ele>506.20001220703</ele>
        <time>2026-09-03T12:14:21.000Z</time>
      </trkpt>
      <trkpt lat="48.20743" lon="6.67062">
        <ele>506.20001220703</ele>
        <time>2026-09-03T12:14:22.000Z</time>
      </trkpt>
      <trkpt lat="48.20743" lon="6.67061">
        <ele>506.40002441406</ele>
        <time>2026-09-03T12:14:23.000Z</time>
      </trkpt>
      <trkpt lat="48.20743" lon="6.6706">
        <ele>506.59997558594</ele>
        <time>2026-09-03T12:14:24.000Z</time>
      </trkpt>
      <trkpt lat="48.20743" lon="6.6706">
        <ele>506.79998779297</ele>
        <time>2026-09-03T12:14:25.000Z</time>
      </trkpt>
      <trkpt lat="48.20743" lon="6.6706">
        <ele>506.79998779297</ele>
        <time>2026-09-03T12:14:26.000Z</time>
      </trkpt>
      <trkpt lat="48.20743" lon="6.6706">
        <ele>506.79998779297</ele>
        <time>2026-09-03T12:14:27.000Z</time>
      </trkpt>
      <trkpt lat="48.20743" lon="6.6706">
        <ele>507</ele>
        <time>2026-09-03T12:14:28.000Z</time>
      </trkpt>
      <trkpt lat="48.20743" lon="6.67059">
        <ele>507</ele>
        <time>2026-09-03T12:14:29.000Z</time>
      </trkpt>
      <trkpt lat="48.20743" lon="6.67058">
        <ele>507</ele>
        <time>2026-09-03T12:14:30.000Z</time>
      </trkpt>
      <trkpt lat="48.20742" lon="6.67057">
        <ele>507</ele>
        <time>2026-09-03T12:14:31.000Z</time>
      </trkpt>
      <trkpt lat="48.20742" lon="6.67055">
        <ele>507.20001220703</ele>
        <time>2026-09-03T12:14:32.000Z</time>
      </trkpt>
      <trkpt lat="48.20741" lon="6.67054">
        <ele>507.40002441406</ele>
        <time>2026-09-03T12:14:33.000Z</time>
      </trkpt>
      <trkpt lat="48.20741" lon="6.67053">
        <ele>507.40002441406</ele>
        <time>2026-09-03T12:14:34.000Z</time>
      </trkpt>
      <trkpt lat="48.2074" lon="6.67051">
        <ele>507.59997558594</ele>
        <time>2026-09-03T12:14:35.000Z</time>
      </trkpt>
      <trkpt lat="48.2074" lon="6.67049">
        <ele>507.79998779297</ele>
        <time>2026-09-03T12:14:36.000Z</time>
      </trkpt>
      <trkpt lat="48.20739" lon="6.67048">
        <ele>507.79998779297</ele>
        <time>2026-09-03T12:14:37.000Z</time>
      </trkpt>
      <trkpt lat="48.20739" lon="6.67047">
        <ele>508</ele>
        <time>2026-09-03T12:14:38.000Z</time>
      </trkpt>
      <trkpt lat="48.20738" lon="6.67045">
        <ele>508.20001220703</ele>
        <time>2026-09-03T12:14:39.000Z</time>
      </trkpt>
      <trkpt lat="48.20738" lon="6.67044">
        <ele>508.40002441406</ele>
        <time>2026-09-03T12:14:40.000Z</time>
      </trkpt>
      <trkpt lat="48.20737" lon="6.67042">
        <ele>508.59997558594</ele>
        <time>2026-09-03T12:14:41.000Z</time>
      </trkpt>
      <trkpt lat="48.20736" lon="6.67041">
        <ele>508.59997558594</ele>
        <time>2026-09-03T12:14:42.000Z</time>
      </trkpt>
      <trkpt lat="48.20735" lon="6.67039">
        <ele>508.79998779297</ele>
        <time>2026-09-03T12:14:43.000Z</time>
      </trkpt>
      <trkpt lat="48.20735" lon="6.67038">
        <ele>508.79998779297</ele>
        <time>2026-09-03T12:14:44.000Z</time>
      </trkpt>
      <trkpt lat="48.20734" lon="6.67037">
        <ele>509</ele>
        <time>2026-09-03T12:14:45.000Z</time>
      </trkpt>
      <trkpt lat="48.20733" lon="6.67035">
        <ele>509.20001220703</ele>
        <time>2026-09-03T12:14:46.000Z</time>
      </trkpt>
      <trkpt lat="48.20733" lon="6.67034">
        <ele>509.20001220703</ele>
        <time>2026-09-03T12:14:47.000Z</time>
      </trkpt>
      <trkpt lat="48.20733" lon="6.67033">
        <ele>509.40002441406</ele>
        <time>2026-09-03T12:14:48.000Z</time>
      </trkpt>
      <trkpt lat="48.20733" lon="6.67032">
        <ele>509.59997558594</ele>
        <time>2026-09-03T12:14:49.000Z</time>
      </trkpt>
      <trkpt lat="48.20732" lon="6.67031">
        <ele>509.79998779297</ele>
        <time>2026-09-03T12:14:50.000Z</time>
      </trkpt>
      <trkpt lat="48.20732" lon="6.67031">
        <ele>509.79998779297</ele>
        <time>2026-09-03T12:14:51.000Z</time>
      </trkpt>
      <trkpt lat="48.20731" lon="6.67031">
        <ele>510</ele>
        <time>2026-09-03T12:14:52.000Z</time>
      </trkpt>
      <trkpt lat="48.2073" lon="6.6703">
        <ele>510</ele>
        <time>2026-09-03T12:14:53.000Z</time>
      </trkpt>
      <trkpt lat="48.2073" lon="6.67029">
        <ele>510.20001220703</ele>
        <time>2026-09-03T12:14:54.000Z</time>
      </trkpt>
      <trkpt lat="48.20729" lon="6.67028">
        <ele>510.40002441406</ele>
        <time>2026-09-03T12:14:55.000Z</time>
      </trkpt>
      <trkpt lat="48.20729" lon="6.67027">
        <ele>510.59997558594</ele>
        <time>2026-09-03T12:14:56.000Z</time>
      </trkpt>
      <trkpt lat="48.20729" lon="6.67027">
        <ele>510.59997558594</ele>
        <time>2026-09-03T12:14:57.000Z</time>
      </trkpt>
      <trkpt lat="48.20728" lon="6.67026">
        <ele>510.79998779297</ele>
        <time>2026-09-03T12:14:58.000Z</time>
      </trkpt>
      <trkpt lat="48.20727" lon="6.67026">
        <ele>511</ele>
        <time>2026-09-03T12:14:59.000Z</time>
      </trkpt>
      <trkpt lat="48.20726" lon="6.67025">
        <ele>511</ele>
        <time>2026-09-03T12:15:00.000Z</time>
      </trkpt>
      <trkpt lat="48.20726" lon="6.67024">
        <ele>511.20001220703</ele>
        <time>2026-09-03T12:15:01.000Z</time>
      </trkpt>
      <trkpt lat="48.20725" lon="6.67023">
        <ele>511.40002441406</ele>
        <time>2026-09-03T12:15:02.000Z</time>
      </trkpt>
      <trkpt lat="48.20724" lon="6.67023">
        <ele>511.40002441406</ele>
        <time>2026-09-03T12:15:03.000Z</time>
      </trkpt>
      <trkpt lat="48.20724" lon="6.67021">
        <ele>511.59997558594</ele>
        <time>2026-09-03T12:15:04.000Z</time>
      </trkpt>
      <trkpt lat="48.20723" lon="6.6702">
        <ele>511.79998779297</ele>
        <time>2026-09-03T12:15:05.000Z</time>
      </trkpt>
      <trkpt lat="48.20722" lon="6.67019">
        <ele>511.79998779297</ele>
        <time>2026-09-03T12:15:06.000Z</time>
      </trkpt>
      <trkpt lat="48.20722" lon="6.67018">
        <ele>512</ele>
        <time>2026-09-03T12:15:07.000Z</time>
      </trkpt>
      <trkpt lat="48.20721" lon="6.67017">
        <ele>512.20001220703</ele>
        <time>2026-09-03T12:15:08.000Z</time>
      </trkpt>
      <trkpt lat="48.20721" lon="6.67017">
        <ele>512.40002441406</ele>
        <time>2026-09-03T12:15:09.000Z</time>
      </trkpt>
      <trkpt lat="48.2072" lon="6.67017">
        <ele>512.40002441406</ele>
        <time>2026-09-03T12:15:10.000Z</time>
      </trkpt>
      <trkpt lat="48.2072" lon="6.67016">
        <ele>512.59997558594</ele>
        <time>2026-09-03T12:15:11.000Z</time>
      </trkpt>
      <trkpt lat="48.20719" lon="6.67016">
        <ele>512.59997558594</ele>
        <time>2026-09-03T12:15:12.000Z</time>
      </trkpt>
      <trkpt lat="48.20718" lon="6.67016">
        <ele>512.59997558594</ele>
        <time>2026-09-03T12:15:13.000Z</time>
      </trkpt>
      <trkpt lat="48.20718" lon="6.67016">
        <ele>512.79998779297</ele>
        <time>2026-09-03T12:15:14.000Z</time>
      </trkpt>
      <trkpt lat="48.20717" lon="6.67015">
        <ele>512.79998779297</ele>
        <time>2026-09-03T12:15:15.000Z</time>
      </trkpt>
      <trkpt lat="48.20716" lon="6.67015">
        <ele>513</ele>
        <time>2026-09-03T12:15:16.000Z</time>
      </trkpt>
      <trkpt lat="48.20716" lon="6.67014">
        <ele>513.20001220703</ele>
        <time>2026-09-03T12:15:17.000Z</time>
      </trkpt>
      <trkpt lat="48.20715" lon="6.67014">
        <ele>513.20001220703</ele>
        <time>2026-09-03T12:15:18.000Z</time>
      </trkpt>
      <trkpt lat="48.20714" lon="6.67013">
        <ele>513.40002441406</ele>
        <time>2026-09-03T12:15:19.000Z</time>
      </trkpt>
      <trkpt lat="48.20714" lon="6.67012">
        <ele>513.40002441406</ele>
        <time>2026-09-03T12:15:20.000Z</time>
      </trkpt>
      <trkpt lat="48.20713" lon="6.67012">
        <ele>513.59997558594</ele>
        <time>2026-09-03T12:15:21.000Z</time>
      </trkpt>
      <trkpt lat="48.20712" lon="6.67011">
        <ele>513.59997558594</ele>
        <time>2026-09-03T12:15:22.000Z</time>
      </trkpt>
      <trkpt lat="48.20711" lon="6.6701">
        <ele>513.79998779297</ele>
        <time>2026-09-03T12:15:23.000Z</time>
      </trkpt>
      <trkpt lat="48.20711" lon="6.67009">
        <ele>514</ele>
        <time>2026-09-03T12:15:24.000Z</time>
      </trkpt>
      <trkpt lat="48.2071" lon="6.67008">
        <ele>514</ele>
        <time>2026-09-03T12:15:25.000Z</time>
      </trkpt>
      <trkpt lat="48.20709" lon="6.67008">
        <ele>514.20001220703</ele>
        <time>2026-09-03T12:15:26.000Z</time>
      </trkpt>
      <trkpt lat="48.20708" lon="6.67007">
        <ele>514.20001220703</ele>
        <time>2026-09-03T12:15:27.000Z</time>
      </trkpt>
      <trkpt lat="48.20708" lon="6.67007">
        <ele>514.40002441406</ele>
        <time>2026-09-03T12:15:28.000Z</time>
      </trkpt>
      <trkpt lat="48.20707" lon="6.67006">
        <ele>514.40002441406</ele>
        <time>2026-09-03T12:15:29.000Z</time>
      </trkpt>
      <trkpt lat="48.20706" lon="6.67005">
        <ele>514.59997558594</ele>
        <time>2026-09-03T12:15:30.000Z</time>
      </trkpt>
      <trkpt lat="48.20704" lon="6.67005">
        <ele>514.79998779297</ele>
        <time>2026-09-03T12:15:31.000Z</time>
      </trkpt>
      <trkpt lat="48.20704" lon="6.67005">
        <ele>514.79998779297</ele>
        <time>2026-09-03T12:15:32.000Z</time>
      </trkpt>
      <trkpt lat="48.20702" lon="6.67004">
        <ele>514.79998779297</ele>
        <time>2026-09-03T12:15:33.000Z</time>
      </trkpt>
      <trkpt lat="48.20701" lon="6.67004">
        <ele>515</ele>
        <time>2026-09-03T12:15:34.000Z</time>
      </trkpt>
      <trkpt lat="48.207" lon="6.67004">
        <ele>515</ele>
        <time>2026-09-03T12:15:35.000Z</time>
      </trkpt>
      <trkpt lat="48.207" lon="6.67004">
        <ele>515</ele>
        <time>2026-09-03T12:15:36.000Z</time>
      </trkpt>
      <trkpt lat="48.20699" lon="6.67003">
        <ele>515.20001220703</ele>
        <time>2026-09-03T12:15:37.000Z</time>
      </trkpt>
      <trkpt lat="48.20697" lon="6.67003">
        <ele>515.40002441406</ele>
        <time>2026-09-03T12:15:38.000Z</time>
      </trkpt>
      <trkpt lat="48.20696" lon="6.67002">
        <ele>515.59997558594</ele>
        <time>2026-09-03T12:15:39.000Z</time>
      </trkpt>
      <trkpt lat="48.20696" lon="6.67001">
        <ele>515.79998779297</ele>
        <time>2026-09-03T12:15:40.000Z</time>
      </trkpt>
      <trkpt lat="48.20695" lon="6.67">
        <ele>516</ele>
        <time>2026-09-03T12:15:41.000Z</time>
      </trkpt>
      <trkpt lat="48.20694" lon="6.67">
        <ele>516</ele>
        <time>2026-09-03T12:15:42.000Z</time>
      </trkpt>
      <trkpt lat="48.20694" lon="6.66999">
        <ele>516</ele>
        <time>2026-09-03T12:15:43.000Z</time>
      </trkpt>
      <trkpt lat="48.20693" lon="6.66998">
        <ele>516.20001220703</ele>
        <time>2026-09-03T12:15:44.000Z</time>
      </trkpt>
      <trkpt lat="48.20692" lon="6.66998">
        <ele>516.20001220703</ele>
        <time>2026-09-03T12:15:45.000Z</time>
      </trkpt>
      <trkpt lat="48.20692" lon="6.66997">
        <ele>516.40002441406</ele>
        <time>2026-09-03T12:15:46.000Z</time>
      </trkpt>
      <trkpt lat="48.20692" lon="6.66996">
        <ele>516.40002441406</ele>
        <time>2026-09-03T12:15:47.000Z</time>
      </trkpt>
      <trkpt lat="48.20691" lon="6.66996">
        <ele>516.40002441406</ele>
        <time>2026-09-03T12:15:48.000Z</time>
      </trkpt>
      <trkpt lat="48.20691" lon="6.66994">
        <ele>516.59997558594</ele>
        <time>2026-09-03T12:15:49.000Z</time>
      </trkpt>
      <trkpt lat="48.20691" lon="6.66993">
        <ele>516.59997558594</ele>
        <time>2026-09-03T12:15:50.000Z</time>
      </trkpt>
      <trkpt lat="48.20691" lon="6.66991">
        <ele>516.59997558594</ele>
        <time>2026-09-03T12:15:51.000Z</time>
      </trkpt>
      <trkpt lat="48.20691" lon="6.66991">
        <ele>516.59997558594</ele>
        <time>2026-09-03T12:15:52.000Z</time>
      </trkpt>
      <trkpt lat="48.20691" lon="6.6699">
        <ele>516.59997558594</ele>
        <time>2026-09-03T12:15:53.000Z</time>
      </trkpt>
      <trkpt lat="48.20691" lon="6.66989">
        <ele>516.59997558594</ele>
        <time>2026-09-03T12:15:54.000Z</time>
      </trkpt>
      <trkpt lat="48.20691" lon="6.66989">
        <ele>516.59997558594</ele>
        <time>2026-09-03T12:15:55.000Z</time>
      </trkpt>
      <trkpt lat="48.20691" lon="6.66988">
        <ele>516.59997558594</ele>
        <time>2026-09-03T12:15:56.000Z</time>
      </trkpt>
      <trkpt lat="48.20691" lon="6.66987">
        <ele>516.59997558594</ele>
        <time>2026-09-03T12:15:57.000Z</time>
      </trkpt>
      <trkpt lat="48.20691" lon="6.66986">
        <ele>516.59997558594</ele>
        <time>2026-09-03T12:15:58.000Z</time>
      </trkpt>
      <trkpt lat="48.20691" lon="6.66985">
        <ele>516.79998779297</ele>
        <time>2026-09-03T12:15:59.000Z</time>
      </trkpt>
      <trkpt lat="48.20692" lon="6.66983">
        <ele>516.79998779297</ele>
        <time>2026-09-03T12:16:00.000Z</time>
      </trkpt>
      <trkpt lat="48.20692" lon="6.66982">
        <ele>516.79998779297</ele>
        <time>2026-09-03T12:16:01.000Z</time>
      </trkpt>
      <trkpt lat="48.20692" lon="6.6698">
        <ele>517</ele>
        <time>2026-09-03T12:16:02.000Z</time>
      </trkpt>
      <trkpt lat="48.20692" lon="6.66978">
        <ele>517</ele>
        <time>2026-09-03T12:16:03.000Z</time>
      </trkpt>
      <trkpt lat="48.20692" lon="6.66976">
        <ele>517.20001220703</ele>
        <time>2026-09-03T12:16:04.000Z</time>
      </trkpt>
      <trkpt lat="48.20692" lon="6.66973">
        <ele>517.20001220703</ele>
        <time>2026-09-03T12:16:05.000Z</time>
      </trkpt>
      <trkpt lat="48.20693" lon="6.66971">
        <ele>517.40002441406</ele>
        <time>2026-09-03T12:16:06.000Z</time>
      </trkpt>
      <trkpt lat="48.20693" lon="6.66969">
        <ele>517.40002441406</ele>
        <time>2026-09-03T12:16:07.000Z</time>
      </trkpt>
      <trkpt lat="48.20694" lon="6.66968">
        <ele>517.59997558594</ele>
        <time>2026-09-03T12:16:08.000Z</time>
      </trkpt>
      <trkpt lat="48.20694" lon="6.66966">
        <ele>517.59997558594</ele>
        <time>2026-09-03T12:16:09.000Z</time>
      </trkpt>
      <trkpt lat="48.20694" lon="6.66965">
        <ele>517.79998779297</ele>
        <time>2026-09-03T12:16:10.000Z</time>
      </trkpt>
      <trkpt lat="48.20695" lon="6.66963">
        <ele>517.79998779297</ele>
        <time>2026-09-03T12:16:11.000Z</time>
      </trkpt>
      <trkpt lat="48.20696" lon="6.66962">
        <ele>517.79998779297</ele>
        <time>2026-09-03T12:16:12.000Z</time>
      </trkpt>
      <trkpt lat="48.20696" lon="6.66962">
        <ele>518</ele>
        <time>2026-09-03T12:16:13.000Z</time>
      </trkpt>
      <trkpt lat="48.20696" lon="6.6696">
        <ele>518</ele>
        <time>2026-09-03T12:16:14.000Z</time>
      </trkpt>
      <trkpt lat="48.20697" lon="6.66959">
        <ele>518.20001220703</ele>
        <time>2026-09-03T12:16:15.000Z</time>
      </trkpt>
      <trkpt lat="48.20697" lon="6.66958">
        <ele>518.40002441406</ele>
        <time>2026-09-03T12:16:16.000Z</time>
      </trkpt>
      <trkpt lat="48.20698" lon="6.66957">
        <ele>518.40002441406</ele>
        <time>2026-09-03T12:16:17.000Z</time>
      </trkpt>
      <trkpt lat="48.20698" lon="6.66956">
        <ele>518.59997558594</ele>
        <time>2026-09-03T12:16:18.000Z</time>
      </trkpt>
      <trkpt lat="48.20699" lon="6.66955">
        <ele>518.79998779297</ele>
        <time>2026-09-03T12:16:19.000Z</time>
      </trkpt>
      <trkpt lat="48.20699" lon="6.66954">
        <ele>518.79998779297</ele>
        <time>2026-09-03T12:16:20.000Z</time>
      </trkpt>
      <trkpt lat="48.207" lon="6.66953">
        <ele>518.79998779297</ele>
        <time>2026-09-03T12:16:21.000Z</time>
      </trkpt>
      <trkpt lat="48.20701" lon="6.66953">
        <ele>519</ele>
        <time>2026-09-03T12:16:22.000Z</time>
      </trkpt>
      <trkpt lat="48.20702" lon="6.66952">
        <ele>519</ele>
        <time>2026-09-03T12:16:23.000Z</time>
      </trkpt>
      <trkpt lat="48.20702" lon="6.66951">
        <ele>519.20001220703</ele>
        <time>2026-09-03T12:16:24.000Z</time>
      </trkpt>
      <trkpt lat="48.20703" lon="6.66951">
        <ele>519.40002441406</ele>
        <time>2026-09-03T12:16:25.000Z</time>
      </trkpt>
      <trkpt lat="48.20704" lon="6.6695">
        <ele>519.59997558594</ele>
        <time>2026-09-03T12:16:26.000Z</time>
      </trkpt>
      <trkpt lat="48.20705" lon="6.66949">
        <ele>519.59997558594</ele>
        <time>2026-09-03T12:16:27.000Z</time>
      </trkpt>
      <trkpt lat="48.20705" lon="6.66948">
        <ele>519.79998779297</ele>
        <time>2026-09-03T12:16:28.000Z</time>
      </trkpt>
      <trkpt lat="48.20706" lon="6.66947">
        <ele>520</ele>
        <time>2026-09-03T12:16:29.000Z</time>
      </trkpt>
      <trkpt lat="48.20707" lon="6.66947">
        <ele>520</ele>
        <time>2026-09-03T12:16:30.000Z</time>
      </trkpt>
      <trkpt lat="48.20708" lon="6.66946">
        <ele>520.20001220703</ele>
        <time>2026-09-03T12:16:31.000Z</time>
      </trkpt>
      <trkpt lat="48.20708" lon="6.66946">
        <ele>520.20001220703</ele>
        <time>2026-09-03T12:16:32.000Z</time>
      </trkpt>
      <trkpt lat="48.20709" lon="6.66945">
        <ele>520.40002441406</ele>
        <time>2026-09-03T12:16:33.000Z</time>
      </trkpt>
      <trkpt lat="48.20709" lon="6.66945">
        <ele>520.40002441406</ele>
        <time>2026-09-03T12:16:34.000Z</time>
      </trkpt>
      <trkpt lat="48.2071" lon="6.66944">
        <ele>520.59997558594</ele>
        <time>2026-09-03T12:16:35.000Z</time>
      </trkpt>
      <trkpt lat="48.20711" lon="6.66943">
        <ele>520.79998779297</ele>
        <time>2026-09-03T12:16:36.000Z</time>
      </trkpt>
      <trkpt lat="48.20712" lon="6.66942">
        <ele>521</ele>
        <time>2026-09-03T12:16:37.000Z</time>
      </trkpt>
      <trkpt lat="48.20712" lon="6.66941">
        <ele>521</ele>
        <time>2026-09-03T12:16:38.000Z</time>
      </trkpt>
      <trkpt lat="48.20713" lon="6.6694">
        <ele>521.20001220703</ele>
        <time>2026-09-03T12:16:39.000Z</time>
      </trkpt>
      <trkpt lat="48.20713" lon="6.6694">
        <ele>521.40002441406</ele>
        <time>2026-09-03T12:16:40.000Z</time>
      </trkpt>
      <trkpt lat="48.20714" lon="6.66939">
        <ele>521.40002441406</ele>
        <time>2026-09-03T12:16:41.000Z</time>
      </trkpt>
      <trkpt lat="48.20714" lon="6.66939">
        <ele>521.59997558594</ele>
        <time>2026-09-03T12:16:42.000Z</time>
      </trkpt>
      <trkpt lat="48.20715" lon="6.66938">
        <ele>521.59997558594</ele>
        <time>2026-09-03T12:16:43.000Z</time>
      </trkpt>
      <trkpt lat="48.20716" lon="6.66937">
        <ele>521.79998779297</ele>
        <time>2026-09-03T12:16:44.000Z</time>
      </trkpt>
      <trkpt lat="48.20716" lon="6.66936">
        <ele>521.79998779297</ele>
        <time>2026-09-03T12:16:45.000Z</time>
      </trkpt>
      <trkpt lat="48.20717" lon="6.66935">
        <ele>522</ele>
        <time>2026-09-03T12:16:46.000Z</time>
      </trkpt>
      <trkpt lat="48.20718" lon="6.66934">
        <ele>522</ele>
        <time>2026-09-03T12:16:47.000Z</time>
      </trkpt>
      <trkpt lat="48.20718" lon="6.66933">
        <ele>522</ele>
        <time>2026-09-03T12:16:48.000Z</time>
      </trkpt>
      <trkpt lat="48.20719" lon="6.66933">
        <ele>522</ele>
        <time>2026-09-03T12:16:49.000Z</time>
      </trkpt>
      <trkpt lat="48.2072" lon="6.66932">
        <ele>522.20001220703</ele>
        <time>2026-09-03T12:16:50.000Z</time>
      </trkpt>
      <trkpt lat="48.20721" lon="6.66932">
        <ele>522.20001220703</ele>
        <time>2026-09-03T12:16:51.000Z</time>
      </trkpt>
      <trkpt lat="48.20722" lon="6.66931">
        <ele>522.20001220703</ele>
        <time>2026-09-03T12:16:52.000Z</time>
      </trkpt>
      <trkpt lat="48.20722" lon="6.6693">
        <ele>522.20001220703</ele>
        <time>2026-09-03T12:16:53.000Z</time>
      </trkpt>
      <trkpt lat="48.20723" lon="6.6693">
        <ele>522.20001220703</ele>
        <time>2026-09-03T12:16:54.000Z</time>
      </trkpt>
      <trkpt lat="48.20724" lon="6.66929">
        <ele>522.40002441406</ele>
        <time>2026-09-03T12:16:55.000Z</time>
      </trkpt>
      <trkpt lat="48.20724" lon="6.66928">
        <ele>522.40002441406</ele>
        <time>2026-09-03T12:16:56.000Z</time>
      </trkpt>
      <trkpt lat="48.20725" lon="6.66928">
        <ele>522.40002441406</ele>
        <time>2026-09-03T12:16:57.000Z</time>
      </trkpt>
      <trkpt lat="48.20726" lon="6.66927">
        <ele>522.59997558594</ele>
        <time>2026-09-03T12:16:58.000Z</time>
      </trkpt>
      <trkpt lat="48.20727" lon="6.66926">
        <ele>522.59997558594</ele>
        <time>2026-09-03T12:16:59.000Z</time>
      </trkpt>
      <trkpt lat="48.20728" lon="6.66925">
        <ele>522.59997558594</ele>
        <time>2026-09-03T12:17:00.000Z</time>
      </trkpt>
      <trkpt lat="48.20729" lon="6.66924">
        <ele>522.59997558594</ele>
        <time>2026-09-03T12:17:01.000Z</time>
      </trkpt>
      <trkpt lat="48.2073" lon="6.66924">
        <ele>522.79998779297</ele>
        <time>2026-09-03T12:17:02.000Z</time>
      </trkpt>
      <trkpt lat="48.20731" lon="6.66922">
        <ele>522.79998779297</ele>
        <time>2026-09-03T12:17:03.000Z</time>
      </trkpt>
      <trkpt lat="48.20731" lon="6.66922">
        <ele>523</ele>
        <time>2026-09-03T12:17:04.000Z</time>
      </trkpt>
      <trkpt lat="48.20732" lon="6.66921">
        <ele>523</ele>
        <time>2026-09-03T12:17:05.000Z</time>
      </trkpt>
      <trkpt lat="48.20733" lon="6.66921">
        <ele>523.20001220703</ele>
        <time>2026-09-03T12:17:06.000Z</time>
      </trkpt>
      <trkpt lat="48.20734" lon="6.66919">
        <ele>523.20001220703</ele>
        <time>2026-09-03T12:17:07.000Z</time>
      </trkpt>
      <trkpt lat="48.20735" lon="6.66919">
        <ele>523.20001220703</ele>
        <time>2026-09-03T12:17:08.000Z</time>
      </trkpt>
      <trkpt lat="48.20735" lon="6.66918">
        <ele>523.20001220703</ele>
        <time>2026-09-03T12:17:09.000Z</time>
      </trkpt>
      <trkpt lat="48.20736" lon="6.66917">
        <ele>523.40002441406</ele>
        <time>2026-09-03T12:17:10.000Z</time>
      </trkpt>
      <trkpt lat="48.20737" lon="6.66916">
        <ele>523.40002441406</ele>
        <time>2026-09-03T12:17:11.000Z</time>
      </trkpt>
      <trkpt lat="48.20738" lon="6.66915">
        <ele>523.40002441406</ele>
        <time>2026-09-03T12:17:12.000Z</time>
      </trkpt>
      <trkpt lat="48.20739" lon="6.66915">
        <ele>523.40002441406</ele>
        <time>2026-09-03T12:17:13.000Z</time>
      </trkpt>
      <trkpt lat="48.2074" lon="6.66914">
        <ele>523.40002441406</ele>
        <time>2026-09-03T12:17:14.000Z</time>
      </trkpt>
      <trkpt lat="48.20741" lon="6.66913">
        <ele>523.40002441406</ele>
        <time>2026-09-03T12:17:15.000Z</time>
      </trkpt>
      <trkpt lat="48.20742" lon="6.66912">
        <ele>523.59997558594</ele>
        <time>2026-09-03T12:17:16.000Z</time>
      </trkpt>
      <trkpt lat="48.20742" lon="6.66911">
        <ele>523.79998779297</ele>
        <time>2026-09-03T12:17:17.000Z</time>
      </trkpt>
      <trkpt lat="48.20743" lon="6.66911">
        <ele>523.79998779297</ele>
        <time>2026-09-03T12:17:18.000Z</time>
      </trkpt>
      <trkpt lat="48.20743" lon="6.6691">
        <ele>524</ele>
        <time>2026-09-03T12:17:19.000Z</time>
      </trkpt>
      <trkpt lat="48.20744" lon="6.6691">
        <ele>524.19995117188</ele>
        <time>2026-09-03T12:17:20.000Z</time>
      </trkpt>
      <trkpt lat="48.20745" lon="6.66909">
        <ele>524.19995117188</ele>
        <time>2026-09-03T12:17:21.000Z</time>
      </trkpt>
      <trkpt lat="48.20745" lon="6.66909">
        <ele>524.40002441406</ele>
        <time>2026-09-03T12:17:22.000Z</time>
      </trkpt>
      <trkpt lat="48.20746" lon="6.66908">
        <ele>524.40002441406</ele>
        <time>2026-09-03T12:17:23.000Z</time>
      </trkpt>
      <trkpt lat="48.20747" lon="6.66907">
        <ele>524.40002441406</ele>
        <time>2026-09-03T12:17:24.000Z</time>
      </trkpt>
      <trkpt lat="48.20748" lon="6.66906">
        <ele>524.40002441406</ele>
        <time>2026-09-03T12:17:25.000Z</time>
      </trkpt>
      <trkpt lat="48.20749" lon="6.66905">
        <ele>524.59997558594</ele>
        <time>2026-09-03T12:17:26.000Z</time>
      </trkpt>
      <trkpt lat="48.2075" lon="6.66904">
        <ele>524.59997558594</ele>
        <time>2026-09-03T12:17:27.000Z</time>
      </trkpt>
      <trkpt lat="48.20751" lon="6.66903">
        <ele>524.80004882812</ele>
        <time>2026-09-03T12:17:28.000Z</time>
      </trkpt>
      <trkpt lat="48.20752" lon="6.66902">
        <ele>525</ele>
        <time>2026-09-03T12:17:29.000Z</time>
      </trkpt>
      <trkpt lat="48.20753" lon="6.66902">
        <ele>525.19995117188</ele>
        <time>2026-09-03T12:17:30.000Z</time>
      </trkpt>
      <trkpt lat="48.20754" lon="6.66901">
        <ele>525.40002441406</ele>
        <time>2026-09-03T12:17:31.000Z</time>
      </trkpt>
      <trkpt lat="48.20755" lon="6.669">
        <ele>525.40002441406</ele>
        <time>2026-09-03T12:17:32.000Z</time>
      </trkpt>
      <trkpt lat="48.20755" lon="6.669">
        <ele>525.59997558594</ele>
        <time>2026-09-03T12:17:33.000Z</time>
      </trkpt>
      <trkpt lat="48.20756" lon="6.66899">
        <ele>525.80004882812</ele>
        <time>2026-09-03T12:17:34.000Z</time>
      </trkpt>
      <trkpt lat="48.20757" lon="6.66899">
        <ele>525.80004882812</ele>
        <time>2026-09-03T12:17:35.000Z</time>
      </trkpt>
      <trkpt lat="48.20757" lon="6.66897">
        <ele>525.80004882812</ele>
        <time>2026-09-03T12:17:36.000Z</time>
      </trkpt>
      <trkpt lat="48.20759" lon="6.66897">
        <ele>526</ele>
        <time>2026-09-03T12:17:37.000Z</time>
      </trkpt>
      <trkpt lat="48.20759" lon="6.66897">
        <ele>526</ele>
        <time>2026-09-03T12:17:38.000Z</time>
      </trkpt>
      <trkpt lat="48.2076" lon="6.66896">
        <ele>526.19995117188</ele>
        <time>2026-09-03T12:17:39.000Z</time>
      </trkpt>
      <trkpt lat="48.20761" lon="6.66895">
        <ele>526.19995117188</ele>
        <time>2026-09-03T12:17:40.000Z</time>
      </trkpt>
      <trkpt lat="48.20762" lon="6.66894">
        <ele>526</ele>
        <time>2026-09-03T12:17:41.000Z</time>
      </trkpt>
      <trkpt lat="48.20763" lon="6.66893">
        <ele>526</ele>
        <time>2026-09-03T12:17:42.000Z</time>
      </trkpt>
      <trkpt lat="48.20764" lon="6.66893">
        <ele>526</ele>
        <time>2026-09-03T12:17:43.000Z</time>
      </trkpt>
      <trkpt lat="48.20764" lon="6.66892">
        <ele>525.80004882812</ele>
        <time>2026-09-03T12:17:44.000Z</time>
      </trkpt>
      <trkpt lat="48.20765" lon="6.66891">
        <ele>525.80004882812</ele>
        <time>2026-09-03T12:17:45.000Z</time>
      </trkpt>
      <trkpt lat="48.20766" lon="6.6689">
        <ele>525.80004882812</ele>
        <time>2026-09-03T12:17:46.000Z</time>
      </trkpt>
      <trkpt lat="48.20767" lon="6.66889">
        <ele>525.80004882812</ele>
        <time>2026-09-03T12:17:47.000Z</time>
      </trkpt>
      <trkpt lat="48.20768" lon="6.66889">
        <ele>525.80004882812</ele>
        <time>2026-09-03T12:17:48.000Z</time>
      </trkpt>
      <trkpt lat="48.20769" lon="6.66889">
        <ele>526</ele>
        <time>2026-09-03T12:17:49.000Z</time>
      </trkpt>
      <trkpt lat="48.2077" lon="6.66888">
        <ele>526</ele>
        <time>2026-09-03T12:17:50.000Z</time>
      </trkpt>
      <trkpt lat="48.20771" lon="6.66886">
        <ele>526</ele>
        <time>2026-09-03T12:17:51.000Z</time>
      </trkpt>
      <trkpt lat="48.20772" lon="6.66885">
        <ele>526.19995117188</ele>
        <time>2026-09-03T12:17:52.000Z</time>
      </trkpt>
      <trkpt lat="48.20772" lon="6.66884">
        <ele>526.19995117188</ele>
        <time>2026-09-03T12:17:53.000Z</time>
      </trkpt>
      <trkpt lat="48.20773" lon="6.66883">
        <ele>526.19995117188</ele>
        <time>2026-09-03T12:17:54.000Z</time>
      </trkpt>
      <trkpt lat="48.20774" lon="6.66882">
        <ele>526</ele>
        <time>2026-09-03T12:17:55.000Z</time>
      </trkpt>
      <trkpt lat="48.20775" lon="6.66881">
        <ele>526</ele>
        <time>2026-09-03T12:17:56.000Z</time>
      </trkpt>
      <trkpt lat="48.20775" lon="6.6688">
        <ele>526</ele>
        <time>2026-09-03T12:17:57.000Z</time>
      </trkpt>
      <trkpt lat="48.20776" lon="6.66879">
        <ele>526</ele>
        <time>2026-09-03T12:17:58.000Z</time>
      </trkpt>
      <trkpt lat="48.20777" lon="6.66878">
        <ele>526</ele>
        <time>2026-09-03T12:17:59.000Z</time>
      </trkpt>
      <trkpt lat="48.20778" lon="6.66877">
        <ele>526</ele>
        <time>2026-09-03T12:18:00.000Z</time>
      </trkpt>
      <trkpt lat="48.20778" lon="6.66876">
        <ele>526</ele>
        <time>2026-09-03T12:18:01.000Z</time>
      </trkpt>
      <trkpt lat="48.20779" lon="6.66875">
        <ele>526</ele>
        <time>2026-09-03T12:18:02.000Z</time>
      </trkpt>
      <trkpt lat="48.2078" lon="6.66874">
        <ele>526</ele>
        <time>2026-09-03T12:18:03.000Z</time>
      </trkpt>
      <trkpt lat="48.2078" lon="6.66873">
        <ele>526</ele>
        <time>2026-09-03T12:18:04.000Z</time>
      </trkpt>
      <trkpt lat="48.20781" lon="6.66873">
        <ele>526</ele>
        <time>2026-09-03T12:18:05.000Z</time>
      </trkpt>
      <trkpt lat="48.20781" lon="6.66872">
        <ele>526</ele>
        <time>2026-09-03T12:18:06.000Z</time>
      </trkpt>
      <trkpt lat="48.20782" lon="6.66871">
        <ele>526.19995117188</ele>
        <time>2026-09-03T12:18:07.000Z</time>
      </trkpt>
      <trkpt lat="48.20783" lon="6.6687">
        <ele>526.19995117188</ele>
        <time>2026-09-03T12:18:08.000Z</time>
      </trkpt>
      <trkpt lat="48.20784" lon="6.66869">
        <ele>526.19995117188</ele>
        <time>2026-09-03T12:18:09.000Z</time>
      </trkpt>
      <trkpt lat="48.20784" lon="6.66868">
        <ele>526.19995117188</ele>
        <time>2026-09-03T12:18:10.000Z</time>
      </trkpt>
      <trkpt lat="48.20785" lon="6.66867">
        <ele>526.19995117188</ele>
        <time>2026-09-03T12:18:11.000Z</time>
      </trkpt>
      <trkpt lat="48.20786" lon="6.66866">
        <ele>526.19995117188</ele>
        <time>2026-09-03T12:18:12.000Z</time>
      </trkpt>
      <trkpt lat="48.20787" lon="6.66865">
        <ele>526.19995117188</ele>
        <time>2026-09-03T12:18:13.000Z</time>
      </trkpt>
      <trkpt lat="48.20788" lon="6.66864">
        <ele>526.19995117188</ele>
        <time>2026-09-03T12:18:14.000Z</time>
      </trkpt>
      <trkpt lat="48.20789" lon="6.66863">
        <ele>526.40002441406</ele>
        <time>2026-09-03T12:18:15.000Z</time>
      </trkpt>
      <trkpt lat="48.2079" lon="6.66862">
        <ele>526.40002441406</ele>
        <time>2026-09-03T12:18:16.000Z</time>
      </trkpt>
      <trkpt lat="48.20791" lon="6.66861">
        <ele>526.59997558594</ele>
        <time>2026-09-03T12:18:17.000Z</time>
      </trkpt>
      <trkpt lat="48.20792" lon="6.6686">
        <ele>526.59997558594</ele>
        <time>2026-09-03T12:18:18.000Z</time>
      </trkpt>
      <trkpt lat="48.20792" lon="6.66859">
        <ele>526.80004882812</ele>
        <time>2026-09-03T12:18:19.000Z</time>
      </trkpt>
      <trkpt lat="48.20793" lon="6.66858">
        <ele>527</ele>
        <time>2026-09-03T12:18:20.000Z</time>
      </trkpt>
      <trkpt lat="48.20794" lon="6.66857">
        <ele>527</ele>
        <time>2026-09-03T12:18:21.000Z</time>
      </trkpt>
      <trkpt lat="48.20795" lon="6.66857">
        <ele>527.19995117188</ele>
        <time>2026-09-03T12:18:22.000Z</time>
      </trkpt>
      <trkpt lat="48.20796" lon="6.66856">
        <ele>527.19995117188</ele>
        <time>2026-09-03T12:18:23.000Z</time>
      </trkpt>
      <trkpt lat="48.20797" lon="6.66854">
        <ele>527.19995117188</ele>
        <time>2026-09-03T12:18:24.000Z</time>
      </trkpt>
      <trkpt lat="48.20797" lon="6.66853">
        <ele>527.40002441406</ele>
        <time>2026-09-03T12:18:25.000Z</time>
      </trkpt>
      <trkpt lat="48.20798" lon="6.66852">
        <ele>527.40002441406</ele>
        <time>2026-09-03T12:18:26.000Z</time>
      </trkpt>
      <trkpt lat="48.20799" lon="6.66851">
        <ele>527.59997558594</ele>
        <time>2026-09-03T12:18:27.000Z</time>
      </trkpt>
      <trkpt lat="48.20799" lon="6.66849">
        <ele>527.59997558594</ele>
        <time>2026-09-03T12:18:28.000Z</time>
      </trkpt>
      <trkpt lat="48.208" lon="6.66848">
        <ele>527.80004882812</ele>
        <time>2026-09-03T12:18:29.000Z</time>
      </trkpt>
      <trkpt lat="48.20801" lon="6.66847">
        <ele>527.80004882812</ele>
        <time>2026-09-03T12:18:30.000Z</time>
      </trkpt>
      <trkpt lat="48.20801" lon="6.66846">
        <ele>528</ele>
        <time>2026-09-03T12:18:31.000Z</time>
      </trkpt>
      <trkpt lat="48.20801" lon="6.66845">
        <ele>528.19995117188</ele>
        <time>2026-09-03T12:18:32.000Z</time>
      </trkpt>
      <trkpt lat="48.20802" lon="6.66844">
        <ele>528.19995117188</ele>
        <time>2026-09-03T12:18:33.000Z</time>
      </trkpt>
      <trkpt lat="48.20803" lon="6.66843">
        <ele>528.19995117188</ele>
        <time>2026-09-03T12:18:34.000Z</time>
      </trkpt>
      <trkpt lat="48.20803" lon="6.66842">
        <ele>528.40002441406</ele>
        <time>2026-09-03T12:18:35.000Z</time>
      </trkpt>
      <trkpt lat="48.20804" lon="6.66841">
        <ele>528.40002441406</ele>
        <time>2026-09-03T12:18:36.000Z</time>
      </trkpt>
      <trkpt lat="48.20805" lon="6.6684">
        <ele>528.59997558594</ele>
        <time>2026-09-03T12:18:37.000Z</time>
      </trkpt>
      <trkpt lat="48.20806" lon="6.66838">
        <ele>528.59997558594</ele>
        <time>2026-09-03T12:18:38.000Z</time>
      </trkpt>
      <trkpt lat="48.20806" lon="6.66837">
        <ele>528.80004882812</ele>
        <time>2026-09-03T12:18:39.000Z</time>
      </trkpt>
      <trkpt lat="48.20807" lon="6.66836">
        <ele>528.80004882812</ele>
        <time>2026-09-03T12:18:40.000Z</time>
      </trkpt>
      <trkpt lat="48.20808" lon="6.66834">
        <ele>529</ele>
        <time>2026-09-03T12:18:41.000Z</time>
      </trkpt>
      <trkpt lat="48.20809" lon="6.66833">
        <ele>529</ele>
        <time>2026-09-03T12:18:42.000Z</time>
      </trkpt>
      <trkpt lat="48.2081" lon="6.66832">
        <ele>529</ele>
        <time>2026-09-03T12:18:43.000Z</time>
      </trkpt>
      <trkpt lat="48.20811" lon="6.66831">
        <ele>529.19995117188</ele>
        <time>2026-09-03T12:18:44.000Z</time>
      </trkpt>
      <trkpt lat="48.20812" lon="6.66831">
        <ele>529.19995117188</ele>
        <time>2026-09-03T12:18:45.000Z</time>
      </trkpt>
      <trkpt lat="48.20812" lon="6.6683">
        <ele>529.40002441406</ele>
        <time>2026-09-03T12:18:46.000Z</time>
      </trkpt>
      <trkpt lat="48.20813" lon="6.66829">
        <ele>529.40002441406</ele>
        <time>2026-09-03T12:18:47.000Z</time>
      </trkpt>
      <trkpt lat="48.20814" lon="6.66828">
        <ele>529.40002441406</ele>
        <time>2026-09-03T12:18:48.000Z</time>
      </trkpt>
      <trkpt lat="48.20815" lon="6.66827">
        <ele>529.40002441406</ele>
        <time>2026-09-03T12:18:49.000Z</time>
      </trkpt>
      <trkpt lat="48.20816" lon="6.66826">
        <ele>529.40002441406</ele>
        <time>2026-09-03T12:18:50.000Z</time>
      </trkpt>
      <trkpt lat="48.20816" lon="6.66825">
        <ele>529.59997558594</ele>
        <time>2026-09-03T12:18:51.000Z</time>
      </trkpt>
      <trkpt lat="48.20817" lon="6.66823">
        <ele>529.59997558594</ele>
        <time>2026-09-03T12:18:52.000Z</time>
      </trkpt>
      <trkpt lat="48.20818" lon="6.66822">
        <ele>529.59997558594</ele>
        <time>2026-09-03T12:18:53.000Z</time>
      </trkpt>
      <trkpt lat="48.20819" lon="6.66822">
        <ele>529.80004882812</ele>
        <time>2026-09-03T12:18:54.000Z</time>
      </trkpt>
      <trkpt lat="48.20819" lon="6.66822">
        <ele>529.80004882812</ele>
        <time>2026-09-03T12:18:55.000Z</time>
      </trkpt>
      <trkpt lat="48.20821" lon="6.66821">
        <ele>529.80004882812</ele>
        <time>2026-09-03T12:18:56.000Z</time>
      </trkpt>
      <trkpt lat="48.20821" lon="6.66819">
        <ele>530</ele>
        <time>2026-09-03T12:18:57.000Z</time>
      </trkpt>
      <trkpt lat="48.20822" lon="6.66818">
        <ele>530</ele>
        <time>2026-09-03T12:18:58.000Z</time>
      </trkpt>
      <trkpt lat="48.20823" lon="6.66817">
        <ele>530</ele>
        <time>2026-09-03T12:18:59.000Z</time>
      </trkpt>
      <trkpt lat="48.20824" lon="6.66816">
        <ele>530.19995117188</ele>
        <time>2026-09-03T12:19:00.000Z</time>
      </trkpt>
      <trkpt lat="48.20825" lon="6.66816">
        <ele>530.19995117188</ele>
        <time>2026-09-03T12:19:01.000Z</time>
      </trkpt>
      <trkpt lat="48.20825" lon="6.66815">
        <ele>530.19995117188</ele>
        <time>2026-09-03T12:19:02.000Z</time>
      </trkpt>
      <trkpt lat="48.20826" lon="6.66813">
        <ele>530.19995117188</ele>
        <time>2026-09-03T12:19:03.000Z</time>
      </trkpt>
      <trkpt lat="48.20827" lon="6.66812">
        <ele>530</ele>
        <time>2026-09-03T12:19:04.000Z</time>
      </trkpt>
      <trkpt lat="48.20828" lon="6.6681">
        <ele>530</ele>
        <time>2026-09-03T12:19:05.000Z</time>
      </trkpt>
      <trkpt lat="48.20828" lon="6.66809">
        <ele>530</ele>
        <time>2026-09-03T12:19:06.000Z</time>
      </trkpt>
      <trkpt lat="48.20829" lon="6.66808">
        <ele>530</ele>
        <time>2026-09-03T12:19:07.000Z</time>
      </trkpt>
      <trkpt lat="48.20829" lon="6.66807">
        <ele>530</ele>
        <time>2026-09-03T12:19:08.000Z</time>
      </trkpt>
      <trkpt lat="48.2083" lon="6.66805">
        <ele>530</ele>
        <time>2026-09-03T12:19:09.000Z</time>
      </trkpt>
      <trkpt lat="48.20831" lon="6.66804">
        <ele>530</ele>
        <time>2026-09-03T12:19:10.000Z</time>
      </trkpt>
      <trkpt lat="48.20831" lon="6.66803">
        <ele>529.80004882812</ele>
        <time>2026-09-03T12:19:11.000Z</time>
      </trkpt>
      <trkpt lat="48.20832" lon="6.66802">
        <ele>529.80004882812</ele>
        <time>2026-09-03T12:19:12.000Z</time>
      </trkpt>
      <trkpt lat="48.20832" lon="6.66801">
        <ele>529.59997558594</ele>
        <time>2026-09-03T12:19:13.000Z</time>
      </trkpt>
      <trkpt lat="48.20833" lon="6.66799">
        <ele>529.59997558594</ele>
        <time>2026-09-03T12:19:14.000Z</time>
      </trkpt>
      <trkpt lat="48.20833" lon="6.66797">
        <ele>529.59997558594</ele>
        <time>2026-09-03T12:19:15.000Z</time>
      </trkpt>
      <trkpt lat="48.20834" lon="6.66795">
        <ele>529.59997558594</ele>
        <time>2026-09-03T12:19:16.000Z</time>
      </trkpt>
      <trkpt lat="48.20834" lon="6.66794">
        <ele>529.59997558594</ele>
        <time>2026-09-03T12:19:17.000Z</time>
      </trkpt>
      <trkpt lat="48.20834" lon="6.66792">
        <ele>529.59997558594</ele>
        <time>2026-09-03T12:19:18.000Z</time>
      </trkpt>
      <trkpt lat="48.20835" lon="6.66791">
        <ele>529.40002441406</ele>
        <time>2026-09-03T12:19:19.000Z</time>
      </trkpt>
      <trkpt lat="48.20835" lon="6.6679">
        <ele>529.40002441406</ele>
        <time>2026-09-03T12:19:20.000Z</time>
      </trkpt>
      <trkpt lat="48.20836" lon="6.66788">
        <ele>529.19995117188</ele>
        <time>2026-09-03T12:19:21.000Z</time>
      </trkpt>
      <trkpt lat="48.20837" lon="6.66787">
        <ele>529.19995117188</ele>
        <time>2026-09-03T12:19:22.000Z</time>
      </trkpt>
      <trkpt lat="48.20837" lon="6.66786">
        <ele>529</ele>
        <time>2026-09-03T12:19:23.000Z</time>
      </trkpt>
      <trkpt lat="48.20837" lon="6.66784">
        <ele>529</ele>
        <time>2026-09-03T12:19:24.000Z</time>
      </trkpt>
      <trkpt lat="48.20838" lon="6.66783">
        <ele>529</ele>
        <time>2026-09-03T12:19:25.000Z</time>
      </trkpt>
      <trkpt lat="48.20838" lon="6.66783">
        <ele>528.80004882812</ele>
        <time>2026-09-03T12:19:26.000Z</time>
      </trkpt>
      <trkpt lat="48.20839" lon="6.66782">
        <ele>528.80004882812</ele>
        <time>2026-09-03T12:19:27.000Z</time>
      </trkpt>
      <trkpt lat="48.2084" lon="6.6678">
        <ele>528.80004882812</ele>
        <time>2026-09-03T12:19:28.000Z</time>
      </trkpt>
      <trkpt lat="48.2084" lon="6.66779">
        <ele>528.59997558594</ele>
        <time>2026-09-03T12:19:29.000Z</time>
      </trkpt>
      <trkpt lat="48.20841" lon="6.66778">
        <ele>528.59997558594</ele>
        <time>2026-09-03T12:19:30.000Z</time>
      </trkpt>
      <trkpt lat="48.20841" lon="6.66777">
        <ele>528.59997558594</ele>
        <time>2026-09-03T12:19:31.000Z</time>
      </trkpt>
      <trkpt lat="48.20842" lon="6.66776">
        <ele>528.40002441406</ele>
        <time>2026-09-03T12:19:32.000Z</time>
      </trkpt>
      <trkpt lat="48.20843" lon="6.66774">
        <ele>528.40002441406</ele>
        <time>2026-09-03T12:19:33.000Z</time>
      </trkpt>
      <trkpt lat="48.20844" lon="6.66773">
        <ele>528.40002441406</ele>
        <time>2026-09-03T12:19:34.000Z</time>
      </trkpt>
      <trkpt lat="48.20844" lon="6.66772">
        <ele>528.40002441406</ele>
        <time>2026-09-03T12:19:35.000Z</time>
      </trkpt>
      <trkpt lat="48.20844" lon="6.66771">
        <ele>528.40002441406</ele>
        <time>2026-09-03T12:19:36.000Z</time>
      </trkpt>
      <trkpt lat="48.20845" lon="6.6677">
        <ele>528.40002441406</ele>
        <time>2026-09-03T12:19:37.000Z</time>
      </trkpt>
      <trkpt lat="48.20846" lon="6.6677">
        <ele>528.19995117188</ele>
        <time>2026-09-03T12:19:38.000Z</time>
      </trkpt>
      <trkpt lat="48.20847" lon="6.6677">
        <ele>528.19995117188</ele>
        <time>2026-09-03T12:19:39.000Z</time>
      </trkpt>
      <trkpt lat="48.20847" lon="6.6677">
        <ele>528</ele>
        <time>2026-09-03T12:19:40.000Z</time>
      </trkpt>
      <trkpt lat="48.20848" lon="6.66771">
        <ele>527.80004882812</ele>
        <time>2026-09-03T12:19:41.000Z</time>
      </trkpt>
      <trkpt lat="48.20848" lon="6.66772">
        <ele>527.80004882812</ele>
        <time>2026-09-03T12:19:42.000Z</time>
      </trkpt>
      <trkpt lat="48.20849" lon="6.66773">
        <ele>527.80004882812</ele>
        <time>2026-09-03T12:19:43.000Z</time>
      </trkpt>
      <trkpt lat="48.2085" lon="6.66774">
        <ele>527.80004882812</ele>
        <time>2026-09-03T12:19:44.000Z</time>
      </trkpt>
      <trkpt lat="48.20851" lon="6.66775">
        <ele>527.80004882812</ele>
        <time>2026-09-03T12:19:45.000Z</time>
      </trkpt>
      <trkpt lat="48.20851" lon="6.66776">
        <ele>527.80004882812</ele>
        <time>2026-09-03T12:19:46.000Z</time>
      </trkpt>
      <trkpt lat="48.20852" lon="6.66777">
        <ele>527.80004882812</ele>
        <time>2026-09-03T12:19:47.000Z</time>
      </trkpt>
      <trkpt lat="48.20852" lon="6.66778">
        <ele>527.80004882812</ele>
        <time>2026-09-03T12:19:48.000Z</time>
      </trkpt>
      <trkpt lat="48.20853" lon="6.6678">
        <ele>527.80004882812</ele>
        <time>2026-09-03T12:19:49.000Z</time>
      </trkpt>
      <trkpt lat="48.20853" lon="6.66781">
        <ele>527.80004882812</ele>
        <time>2026-09-03T12:19:50.000Z</time>
      </trkpt>
      <trkpt lat="48.20852" lon="6.66782">
        <ele>527.80004882812</ele>
        <time>2026-09-03T12:19:51.000Z</time>
      </trkpt>
      <trkpt lat="48.20852" lon="6.66782">
        <ele>527.59997558594</ele>
        <time>2026-09-03T12:19:52.000Z</time>
      </trkpt>
      <trkpt lat="48.20851" lon="6.66782">
        <ele>527.59997558594</ele>
        <time>2026-09-03T12:19:53.000Z</time>
      </trkpt>
      <trkpt lat="48.20851" lon="6.66782">
        <ele>527.59997558594</ele>
        <time>2026-09-03T12:19:54.000Z</time>
      </trkpt>
      <trkpt lat="48.20851" lon="6.66782">
        <ele>527.59997558594</ele>
        <time>2026-09-03T12:19:55.000Z</time>
      </trkpt>
      <trkpt lat="48.2085" lon="6.66782">
        <ele>527.59997558594</ele>
        <time>2026-09-03T12:19:56.000Z</time>
      </trkpt>
      <trkpt lat="48.20849" lon="6.66782">
        <ele>527.80004882812</ele>
        <time>2026-09-03T12:19:57.000Z</time>
      </trkpt>
      <trkpt lat="48.20849" lon="6.66782">
        <ele>528</ele>
        <time>2026-09-03T12:19:58.000Z</time>
      </trkpt>
      <trkpt lat="48.20849" lon="6.66782">
        <ele>528</ele>
        <time>2026-09-03T12:19:59.000Z</time>
      </trkpt>
      <trkpt lat="48.20849" lon="6.66782">
        <ele>528.19995117188</ele>
        <time>2026-09-03T12:20:00.000Z</time>
      </trkpt>
      <trkpt lat="48.20849" lon="6.66782">
        <ele>528.19995117188</ele>
        <time>2026-09-03T12:20:01.000Z</time>
      </trkpt>
      <trkpt lat="48.20849" lon="6.66783">
        <ele>528.19995117188</ele>
        <time>2026-09-03T12:20:02.000Z</time>
      </trkpt>
      <trkpt lat="48.20848" lon="6.66784">
        <ele>528.19995117188</ele>
        <time>2026-09-03T12:20:03.000Z</time>
      </trkpt>
      <trkpt lat="48.20848" lon="6.66783">
        <ele>528.19995117188</ele>
        <time>2026-09-03T12:20:04.000Z</time>
      </trkpt>
      <trkpt lat="48.20848" lon="6.66783">
        <ele>528.19995117188</ele>
        <time>2026-09-03T12:20:05.000Z</time>
      </trkpt>
      <trkpt lat="48.20848" lon="6.66782">
        <ele>528.19995117188</ele>
        <time>2026-09-03T12:20:06.000Z</time>
      </trkpt>
      <trkpt lat="48.20848" lon="6.66781">
        <ele>528.19995117188</ele>
        <time>2026-09-03T12:20:07.000Z</time>
      </trkpt>
      <trkpt lat="48.20848" lon="6.66781">
        <ele>528.40002441406</ele>
        <time>2026-09-03T12:20:08.000Z</time>
      </trkpt>
      <trkpt lat="48.20848" lon="6.6678">
        <ele>528.40002441406</ele>
        <time>2026-09-03T12:20:09.000Z</time>
      </trkpt>
      <trkpt lat="48.20848" lon="6.6678">
        <ele>528.40002441406</ele>
        <time>2026-09-03T12:20:10.000Z</time>
      </trkpt>
      <trkpt lat="48.20847" lon="6.6678">
        <ele>528.59997558594</ele>
        <time>2026-09-03T12:20:11.000Z</time>
      </trkpt>
      <trkpt lat="48.20847" lon="6.66781">
        <ele>528.59997558594</ele>
        <time>2026-09-03T12:20:12.000Z</time>
      </trkpt>
      <trkpt lat="48.20847" lon="6.66782">
        <ele>528.59997558594</ele>
        <time>2026-09-03T12:20:13.000Z</time>
      </trkpt>
      <trkpt lat="48.20846" lon="6.66782">
        <ele>528.59997558594</ele>
        <time>2026-09-03T12:20:14.000Z</time>
      </trkpt>
      <trkpt lat="48.20846" lon="6.66782">
        <ele>528.80004882812</ele>
        <time>2026-09-03T12:20:15.000Z</time>
      </trkpt>
      <trkpt lat="48.20846" lon="6.66782">
        <ele>528.80004882812</ele>
        <time>2026-09-03T12:20:16.000Z</time>
      </trkpt>
      <trkpt lat="48.20846" lon="6.66782">
        <ele>528.80004882812</ele>
        <time>2026-09-03T12:20:17.000Z</time>
      </trkpt>
      <trkpt lat="48.20846" lon="6.66782">
        <ele>528.80004882812</ele>
        <time>2026-09-03T12:20:18.000Z</time>
      </trkpt>
      <trkpt lat="48.20846" lon="6.66782">
        <ele>528.59997558594</ele>
        <time>2026-09-03T12:20:19.000Z</time>
      </trkpt>
      <trkpt lat="48.20846" lon="6.66782">
        <ele>528.19995117188</ele>
        <time>2026-09-03T12:20:20.000Z</time>
      </trkpt>
      <trkpt lat="48.20846" lon="6.66782">
        <ele>528</ele>
        <time>2026-09-03T12:20:21.000Z</time>
      </trkpt>
      <trkpt lat="48.20846" lon="6.66782">
        <ele>527.80004882812</ele>
        <time>2026-09-03T12:20:22.000Z</time>
      </trkpt>
      <trkpt lat="48.20844" lon="6.66782">
        <ele>528</ele>
        <time>2026-09-03T12:20:23.000Z</time>
      </trkpt>
      <trkpt lat="48.20844" lon="6.66782">
        <ele>528.19995117188</ele>
        <time>2026-09-03T12:20:24.000Z</time>
      </trkpt>
      <trkpt lat="48.20844" lon="6.66782">
        <ele>528.40002441406</ele>
        <time>2026-09-03T12:20:25.000Z</time>
      </trkpt>
      <trkpt lat="48.20844" lon="6.66782">
        <ele>528.40002441406</ele>
        <time>2026-09-03T12:20:26.000Z</time>
      </trkpt>
      <trkpt lat="48.20844" lon="6.66782">
        <ele>528.59997558594</ele>
        <time>2026-09-03T12:20:27.000Z</time>
      </trkpt>
      <trkpt lat="48.20844" lon="6.66782">
        <ele>528.59997558594</ele>
        <time>2026-09-03T12:20:28.000Z</time>
      </trkpt>
      <trkpt lat="48.20844" lon="6.66782">
        <ele>528.40002441406</ele>
        <time>2026-09-03T12:20:29.000Z</time>
      </trkpt>
      <trkpt lat="48.20844" lon="6.66782">
        <ele>528.40002441406</ele>
        <time>2026-09-03T12:20:30.000Z</time>
      </trkpt>
      <trkpt lat="48.20844" lon="6.66782">
        <ele>528.40002441406</ele>
        <time>2026-09-03T12:20:31.000Z</time>
      </trkpt>
      <trkpt lat="48.20844" lon="6.66782">
        <ele>528.40002441406</ele>
        <time>2026-09-03T12:20:32.000Z</time>
      </trkpt>
      <trkpt lat="48.20843" lon="6.66783">
        <ele>528.40002441406</ele>
        <time>2026-09-03T12:20:33.000Z</time>
      </trkpt>
      <trkpt lat="48.20842" lon="6.66783">
        <ele>528.59997558594</ele>
        <time>2026-09-03T12:20:34.000Z</time>
      </trkpt>
      <trkpt lat="48.20842" lon="6.66782">
        <ele>528.59997558594</ele>
        <time>2026-09-03T12:20:35.000Z</time>
      </trkpt>
      <trkpt lat="48.20841" lon="6.66782">
        <ele>528.59997558594</ele>
        <time>2026-09-03T12:20:36.000Z</time>
      </trkpt>
      <trkpt lat="48.20841" lon="6.66782">
        <ele>528.59997558594</ele>
        <time>2026-09-03T12:20:37.000Z</time>
      </trkpt>
      <trkpt lat="48.20841" lon="6.66782">
        <ele>528.59997558594</ele>
        <time>2026-09-03T12:20:38.000Z</time>
      </trkpt>
      <trkpt lat="48.20841" lon="6.66781">
        <ele>528.80004882812</ele>
        <time>2026-09-03T12:20:39.000Z</time>
      </trkpt>
      <trkpt lat="48.20841" lon="6.66781">
        <ele>528.80004882812</ele>
        <time>2026-09-03T12:20:40.000Z</time>
      </trkpt>
      <trkpt lat="48.20841" lon="6.66781">
        <ele>528.80004882812</ele>
        <time>2026-09-03T12:20:41.000Z</time>
      </trkpt>
      <trkpt lat="48.20841" lon="6.66781">
        <ele>528.80004882812</ele>
        <time>2026-09-03T12:20:42.000Z</time>
      </trkpt>
      <trkpt lat="48.20841" lon="6.66781">
        <ele>529</ele>
        <time>2026-09-03T12:20:43.000Z</time>
      </trkpt>
      <trkpt lat="48.20841" lon="6.66781">
        <ele>528.80004882812</ele>
        <time>2026-09-03T12:20:44.000Z</time>
      </trkpt>
      <trkpt lat="48.20841" lon="6.66781">
        <ele>528.80004882812</ele>
        <time>2026-09-03T12:20:45.000Z</time>
      </trkpt>
      <trkpt lat="48.20841" lon="6.66781">
        <ele>528.80004882812</ele>
        <time>2026-09-03T12:20:46.000Z</time>
      </trkpt>
      <trkpt lat="48.20842" lon="6.6678">
        <ele>528.59997558594</ele>
        <time>2026-09-03T12:20:47.000Z</time>
      </trkpt>
      <trkpt lat="48.20843" lon="6.66779">
        <ele>528.59997558594</ele>
        <time>2026-09-03T12:20:48.000Z</time>
      </trkpt>
      <trkpt lat="48.20844" lon="6.66777">
        <ele>528.59997558594</ele>
        <time>2026-09-03T12:20:49.000Z</time>
      </trkpt>
      <trkpt lat="48.20844" lon="6.66777">
        <ele>528.59997558594</ele>
        <time>2026-09-03T12:20:50.000Z</time>
      </trkpt>
      <trkpt lat="48.20845" lon="6.66776">
        <ele>528.59997558594</ele>
        <time>2026-09-03T12:20:51.000Z</time>
      </trkpt>
      <trkpt lat="48.20846" lon="6.66775">
        <ele>528.59997558594</ele>
        <time>2026-09-03T12:20:52.000Z</time>
      </trkpt>
      <trkpt lat="48.20848" lon="6.66776">
        <ele>528.59997558594</ele>
        <time>2026-09-03T12:20:53.000Z</time>
      </trkpt>
      <trkpt lat="48.20848" lon="6.66776">
        <ele>528.80004882812</ele>
        <time>2026-09-03T12:20:54.000Z</time>
      </trkpt>
      <trkpt lat="48.20848" lon="6.66777">
        <ele>528.80004882812</ele>
        <time>2026-09-03T12:20:55.000Z</time>
      </trkpt>
      <trkpt lat="48.20849" lon="6.66777">
        <ele>528.80004882812</ele>
        <time>2026-09-03T12:20:56.000Z</time>
      </trkpt>
      <trkpt lat="48.2085" lon="6.66778">
        <ele>528.80004882812</ele>
        <time>2026-09-03T12:20:57.000Z</time>
      </trkpt>
      <trkpt lat="48.20851" lon="6.66778">
        <ele>528.59997558594</ele>
        <time>2026-09-03T12:20:58.000Z</time>
      </trkpt>
      <trkpt lat="48.20851" lon="6.66779">
        <ele>528.40002441406</ele>
        <time>2026-09-03T12:20:59.000Z</time>
      </trkpt>
      <trkpt lat="48.20852" lon="6.6678">
        <ele>528.40002441406</ele>
        <time>2026-09-03T12:21:00.000Z</time>
      </trkpt>
      <trkpt lat="48.20852" lon="6.66781">
        <ele>528.19995117188</ele>
        <time>2026-09-03T12:21:01.000Z</time>
      </trkpt>
      <trkpt lat="48.20853" lon="6.66782">
        <ele>528</ele>
        <time>2026-09-03T12:21:02.000Z</time>
      </trkpt>
      <trkpt lat="48.20853" lon="6.66783">
        <ele>528</ele>
        <time>2026-09-03T12:21:03.000Z</time>
      </trkpt>
      <trkpt lat="48.20855" lon="6.66784">
        <ele>528</ele>
        <time>2026-09-03T12:21:04.000Z</time>
      </trkpt>
      <trkpt lat="48.20855" lon="6.66785">
        <ele>528</ele>
        <time>2026-09-03T12:21:05.000Z</time>
      </trkpt>
      <trkpt lat="48.20856" lon="6.66786">
        <ele>528</ele>
        <time>2026-09-03T12:21:06.000Z</time>
      </trkpt>
      <trkpt lat="48.20856" lon="6.66786">
        <ele>528</ele>
        <time>2026-09-03T12:21:07.000Z</time>
      </trkpt>
      <trkpt lat="48.20857" lon="6.66787">
        <ele>528</ele>
        <time>2026-09-03T12:21:08.000Z</time>
      </trkpt>
      <trkpt lat="48.20857" lon="6.66788">
        <ele>528</ele>
        <time>2026-09-03T12:21:09.000Z</time>
      </trkpt>
      <trkpt lat="48.20858" lon="6.66788">
        <ele>527.80004882812</ele>
        <time>2026-09-03T12:21:10.000Z</time>
      </trkpt>
      <trkpt lat="48.20859" lon="6.66788">
        <ele>527.80004882812</ele>
        <time>2026-09-03T12:21:11.000Z</time>
      </trkpt>
      <trkpt lat="48.20859" lon="6.66788">
        <ele>527.80004882812</ele>
        <time>2026-09-03T12:21:12.000Z</time>
      </trkpt>
      <trkpt lat="48.20859" lon="6.66788">
        <ele>527.59997558594</ele>
        <time>2026-09-03T12:21:13.000Z</time>
      </trkpt>
      <trkpt lat="48.2086" lon="6.66788">
        <ele>527.59997558594</ele>
        <time>2026-09-03T12:21:14.000Z</time>
      </trkpt>
      <trkpt lat="48.20861" lon="6.66788">
        <ele>527.59997558594</ele>
        <time>2026-09-03T12:21:15.000Z</time>
      </trkpt>
      <trkpt lat="48.20862" lon="6.66788">
        <ele>527.59997558594</ele>
        <time>2026-09-03T12:21:16.000Z</time>
      </trkpt>
      <trkpt lat="48.20863" lon="6.66789">
        <ele>527.40002441406</ele>
        <time>2026-09-03T12:21:17.000Z</time>
      </trkpt>
      <trkpt lat="48.20864" lon="6.6679">
        <ele>527.40002441406</ele>
        <time>2026-09-03T12:21:18.000Z</time>
      </trkpt>
      <trkpt lat="48.20866" lon="6.6679">
        <ele>527.40002441406</ele>
        <time>2026-09-03T12:21:19.000Z</time>
      </trkpt>
      <trkpt lat="48.20867" lon="6.66791">
        <ele>527.40002441406</ele>
        <time>2026-09-03T12:21:20.000Z</time>
      </trkpt>
      <trkpt lat="48.20868" lon="6.66792">
        <ele>527.59997558594</ele>
        <time>2026-09-03T12:21:21.000Z</time>
      </trkpt>
      <trkpt lat="48.20869" lon="6.66792">
        <ele>527.59997558594</ele>
        <time>2026-09-03T12:21:22.000Z</time>
      </trkpt>
      <trkpt lat="48.2087" lon="6.66793">
        <ele>527.59997558594</ele>
        <time>2026-09-03T12:21:23.000Z</time>
      </trkpt>
      <trkpt lat="48.20872" lon="6.66793">
        <ele>527.59997558594</ele>
        <time>2026-09-03T12:21:24.000Z</time>
      </trkpt>
      <trkpt lat="48.20873" lon="6.66794">
        <ele>527.59997558594</ele>
        <time>2026-09-03T12:21:25.000Z</time>
      </trkpt>
      <trkpt lat="48.20874" lon="6.66794">
        <ele>527.40002441406</ele>
        <time>2026-09-03T12:21:26.000Z</time>
      </trkpt>
      <trkpt lat="48.20875" lon="6.66794">
        <ele>527.40002441406</ele>
        <time>2026-09-03T12:21:27.000Z</time>
      </trkpt>
      <trkpt lat="48.20876" lon="6.66795">
        <ele>527.40002441406</ele>
        <time>2026-09-03T12:21:28.000Z</time>
      </trkpt>
      <trkpt lat="48.20878" lon="6.66795">
        <ele>527.40002441406</ele>
        <time>2026-09-03T12:21:29.000Z</time>
      </trkpt>
      <trkpt lat="48.20879" lon="6.66795">
        <ele>527.40002441406</ele>
        <time>2026-09-03T12:21:30.000Z</time>
      </trkpt>
      <trkpt lat="48.2088" lon="6.66796">
        <ele>527.40002441406</ele>
        <time>2026-09-03T12:21:31.000Z</time>
      </trkpt>
      <trkpt lat="48.20882" lon="6.66797">
        <ele>527.40002441406</ele>
        <time>2026-09-03T12:21:32.000Z</time>
      </trkpt>
      <trkpt lat="48.20883" lon="6.66798">
        <ele>527.59997558594</ele>
        <time>2026-09-03T12:21:33.000Z</time>
      </trkpt>
      <trkpt lat="48.20884" lon="6.66798">
        <ele>527.59997558594</ele>
        <time>2026-09-03T12:21:34.000Z</time>
      </trkpt>
      <trkpt lat="48.20884" lon="6.66799">
        <ele>527.59997558594</ele>
        <time>2026-09-03T12:21:35.000Z</time>
      </trkpt>
      <trkpt lat="48.20885" lon="6.66799">
        <ele>527.59997558594</ele>
        <time>2026-09-03T12:21:36.000Z</time>
      </trkpt>
      <trkpt lat="48.20886" lon="6.668">
        <ele>527.40002441406</ele>
        <time>2026-09-03T12:21:37.000Z</time>
      </trkpt>
      <trkpt lat="48.20888" lon="6.66801">
        <ele>527.59997558594</ele>
        <time>2026-09-03T12:21:38.000Z</time>
      </trkpt>
      <trkpt lat="48.20889" lon="6.66801">
        <ele>527.59997558594</ele>
        <time>2026-09-03T12:21:39.000Z</time>
      </trkpt>
      <trkpt lat="48.2089" lon="6.66801">
        <ele>527.59997558594</ele>
        <time>2026-09-03T12:21:40.000Z</time>
      </trkpt>
      <trkpt lat="48.2089" lon="6.66801">
        <ele>527.59997558594</ele>
        <time>2026-09-03T12:21:41.000Z</time>
      </trkpt>
      <trkpt lat="48.20892" lon="6.66802">
        <ele>527.59997558594</ele>
        <time>2026-09-03T12:21:42.000Z</time>
      </trkpt>
      <trkpt lat="48.20893" lon="6.66802">
        <ele>527.59997558594</ele>
        <time>2026-09-03T12:21:43.000Z</time>
      </trkpt>
      <trkpt lat="48.20894" lon="6.66803">
        <ele>527.59997558594</ele>
        <time>2026-09-03T12:21:44.000Z</time>
      </trkpt>
      <trkpt lat="48.20896" lon="6.66803">
        <ele>527.59997558594</ele>
        <time>2026-09-03T12:21:45.000Z</time>
      </trkpt>
      <trkpt lat="48.20897" lon="6.66804">
        <ele>527.40002441406</ele>
        <time>2026-09-03T12:21:46.000Z</time>
      </trkpt>
      <trkpt lat="48.20898" lon="6.66805">
        <ele>527.40002441406</ele>
        <time>2026-09-03T12:21:47.000Z</time>
      </trkpt>
      <trkpt lat="48.20899" lon="6.66806">
        <ele>527.40002441406</ele>
        <time>2026-09-03T12:21:48.000Z</time>
      </trkpt>
      <trkpt lat="48.209" lon="6.66806">
        <ele>527.40002441406</ele>
        <time>2026-09-03T12:21:49.000Z</time>
      </trkpt>
      <trkpt lat="48.20901" lon="6.66807">
        <ele>527.40002441406</ele>
        <time>2026-09-03T12:21:50.000Z</time>
      </trkpt>
      <trkpt lat="48.20902" lon="6.66808">
        <ele>527.40002441406</ele>
        <time>2026-09-03T12:21:51.000Z</time>
      </trkpt>
      <trkpt lat="48.20904" lon="6.66809">
        <ele>527.40002441406</ele>
        <time>2026-09-03T12:21:52.000Z</time>
      </trkpt>
      <trkpt lat="48.20904" lon="6.6681">
        <ele>527.59997558594</ele>
        <time>2026-09-03T12:21:53.000Z</time>
      </trkpt>
      <trkpt lat="48.20905" lon="6.66811">
        <ele>527.59997558594</ele>
        <time>2026-09-03T12:21:54.000Z</time>
      </trkpt>
      <trkpt lat="48.20905" lon="6.66812">
        <ele>527.59997558594</ele>
        <time>2026-09-03T12:21:55.000Z</time>
      </trkpt>
      <trkpt lat="48.20906" lon="6.66813">
        <ele>527.40002441406</ele>
        <time>2026-09-03T12:21:56.000Z</time>
      </trkpt>
      <trkpt lat="48.20907" lon="6.66815">
        <ele>527.59997558594</ele>
        <time>2026-09-03T12:21:57.000Z</time>
      </trkpt>
      <trkpt lat="48.20908" lon="6.66816">
        <ele>527.59997558594</ele>
        <time>2026-09-03T12:21:58.000Z</time>
      </trkpt>
      <trkpt lat="48.20909" lon="6.66818">
        <ele>527.59997558594</ele>
        <time>2026-09-03T12:21:59.000Z</time>
      </trkpt>
      <trkpt lat="48.2091" lon="6.66819">
        <ele>527.59997558594</ele>
        <time>2026-09-03T12:22:00.000Z</time>
      </trkpt>
      <trkpt lat="48.2091" lon="6.6682">
        <ele>527.80004882812</ele>
        <time>2026-09-03T12:22:01.000Z</time>
      </trkpt>
      <trkpt lat="48.20911" lon="6.66821">
        <ele>527.80004882812</ele>
        <time>2026-09-03T12:22:02.000Z</time>
      </trkpt>
      <trkpt lat="48.20912" lon="6.66823">
        <ele>527.80004882812</ele>
        <time>2026-09-03T12:22:03.000Z</time>
      </trkpt>
      <trkpt lat="48.20912" lon="6.66824">
        <ele>527.80004882812</ele>
        <time>2026-09-03T12:22:04.000Z</time>
      </trkpt>
      <trkpt lat="48.20913" lon="6.66826">
        <ele>527.80004882812</ele>
        <time>2026-09-03T12:22:05.000Z</time>
      </trkpt>
      <trkpt lat="48.20913" lon="6.66827">
        <ele>527.80004882812</ele>
        <time>2026-09-03T12:22:06.000Z</time>
      </trkpt>
      <trkpt lat="48.20914" lon="6.66829">
        <ele>527.80004882812</ele>
        <time>2026-09-03T12:22:07.000Z</time>
      </trkpt>
      <trkpt lat="48.20915" lon="6.6683">
        <ele>527.80004882812</ele>
        <time>2026-09-03T12:22:08.000Z</time>
      </trkpt>
      <trkpt lat="48.20915" lon="6.66832">
        <ele>527.80004882812</ele>
        <time>2026-09-03T12:22:09.000Z</time>
      </trkpt>
      <trkpt lat="48.20916" lon="6.66834">
        <ele>528</ele>
        <time>2026-09-03T12:22:10.000Z</time>
      </trkpt>
      <trkpt lat="48.20917" lon="6.66836">
        <ele>528</ele>
        <time>2026-09-03T12:22:11.000Z</time>
      </trkpt>
      <trkpt lat="48.20917" lon="6.66837">
        <ele>528.19995117188</ele>
        <time>2026-09-03T12:22:12.000Z</time>
      </trkpt>
      <trkpt lat="48.20918" lon="6.66838">
        <ele>528</ele>
        <time>2026-09-03T12:22:13.000Z</time>
      </trkpt>
      <trkpt lat="48.20919" lon="6.6684">
        <ele>528</ele>
        <time>2026-09-03T12:22:14.000Z</time>
      </trkpt>
      <trkpt lat="48.20919" lon="6.66842">
        <ele>528</ele>
        <time>2026-09-03T12:22:15.000Z</time>
      </trkpt>
      <trkpt lat="48.2092" lon="6.66843">
        <ele>528</ele>
        <time>2026-09-03T12:22:16.000Z</time>
      </trkpt>
      <trkpt lat="48.2092" lon="6.66845">
        <ele>528</ele>
        <time>2026-09-03T12:22:17.000Z</time>
      </trkpt>
      <trkpt lat="48.2092" lon="6.66847">
        <ele>528.19995117188</ele>
        <time>2026-09-03T12:22:18.000Z</time>
      </trkpt>
      <trkpt lat="48.20921" lon="6.66848">
        <ele>528.19995117188</ele>
        <time>2026-09-03T12:22:19.000Z</time>
      </trkpt>
      <trkpt lat="48.20922" lon="6.6685">
        <ele>528.19995117188</ele>
        <time>2026-09-03T12:22:20.000Z</time>
      </trkpt>
      <trkpt lat="48.20922" lon="6.66852">
        <ele>528.40002441406</ele>
        <time>2026-09-03T12:22:21.000Z</time>
      </trkpt>
      <trkpt lat="48.20923" lon="6.66854">
        <ele>528.40002441406</ele>
        <time>2026-09-03T12:22:22.000Z</time>
      </trkpt>
      <trkpt lat="48.20923" lon="6.66855">
        <ele>528.40002441406</ele>
        <time>2026-09-03T12:22:23.000Z</time>
      </trkpt>
      <trkpt lat="48.20923" lon="6.66856">
        <ele>528.40002441406</ele>
        <time>2026-09-03T12:22:24.000Z</time>
      </trkpt>
      <trkpt lat="48.20924" lon="6.66857">
        <ele>528.40002441406</ele>
        <time>2026-09-03T12:22:25.000Z</time>
      </trkpt>
      <trkpt lat="48.20924" lon="6.66859">
        <ele>528.40002441406</ele>
        <time>2026-09-03T12:22:26.000Z</time>
      </trkpt>
      <trkpt lat="48.20924" lon="6.6686">
        <ele>528.59997558594</ele>
        <time>2026-09-03T12:22:27.000Z</time>
      </trkpt>
      <trkpt lat="48.20924" lon="6.66862">
        <ele>528.59997558594</ele>
        <time>2026-09-03T12:22:28.000Z</time>
      </trkpt>
      <trkpt lat="48.20925" lon="6.66864">
        <ele>528.59997558594</ele>
        <time>2026-09-03T12:22:29.000Z</time>
      </trkpt>
      <trkpt lat="48.20925" lon="6.66865">
        <ele>528.80004882812</ele>
        <time>2026-09-03T12:22:30.000Z</time>
      </trkpt>
      <trkpt lat="48.20926" lon="6.66867">
        <ele>528.80004882812</ele>
        <time>2026-09-03T12:22:31.000Z</time>
      </trkpt>
      <trkpt lat="48.20926" lon="6.66868">
        <ele>528.80004882812</ele>
        <time>2026-09-03T12:22:32.000Z</time>
      </trkpt>
      <trkpt lat="48.20927" lon="6.66871">
        <ele>528.80004882812</ele>
        <time>2026-09-03T12:22:33.000Z</time>
      </trkpt>
      <trkpt lat="48.20927" lon="6.66872">
        <ele>529</ele>
        <time>2026-09-03T12:22:34.000Z</time>
      </trkpt>
      <trkpt lat="48.20927" lon="6.66874">
        <ele>529</ele>
        <time>2026-09-03T12:22:35.000Z</time>
      </trkpt>
      <trkpt lat="48.20927" lon="6.66875">
        <ele>529</ele>
        <time>2026-09-03T12:22:36.000Z</time>
      </trkpt>
      <trkpt lat="48.20928" lon="6.66876">
        <ele>529</ele>
        <time>2026-09-03T12:22:37.000Z</time>
      </trkpt>
      <trkpt lat="48.20928" lon="6.66878">
        <ele>529</ele>
        <time>2026-09-03T12:22:38.000Z</time>
      </trkpt>
      <trkpt lat="48.20928" lon="6.66881">
        <ele>529.19995117188</ele>
        <time>2026-09-03T12:22:39.000Z</time>
      </trkpt>
      <trkpt lat="48.20928" lon="6.66882">
        <ele>529.19995117188</ele>
        <time>2026-09-03T12:22:40.000Z</time>
      </trkpt>
      <trkpt lat="48.20928" lon="6.66884">
        <ele>529.40002441406</ele>
        <time>2026-09-03T12:22:41.000Z</time>
      </trkpt>
      <trkpt lat="48.20928" lon="6.66885">
        <ele>529.40002441406</ele>
        <time>2026-09-03T12:22:42.000Z</time>
      </trkpt>
      <trkpt lat="48.20929" lon="6.66887">
        <ele>529.40002441406</ele>
        <time>2026-09-03T12:22:43.000Z</time>
      </trkpt>
      <trkpt lat="48.20929" lon="6.66889">
        <ele>529.59997558594</ele>
        <time>2026-09-03T12:22:44.000Z</time>
      </trkpt>
      <trkpt lat="48.20929" lon="6.66891">
        <ele>529.59997558594</ele>
        <time>2026-09-03T12:22:45.000Z</time>
      </trkpt>
      <trkpt lat="48.20929" lon="6.66892">
        <ele>529.80004882812</ele>
        <time>2026-09-03T12:22:46.000Z</time>
      </trkpt>
      <trkpt lat="48.20929" lon="6.66893">
        <ele>529.80004882812</ele>
        <time>2026-09-03T12:22:47.000Z</time>
      </trkpt>
      <trkpt lat="48.20929" lon="6.66895">
        <ele>529.80004882812</ele>
        <time>2026-09-03T12:22:48.000Z</time>
      </trkpt>
      <trkpt lat="48.20929" lon="6.66897">
        <ele>529.80004882812</ele>
        <time>2026-09-03T12:22:49.000Z</time>
      </trkpt>
      <trkpt lat="48.20929" lon="6.66899">
        <ele>530</ele>
        <time>2026-09-03T12:22:50.000Z</time>
      </trkpt>
      <trkpt lat="48.20929" lon="6.669">
        <ele>529.80004882812</ele>
        <time>2026-09-03T12:22:51.000Z</time>
      </trkpt>
      <trkpt lat="48.20929" lon="6.66901">
        <ele>530</ele>
        <time>2026-09-03T12:22:52.000Z</time>
      </trkpt>
      <trkpt lat="48.20929" lon="6.66903">
        <ele>530</ele>
        <time>2026-09-03T12:22:53.000Z</time>
      </trkpt>
      <trkpt lat="48.20929" lon="6.66906">
        <ele>530.19995117188</ele>
        <time>2026-09-03T12:22:54.000Z</time>
      </trkpt>
      <trkpt lat="48.20929" lon="6.66907">
        <ele>530.19995117188</ele>
        <time>2026-09-03T12:22:55.000Z</time>
      </trkpt>
      <trkpt lat="48.20929" lon="6.66909">
        <ele>530.19995117188</ele>
        <time>2026-09-03T12:22:56.000Z</time>
      </trkpt>
      <trkpt lat="48.20929" lon="6.66911">
        <ele>530.19995117188</ele>
        <time>2026-09-03T12:22:57.000Z</time>
      </trkpt>
      <trkpt lat="48.20929" lon="6.66912">
        <ele>530.19995117188</ele>
        <time>2026-09-03T12:22:58.000Z</time>
      </trkpt>
      <trkpt lat="48.2093" lon="6.66913">
        <ele>530.19995117188</ele>
        <time>2026-09-03T12:22:59.000Z</time>
      </trkpt>
      <trkpt lat="48.2093" lon="6.66914">
        <ele>530.19995117188</ele>
        <time>2026-09-03T12:23:00.000Z</time>
      </trkpt>
      <trkpt lat="48.2093" lon="6.66916">
        <ele>530.19995117188</ele>
        <time>2026-09-03T12:23:01.000Z</time>
      </trkpt>
      <trkpt lat="48.2093" lon="6.66917">
        <ele>530.19995117188</ele>
        <time>2026-09-03T12:23:02.000Z</time>
      </trkpt>
      <trkpt lat="48.20931" lon="6.66919">
        <ele>530.40002441406</ele>
        <time>2026-09-03T12:23:03.000Z</time>
      </trkpt>
      <trkpt lat="48.20931" lon="6.6692">
        <ele>530.40002441406</ele>
        <time>2026-09-03T12:23:04.000Z</time>
      </trkpt>
      <trkpt lat="48.20931" lon="6.66922">
        <ele>530.59997558594</ele>
        <time>2026-09-03T12:23:05.000Z</time>
      </trkpt>
      <trkpt lat="48.20931" lon="6.66924">
        <ele>530.59997558594</ele>
        <time>2026-09-03T12:23:06.000Z</time>
      </trkpt>
      <trkpt lat="48.2093" lon="6.66925">
        <ele>530.59997558594</ele>
        <time>2026-09-03T12:23:07.000Z</time>
      </trkpt>
      <trkpt lat="48.2093" lon="6.66926">
        <ele>530.59997558594</ele>
        <time>2026-09-03T12:23:08.000Z</time>
      </trkpt>
      <trkpt lat="48.2093" lon="6.66927">
        <ele>530.59997558594</ele>
        <time>2026-09-03T12:23:09.000Z</time>
      </trkpt>
      <trkpt lat="48.2093" lon="6.66929">
        <ele>530.80004882812</ele>
        <time>2026-09-03T12:23:10.000Z</time>
      </trkpt>
      <trkpt lat="48.2093" lon="6.66932">
        <ele>530.80004882812</ele>
        <time>2026-09-03T12:23:11.000Z</time>
      </trkpt>
      <trkpt lat="48.20931" lon="6.66933">
        <ele>530.80004882812</ele>
        <time>2026-09-03T12:23:12.000Z</time>
      </trkpt>
      <trkpt lat="48.2093" lon="6.66935">
        <ele>530.80004882812</ele>
        <time>2026-09-03T12:23:13.000Z</time>
      </trkpt>
      <trkpt lat="48.2093" lon="6.66937">
        <ele>530.80004882812</ele>
        <time>2026-09-03T12:23:14.000Z</time>
      </trkpt>
      <trkpt lat="48.2093" lon="6.66938">
        <ele>530.80004882812</ele>
        <time>2026-09-03T12:23:15.000Z</time>
      </trkpt>
      <trkpt lat="48.20931" lon="6.6694">
        <ele>530.80004882812</ele>
        <time>2026-09-03T12:23:16.000Z</time>
      </trkpt>
      <trkpt lat="48.20931" lon="6.66942">
        <ele>531</ele>
        <time>2026-09-03T12:23:17.000Z</time>
      </trkpt>
      <trkpt lat="48.20931" lon="6.66943">
        <ele>531</ele>
        <time>2026-09-03T12:23:18.000Z</time>
      </trkpt>
      <trkpt lat="48.20931" lon="6.66945">
        <ele>531</ele>
        <time>2026-09-03T12:23:19.000Z</time>
      </trkpt>
      <trkpt lat="48.20931" lon="6.66946">
        <ele>531.19995117188</ele>
        <time>2026-09-03T12:23:20.000Z</time>
      </trkpt>
      <trkpt lat="48.20932" lon="6.66948">
        <ele>531.19995117188</ele>
        <time>2026-09-03T12:23:21.000Z</time>
      </trkpt>
      <trkpt lat="48.20931" lon="6.6695">
        <ele>531.40002441406</ele>
        <time>2026-09-03T12:23:22.000Z</time>
      </trkpt>
      <trkpt lat="48.20932" lon="6.66952">
        <ele>531.40002441406</ele>
        <time>2026-09-03T12:23:23.000Z</time>
      </trkpt>
      <trkpt lat="48.20932" lon="6.66953">
        <ele>531.40002441406</ele>
        <time>2026-09-03T12:23:24.000Z</time>
      </trkpt>
      <trkpt lat="48.20932" lon="6.66955">
        <ele>531.59997558594</ele>
        <time>2026-09-03T12:23:25.000Z</time>
      </trkpt>
      <trkpt lat="48.20932" lon="6.66957">
        <ele>531.59997558594</ele>
        <time>2026-09-03T12:23:26.000Z</time>
      </trkpt>
      <trkpt lat="48.20933" lon="6.66959">
        <ele>531.59997558594</ele>
        <time>2026-09-03T12:23:27.000Z</time>
      </trkpt>
      <trkpt lat="48.20932" lon="6.66961">
        <ele>531.59997558594</ele>
        <time>2026-09-03T12:23:28.000Z</time>
      </trkpt>
      <trkpt lat="48.20933" lon="6.66962">
        <ele>531.80004882812</ele>
        <time>2026-09-03T12:23:29.000Z</time>
      </trkpt>
      <trkpt lat="48.20933" lon="6.66963">
        <ele>531.80004882812</ele>
        <time>2026-09-03T12:23:30.000Z</time>
      </trkpt>
      <trkpt lat="48.20933" lon="6.66965">
        <ele>531.80004882812</ele>
        <time>2026-09-03T12:23:31.000Z</time>
      </trkpt>
      <trkpt lat="48.20933" lon="6.66966">
        <ele>532</ele>
        <time>2026-09-03T12:23:32.000Z</time>
      </trkpt>
      <trkpt lat="48.20934" lon="6.66968">
        <ele>532.19995117188</ele>
        <time>2026-09-03T12:23:33.000Z</time>
      </trkpt>
      <trkpt lat="48.20934" lon="6.66969">
        <ele>532.19995117188</ele>
        <time>2026-09-03T12:23:34.000Z</time>
      </trkpt>
      <trkpt lat="48.20934" lon="6.66971">
        <ele>532.40002441406</ele>
        <time>2026-09-03T12:23:35.000Z</time>
      </trkpt>
      <trkpt lat="48.20934" lon="6.66973">
        <ele>532.40002441406</ele>
        <time>2026-09-03T12:23:36.000Z</time>
      </trkpt>
      <trkpt lat="48.20934" lon="6.66975">
        <ele>532.40002441406</ele>
        <time>2026-09-03T12:23:37.000Z</time>
      </trkpt>
      <trkpt lat="48.20934" lon="6.66976">
        <ele>532.40002441406</ele>
        <time>2026-09-03T12:23:38.000Z</time>
      </trkpt>
      <trkpt lat="48.20935" lon="6.66978">
        <ele>532.59997558594</ele>
        <time>2026-09-03T12:23:39.000Z</time>
      </trkpt>
      <trkpt lat="48.20935" lon="6.6698">
        <ele>532.59997558594</ele>
        <time>2026-09-03T12:23:40.000Z</time>
      </trkpt>
      <trkpt lat="48.20935" lon="6.66981">
        <ele>532.80004882812</ele>
        <time>2026-09-03T12:23:41.000Z</time>
      </trkpt>
      <trkpt lat="48.20935" lon="6.66983">
        <ele>532.80004882812</ele>
        <time>2026-09-03T12:23:42.000Z</time>
      </trkpt>
      <trkpt lat="48.20935" lon="6.66985">
        <ele>532.80004882812</ele>
        <time>2026-09-03T12:23:43.000Z</time>
      </trkpt>
      <trkpt lat="48.20935" lon="6.66986">
        <ele>533</ele>
        <time>2026-09-03T12:23:44.000Z</time>
      </trkpt>
      <trkpt lat="48.20935" lon="6.66988">
        <ele>533</ele>
        <time>2026-09-03T12:23:45.000Z</time>
      </trkpt>
      <trkpt lat="48.20935" lon="6.66989">
        <ele>533</ele>
        <time>2026-09-03T12:23:46.000Z</time>
      </trkpt>
      <trkpt lat="48.20934" lon="6.66992">
        <ele>533</ele>
        <time>2026-09-03T12:23:47.000Z</time>
      </trkpt>
      <trkpt lat="48.20935" lon="6.66993">
        <ele>533</ele>
        <time>2026-09-03T12:23:48.000Z</time>
      </trkpt>
      <trkpt lat="48.20935" lon="6.66994">
        <ele>533</ele>
        <time>2026-09-03T12:23:49.000Z</time>
      </trkpt>
      <trkpt lat="48.20934" lon="6.66997">
        <ele>533</ele>
        <time>2026-09-03T12:23:50.000Z</time>
      </trkpt>
      <trkpt lat="48.20934" lon="6.66998">
        <ele>533.19995117188</ele>
        <time>2026-09-03T12:23:51.000Z</time>
      </trkpt>
      <trkpt lat="48.20935" lon="6.67">
        <ele>533.19995117188</ele>
        <time>2026-09-03T12:23:52.000Z</time>
      </trkpt>
      <trkpt lat="48.20935" lon="6.67002">
        <ele>533.40002441406</ele>
        <time>2026-09-03T12:23:53.000Z</time>
      </trkpt>
      <trkpt lat="48.20935" lon="6.67004">
        <ele>533.40002441406</ele>
        <time>2026-09-03T12:23:54.000Z</time>
      </trkpt>
      <trkpt lat="48.20935" lon="6.67006">
        <ele>533.59997558594</ele>
        <time>2026-09-03T12:23:55.000Z</time>
      </trkpt>
      <trkpt lat="48.20935" lon="6.67007">
        <ele>533.59997558594</ele>
        <time>2026-09-03T12:23:56.000Z</time>
      </trkpt>
      <trkpt lat="48.20934" lon="6.67008">
        <ele>533.59997558594</ele>
        <time>2026-09-03T12:23:57.000Z</time>
      </trkpt>
      <trkpt lat="48.20934" lon="6.6701">
        <ele>533.59997558594</ele>
        <time>2026-09-03T12:23:58.000Z</time>
      </trkpt>
      <trkpt lat="48.20935" lon="6.67011">
        <ele>533.40002441406</ele>
        <time>2026-09-03T12:23:59.000Z</time>
      </trkpt>
      <trkpt lat="48.20935" lon="6.67013">
        <ele>533.40002441406</ele>
        <time>2026-09-03T12:24:00.000Z</time>
      </trkpt>
      <trkpt lat="48.20935" lon="6.67015">
        <ele>533.59997558594</ele>
        <time>2026-09-03T12:24:01.000Z</time>
      </trkpt>
      <trkpt lat="48.20935" lon="6.67016">
        <ele>533.59997558594</ele>
        <time>2026-09-03T12:24:02.000Z</time>
      </trkpt>
      <trkpt lat="48.20935" lon="6.67017">
        <ele>533.59997558594</ele>
        <time>2026-09-03T12:24:03.000Z</time>
      </trkpt>
      <trkpt lat="48.20936" lon="6.67019">
        <ele>533.80004882812</ele>
        <time>2026-09-03T12:24:04.000Z</time>
      </trkpt>
      <trkpt lat="48.20936" lon="6.6702">
        <ele>533.80004882812</ele>
        <time>2026-09-03T12:24:05.000Z</time>
      </trkpt>
      <trkpt lat="48.20936" lon="6.67022">
        <ele>533.80004882812</ele>
        <time>2026-09-03T12:24:06.000Z</time>
      </trkpt>
      <trkpt lat="48.20936" lon="6.67024">
        <ele>533.80004882812</ele>
        <time>2026-09-03T12:24:07.000Z</time>
      </trkpt>
      <trkpt lat="48.20935" lon="6.67026">
        <ele>533.80004882812</ele>
        <time>2026-09-03T12:24:08.000Z</time>
      </trkpt>
      <trkpt lat="48.20935" lon="6.67028">
        <ele>533.80004882812</ele>
        <time>2026-09-03T12:24:09.000Z</time>
      </trkpt>
      <trkpt lat="48.20934" lon="6.6703">
        <ele>534</ele>
        <time>2026-09-03T12:24:10.000Z</time>
      </trkpt>
      <trkpt lat="48.20934" lon="6.67031">
        <ele>534</ele>
        <time>2026-09-03T12:24:11.000Z</time>
      </trkpt>
      <trkpt lat="48.20934" lon="6.67033">
        <ele>534</ele>
        <time>2026-09-03T12:24:12.000Z</time>
      </trkpt>
      <trkpt lat="48.20935" lon="6.67035">
        <ele>534</ele>
        <time>2026-09-03T12:24:13.000Z</time>
      </trkpt>
      <trkpt lat="48.20935" lon="6.67036">
        <ele>534</ele>
        <time>2026-09-03T12:24:14.000Z</time>
      </trkpt>
      <trkpt lat="48.20936" lon="6.67038">
        <ele>534.19995117188</ele>
        <time>2026-09-03T12:24:15.000Z</time>
      </trkpt>
      <trkpt lat="48.20935" lon="6.67039">
        <ele>534.19995117188</ele>
        <time>2026-09-03T12:24:16.000Z</time>
      </trkpt>
      <trkpt lat="48.20935" lon="6.67041">
        <ele>534.19995117188</ele>
        <time>2026-09-03T12:24:17.000Z</time>
      </trkpt>
      <trkpt lat="48.20935" lon="6.67043">
        <ele>534.40002441406</ele>
        <time>2026-09-03T12:24:18.000Z</time>
      </trkpt>
      <trkpt lat="48.20935" lon="6.67045">
        <ele>534.40002441406</ele>
        <time>2026-09-03T12:24:19.000Z</time>
      </trkpt>
      <trkpt lat="48.20935" lon="6.67046">
        <ele>534.40002441406</ele>
        <time>2026-09-03T12:24:20.000Z</time>
      </trkpt>
      <trkpt lat="48.20936" lon="6.67048">
        <ele>534.40002441406</ele>
        <time>2026-09-03T12:24:21.000Z</time>
      </trkpt>
      <trkpt lat="48.20936" lon="6.67049">
        <ele>534.40002441406</ele>
        <time>2026-09-03T12:24:22.000Z</time>
      </trkpt>
      <trkpt lat="48.20936" lon="6.67051">
        <ele>534.40002441406</ele>
        <time>2026-09-03T12:24:23.000Z</time>
      </trkpt>
      <trkpt lat="48.20936" lon="6.67053">
        <ele>534.40002441406</ele>
        <time>2026-09-03T12:24:24.000Z</time>
      </trkpt>
      <trkpt lat="48.20937" lon="6.67055">
        <ele>534.59997558594</ele>
        <time>2026-09-03T12:24:25.000Z</time>
      </trkpt>
      <trkpt lat="48.20937" lon="6.67057">
        <ele>534.59997558594</ele>
        <time>2026-09-03T12:24:26.000Z</time>
      </trkpt>
      <trkpt lat="48.20937" lon="6.67058">
        <ele>534.40002441406</ele>
        <time>2026-09-03T12:24:27.000Z</time>
      </trkpt>
      <trkpt lat="48.20936" lon="6.67059">
        <ele>534.40002441406</ele>
        <time>2026-09-03T12:24:28.000Z</time>
      </trkpt>
      <trkpt lat="48.20936" lon="6.67061">
        <ele>534.40002441406</ele>
        <time>2026-09-03T12:24:29.000Z</time>
      </trkpt>
      <trkpt lat="48.20936" lon="6.67063">
        <ele>534.40002441406</ele>
        <time>2026-09-03T12:24:30.000Z</time>
      </trkpt>
      <trkpt lat="48.20936" lon="6.67065">
        <ele>534.40002441406</ele>
        <time>2026-09-03T12:24:31.000Z</time>
      </trkpt>
      <trkpt lat="48.20935" lon="6.67067">
        <ele>534.40002441406</ele>
        <time>2026-09-03T12:24:32.000Z</time>
      </trkpt>
      <trkpt lat="48.20935" lon="6.67068">
        <ele>534.59997558594</ele>
        <time>2026-09-03T12:24:33.000Z</time>
      </trkpt>
      <trkpt lat="48.20936" lon="6.6707">
        <ele>534.59997558594</ele>
        <time>2026-09-03T12:24:34.000Z</time>
      </trkpt>
      <trkpt lat="48.20936" lon="6.67072">
        <ele>534.59997558594</ele>
        <time>2026-09-03T12:24:35.000Z</time>
      </trkpt>
      <trkpt lat="48.20936" lon="6.67073">
        <ele>534.80004882812</ele>
        <time>2026-09-03T12:24:36.000Z</time>
      </trkpt>
      <trkpt lat="48.20935" lon="6.67075">
        <ele>534.80004882812</ele>
        <time>2026-09-03T12:24:37.000Z</time>
      </trkpt>
      <trkpt lat="48.20935" lon="6.67076">
        <ele>534.59997558594</ele>
        <time>2026-09-03T12:24:38.000Z</time>
      </trkpt>
      <trkpt lat="48.20935" lon="6.67077">
        <ele>534.59997558594</ele>
        <time>2026-09-03T12:24:39.000Z</time>
      </trkpt>
      <trkpt lat="48.20935" lon="6.67079">
        <ele>534.59997558594</ele>
        <time>2026-09-03T12:24:40.000Z</time>
      </trkpt>
      <trkpt lat="48.20935" lon="6.67081">
        <ele>534.59997558594</ele>
        <time>2026-09-03T12:24:41.000Z</time>
      </trkpt>
      <trkpt lat="48.20934" lon="6.67083">
        <ele>534.59997558594</ele>
        <time>2026-09-03T12:24:42.000Z</time>
      </trkpt>
      <trkpt lat="48.20934" lon="6.67085">
        <ele>534.80004882812</ele>
        <time>2026-09-03T12:24:43.000Z</time>
      </trkpt>
      <trkpt lat="48.20935" lon="6.67087">
        <ele>535</ele>
        <time>2026-09-03T12:24:44.000Z</time>
      </trkpt>
      <trkpt lat="48.20935" lon="6.67088">
        <ele>535</ele>
        <time>2026-09-03T12:24:45.000Z</time>
      </trkpt>
      <trkpt lat="48.20935" lon="6.6709">
        <ele>535.19995117188</ele>
        <time>2026-09-03T12:24:46.000Z</time>
      </trkpt>
      <trkpt lat="48.20935" lon="6.67092">
        <ele>535.40002441406</ele>
        <time>2026-09-03T12:24:47.000Z</time>
      </trkpt>
      <trkpt lat="48.20935" lon="6.67094">
        <ele>535.40002441406</ele>
        <time>2026-09-03T12:24:48.000Z</time>
      </trkpt>
      <trkpt lat="48.20934" lon="6.67095">
        <ele>535.40002441406</ele>
        <time>2026-09-03T12:24:49.000Z</time>
      </trkpt>
      <trkpt lat="48.20934" lon="6.67096">
        <ele>535.40002441406</ele>
        <time>2026-09-03T12:24:50.000Z</time>
      </trkpt>
      <trkpt lat="48.20935" lon="6.67098">
        <ele>535.59997558594</ele>
        <time>2026-09-03T12:24:51.000Z</time>
      </trkpt>
      <trkpt lat="48.20935" lon="6.67099">
        <ele>535.59997558594</ele>
        <time>2026-09-03T12:24:52.000Z</time>
      </trkpt>
      <trkpt lat="48.20934" lon="6.67101">
        <ele>535.80004882812</ele>
        <time>2026-09-03T12:24:53.000Z</time>
      </trkpt>
      <trkpt lat="48.20934" lon="6.67103">
        <ele>535.80004882812</ele>
        <time>2026-09-03T12:24:54.000Z</time>
      </trkpt>
      <trkpt lat="48.20934" lon="6.67105">
        <ele>536</ele>
        <time>2026-09-03T12:24:55.000Z</time>
      </trkpt>
      <trkpt lat="48.20934" lon="6.67107">
        <ele>536</ele>
        <time>2026-09-03T12:24:56.000Z</time>
      </trkpt>
      <trkpt lat="48.20934" lon="6.67109">
        <ele>536</ele>
        <time>2026-09-03T12:24:57.000Z</time>
      </trkpt>
      <trkpt lat="48.20934" lon="6.6711">
        <ele>536</ele>
        <time>2026-09-03T12:24:58.000Z</time>
      </trkpt>
      <trkpt lat="48.20933" lon="6.67112">
        <ele>536</ele>
        <time>2026-09-03T12:24:59.000Z</time>
      </trkpt>
      <trkpt lat="48.20933" lon="6.67113">
        <ele>535.80004882812</ele>
        <time>2026-09-03T12:25:00.000Z</time>
      </trkpt>
      <trkpt lat="48.20934" lon="6.67115">
        <ele>535.80004882812</ele>
        <time>2026-09-03T12:25:01.000Z</time>
      </trkpt>
      <trkpt lat="48.20933" lon="6.67115">
        <ele>535.80004882812</ele>
        <time>2026-09-03T12:25:02.000Z</time>
      </trkpt>
      <trkpt lat="48.20933" lon="6.67116">
        <ele>535.80004882812</ele>
        <time>2026-09-03T12:25:03.000Z</time>
      </trkpt>
      <trkpt lat="48.20934" lon="6.67118">
        <ele>535.80004882812</ele>
        <time>2026-09-03T12:25:04.000Z</time>
      </trkpt>
      <trkpt lat="48.20934" lon="6.6712">
        <ele>535.80004882812</ele>
        <time>2026-09-03T12:25:05.000Z</time>
      </trkpt>
      <trkpt lat="48.20934" lon="6.67122">
        <ele>535.80004882812</ele>
        <time>2026-09-03T12:25:06.000Z</time>
      </trkpt>
      <trkpt lat="48.20933" lon="6.67123">
        <ele>535.80004882812</ele>
        <time>2026-09-03T12:25:07.000Z</time>
      </trkpt>
      <trkpt lat="48.20933" lon="6.67125">
        <ele>535.80004882812</ele>
        <time>2026-09-03T12:25:08.000Z</time>
      </trkpt>
      <trkpt lat="48.20933" lon="6.67126">
        <ele>535.80004882812</ele>
        <time>2026-09-03T12:25:09.000Z</time>
      </trkpt>
      <trkpt lat="48.20933" lon="6.67128">
        <ele>536</ele>
        <time>2026-09-03T12:25:10.000Z</time>
      </trkpt>
      <trkpt lat="48.20933" lon="6.6713">
        <ele>536</ele>
        <time>2026-09-03T12:25:11.000Z</time>
      </trkpt>
      <trkpt lat="48.20933" lon="6.6713">
        <ele>536.19995117188</ele>
        <time>2026-09-03T12:25:12.000Z</time>
      </trkpt>
      <trkpt lat="48.20933" lon="6.67131">
        <ele>536.19995117188</ele>
        <time>2026-09-03T12:25:13.000Z</time>
      </trkpt>
      <trkpt lat="48.20932" lon="6.67132">
        <ele>536.40002441406</ele>
        <time>2026-09-03T12:25:14.000Z</time>
      </trkpt>
      <trkpt lat="48.20932" lon="6.67134">
        <ele>536.59997558594</ele>
        <time>2026-09-03T12:25:15.000Z</time>
      </trkpt>
      <trkpt lat="48.20932" lon="6.67135">
        <ele>536.59997558594</ele>
        <time>2026-09-03T12:25:16.000Z</time>
      </trkpt>
      <trkpt lat="48.20931" lon="6.67137">
        <ele>536.59997558594</ele>
        <time>2026-09-03T12:25:17.000Z</time>
      </trkpt>
      <trkpt lat="48.2093" lon="6.6714">
        <ele>536.59997558594</ele>
        <time>2026-09-03T12:25:18.000Z</time>
      </trkpt>
      <trkpt lat="48.20929" lon="6.67141">
        <ele>536.59997558594</ele>
        <time>2026-09-03T12:25:19.000Z</time>
      </trkpt>
      <trkpt lat="48.20929" lon="6.67142">
        <ele>536.59997558594</ele>
        <time>2026-09-03T12:25:20.000Z</time>
      </trkpt>
      <trkpt lat="48.20928" lon="6.67143">
        <ele>536.59997558594</ele>
        <time>2026-09-03T12:25:21.000Z</time>
      </trkpt>
      <trkpt lat="48.20927" lon="6.67144">
        <ele>536.59997558594</ele>
        <time>2026-09-03T12:25:22.000Z</time>
      </trkpt>
      <trkpt lat="48.20927" lon="6.67146">
        <ele>536.59997558594</ele>
        <time>2026-09-03T12:25:23.000Z</time>
      </trkpt>
      <trkpt lat="48.20927" lon="6.67147">
        <ele>536.59997558594</ele>
        <time>2026-09-03T12:25:24.000Z</time>
      </trkpt>
      <trkpt lat="48.20926" lon="6.67148">
        <ele>536.59997558594</ele>
        <time>2026-09-03T12:25:25.000Z</time>
      </trkpt>
      <trkpt lat="48.20926" lon="6.6715">
        <ele>536.59997558594</ele>
        <time>2026-09-03T12:25:26.000Z</time>
      </trkpt>
      <trkpt lat="48.20926" lon="6.6715">
        <ele>536.59997558594</ele>
        <time>2026-09-03T12:25:27.000Z</time>
      </trkpt>
      <trkpt lat="48.20927" lon="6.67149">
        <ele>536.59997558594</ele>
        <time>2026-09-03T12:25:28.000Z</time>
      </trkpt>
      <trkpt lat="48.20926" lon="6.6715">
        <ele>536.40002441406</ele>
        <time>2026-09-03T12:25:29.000Z</time>
      </trkpt>
      <trkpt lat="48.20927" lon="6.6715">
        <ele>536.40002441406</ele>
        <time>2026-09-03T12:25:30.000Z</time>
      </trkpt>
      <trkpt lat="48.20927" lon="6.67151">
        <ele>536.40002441406</ele>
        <time>2026-09-03T12:25:31.000Z</time>
      </trkpt>
      <trkpt lat="48.20926" lon="6.67152">
        <ele>536.40002441406</ele>
        <time>2026-09-03T12:25:32.000Z</time>
      </trkpt>
      <trkpt lat="48.20926" lon="6.67154">
        <ele>536.40002441406</ele>
        <time>2026-09-03T12:25:33.000Z</time>
      </trkpt>
      <trkpt lat="48.20927" lon="6.67155">
        <ele>536.59997558594</ele>
        <time>2026-09-03T12:25:34.000Z</time>
      </trkpt>
      <trkpt lat="48.20927" lon="6.67156">
        <ele>536.80004882812</ele>
        <time>2026-09-03T12:25:35.000Z</time>
      </trkpt>
      <trkpt lat="48.20926" lon="6.67157">
        <ele>536.80004882812</ele>
        <time>2026-09-03T12:25:36.000Z</time>
      </trkpt>
      <trkpt lat="48.20926" lon="6.67159">
        <ele>536.80004882812</ele>
        <time>2026-09-03T12:25:37.000Z</time>
      </trkpt>
      <trkpt lat="48.20927" lon="6.67162">
        <ele>537</ele>
        <time>2026-09-03T12:25:38.000Z</time>
      </trkpt>
      <trkpt lat="48.20927" lon="6.67163">
        <ele>537</ele>
        <time>2026-09-03T12:25:39.000Z</time>
      </trkpt>
      <trkpt lat="48.20927" lon="6.67165">
        <ele>537</ele>
        <time>2026-09-03T12:25:40.000Z</time>
      </trkpt>
      <trkpt lat="48.20928" lon="6.67167">
        <ele>537</ele>
        <time>2026-09-03T12:25:41.000Z</time>
      </trkpt>
      <trkpt lat="48.20928" lon="6.67168">
        <ele>537</ele>
        <time>2026-09-03T12:25:42.000Z</time>
      </trkpt>
      <trkpt lat="48.20929" lon="6.6717">
        <ele>536.80004882812</ele>
        <time>2026-09-03T12:25:43.000Z</time>
      </trkpt>
      <trkpt lat="48.20929" lon="6.67172">
        <ele>536.80004882812</ele>
        <time>2026-09-03T12:25:44.000Z</time>
      </trkpt>
      <trkpt lat="48.2093" lon="6.67173">
        <ele>536.80004882812</ele>
        <time>2026-09-03T12:25:45.000Z</time>
      </trkpt>
      <trkpt lat="48.20931" lon="6.67174">
        <ele>536.80004882812</ele>
        <time>2026-09-03T12:25:46.000Z</time>
      </trkpt>
      <trkpt lat="48.20931" lon="6.67176">
        <ele>536.80004882812</ele>
        <time>2026-09-03T12:25:47.000Z</time>
      </trkpt>
      <trkpt lat="48.20931" lon="6.67178">
        <ele>536.80004882812</ele>
        <time>2026-09-03T12:25:48.000Z</time>
      </trkpt>
      <trkpt lat="48.20932" lon="6.6718">
        <ele>537</ele>
        <time>2026-09-03T12:25:49.000Z</time>
      </trkpt>
      <trkpt lat="48.20932" lon="6.67181">
        <ele>537</ele>
        <time>2026-09-03T12:25:50.000Z</time>
      </trkpt>
      <trkpt lat="48.20932" lon="6.67181">
        <ele>537</ele>
        <time>2026-09-03T12:25:51.000Z</time>
      </trkpt>
      <trkpt lat="48.20933" lon="6.67183">
        <ele>537.19995117188</ele>
        <time>2026-09-03T12:25:52.000Z</time>
      </trkpt>
      <trkpt lat="48.20933" lon="6.67185">
        <ele>537.19995117188</ele>
        <time>2026-09-03T12:25:53.000Z</time>
      </trkpt>
      <trkpt lat="48.20933" lon="6.67186">
        <ele>537.19995117188</ele>
        <time>2026-09-03T12:25:54.000Z</time>
      </trkpt>
      <trkpt lat="48.20933" lon="6.67187">
        <ele>537.19995117188</ele>
        <time>2026-09-03T12:25:55.000Z</time>
      </trkpt>
      <trkpt lat="48.20933" lon="6.67188">
        <ele>537.40002441406</ele>
        <time>2026-09-03T12:25:56.000Z</time>
      </trkpt>
      <trkpt lat="48.20933" lon="6.6719">
        <ele>537.40002441406</ele>
        <time>2026-09-03T12:25:57.000Z</time>
      </trkpt>
      <trkpt lat="48.20933" lon="6.67192">
        <ele>537.40002441406</ele>
        <time>2026-09-03T12:25:58.000Z</time>
      </trkpt>
      <trkpt lat="48.20934" lon="6.67193">
        <ele>537.40002441406</ele>
        <time>2026-09-03T12:25:59.000Z</time>
      </trkpt>
      <trkpt lat="48.20934" lon="6.67195">
        <ele>537.40002441406</ele>
        <time>2026-09-03T12:26:00.000Z</time>
      </trkpt>
      <trkpt lat="48.20935" lon="6.67197">
        <ele>537.40002441406</ele>
        <time>2026-09-03T12:26:01.000Z</time>
      </trkpt>
      <trkpt lat="48.20935" lon="6.67198">
        <ele>537.40002441406</ele>
        <time>2026-09-03T12:26:02.000Z</time>
      </trkpt>
      <trkpt lat="48.20935" lon="6.672">
        <ele>537.40002441406</ele>
        <time>2026-09-03T12:26:03.000Z</time>
      </trkpt>
      <trkpt lat="48.20934" lon="6.67202">
        <ele>537.40002441406</ele>
        <time>2026-09-03T12:26:04.000Z</time>
      </trkpt>
      <trkpt lat="48.20934" lon="6.67203">
        <ele>537.40002441406</ele>
        <time>2026-09-03T12:26:05.000Z</time>
      </trkpt>
      <trkpt lat="48.20934" lon="6.67204">
        <ele>537.59997558594</ele>
        <time>2026-09-03T12:26:06.000Z</time>
      </trkpt>
      <trkpt lat="48.20933" lon="6.67206">
        <ele>537.59997558594</ele>
        <time>2026-09-03T12:26:07.000Z</time>
      </trkpt>
      <trkpt lat="48.20933" lon="6.67207">
        <ele>537.80004882812</ele>
        <time>2026-09-03T12:26:08.000Z</time>
      </trkpt>
      <trkpt lat="48.20933" lon="6.67208">
        <ele>537.80004882812</ele>
        <time>2026-09-03T12:26:09.000Z</time>
      </trkpt>
      <trkpt lat="48.20933" lon="6.6721">
        <ele>537.80004882812</ele>
        <time>2026-09-03T12:26:10.000Z</time>
      </trkpt>
      <trkpt lat="48.20933" lon="6.67211">
        <ele>537.80004882812</ele>
        <time>2026-09-03T12:26:11.000Z</time>
      </trkpt>
      <trkpt lat="48.20932" lon="6.67213">
        <ele>538</ele>
        <time>2026-09-03T12:26:12.000Z</time>
      </trkpt>
      <trkpt lat="48.20932" lon="6.67214">
        <ele>538</ele>
        <time>2026-09-03T12:26:13.000Z</time>
      </trkpt>
      <trkpt lat="48.20932" lon="6.67216">
        <ele>538</ele>
        <time>2026-09-03T12:26:14.000Z</time>
      </trkpt>
      <trkpt lat="48.20932" lon="6.67217">
        <ele>538</ele>
        <time>2026-09-03T12:26:15.000Z</time>
      </trkpt>
      <trkpt lat="48.20932" lon="6.67219">
        <ele>538</ele>
        <time>2026-09-03T12:26:16.000Z</time>
      </trkpt>
      <trkpt lat="48.20932" lon="6.67221">
        <ele>538</ele>
        <time>2026-09-03T12:26:17.000Z</time>
      </trkpt>
      <trkpt lat="48.20932" lon="6.67222">
        <ele>538.19995117188</ele>
        <time>2026-09-03T12:26:18.000Z</time>
      </trkpt>
      <trkpt lat="48.20931" lon="6.67224">
        <ele>538.19995117188</ele>
        <time>2026-09-03T12:26:19.000Z</time>
      </trkpt>
      <trkpt lat="48.20931" lon="6.67225">
        <ele>538.19995117188</ele>
        <time>2026-09-03T12:26:20.000Z</time>
      </trkpt>
      <trkpt lat="48.20931" lon="6.67227">
        <ele>538.19995117188</ele>
        <time>2026-09-03T12:26:21.000Z</time>
      </trkpt>
      <trkpt lat="48.2093" lon="6.67228">
        <ele>538.40002441406</ele>
        <time>2026-09-03T12:26:22.000Z</time>
      </trkpt>
      <trkpt lat="48.2093" lon="6.6723">
        <ele>538.40002441406</ele>
        <time>2026-09-03T12:26:23.000Z</time>
      </trkpt>
      <trkpt lat="48.20929" lon="6.67232">
        <ele>538.40002441406</ele>
        <time>2026-09-03T12:26:24.000Z</time>
      </trkpt>
      <trkpt lat="48.20929" lon="6.67234">
        <ele>538.40002441406</ele>
        <time>2026-09-03T12:26:25.000Z</time>
      </trkpt>
      <trkpt lat="48.20929" lon="6.67235">
        <ele>538.40002441406</ele>
        <time>2026-09-03T12:26:26.000Z</time>
      </trkpt>
      <trkpt lat="48.20929" lon="6.67237">
        <ele>538.59997558594</ele>
        <time>2026-09-03T12:26:27.000Z</time>
      </trkpt>
      <trkpt lat="48.2093" lon="6.67237">
        <ele>538.59997558594</ele>
        <time>2026-09-03T12:26:28.000Z</time>
      </trkpt>
      <trkpt lat="48.2093" lon="6.67238">
        <ele>538.59997558594</ele>
        <time>2026-09-03T12:26:29.000Z</time>
      </trkpt>
      <trkpt lat="48.20931" lon="6.67238">
        <ele>538.80004882812</ele>
        <time>2026-09-03T12:26:30.000Z</time>
      </trkpt>
      <trkpt lat="48.20931" lon="6.6724">
        <ele>538.80004882812</ele>
        <time>2026-09-03T12:26:31.000Z</time>
      </trkpt>
      <trkpt lat="48.20931" lon="6.67241">
        <ele>539</ele>
        <time>2026-09-03T12:26:32.000Z</time>
      </trkpt>
      <trkpt lat="48.20932" lon="6.67242">
        <ele>539</ele>
        <time>2026-09-03T12:26:33.000Z</time>
      </trkpt>
      <trkpt lat="48.20932" lon="6.67243">
        <ele>539.19995117188</ele>
        <time>2026-09-03T12:26:34.000Z</time>
      </trkpt>
      <trkpt lat="48.20932" lon="6.67245">
        <ele>539.40002441406</ele>
        <time>2026-09-03T12:26:35.000Z</time>
      </trkpt>
      <trkpt lat="48.20933" lon="6.67246">
        <ele>539.40002441406</ele>
        <time>2026-09-03T12:26:36.000Z</time>
      </trkpt>
      <trkpt lat="48.20933" lon="6.67248">
        <ele>539.59997558594</ele>
        <time>2026-09-03T12:26:37.000Z</time>
      </trkpt>
      <trkpt lat="48.20934" lon="6.67249">
        <ele>539.59997558594</ele>
        <time>2026-09-03T12:26:38.000Z</time>
      </trkpt>
      <trkpt lat="48.20935" lon="6.67251">
        <ele>539.80004882812</ele>
        <time>2026-09-03T12:26:39.000Z</time>
      </trkpt>
      <trkpt lat="48.20935" lon="6.67252">
        <ele>539.80004882812</ele>
        <time>2026-09-03T12:26:40.000Z</time>
      </trkpt>
      <trkpt lat="48.20935" lon="6.67253">
        <ele>540</ele>
        <time>2026-09-03T12:26:41.000Z</time>
      </trkpt>
      <trkpt lat="48.20935" lon="6.67255">
        <ele>540</ele>
        <time>2026-09-03T12:26:42.000Z</time>
      </trkpt>
      <trkpt lat="48.20935" lon="6.67257">
        <ele>540.19995117188</ele>
        <time>2026-09-03T12:26:43.000Z</time>
      </trkpt>
      <trkpt lat="48.20935" lon="6.67259">
        <ele>540.40002441406</ele>
        <time>2026-09-03T12:26:44.000Z</time>
      </trkpt>
      <trkpt lat="48.20935" lon="6.6726">
        <ele>540.40002441406</ele>
        <time>2026-09-03T12:26:45.000Z</time>
      </trkpt>
      <trkpt lat="48.20936" lon="6.67261">
        <ele>540.59997558594</ele>
        <time>2026-09-03T12:26:46.000Z</time>
      </trkpt>
      <trkpt lat="48.20935" lon="6.67263">
        <ele>540.80004882812</ele>
        <time>2026-09-03T12:26:47.000Z</time>
      </trkpt>
      <trkpt lat="48.20934" lon="6.67265">
        <ele>540.80004882812</ele>
        <time>2026-09-03T12:26:48.000Z</time>
      </trkpt>
      <trkpt lat="48.20934" lon="6.67266">
        <ele>541</ele>
        <time>2026-09-03T12:26:49.000Z</time>
      </trkpt>
      <trkpt lat="48.20934" lon="6.67267">
        <ele>541</ele>
        <time>2026-09-03T12:26:50.000Z</time>
      </trkpt>
      <trkpt lat="48.20933" lon="6.67268">
        <ele>541</ele>
        <time>2026-09-03T12:26:51.000Z</time>
      </trkpt>
      <trkpt lat="48.20933" lon="6.6727">
        <ele>541</ele>
        <time>2026-09-03T12:26:52.000Z</time>
      </trkpt>
      <trkpt lat="48.20933" lon="6.67271">
        <ele>541</ele>
        <time>2026-09-03T12:26:53.000Z</time>
      </trkpt>
      <trkpt lat="48.20933" lon="6.67272">
        <ele>541</ele>
        <time>2026-09-03T12:26:54.000Z</time>
      </trkpt>
      <trkpt lat="48.20933" lon="6.67273">
        <ele>541</ele>
        <time>2026-09-03T12:26:55.000Z</time>
      </trkpt>
      <trkpt lat="48.20933" lon="6.67274">
        <ele>541.19995117188</ele>
        <time>2026-09-03T12:26:56.000Z</time>
      </trkpt>
      <trkpt lat="48.20933" lon="6.67275">
        <ele>541.40002441406</ele>
        <time>2026-09-03T12:26:57.000Z</time>
      </trkpt>
      <trkpt lat="48.20934" lon="6.67276">
        <ele>541.59997558594</ele>
        <time>2026-09-03T12:26:58.000Z</time>
      </trkpt>
      <trkpt lat="48.20934" lon="6.67278">
        <ele>541.59997558594</ele>
        <time>2026-09-03T12:26:59.000Z</time>
      </trkpt>
      <trkpt lat="48.20934" lon="6.67279">
        <ele>541.80004882812</ele>
        <time>2026-09-03T12:27:00.000Z</time>
      </trkpt>
      <trkpt lat="48.20934" lon="6.67279">
        <ele>542</ele>
        <time>2026-09-03T12:27:01.000Z</time>
      </trkpt>
      <trkpt lat="48.20935" lon="6.6728">
        <ele>542</ele>
        <time>2026-09-03T12:27:02.000Z</time>
      </trkpt>
      <trkpt lat="48.20936" lon="6.67282">
        <ele>542.19995117188</ele>
        <time>2026-09-03T12:27:03.000Z</time>
      </trkpt>
      <trkpt lat="48.20936" lon="6.67284">
        <ele>542.40002441406</ele>
        <time>2026-09-03T12:27:04.000Z</time>
      </trkpt>
      <trkpt lat="48.20936" lon="6.67285">
        <ele>542.59997558594</ele>
        <time>2026-09-03T12:27:05.000Z</time>
      </trkpt>
      <trkpt lat="48.20936" lon="6.67286">
        <ele>542.59997558594</ele>
        <time>2026-09-03T12:27:06.000Z</time>
      </trkpt>
      <trkpt lat="48.20937" lon="6.67286">
        <ele>542.80004882812</ele>
        <time>2026-09-03T12:27:07.000Z</time>
      </trkpt>
      <trkpt lat="48.20937" lon="6.67287">
        <ele>542.80004882812</ele>
        <time>2026-09-03T12:27:08.000Z</time>
      </trkpt>
      <trkpt lat="48.20938" lon="6.67287">
        <ele>542.80004882812</ele>
        <time>2026-09-03T12:27:09.000Z</time>
      </trkpt>
      <trkpt lat="48.20938" lon="6.67287">
        <ele>542.80004882812</ele>
        <time>2026-09-03T12:27:10.000Z</time>
      </trkpt>
      <trkpt lat="48.20939" lon="6.67287">
        <ele>543</ele>
        <time>2026-09-03T12:27:11.000Z</time>
      </trkpt>
      <trkpt lat="48.2094" lon="6.67287">
        <ele>543</ele>
        <time>2026-09-03T12:27:12.000Z</time>
      </trkpt>
      <trkpt lat="48.2094" lon="6.67287">
        <ele>543.19995117188</ele>
        <time>2026-09-03T12:27:13.000Z</time>
      </trkpt>
      <trkpt lat="48.20941" lon="6.67288">
        <ele>543.19995117188</ele>
        <time>2026-09-03T12:27:14.000Z</time>
      </trkpt>
      <trkpt lat="48.20942" lon="6.67289">
        <ele>543.19995117188</ele>
        <time>2026-09-03T12:27:15.000Z</time>
      </trkpt>
      <trkpt lat="48.20942" lon="6.6729">
        <ele>543.40002441406</ele>
        <time>2026-09-03T12:27:16.000Z</time>
      </trkpt>
      <trkpt lat="48.20943" lon="6.67292">
        <ele>543.40002441406</ele>
        <time>2026-09-03T12:27:17.000Z</time>
      </trkpt>
      <trkpt lat="48.20943" lon="6.67293">
        <ele>543.40002441406</ele>
        <time>2026-09-03T12:27:18.000Z</time>
      </trkpt>
      <trkpt lat="48.20942" lon="6.67293">
        <ele>543.59997558594</ele>
        <time>2026-09-03T12:27:19.000Z</time>
      </trkpt>
      <trkpt lat="48.20942" lon="6.67294">
        <ele>543.59997558594</ele>
        <time>2026-09-03T12:27:20.000Z</time>
      </trkpt>
      <trkpt lat="48.20942" lon="6.67294">
        <ele>543.59997558594</ele>
        <time>2026-09-03T12:27:21.000Z</time>
      </trkpt>
      <trkpt lat="48.20942" lon="6.67293">
        <ele>543.59997558594</ele>
        <time>2026-09-03T12:27:22.000Z</time>
      </trkpt>
      <trkpt lat="48.20943" lon="6.67293">
        <ele>543.80004882812</ele>
        <time>2026-09-03T12:27:23.000Z</time>
      </trkpt>
      <trkpt lat="48.20943" lon="6.67292">
        <ele>543.80004882812</ele>
        <time>2026-09-03T12:27:24.000Z</time>
      </trkpt>
      <trkpt lat="48.20944" lon="6.67292">
        <ele>544</ele>
        <time>2026-09-03T12:27:25.000Z</time>
      </trkpt>
      <trkpt lat="48.20944" lon="6.67291">
        <ele>544</ele>
        <time>2026-09-03T12:27:26.000Z</time>
      </trkpt>
      <trkpt lat="48.20944" lon="6.67291">
        <ele>544</ele>
        <time>2026-09-03T12:27:27.000Z</time>
      </trkpt>
      <trkpt lat="48.20945" lon="6.67291">
        <ele>543.80004882812</ele>
        <time>2026-09-03T12:27:28.000Z</time>
      </trkpt>
      <trkpt lat="48.20945" lon="6.67291">
        <ele>543.80004882812</ele>
        <time>2026-09-03T12:27:29.000Z</time>
      </trkpt>
      <trkpt lat="48.20945" lon="6.6729">
        <ele>543.59997558594</ele>
        <time>2026-09-03T12:27:30.000Z</time>
      </trkpt>
      <trkpt lat="48.20946" lon="6.6729">
        <ele>543.59997558594</ele>
        <time>2026-09-03T12:27:31.000Z</time>
      </trkpt>
      <trkpt lat="48.20947" lon="6.6729">
        <ele>543.59997558594</ele>
        <time>2026-09-03T12:27:32.000Z</time>
      </trkpt>
      <trkpt lat="48.20949" lon="6.6729">
        <ele>543.59997558594</ele>
        <time>2026-09-03T12:27:33.000Z</time>
      </trkpt>
      <trkpt lat="48.20949" lon="6.67291">
        <ele>543.59997558594</ele>
        <time>2026-09-03T12:27:34.000Z</time>
      </trkpt>
      <trkpt lat="48.20951" lon="6.67292">
        <ele>543.40002441406</ele>
        <time>2026-09-03T12:27:35.000Z</time>
      </trkpt>
      <trkpt lat="48.20951" lon="6.67292">
        <ele>543.40002441406</ele>
        <time>2026-09-03T12:27:36.000Z</time>
      </trkpt>
      <trkpt lat="48.20953" lon="6.67293">
        <ele>543.40002441406</ele>
        <time>2026-09-03T12:27:37.000Z</time>
      </trkpt>
      <trkpt lat="48.20953" lon="6.67294">
        <ele>543.19995117188</ele>
        <time>2026-09-03T12:27:38.000Z</time>
      </trkpt>
      <trkpt lat="48.20954" lon="6.67296">
        <ele>543.19995117188</ele>
        <time>2026-09-03T12:27:39.000Z</time>
      </trkpt>
      <trkpt lat="48.20955" lon="6.67297">
        <ele>543.19995117188</ele>
        <time>2026-09-03T12:27:40.000Z</time>
      </trkpt>
      <trkpt lat="48.20956" lon="6.67298">
        <ele>543.19995117188</ele>
        <time>2026-09-03T12:27:41.000Z</time>
      </trkpt>
      <trkpt lat="48.20956" lon="6.673">
        <ele>543.19995117188</ele>
        <time>2026-09-03T12:27:42.000Z</time>
      </trkpt>
      <trkpt lat="48.20956" lon="6.67303">
        <ele>543.19995117188</ele>
        <time>2026-09-03T12:27:43.000Z</time>
      </trkpt>
      <trkpt lat="48.20957" lon="6.67305">
        <ele>543.19995117188</ele>
        <time>2026-09-03T12:27:44.000Z</time>
      </trkpt>
      <trkpt lat="48.20957" lon="6.67307">
        <ele>543.40002441406</ele>
        <time>2026-09-03T12:27:45.000Z</time>
      </trkpt>
      <trkpt lat="48.20957" lon="6.67308">
        <ele>543.59997558594</ele>
        <time>2026-09-03T12:27:46.000Z</time>
      </trkpt>
      <trkpt lat="48.20957" lon="6.67309">
        <ele>543.80004882812</ele>
        <time>2026-09-03T12:27:47.000Z</time>
      </trkpt>
      <trkpt lat="48.20958" lon="6.6731">
        <ele>543.80004882812</ele>
        <time>2026-09-03T12:27:48.000Z</time>
      </trkpt>
      <trkpt lat="48.20958" lon="6.67312">
        <ele>544</ele>
        <time>2026-09-03T12:27:49.000Z</time>
      </trkpt>
      <trkpt lat="48.20958" lon="6.67314">
        <ele>544</ele>
        <time>2026-09-03T12:27:50.000Z</time>
      </trkpt>
      <trkpt lat="48.20958" lon="6.67315">
        <ele>544.19995117188</ele>
        <time>2026-09-03T12:27:51.000Z</time>
      </trkpt>
      <trkpt lat="48.20958" lon="6.67316">
        <ele>544.19995117188</ele>
        <time>2026-09-03T12:27:52.000Z</time>
      </trkpt>
      <trkpt lat="48.20958" lon="6.67318">
        <ele>544.40002441406</ele>
        <time>2026-09-03T12:27:53.000Z</time>
      </trkpt>
      <trkpt lat="48.20958" lon="6.67319">
        <ele>544.59997558594</ele>
        <time>2026-09-03T12:27:54.000Z</time>
      </trkpt>
      <trkpt lat="48.20958" lon="6.6732">
        <ele>544.80004882812</ele>
        <time>2026-09-03T12:27:55.000Z</time>
      </trkpt>
      <trkpt lat="48.20959" lon="6.67322">
        <ele>545</ele>
        <time>2026-09-03T12:27:56.000Z</time>
      </trkpt>
      <trkpt lat="48.20959" lon="6.67323">
        <ele>545.19995117188</ele>
        <time>2026-09-03T12:27:57.000Z</time>
      </trkpt>
      <trkpt lat="48.2096" lon="6.67323">
        <ele>545.40002441406</ele>
        <time>2026-09-03T12:27:58.000Z</time>
      </trkpt>
      <trkpt lat="48.2096" lon="6.67325">
        <ele>545.80004882812</ele>
        <time>2026-09-03T12:27:59.000Z</time>
      </trkpt>
      <trkpt lat="48.2096" lon="6.67327">
        <ele>546</ele>
        <time>2026-09-03T12:28:00.000Z</time>
      </trkpt>
      <trkpt lat="48.2096" lon="6.67328">
        <ele>546.19995117188</ele>
        <time>2026-09-03T12:28:01.000Z</time>
      </trkpt>
      <trkpt lat="48.20959" lon="6.67329">
        <ele>546.19995117188</ele>
        <time>2026-09-03T12:28:02.000Z</time>
      </trkpt>
      <trkpt lat="48.20959" lon="6.67331">
        <ele>546.40002441406</ele>
        <time>2026-09-03T12:28:03.000Z</time>
      </trkpt>
      <trkpt lat="48.2096" lon="6.67332">
        <ele>546.40002441406</ele>
        <time>2026-09-03T12:28:04.000Z</time>
      </trkpt>
      <trkpt lat="48.20959" lon="6.67334">
        <ele>546.40002441406</ele>
        <time>2026-09-03T12:28:05.000Z</time>
      </trkpt>
      <trkpt lat="48.20959" lon="6.67335">
        <ele>546.40002441406</ele>
        <time>2026-09-03T12:28:06.000Z</time>
      </trkpt>
      <trkpt lat="48.20959" lon="6.67336">
        <ele>546.40002441406</ele>
        <time>2026-09-03T12:28:07.000Z</time>
      </trkpt>
      <trkpt lat="48.2096" lon="6.67337">
        <ele>546.59997558594</ele>
        <time>2026-09-03T12:28:08.000Z</time>
      </trkpt>
      <trkpt lat="48.2096" lon="6.67338">
        <ele>546.59997558594</ele>
        <time>2026-09-03T12:28:09.000Z</time>
      </trkpt>
      <trkpt lat="48.2096" lon="6.6734">
        <ele>546.80004882812</ele>
        <time>2026-09-03T12:28:10.000Z</time>
      </trkpt>
      <trkpt lat="48.2096" lon="6.67342">
        <ele>547</ele>
        <time>2026-09-03T12:28:11.000Z</time>
      </trkpt>
      <trkpt lat="48.2096" lon="6.67343">
        <ele>547</ele>
        <time>2026-09-03T12:28:12.000Z</time>
      </trkpt>
      <trkpt lat="48.20959" lon="6.67345">
        <ele>547.19995117188</ele>
        <time>2026-09-03T12:28:13.000Z</time>
      </trkpt>
      <trkpt lat="48.2096" lon="6.67346">
        <ele>547.40002441406</ele>
        <time>2026-09-03T12:28:14.000Z</time>
      </trkpt>
      <trkpt lat="48.2096" lon="6.67347">
        <ele>547.40002441406</ele>
        <time>2026-09-03T12:28:15.000Z</time>
      </trkpt>
      <trkpt lat="48.2096" lon="6.67349">
        <ele>547.40002441406</ele>
        <time>2026-09-03T12:28:16.000Z</time>
      </trkpt>
      <trkpt lat="48.20961" lon="6.6735">
        <ele>547.59997558594</ele>
        <time>2026-09-03T12:28:17.000Z</time>
      </trkpt>
      <trkpt lat="48.2096" lon="6.67352">
        <ele>547.80004882812</ele>
        <time>2026-09-03T12:28:18.000Z</time>
      </trkpt>
      <trkpt lat="48.20961" lon="6.67353">
        <ele>547.80004882812</ele>
        <time>2026-09-03T12:28:19.000Z</time>
      </trkpt>
      <trkpt lat="48.20961" lon="6.67354">
        <ele>548</ele>
        <time>2026-09-03T12:28:20.000Z</time>
      </trkpt>
      <trkpt lat="48.20961" lon="6.67356">
        <ele>548</ele>
        <time>2026-09-03T12:28:21.000Z</time>
      </trkpt>
      <trkpt lat="48.20961" lon="6.67357">
        <ele>548.19995117188</ele>
        <time>2026-09-03T12:28:22.000Z</time>
      </trkpt>
      <trkpt lat="48.20961" lon="6.67359">
        <ele>548.19995117188</ele>
        <time>2026-09-03T12:28:23.000Z</time>
      </trkpt>
      <trkpt lat="48.20961" lon="6.6736">
        <ele>548.19995117188</ele>
        <time>2026-09-03T12:28:24.000Z</time>
      </trkpt>
      <trkpt lat="48.20962" lon="6.67361">
        <ele>548.40002441406</ele>
        <time>2026-09-03T12:28:25.000Z</time>
      </trkpt>
      <trkpt lat="48.20962" lon="6.67363">
        <ele>548.59997558594</ele>
        <time>2026-09-03T12:28:26.000Z</time>
      </trkpt>
      <trkpt lat="48.20961" lon="6.67365">
        <ele>548.59997558594</ele>
        <time>2026-09-03T12:28:27.000Z</time>
      </trkpt>
      <trkpt lat="48.20961" lon="6.67366">
        <ele>548.80004882812</ele>
        <time>2026-09-03T12:28:28.000Z</time>
      </trkpt>
      <trkpt lat="48.20961" lon="6.67368">
        <ele>549</ele>
        <time>2026-09-03T12:28:29.000Z</time>
      </trkpt>
      <trkpt lat="48.20962" lon="6.6737">
        <ele>549.19995117188</ele>
        <time>2026-09-03T12:28:30.000Z</time>
      </trkpt>
      <trkpt lat="48.20962" lon="6.67371">
        <ele>549.19995117188</ele>
        <time>2026-09-03T12:28:31.000Z</time>
      </trkpt>
      <trkpt lat="48.20961" lon="6.67373">
        <ele>549.19995117188</ele>
        <time>2026-09-03T12:28:32.000Z</time>
      </trkpt>
      <trkpt lat="48.20961" lon="6.67374">
        <ele>549.40002441406</ele>
        <time>2026-09-03T12:28:33.000Z</time>
      </trkpt>
      <trkpt lat="48.20962" lon="6.67375">
        <ele>549.40002441406</ele>
        <time>2026-09-03T12:28:34.000Z</time>
      </trkpt>
      <trkpt lat="48.20962" lon="6.67377">
        <ele>549.59997558594</ele>
        <time>2026-09-03T12:28:35.000Z</time>
      </trkpt>
      <trkpt lat="48.20962" lon="6.67379">
        <ele>549.59997558594</ele>
        <time>2026-09-03T12:28:36.000Z</time>
      </trkpt>
      <trkpt lat="48.20962" lon="6.6738">
        <ele>549.80004882812</ele>
        <time>2026-09-03T12:28:37.000Z</time>
      </trkpt>
      <trkpt lat="48.20963" lon="6.67382">
        <ele>549.80004882812</ele>
        <time>2026-09-03T12:28:38.000Z</time>
      </trkpt>
      <trkpt lat="48.20963" lon="6.67384">
        <ele>549.80004882812</ele>
        <time>2026-09-03T12:28:39.000Z</time>
      </trkpt>
      <trkpt lat="48.20963" lon="6.67386">
        <ele>549.80004882812</ele>
        <time>2026-09-03T12:28:40.000Z</time>
      </trkpt>
      <trkpt lat="48.20964" lon="6.67388">
        <ele>550</ele>
        <time>2026-09-03T12:28:41.000Z</time>
      </trkpt>
      <trkpt lat="48.20964" lon="6.67388">
        <ele>550</ele>
        <time>2026-09-03T12:28:42.000Z</time>
      </trkpt>
      <trkpt lat="48.20964" lon="6.67389">
        <ele>550.19995117188</ele>
        <time>2026-09-03T12:28:43.000Z</time>
      </trkpt>
      <trkpt lat="48.20965" lon="6.6739">
        <ele>550.40002441406</ele>
        <time>2026-09-03T12:28:44.000Z</time>
      </trkpt>
      <trkpt lat="48.20965" lon="6.67392">
        <ele>550.59997558594</ele>
        <time>2026-09-03T12:28:45.000Z</time>
      </trkpt>
      <trkpt lat="48.20966" lon="6.67393">
        <ele>550.59997558594</ele>
        <time>2026-09-03T12:28:46.000Z</time>
      </trkpt>
      <trkpt lat="48.20966" lon="6.67394">
        <ele>550.80004882812</ele>
        <time>2026-09-03T12:28:47.000Z</time>
      </trkpt>
      <trkpt lat="48.20967" lon="6.67396">
        <ele>550.80004882812</ele>
        <time>2026-09-03T12:28:48.000Z</time>
      </trkpt>
      <trkpt lat="48.20967" lon="6.67397">
        <ele>551</ele>
        <time>2026-09-03T12:28:49.000Z</time>
      </trkpt>
      <trkpt lat="48.20967" lon="6.67399">
        <ele>551</ele>
        <time>2026-09-03T12:28:50.000Z</time>
      </trkpt>
      <trkpt lat="48.20967" lon="6.67401">
        <ele>551</ele>
        <time>2026-09-03T12:28:51.000Z</time>
      </trkpt>
      <trkpt lat="48.20967" lon="6.67403">
        <ele>551.19995117188</ele>
        <time>2026-09-03T12:28:52.000Z</time>
      </trkpt>
      <trkpt lat="48.20968" lon="6.67404">
        <ele>551.19995117188</ele>
        <time>2026-09-03T12:28:53.000Z</time>
      </trkpt>
      <trkpt lat="48.20968" lon="6.67406">
        <ele>551.19995117188</ele>
        <time>2026-09-03T12:28:54.000Z</time>
      </trkpt>
      <trkpt lat="48.20969" lon="6.67407">
        <ele>551.40002441406</ele>
        <time>2026-09-03T12:28:55.000Z</time>
      </trkpt>
      <trkpt lat="48.20969" lon="6.67409">
        <ele>551.40002441406</ele>
        <time>2026-09-03T12:28:56.000Z</time>
      </trkpt>
      <trkpt lat="48.20969" lon="6.6741">
        <ele>551.40002441406</ele>
        <time>2026-09-03T12:28:57.000Z</time>
      </trkpt>
      <trkpt lat="48.2097" lon="6.67411">
        <ele>551.40002441406</ele>
        <time>2026-09-03T12:28:58.000Z</time>
      </trkpt>
      <trkpt lat="48.20971" lon="6.67412">
        <ele>551.40002441406</ele>
        <time>2026-09-03T12:28:59.000Z</time>
      </trkpt>
      <trkpt lat="48.20971" lon="6.67414">
        <ele>551.40002441406</ele>
        <time>2026-09-03T12:29:00.000Z</time>
      </trkpt>
      <trkpt lat="48.20972" lon="6.67415">
        <ele>551.40002441406</ele>
        <time>2026-09-03T12:29:01.000Z</time>
      </trkpt>
      <trkpt lat="48.20972" lon="6.67417">
        <ele>551.40002441406</ele>
        <time>2026-09-03T12:29:02.000Z</time>
      </trkpt>
      <trkpt lat="48.20972" lon="6.67418">
        <ele>551.59997558594</ele>
        <time>2026-09-03T12:29:03.000Z</time>
      </trkpt>
      <trkpt lat="48.20973" lon="6.6742">
        <ele>551.59997558594</ele>
        <time>2026-09-03T12:29:04.000Z</time>
      </trkpt>
      <trkpt lat="48.20973" lon="6.67422">
        <ele>551.80004882812</ele>
        <time>2026-09-03T12:29:05.000Z</time>
      </trkpt>
      <trkpt lat="48.20974" lon="6.67424">
        <ele>551.80004882812</ele>
        <time>2026-09-03T12:29:06.000Z</time>
      </trkpt>
      <trkpt lat="48.20974" lon="6.67425">
        <ele>551.80004882812</ele>
        <time>2026-09-03T12:29:07.000Z</time>
      </trkpt>
      <trkpt lat="48.20974" lon="6.67427">
        <ele>552</ele>
        <time>2026-09-03T12:29:08.000Z</time>
      </trkpt>
      <trkpt lat="48.20975" lon="6.6743">
        <ele>552</ele>
        <time>2026-09-03T12:29:09.000Z</time>
      </trkpt>
      <trkpt lat="48.20975" lon="6.67431">
        <ele>552</ele>
        <time>2026-09-03T12:29:10.000Z</time>
      </trkpt>
      <trkpt lat="48.20975" lon="6.67432">
        <ele>552</ele>
        <time>2026-09-03T12:29:11.000Z</time>
      </trkpt>
      <trkpt lat="48.20975" lon="6.67434">
        <ele>552</ele>
        <time>2026-09-03T12:29:12.000Z</time>
      </trkpt>
      <trkpt lat="48.20976" lon="6.67435">
        <ele>552</ele>
        <time>2026-09-03T12:29:13.000Z</time>
      </trkpt>
      <trkpt lat="48.20976" lon="6.67436">
        <ele>552</ele>
        <time>2026-09-03T12:29:14.000Z</time>
      </trkpt>
      <trkpt lat="48.20977" lon="6.67437">
        <ele>552</ele>
        <time>2026-09-03T12:29:15.000Z</time>
      </trkpt>
      <trkpt lat="48.20978" lon="6.67438">
        <ele>552</ele>
        <time>2026-09-03T12:29:16.000Z</time>
      </trkpt>
      <trkpt lat="48.20978" lon="6.6744">
        <ele>552</ele>
        <time>2026-09-03T12:29:17.000Z</time>
      </trkpt>
      <trkpt lat="48.20978" lon="6.67441">
        <ele>552.19995117188</ele>
        <time>2026-09-03T12:29:18.000Z</time>
      </trkpt>
      <trkpt lat="48.20979" lon="6.67443">
        <ele>552.19995117188</ele>
        <time>2026-09-03T12:29:19.000Z</time>
      </trkpt>
      <trkpt lat="48.20979" lon="6.67444">
        <ele>552.19995117188</ele>
        <time>2026-09-03T12:29:20.000Z</time>
      </trkpt>
      <trkpt lat="48.2098" lon="6.67445">
        <ele>552.19995117188</ele>
        <time>2026-09-03T12:29:21.000Z</time>
      </trkpt>
      <trkpt lat="48.2098" lon="6.67447">
        <ele>552.19995117188</ele>
        <time>2026-09-03T12:29:22.000Z</time>
      </trkpt>
      <trkpt lat="48.20981" lon="6.67448">
        <ele>552.19995117188</ele>
        <time>2026-09-03T12:29:23.000Z</time>
      </trkpt>
      <trkpt lat="48.20981" lon="6.67449">
        <ele>552.19995117188</ele>
        <time>2026-09-03T12:29:24.000Z</time>
      </trkpt>
      <trkpt lat="48.20981" lon="6.67451">
        <ele>552.19995117188</ele>
        <time>2026-09-03T12:29:25.000Z</time>
      </trkpt>
      <trkpt lat="48.20982" lon="6.67452">
        <ele>552</ele>
        <time>2026-09-03T12:29:26.000Z</time>
      </trkpt>
      <trkpt lat="48.20982" lon="6.67453">
        <ele>552</ele>
        <time>2026-09-03T12:29:27.000Z</time>
      </trkpt>
      <trkpt lat="48.20983" lon="6.67455">
        <ele>552</ele>
        <time>2026-09-03T12:29:28.000Z</time>
      </trkpt>
      <trkpt lat="48.20983" lon="6.67457">
        <ele>552</ele>
        <time>2026-09-03T12:29:29.000Z</time>
      </trkpt>
      <trkpt lat="48.20983" lon="6.67459">
        <ele>552</ele>
        <time>2026-09-03T12:29:30.000Z</time>
      </trkpt>
      <trkpt lat="48.20984" lon="6.6746">
        <ele>551.80004882812</ele>
        <time>2026-09-03T12:29:31.000Z</time>
      </trkpt>
      <trkpt lat="48.20984" lon="6.67461">
        <ele>551.80004882812</ele>
        <time>2026-09-03T12:29:32.000Z</time>
      </trkpt>
      <trkpt lat="48.20984" lon="6.67463">
        <ele>551.80004882812</ele>
        <time>2026-09-03T12:29:33.000Z</time>
      </trkpt>
      <trkpt lat="48.20984" lon="6.67464">
        <ele>551.80004882812</ele>
        <time>2026-09-03T12:29:34.000Z</time>
      </trkpt>
      <trkpt lat="48.20985" lon="6.67466">
        <ele>551.80004882812</ele>
        <time>2026-09-03T12:29:35.000Z</time>
      </trkpt>
      <trkpt lat="48.20985" lon="6.67468">
        <ele>551.80004882812</ele>
        <time>2026-09-03T12:29:36.000Z</time>
      </trkpt>
      <trkpt lat="48.20985" lon="6.67469">
        <ele>551.80004882812</ele>
        <time>2026-09-03T12:29:37.000Z</time>
      </trkpt>
      <trkpt lat="48.20985" lon="6.6747">
        <ele>551.80004882812</ele>
        <time>2026-09-03T12:29:38.000Z</time>
      </trkpt>
      <trkpt lat="48.20986" lon="6.67472">
        <ele>551.80004882812</ele>
        <time>2026-09-03T12:29:39.000Z</time>
      </trkpt>
      <trkpt lat="48.20986" lon="6.67474">
        <ele>552</ele>
        <time>2026-09-03T12:29:40.000Z</time>
      </trkpt>
      <trkpt lat="48.20987" lon="6.67476">
        <ele>552</ele>
        <time>2026-09-03T12:29:41.000Z</time>
      </trkpt>
      <trkpt lat="48.20987" lon="6.67477">
        <ele>552.19995117188</ele>
        <time>2026-09-03T12:29:42.000Z</time>
      </trkpt>
      <trkpt lat="48.20987" lon="6.67479">
        <ele>552.19995117188</ele>
        <time>2026-09-03T12:29:43.000Z</time>
      </trkpt>
      <trkpt lat="48.20987" lon="6.6748">
        <ele>552.19995117188</ele>
        <time>2026-09-03T12:29:44.000Z</time>
      </trkpt>
      <trkpt lat="48.20987" lon="6.67481">
        <ele>552.19995117188</ele>
        <time>2026-09-03T12:29:45.000Z</time>
      </trkpt>
      <trkpt lat="48.20988" lon="6.67483">
        <ele>552.19995117188</ele>
        <time>2026-09-03T12:29:46.000Z</time>
      </trkpt>
      <trkpt lat="48.20988" lon="6.67484">
        <ele>552.19995117188</ele>
        <time>2026-09-03T12:29:47.000Z</time>
      </trkpt>
      <trkpt lat="48.20989" lon="6.67486">
        <ele>552.19995117188</ele>
        <time>2026-09-03T12:29:48.000Z</time>
      </trkpt>
      <trkpt lat="48.20989" lon="6.67488">
        <ele>552.19995117188</ele>
        <time>2026-09-03T12:29:49.000Z</time>
      </trkpt>
      <trkpt lat="48.20989" lon="6.6749">
        <ele>552.19995117188</ele>
        <time>2026-09-03T12:29:50.000Z</time>
      </trkpt>
      <trkpt lat="48.2099" lon="6.67491">
        <ele>552.19995117188</ele>
        <time>2026-09-03T12:29:51.000Z</time>
      </trkpt>
      <trkpt lat="48.2099" lon="6.67492">
        <ele>552.19995117188</ele>
        <time>2026-09-03T12:29:52.000Z</time>
      </trkpt>
      <trkpt lat="48.20991" lon="6.67493">
        <ele>552</ele>
        <time>2026-09-03T12:29:53.000Z</time>
      </trkpt>
      <trkpt lat="48.20991" lon="6.67495">
        <ele>552</ele>
        <time>2026-09-03T12:29:54.000Z</time>
      </trkpt>
      <trkpt lat="48.20992" lon="6.67497">
        <ele>551.80004882812</ele>
        <time>2026-09-03T12:29:55.000Z</time>
      </trkpt>
      <trkpt lat="48.20993" lon="6.67499">
        <ele>551.80004882812</ele>
        <time>2026-09-03T12:29:56.000Z</time>
      </trkpt>
      <trkpt lat="48.20993" lon="6.67501">
        <ele>551.59997558594</ele>
        <time>2026-09-03T12:29:57.000Z</time>
      </trkpt>
      <trkpt lat="48.20993" lon="6.67503">
        <ele>551.59997558594</ele>
        <time>2026-09-03T12:29:58.000Z</time>
      </trkpt>
      <trkpt lat="48.20994" lon="6.67504">
        <ele>551.59997558594</ele>
        <time>2026-09-03T12:29:59.000Z</time>
      </trkpt>
      <trkpt lat="48.20994" lon="6.67506">
        <ele>551.59997558594</ele>
        <time>2026-09-03T12:30:00.000Z</time>
      </trkpt>
      <trkpt lat="48.20994" lon="6.67508">
        <ele>551.59997558594</ele>
        <time>2026-09-03T12:30:01.000Z</time>
      </trkpt>
      <trkpt lat="48.20995" lon="6.6751">
        <ele>551.59997558594</ele>
        <time>2026-09-03T12:30:02.000Z</time>
      </trkpt>
      <trkpt lat="48.20995" lon="6.67512">
        <ele>551.59997558594</ele>
        <time>2026-09-03T12:30:03.000Z</time>
      </trkpt>
      <trkpt lat="48.20995" lon="6.67513">
        <ele>551.40002441406</ele>
        <time>2026-09-03T12:30:04.000Z</time>
      </trkpt>
      <trkpt lat="48.20995" lon="6.67515">
        <ele>551.40002441406</ele>
        <time>2026-09-03T12:30:05.000Z</time>
      </trkpt>
      <trkpt lat="48.20995" lon="6.67516">
        <ele>551.40002441406</ele>
        <time>2026-09-03T12:30:06.000Z</time>
      </trkpt>
      <trkpt lat="48.20996" lon="6.67518">
        <ele>551.40002441406</ele>
        <time>2026-09-03T12:30:07.000Z</time>
      </trkpt>
      <trkpt lat="48.20996" lon="6.6752">
        <ele>551.40002441406</ele>
        <time>2026-09-03T12:30:08.000Z</time>
      </trkpt>
      <trkpt lat="48.20996" lon="6.67522">
        <ele>551.40002441406</ele>
        <time>2026-09-03T12:30:09.000Z</time>
      </trkpt>
      <trkpt lat="48.20996" lon="6.67524">
        <ele>551.40002441406</ele>
        <time>2026-09-03T12:30:10.000Z</time>
      </trkpt>
      <trkpt lat="48.20997" lon="6.67525">
        <ele>551.19995117188</ele>
        <time>2026-09-03T12:30:11.000Z</time>
      </trkpt>
      <trkpt lat="48.20997" lon="6.67526">
        <ele>551.19995117188</ele>
        <time>2026-09-03T12:30:12.000Z</time>
      </trkpt>
      <trkpt lat="48.20998" lon="6.67527">
        <ele>551.19995117188</ele>
        <time>2026-09-03T12:30:13.000Z</time>
      </trkpt>
      <trkpt lat="48.20998" lon="6.67528">
        <ele>551.40002441406</ele>
        <time>2026-09-03T12:30:14.000Z</time>
      </trkpt>
      <trkpt lat="48.20998" lon="6.6753">
        <ele>551.40002441406</ele>
        <time>2026-09-03T12:30:15.000Z</time>
      </trkpt>
      <trkpt lat="48.20998" lon="6.67532">
        <ele>551.40002441406</ele>
        <time>2026-09-03T12:30:16.000Z</time>
      </trkpt>
      <trkpt lat="48.20999" lon="6.67533">
        <ele>551.19995117188</ele>
        <time>2026-09-03T12:30:17.000Z</time>
      </trkpt>
      <trkpt lat="48.21" lon="6.67535">
        <ele>551.19995117188</ele>
        <time>2026-09-03T12:30:18.000Z</time>
      </trkpt>
      <trkpt lat="48.21" lon="6.67536">
        <ele>551</ele>
        <time>2026-09-03T12:30:19.000Z</time>
      </trkpt>
      <trkpt lat="48.21" lon="6.67537">
        <ele>551</ele>
        <time>2026-09-03T12:30:20.000Z</time>
      </trkpt>
      <trkpt lat="48.21" lon="6.67538">
        <ele>551</ele>
        <time>2026-09-03T12:30:21.000Z</time>
      </trkpt>
      <trkpt lat="48.21" lon="6.6754">
        <ele>551</ele>
        <time>2026-09-03T12:30:22.000Z</time>
      </trkpt>
      <trkpt lat="48.21" lon="6.67541">
        <ele>551</ele>
        <time>2026-09-03T12:30:23.000Z</time>
      </trkpt>
      <trkpt lat="48.21001" lon="6.67544">
        <ele>551</ele>
        <time>2026-09-03T12:30:24.000Z</time>
      </trkpt>
      <trkpt lat="48.21001" lon="6.67544">
        <ele>551</ele>
        <time>2026-09-03T12:30:25.000Z</time>
      </trkpt>
      <trkpt lat="48.21001" lon="6.67546">
        <ele>551</ele>
        <time>2026-09-03T12:30:26.000Z</time>
      </trkpt>
      <trkpt lat="48.21001" lon="6.67548">
        <ele>550.80004882812</ele>
        <time>2026-09-03T12:30:27.000Z</time>
      </trkpt>
      <trkpt lat="48.21001" lon="6.6755">
        <ele>550.40002441406</ele>
        <time>2026-09-03T12:30:28.000Z</time>
      </trkpt>
      <trkpt lat="48.21001" lon="6.67551">
        <ele>550.19995117188</ele>
        <time>2026-09-03T12:30:29.000Z</time>
      </trkpt>
      <trkpt lat="48.21001" lon="6.67553">
        <ele>550</ele>
        <time>2026-09-03T12:30:30.000Z</time>
      </trkpt>
      <trkpt lat="48.21001" lon="6.67555">
        <ele>549.80004882812</ele>
        <time>2026-09-03T12:30:31.000Z</time>
      </trkpt>
      <trkpt lat="48.21001" lon="6.67556">
        <ele>549.59997558594</ele>
        <time>2026-09-03T12:30:32.000Z</time>
      </trkpt>
      <trkpt lat="48.21002" lon="6.67558">
        <ele>549.80004882812</ele>
        <time>2026-09-03T12:30:33.000Z</time>
      </trkpt>
      <trkpt lat="48.21002" lon="6.67559">
        <ele>550.19995117188</ele>
        <time>2026-09-03T12:30:34.000Z</time>
      </trkpt>
      <trkpt lat="48.21003" lon="6.67561">
        <ele>550.59997558594</ele>
        <time>2026-09-03T12:30:35.000Z</time>
      </trkpt>
      <trkpt lat="48.21004" lon="6.67562">
        <ele>551</ele>
        <time>2026-09-03T12:30:36.000Z</time>
      </trkpt>
      <trkpt lat="48.21004" lon="6.67564">
        <ele>551</ele>
        <time>2026-09-03T12:30:37.000Z</time>
      </trkpt>
      <trkpt lat="48.21004" lon="6.67565">
        <ele>550.80004882812</ele>
        <time>2026-09-03T12:30:38.000Z</time>
      </trkpt>
      <trkpt lat="48.21004" lon="6.67566">
        <ele>550.80004882812</ele>
        <time>2026-09-03T12:30:39.000Z</time>
      </trkpt>
      <trkpt lat="48.21005" lon="6.67568">
        <ele>550.80004882812</ele>
        <time>2026-09-03T12:30:40.000Z</time>
      </trkpt>
      <trkpt lat="48.21005" lon="6.6757">
        <ele>550.80004882812</ele>
        <time>2026-09-03T12:30:41.000Z</time>
      </trkpt>
      <trkpt lat="48.21006" lon="6.67571">
        <ele>550.80004882812</ele>
        <time>2026-09-03T12:30:42.000Z</time>
      </trkpt>
      <trkpt lat="48.21007" lon="6.67573">
        <ele>550.80004882812</ele>
        <time>2026-09-03T12:30:43.000Z</time>
      </trkpt>
      <trkpt lat="48.21007" lon="6.67574">
        <ele>550.80004882812</ele>
        <time>2026-09-03T12:30:44.000Z</time>
      </trkpt>
      <trkpt lat="48.21007" lon="6.67576">
        <ele>550.80004882812</ele>
        <time>2026-09-03T12:30:45.000Z</time>
      </trkpt>
      <trkpt lat="48.21008" lon="6.67577">
        <ele>550.80004882812</ele>
        <time>2026-09-03T12:30:46.000Z</time>
      </trkpt>
      <trkpt lat="48.21008" lon="6.67579">
        <ele>550.80004882812</ele>
        <time>2026-09-03T12:30:47.000Z</time>
      </trkpt>
      <trkpt lat="48.21009" lon="6.6758">
        <ele>550.80004882812</ele>
        <time>2026-09-03T12:30:48.000Z</time>
      </trkpt>
      <trkpt lat="48.21009" lon="6.67581">
        <ele>550.80004882812</ele>
        <time>2026-09-03T12:30:49.000Z</time>
      </trkpt>
      <trkpt lat="48.2101" lon="6.67583">
        <ele>550.80004882812</ele>
        <time>2026-09-03T12:30:50.000Z</time>
      </trkpt>
      <trkpt lat="48.21011" lon="6.67584">
        <ele>550.80004882812</ele>
        <time>2026-09-03T12:30:51.000Z</time>
      </trkpt>
      <trkpt lat="48.21011" lon="6.67586">
        <ele>550.80004882812</ele>
        <time>2026-09-03T12:30:52.000Z</time>
      </trkpt>
      <trkpt lat="48.21011" lon="6.67587">
        <ele>550.80004882812</ele>
        <time>2026-09-03T12:30:53.000Z</time>
      </trkpt>
      <trkpt lat="48.21012" lon="6.67589">
        <ele>550.80004882812</ele>
        <time>2026-09-03T12:30:54.000Z</time>
      </trkpt>
      <trkpt lat="48.21013" lon="6.67591">
        <ele>550.80004882812</ele>
        <time>2026-09-03T12:30:55.000Z</time>
      </trkpt>
      <trkpt lat="48.21014" lon="6.67593">
        <ele>550.80004882812</ele>
        <time>2026-09-03T12:30:56.000Z</time>
      </trkpt>
      <trkpt lat="48.21015" lon="6.67595">
        <ele>550.80004882812</ele>
        <time>2026-09-03T12:30:57.000Z</time>
      </trkpt>
      <trkpt lat="48.21015" lon="6.67596">
        <ele>550.80004882812</ele>
        <time>2026-09-03T12:30:58.000Z</time>
      </trkpt>
      <trkpt lat="48.21016" lon="6.67598">
        <ele>550.80004882812</ele>
        <time>2026-09-03T12:30:59.000Z</time>
      </trkpt>
      <trkpt lat="48.21016" lon="6.676">
        <ele>550.80004882812</ele>
        <time>2026-09-03T12:31:00.000Z</time>
      </trkpt>
      <trkpt lat="48.21016" lon="6.67602">
        <ele>551</ele>
        <time>2026-09-03T12:31:01.000Z</time>
      </trkpt>
      <trkpt lat="48.21016" lon="6.67603">
        <ele>551</ele>
        <time>2026-09-03T12:31:02.000Z</time>
      </trkpt>
      <trkpt lat="48.21017" lon="6.67605">
        <ele>551</ele>
        <time>2026-09-03T12:31:03.000Z</time>
      </trkpt>
      <trkpt lat="48.21017" lon="6.67606">
        <ele>551</ele>
        <time>2026-09-03T12:31:04.000Z</time>
      </trkpt>
      <trkpt lat="48.21018" lon="6.67607">
        <ele>551</ele>
        <time>2026-09-03T12:31:05.000Z</time>
      </trkpt>
      <trkpt lat="48.21019" lon="6.67608">
        <ele>551</ele>
        <time>2026-09-03T12:31:06.000Z</time>
      </trkpt>
      <trkpt lat="48.21019" lon="6.67609">
        <ele>551</ele>
        <time>2026-09-03T12:31:07.000Z</time>
      </trkpt>
      <trkpt lat="48.21019" lon="6.6761">
        <ele>551.19995117188</ele>
        <time>2026-09-03T12:31:08.000Z</time>
      </trkpt>
      <trkpt lat="48.21019" lon="6.67612">
        <ele>551.19995117188</ele>
        <time>2026-09-03T12:31:09.000Z</time>
      </trkpt>
      <trkpt lat="48.2102" lon="6.67613">
        <ele>551.19995117188</ele>
        <time>2026-09-03T12:31:10.000Z</time>
      </trkpt>
      <trkpt lat="48.2102" lon="6.67614">
        <ele>551.40002441406</ele>
        <time>2026-09-03T12:31:11.000Z</time>
      </trkpt>
      <trkpt lat="48.2102" lon="6.67616">
        <ele>551.40002441406</ele>
        <time>2026-09-03T12:31:12.000Z</time>
      </trkpt>
      <trkpt lat="48.2102" lon="6.67618">
        <ele>551.40002441406</ele>
        <time>2026-09-03T12:31:13.000Z</time>
      </trkpt>
      <trkpt lat="48.21021" lon="6.6762">
        <ele>551.40002441406</ele>
        <time>2026-09-03T12:31:14.000Z</time>
      </trkpt>
      <trkpt lat="48.21021" lon="6.67621">
        <ele>551.40002441406</ele>
        <time>2026-09-03T12:31:15.000Z</time>
      </trkpt>
      <trkpt lat="48.21021" lon="6.67623">
        <ele>551.19995117188</ele>
        <time>2026-09-03T12:31:16.000Z</time>
      </trkpt>
      <trkpt lat="48.21022" lon="6.67625">
        <ele>551.40002441406</ele>
        <time>2026-09-03T12:31:17.000Z</time>
      </trkpt>
      <trkpt lat="48.21022" lon="6.67627">
        <ele>551.40002441406</ele>
        <time>2026-09-03T12:31:18.000Z</time>
      </trkpt>
      <trkpt lat="48.21022" lon="6.67629">
        <ele>551.59997558594</ele>
        <time>2026-09-03T12:31:19.000Z</time>
      </trkpt>
      <trkpt lat="48.21023" lon="6.6763">
        <ele>551.80004882812</ele>
        <time>2026-09-03T12:31:20.000Z</time>
      </trkpt>
      <trkpt lat="48.21023" lon="6.67631">
        <ele>552</ele>
        <time>2026-09-03T12:31:21.000Z</time>
      </trkpt>
      <trkpt lat="48.21024" lon="6.67633">
        <ele>552</ele>
        <time>2026-09-03T12:31:22.000Z</time>
      </trkpt>
      <trkpt lat="48.21024" lon="6.67635">
        <ele>552</ele>
        <time>2026-09-03T12:31:23.000Z</time>
      </trkpt>
      <trkpt lat="48.21025" lon="6.67636">
        <ele>552</ele>
        <time>2026-09-03T12:31:24.000Z</time>
      </trkpt>
      <trkpt lat="48.21025" lon="6.67637">
        <ele>552</ele>
        <time>2026-09-03T12:31:25.000Z</time>
      </trkpt>
      <trkpt lat="48.21026" lon="6.67639">
        <ele>552.19995117188</ele>
        <time>2026-09-03T12:31:26.000Z</time>
      </trkpt>
      <trkpt lat="48.21026" lon="6.6764">
        <ele>552.19995117188</ele>
        <time>2026-09-03T12:31:27.000Z</time>
      </trkpt>
      <trkpt lat="48.21026" lon="6.67642">
        <ele>552.19995117188</ele>
        <time>2026-09-03T12:31:28.000Z</time>
      </trkpt>
      <trkpt lat="48.21026" lon="6.67644">
        <ele>552.40002441406</ele>
        <time>2026-09-03T12:31:29.000Z</time>
      </trkpt>
      <trkpt lat="48.21027" lon="6.67645">
        <ele>552.19995117188</ele>
        <time>2026-09-03T12:31:30.000Z</time>
      </trkpt>
      <trkpt lat="48.21027" lon="6.67647">
        <ele>552</ele>
        <time>2026-09-03T12:31:31.000Z</time>
      </trkpt>
      <trkpt lat="48.21028" lon="6.67649">
        <ele>552</ele>
        <time>2026-09-03T12:31:32.000Z</time>
      </trkpt>
      <trkpt lat="48.21028" lon="6.6765">
        <ele>552</ele>
        <time>2026-09-03T12:31:33.000Z</time>
      </trkpt>
      <trkpt lat="48.21028" lon="6.67651">
        <ele>552</ele>
        <time>2026-09-03T12:31:34.000Z</time>
      </trkpt>
      <trkpt lat="48.21028" lon="6.67653">
        <ele>552.40002441406</ele>
        <time>2026-09-03T12:31:35.000Z</time>
      </trkpt>
      <trkpt lat="48.21029" lon="6.67655">
        <ele>552.59997558594</ele>
        <time>2026-09-03T12:31:36.000Z</time>
      </trkpt>
      <trkpt lat="48.21029" lon="6.67656">
        <ele>552.80004882812</ele>
        <time>2026-09-03T12:31:37.000Z</time>
      </trkpt>
      <trkpt lat="48.21029" lon="6.67657">
        <ele>553</ele>
        <time>2026-09-03T12:31:38.000Z</time>
      </trkpt>
      <trkpt lat="48.2103" lon="6.67659">
        <ele>553</ele>
        <time>2026-09-03T12:31:39.000Z</time>
      </trkpt>
      <trkpt lat="48.2103" lon="6.6766">
        <ele>553</ele>
        <time>2026-09-03T12:31:40.000Z</time>
      </trkpt>
      <trkpt lat="48.2103" lon="6.67661">
        <ele>553</ele>
        <time>2026-09-03T12:31:41.000Z</time>
      </trkpt>
      <trkpt lat="48.2103" lon="6.67663">
        <ele>553</ele>
        <time>2026-09-03T12:31:42.000Z</time>
      </trkpt>
      <trkpt lat="48.21031" lon="6.67664">
        <ele>553.19995117188</ele>
        <time>2026-09-03T12:31:43.000Z</time>
      </trkpt>
      <trkpt lat="48.21031" lon="6.67665">
        <ele>553.19995117188</ele>
        <time>2026-09-03T12:31:44.000Z</time>
      </trkpt>
      <trkpt lat="48.21031" lon="6.67667">
        <ele>553.40002441406</ele>
        <time>2026-09-03T12:31:45.000Z</time>
      </trkpt>
      <trkpt lat="48.21032" lon="6.67669">
        <ele>553.59997558594</ele>
        <time>2026-09-03T12:31:46.000Z</time>
      </trkpt>
      <trkpt lat="48.21031" lon="6.6767">
        <ele>553.80004882812</ele>
        <time>2026-09-03T12:31:47.000Z</time>
      </trkpt>
      <trkpt lat="48.21032" lon="6.67672">
        <ele>553.80004882812</ele>
        <time>2026-09-03T12:31:48.000Z</time>
      </trkpt>
      <trkpt lat="48.21033" lon="6.67673">
        <ele>554</ele>
        <time>2026-09-03T12:31:49.000Z</time>
      </trkpt>
      <trkpt lat="48.21033" lon="6.67676">
        <ele>554</ele>
        <time>2026-09-03T12:31:50.000Z</time>
      </trkpt>
      <trkpt lat="48.21034" lon="6.67677">
        <ele>554</ele>
        <time>2026-09-03T12:31:51.000Z</time>
      </trkpt>
      <trkpt lat="48.21033" lon="6.67679">
        <ele>554</ele>
        <time>2026-09-03T12:31:52.000Z</time>
      </trkpt>
      <trkpt lat="48.21034" lon="6.6768">
        <ele>554</ele>
        <time>2026-09-03T12:31:53.000Z</time>
      </trkpt>
      <trkpt lat="48.21035" lon="6.67681">
        <ele>554.19995117188</ele>
        <time>2026-09-03T12:31:54.000Z</time>
      </trkpt>
      <trkpt lat="48.21034" lon="6.67682">
        <ele>554.19995117188</ele>
        <time>2026-09-03T12:31:55.000Z</time>
      </trkpt>
      <trkpt lat="48.21035" lon="6.67684">
        <ele>554.19995117188</ele>
        <time>2026-09-03T12:31:56.000Z</time>
      </trkpt>
      <trkpt lat="48.21035" lon="6.67685">
        <ele>554.19995117188</ele>
        <time>2026-09-03T12:31:57.000Z</time>
      </trkpt>
      <trkpt lat="48.21036" lon="6.67686">
        <ele>554.19995117188</ele>
        <time>2026-09-03T12:31:58.000Z</time>
      </trkpt>
      <trkpt lat="48.21036" lon="6.67688">
        <ele>554.40002441406</ele>
        <time>2026-09-03T12:31:59.000Z</time>
      </trkpt>
      <trkpt lat="48.21037" lon="6.67689">
        <ele>554.59997558594</ele>
        <time>2026-09-03T12:32:00.000Z</time>
      </trkpt>
      <trkpt lat="48.21037" lon="6.6769">
        <ele>555</ele>
        <time>2026-09-03T12:32:01.000Z</time>
      </trkpt>
      <trkpt lat="48.21038" lon="6.67692">
        <ele>555.19995117188</ele>
        <time>2026-09-03T12:32:02.000Z</time>
      </trkpt>
      <trkpt lat="48.21038" lon="6.67693">
        <ele>555.19995117188</ele>
        <time>2026-09-03T12:32:03.000Z</time>
      </trkpt>
      <trkpt lat="48.21039" lon="6.67694">
        <ele>555.40002441406</ele>
        <time>2026-09-03T12:32:04.000Z</time>
      </trkpt>
      <trkpt lat="48.21039" lon="6.67695">
        <ele>555.40002441406</ele>
        <time>2026-09-03T12:32:05.000Z</time>
      </trkpt>
      <trkpt lat="48.2104" lon="6.67696">
        <ele>555.59997558594</ele>
        <time>2026-09-03T12:32:06.000Z</time>
      </trkpt>
      <trkpt lat="48.2104" lon="6.67697">
        <ele>555.59997558594</ele>
        <time>2026-09-03T12:32:07.000Z</time>
      </trkpt>
      <trkpt lat="48.21041" lon="6.67698">
        <ele>555.59997558594</ele>
        <time>2026-09-03T12:32:08.000Z</time>
      </trkpt>
      <trkpt lat="48.21042" lon="6.677">
        <ele>555.80004882812</ele>
        <time>2026-09-03T12:32:09.000Z</time>
      </trkpt>
      <trkpt lat="48.21042" lon="6.67701">
        <ele>555.80004882812</ele>
        <time>2026-09-03T12:32:10.000Z</time>
      </trkpt>
      <trkpt lat="48.21043" lon="6.67702">
        <ele>556</ele>
        <time>2026-09-03T12:32:11.000Z</time>
      </trkpt>
      <trkpt lat="48.21043" lon="6.67704">
        <ele>556.19995117188</ele>
        <time>2026-09-03T12:32:12.000Z</time>
      </trkpt>
      <trkpt lat="48.21043" lon="6.67705">
        <ele>556.19995117188</ele>
        <time>2026-09-03T12:32:13.000Z</time>
      </trkpt>
      <trkpt lat="48.21044" lon="6.67706">
        <ele>556.40002441406</ele>
        <time>2026-09-03T12:32:14.000Z</time>
      </trkpt>
      <trkpt lat="48.21045" lon="6.67707">
        <ele>556.40002441406</ele>
        <time>2026-09-03T12:32:15.000Z</time>
      </trkpt>
      <trkpt lat="48.21045" lon="6.67708">
        <ele>556.40002441406</ele>
        <time>2026-09-03T12:32:16.000Z</time>
      </trkpt>
      <trkpt lat="48.21046" lon="6.67709">
        <ele>556.59997558594</ele>
        <time>2026-09-03T12:32:17.000Z</time>
      </trkpt>
      <trkpt lat="48.21047" lon="6.6771">
        <ele>556.59997558594</ele>
        <time>2026-09-03T12:32:18.000Z</time>
      </trkpt>
      <trkpt lat="48.21048" lon="6.67711">
        <ele>556.59997558594</ele>
        <time>2026-09-03T12:32:19.000Z</time>
      </trkpt>
      <trkpt lat="48.21048" lon="6.67712">
        <ele>556.80004882812</ele>
        <time>2026-09-03T12:32:20.000Z</time>
      </trkpt>
      <trkpt lat="48.21048" lon="6.67713">
        <ele>556.80004882812</ele>
        <time>2026-09-03T12:32:21.000Z</time>
      </trkpt>
      <trkpt lat="48.2105" lon="6.67715">
        <ele>557</ele>
        <time>2026-09-03T12:32:22.000Z</time>
      </trkpt>
      <trkpt lat="48.2105" lon="6.67716">
        <ele>557.19995117188</ele>
        <time>2026-09-03T12:32:23.000Z</time>
      </trkpt>
      <trkpt lat="48.21051" lon="6.67717">
        <ele>557.40002441406</ele>
        <time>2026-09-03T12:32:24.000Z</time>
      </trkpt>
      <trkpt lat="48.21052" lon="6.67719">
        <ele>557.59997558594</ele>
        <time>2026-09-03T12:32:25.000Z</time>
      </trkpt>
      <trkpt lat="48.21053" lon="6.6772">
        <ele>557.59997558594</ele>
        <time>2026-09-03T12:32:26.000Z</time>
      </trkpt>
      <trkpt lat="48.21053" lon="6.67722">
        <ele>557.80004882812</ele>
        <time>2026-09-03T12:32:27.000Z</time>
      </trkpt>
      <trkpt lat="48.21053" lon="6.67723">
        <ele>557.80004882812</ele>
        <time>2026-09-03T12:32:28.000Z</time>
      </trkpt>
      <trkpt lat="48.21054" lon="6.67724">
        <ele>558</ele>
        <time>2026-09-03T12:32:29.000Z</time>
      </trkpt>
      <trkpt lat="48.21055" lon="6.67725">
        <ele>558</ele>
        <time>2026-09-03T12:32:30.000Z</time>
      </trkpt>
      <trkpt lat="48.21055" lon="6.67727">
        <ele>558</ele>
        <time>2026-09-03T12:32:31.000Z</time>
      </trkpt>
      <trkpt lat="48.21055" lon="6.67728">
        <ele>558.19995117188</ele>
        <time>2026-09-03T12:32:32.000Z</time>
      </trkpt>
      <trkpt lat="48.21055" lon="6.6773">
        <ele>558.19995117188</ele>
        <time>2026-09-03T12:32:33.000Z</time>
      </trkpt>
      <trkpt lat="48.21056" lon="6.67732">
        <ele>558.19995117188</ele>
        <time>2026-09-03T12:32:34.000Z</time>
      </trkpt>
      <trkpt lat="48.21056" lon="6.67734">
        <ele>558.19995117188</ele>
        <time>2026-09-03T12:32:35.000Z</time>
      </trkpt>
      <trkpt lat="48.21057" lon="6.67736">
        <ele>558.40002441406</ele>
        <time>2026-09-03T12:32:36.000Z</time>
      </trkpt>
      <trkpt lat="48.21057" lon="6.67737">
        <ele>558.40002441406</ele>
        <time>2026-09-03T12:32:37.000Z</time>
      </trkpt>
      <trkpt lat="48.21057" lon="6.67738">
        <ele>558.40002441406</ele>
        <time>2026-09-03T12:32:38.000Z</time>
      </trkpt>
      <trkpt lat="48.21057" lon="6.67741">
        <ele>558.59997558594</ele>
        <time>2026-09-03T12:32:39.000Z</time>
      </trkpt>
      <trkpt lat="48.21058" lon="6.67743">
        <ele>558.59997558594</ele>
        <time>2026-09-03T12:32:40.000Z</time>
      </trkpt>
      <trkpt lat="48.21058" lon="6.67744">
        <ele>558.59997558594</ele>
        <time>2026-09-03T12:32:41.000Z</time>
      </trkpt>
      <trkpt lat="48.21058" lon="6.67745">
        <ele>558.80004882812</ele>
        <time>2026-09-03T12:32:42.000Z</time>
      </trkpt>
      <trkpt lat="48.21058" lon="6.67746">
        <ele>558.80004882812</ele>
        <time>2026-09-03T12:32:43.000Z</time>
      </trkpt>
      <trkpt lat="48.21059" lon="6.67748">
        <ele>559</ele>
        <time>2026-09-03T12:32:44.000Z</time>
      </trkpt>
      <trkpt lat="48.21059" lon="6.6775">
        <ele>559</ele>
        <time>2026-09-03T12:32:45.000Z</time>
      </trkpt>
      <trkpt lat="48.21059" lon="6.67752">
        <ele>559.19995117188</ele>
        <time>2026-09-03T12:32:46.000Z</time>
      </trkpt>
      <trkpt lat="48.21059" lon="6.67753">
        <ele>559.19995117188</ele>
        <time>2026-09-03T12:32:47.000Z</time>
      </trkpt>
      <trkpt lat="48.21059" lon="6.67754">
        <ele>559.19995117188</ele>
        <time>2026-09-03T12:32:48.000Z</time>
      </trkpt>
      <trkpt lat="48.21059" lon="6.67757">
        <ele>559.19995117188</ele>
        <time>2026-09-03T12:32:49.000Z</time>
      </trkpt>
      <trkpt lat="48.21059" lon="6.67759">
        <ele>559.19995117188</ele>
        <time>2026-09-03T12:32:50.000Z</time>
      </trkpt>
      <trkpt lat="48.21059" lon="6.6776">
        <ele>559.19995117188</ele>
        <time>2026-09-03T12:32:51.000Z</time>
      </trkpt>
      <trkpt lat="48.21058" lon="6.6776">
        <ele>559.19995117188</ele>
        <time>2026-09-03T12:32:52.000Z</time>
      </trkpt>
      <trkpt lat="48.21058" lon="6.6776">
        <ele>559.40002441406</ele>
        <time>2026-09-03T12:32:53.000Z</time>
      </trkpt>
      <trkpt lat="48.21058" lon="6.67759">
        <ele>559.40002441406</ele>
        <time>2026-09-03T12:32:54.000Z</time>
      </trkpt>
      <trkpt lat="48.21057" lon="6.67758">
        <ele>559.40002441406</ele>
        <time>2026-09-03T12:32:55.000Z</time>
      </trkpt>
      <trkpt lat="48.21056" lon="6.67757">
        <ele>559.40002441406</ele>
        <time>2026-09-03T12:32:56.000Z</time>
      </trkpt>
      <trkpt lat="48.21056" lon="6.67757">
        <ele>559.40002441406</ele>
        <time>2026-09-03T12:32:57.000Z</time>
      </trkpt>
      <trkpt lat="48.21056" lon="6.67757">
        <ele>559.40002441406</ele>
        <time>2026-09-03T12:32:58.000Z</time>
      </trkpt>
      <trkpt lat="48.21055" lon="6.67757">
        <ele>559.40002441406</ele>
        <time>2026-09-03T12:32:59.000Z</time>
      </trkpt>
      <trkpt lat="48.21055" lon="6.67757">
        <ele>559.40002441406</ele>
        <time>2026-09-03T12:33:00.000Z</time>
      </trkpt>
      <trkpt lat="48.21055" lon="6.67757">
        <ele>559.40002441406</ele>
        <time>2026-09-03T12:33:01.000Z</time>
      </trkpt>
      <trkpt lat="48.21055" lon="6.67757">
        <ele>559.40002441406</ele>
        <time>2026-09-03T12:33:02.000Z</time>
      </trkpt>
      <trkpt lat="48.21055" lon="6.67758">
        <ele>559.19995117188</ele>
        <time>2026-09-03T12:33:03.000Z</time>
      </trkpt>
      <trkpt lat="48.21055" lon="6.67759">
        <ele>559.19995117188</ele>
        <time>2026-09-03T12:33:04.000Z</time>
      </trkpt>
      <trkpt lat="48.21054" lon="6.6776">
        <ele>559.19995117188</ele>
        <time>2026-09-03T12:33:05.000Z</time>
      </trkpt>
      <trkpt lat="48.21054" lon="6.6776">
        <ele>559</ele>
        <time>2026-09-03T12:33:06.000Z</time>
      </trkpt>
      <trkpt lat="48.21054" lon="6.6776">
        <ele>558.80004882812</ele>
        <time>2026-09-03T12:33:07.000Z</time>
      </trkpt>
      <trkpt lat="48.21054" lon="6.67761">
        <ele>558.80004882812</ele>
        <time>2026-09-03T12:33:08.000Z</time>
      </trkpt>
      <trkpt lat="48.21054" lon="6.67761">
        <ele>558.59997558594</ele>
        <time>2026-09-03T12:33:09.000Z</time>
      </trkpt>
      <trkpt lat="48.21054" lon="6.67762">
        <ele>558.59997558594</ele>
        <time>2026-09-03T12:33:10.000Z</time>
      </trkpt>
      <trkpt lat="48.21054" lon="6.67762">
        <ele>558.40002441406</ele>
        <time>2026-09-03T12:33:11.000Z</time>
      </trkpt>
      <trkpt lat="48.21054" lon="6.67762">
        <ele>558.40002441406</ele>
        <time>2026-09-03T12:33:12.000Z</time>
      </trkpt>
      <trkpt lat="48.21054" lon="6.67762">
        <ele>558.40002441406</ele>
        <time>2026-09-03T12:33:13.000Z</time>
      </trkpt>
      <trkpt lat="48.21054" lon="6.67762">
        <ele>558.40002441406</ele>
        <time>2026-09-03T12:33:14.000Z</time>
      </trkpt>
      <trkpt lat="48.21054" lon="6.67762">
        <ele>558.40002441406</ele>
        <time>2026-09-03T12:33:15.000Z</time>
      </trkpt>
      <trkpt lat="48.21054" lon="6.67762">
        <ele>558.40002441406</ele>
        <time>2026-09-03T12:33:16.000Z</time>
      </trkpt>
      <trkpt lat="48.21054" lon="6.67762">
        <ele>558.59997558594</ele>
        <time>2026-09-03T12:33:17.000Z</time>
      </trkpt>
      <trkpt lat="48.21054" lon="6.67762">
        <ele>558.59997558594</ele>
        <time>2026-09-03T12:33:18.000Z</time>
      </trkpt>
      <trkpt lat="48.21054" lon="6.67762">
        <ele>558.59997558594</ele>
        <time>2026-09-03T12:33:19.000Z</time>
      </trkpt>
      <trkpt lat="48.21054" lon="6.67762">
        <ele>558.59997558594</ele>
        <time>2026-09-03T12:33:20.000Z</time>
      </trkpt>
      <trkpt lat="48.21054" lon="6.67762">
        <ele>558.40002441406</ele>
        <time>2026-09-03T12:33:21.000Z</time>
      </trkpt>
      <trkpt lat="48.21054" lon="6.67762">
        <ele>558.40002441406</ele>
        <time>2026-09-03T12:33:22.000Z</time>
      </trkpt>
      <trkpt lat="48.21054" lon="6.67762">
        <ele>558.40002441406</ele>
        <time>2026-09-03T12:33:23.000Z</time>
      </trkpt>
      <trkpt lat="48.21054" lon="6.67762">
        <ele>558.59997558594</ele>
        <time>2026-09-03T12:33:24.000Z</time>
      </trkpt>
      <trkpt lat="48.21054" lon="6.67762">
        <ele>558.80004882812</ele>
        <time>2026-09-03T12:33:25.000Z</time>
      </trkpt>
      <trkpt lat="48.21054" lon="6.67762">
        <ele>559</ele>
        <time>2026-09-03T12:33:26.000Z</time>
      </trkpt>
      <trkpt lat="48.21054" lon="6.67762">
        <ele>559.19995117188</ele>
        <time>2026-09-03T12:33:27.000Z</time>
      </trkpt>
      <trkpt lat="48.21054" lon="6.67762">
        <ele>559.40002441406</ele>
        <time>2026-09-03T12:33:28.000Z</time>
      </trkpt>
      <trkpt lat="48.21054" lon="6.67762">
        <ele>559.40002441406</ele>
        <time>2026-09-03T12:33:29.000Z</time>
      </trkpt>
      <trkpt lat="48.21054" lon="6.67762">
        <ele>559.19995117188</ele>
        <time>2026-09-03T12:33:30.000Z</time>
      </trkpt>
      <trkpt lat="48.21054" lon="6.67762">
        <ele>559.19995117188</ele>
        <time>2026-09-03T12:33:31.000Z</time>
      </trkpt>
      <trkpt lat="48.21054" lon="6.67762">
        <ele>559.19995117188</ele>
        <time>2026-09-03T12:33:32.000Z</time>
      </trkpt>
      <trkpt lat="48.21054" lon="6.67762">
        <ele>559.19995117188</ele>
        <time>2026-09-03T12:33:33.000Z</time>
      </trkpt>
      <trkpt lat="48.21054" lon="6.67762">
        <ele>559.40002441406</ele>
        <time>2026-09-03T12:33:34.000Z</time>
      </trkpt>
      <trkpt lat="48.21055" lon="6.67761">
        <ele>559.40002441406</ele>
        <time>2026-09-03T12:33:35.000Z</time>
      </trkpt>
      <trkpt lat="48.21055" lon="6.67761">
        <ele>559.19995117188</ele>
        <time>2026-09-03T12:33:36.000Z</time>
      </trkpt>
      <trkpt lat="48.21055" lon="6.67761">
        <ele>559.19995117188</ele>
        <time>2026-09-03T12:33:37.000Z</time>
      </trkpt>
      <trkpt lat="48.21055" lon="6.67761">
        <ele>559.19995117188</ele>
        <time>2026-09-03T12:33:38.000Z</time>
      </trkpt>
      <trkpt lat="48.21055" lon="6.67761">
        <ele>559.19995117188</ele>
        <time>2026-09-03T12:33:39.000Z</time>
      </trkpt>
      <trkpt lat="48.21055" lon="6.67761">
        <ele>559.19995117188</ele>
        <time>2026-09-03T12:33:40.000Z</time>
      </trkpt>
      <trkpt lat="48.21056" lon="6.67761">
        <ele>559.19995117188</ele>
        <time>2026-09-03T12:33:41.000Z</time>
      </trkpt>
      <trkpt lat="48.21056" lon="6.67761">
        <ele>559.19995117188</ele>
        <time>2026-09-03T12:33:42.000Z</time>
      </trkpt>
      <trkpt lat="48.21056" lon="6.67762">
        <ele>559.19995117188</ele>
        <time>2026-09-03T12:33:43.000Z</time>
      </trkpt>
      <trkpt lat="48.21056" lon="6.67762">
        <ele>559.19995117188</ele>
        <time>2026-09-03T12:33:44.000Z</time>
      </trkpt>
      <trkpt lat="48.21057" lon="6.67763">
        <ele>559.19995117188</ele>
        <time>2026-09-03T12:33:45.000Z</time>
      </trkpt>
      <trkpt lat="48.21058" lon="6.67765">
        <ele>559.40002441406</ele>
        <time>2026-09-03T12:33:46.000Z</time>
      </trkpt>
      <trkpt lat="48.21059" lon="6.67766">
        <ele>559.40002441406</ele>
        <time>2026-09-03T12:33:47.000Z</time>
      </trkpt>
      <trkpt lat="48.21059" lon="6.67767">
        <ele>559.40002441406</ele>
        <time>2026-09-03T12:33:48.000Z</time>
      </trkpt>
      <trkpt lat="48.2106" lon="6.67769">
        <ele>559.59997558594</ele>
        <time>2026-09-03T12:33:49.000Z</time>
      </trkpt>
      <trkpt lat="48.2106" lon="6.6777">
        <ele>559.59997558594</ele>
        <time>2026-09-03T12:33:50.000Z</time>
      </trkpt>
      <trkpt lat="48.21061" lon="6.67772">
        <ele>559.59997558594</ele>
        <time>2026-09-03T12:33:51.000Z</time>
      </trkpt>
      <trkpt lat="48.21061" lon="6.67774">
        <ele>559.80004882812</ele>
        <time>2026-09-03T12:33:52.000Z</time>
      </trkpt>
      <trkpt lat="48.21062" lon="6.67775">
        <ele>559.80004882812</ele>
        <time>2026-09-03T12:33:53.000Z</time>
      </trkpt>
      <trkpt lat="48.21062" lon="6.67778">
        <ele>559.80004882812</ele>
        <time>2026-09-03T12:33:54.000Z</time>
      </trkpt>
      <trkpt lat="48.21062" lon="6.67779">
        <ele>559.80004882812</ele>
        <time>2026-09-03T12:33:55.000Z</time>
      </trkpt>
      <trkpt lat="48.21063" lon="6.67781">
        <ele>559.80004882812</ele>
        <time>2026-09-03T12:33:56.000Z</time>
      </trkpt>
      <trkpt lat="48.21063" lon="6.67782">
        <ele>560</ele>
        <time>2026-09-03T12:33:57.000Z</time>
      </trkpt>
      <trkpt lat="48.21063" lon="6.67784">
        <ele>560</ele>
        <time>2026-09-03T12:33:58.000Z</time>
      </trkpt>
      <trkpt lat="48.21064" lon="6.67785">
        <ele>560.19995117188</ele>
        <time>2026-09-03T12:33:59.000Z</time>
      </trkpt>
      <trkpt lat="48.21064" lon="6.67787">
        <ele>560.19995117188</ele>
        <time>2026-09-03T12:34:00.000Z</time>
      </trkpt>
      <trkpt lat="48.21065" lon="6.67788">
        <ele>560.19995117188</ele>
        <time>2026-09-03T12:34:01.000Z</time>
      </trkpt>
      <trkpt lat="48.21065" lon="6.67789">
        <ele>560.19995117188</ele>
        <time>2026-09-03T12:34:02.000Z</time>
      </trkpt>
      <trkpt lat="48.21066" lon="6.6779">
        <ele>560</ele>
        <time>2026-09-03T12:34:03.000Z</time>
      </trkpt>
      <trkpt lat="48.21066" lon="6.67792">
        <ele>560</ele>
        <time>2026-09-03T12:34:04.000Z</time>
      </trkpt>
      <trkpt lat="48.21067" lon="6.67794">
        <ele>560</ele>
        <time>2026-09-03T12:34:05.000Z</time>
      </trkpt>
      <trkpt lat="48.21067" lon="6.67795">
        <ele>560</ele>
        <time>2026-09-03T12:34:06.000Z</time>
      </trkpt>
      <trkpt lat="48.21067" lon="6.67797">
        <ele>560</ele>
        <time>2026-09-03T12:34:07.000Z</time>
      </trkpt>
      <trkpt lat="48.21067" lon="6.67798">
        <ele>560</ele>
        <time>2026-09-03T12:34:08.000Z</time>
      </trkpt>
      <trkpt lat="48.21067" lon="6.67799">
        <ele>560</ele>
        <time>2026-09-03T12:34:09.000Z</time>
      </trkpt>
      <trkpt lat="48.21068" lon="6.678">
        <ele>560</ele>
        <time>2026-09-03T12:34:10.000Z</time>
      </trkpt>
      <trkpt lat="48.21068" lon="6.67802">
        <ele>560</ele>
        <time>2026-09-03T12:34:11.000Z</time>
      </trkpt>
      <trkpt lat="48.21068" lon="6.67805">
        <ele>560</ele>
        <time>2026-09-03T12:34:12.000Z</time>
      </trkpt>
      <trkpt lat="48.21068" lon="6.67806">
        <ele>560</ele>
        <time>2026-09-03T12:34:13.000Z</time>
      </trkpt>
      <trkpt lat="48.21069" lon="6.67808">
        <ele>560</ele>
        <time>2026-09-03T12:34:14.000Z</time>
      </trkpt>
      <trkpt lat="48.21069" lon="6.67809">
        <ele>559.80004882812</ele>
        <time>2026-09-03T12:34:15.000Z</time>
      </trkpt>
      <trkpt lat="48.21069" lon="6.67811">
        <ele>559.80004882812</ele>
        <time>2026-09-03T12:34:16.000Z</time>
      </trkpt>
      <trkpt lat="48.2107" lon="6.67812">
        <ele>559.59997558594</ele>
        <time>2026-09-03T12:34:17.000Z</time>
      </trkpt>
      <trkpt lat="48.21071" lon="6.67814">
        <ele>559.59997558594</ele>
        <time>2026-09-03T12:34:18.000Z</time>
      </trkpt>
      <trkpt lat="48.21071" lon="6.67816">
        <ele>559.40002441406</ele>
        <time>2026-09-03T12:34:19.000Z</time>
      </trkpt>
      <trkpt lat="48.21072" lon="6.67818">
        <ele>559.40002441406</ele>
        <time>2026-09-03T12:34:20.000Z</time>
      </trkpt>
      <trkpt lat="48.21072" lon="6.67819">
        <ele>559.40002441406</ele>
        <time>2026-09-03T12:34:21.000Z</time>
      </trkpt>
      <trkpt lat="48.21072" lon="6.67821">
        <ele>559.40002441406</ele>
        <time>2026-09-03T12:34:22.000Z</time>
      </trkpt>
      <trkpt lat="48.21072" lon="6.67823">
        <ele>559.40002441406</ele>
        <time>2026-09-03T12:34:23.000Z</time>
      </trkpt>
      <trkpt lat="48.21072" lon="6.67824">
        <ele>559.40002441406</ele>
        <time>2026-09-03T12:34:24.000Z</time>
      </trkpt>
      <trkpt lat="48.21073" lon="6.67825">
        <ele>559.40002441406</ele>
        <time>2026-09-03T12:34:25.000Z</time>
      </trkpt>
      <trkpt lat="48.21074" lon="6.67827">
        <ele>559.59997558594</ele>
        <time>2026-09-03T12:34:26.000Z</time>
      </trkpt>
      <trkpt lat="48.21075" lon="6.67828">
        <ele>559.59997558594</ele>
        <time>2026-09-03T12:34:27.000Z</time>
      </trkpt>
      <trkpt lat="48.21075" lon="6.6783">
        <ele>559.59997558594</ele>
        <time>2026-09-03T12:34:28.000Z</time>
      </trkpt>
      <trkpt lat="48.21076" lon="6.67832">
        <ele>559.59997558594</ele>
        <time>2026-09-03T12:34:29.000Z</time>
      </trkpt>
      <trkpt lat="48.21076" lon="6.67834">
        <ele>559.59997558594</ele>
        <time>2026-09-03T12:34:30.000Z</time>
      </trkpt>
      <trkpt lat="48.21077" lon="6.67835">
        <ele>559.40002441406</ele>
        <time>2026-09-03T12:34:31.000Z</time>
      </trkpt>
      <trkpt lat="48.21077" lon="6.67836">
        <ele>559.40002441406</ele>
        <time>2026-09-03T12:34:32.000Z</time>
      </trkpt>
      <trkpt lat="48.21078" lon="6.67838">
        <ele>559.40002441406</ele>
        <time>2026-09-03T12:34:33.000Z</time>
      </trkpt>
      <trkpt lat="48.21078" lon="6.67839">
        <ele>559.40002441406</ele>
        <time>2026-09-03T12:34:34.000Z</time>
      </trkpt>
      <trkpt lat="48.21078" lon="6.67841">
        <ele>559.40002441406</ele>
        <time>2026-09-03T12:34:35.000Z</time>
      </trkpt>
      <trkpt lat="48.21079" lon="6.67842">
        <ele>559.40002441406</ele>
        <time>2026-09-03T12:34:36.000Z</time>
      </trkpt>
      <trkpt lat="48.2108" lon="6.67844">
        <ele>559.40002441406</ele>
        <time>2026-09-03T12:34:37.000Z</time>
      </trkpt>
      <trkpt lat="48.2108" lon="6.67846">
        <ele>559.40002441406</ele>
        <time>2026-09-03T12:34:38.000Z</time>
      </trkpt>
      <trkpt lat="48.21081" lon="6.67848">
        <ele>559.40002441406</ele>
        <time>2026-09-03T12:34:39.000Z</time>
      </trkpt>
      <trkpt lat="48.21081" lon="6.67849">
        <ele>559.40002441406</ele>
        <time>2026-09-03T12:34:40.000Z</time>
      </trkpt>
      <trkpt lat="48.21081" lon="6.6785">
        <ele>559.40002441406</ele>
        <time>2026-09-03T12:34:41.000Z</time>
      </trkpt>
      <trkpt lat="48.21082" lon="6.67853">
        <ele>559.40002441406</ele>
        <time>2026-09-03T12:34:42.000Z</time>
      </trkpt>
      <trkpt lat="48.21083" lon="6.67854">
        <ele>559.40002441406</ele>
        <time>2026-09-03T12:34:43.000Z</time>
      </trkpt>
      <trkpt lat="48.21083" lon="6.67856">
        <ele>559.19995117188</ele>
        <time>2026-09-03T12:34:44.000Z</time>
      </trkpt>
      <trkpt lat="48.21084" lon="6.67858">
        <ele>559</ele>
        <time>2026-09-03T12:34:45.000Z</time>
      </trkpt>
      <trkpt lat="48.21084" lon="6.67859">
        <ele>559</ele>
        <time>2026-09-03T12:34:46.000Z</time>
      </trkpt>
      <trkpt lat="48.21084" lon="6.6786">
        <ele>558.80004882812</ele>
        <time>2026-09-03T12:34:47.000Z</time>
      </trkpt>
      <trkpt lat="48.21085" lon="6.67862">
        <ele>558.80004882812</ele>
        <time>2026-09-03T12:34:48.000Z</time>
      </trkpt>
      <trkpt lat="48.21085" lon="6.67863">
        <ele>558.80004882812</ele>
        <time>2026-09-03T12:34:49.000Z</time>
      </trkpt>
      <trkpt lat="48.21086" lon="6.67864">
        <ele>559</ele>
        <time>2026-09-03T12:34:50.000Z</time>
      </trkpt>
      <trkpt lat="48.21087" lon="6.67866">
        <ele>559.19995117188</ele>
        <time>2026-09-03T12:34:51.000Z</time>
      </trkpt>
      <trkpt lat="48.21087" lon="6.67867">
        <ele>559.19995117188</ele>
        <time>2026-09-03T12:34:52.000Z</time>
      </trkpt>
      <trkpt lat="48.21088" lon="6.67868">
        <ele>559.19995117188</ele>
        <time>2026-09-03T12:34:53.000Z</time>
      </trkpt>
      <trkpt lat="48.21088" lon="6.6787">
        <ele>559</ele>
        <time>2026-09-03T12:34:54.000Z</time>
      </trkpt>
      <trkpt lat="48.21089" lon="6.67871">
        <ele>559</ele>
        <time>2026-09-03T12:34:55.000Z</time>
      </trkpt>
      <trkpt lat="48.21089" lon="6.67873">
        <ele>559</ele>
        <time>2026-09-03T12:34:56.000Z</time>
      </trkpt>
      <trkpt lat="48.2109" lon="6.67874">
        <ele>559</ele>
        <time>2026-09-03T12:34:57.000Z</time>
      </trkpt>
      <trkpt lat="48.2109" lon="6.67877">
        <ele>559</ele>
        <time>2026-09-03T12:34:58.000Z</time>
      </trkpt>
      <trkpt lat="48.21091" lon="6.67879">
        <ele>559</ele>
        <time>2026-09-03T12:34:59.000Z</time>
      </trkpt>
      <trkpt lat="48.21092" lon="6.6788">
        <ele>559</ele>
        <time>2026-09-03T12:35:00.000Z</time>
      </trkpt>
      <trkpt lat="48.21092" lon="6.67882">
        <ele>559</ele>
        <time>2026-09-03T12:35:01.000Z</time>
      </trkpt>
      <trkpt lat="48.21092" lon="6.67883">
        <ele>559</ele>
        <time>2026-09-03T12:35:02.000Z</time>
      </trkpt>
      <trkpt lat="48.21093" lon="6.67884">
        <ele>559.19995117188</ele>
        <time>2026-09-03T12:35:03.000Z</time>
      </trkpt>
      <trkpt lat="48.21093" lon="6.67886">
        <ele>559.19995117188</ele>
        <time>2026-09-03T12:35:04.000Z</time>
      </trkpt>
      <trkpt lat="48.21094" lon="6.67887">
        <ele>559.19995117188</ele>
        <time>2026-09-03T12:35:05.000Z</time>
      </trkpt>
      <trkpt lat="48.21094" lon="6.67889">
        <ele>559.19995117188</ele>
        <time>2026-09-03T12:35:06.000Z</time>
      </trkpt>
      <trkpt lat="48.21094" lon="6.6789">
        <ele>559.19995117188</ele>
        <time>2026-09-03T12:35:07.000Z</time>
      </trkpt>
      <trkpt lat="48.21095" lon="6.67892">
        <ele>559.19995117188</ele>
        <time>2026-09-03T12:35:08.000Z</time>
      </trkpt>
      <trkpt lat="48.21095" lon="6.67893">
        <ele>559.19995117188</ele>
        <time>2026-09-03T12:35:09.000Z</time>
      </trkpt>
      <trkpt lat="48.21096" lon="6.67894">
        <ele>559.19995117188</ele>
        <time>2026-09-03T12:35:10.000Z</time>
      </trkpt>
      <trkpt lat="48.21097" lon="6.67896">
        <ele>559.19995117188</ele>
        <time>2026-09-03T12:35:11.000Z</time>
      </trkpt>
      <trkpt lat="48.21097" lon="6.67898">
        <ele>559.19995117188</ele>
        <time>2026-09-03T12:35:12.000Z</time>
      </trkpt>
      <trkpt lat="48.21098" lon="6.679">
        <ele>559.19995117188</ele>
        <time>2026-09-03T12:35:13.000Z</time>
      </trkpt>
      <trkpt lat="48.21098" lon="6.67902">
        <ele>559</ele>
        <time>2026-09-03T12:35:14.000Z</time>
      </trkpt>
      <trkpt lat="48.21099" lon="6.67904">
        <ele>559</ele>
        <time>2026-09-03T12:35:15.000Z</time>
      </trkpt>
      <trkpt lat="48.21099" lon="6.67906">
        <ele>559</ele>
        <time>2026-09-03T12:35:16.000Z</time>
      </trkpt>
      <trkpt lat="48.211" lon="6.67907">
        <ele>559</ele>
        <time>2026-09-03T12:35:17.000Z</time>
      </trkpt>
      <trkpt lat="48.211" lon="6.67909">
        <ele>558.80004882812</ele>
        <time>2026-09-03T12:35:18.000Z</time>
      </trkpt>
      <trkpt lat="48.21101" lon="6.67911">
        <ele>558.80004882812</ele>
        <time>2026-09-03T12:35:19.000Z</time>
      </trkpt>
      <trkpt lat="48.21102" lon="6.67912">
        <ele>558.80004882812</ele>
        <time>2026-09-03T12:35:20.000Z</time>
      </trkpt>
      <trkpt lat="48.21102" lon="6.67914">
        <ele>558.80004882812</ele>
        <time>2026-09-03T12:35:21.000Z</time>
      </trkpt>
      <trkpt lat="48.21102" lon="6.67916">
        <ele>558.80004882812</ele>
        <time>2026-09-03T12:35:22.000Z</time>
      </trkpt>
      <trkpt lat="48.21103" lon="6.67918">
        <ele>558.80004882812</ele>
        <time>2026-09-03T12:35:23.000Z</time>
      </trkpt>
      <trkpt lat="48.21103" lon="6.6792">
        <ele>558.80004882812</ele>
        <time>2026-09-03T12:35:24.000Z</time>
      </trkpt>
      <trkpt lat="48.21103" lon="6.67922">
        <ele>558.80004882812</ele>
        <time>2026-09-03T12:35:25.000Z</time>
      </trkpt>
      <trkpt lat="48.21103" lon="6.67923">
        <ele>558.80004882812</ele>
        <time>2026-09-03T12:35:26.000Z</time>
      </trkpt>
      <trkpt lat="48.21104" lon="6.67925">
        <ele>558.80004882812</ele>
        <time>2026-09-03T12:35:27.000Z</time>
      </trkpt>
      <trkpt lat="48.21104" lon="6.67927">
        <ele>558.80004882812</ele>
        <time>2026-09-03T12:35:28.000Z</time>
      </trkpt>
      <trkpt lat="48.21104" lon="6.67929">
        <ele>558.80004882812</ele>
        <time>2026-09-03T12:35:29.000Z</time>
      </trkpt>
      <trkpt lat="48.21105" lon="6.67931">
        <ele>558.80004882812</ele>
        <time>2026-09-03T12:35:30.000Z</time>
      </trkpt>
      <trkpt lat="48.21106" lon="6.67932">
        <ele>558.59997558594</ele>
        <time>2026-09-03T12:35:31.000Z</time>
      </trkpt>
      <trkpt lat="48.21106" lon="6.67934">
        <ele>558.59997558594</ele>
        <time>2026-09-03T12:35:32.000Z</time>
      </trkpt>
      <trkpt lat="48.21106" lon="6.67935">
        <ele>558.59997558594</ele>
        <time>2026-09-03T12:35:33.000Z</time>
      </trkpt>
      <trkpt lat="48.21106" lon="6.67936">
        <ele>558.59997558594</ele>
        <time>2026-09-03T12:35:34.000Z</time>
      </trkpt>
      <trkpt lat="48.21107" lon="6.67937">
        <ele>558.59997558594</ele>
        <time>2026-09-03T12:35:35.000Z</time>
      </trkpt>
      <trkpt lat="48.21108" lon="6.67939">
        <ele>558.59997558594</ele>
        <time>2026-09-03T12:35:36.000Z</time>
      </trkpt>
      <trkpt lat="48.21108" lon="6.6794">
        <ele>558.59997558594</ele>
        <time>2026-09-03T12:35:37.000Z</time>
      </trkpt>
      <trkpt lat="48.21109" lon="6.67942">
        <ele>558.59997558594</ele>
        <time>2026-09-03T12:35:38.000Z</time>
      </trkpt>
      <trkpt lat="48.2111" lon="6.67943">
        <ele>558.80004882812</ele>
        <time>2026-09-03T12:35:39.000Z</time>
      </trkpt>
      <trkpt lat="48.21111" lon="6.67945">
        <ele>558.59997558594</ele>
        <time>2026-09-03T12:35:40.000Z</time>
      </trkpt>
      <trkpt lat="48.21111" lon="6.67947">
        <ele>558.59997558594</ele>
        <time>2026-09-03T12:35:41.000Z</time>
      </trkpt>
      <trkpt lat="48.21112" lon="6.67948">
        <ele>558.59997558594</ele>
        <time>2026-09-03T12:35:42.000Z</time>
      </trkpt>
      <trkpt lat="48.21112" lon="6.67949">
        <ele>558.59997558594</ele>
        <time>2026-09-03T12:35:43.000Z</time>
      </trkpt>
      <trkpt lat="48.21112" lon="6.67951">
        <ele>558.59997558594</ele>
        <time>2026-09-03T12:35:44.000Z</time>
      </trkpt>
      <trkpt lat="48.21113" lon="6.67953">
        <ele>558.59997558594</ele>
        <time>2026-09-03T12:35:45.000Z</time>
      </trkpt>
      <trkpt lat="48.21114" lon="6.67954">
        <ele>558.80004882812</ele>
        <time>2026-09-03T12:35:46.000Z</time>
      </trkpt>
      <trkpt lat="48.21115" lon="6.67955">
        <ele>558.80004882812</ele>
        <time>2026-09-03T12:35:47.000Z</time>
      </trkpt>
      <trkpt lat="48.21116" lon="6.67957">
        <ele>558.59997558594</ele>
        <time>2026-09-03T12:35:48.000Z</time>
      </trkpt>
      <trkpt lat="48.21116" lon="6.67959">
        <ele>558.59997558594</ele>
        <time>2026-09-03T12:35:49.000Z</time>
      </trkpt>
      <trkpt lat="48.21116" lon="6.6796">
        <ele>558.59997558594</ele>
        <time>2026-09-03T12:35:50.000Z</time>
      </trkpt>
      <trkpt lat="48.21117" lon="6.67961">
        <ele>558.59997558594</ele>
        <time>2026-09-03T12:35:51.000Z</time>
      </trkpt>
      <trkpt lat="48.21118" lon="6.67963">
        <ele>558.59997558594</ele>
        <time>2026-09-03T12:35:52.000Z</time>
      </trkpt>
      <trkpt lat="48.21119" lon="6.67964">
        <ele>558.40002441406</ele>
        <time>2026-09-03T12:35:53.000Z</time>
      </trkpt>
      <trkpt lat="48.21119" lon="6.67965">
        <ele>558.40002441406</ele>
        <time>2026-09-03T12:35:54.000Z</time>
      </trkpt>
      <trkpt lat="48.2112" lon="6.67966">
        <ele>558.40002441406</ele>
        <time>2026-09-03T12:35:55.000Z</time>
      </trkpt>
      <trkpt lat="48.21121" lon="6.67967">
        <ele>558.40002441406</ele>
        <time>2026-09-03T12:35:56.000Z</time>
      </trkpt>
      <trkpt lat="48.21121" lon="6.67968">
        <ele>558.40002441406</ele>
        <time>2026-09-03T12:35:57.000Z</time>
      </trkpt>
      <trkpt lat="48.21121" lon="6.67969">
        <ele>558.40002441406</ele>
        <time>2026-09-03T12:35:58.000Z</time>
      </trkpt>
      <trkpt lat="48.21121" lon="6.67971">
        <ele>558.59997558594</ele>
        <time>2026-09-03T12:35:59.000Z</time>
      </trkpt>
      <trkpt lat="48.21122" lon="6.67973">
        <ele>558.59997558594</ele>
        <time>2026-09-03T12:36:00.000Z</time>
      </trkpt>
      <trkpt lat="48.21122" lon="6.67975">
        <ele>558.59997558594</ele>
        <time>2026-09-03T12:36:01.000Z</time>
      </trkpt>
      <trkpt lat="48.21122" lon="6.67977">
        <ele>558.59997558594</ele>
        <time>2026-09-03T12:36:02.000Z</time>
      </trkpt>
      <trkpt lat="48.21122" lon="6.67978">
        <ele>558.59997558594</ele>
        <time>2026-09-03T12:36:03.000Z</time>
      </trkpt>
      <trkpt lat="48.21123" lon="6.67979">
        <ele>558.59997558594</ele>
        <time>2026-09-03T12:36:04.000Z</time>
      </trkpt>
      <trkpt lat="48.21123" lon="6.67981">
        <ele>558.59997558594</ele>
        <time>2026-09-03T12:36:05.000Z</time>
      </trkpt>
      <trkpt lat="48.21123" lon="6.67984">
        <ele>558.40002441406</ele>
        <time>2026-09-03T12:36:06.000Z</time>
      </trkpt>
      <trkpt lat="48.21123" lon="6.67986">
        <ele>558.40002441406</ele>
        <time>2026-09-03T12:36:07.000Z</time>
      </trkpt>
      <trkpt lat="48.21123" lon="6.67988">
        <ele>558.19995117188</ele>
        <time>2026-09-03T12:36:08.000Z</time>
      </trkpt>
      <trkpt lat="48.21123" lon="6.67989">
        <ele>558.19995117188</ele>
        <time>2026-09-03T12:36:09.000Z</time>
      </trkpt>
      <trkpt lat="48.21124" lon="6.6799">
        <ele>558</ele>
        <time>2026-09-03T12:36:10.000Z</time>
      </trkpt>
      <trkpt lat="48.21124" lon="6.67991">
        <ele>558</ele>
        <time>2026-09-03T12:36:11.000Z</time>
      </trkpt>
      <trkpt lat="48.21125" lon="6.67992">
        <ele>558</ele>
        <time>2026-09-03T12:36:12.000Z</time>
      </trkpt>
      <trkpt lat="48.21125" lon="6.67993">
        <ele>558</ele>
        <time>2026-09-03T12:36:13.000Z</time>
      </trkpt>
      <trkpt lat="48.21126" lon="6.67995">
        <ele>558</ele>
        <time>2026-09-03T12:36:14.000Z</time>
      </trkpt>
      <trkpt lat="48.21126" lon="6.67996">
        <ele>558</ele>
        <time>2026-09-03T12:36:15.000Z</time>
      </trkpt>
      <trkpt lat="48.21127" lon="6.67998">
        <ele>558</ele>
        <time>2026-09-03T12:36:16.000Z</time>
      </trkpt>
      <trkpt lat="48.21127" lon="6.67999">
        <ele>558</ele>
        <time>2026-09-03T12:36:17.000Z</time>
      </trkpt>
      <trkpt lat="48.21128" lon="6.68001">
        <ele>557.80004882812</ele>
        <time>2026-09-03T12:36:18.000Z</time>
      </trkpt>
      <trkpt lat="48.21128" lon="6.68002">
        <ele>557.80004882812</ele>
        <time>2026-09-03T12:36:19.000Z</time>
      </trkpt>
      <trkpt lat="48.21129" lon="6.68004">
        <ele>557.80004882812</ele>
        <time>2026-09-03T12:36:20.000Z</time>
      </trkpt>
      <trkpt lat="48.2113" lon="6.68005">
        <ele>557.59997558594</ele>
        <time>2026-09-03T12:36:21.000Z</time>
      </trkpt>
      <trkpt lat="48.2113" lon="6.68007">
        <ele>557.59997558594</ele>
        <time>2026-09-03T12:36:22.000Z</time>
      </trkpt>
      <trkpt lat="48.21131" lon="6.68009">
        <ele>557.59997558594</ele>
        <time>2026-09-03T12:36:23.000Z</time>
      </trkpt>
      <trkpt lat="48.21131" lon="6.68011">
        <ele>557.59997558594</ele>
        <time>2026-09-03T12:36:24.000Z</time>
      </trkpt>
      <trkpt lat="48.21132" lon="6.68013">
        <ele>557.59997558594</ele>
        <time>2026-09-03T12:36:25.000Z</time>
      </trkpt>
      <trkpt lat="48.21132" lon="6.68015">
        <ele>557.40002441406</ele>
        <time>2026-09-03T12:36:26.000Z</time>
      </trkpt>
      <trkpt lat="48.21132" lon="6.68016">
        <ele>557.40002441406</ele>
        <time>2026-09-03T12:36:27.000Z</time>
      </trkpt>
      <trkpt lat="48.21133" lon="6.68018">
        <ele>557.40002441406</ele>
        <time>2026-09-03T12:36:28.000Z</time>
      </trkpt>
      <trkpt lat="48.21133" lon="6.68019">
        <ele>557.40002441406</ele>
        <time>2026-09-03T12:36:29.000Z</time>
      </trkpt>
      <trkpt lat="48.21134" lon="6.6802">
        <ele>557.19995117188</ele>
        <time>2026-09-03T12:36:30.000Z</time>
      </trkpt>
      <trkpt lat="48.21134" lon="6.68021">
        <ele>557.40002441406</ele>
        <time>2026-09-03T12:36:31.000Z</time>
      </trkpt>
      <trkpt lat="48.21134" lon="6.68023">
        <ele>557.40002441406</ele>
        <time>2026-09-03T12:36:32.000Z</time>
      </trkpt>
      <trkpt lat="48.21134" lon="6.68024">
        <ele>557.40002441406</ele>
        <time>2026-09-03T12:36:33.000Z</time>
      </trkpt>
      <trkpt lat="48.21135" lon="6.68026">
        <ele>557.40002441406</ele>
        <time>2026-09-03T12:36:34.000Z</time>
      </trkpt>
      <trkpt lat="48.21135" lon="6.68028">
        <ele>557.19995117188</ele>
        <time>2026-09-03T12:36:35.000Z</time>
      </trkpt>
      <trkpt lat="48.21136" lon="6.6803">
        <ele>557.19995117188</ele>
        <time>2026-09-03T12:36:36.000Z</time>
      </trkpt>
      <trkpt lat="48.21136" lon="6.68031">
        <ele>557.19995117188</ele>
        <time>2026-09-03T12:36:37.000Z</time>
      </trkpt>
      <trkpt lat="48.21138" lon="6.68033">
        <ele>557.19995117188</ele>
        <time>2026-09-03T12:36:38.000Z</time>
      </trkpt>
      <trkpt lat="48.21138" lon="6.68035">
        <ele>557</ele>
        <time>2026-09-03T12:36:39.000Z</time>
      </trkpt>
      <trkpt lat="48.21139" lon="6.68037">
        <ele>557</ele>
        <time>2026-09-03T12:36:40.000Z</time>
      </trkpt>
      <trkpt lat="48.2114" lon="6.68039">
        <ele>557</ele>
        <time>2026-09-03T12:36:41.000Z</time>
      </trkpt>
      <trkpt lat="48.21141" lon="6.6804">
        <ele>557</ele>
        <time>2026-09-03T12:36:42.000Z</time>
      </trkpt>
      <trkpt lat="48.21141" lon="6.68041">
        <ele>556.80004882812</ele>
        <time>2026-09-03T12:36:43.000Z</time>
      </trkpt>
      <trkpt lat="48.21141" lon="6.68042">
        <ele>556.80004882812</ele>
        <time>2026-09-03T12:36:44.000Z</time>
      </trkpt>
      <trkpt lat="48.21141" lon="6.68044">
        <ele>556.80004882812</ele>
        <time>2026-09-03T12:36:45.000Z</time>
      </trkpt>
      <trkpt lat="48.21142" lon="6.68045">
        <ele>556.80004882812</ele>
        <time>2026-09-03T12:36:46.000Z</time>
      </trkpt>
      <trkpt lat="48.21143" lon="6.68047">
        <ele>556.80004882812</ele>
        <time>2026-09-03T12:36:47.000Z</time>
      </trkpt>
      <trkpt lat="48.21144" lon="6.68048">
        <ele>556.80004882812</ele>
        <time>2026-09-03T12:36:48.000Z</time>
      </trkpt>
      <trkpt lat="48.21144" lon="6.6805">
        <ele>556.80004882812</ele>
        <time>2026-09-03T12:36:49.000Z</time>
      </trkpt>
      <trkpt lat="48.21146" lon="6.68052">
        <ele>556.80004882812</ele>
        <time>2026-09-03T12:36:50.000Z</time>
      </trkpt>
      <trkpt lat="48.21146" lon="6.68054">
        <ele>556.59997558594</ele>
        <time>2026-09-03T12:36:51.000Z</time>
      </trkpt>
      <trkpt lat="48.21147" lon="6.68054">
        <ele>556.40002441406</ele>
        <time>2026-09-03T12:36:52.000Z</time>
      </trkpt>
      <trkpt lat="48.21147" lon="6.68055">
        <ele>556.40002441406</ele>
        <time>2026-09-03T12:36:53.000Z</time>
      </trkpt>
      <trkpt lat="48.21148" lon="6.68056">
        <ele>556.19995117188</ele>
        <time>2026-09-03T12:36:54.000Z</time>
      </trkpt>
      <trkpt lat="48.21148" lon="6.68057">
        <ele>556</ele>
        <time>2026-09-03T12:36:55.000Z</time>
      </trkpt>
      <trkpt lat="48.21149" lon="6.68059">
        <ele>555.80004882812</ele>
        <time>2026-09-03T12:36:56.000Z</time>
      </trkpt>
      <trkpt lat="48.2115" lon="6.68061">
        <ele>555.80004882812</ele>
        <time>2026-09-03T12:36:57.000Z</time>
      </trkpt>
      <trkpt lat="48.21151" lon="6.68062">
        <ele>555.59997558594</ele>
        <time>2026-09-03T12:36:58.000Z</time>
      </trkpt>
      <trkpt lat="48.21152" lon="6.68064">
        <ele>555.59997558594</ele>
        <time>2026-09-03T12:36:59.000Z</time>
      </trkpt>
      <trkpt lat="48.21153" lon="6.68065">
        <ele>555.59997558594</ele>
        <time>2026-09-03T12:37:00.000Z</time>
      </trkpt>
      <trkpt lat="48.21154" lon="6.68067">
        <ele>555.59997558594</ele>
        <time>2026-09-03T12:37:01.000Z</time>
      </trkpt>
      <trkpt lat="48.21154" lon="6.68068">
        <ele>555.59997558594</ele>
        <time>2026-09-03T12:37:02.000Z</time>
      </trkpt>
      <trkpt lat="48.21155" lon="6.68069">
        <ele>555.59997558594</ele>
        <time>2026-09-03T12:37:03.000Z</time>
      </trkpt>
      <trkpt lat="48.21155" lon="6.6807">
        <ele>555.59997558594</ele>
        <time>2026-09-03T12:37:04.000Z</time>
      </trkpt>
      <trkpt lat="48.21156" lon="6.68072">
        <ele>555.59997558594</ele>
        <time>2026-09-03T12:37:05.000Z</time>
      </trkpt>
      <trkpt lat="48.21157" lon="6.68072">
        <ele>555.59997558594</ele>
        <time>2026-09-03T12:37:06.000Z</time>
      </trkpt>
      <trkpt lat="48.21158" lon="6.68073">
        <ele>555.59997558594</ele>
        <time>2026-09-03T12:37:07.000Z</time>
      </trkpt>
      <trkpt lat="48.21158" lon="6.68073">
        <ele>555.59997558594</ele>
        <time>2026-09-03T12:37:08.000Z</time>
      </trkpt>
      <trkpt lat="48.21159" lon="6.68074">
        <ele>555.40002441406</ele>
        <time>2026-09-03T12:37:09.000Z</time>
      </trkpt>
      <trkpt lat="48.21159" lon="6.68076">
        <ele>555.40002441406</ele>
        <time>2026-09-03T12:37:10.000Z</time>
      </trkpt>
      <trkpt lat="48.2116" lon="6.68077">
        <ele>555.19995117188</ele>
        <time>2026-09-03T12:37:11.000Z</time>
      </trkpt>
      <trkpt lat="48.21161" lon="6.68078">
        <ele>555.19995117188</ele>
        <time>2026-09-03T12:37:12.000Z</time>
      </trkpt>
      <trkpt lat="48.21161" lon="6.6808">
        <ele>555</ele>
        <time>2026-09-03T12:37:13.000Z</time>
      </trkpt>
      <trkpt lat="48.21162" lon="6.68081">
        <ele>555</ele>
        <time>2026-09-03T12:37:14.000Z</time>
      </trkpt>
      <trkpt lat="48.21163" lon="6.68082">
        <ele>554.80004882812</ele>
        <time>2026-09-03T12:37:15.000Z</time>
      </trkpt>
      <trkpt lat="48.21164" lon="6.68083">
        <ele>554.80004882812</ele>
        <time>2026-09-03T12:37:16.000Z</time>
      </trkpt>
      <trkpt lat="48.21164" lon="6.68084">
        <ele>554.80004882812</ele>
        <time>2026-09-03T12:37:17.000Z</time>
      </trkpt>
      <trkpt lat="48.21165" lon="6.68085">
        <ele>554.80004882812</ele>
        <time>2026-09-03T12:37:18.000Z</time>
      </trkpt>
      <trkpt lat="48.21165" lon="6.68086">
        <ele>554.59997558594</ele>
        <time>2026-09-03T12:37:19.000Z</time>
      </trkpt>
      <trkpt lat="48.21166" lon="6.68087">
        <ele>554.59997558594</ele>
        <time>2026-09-03T12:37:20.000Z</time>
      </trkpt>
      <trkpt lat="48.21167" lon="6.68088">
        <ele>554.59997558594</ele>
        <time>2026-09-03T12:37:21.000Z</time>
      </trkpt>
      <trkpt lat="48.21168" lon="6.6809">
        <ele>554.59997558594</ele>
        <time>2026-09-03T12:37:22.000Z</time>
      </trkpt>
      <trkpt lat="48.21169" lon="6.68091">
        <ele>554.59997558594</ele>
        <time>2026-09-03T12:37:23.000Z</time>
      </trkpt>
      <trkpt lat="48.2117" lon="6.68092">
        <ele>554.40002441406</ele>
        <time>2026-09-03T12:37:24.000Z</time>
      </trkpt>
      <trkpt lat="48.21171" lon="6.68093">
        <ele>554.40002441406</ele>
        <time>2026-09-03T12:37:25.000Z</time>
      </trkpt>
      <trkpt lat="48.21171" lon="6.68094">
        <ele>554.40002441406</ele>
        <time>2026-09-03T12:37:26.000Z</time>
      </trkpt>
      <trkpt lat="48.21172" lon="6.68096">
        <ele>554.19995117188</ele>
        <time>2026-09-03T12:37:27.000Z</time>
      </trkpt>
      <trkpt lat="48.21173" lon="6.68097">
        <ele>554.19995117188</ele>
        <time>2026-09-03T12:37:28.000Z</time>
      </trkpt>
      <trkpt lat="48.21173" lon="6.68098">
        <ele>554.19995117188</ele>
        <time>2026-09-03T12:37:29.000Z</time>
      </trkpt>
      <trkpt lat="48.21175" lon="6.681">
        <ele>554.19995117188</ele>
        <time>2026-09-03T12:37:30.000Z</time>
      </trkpt>
      <trkpt lat="48.21176" lon="6.68101">
        <ele>554.19995117188</ele>
        <time>2026-09-03T12:37:31.000Z</time>
      </trkpt>
      <trkpt lat="48.21177" lon="6.68102">
        <ele>554.19995117188</ele>
        <time>2026-09-03T12:37:32.000Z</time>
      </trkpt>
      <trkpt lat="48.21177" lon="6.68103">
        <ele>554.19995117188</ele>
        <time>2026-09-03T12:37:33.000Z</time>
      </trkpt>
      <trkpt lat="48.21178" lon="6.68104">
        <ele>554</ele>
        <time>2026-09-03T12:37:34.000Z</time>
      </trkpt>
      <trkpt lat="48.21179" lon="6.68106">
        <ele>554</ele>
        <time>2026-09-03T12:37:35.000Z</time>
      </trkpt>
      <trkpt lat="48.21179" lon="6.68107">
        <ele>553.80004882812</ele>
        <time>2026-09-03T12:37:36.000Z</time>
      </trkpt>
      <trkpt lat="48.2118" lon="6.68108">
        <ele>553.80004882812</ele>
        <time>2026-09-03T12:37:37.000Z</time>
      </trkpt>
      <trkpt lat="48.21182" lon="6.68109">
        <ele>553.59997558594</ele>
        <time>2026-09-03T12:37:38.000Z</time>
      </trkpt>
      <trkpt lat="48.21182" lon="6.6811">
        <ele>553.59997558594</ele>
        <time>2026-09-03T12:37:39.000Z</time>
      </trkpt>
      <trkpt lat="48.21183" lon="6.68111">
        <ele>553.59997558594</ele>
        <time>2026-09-03T12:37:40.000Z</time>
      </trkpt>
      <trkpt lat="48.21184" lon="6.68112">
        <ele>553.59997558594</ele>
        <time>2026-09-03T12:37:41.000Z</time>
      </trkpt>
      <trkpt lat="48.21185" lon="6.68113">
        <ele>553.59997558594</ele>
        <time>2026-09-03T12:37:42.000Z</time>
      </trkpt>
      <trkpt lat="48.21186" lon="6.68115">
        <ele>553.59997558594</ele>
        <time>2026-09-03T12:37:43.000Z</time>
      </trkpt>
      <trkpt lat="48.21187" lon="6.68117">
        <ele>553.59997558594</ele>
        <time>2026-09-03T12:37:44.000Z</time>
      </trkpt>
      <trkpt lat="48.21187" lon="6.68118">
        <ele>553.59997558594</ele>
        <time>2026-09-03T12:37:45.000Z</time>
      </trkpt>
      <trkpt lat="48.21188" lon="6.68118">
        <ele>553.59997558594</ele>
        <time>2026-09-03T12:37:46.000Z</time>
      </trkpt>
      <trkpt lat="48.21189" lon="6.68119">
        <ele>553.40002441406</ele>
        <time>2026-09-03T12:37:47.000Z</time>
      </trkpt>
      <trkpt lat="48.2119" lon="6.6812">
        <ele>553.40002441406</ele>
        <time>2026-09-03T12:37:48.000Z</time>
      </trkpt>
      <trkpt lat="48.21191" lon="6.68121">
        <ele>553.40002441406</ele>
        <time>2026-09-03T12:37:49.000Z</time>
      </trkpt>
      <trkpt lat="48.21191" lon="6.68122">
        <ele>553.40002441406</ele>
        <time>2026-09-03T12:37:50.000Z</time>
      </trkpt>
      <trkpt lat="48.21192" lon="6.68123">
        <ele>553.40002441406</ele>
        <time>2026-09-03T12:37:51.000Z</time>
      </trkpt>
      <trkpt lat="48.21193" lon="6.68124">
        <ele>553.40002441406</ele>
        <time>2026-09-03T12:37:52.000Z</time>
      </trkpt>
      <trkpt lat="48.21194" lon="6.68125">
        <ele>553.19995117188</ele>
        <time>2026-09-03T12:37:53.000Z</time>
      </trkpt>
      <trkpt lat="48.21195" lon="6.68127">
        <ele>553.19995117188</ele>
        <time>2026-09-03T12:37:54.000Z</time>
      </trkpt>
      <trkpt lat="48.21196" lon="6.68128">
        <ele>553.19995117188</ele>
        <time>2026-09-03T12:37:55.000Z</time>
      </trkpt>
      <trkpt lat="48.21197" lon="6.68129">
        <ele>553.19995117188</ele>
        <time>2026-09-03T12:37:56.000Z</time>
      </trkpt>
      <trkpt lat="48.21197" lon="6.6813">
        <ele>553.19995117188</ele>
        <time>2026-09-03T12:37:57.000Z</time>
      </trkpt>
      <trkpt lat="48.21197" lon="6.68132">
        <ele>553.19995117188</ele>
        <time>2026-09-03T12:37:58.000Z</time>
      </trkpt>
      <trkpt lat="48.21198" lon="6.68134">
        <ele>553.19995117188</ele>
        <time>2026-09-03T12:37:59.000Z</time>
      </trkpt>
      <trkpt lat="48.212" lon="6.68136">
        <ele>553.19995117188</ele>
        <time>2026-09-03T12:38:00.000Z</time>
      </trkpt>
      <trkpt lat="48.212" lon="6.68137">
        <ele>553.19995117188</ele>
        <time>2026-09-03T12:38:01.000Z</time>
      </trkpt>
      <trkpt lat="48.21201" lon="6.68139">
        <ele>553.19995117188</ele>
        <time>2026-09-03T12:38:02.000Z</time>
      </trkpt>
      <trkpt lat="48.21202" lon="6.6814">
        <ele>553.19995117188</ele>
        <time>2026-09-03T12:38:03.000Z</time>
      </trkpt>
      <trkpt lat="48.21202" lon="6.68142">
        <ele>553.19995117188</ele>
        <time>2026-09-03T12:38:04.000Z</time>
      </trkpt>
      <trkpt lat="48.21203" lon="6.68143">
        <ele>553.40002441406</ele>
        <time>2026-09-03T12:38:05.000Z</time>
      </trkpt>
      <trkpt lat="48.21204" lon="6.68145">
        <ele>553.40002441406</ele>
        <time>2026-09-03T12:38:06.000Z</time>
      </trkpt>
      <trkpt lat="48.21204" lon="6.68147">
        <ele>553.40002441406</ele>
        <time>2026-09-03T12:38:07.000Z</time>
      </trkpt>
      <trkpt lat="48.21205" lon="6.68149">
        <ele>553.59997558594</ele>
        <time>2026-09-03T12:38:08.000Z</time>
      </trkpt>
      <trkpt lat="48.21206" lon="6.68151">
        <ele>553.59997558594</ele>
        <time>2026-09-03T12:38:09.000Z</time>
      </trkpt>
      <trkpt lat="48.21206" lon="6.68153">
        <ele>553.59997558594</ele>
        <time>2026-09-03T12:38:10.000Z</time>
      </trkpt>
      <trkpt lat="48.21206" lon="6.68154">
        <ele>553.59997558594</ele>
        <time>2026-09-03T12:38:11.000Z</time>
      </trkpt>
      <trkpt lat="48.21207" lon="6.68156">
        <ele>553.59997558594</ele>
        <time>2026-09-03T12:38:12.000Z</time>
      </trkpt>
      <trkpt lat="48.21208" lon="6.68158">
        <ele>553.40002441406</ele>
        <time>2026-09-03T12:38:13.000Z</time>
      </trkpt>
      <trkpt lat="48.21208" lon="6.6816">
        <ele>553.40002441406</ele>
        <time>2026-09-03T12:38:14.000Z</time>
      </trkpt>
      <trkpt lat="48.21209" lon="6.68162">
        <ele>553.40002441406</ele>
        <time>2026-09-03T12:38:15.000Z</time>
      </trkpt>
      <trkpt lat="48.21211" lon="6.68163">
        <ele>553.40002441406</ele>
        <time>2026-09-03T12:38:16.000Z</time>
      </trkpt>
      <trkpt lat="48.21212" lon="6.68165">
        <ele>553.40002441406</ele>
        <time>2026-09-03T12:38:17.000Z</time>
      </trkpt>
      <trkpt lat="48.21212" lon="6.68166">
        <ele>553.40002441406</ele>
        <time>2026-09-03T12:38:18.000Z</time>
      </trkpt>
      <trkpt lat="48.21213" lon="6.68167">
        <ele>553.40002441406</ele>
        <time>2026-09-03T12:38:19.000Z</time>
      </trkpt>
      <trkpt lat="48.21214" lon="6.68169">
        <ele>553.40002441406</ele>
        <time>2026-09-03T12:38:20.000Z</time>
      </trkpt>
      <trkpt lat="48.21215" lon="6.68171">
        <ele>553.19995117188</ele>
        <time>2026-09-03T12:38:21.000Z</time>
      </trkpt>
      <trkpt lat="48.21215" lon="6.68172">
        <ele>553.40002441406</ele>
        <time>2026-09-03T12:38:22.000Z</time>
      </trkpt>
      <trkpt lat="48.21216" lon="6.68174">
        <ele>553.40002441406</ele>
        <time>2026-09-03T12:38:23.000Z</time>
      </trkpt>
      <trkpt lat="48.21217" lon="6.68176">
        <ele>553.40002441406</ele>
        <time>2026-09-03T12:38:24.000Z</time>
      </trkpt>
      <trkpt lat="48.21218" lon="6.68177">
        <ele>553.40002441406</ele>
        <time>2026-09-03T12:38:25.000Z</time>
      </trkpt>
      <trkpt lat="48.21218" lon="6.68178">
        <ele>553.19995117188</ele>
        <time>2026-09-03T12:38:26.000Z</time>
      </trkpt>
      <trkpt lat="48.21219" lon="6.68179">
        <ele>553.19995117188</ele>
        <time>2026-09-03T12:38:27.000Z</time>
      </trkpt>
      <trkpt lat="48.2122" lon="6.68181">
        <ele>553.19995117188</ele>
        <time>2026-09-03T12:38:28.000Z</time>
      </trkpt>
      <trkpt lat="48.21222" lon="6.68183">
        <ele>553.19995117188</ele>
        <time>2026-09-03T12:38:29.000Z</time>
      </trkpt>
      <trkpt lat="48.21222" lon="6.68185">
        <ele>553</ele>
        <time>2026-09-03T12:38:30.000Z</time>
      </trkpt>
      <trkpt lat="48.21223" lon="6.68186">
        <ele>553</ele>
        <time>2026-09-03T12:38:31.000Z</time>
      </trkpt>
      <trkpt lat="48.21224" lon="6.68188">
        <ele>553</ele>
        <time>2026-09-03T12:38:32.000Z</time>
      </trkpt>
      <trkpt lat="48.21225" lon="6.68189">
        <ele>553.19995117188</ele>
        <time>2026-09-03T12:38:33.000Z</time>
      </trkpt>
      <trkpt lat="48.21225" lon="6.6819">
        <ele>553.19995117188</ele>
        <time>2026-09-03T12:38:34.000Z</time>
      </trkpt>
      <trkpt lat="48.21226" lon="6.68191">
        <ele>553.40002441406</ele>
        <time>2026-09-03T12:38:35.000Z</time>
      </trkpt>
      <trkpt lat="48.21226" lon="6.68192">
        <ele>553.40002441406</ele>
        <time>2026-09-03T12:38:36.000Z</time>
      </trkpt>
      <trkpt lat="48.21227" lon="6.68194">
        <ele>553.40002441406</ele>
        <time>2026-09-03T12:38:37.000Z</time>
      </trkpt>
      <trkpt lat="48.21227" lon="6.68195">
        <ele>553.40002441406</ele>
        <time>2026-09-03T12:38:38.000Z</time>
      </trkpt>
      <trkpt lat="48.21227" lon="6.68196">
        <ele>553.19995117188</ele>
        <time>2026-09-03T12:38:39.000Z</time>
      </trkpt>
      <trkpt lat="48.21227" lon="6.68198">
        <ele>553.19995117188</ele>
        <time>2026-09-03T12:38:40.000Z</time>
      </trkpt>
      <trkpt lat="48.21228" lon="6.68199">
        <ele>553.19995117188</ele>
        <time>2026-09-03T12:38:41.000Z</time>
      </trkpt>
      <trkpt lat="48.21228" lon="6.682">
        <ele>553.19995117188</ele>
        <time>2026-09-03T12:38:42.000Z</time>
      </trkpt>
      <trkpt lat="48.21229" lon="6.68202">
        <ele>553.19995117188</ele>
        <time>2026-09-03T12:38:43.000Z</time>
      </trkpt>
      <trkpt lat="48.21229" lon="6.68203">
        <ele>553.40002441406</ele>
        <time>2026-09-03T12:38:44.000Z</time>
      </trkpt>
      <trkpt lat="48.21229" lon="6.68205">
        <ele>553.40002441406</ele>
        <time>2026-09-03T12:38:45.000Z</time>
      </trkpt>
      <trkpt lat="48.2123" lon="6.68207">
        <ele>553.40002441406</ele>
        <time>2026-09-03T12:38:46.000Z</time>
      </trkpt>
      <trkpt lat="48.21231" lon="6.68208">
        <ele>553.40002441406</ele>
        <time>2026-09-03T12:38:47.000Z</time>
      </trkpt>
      <trkpt lat="48.21231" lon="6.6821">
        <ele>553.59997558594</ele>
        <time>2026-09-03T12:38:48.000Z</time>
      </trkpt>
      <trkpt lat="48.21231" lon="6.68211">
        <ele>553.59997558594</ele>
        <time>2026-09-03T12:38:49.000Z</time>
      </trkpt>
      <trkpt lat="48.21231" lon="6.68212">
        <ele>553.59997558594</ele>
        <time>2026-09-03T12:38:50.000Z</time>
      </trkpt>
      <trkpt lat="48.21231" lon="6.68214">
        <ele>553.59997558594</ele>
        <time>2026-09-03T12:38:51.000Z</time>
      </trkpt>
      <trkpt lat="48.21232" lon="6.68216">
        <ele>553.59997558594</ele>
        <time>2026-09-03T12:38:52.000Z</time>
      </trkpt>
      <trkpt lat="48.21233" lon="6.68218">
        <ele>553.59997558594</ele>
        <time>2026-09-03T12:38:53.000Z</time>
      </trkpt>
      <trkpt lat="48.21234" lon="6.6822">
        <ele>553.80004882812</ele>
        <time>2026-09-03T12:38:54.000Z</time>
      </trkpt>
      <trkpt lat="48.21234" lon="6.68222">
        <ele>553.80004882812</ele>
        <time>2026-09-03T12:38:55.000Z</time>
      </trkpt>
      <trkpt lat="48.21235" lon="6.68224">
        <ele>553.80004882812</ele>
        <time>2026-09-03T12:38:56.000Z</time>
      </trkpt>
      <trkpt lat="48.21235" lon="6.68225">
        <ele>553.80004882812</ele>
        <time>2026-09-03T12:38:57.000Z</time>
      </trkpt>
      <trkpt lat="48.21236" lon="6.68227">
        <ele>553.80004882812</ele>
        <time>2026-09-03T12:38:58.000Z</time>
      </trkpt>
      <trkpt lat="48.21236" lon="6.6823">
        <ele>554</ele>
        <time>2026-09-03T12:38:59.000Z</time>
      </trkpt>
      <trkpt lat="48.21237" lon="6.68231">
        <ele>554</ele>
        <time>2026-09-03T12:39:00.000Z</time>
      </trkpt>
      <trkpt lat="48.21237" lon="6.68233">
        <ele>554</ele>
        <time>2026-09-03T12:39:01.000Z</time>
      </trkpt>
      <trkpt lat="48.21237" lon="6.68234">
        <ele>554</ele>
        <time>2026-09-03T12:39:02.000Z</time>
      </trkpt>
      <trkpt lat="48.21238" lon="6.68236">
        <ele>554</ele>
        <time>2026-09-03T12:39:03.000Z</time>
      </trkpt>
      <trkpt lat="48.21239" lon="6.68238">
        <ele>554</ele>
        <time>2026-09-03T12:39:04.000Z</time>
      </trkpt>
      <trkpt lat="48.21239" lon="6.6824">
        <ele>554</ele>
        <time>2026-09-03T12:39:05.000Z</time>
      </trkpt>
      <trkpt lat="48.21239" lon="6.68242">
        <ele>554</ele>
        <time>2026-09-03T12:39:06.000Z</time>
      </trkpt>
      <trkpt lat="48.2124" lon="6.68244">
        <ele>553.80004882812</ele>
        <time>2026-09-03T12:39:07.000Z</time>
      </trkpt>
      <trkpt lat="48.21241" lon="6.68245">
        <ele>553.80004882812</ele>
        <time>2026-09-03T12:39:08.000Z</time>
      </trkpt>
      <trkpt lat="48.21242" lon="6.68247">
        <ele>554</ele>
        <time>2026-09-03T12:39:09.000Z</time>
      </trkpt>
      <trkpt lat="48.21243" lon="6.68248">
        <ele>554</ele>
        <time>2026-09-03T12:39:10.000Z</time>
      </trkpt>
      <trkpt lat="48.21243" lon="6.68249">
        <ele>554</ele>
        <time>2026-09-03T12:39:11.000Z</time>
      </trkpt>
      <trkpt lat="48.21243" lon="6.6825">
        <ele>554</ele>
        <time>2026-09-03T12:39:12.000Z</time>
      </trkpt>
      <trkpt lat="48.21244" lon="6.68252">
        <ele>554</ele>
        <time>2026-09-03T12:39:13.000Z</time>
      </trkpt>
      <trkpt lat="48.21244" lon="6.68253">
        <ele>554</ele>
        <time>2026-09-03T12:39:14.000Z</time>
      </trkpt>
      <trkpt lat="48.21245" lon="6.68255">
        <ele>554</ele>
        <time>2026-09-03T12:39:15.000Z</time>
      </trkpt>
      <trkpt lat="48.21245" lon="6.68256">
        <ele>554</ele>
        <time>2026-09-03T12:39:16.000Z</time>
      </trkpt>
      <trkpt lat="48.21246" lon="6.68258">
        <ele>554</ele>
        <time>2026-09-03T12:39:17.000Z</time>
      </trkpt>
      <trkpt lat="48.21245" lon="6.68259">
        <ele>554</ele>
        <time>2026-09-03T12:39:18.000Z</time>
      </trkpt>
      <trkpt lat="48.21246" lon="6.68261">
        <ele>554</ele>
        <time>2026-09-03T12:39:19.000Z</time>
      </trkpt>
      <trkpt lat="48.21246" lon="6.68263">
        <ele>554</ele>
        <time>2026-09-03T12:39:20.000Z</time>
      </trkpt>
      <trkpt lat="48.21247" lon="6.68264">
        <ele>554.19995117188</ele>
        <time>2026-09-03T12:39:21.000Z</time>
      </trkpt>
      <trkpt lat="48.21248" lon="6.68265">
        <ele>554.19995117188</ele>
        <time>2026-09-03T12:39:22.000Z</time>
      </trkpt>
      <trkpt lat="48.21249" lon="6.68266">
        <ele>554.19995117188</ele>
        <time>2026-09-03T12:39:23.000Z</time>
      </trkpt>
      <trkpt lat="48.21249" lon="6.68267">
        <ele>554.19995117188</ele>
        <time>2026-09-03T12:39:24.000Z</time>
      </trkpt>
      <trkpt lat="48.21249" lon="6.68269">
        <ele>554.19995117188</ele>
        <time>2026-09-03T12:39:25.000Z</time>
      </trkpt>
      <trkpt lat="48.21249" lon="6.6827">
        <ele>554.19995117188</ele>
        <time>2026-09-03T12:39:26.000Z</time>
      </trkpt>
      <trkpt lat="48.2125" lon="6.68272">
        <ele>554.19995117188</ele>
        <time>2026-09-03T12:39:27.000Z</time>
      </trkpt>
      <trkpt lat="48.21251" lon="6.68274">
        <ele>554.19995117188</ele>
        <time>2026-09-03T12:39:28.000Z</time>
      </trkpt>
      <trkpt lat="48.21251" lon="6.68275">
        <ele>554.19995117188</ele>
        <time>2026-09-03T12:39:29.000Z</time>
      </trkpt>
      <trkpt lat="48.21252" lon="6.68277">
        <ele>554.19995117188</ele>
        <time>2026-09-03T12:39:30.000Z</time>
      </trkpt>
      <trkpt lat="48.21253" lon="6.68279">
        <ele>554.40002441406</ele>
        <time>2026-09-03T12:39:31.000Z</time>
      </trkpt>
      <trkpt lat="48.21253" lon="6.6828">
        <ele>554.40002441406</ele>
        <time>2026-09-03T12:39:32.000Z</time>
      </trkpt>
      <trkpt lat="48.21253" lon="6.68281">
        <ele>554.40002441406</ele>
        <time>2026-09-03T12:39:33.000Z</time>
      </trkpt>
      <trkpt lat="48.21255" lon="6.68283">
        <ele>554.40002441406</ele>
        <time>2026-09-03T12:39:34.000Z</time>
      </trkpt>
      <trkpt lat="48.21256" lon="6.68284">
        <ele>554.59997558594</ele>
        <time>2026-09-03T12:39:35.000Z</time>
      </trkpt>
      <trkpt lat="48.21256" lon="6.68285">
        <ele>554.59997558594</ele>
        <time>2026-09-03T12:39:36.000Z</time>
      </trkpt>
      <trkpt lat="48.21255" lon="6.68287">
        <ele>554.59997558594</ele>
        <time>2026-09-03T12:39:37.000Z</time>
      </trkpt>
      <trkpt lat="48.21255" lon="6.68289">
        <ele>554.59997558594</ele>
        <time>2026-09-03T12:39:38.000Z</time>
      </trkpt>
      <trkpt lat="48.21256" lon="6.68291">
        <ele>554.80004882812</ele>
        <time>2026-09-03T12:39:39.000Z</time>
      </trkpt>
      <trkpt lat="48.21256" lon="6.68291">
        <ele>554.80004882812</ele>
        <time>2026-09-03T12:39:40.000Z</time>
      </trkpt>
      <trkpt lat="48.21256" lon="6.68292">
        <ele>554.80004882812</ele>
        <time>2026-09-03T12:39:41.000Z</time>
      </trkpt>
      <trkpt lat="48.21256" lon="6.68293">
        <ele>554.80004882812</ele>
        <time>2026-09-03T12:39:42.000Z</time>
      </trkpt>
      <trkpt lat="48.21257" lon="6.68295">
        <ele>555</ele>
        <time>2026-09-03T12:39:43.000Z</time>
      </trkpt>
      <trkpt lat="48.21257" lon="6.68296">
        <ele>555</ele>
        <time>2026-09-03T12:39:44.000Z</time>
      </trkpt>
      <trkpt lat="48.21258" lon="6.68297">
        <ele>555.19995117188</ele>
        <time>2026-09-03T12:39:45.000Z</time>
      </trkpt>
      <trkpt lat="48.21258" lon="6.68299">
        <ele>555.19995117188</ele>
        <time>2026-09-03T12:39:46.000Z</time>
      </trkpt>
      <trkpt lat="48.21258" lon="6.68301">
        <ele>555.19995117188</ele>
        <time>2026-09-03T12:39:47.000Z</time>
      </trkpt>
      <trkpt lat="48.21258" lon="6.68303">
        <ele>555.40002441406</ele>
        <time>2026-09-03T12:39:48.000Z</time>
      </trkpt>
      <trkpt lat="48.21259" lon="6.68304">
        <ele>555.40002441406</ele>
        <time>2026-09-03T12:39:49.000Z</time>
      </trkpt>
      <trkpt lat="48.2126" lon="6.68306">
        <ele>555.40002441406</ele>
        <time>2026-09-03T12:39:50.000Z</time>
      </trkpt>
      <trkpt lat="48.21261" lon="6.68307">
        <ele>555.40002441406</ele>
        <time>2026-09-03T12:39:51.000Z</time>
      </trkpt>
      <trkpt lat="48.21261" lon="6.68309">
        <ele>555.40002441406</ele>
        <time>2026-09-03T12:39:52.000Z</time>
      </trkpt>
      <trkpt lat="48.21262" lon="6.6831">
        <ele>555.59997558594</ele>
        <time>2026-09-03T12:39:53.000Z</time>
      </trkpt>
      <trkpt lat="48.21263" lon="6.68312">
        <ele>555.59997558594</ele>
        <time>2026-09-03T12:39:54.000Z</time>
      </trkpt>
      <trkpt lat="48.21263" lon="6.68314">
        <ele>555.59997558594</ele>
        <time>2026-09-03T12:39:55.000Z</time>
      </trkpt>
      <trkpt lat="48.21264" lon="6.68316">
        <ele>555.59997558594</ele>
        <time>2026-09-03T12:39:56.000Z</time>
      </trkpt>
      <trkpt lat="48.21264" lon="6.68317">
        <ele>555.59997558594</ele>
        <time>2026-09-03T12:39:57.000Z</time>
      </trkpt>
      <trkpt lat="48.21265" lon="6.68319">
        <ele>555.80004882812</ele>
        <time>2026-09-03T12:39:58.000Z</time>
      </trkpt>
      <trkpt lat="48.21265" lon="6.6832">
        <ele>555.80004882812</ele>
        <time>2026-09-03T12:39:59.000Z</time>
      </trkpt>
      <trkpt lat="48.21265" lon="6.68321">
        <ele>555.80004882812</ele>
        <time>2026-09-03T12:40:00.000Z</time>
      </trkpt>
      <trkpt lat="48.21266" lon="6.68322">
        <ele>555.80004882812</ele>
        <time>2026-09-03T12:40:01.000Z</time>
      </trkpt>
      <trkpt lat="48.21266" lon="6.68324">
        <ele>555.80004882812</ele>
        <time>2026-09-03T12:40:02.000Z</time>
      </trkpt>
      <trkpt lat="48.21266" lon="6.68326">
        <ele>555.80004882812</ele>
        <time>2026-09-03T12:40:03.000Z</time>
      </trkpt>
      <trkpt lat="48.21267" lon="6.68328">
        <ele>555.80004882812</ele>
        <time>2026-09-03T12:40:04.000Z</time>
      </trkpt>
      <trkpt lat="48.21268" lon="6.68329">
        <ele>556</ele>
        <time>2026-09-03T12:40:05.000Z</time>
      </trkpt>
      <trkpt lat="48.21268" lon="6.6833">
        <ele>556</ele>
        <time>2026-09-03T12:40:06.000Z</time>
      </trkpt>
      <trkpt lat="48.21268" lon="6.68332">
        <ele>556</ele>
        <time>2026-09-03T12:40:07.000Z</time>
      </trkpt>
      <trkpt lat="48.21268" lon="6.68333">
        <ele>556.19995117188</ele>
        <time>2026-09-03T12:40:08.000Z</time>
      </trkpt>
      <trkpt lat="48.21268" lon="6.68336">
        <ele>556.19995117188</ele>
        <time>2026-09-03T12:40:09.000Z</time>
      </trkpt>
      <trkpt lat="48.21269" lon="6.68337">
        <ele>556.40002441406</ele>
        <time>2026-09-03T12:40:10.000Z</time>
      </trkpt>
      <trkpt lat="48.21269" lon="6.68339">
        <ele>556.40002441406</ele>
        <time>2026-09-03T12:40:11.000Z</time>
      </trkpt>
      <trkpt lat="48.21269" lon="6.68341">
        <ele>556.40002441406</ele>
        <time>2026-09-03T12:40:12.000Z</time>
      </trkpt>
      <trkpt lat="48.2127" lon="6.68341">
        <ele>556.40002441406</ele>
        <time>2026-09-03T12:40:13.000Z</time>
      </trkpt>
      <trkpt lat="48.21271" lon="6.68343">
        <ele>556.40002441406</ele>
        <time>2026-09-03T12:40:14.000Z</time>
      </trkpt>
      <trkpt lat="48.21271" lon="6.68345">
        <ele>556.40002441406</ele>
        <time>2026-09-03T12:40:15.000Z</time>
      </trkpt>
      <trkpt lat="48.21272" lon="6.68346">
        <ele>556.40002441406</ele>
        <time>2026-09-03T12:40:16.000Z</time>
      </trkpt>
      <trkpt lat="48.21273" lon="6.68347">
        <ele>556.40002441406</ele>
        <time>2026-09-03T12:40:17.000Z</time>
      </trkpt>
      <trkpt lat="48.21273" lon="6.68349">
        <ele>556.59997558594</ele>
        <time>2026-09-03T12:40:18.000Z</time>
      </trkpt>
      <trkpt lat="48.21274" lon="6.68351">
        <ele>556.59997558594</ele>
        <time>2026-09-03T12:40:19.000Z</time>
      </trkpt>
      <trkpt lat="48.21274" lon="6.68353">
        <ele>556.59997558594</ele>
        <time>2026-09-03T12:40:20.000Z</time>
      </trkpt>
      <trkpt lat="48.21275" lon="6.68354">
        <ele>556.59997558594</ele>
        <time>2026-09-03T12:40:21.000Z</time>
      </trkpt>
      <trkpt lat="48.21276" lon="6.68356">
        <ele>556.80004882812</ele>
        <time>2026-09-03T12:40:22.000Z</time>
      </trkpt>
      <trkpt lat="48.21276" lon="6.68357">
        <ele>556.80004882812</ele>
        <time>2026-09-03T12:40:23.000Z</time>
      </trkpt>
      <trkpt lat="48.21277" lon="6.68359">
        <ele>556.80004882812</ele>
        <time>2026-09-03T12:40:24.000Z</time>
      </trkpt>
      <trkpt lat="48.21277" lon="6.68361">
        <ele>556.80004882812</ele>
        <time>2026-09-03T12:40:25.000Z</time>
      </trkpt>
      <trkpt lat="48.21277" lon="6.68363">
        <ele>556.80004882812</ele>
        <time>2026-09-03T12:40:26.000Z</time>
      </trkpt>
      <trkpt lat="48.21278" lon="6.68364">
        <ele>556.80004882812</ele>
        <time>2026-09-03T12:40:27.000Z</time>
      </trkpt>
      <trkpt lat="48.21278" lon="6.68366">
        <ele>557</ele>
        <time>2026-09-03T12:40:28.000Z</time>
      </trkpt>
      <trkpt lat="48.21278" lon="6.68368">
        <ele>557</ele>
        <time>2026-09-03T12:40:29.000Z</time>
      </trkpt>
      <trkpt lat="48.21278" lon="6.68369">
        <ele>557</ele>
        <time>2026-09-03T12:40:30.000Z</time>
      </trkpt>
      <trkpt lat="48.21278" lon="6.6837">
        <ele>557</ele>
        <time>2026-09-03T12:40:31.000Z</time>
      </trkpt>
      <trkpt lat="48.21279" lon="6.68372">
        <ele>557</ele>
        <time>2026-09-03T12:40:32.000Z</time>
      </trkpt>
      <trkpt lat="48.21279" lon="6.68374">
        <ele>557</ele>
        <time>2026-09-03T12:40:33.000Z</time>
      </trkpt>
      <trkpt lat="48.21279" lon="6.68376">
        <ele>557</ele>
        <time>2026-09-03T12:40:34.000Z</time>
      </trkpt>
      <trkpt lat="48.2128" lon="6.68377">
        <ele>557</ele>
        <time>2026-09-03T12:40:35.000Z</time>
      </trkpt>
      <trkpt lat="48.2128" lon="6.68379">
        <ele>557.19995117188</ele>
        <time>2026-09-03T12:40:36.000Z</time>
      </trkpt>
      <trkpt lat="48.2128" lon="6.68381">
        <ele>557.19995117188</ele>
        <time>2026-09-03T12:40:37.000Z</time>
      </trkpt>
      <trkpt lat="48.21281" lon="6.68382">
        <ele>557.40002441406</ele>
        <time>2026-09-03T12:40:38.000Z</time>
      </trkpt>
      <trkpt lat="48.21282" lon="6.68384">
        <ele>557.40002441406</ele>
        <time>2026-09-03T12:40:39.000Z</time>
      </trkpt>
      <trkpt lat="48.21282" lon="6.68387">
        <ele>557.59997558594</ele>
        <time>2026-09-03T12:40:40.000Z</time>
      </trkpt>
      <trkpt lat="48.21282" lon="6.68388">
        <ele>557.59997558594</ele>
        <time>2026-09-03T12:40:41.000Z</time>
      </trkpt>
      <trkpt lat="48.21283" lon="6.6839">
        <ele>557.80004882812</ele>
        <time>2026-09-03T12:40:42.000Z</time>
      </trkpt>
      <trkpt lat="48.21283" lon="6.68391">
        <ele>557.80004882812</ele>
        <time>2026-09-03T12:40:43.000Z</time>
      </trkpt>
      <trkpt lat="48.21283" lon="6.68393">
        <ele>557.80004882812</ele>
        <time>2026-09-03T12:40:44.000Z</time>
      </trkpt>
      <trkpt lat="48.21283" lon="6.68395">
        <ele>557.80004882812</ele>
        <time>2026-09-03T12:40:45.000Z</time>
      </trkpt>
      <trkpt lat="48.21284" lon="6.68397">
        <ele>558</ele>
        <time>2026-09-03T12:40:46.000Z</time>
      </trkpt>
      <trkpt lat="48.21284" lon="6.68398">
        <ele>558</ele>
        <time>2026-09-03T12:40:47.000Z</time>
      </trkpt>
      <trkpt lat="48.21284" lon="6.684">
        <ele>558</ele>
        <time>2026-09-03T12:40:48.000Z</time>
      </trkpt>
      <trkpt lat="48.21284" lon="6.68401">
        <ele>558</ele>
        <time>2026-09-03T12:40:49.000Z</time>
      </trkpt>
      <trkpt lat="48.21284" lon="6.68404">
        <ele>558</ele>
        <time>2026-09-03T12:40:50.000Z</time>
      </trkpt>
      <trkpt lat="48.21284" lon="6.68405">
        <ele>558</ele>
        <time>2026-09-03T12:40:51.000Z</time>
      </trkpt>
      <trkpt lat="48.21284" lon="6.68407">
        <ele>558</ele>
        <time>2026-09-03T12:40:52.000Z</time>
      </trkpt>
      <trkpt lat="48.21284" lon="6.68409">
        <ele>558</ele>
        <time>2026-09-03T12:40:53.000Z</time>
      </trkpt>
      <trkpt lat="48.21284" lon="6.6841">
        <ele>558</ele>
        <time>2026-09-03T12:40:54.000Z</time>
      </trkpt>
      <trkpt lat="48.21284" lon="6.68411">
        <ele>558</ele>
        <time>2026-09-03T12:40:55.000Z</time>
      </trkpt>
      <trkpt lat="48.21284" lon="6.68412">
        <ele>558</ele>
        <time>2026-09-03T12:40:56.000Z</time>
      </trkpt>
      <trkpt lat="48.21284" lon="6.68414">
        <ele>558</ele>
        <time>2026-09-03T12:40:57.000Z</time>
      </trkpt>
      <trkpt lat="48.21284" lon="6.68415">
        <ele>558.19995117188</ele>
        <time>2026-09-03T12:40:58.000Z</time>
      </trkpt>
      <trkpt lat="48.21285" lon="6.68417">
        <ele>558.19995117188</ele>
        <time>2026-09-03T12:40:59.000Z</time>
      </trkpt>
      <trkpt lat="48.21285" lon="6.68419">
        <ele>558.19995117188</ele>
        <time>2026-09-03T12:41:00.000Z</time>
      </trkpt>
      <trkpt lat="48.21285" lon="6.68421">
        <ele>558</ele>
        <time>2026-09-03T12:41:01.000Z</time>
      </trkpt>
      <trkpt lat="48.21286" lon="6.68422">
        <ele>557.80004882812</ele>
        <time>2026-09-03T12:41:02.000Z</time>
      </trkpt>
      <trkpt lat="48.21286" lon="6.68424">
        <ele>557.59997558594</ele>
        <time>2026-09-03T12:41:03.000Z</time>
      </trkpt>
      <trkpt lat="48.21286" lon="6.68426">
        <ele>557.40002441406</ele>
        <time>2026-09-03T12:41:04.000Z</time>
      </trkpt>
      <trkpt lat="48.21286" lon="6.68428">
        <ele>557.19995117188</ele>
        <time>2026-09-03T12:41:05.000Z</time>
      </trkpt>
      <trkpt lat="48.21286" lon="6.68429">
        <ele>557.19995117188</ele>
        <time>2026-09-03T12:41:06.000Z</time>
      </trkpt>
      <trkpt lat="48.21286" lon="6.68431">
        <ele>557.40002441406</ele>
        <time>2026-09-03T12:41:07.000Z</time>
      </trkpt>
      <trkpt lat="48.21286" lon="6.68432">
        <ele>557.40002441406</ele>
        <time>2026-09-03T12:41:08.000Z</time>
      </trkpt>
      <trkpt lat="48.21286" lon="6.68433">
        <ele>557.80004882812</ele>
        <time>2026-09-03T12:41:09.000Z</time>
      </trkpt>
      <trkpt lat="48.21286" lon="6.68435">
        <ele>558</ele>
        <time>2026-09-03T12:41:10.000Z</time>
      </trkpt>
      <trkpt lat="48.21286" lon="6.68437">
        <ele>558.40002441406</ele>
        <time>2026-09-03T12:41:11.000Z</time>
      </trkpt>
      <trkpt lat="48.21287" lon="6.6844">
        <ele>558.59997558594</ele>
        <time>2026-09-03T12:41:12.000Z</time>
      </trkpt>
      <trkpt lat="48.21287" lon="6.68441">
        <ele>558.80004882812</ele>
        <time>2026-09-03T12:41:13.000Z</time>
      </trkpt>
      <trkpt lat="48.21287" lon="6.68443">
        <ele>559</ele>
        <time>2026-09-03T12:41:14.000Z</time>
      </trkpt>
      <trkpt lat="48.21287" lon="6.68444">
        <ele>559</ele>
        <time>2026-09-03T12:41:15.000Z</time>
      </trkpt>
      <trkpt lat="48.21287" lon="6.68447">
        <ele>559</ele>
        <time>2026-09-03T12:41:16.000Z</time>
      </trkpt>
      <trkpt lat="48.21287" lon="6.68448">
        <ele>559</ele>
        <time>2026-09-03T12:41:17.000Z</time>
      </trkpt>
      <trkpt lat="48.21287" lon="6.6845">
        <ele>559.19995117188</ele>
        <time>2026-09-03T12:41:18.000Z</time>
      </trkpt>
      <trkpt lat="48.21287" lon="6.68452">
        <ele>559.19995117188</ele>
        <time>2026-09-03T12:41:19.000Z</time>
      </trkpt>
      <trkpt lat="48.21287" lon="6.68454">
        <ele>559.19995117188</ele>
        <time>2026-09-03T12:41:20.000Z</time>
      </trkpt>
      <trkpt lat="48.21287" lon="6.68456">
        <ele>559.19995117188</ele>
        <time>2026-09-03T12:41:21.000Z</time>
      </trkpt>
      <trkpt lat="48.21287" lon="6.68457">
        <ele>559.19995117188</ele>
        <time>2026-09-03T12:41:22.000Z</time>
      </trkpt>
      <trkpt lat="48.21287" lon="6.68459">
        <ele>559.40002441406</ele>
        <time>2026-09-03T12:41:23.000Z</time>
      </trkpt>
      <trkpt lat="48.21287" lon="6.6846">
        <ele>559.40002441406</ele>
        <time>2026-09-03T12:41:24.000Z</time>
      </trkpt>
      <trkpt lat="48.21287" lon="6.68462">
        <ele>559.40002441406</ele>
        <time>2026-09-03T12:41:25.000Z</time>
      </trkpt>
      <trkpt lat="48.21286" lon="6.68464">
        <ele>559.40002441406</ele>
        <time>2026-09-03T12:41:26.000Z</time>
      </trkpt>
      <trkpt lat="48.21286" lon="6.68466">
        <ele>559.40002441406</ele>
        <time>2026-09-03T12:41:27.000Z</time>
      </trkpt>
      <trkpt lat="48.21286" lon="6.68467">
        <ele>559.40002441406</ele>
        <time>2026-09-03T12:41:28.000Z</time>
      </trkpt>
      <trkpt lat="48.21285" lon="6.68469">
        <ele>559.40002441406</ele>
        <time>2026-09-03T12:41:29.000Z</time>
      </trkpt>
      <trkpt lat="48.21285" lon="6.6847">
        <ele>559.59997558594</ele>
        <time>2026-09-03T12:41:30.000Z</time>
      </trkpt>
      <trkpt lat="48.21285" lon="6.68471">
        <ele>559.59997558594</ele>
        <time>2026-09-03T12:41:31.000Z</time>
      </trkpt>
      <trkpt lat="48.21286" lon="6.68473">
        <ele>559.59997558594</ele>
        <time>2026-09-03T12:41:32.000Z</time>
      </trkpt>
      <trkpt lat="48.21286" lon="6.68475">
        <ele>559.59997558594</ele>
        <time>2026-09-03T12:41:33.000Z</time>
      </trkpt>
      <trkpt lat="48.21285" lon="6.68476">
        <ele>559.59997558594</ele>
        <time>2026-09-03T12:41:34.000Z</time>
      </trkpt>
      <trkpt lat="48.21285" lon="6.68478">
        <ele>559.59997558594</ele>
        <time>2026-09-03T12:41:35.000Z</time>
      </trkpt>
      <trkpt lat="48.21286" lon="6.6848">
        <ele>559.59997558594</ele>
        <time>2026-09-03T12:41:36.000Z</time>
      </trkpt>
      <trkpt lat="48.21286" lon="6.68482">
        <ele>559.80004882812</ele>
        <time>2026-09-03T12:41:37.000Z</time>
      </trkpt>
      <trkpt lat="48.21286" lon="6.68483">
        <ele>559.80004882812</ele>
        <time>2026-09-03T12:41:38.000Z</time>
      </trkpt>
      <trkpt lat="48.21286" lon="6.68485">
        <ele>559.80004882812</ele>
        <time>2026-09-03T12:41:39.000Z</time>
      </trkpt>
      <trkpt lat="48.21286" lon="6.68487">
        <ele>560</ele>
        <time>2026-09-03T12:41:40.000Z</time>
      </trkpt>
      <trkpt lat="48.21286" lon="6.68488">
        <ele>560</ele>
        <time>2026-09-03T12:41:41.000Z</time>
      </trkpt>
      <trkpt lat="48.21286" lon="6.68489">
        <ele>560</ele>
        <time>2026-09-03T12:41:42.000Z</time>
      </trkpt>
      <trkpt lat="48.21285" lon="6.68491">
        <ele>560</ele>
        <time>2026-09-03T12:41:43.000Z</time>
      </trkpt>
      <trkpt lat="48.21284" lon="6.68493">
        <ele>560</ele>
        <time>2026-09-03T12:41:44.000Z</time>
      </trkpt>
      <trkpt lat="48.21284" lon="6.68496">
        <ele>560</ele>
        <time>2026-09-03T12:41:45.000Z</time>
      </trkpt>
      <trkpt lat="48.21284" lon="6.68498">
        <ele>560</ele>
        <time>2026-09-03T12:41:46.000Z</time>
      </trkpt>
      <trkpt lat="48.21284" lon="6.685">
        <ele>560</ele>
        <time>2026-09-03T12:41:47.000Z</time>
      </trkpt>
      <trkpt lat="48.21283" lon="6.68501">
        <ele>560</ele>
        <time>2026-09-03T12:41:48.000Z</time>
      </trkpt>
      <trkpt lat="48.21283" lon="6.68503">
        <ele>560.19995117188</ele>
        <time>2026-09-03T12:41:49.000Z</time>
      </trkpt>
      <trkpt lat="48.21282" lon="6.68504">
        <ele>560.19995117188</ele>
        <time>2026-09-03T12:41:50.000Z</time>
      </trkpt>
      <trkpt lat="48.21283" lon="6.68506">
        <ele>560.40002441406</ele>
        <time>2026-09-03T12:41:51.000Z</time>
      </trkpt>
      <trkpt lat="48.21283" lon="6.68508">
        <ele>560.40002441406</ele>
        <time>2026-09-03T12:41:52.000Z</time>
      </trkpt>
      <trkpt lat="48.21283" lon="6.6851">
        <ele>560.40002441406</ele>
        <time>2026-09-03T12:41:53.000Z</time>
      </trkpt>
      <trkpt lat="48.21283" lon="6.68512">
        <ele>560.40002441406</ele>
        <time>2026-09-03T12:41:54.000Z</time>
      </trkpt>
      <trkpt lat="48.21282" lon="6.68513">
        <ele>560.40002441406</ele>
        <time>2026-09-03T12:41:55.000Z</time>
      </trkpt>
      <trkpt lat="48.21282" lon="6.68514">
        <ele>560.40002441406</ele>
        <time>2026-09-03T12:41:56.000Z</time>
      </trkpt>
      <trkpt lat="48.21281" lon="6.68516">
        <ele>560.59997558594</ele>
        <time>2026-09-03T12:41:57.000Z</time>
      </trkpt>
      <trkpt lat="48.21282" lon="6.68518">
        <ele>560.59997558594</ele>
        <time>2026-09-03T12:41:58.000Z</time>
      </trkpt>
      <trkpt lat="48.21281" lon="6.68519">
        <ele>560.59997558594</ele>
        <time>2026-09-03T12:41:59.000Z</time>
      </trkpt>
      <trkpt lat="48.21281" lon="6.68521">
        <ele>560.80004882812</ele>
        <time>2026-09-03T12:42:00.000Z</time>
      </trkpt>
      <trkpt lat="48.21282" lon="6.68523">
        <ele>560.80004882812</ele>
        <time>2026-09-03T12:42:01.000Z</time>
      </trkpt>
      <trkpt lat="48.21282" lon="6.68524">
        <ele>560.80004882812</ele>
        <time>2026-09-03T12:42:02.000Z</time>
      </trkpt>
      <trkpt lat="48.21282" lon="6.68525">
        <ele>560.80004882812</ele>
        <time>2026-09-03T12:42:03.000Z</time>
      </trkpt>
      <trkpt lat="48.21282" lon="6.68527">
        <ele>561</ele>
        <time>2026-09-03T12:42:04.000Z</time>
      </trkpt>
      <trkpt lat="48.21282" lon="6.68529">
        <ele>561</ele>
        <time>2026-09-03T12:42:05.000Z</time>
      </trkpt>
      <trkpt lat="48.21282" lon="6.6853">
        <ele>561</ele>
        <time>2026-09-03T12:42:06.000Z</time>
      </trkpt>
      <trkpt lat="48.21282" lon="6.68532">
        <ele>561</ele>
        <time>2026-09-03T12:42:07.000Z</time>
      </trkpt>
      <trkpt lat="48.21282" lon="6.68533">
        <ele>561</ele>
        <time>2026-09-03T12:42:08.000Z</time>
      </trkpt>
      <trkpt lat="48.21282" lon="6.68535">
        <ele>561</ele>
        <time>2026-09-03T12:42:09.000Z</time>
      </trkpt>
      <trkpt lat="48.21282" lon="6.68537">
        <ele>561.19995117188</ele>
        <time>2026-09-03T12:42:10.000Z</time>
      </trkpt>
      <trkpt lat="48.21282" lon="6.68538">
        <ele>561.19995117188</ele>
        <time>2026-09-03T12:42:11.000Z</time>
      </trkpt>
      <trkpt lat="48.21282" lon="6.68541">
        <ele>561.19995117188</ele>
        <time>2026-09-03T12:42:12.000Z</time>
      </trkpt>
      <trkpt lat="48.21282" lon="6.68542">
        <ele>561.19995117188</ele>
        <time>2026-09-03T12:42:13.000Z</time>
      </trkpt>
      <trkpt lat="48.21283" lon="6.68544">
        <ele>561.19995117188</ele>
        <time>2026-09-03T12:42:14.000Z</time>
      </trkpt>
      <trkpt lat="48.21283" lon="6.68545">
        <ele>561.19995117188</ele>
        <time>2026-09-03T12:42:15.000Z</time>
      </trkpt>
      <trkpt lat="48.21283" lon="6.68547">
        <ele>561.40002441406</ele>
        <time>2026-09-03T12:42:16.000Z</time>
      </trkpt>
      <trkpt lat="48.21283" lon="6.68549">
        <ele>561.40002441406</ele>
        <time>2026-09-03T12:42:17.000Z</time>
      </trkpt>
      <trkpt lat="48.21283" lon="6.68551">
        <ele>561.40002441406</ele>
        <time>2026-09-03T12:42:18.000Z</time>
      </trkpt>
      <trkpt lat="48.21283" lon="6.68553">
        <ele>561.40002441406</ele>
        <time>2026-09-03T12:42:19.000Z</time>
      </trkpt>
      <trkpt lat="48.21283" lon="6.68554">
        <ele>561.59997558594</ele>
        <time>2026-09-03T12:42:20.000Z</time>
      </trkpt>
      <trkpt lat="48.21283" lon="6.68556">
        <ele>561.59997558594</ele>
        <time>2026-09-03T12:42:21.000Z</time>
      </trkpt>
      <trkpt lat="48.21283" lon="6.68558">
        <ele>561.59997558594</ele>
        <time>2026-09-03T12:42:22.000Z</time>
      </trkpt>
      <trkpt lat="48.21283" lon="6.68559">
        <ele>561.59997558594</ele>
        <time>2026-09-03T12:42:23.000Z</time>
      </trkpt>
      <trkpt lat="48.21283" lon="6.68562">
        <ele>561.59997558594</ele>
        <time>2026-09-03T12:42:24.000Z</time>
      </trkpt>
      <trkpt lat="48.21283" lon="6.68564">
        <ele>561.59997558594</ele>
        <time>2026-09-03T12:42:25.000Z</time>
      </trkpt>
      <trkpt lat="48.21284" lon="6.68567">
        <ele>561.59997558594</ele>
        <time>2026-09-03T12:42:26.000Z</time>
      </trkpt>
      <trkpt lat="48.21284" lon="6.68568">
        <ele>561.80004882812</ele>
        <time>2026-09-03T12:42:27.000Z</time>
      </trkpt>
      <trkpt lat="48.21284" lon="6.6857">
        <ele>561.80004882812</ele>
        <time>2026-09-03T12:42:28.000Z</time>
      </trkpt>
      <trkpt lat="48.21284" lon="6.68571">
        <ele>561.80004882812</ele>
        <time>2026-09-03T12:42:29.000Z</time>
      </trkpt>
      <trkpt lat="48.21285" lon="6.68573">
        <ele>562</ele>
        <time>2026-09-03T12:42:30.000Z</time>
      </trkpt>
      <trkpt lat="48.21285" lon="6.68574">
        <ele>562</ele>
        <time>2026-09-03T12:42:31.000Z</time>
      </trkpt>
      <trkpt lat="48.21285" lon="6.68577">
        <ele>561.80004882812</ele>
        <time>2026-09-03T12:42:32.000Z</time>
      </trkpt>
      <trkpt lat="48.21285" lon="6.68579">
        <ele>561.80004882812</ele>
        <time>2026-09-03T12:42:33.000Z</time>
      </trkpt>
      <trkpt lat="48.21285" lon="6.6858">
        <ele>561.80004882812</ele>
        <time>2026-09-03T12:42:34.000Z</time>
      </trkpt>
      <trkpt lat="48.21285" lon="6.68582">
        <ele>561.80004882812</ele>
        <time>2026-09-03T12:42:35.000Z</time>
      </trkpt>
      <trkpt lat="48.21285" lon="6.68583">
        <ele>561.80004882812</ele>
        <time>2026-09-03T12:42:36.000Z</time>
      </trkpt>
      <trkpt lat="48.21285" lon="6.68585">
        <ele>561.80004882812</ele>
        <time>2026-09-03T12:42:37.000Z</time>
      </trkpt>
      <trkpt lat="48.21286" lon="6.68586">
        <ele>561.80004882812</ele>
        <time>2026-09-03T12:42:38.000Z</time>
      </trkpt>
      <trkpt lat="48.21286" lon="6.68588">
        <ele>561.80004882812</ele>
        <time>2026-09-03T12:42:39.000Z</time>
      </trkpt>
      <trkpt lat="48.21287" lon="6.68589">
        <ele>562</ele>
        <time>2026-09-03T12:42:40.000Z</time>
      </trkpt>
      <trkpt lat="48.21287" lon="6.6859">
        <ele>562</ele>
        <time>2026-09-03T12:42:41.000Z</time>
      </trkpt>
      <trkpt lat="48.21287" lon="6.68592">
        <ele>562</ele>
        <time>2026-09-03T12:42:42.000Z</time>
      </trkpt>
      <trkpt lat="48.21287" lon="6.68593">
        <ele>562</ele>
        <time>2026-09-03T12:42:43.000Z</time>
      </trkpt>
      <trkpt lat="48.21287" lon="6.68594">
        <ele>562.19995117188</ele>
        <time>2026-09-03T12:42:44.000Z</time>
      </trkpt>
      <trkpt lat="48.21287" lon="6.68596">
        <ele>562.19995117188</ele>
        <time>2026-09-03T12:42:45.000Z</time>
      </trkpt>
      <trkpt lat="48.21288" lon="6.68597">
        <ele>562.19995117188</ele>
        <time>2026-09-03T12:42:46.000Z</time>
      </trkpt>
      <trkpt lat="48.21288" lon="6.68598">
        <ele>562.40002441406</ele>
        <time>2026-09-03T12:42:47.000Z</time>
      </trkpt>
      <trkpt lat="48.21288" lon="6.68599">
        <ele>562.40002441406</ele>
        <time>2026-09-03T12:42:48.000Z</time>
      </trkpt>
      <trkpt lat="48.21288" lon="6.68601">
        <ele>562.40002441406</ele>
        <time>2026-09-03T12:42:49.000Z</time>
      </trkpt>
      <trkpt lat="48.21288" lon="6.68602">
        <ele>562.40002441406</ele>
        <time>2026-09-03T12:42:50.000Z</time>
      </trkpt>
      <trkpt lat="48.21289" lon="6.68604">
        <ele>562.19995117188</ele>
        <time>2026-09-03T12:42:51.000Z</time>
      </trkpt>
      <trkpt lat="48.2129" lon="6.68606">
        <ele>562.19995117188</ele>
        <time>2026-09-03T12:42:52.000Z</time>
      </trkpt>
      <trkpt lat="48.2129" lon="6.68607">
        <ele>562.19995117188</ele>
        <time>2026-09-03T12:42:53.000Z</time>
      </trkpt>
      <trkpt lat="48.21291" lon="6.68609">
        <ele>562.19995117188</ele>
        <time>2026-09-03T12:42:54.000Z</time>
      </trkpt>
      <trkpt lat="48.21292" lon="6.6861">
        <ele>562.19995117188</ele>
        <time>2026-09-03T12:42:55.000Z</time>
      </trkpt>
      <trkpt lat="48.21293" lon="6.68612">
        <ele>562.19995117188</ele>
        <time>2026-09-03T12:42:56.000Z</time>
      </trkpt>
      <trkpt lat="48.21294" lon="6.68613">
        <ele>562.19995117188</ele>
        <time>2026-09-03T12:42:57.000Z</time>
      </trkpt>
      <trkpt lat="48.21295" lon="6.68615">
        <ele>562.19995117188</ele>
        <time>2026-09-03T12:42:58.000Z</time>
      </trkpt>
      <trkpt lat="48.21295" lon="6.68617">
        <ele>562.19995117188</ele>
        <time>2026-09-03T12:42:59.000Z</time>
      </trkpt>
      <trkpt lat="48.21296" lon="6.68618">
        <ele>562.19995117188</ele>
        <time>2026-09-03T12:43:00.000Z</time>
      </trkpt>
      <trkpt lat="48.21297" lon="6.6862">
        <ele>562</ele>
        <time>2026-09-03T12:43:01.000Z</time>
      </trkpt>
      <trkpt lat="48.21297" lon="6.68621">
        <ele>562</ele>
        <time>2026-09-03T12:43:02.000Z</time>
      </trkpt>
      <trkpt lat="48.21298" lon="6.68622">
        <ele>562</ele>
        <time>2026-09-03T12:43:03.000Z</time>
      </trkpt>
      <trkpt lat="48.21299" lon="6.68623">
        <ele>562.19995117188</ele>
        <time>2026-09-03T12:43:04.000Z</time>
      </trkpt>
      <trkpt lat="48.21299" lon="6.68625">
        <ele>562</ele>
        <time>2026-09-03T12:43:05.000Z</time>
      </trkpt>
      <trkpt lat="48.213" lon="6.68626">
        <ele>562</ele>
        <time>2026-09-03T12:43:06.000Z</time>
      </trkpt>
      <trkpt lat="48.21301" lon="6.68628">
        <ele>562</ele>
        <time>2026-09-03T12:43:07.000Z</time>
      </trkpt>
      <trkpt lat="48.21302" lon="6.6863">
        <ele>562</ele>
        <time>2026-09-03T12:43:08.000Z</time>
      </trkpt>
      <trkpt lat="48.21303" lon="6.68631">
        <ele>562</ele>
        <time>2026-09-03T12:43:09.000Z</time>
      </trkpt>
      <trkpt lat="48.21303" lon="6.68632">
        <ele>562</ele>
        <time>2026-09-03T12:43:10.000Z</time>
      </trkpt>
      <trkpt lat="48.21304" lon="6.68633">
        <ele>561.80004882812</ele>
        <time>2026-09-03T12:43:11.000Z</time>
      </trkpt>
      <trkpt lat="48.21304" lon="6.68635">
        <ele>561.80004882812</ele>
        <time>2026-09-03T12:43:12.000Z</time>
      </trkpt>
      <trkpt lat="48.21305" lon="6.68637">
        <ele>561.80004882812</ele>
        <time>2026-09-03T12:43:13.000Z</time>
      </trkpt>
      <trkpt lat="48.21306" lon="6.68638">
        <ele>562</ele>
        <time>2026-09-03T12:43:14.000Z</time>
      </trkpt>
      <trkpt lat="48.21307" lon="6.68639">
        <ele>562</ele>
        <time>2026-09-03T12:43:15.000Z</time>
      </trkpt>
      <trkpt lat="48.21308" lon="6.68641">
        <ele>562.19995117188</ele>
        <time>2026-09-03T12:43:16.000Z</time>
      </trkpt>
      <trkpt lat="48.21308" lon="6.68642">
        <ele>562.19995117188</ele>
        <time>2026-09-03T12:43:17.000Z</time>
      </trkpt>
      <trkpt lat="48.21308" lon="6.68644">
        <ele>562.19995117188</ele>
        <time>2026-09-03T12:43:18.000Z</time>
      </trkpt>
      <trkpt lat="48.21309" lon="6.68645">
        <ele>562.40002441406</ele>
        <time>2026-09-03T12:43:19.000Z</time>
      </trkpt>
      <trkpt lat="48.21309" lon="6.68646">
        <ele>562.40002441406</ele>
        <time>2026-09-03T12:43:20.000Z</time>
      </trkpt>
      <trkpt lat="48.2131" lon="6.68648">
        <ele>562.40002441406</ele>
        <time>2026-09-03T12:43:21.000Z</time>
      </trkpt>
      <trkpt lat="48.21311" lon="6.68649">
        <ele>562.40002441406</ele>
        <time>2026-09-03T12:43:22.000Z</time>
      </trkpt>
      <trkpt lat="48.21312" lon="6.6865">
        <ele>562.40002441406</ele>
        <time>2026-09-03T12:43:23.000Z</time>
      </trkpt>
      <trkpt lat="48.21313" lon="6.68652">
        <ele>562.40002441406</ele>
        <time>2026-09-03T12:43:24.000Z</time>
      </trkpt>
      <trkpt lat="48.21313" lon="6.68653">
        <ele>562.40002441406</ele>
        <time>2026-09-03T12:43:25.000Z</time>
      </trkpt>
      <trkpt lat="48.21314" lon="6.68655">
        <ele>562.40002441406</ele>
        <time>2026-09-03T12:43:26.000Z</time>
      </trkpt>
      <trkpt lat="48.21315" lon="6.68656">
        <ele>562.40002441406</ele>
        <time>2026-09-03T12:43:27.000Z</time>
      </trkpt>
      <trkpt lat="48.21316" lon="6.68658">
        <ele>562.40002441406</ele>
        <time>2026-09-03T12:43:28.000Z</time>
      </trkpt>
      <trkpt lat="48.21316" lon="6.68658">
        <ele>562.40002441406</ele>
        <time>2026-09-03T12:43:29.000Z</time>
      </trkpt>
      <trkpt lat="48.21316" lon="6.68659">
        <ele>562.40002441406</ele>
        <time>2026-09-03T12:43:30.000Z</time>
      </trkpt>
      <trkpt lat="48.21317" lon="6.6866">
        <ele>562.40002441406</ele>
        <time>2026-09-03T12:43:31.000Z</time>
      </trkpt>
      <trkpt lat="48.21317" lon="6.68661">
        <ele>562.40002441406</ele>
        <time>2026-09-03T12:43:32.000Z</time>
      </trkpt>
      <trkpt lat="48.21317" lon="6.68662">
        <ele>562.40002441406</ele>
        <time>2026-09-03T12:43:33.000Z</time>
      </trkpt>
      <trkpt lat="48.21318" lon="6.68663">
        <ele>562.40002441406</ele>
        <time>2026-09-03T12:43:34.000Z</time>
      </trkpt>
      <trkpt lat="48.21319" lon="6.68664">
        <ele>562.40002441406</ele>
        <time>2026-09-03T12:43:35.000Z</time>
      </trkpt>
      <trkpt lat="48.2132" lon="6.68665">
        <ele>562.40002441406</ele>
        <time>2026-09-03T12:43:36.000Z</time>
      </trkpt>
      <trkpt lat="48.21321" lon="6.68666">
        <ele>562.19995117188</ele>
        <time>2026-09-03T12:43:37.000Z</time>
      </trkpt>
      <trkpt lat="48.21321" lon="6.68667">
        <ele>562.19995117188</ele>
        <time>2026-09-03T12:43:38.000Z</time>
      </trkpt>
      <trkpt lat="48.21322" lon="6.68669">
        <ele>562.19995117188</ele>
        <time>2026-09-03T12:43:39.000Z</time>
      </trkpt>
      <trkpt lat="48.21323" lon="6.6867">
        <ele>562.19995117188</ele>
        <time>2026-09-03T12:43:40.000Z</time>
      </trkpt>
      <trkpt lat="48.21325" lon="6.68672">
        <ele>562.19995117188</ele>
        <time>2026-09-03T12:43:41.000Z</time>
      </trkpt>
      <trkpt lat="48.21325" lon="6.68673">
        <ele>562</ele>
        <time>2026-09-03T12:43:42.000Z</time>
      </trkpt>
      <trkpt lat="48.21325" lon="6.68673">
        <ele>562</ele>
        <time>2026-09-03T12:43:43.000Z</time>
      </trkpt>
      <trkpt lat="48.21326" lon="6.68675">
        <ele>562</ele>
        <time>2026-09-03T12:43:44.000Z</time>
      </trkpt>
      <trkpt lat="48.21327" lon="6.68676">
        <ele>561.80004882812</ele>
        <time>2026-09-03T12:43:45.000Z</time>
      </trkpt>
      <trkpt lat="48.21328" lon="6.68677">
        <ele>561.80004882812</ele>
        <time>2026-09-03T12:43:46.000Z</time>
      </trkpt>
      <trkpt lat="48.21329" lon="6.68678">
        <ele>561.80004882812</ele>
        <time>2026-09-03T12:43:47.000Z</time>
      </trkpt>
      <trkpt lat="48.2133" lon="6.6868">
        <ele>562</ele>
        <time>2026-09-03T12:43:48.000Z</time>
      </trkpt>
      <trkpt lat="48.2133" lon="6.6868">
        <ele>562</ele>
        <time>2026-09-03T12:43:49.000Z</time>
      </trkpt>
      <trkpt lat="48.21331" lon="6.68681">
        <ele>562</ele>
        <time>2026-09-03T12:43:50.000Z</time>
      </trkpt>
      <trkpt lat="48.21331" lon="6.68682">
        <ele>562</ele>
        <time>2026-09-03T12:43:51.000Z</time>
      </trkpt>
      <trkpt lat="48.21332" lon="6.68683">
        <ele>562</ele>
        <time>2026-09-03T12:43:52.000Z</time>
      </trkpt>
      <trkpt lat="48.21333" lon="6.68685">
        <ele>562</ele>
        <time>2026-09-03T12:43:53.000Z</time>
      </trkpt>
      <trkpt lat="48.21334" lon="6.68687">
        <ele>562</ele>
        <time>2026-09-03T12:43:54.000Z</time>
      </trkpt>
      <trkpt lat="48.21335" lon="6.68688">
        <ele>561.80004882812</ele>
        <time>2026-09-03T12:43:55.000Z</time>
      </trkpt>
      <trkpt lat="48.21335" lon="6.6869">
        <ele>561.80004882812</ele>
        <time>2026-09-03T12:43:56.000Z</time>
      </trkpt>
      <trkpt lat="48.21336" lon="6.68691">
        <ele>561.80004882812</ele>
        <time>2026-09-03T12:43:57.000Z</time>
      </trkpt>
      <trkpt lat="48.21337" lon="6.68692">
        <ele>561.80004882812</ele>
        <time>2026-09-03T12:43:58.000Z</time>
      </trkpt>
      <trkpt lat="48.21337" lon="6.68693">
        <ele>561.80004882812</ele>
        <time>2026-09-03T12:43:59.000Z</time>
      </trkpt>
      <trkpt lat="48.21338" lon="6.68694">
        <ele>561.80004882812</ele>
        <time>2026-09-03T12:44:00.000Z</time>
      </trkpt>
      <trkpt lat="48.21338" lon="6.68695">
        <ele>561.80004882812</ele>
        <time>2026-09-03T12:44:01.000Z</time>
      </trkpt>
      <trkpt lat="48.21339" lon="6.68696">
        <ele>561.80004882812</ele>
        <time>2026-09-03T12:44:02.000Z</time>
      </trkpt>
      <trkpt lat="48.21339" lon="6.68698">
        <ele>561.80004882812</ele>
        <time>2026-09-03T12:44:03.000Z</time>
      </trkpt>
      <trkpt lat="48.2134" lon="6.68699">
        <ele>561.80004882812</ele>
        <time>2026-09-03T12:44:04.000Z</time>
      </trkpt>
      <trkpt lat="48.21341" lon="6.68701">
        <ele>561.80004882812</ele>
        <time>2026-09-03T12:44:05.000Z</time>
      </trkpt>
      <trkpt lat="48.21341" lon="6.68702">
        <ele>561.80004882812</ele>
        <time>2026-09-03T12:44:06.000Z</time>
      </trkpt>
      <trkpt lat="48.21341" lon="6.68704">
        <ele>561.80004882812</ele>
        <time>2026-09-03T12:44:07.000Z</time>
      </trkpt>
      <trkpt lat="48.21342" lon="6.68705">
        <ele>561.59997558594</ele>
        <time>2026-09-03T12:44:08.000Z</time>
      </trkpt>
      <trkpt lat="48.21343" lon="6.68706">
        <ele>561.59997558594</ele>
        <time>2026-09-03T12:44:09.000Z</time>
      </trkpt>
      <trkpt lat="48.21344" lon="6.68707">
        <ele>561.59997558594</ele>
        <time>2026-09-03T12:44:10.000Z</time>
      </trkpt>
      <trkpt lat="48.21344" lon="6.68709">
        <ele>561.59997558594</ele>
        <time>2026-09-03T12:44:11.000Z</time>
      </trkpt>
      <trkpt lat="48.21345" lon="6.68709">
        <ele>561.59997558594</ele>
        <time>2026-09-03T12:44:12.000Z</time>
      </trkpt>
      <trkpt lat="48.21345" lon="6.68711">
        <ele>561.59997558594</ele>
        <time>2026-09-03T12:44:13.000Z</time>
      </trkpt>
      <trkpt lat="48.21346" lon="6.68712">
        <ele>561.59997558594</ele>
        <time>2026-09-03T12:44:14.000Z</time>
      </trkpt>
      <trkpt lat="48.21347" lon="6.68713">
        <ele>561.40002441406</ele>
        <time>2026-09-03T12:44:15.000Z</time>
      </trkpt>
      <trkpt lat="48.21348" lon="6.68715">
        <ele>561.40002441406</ele>
        <time>2026-09-03T12:44:16.000Z</time>
      </trkpt>
      <trkpt lat="48.21348" lon="6.68716">
        <ele>561.40002441406</ele>
        <time>2026-09-03T12:44:17.000Z</time>
      </trkpt>
      <trkpt lat="48.21348" lon="6.68717">
        <ele>561.40002441406</ele>
        <time>2026-09-03T12:44:18.000Z</time>
      </trkpt>
      <trkpt lat="48.21349" lon="6.68719">
        <ele>561.40002441406</ele>
        <time>2026-09-03T12:44:19.000Z</time>
      </trkpt>
      <trkpt lat="48.2135" lon="6.6872">
        <ele>561.40002441406</ele>
        <time>2026-09-03T12:44:20.000Z</time>
      </trkpt>
      <trkpt lat="48.2135" lon="6.68721">
        <ele>561.40002441406</ele>
        <time>2026-09-03T12:44:21.000Z</time>
      </trkpt>
      <trkpt lat="48.21351" lon="6.68723">
        <ele>561.40002441406</ele>
        <time>2026-09-03T12:44:22.000Z</time>
      </trkpt>
      <trkpt lat="48.21352" lon="6.68725">
        <ele>561.40002441406</ele>
        <time>2026-09-03T12:44:23.000Z</time>
      </trkpt>
      <trkpt lat="48.21353" lon="6.68727">
        <ele>561.40002441406</ele>
        <time>2026-09-03T12:44:24.000Z</time>
      </trkpt>
      <trkpt lat="48.21354" lon="6.68729">
        <ele>561.40002441406</ele>
        <time>2026-09-03T12:44:25.000Z</time>
      </trkpt>
      <trkpt lat="48.21354" lon="6.68731">
        <ele>561.40002441406</ele>
        <time>2026-09-03T12:44:26.000Z</time>
      </trkpt>
      <trkpt lat="48.21355" lon="6.68733">
        <ele>561.40002441406</ele>
        <time>2026-09-03T12:44:27.000Z</time>
      </trkpt>
      <trkpt lat="48.21355" lon="6.68735">
        <ele>561.40002441406</ele>
        <time>2026-09-03T12:44:28.000Z</time>
      </trkpt>
      <trkpt lat="48.21356" lon="6.68736">
        <ele>561.40002441406</ele>
        <time>2026-09-03T12:44:29.000Z</time>
      </trkpt>
      <trkpt lat="48.21357" lon="6.68738">
        <ele>561.40002441406</ele>
        <time>2026-09-03T12:44:30.000Z</time>
      </trkpt>
      <trkpt lat="48.21357" lon="6.6874">
        <ele>561.19995117188</ele>
        <time>2026-09-03T12:44:31.000Z</time>
      </trkpt>
      <trkpt lat="48.21358" lon="6.68741">
        <ele>561.19995117188</ele>
        <time>2026-09-03T12:44:32.000Z</time>
      </trkpt>
      <trkpt lat="48.21358" lon="6.68743">
        <ele>561.19995117188</ele>
        <time>2026-09-03T12:44:33.000Z</time>
      </trkpt>
      <trkpt lat="48.21359" lon="6.68744">
        <ele>561.19995117188</ele>
        <time>2026-09-03T12:44:34.000Z</time>
      </trkpt>
      <trkpt lat="48.21359" lon="6.68745">
        <ele>561.19995117188</ele>
        <time>2026-09-03T12:44:35.000Z</time>
      </trkpt>
      <trkpt lat="48.2136" lon="6.68746">
        <ele>561.19995117188</ele>
        <time>2026-09-03T12:44:36.000Z</time>
      </trkpt>
      <trkpt lat="48.2136" lon="6.68748">
        <ele>561</ele>
        <time>2026-09-03T12:44:37.000Z</time>
      </trkpt>
      <trkpt lat="48.21361" lon="6.6875">
        <ele>561.19995117188</ele>
        <time>2026-09-03T12:44:38.000Z</time>
      </trkpt>
      <trkpt lat="48.21361" lon="6.68753">
        <ele>561.19995117188</ele>
        <time>2026-09-03T12:44:39.000Z</time>
      </trkpt>
      <trkpt lat="48.21361" lon="6.68754">
        <ele>561.19995117188</ele>
        <time>2026-09-03T12:44:40.000Z</time>
      </trkpt>
      <trkpt lat="48.21362" lon="6.68755">
        <ele>561.19995117188</ele>
        <time>2026-09-03T12:44:41.000Z</time>
      </trkpt>
      <trkpt lat="48.21362" lon="6.68757">
        <ele>561.19995117188</ele>
        <time>2026-09-03T12:44:42.000Z</time>
      </trkpt>
      <trkpt lat="48.21362" lon="6.68758">
        <ele>561.19995117188</ele>
        <time>2026-09-03T12:44:43.000Z</time>
      </trkpt>
      <trkpt lat="48.21362" lon="6.6876">
        <ele>561.19995117188</ele>
        <time>2026-09-03T12:44:44.000Z</time>
      </trkpt>
      <trkpt lat="48.21362" lon="6.68762">
        <ele>561.19995117188</ele>
        <time>2026-09-03T12:44:45.000Z</time>
      </trkpt>
      <trkpt lat="48.21362" lon="6.68763">
        <ele>561</ele>
        <time>2026-09-03T12:44:46.000Z</time>
      </trkpt>
      <trkpt lat="48.21362" lon="6.68765">
        <ele>561</ele>
        <time>2026-09-03T12:44:47.000Z</time>
      </trkpt>
      <trkpt lat="48.21362" lon="6.68767">
        <ele>561</ele>
        <time>2026-09-03T12:44:48.000Z</time>
      </trkpt>
      <trkpt lat="48.21363" lon="6.68768">
        <ele>561</ele>
        <time>2026-09-03T12:44:49.000Z</time>
      </trkpt>
      <trkpt lat="48.21363" lon="6.6877">
        <ele>561</ele>
        <time>2026-09-03T12:44:50.000Z</time>
      </trkpt>
      <trkpt lat="48.21364" lon="6.68771">
        <ele>561</ele>
        <time>2026-09-03T12:44:51.000Z</time>
      </trkpt>
      <trkpt lat="48.21364" lon="6.68773">
        <ele>561</ele>
        <time>2026-09-03T12:44:52.000Z</time>
      </trkpt>
      <trkpt lat="48.21365" lon="6.68775">
        <ele>561</ele>
        <time>2026-09-03T12:44:53.000Z</time>
      </trkpt>
      <trkpt lat="48.21366" lon="6.68776">
        <ele>561</ele>
        <time>2026-09-03T12:44:54.000Z</time>
      </trkpt>
      <trkpt lat="48.21366" lon="6.68778">
        <ele>561</ele>
        <time>2026-09-03T12:44:55.000Z</time>
      </trkpt>
      <trkpt lat="48.21367" lon="6.68778">
        <ele>560.80004882812</ele>
        <time>2026-09-03T12:44:56.000Z</time>
      </trkpt>
      <trkpt lat="48.21367" lon="6.6878">
        <ele>560.80004882812</ele>
        <time>2026-09-03T12:44:57.000Z</time>
      </trkpt>
      <trkpt lat="48.21367" lon="6.68781">
        <ele>560.80004882812</ele>
        <time>2026-09-03T12:44:58.000Z</time>
      </trkpt>
      <trkpt lat="48.21368" lon="6.68783">
        <ele>560.59997558594</ele>
        <time>2026-09-03T12:44:59.000Z</time>
      </trkpt>
      <trkpt lat="48.21369" lon="6.68784">
        <ele>560.59997558594</ele>
        <time>2026-09-03T12:45:00.000Z</time>
      </trkpt>
      <trkpt lat="48.2137" lon="6.68786">
        <ele>560.80004882812</ele>
        <time>2026-09-03T12:45:01.000Z</time>
      </trkpt>
      <trkpt lat="48.21371" lon="6.68788">
        <ele>560.80004882812</ele>
        <time>2026-09-03T12:45:02.000Z</time>
      </trkpt>
      <trkpt lat="48.21372" lon="6.6879">
        <ele>560.80004882812</ele>
        <time>2026-09-03T12:45:03.000Z</time>
      </trkpt>
      <trkpt lat="48.21372" lon="6.68791">
        <ele>560.80004882812</ele>
        <time>2026-09-03T12:45:04.000Z</time>
      </trkpt>
      <trkpt lat="48.21373" lon="6.68792">
        <ele>560.80004882812</ele>
        <time>2026-09-03T12:45:05.000Z</time>
      </trkpt>
      <trkpt lat="48.21373" lon="6.68793">
        <ele>560.80004882812</ele>
        <time>2026-09-03T12:45:06.000Z</time>
      </trkpt>
      <trkpt lat="48.21375" lon="6.68795">
        <ele>560.80004882812</ele>
        <time>2026-09-03T12:45:07.000Z</time>
      </trkpt>
      <trkpt lat="48.21375" lon="6.68797">
        <ele>560.80004882812</ele>
        <time>2026-09-03T12:45:08.000Z</time>
      </trkpt>
      <trkpt lat="48.21376" lon="6.68798">
        <ele>560.59997558594</ele>
        <time>2026-09-03T12:45:09.000Z</time>
      </trkpt>
      <trkpt lat="48.21376" lon="6.68798">
        <ele>560.59997558594</ele>
        <time>2026-09-03T12:45:10.000Z</time>
      </trkpt>
      <trkpt lat="48.21377" lon="6.68799">
        <ele>560.40002441406</ele>
        <time>2026-09-03T12:45:11.000Z</time>
      </trkpt>
      <trkpt lat="48.21378" lon="6.688">
        <ele>560.40002441406</ele>
        <time>2026-09-03T12:45:12.000Z</time>
      </trkpt>
      <trkpt lat="48.21378" lon="6.68801">
        <ele>560.19995117188</ele>
        <time>2026-09-03T12:45:13.000Z</time>
      </trkpt>
      <trkpt lat="48.21379" lon="6.68803">
        <ele>560.19995117188</ele>
        <time>2026-09-03T12:45:14.000Z</time>
      </trkpt>
      <trkpt lat="48.2138" lon="6.68804">
        <ele>560.19995117188</ele>
        <time>2026-09-03T12:45:15.000Z</time>
      </trkpt>
      <trkpt lat="48.2138" lon="6.68806">
        <ele>560.19995117188</ele>
        <time>2026-09-03T12:45:16.000Z</time>
      </trkpt>
      <trkpt lat="48.21381" lon="6.68808">
        <ele>560</ele>
        <time>2026-09-03T12:45:17.000Z</time>
      </trkpt>
      <trkpt lat="48.21381" lon="6.68809">
        <ele>560</ele>
        <time>2026-09-03T12:45:18.000Z</time>
      </trkpt>
      <trkpt lat="48.21382" lon="6.6881">
        <ele>560</ele>
        <time>2026-09-03T12:45:19.000Z</time>
      </trkpt>
      <trkpt lat="48.21382" lon="6.68811">
        <ele>559.80004882812</ele>
        <time>2026-09-03T12:45:20.000Z</time>
      </trkpt>
      <trkpt lat="48.21383" lon="6.68813">
        <ele>559.80004882812</ele>
        <time>2026-09-03T12:45:21.000Z</time>
      </trkpt>
      <trkpt lat="48.21384" lon="6.68815">
        <ele>559.80004882812</ele>
        <time>2026-09-03T12:45:22.000Z</time>
      </trkpt>
      <trkpt lat="48.21385" lon="6.68816">
        <ele>559.80004882812</ele>
        <time>2026-09-03T12:45:23.000Z</time>
      </trkpt>
      <trkpt lat="48.21385" lon="6.68817">
        <ele>559.59997558594</ele>
        <time>2026-09-03T12:45:24.000Z</time>
      </trkpt>
      <trkpt lat="48.21386" lon="6.68818">
        <ele>559.59997558594</ele>
        <time>2026-09-03T12:45:25.000Z</time>
      </trkpt>
      <trkpt lat="48.21387" lon="6.68819">
        <ele>559.59997558594</ele>
        <time>2026-09-03T12:45:26.000Z</time>
      </trkpt>
      <trkpt lat="48.21388" lon="6.68821">
        <ele>559.59997558594</ele>
        <time>2026-09-03T12:45:27.000Z</time>
      </trkpt>
      <trkpt lat="48.21389" lon="6.68822">
        <ele>559.59997558594</ele>
        <time>2026-09-03T12:45:28.000Z</time>
      </trkpt>
      <trkpt lat="48.21389" lon="6.68823">
        <ele>559.40002441406</ele>
        <time>2026-09-03T12:45:29.000Z</time>
      </trkpt>
      <trkpt lat="48.2139" lon="6.68824">
        <ele>559.40002441406</ele>
        <time>2026-09-03T12:45:30.000Z</time>
      </trkpt>
      <trkpt lat="48.21391" lon="6.68826">
        <ele>559.19995117188</ele>
        <time>2026-09-03T12:45:31.000Z</time>
      </trkpt>
      <trkpt lat="48.21391" lon="6.68827">
        <ele>559.19995117188</ele>
        <time>2026-09-03T12:45:32.000Z</time>
      </trkpt>
      <trkpt lat="48.21392" lon="6.68828">
        <ele>559</ele>
        <time>2026-09-03T12:45:33.000Z</time>
      </trkpt>
      <trkpt lat="48.21392" lon="6.6883">
        <ele>558.80004882812</ele>
        <time>2026-09-03T12:45:34.000Z</time>
      </trkpt>
      <trkpt lat="48.21393" lon="6.6883">
        <ele>558.80004882812</ele>
        <time>2026-09-03T12:45:35.000Z</time>
      </trkpt>
      <trkpt lat="48.21394" lon="6.68831">
        <ele>558.59997558594</ele>
        <time>2026-09-03T12:45:36.000Z</time>
      </trkpt>
      <trkpt lat="48.21394" lon="6.68832">
        <ele>558.59997558594</ele>
        <time>2026-09-03T12:45:37.000Z</time>
      </trkpt>
      <trkpt lat="48.21394" lon="6.68833">
        <ele>558.59997558594</ele>
        <time>2026-09-03T12:45:38.000Z</time>
      </trkpt>
      <trkpt lat="48.21395" lon="6.68834">
        <ele>558.40002441406</ele>
        <time>2026-09-03T12:45:39.000Z</time>
      </trkpt>
      <trkpt lat="48.21396" lon="6.68835">
        <ele>558.40002441406</ele>
        <time>2026-09-03T12:45:40.000Z</time>
      </trkpt>
      <trkpt lat="48.21397" lon="6.68836">
        <ele>558.40002441406</ele>
        <time>2026-09-03T12:45:41.000Z</time>
      </trkpt>
      <trkpt lat="48.21398" lon="6.68838">
        <ele>558.19995117188</ele>
        <time>2026-09-03T12:45:42.000Z</time>
      </trkpt>
      <trkpt lat="48.21399" lon="6.68839">
        <ele>558.19995117188</ele>
        <time>2026-09-03T12:45:43.000Z</time>
      </trkpt>
      <trkpt lat="48.214" lon="6.6884">
        <ele>558.19995117188</ele>
        <time>2026-09-03T12:45:44.000Z</time>
      </trkpt>
      <trkpt lat="48.21401" lon="6.68841">
        <ele>558</ele>
        <time>2026-09-03T12:45:45.000Z</time>
      </trkpt>
      <trkpt lat="48.21401" lon="6.68842">
        <ele>558</ele>
        <time>2026-09-03T12:45:46.000Z</time>
      </trkpt>
      <trkpt lat="48.21402" lon="6.68843">
        <ele>558</ele>
        <time>2026-09-03T12:45:47.000Z</time>
      </trkpt>
      <trkpt lat="48.21403" lon="6.68843">
        <ele>558</ele>
        <time>2026-09-03T12:45:48.000Z</time>
      </trkpt>
      <trkpt lat="48.21403" lon="6.68844">
        <ele>557.80004882812</ele>
        <time>2026-09-03T12:45:49.000Z</time>
      </trkpt>
      <trkpt lat="48.21404" lon="6.68847">
        <ele>557.80004882812</ele>
        <time>2026-09-03T12:45:50.000Z</time>
      </trkpt>
      <trkpt lat="48.21406" lon="6.68848">
        <ele>557.59997558594</ele>
        <time>2026-09-03T12:45:51.000Z</time>
      </trkpt>
      <trkpt lat="48.21407" lon="6.6885">
        <ele>557.59997558594</ele>
        <time>2026-09-03T12:45:52.000Z</time>
      </trkpt>
      <trkpt lat="48.21407" lon="6.68851">
        <ele>557.59997558594</ele>
        <time>2026-09-03T12:45:53.000Z</time>
      </trkpt>
      <trkpt lat="48.21408" lon="6.68852">
        <ele>557.59997558594</ele>
        <time>2026-09-03T12:45:54.000Z</time>
      </trkpt>
      <trkpt lat="48.21409" lon="6.68854">
        <ele>557.59997558594</ele>
        <time>2026-09-03T12:45:55.000Z</time>
      </trkpt>
      <trkpt lat="48.2141" lon="6.68855">
        <ele>557.40002441406</ele>
        <time>2026-09-03T12:45:56.000Z</time>
      </trkpt>
      <trkpt lat="48.21411" lon="6.68856">
        <ele>557.19995117188</ele>
        <time>2026-09-03T12:45:57.000Z</time>
      </trkpt>
      <trkpt lat="48.21412" lon="6.68858">
        <ele>557.19995117188</ele>
        <time>2026-09-03T12:45:58.000Z</time>
      </trkpt>
      <trkpt lat="48.21412" lon="6.68859">
        <ele>557</ele>
        <time>2026-09-03T12:45:59.000Z</time>
      </trkpt>
      <trkpt lat="48.21413" lon="6.6886">
        <ele>557</ele>
        <time>2026-09-03T12:46:00.000Z</time>
      </trkpt>
      <trkpt lat="48.21414" lon="6.68861">
        <ele>557</ele>
        <time>2026-09-03T12:46:01.000Z</time>
      </trkpt>
      <trkpt lat="48.21415" lon="6.68862">
        <ele>556.80004882812</ele>
        <time>2026-09-03T12:46:02.000Z</time>
      </trkpt>
      <trkpt lat="48.21416" lon="6.68863">
        <ele>556.80004882812</ele>
        <time>2026-09-03T12:46:03.000Z</time>
      </trkpt>
      <trkpt lat="48.21417" lon="6.68864">
        <ele>556.80004882812</ele>
        <time>2026-09-03T12:46:04.000Z</time>
      </trkpt>
      <trkpt lat="48.21418" lon="6.68865">
        <ele>556.80004882812</ele>
        <time>2026-09-03T12:46:05.000Z</time>
      </trkpt>
      <trkpt lat="48.21418" lon="6.68866">
        <ele>556.59997558594</ele>
        <time>2026-09-03T12:46:06.000Z</time>
      </trkpt>
      <trkpt lat="48.2142" lon="6.68868">
        <ele>556.59997558594</ele>
        <time>2026-09-03T12:46:07.000Z</time>
      </trkpt>
      <trkpt lat="48.2142" lon="6.6887">
        <ele>556.59997558594</ele>
        <time>2026-09-03T12:46:08.000Z</time>
      </trkpt>
      <trkpt lat="48.21422" lon="6.68871">
        <ele>556.40002441406</ele>
        <time>2026-09-03T12:46:09.000Z</time>
      </trkpt>
      <trkpt lat="48.21423" lon="6.68873">
        <ele>556.19995117188</ele>
        <time>2026-09-03T12:46:10.000Z</time>
      </trkpt>
      <trkpt lat="48.21423" lon="6.68875">
        <ele>556.19995117188</ele>
        <time>2026-09-03T12:46:11.000Z</time>
      </trkpt>
      <trkpt lat="48.21424" lon="6.68876">
        <ele>556</ele>
        <time>2026-09-03T12:46:12.000Z</time>
      </trkpt>
      <trkpt lat="48.21424" lon="6.68878">
        <ele>555.80004882812</ele>
        <time>2026-09-03T12:46:13.000Z</time>
      </trkpt>
      <trkpt lat="48.21425" lon="6.6888">
        <ele>555.80004882812</ele>
        <time>2026-09-03T12:46:14.000Z</time>
      </trkpt>
      <trkpt lat="48.21425" lon="6.68882">
        <ele>555.59997558594</ele>
        <time>2026-09-03T12:46:15.000Z</time>
      </trkpt>
      <trkpt lat="48.21426" lon="6.68884">
        <ele>555.59997558594</ele>
        <time>2026-09-03T12:46:16.000Z</time>
      </trkpt>
      <trkpt lat="48.21427" lon="6.68886">
        <ele>555.59997558594</ele>
        <time>2026-09-03T12:46:17.000Z</time>
      </trkpt>
      <trkpt lat="48.21427" lon="6.68888">
        <ele>555.59997558594</ele>
        <time>2026-09-03T12:46:18.000Z</time>
      </trkpt>
      <trkpt lat="48.21427" lon="6.68889">
        <ele>555.59997558594</ele>
        <time>2026-09-03T12:46:19.000Z</time>
      </trkpt>
      <trkpt lat="48.21427" lon="6.68891">
        <ele>555.59997558594</ele>
        <time>2026-09-03T12:46:20.000Z</time>
      </trkpt>
      <trkpt lat="48.21428" lon="6.68893">
        <ele>555.59997558594</ele>
        <time>2026-09-03T12:46:21.000Z</time>
      </trkpt>
      <trkpt lat="48.21428" lon="6.68894">
        <ele>555.40002441406</ele>
        <time>2026-09-03T12:46:22.000Z</time>
      </trkpt>
      <trkpt lat="48.21428" lon="6.68896">
        <ele>555.40002441406</ele>
        <time>2026-09-03T12:46:23.000Z</time>
      </trkpt>
      <trkpt lat="48.21429" lon="6.68899">
        <ele>555.19995117188</ele>
        <time>2026-09-03T12:46:24.000Z</time>
      </trkpt>
      <trkpt lat="48.21429" lon="6.68901">
        <ele>555</ele>
        <time>2026-09-03T12:46:25.000Z</time>
      </trkpt>
      <trkpt lat="48.2143" lon="6.68903">
        <ele>555</ele>
        <time>2026-09-03T12:46:26.000Z</time>
      </trkpt>
      <trkpt lat="48.21431" lon="6.68904">
        <ele>554.80004882812</ele>
        <time>2026-09-03T12:46:27.000Z</time>
      </trkpt>
      <trkpt lat="48.21432" lon="6.68906">
        <ele>554.80004882812</ele>
        <time>2026-09-03T12:46:28.000Z</time>
      </trkpt>
      <trkpt lat="48.21432" lon="6.68906">
        <ele>554.59997558594</ele>
        <time>2026-09-03T12:46:29.000Z</time>
      </trkpt>
      <trkpt lat="48.21433" lon="6.68908">
        <ele>554.40002441406</ele>
        <time>2026-09-03T12:46:30.000Z</time>
      </trkpt>
      <trkpt lat="48.21434" lon="6.68909">
        <ele>554.40002441406</ele>
        <time>2026-09-03T12:46:31.000Z</time>
      </trkpt>
      <trkpt lat="48.21434" lon="6.6891">
        <ele>554.19995117188</ele>
        <time>2026-09-03T12:46:32.000Z</time>
      </trkpt>
      <trkpt lat="48.21435" lon="6.68912">
        <ele>554</ele>
        <time>2026-09-03T12:46:33.000Z</time>
      </trkpt>
      <trkpt lat="48.21435" lon="6.68913">
        <ele>554</ele>
        <time>2026-09-03T12:46:34.000Z</time>
      </trkpt>
      <trkpt lat="48.21436" lon="6.68914">
        <ele>554</ele>
        <time>2026-09-03T12:46:35.000Z</time>
      </trkpt>
      <trkpt lat="48.21437" lon="6.68916">
        <ele>553.80004882812</ele>
        <time>2026-09-03T12:46:36.000Z</time>
      </trkpt>
      <trkpt lat="48.21437" lon="6.68916">
        <ele>553.80004882812</ele>
        <time>2026-09-03T12:46:37.000Z</time>
      </trkpt>
      <trkpt lat="48.21438" lon="6.68917">
        <ele>553.59997558594</ele>
        <time>2026-09-03T12:46:38.000Z</time>
      </trkpt>
      <trkpt lat="48.21438" lon="6.68918">
        <ele>553.59997558594</ele>
        <time>2026-09-03T12:46:39.000Z</time>
      </trkpt>
      <trkpt lat="48.21439" lon="6.68919">
        <ele>553.59997558594</ele>
        <time>2026-09-03T12:46:40.000Z</time>
      </trkpt>
      <trkpt lat="48.21439" lon="6.6892">
        <ele>553.59997558594</ele>
        <time>2026-09-03T12:46:41.000Z</time>
      </trkpt>
      <trkpt lat="48.2144" lon="6.68921">
        <ele>553.59997558594</ele>
        <time>2026-09-03T12:46:42.000Z</time>
      </trkpt>
      <trkpt lat="48.21441" lon="6.68923">
        <ele>553.59997558594</ele>
        <time>2026-09-03T12:46:43.000Z</time>
      </trkpt>
      <trkpt lat="48.21442" lon="6.68924">
        <ele>553.59997558594</ele>
        <time>2026-09-03T12:46:44.000Z</time>
      </trkpt>
      <trkpt lat="48.21443" lon="6.68926">
        <ele>553.40002441406</ele>
        <time>2026-09-03T12:46:45.000Z</time>
      </trkpt>
      <trkpt lat="48.21443" lon="6.68927">
        <ele>553.40002441406</ele>
        <time>2026-09-03T12:46:46.000Z</time>
      </trkpt>
      <trkpt lat="48.21444" lon="6.68929">
        <ele>553.19995117188</ele>
        <time>2026-09-03T12:46:47.000Z</time>
      </trkpt>
      <trkpt lat="48.21445" lon="6.68931">
        <ele>553.19995117188</ele>
        <time>2026-09-03T12:46:48.000Z</time>
      </trkpt>
      <trkpt lat="48.21446" lon="6.68932">
        <ele>553.19995117188</ele>
        <time>2026-09-03T12:46:49.000Z</time>
      </trkpt>
      <trkpt lat="48.21446" lon="6.68934">
        <ele>553.19995117188</ele>
        <time>2026-09-03T12:46:50.000Z</time>
      </trkpt>
      <trkpt lat="48.21447" lon="6.68936">
        <ele>553.19995117188</ele>
        <time>2026-09-03T12:46:51.000Z</time>
      </trkpt>
      <trkpt lat="48.21448" lon="6.68937">
        <ele>553.19995117188</ele>
        <time>2026-09-03T12:46:52.000Z</time>
      </trkpt>
      <trkpt lat="48.21449" lon="6.68938">
        <ele>553.19995117188</ele>
        <time>2026-09-03T12:46:53.000Z</time>
      </trkpt>
      <trkpt lat="48.2145" lon="6.68939">
        <ele>553.19995117188</ele>
        <time>2026-09-03T12:46:54.000Z</time>
      </trkpt>
      <trkpt lat="48.21451" lon="6.6894">
        <ele>553</ele>
        <time>2026-09-03T12:46:55.000Z</time>
      </trkpt>
      <trkpt lat="48.21452" lon="6.68941">
        <ele>553</ele>
        <time>2026-09-03T12:46:56.000Z</time>
      </trkpt>
      <trkpt lat="48.21453" lon="6.68942">
        <ele>553</ele>
        <time>2026-09-03T12:46:57.000Z</time>
      </trkpt>
      <trkpt lat="48.21453" lon="6.68944">
        <ele>553</ele>
        <time>2026-09-03T12:46:58.000Z</time>
      </trkpt>
      <trkpt lat="48.21455" lon="6.68946">
        <ele>553</ele>
        <time>2026-09-03T12:46:59.000Z</time>
      </trkpt>
      <trkpt lat="48.21456" lon="6.68948">
        <ele>553</ele>
        <time>2026-09-03T12:47:00.000Z</time>
      </trkpt>
      <trkpt lat="48.21456" lon="6.68949">
        <ele>553</ele>
        <time>2026-09-03T12:47:01.000Z</time>
      </trkpt>
      <trkpt lat="48.21457" lon="6.68951">
        <ele>553</ele>
        <time>2026-09-03T12:47:02.000Z</time>
      </trkpt>
      <trkpt lat="48.21458" lon="6.68953">
        <ele>553</ele>
        <time>2026-09-03T12:47:03.000Z</time>
      </trkpt>
      <trkpt lat="48.21459" lon="6.68954">
        <ele>553</ele>
        <time>2026-09-03T12:47:04.000Z</time>
      </trkpt>
      <trkpt lat="48.21459" lon="6.68955">
        <ele>553</ele>
        <time>2026-09-03T12:47:05.000Z</time>
      </trkpt>
      <trkpt lat="48.2146" lon="6.68956">
        <ele>552.80004882812</ele>
        <time>2026-09-03T12:47:06.000Z</time>
      </trkpt>
      <trkpt lat="48.21461" lon="6.68958">
        <ele>552.80004882812</ele>
        <time>2026-09-03T12:47:07.000Z</time>
      </trkpt>
      <trkpt lat="48.21461" lon="6.68959">
        <ele>552.80004882812</ele>
        <time>2026-09-03T12:47:08.000Z</time>
      </trkpt>
      <trkpt lat="48.21462" lon="6.68961">
        <ele>552.80004882812</ele>
        <time>2026-09-03T12:47:09.000Z</time>
      </trkpt>
      <trkpt lat="48.21463" lon="6.68963">
        <ele>552.80004882812</ele>
        <time>2026-09-03T12:47:10.000Z</time>
      </trkpt>
      <trkpt lat="48.21464" lon="6.68965">
        <ele>552.80004882812</ele>
        <time>2026-09-03T12:47:11.000Z</time>
      </trkpt>
      <trkpt lat="48.21465" lon="6.68966">
        <ele>552.80004882812</ele>
        <time>2026-09-03T12:47:12.000Z</time>
      </trkpt>
      <trkpt lat="48.21465" lon="6.68968">
        <ele>552.80004882812</ele>
        <time>2026-09-03T12:47:13.000Z</time>
      </trkpt>
      <trkpt lat="48.21466" lon="6.68969">
        <ele>553</ele>
        <time>2026-09-03T12:47:14.000Z</time>
      </trkpt>
      <trkpt lat="48.21466" lon="6.6897">
        <ele>553</ele>
        <time>2026-09-03T12:47:15.000Z</time>
      </trkpt>
      <trkpt lat="48.21467" lon="6.68973">
        <ele>553</ele>
        <time>2026-09-03T12:47:16.000Z</time>
      </trkpt>
      <trkpt lat="48.21468" lon="6.68974">
        <ele>553</ele>
        <time>2026-09-03T12:47:17.000Z</time>
      </trkpt>
      <trkpt lat="48.21469" lon="6.68976">
        <ele>553</ele>
        <time>2026-09-03T12:47:18.000Z</time>
      </trkpt>
      <trkpt lat="48.2147" lon="6.68978">
        <ele>553</ele>
        <time>2026-09-03T12:47:19.000Z</time>
      </trkpt>
      <trkpt lat="48.2147" lon="6.68978">
        <ele>553</ele>
        <time>2026-09-03T12:47:20.000Z</time>
      </trkpt>
      <trkpt lat="48.21471" lon="6.6898">
        <ele>553</ele>
        <time>2026-09-03T12:47:21.000Z</time>
      </trkpt>
      <trkpt lat="48.21471" lon="6.68981">
        <ele>553</ele>
        <time>2026-09-03T12:47:22.000Z</time>
      </trkpt>
      <trkpt lat="48.21472" lon="6.68982">
        <ele>553.19995117188</ele>
        <time>2026-09-03T12:47:23.000Z</time>
      </trkpt>
      <trkpt lat="48.21472" lon="6.68983">
        <ele>553.19995117188</ele>
        <time>2026-09-03T12:47:24.000Z</time>
      </trkpt>
      <trkpt lat="48.21473" lon="6.68983">
        <ele>553.19995117188</ele>
        <time>2026-09-03T12:47:25.000Z</time>
      </trkpt>
      <trkpt lat="48.21474" lon="6.68983">
        <ele>553.19995117188</ele>
        <time>2026-09-03T12:47:26.000Z</time>
      </trkpt>
      <trkpt lat="48.21474" lon="6.68985">
        <ele>553.40002441406</ele>
        <time>2026-09-03T12:47:27.000Z</time>
      </trkpt>
      <trkpt lat="48.21475" lon="6.68986">
        <ele>553.40002441406</ele>
        <time>2026-09-03T12:47:28.000Z</time>
      </trkpt>
      <trkpt lat="48.21476" lon="6.68988">
        <ele>553.40002441406</ele>
        <time>2026-09-03T12:47:29.000Z</time>
      </trkpt>
      <trkpt lat="48.21477" lon="6.68989">
        <ele>553.40002441406</ele>
        <time>2026-09-03T12:47:30.000Z</time>
      </trkpt>
      <trkpt lat="48.21477" lon="6.68991">
        <ele>553.40002441406</ele>
        <time>2026-09-03T12:47:31.000Z</time>
      </trkpt>
      <trkpt lat="48.21478" lon="6.68992">
        <ele>553.40002441406</ele>
        <time>2026-09-03T12:47:32.000Z</time>
      </trkpt>
      <trkpt lat="48.21478" lon="6.68994">
        <ele>553.40002441406</ele>
        <time>2026-09-03T12:47:33.000Z</time>
      </trkpt>
      <trkpt lat="48.21478" lon="6.68995">
        <ele>553.40002441406</ele>
        <time>2026-09-03T12:47:34.000Z</time>
      </trkpt>
      <trkpt lat="48.21479" lon="6.68997">
        <ele>553.40002441406</ele>
        <time>2026-09-03T12:47:35.000Z</time>
      </trkpt>
      <trkpt lat="48.21479" lon="6.68999">
        <ele>553.40002441406</ele>
        <time>2026-09-03T12:47:36.000Z</time>
      </trkpt>
      <trkpt lat="48.21479" lon="6.69">
        <ele>553.40002441406</ele>
        <time>2026-09-03T12:47:37.000Z</time>
      </trkpt>
      <trkpt lat="48.21479" lon="6.69002">
        <ele>553.40002441406</ele>
        <time>2026-09-03T12:47:38.000Z</time>
      </trkpt>
      <trkpt lat="48.21479" lon="6.69003">
        <ele>553.40002441406</ele>
        <time>2026-09-03T12:47:39.000Z</time>
      </trkpt>
      <trkpt lat="48.2148" lon="6.69005">
        <ele>553.40002441406</ele>
        <time>2026-09-03T12:47:40.000Z</time>
      </trkpt>
      <trkpt lat="48.2148" lon="6.69007">
        <ele>553.40002441406</ele>
        <time>2026-09-03T12:47:41.000Z</time>
      </trkpt>
      <trkpt lat="48.2148" lon="6.69008">
        <ele>553.40002441406</ele>
        <time>2026-09-03T12:47:42.000Z</time>
      </trkpt>
      <trkpt lat="48.21481" lon="6.6901">
        <ele>553.40002441406</ele>
        <time>2026-09-03T12:47:43.000Z</time>
      </trkpt>
      <trkpt lat="48.21481" lon="6.69012">
        <ele>553.40002441406</ele>
        <time>2026-09-03T12:47:44.000Z</time>
      </trkpt>
      <trkpt lat="48.21482" lon="6.69013">
        <ele>553.40002441406</ele>
        <time>2026-09-03T12:47:45.000Z</time>
      </trkpt>
      <trkpt lat="48.21482" lon="6.69015">
        <ele>553.19995117188</ele>
        <time>2026-09-03T12:47:46.000Z</time>
      </trkpt>
      <trkpt lat="48.21482" lon="6.69016">
        <ele>553.19995117188</ele>
        <time>2026-09-03T12:47:47.000Z</time>
      </trkpt>
      <trkpt lat="48.21482" lon="6.69017">
        <ele>553.19995117188</ele>
        <time>2026-09-03T12:47:48.000Z</time>
      </trkpt>
      <trkpt lat="48.21483" lon="6.69019">
        <ele>553.40002441406</ele>
        <time>2026-09-03T12:47:49.000Z</time>
      </trkpt>
      <trkpt lat="48.21484" lon="6.69021">
        <ele>553.40002441406</ele>
        <time>2026-09-03T12:47:50.000Z</time>
      </trkpt>
      <trkpt lat="48.21484" lon="6.69022">
        <ele>553.40002441406</ele>
        <time>2026-09-03T12:47:51.000Z</time>
      </trkpt>
      <trkpt lat="48.21485" lon="6.69023">
        <ele>553.40002441406</ele>
        <time>2026-09-03T12:47:52.000Z</time>
      </trkpt>
      <trkpt lat="48.21485" lon="6.69025">
        <ele>553.59997558594</ele>
        <time>2026-09-03T12:47:53.000Z</time>
      </trkpt>
      <trkpt lat="48.21485" lon="6.69026">
        <ele>553.40002441406</ele>
        <time>2026-09-03T12:47:54.000Z</time>
      </trkpt>
      <trkpt lat="48.21485" lon="6.69027">
        <ele>553.59997558594</ele>
        <time>2026-09-03T12:47:55.000Z</time>
      </trkpt>
      <trkpt lat="48.21485" lon="6.69029">
        <ele>553.59997558594</ele>
        <time>2026-09-03T12:47:56.000Z</time>
      </trkpt>
      <trkpt lat="48.21485" lon="6.6903">
        <ele>553.59997558594</ele>
        <time>2026-09-03T12:47:57.000Z</time>
      </trkpt>
      <trkpt lat="48.21486" lon="6.69031">
        <ele>553.59997558594</ele>
        <time>2026-09-03T12:47:58.000Z</time>
      </trkpt>
      <trkpt lat="48.21486" lon="6.69032">
        <ele>553.80004882812</ele>
        <time>2026-09-03T12:47:59.000Z</time>
      </trkpt>
      <trkpt lat="48.21487" lon="6.69033">
        <ele>553.80004882812</ele>
        <time>2026-09-03T12:48:00.000Z</time>
      </trkpt>
      <trkpt lat="48.21487" lon="6.69035">
        <ele>553.80004882812</ele>
        <time>2026-09-03T12:48:01.000Z</time>
      </trkpt>
      <trkpt lat="48.21488" lon="6.69036">
        <ele>553.80004882812</ele>
        <time>2026-09-03T12:48:02.000Z</time>
      </trkpt>
      <trkpt lat="48.21488" lon="6.69036">
        <ele>553.80004882812</ele>
        <time>2026-09-03T12:48:03.000Z</time>
      </trkpt>
      <trkpt lat="48.21488" lon="6.69037">
        <ele>553.80004882812</ele>
        <time>2026-09-03T12:48:04.000Z</time>
      </trkpt>
      <trkpt lat="48.21488" lon="6.69037">
        <ele>553.59997558594</ele>
        <time>2026-09-03T12:48:05.000Z</time>
      </trkpt>
      <trkpt lat="48.21487" lon="6.69038">
        <ele>553.59997558594</ele>
        <time>2026-09-03T12:48:06.000Z</time>
      </trkpt>
      <trkpt lat="48.21487" lon="6.69039">
        <ele>553.40002441406</ele>
        <time>2026-09-03T12:48:07.000Z</time>
      </trkpt>
      <trkpt lat="48.21488" lon="6.6904">
        <ele>553.40002441406</ele>
        <time>2026-09-03T12:48:08.000Z</time>
      </trkpt>
      <trkpt lat="48.21487" lon="6.6904">
        <ele>553.40002441406</ele>
        <time>2026-09-03T12:48:09.000Z</time>
      </trkpt>
      <trkpt lat="48.21488" lon="6.69041">
        <ele>553.40002441406</ele>
        <time>2026-09-03T12:48:10.000Z</time>
      </trkpt>
      <trkpt lat="48.21489" lon="6.69041">
        <ele>553.40002441406</ele>
        <time>2026-09-03T12:48:11.000Z</time>
      </trkpt>
      <trkpt lat="48.21489" lon="6.69042">
        <ele>553.40002441406</ele>
        <time>2026-09-03T12:48:12.000Z</time>
      </trkpt>
      <trkpt lat="48.2149" lon="6.69042">
        <ele>553.19995117188</ele>
        <time>2026-09-03T12:48:13.000Z</time>
      </trkpt>
      <trkpt lat="48.2149" lon="6.69042">
        <ele>553</ele>
        <time>2026-09-03T12:48:14.000Z</time>
      </trkpt>
      <trkpt lat="48.2149" lon="6.69042">
        <ele>552.80004882812</ele>
        <time>2026-09-03T12:48:15.000Z</time>
      </trkpt>
      <trkpt lat="48.2149" lon="6.69042">
        <ele>552.80004882812</ele>
        <time>2026-09-03T12:48:16.000Z</time>
      </trkpt>
      <trkpt lat="48.2149" lon="6.69042">
        <ele>552.59997558594</ele>
        <time>2026-09-03T12:48:17.000Z</time>
      </trkpt>
      <trkpt lat="48.2149" lon="6.69042">
        <ele>552.59997558594</ele>
        <time>2026-09-03T12:48:18.000Z</time>
      </trkpt>
      <trkpt lat="48.2149" lon="6.69042">
        <ele>552.59997558594</ele>
        <time>2026-09-03T12:48:19.000Z</time>
      </trkpt>
      <trkpt lat="48.2149" lon="6.69042">
        <ele>552.80004882812</ele>
        <time>2026-09-03T12:48:20.000Z</time>
      </trkpt>
      <trkpt lat="48.2149" lon="6.69042">
        <ele>552.80004882812</ele>
        <time>2026-09-03T12:48:21.000Z</time>
      </trkpt>
      <trkpt lat="48.2149" lon="6.69042">
        <ele>552.80004882812</ele>
        <time>2026-09-03T12:48:22.000Z</time>
      </trkpt>
      <trkpt lat="48.2149" lon="6.69042">
        <ele>553</ele>
        <time>2026-09-03T12:48:23.000Z</time>
      </trkpt>
      <trkpt lat="48.2149" lon="6.69042">
        <ele>553</ele>
        <time>2026-09-03T12:48:24.000Z</time>
      </trkpt>
      <trkpt lat="48.2149" lon="6.69042">
        <ele>553</ele>
        <time>2026-09-03T12:48:25.000Z</time>
      </trkpt>
      <trkpt lat="48.2149" lon="6.69042">
        <ele>553</ele>
        <time>2026-09-03T12:48:26.000Z</time>
      </trkpt>
      <trkpt lat="48.2149" lon="6.69042">
        <ele>553</ele>
        <time>2026-09-03T12:48:27.000Z</time>
      </trkpt>
      <trkpt lat="48.2149" lon="6.69042">
        <ele>553</ele>
        <time>2026-09-03T12:48:28.000Z</time>
      </trkpt>
      <trkpt lat="48.2149" lon="6.69042">
        <ele>553</ele>
        <time>2026-09-03T12:48:29.000Z</time>
      </trkpt>
      <trkpt lat="48.2149" lon="6.69042">
        <ele>553</ele>
        <time>2026-09-03T12:48:30.000Z</time>
      </trkpt>
      <trkpt lat="48.2149" lon="6.69042">
        <ele>553</ele>
        <time>2026-09-03T12:48:31.000Z</time>
      </trkpt>
      <trkpt lat="48.2149" lon="6.69042">
        <ele>553</ele>
        <time>2026-09-03T12:48:32.000Z</time>
      </trkpt>
      <trkpt lat="48.2149" lon="6.69042">
        <ele>553</ele>
        <time>2026-09-03T12:48:33.000Z</time>
      </trkpt>
      <trkpt lat="48.2149" lon="6.69042">
        <ele>553</ele>
        <time>2026-09-03T12:48:34.000Z</time>
      </trkpt>
      <trkpt lat="48.2149" lon="6.69042">
        <ele>553</ele>
        <time>2026-09-03T12:48:35.000Z</time>
      </trkpt>
      <trkpt lat="48.2149" lon="6.69042">
        <ele>553</ele>
        <time>2026-09-03T12:48:36.000Z</time>
      </trkpt>
      <trkpt lat="48.2149" lon="6.69042">
        <ele>553</ele>
        <time>2026-09-03T12:48:37.000Z</time>
      </trkpt>
      <trkpt lat="48.2149" lon="6.69042">
        <ele>553</ele>
        <time>2026-09-03T12:48:38.000Z</time>
      </trkpt>
      <trkpt lat="48.2149" lon="6.69042">
        <ele>553.19995117188</ele>
        <time>2026-09-03T12:48:39.000Z</time>
      </trkpt>
      <trkpt lat="48.2149" lon="6.69041">
        <ele>553.19995117188</ele>
        <time>2026-09-03T12:48:40.000Z</time>
      </trkpt>
      <trkpt lat="48.21491" lon="6.69042">
        <ele>553.19995117188</ele>
        <time>2026-09-03T12:48:41.000Z</time>
      </trkpt>
      <trkpt lat="48.21491" lon="6.69043">
        <ele>553.19995117188</ele>
        <time>2026-09-03T12:48:42.000Z</time>
      </trkpt>
      <trkpt lat="48.21492" lon="6.69044">
        <ele>553.19995117188</ele>
        <time>2026-09-03T12:48:43.000Z</time>
      </trkpt>
      <trkpt lat="48.21493" lon="6.69045">
        <ele>553.19995117188</ele>
        <time>2026-09-03T12:48:44.000Z</time>
      </trkpt>
      <trkpt lat="48.21494" lon="6.69046">
        <ele>553.19995117188</ele>
        <time>2026-09-03T12:48:45.000Z</time>
      </trkpt>
      <trkpt lat="48.21494" lon="6.69048">
        <ele>553.19995117188</ele>
        <time>2026-09-03T12:48:46.000Z</time>
      </trkpt>
      <trkpt lat="48.21495" lon="6.6905">
        <ele>553.19995117188</ele>
        <time>2026-09-03T12:48:47.000Z</time>
      </trkpt>
      <trkpt lat="48.21495" lon="6.69052">
        <ele>553.19995117188</ele>
        <time>2026-09-03T12:48:48.000Z</time>
      </trkpt>
      <trkpt lat="48.21495" lon="6.69054">
        <ele>553.19995117188</ele>
        <time>2026-09-03T12:48:49.000Z</time>
      </trkpt>
      <trkpt lat="48.21495" lon="6.69055">
        <ele>553.19995117188</ele>
        <time>2026-09-03T12:48:50.000Z</time>
      </trkpt>
      <trkpt lat="48.21496" lon="6.69056">
        <ele>553.19995117188</ele>
        <time>2026-09-03T12:48:51.000Z</time>
      </trkpt>
      <trkpt lat="48.21496" lon="6.69057">
        <ele>553.19995117188</ele>
        <time>2026-09-03T12:48:52.000Z</time>
      </trkpt>
      <trkpt lat="48.21497" lon="6.69059">
        <ele>553.40002441406</ele>
        <time>2026-09-03T12:48:53.000Z</time>
      </trkpt>
      <trkpt lat="48.21497" lon="6.69059">
        <ele>553.59997558594</ele>
        <time>2026-09-03T12:48:54.000Z</time>
      </trkpt>
      <trkpt lat="48.21497" lon="6.6906">
        <ele>553.59997558594</ele>
        <time>2026-09-03T12:48:55.000Z</time>
      </trkpt>
      <trkpt lat="48.21498" lon="6.69061">
        <ele>553.59997558594</ele>
        <time>2026-09-03T12:48:56.000Z</time>
      </trkpt>
      <trkpt lat="48.21498" lon="6.69061">
        <ele>553.40002441406</ele>
        <time>2026-09-03T12:48:57.000Z</time>
      </trkpt>
      <trkpt lat="48.21498" lon="6.69061">
        <ele>553.19995117188</ele>
        <time>2026-09-03T12:48:58.000Z</time>
      </trkpt>
      <trkpt lat="48.21498" lon="6.69061">
        <ele>553</ele>
        <time>2026-09-03T12:48:59.000Z</time>
      </trkpt>
      <trkpt lat="48.21498" lon="6.69061">
        <ele>552.80004882812</ele>
        <time>2026-09-03T12:49:00.000Z</time>
      </trkpt>
      <trkpt lat="48.21499" lon="6.69061">
        <ele>552.80004882812</ele>
        <time>2026-09-03T12:49:01.000Z</time>
      </trkpt>
      <trkpt lat="48.21498" lon="6.69061">
        <ele>552.80004882812</ele>
        <time>2026-09-03T12:49:02.000Z</time>
      </trkpt>
      <trkpt lat="48.21498" lon="6.69061">
        <ele>552.80004882812</ele>
        <time>2026-09-03T12:49:03.000Z</time>
      </trkpt>
      <trkpt lat="48.21498" lon="6.69061">
        <ele>552.80004882812</ele>
        <time>2026-09-03T12:49:04.000Z</time>
      </trkpt>
      <trkpt lat="48.21498" lon="6.69061">
        <ele>553</ele>
        <time>2026-09-03T12:49:05.000Z</time>
      </trkpt>
      <trkpt lat="48.21498" lon="6.69061">
        <ele>553</ele>
        <time>2026-09-03T12:49:06.000Z</time>
      </trkpt>
      <trkpt lat="48.21498" lon="6.69061">
        <ele>553</ele>
        <time>2026-09-03T12:49:07.000Z</time>
      </trkpt>
      <trkpt lat="48.21498" lon="6.69061">
        <ele>553</ele>
        <time>2026-09-03T12:49:08.000Z</time>
      </trkpt>
      <trkpt lat="48.21499" lon="6.69061">
        <ele>553</ele>
        <time>2026-09-03T12:49:09.000Z</time>
      </trkpt>
      <trkpt lat="48.21499" lon="6.69062">
        <ele>553</ele>
        <time>2026-09-03T12:49:10.000Z</time>
      </trkpt>
      <trkpt lat="48.21499" lon="6.69062">
        <ele>553</ele>
        <time>2026-09-03T12:49:11.000Z</time>
      </trkpt>
      <trkpt lat="48.21499" lon="6.69063">
        <ele>553.19995117188</ele>
        <time>2026-09-03T12:49:12.000Z</time>
      </trkpt>
      <trkpt lat="48.215" lon="6.69064">
        <ele>553.40002441406</ele>
        <time>2026-09-03T12:49:13.000Z</time>
      </trkpt>
      <trkpt lat="48.21501" lon="6.69066">
        <ele>553.59997558594</ele>
        <time>2026-09-03T12:49:14.000Z</time>
      </trkpt>
      <trkpt lat="48.21501" lon="6.69068">
        <ele>553.80004882812</ele>
        <time>2026-09-03T12:49:15.000Z</time>
      </trkpt>
      <trkpt lat="48.21501" lon="6.69067">
        <ele>553.80004882812</ele>
        <time>2026-09-03T12:49:16.000Z</time>
      </trkpt>
      <trkpt lat="48.215" lon="6.69067">
        <ele>554</ele>
        <time>2026-09-03T12:49:17.000Z</time>
      </trkpt>
      <trkpt lat="48.215" lon="6.69068">
        <ele>554</ele>
        <time>2026-09-03T12:49:18.000Z</time>
      </trkpt>
      <trkpt lat="48.21501" lon="6.69068">
        <ele>554</ele>
        <time>2026-09-03T12:49:19.000Z</time>
      </trkpt>
      <trkpt lat="48.21501" lon="6.69068">
        <ele>554</ele>
        <time>2026-09-03T12:49:20.000Z</time>
      </trkpt>
      <trkpt lat="48.21501" lon="6.69068">
        <ele>553.80004882812</ele>
        <time>2026-09-03T12:49:21.000Z</time>
      </trkpt>
      <trkpt lat="48.21501" lon="6.69068">
        <ele>553.80004882812</ele>
        <time>2026-09-03T12:49:22.000Z</time>
      </trkpt>
      <trkpt lat="48.21501" lon="6.69068">
        <ele>553.80004882812</ele>
        <time>2026-09-03T12:49:23.000Z</time>
      </trkpt>
      <trkpt lat="48.21501" lon="6.69068">
        <ele>553.80004882812</ele>
        <time>2026-09-03T12:49:24.000Z</time>
      </trkpt>
      <trkpt lat="48.21501" lon="6.69068">
        <ele>553.80004882812</ele>
        <time>2026-09-03T12:49:25.000Z</time>
      </trkpt>
      <trkpt lat="48.21501" lon="6.69068">
        <ele>553.59997558594</ele>
        <time>2026-09-03T12:49:26.000Z</time>
      </trkpt>
      <trkpt lat="48.21502" lon="6.69069">
        <ele>553.59997558594</ele>
        <time>2026-09-03T12:49:27.000Z</time>
      </trkpt>
      <trkpt lat="48.21503" lon="6.69071">
        <ele>553.59997558594</ele>
        <time>2026-09-03T12:49:28.000Z</time>
      </trkpt>
      <trkpt lat="48.21504" lon="6.69072">
        <ele>553.59997558594</ele>
        <time>2026-09-03T12:49:29.000Z</time>
      </trkpt>
      <trkpt lat="48.21505" lon="6.69074">
        <ele>553.59997558594</ele>
        <time>2026-09-03T12:49:30.000Z</time>
      </trkpt>
      <trkpt lat="48.21506" lon="6.69075">
        <ele>553.80004882812</ele>
        <time>2026-09-03T12:49:31.000Z</time>
      </trkpt>
      <trkpt lat="48.21506" lon="6.69076">
        <ele>553.80004882812</ele>
        <time>2026-09-03T12:49:32.000Z</time>
      </trkpt>
      <trkpt lat="48.21507" lon="6.69078">
        <ele>553.80004882812</ele>
        <time>2026-09-03T12:49:33.000Z</time>
      </trkpt>
      <trkpt lat="48.21508" lon="6.69079">
        <ele>553.80004882812</ele>
        <time>2026-09-03T12:49:34.000Z</time>
      </trkpt>
      <trkpt lat="48.21508" lon="6.6908">
        <ele>553.80004882812</ele>
        <time>2026-09-03T12:49:35.000Z</time>
      </trkpt>
      <trkpt lat="48.21509" lon="6.69082">
        <ele>553.80004882812</ele>
        <time>2026-09-03T12:49:36.000Z</time>
      </trkpt>
      <trkpt lat="48.21509" lon="6.69084">
        <ele>553.59997558594</ele>
        <time>2026-09-03T12:49:37.000Z</time>
      </trkpt>
      <trkpt lat="48.2151" lon="6.69085">
        <ele>553.59997558594</ele>
        <time>2026-09-03T12:49:38.000Z</time>
      </trkpt>
      <trkpt lat="48.2151" lon="6.69086">
        <ele>553.40002441406</ele>
        <time>2026-09-03T12:49:39.000Z</time>
      </trkpt>
      <trkpt lat="48.21511" lon="6.69088">
        <ele>553.40002441406</ele>
        <time>2026-09-03T12:49:40.000Z</time>
      </trkpt>
      <trkpt lat="48.21511" lon="6.69089">
        <ele>553.40002441406</ele>
        <time>2026-09-03T12:49:41.000Z</time>
      </trkpt>
      <trkpt lat="48.21512" lon="6.6909">
        <ele>553.40002441406</ele>
        <time>2026-09-03T12:49:42.000Z</time>
      </trkpt>
      <trkpt lat="48.21511" lon="6.6909">
        <ele>553.59997558594</ele>
        <time>2026-09-03T12:49:43.000Z</time>
      </trkpt>
      <trkpt lat="48.2151" lon="6.69091">
        <ele>553.59997558594</ele>
        <time>2026-09-03T12:49:44.000Z</time>
      </trkpt>
      <trkpt lat="48.2151" lon="6.69091">
        <ele>553.59997558594</ele>
        <time>2026-09-03T12:49:45.000Z</time>
      </trkpt>
      <trkpt lat="48.2151" lon="6.6909">
        <ele>553.59997558594</ele>
        <time>2026-09-03T12:49:46.000Z</time>
      </trkpt>
      <trkpt lat="48.2151" lon="6.6909">
        <ele>553.59997558594</ele>
        <time>2026-09-03T12:49:47.000Z</time>
      </trkpt>
      <trkpt lat="48.2151" lon="6.69089">
        <ele>553.59997558594</ele>
        <time>2026-09-03T12:49:48.000Z</time>
      </trkpt>
      <trkpt lat="48.21511" lon="6.69089">
        <ele>553.59997558594</ele>
        <time>2026-09-03T12:49:49.000Z</time>
      </trkpt>
      <trkpt lat="48.21511" lon="6.6909">
        <ele>553.80004882812</ele>
        <time>2026-09-03T12:49:50.000Z</time>
      </trkpt>
      <trkpt lat="48.21511" lon="6.6909">
        <ele>553.80004882812</ele>
        <time>2026-09-03T12:49:51.000Z</time>
      </trkpt>
      <trkpt lat="48.21511" lon="6.6909">
        <ele>553.80004882812</ele>
        <time>2026-09-03T12:49:52.000Z</time>
      </trkpt>
      <trkpt lat="48.21511" lon="6.6909">
        <ele>553.80004882812</ele>
        <time>2026-09-03T12:49:53.000Z</time>
      </trkpt>
      <trkpt lat="48.21512" lon="6.69091">
        <ele>553.80004882812</ele>
        <time>2026-09-03T12:49:54.000Z</time>
      </trkpt>
      <trkpt lat="48.21513" lon="6.69092">
        <ele>553.80004882812</ele>
        <time>2026-09-03T12:49:55.000Z</time>
      </trkpt>
      <trkpt lat="48.21514" lon="6.69093">
        <ele>553.80004882812</ele>
        <time>2026-09-03T12:49:56.000Z</time>
      </trkpt>
      <trkpt lat="48.21514" lon="6.69094">
        <ele>554</ele>
        <time>2026-09-03T12:49:57.000Z</time>
      </trkpt>
      <trkpt lat="48.21515" lon="6.69095">
        <ele>554</ele>
        <time>2026-09-03T12:49:58.000Z</time>
      </trkpt>
      <trkpt lat="48.21515" lon="6.69096">
        <ele>554</ele>
        <time>2026-09-03T12:49:59.000Z</time>
      </trkpt>
      <trkpt lat="48.21514" lon="6.69096">
        <ele>554</ele>
        <time>2026-09-03T12:50:00.000Z</time>
      </trkpt>
      <trkpt lat="48.21514" lon="6.69097">
        <ele>554</ele>
        <time>2026-09-03T12:50:01.000Z</time>
      </trkpt>
      <trkpt lat="48.21514" lon="6.69096">
        <ele>553.80004882812</ele>
        <time>2026-09-03T12:50:02.000Z</time>
      </trkpt>
      <trkpt lat="48.21514" lon="6.69096">
        <ele>553.80004882812</ele>
        <time>2026-09-03T12:50:03.000Z</time>
      </trkpt>
      <trkpt lat="48.21514" lon="6.69097">
        <ele>553.80004882812</ele>
        <time>2026-09-03T12:50:04.000Z</time>
      </trkpt>
      <trkpt lat="48.21514" lon="6.69097">
        <ele>553.80004882812</ele>
        <time>2026-09-03T12:50:05.000Z</time>
      </trkpt>
      <trkpt lat="48.21514" lon="6.69097">
        <ele>553.59997558594</ele>
        <time>2026-09-03T12:50:06.000Z</time>
      </trkpt>
      <trkpt lat="48.21514" lon="6.69097">
        <ele>553.59997558594</ele>
        <time>2026-09-03T12:50:07.000Z</time>
      </trkpt>
      <trkpt lat="48.21514" lon="6.69097">
        <ele>553.59997558594</ele>
        <time>2026-09-03T12:50:08.000Z</time>
      </trkpt>
      <trkpt lat="48.21513" lon="6.69096">
        <ele>553.40002441406</ele>
        <time>2026-09-03T12:50:09.000Z</time>
      </trkpt>
      <trkpt lat="48.21513" lon="6.69096">
        <ele>553.19995117188</ele>
        <time>2026-09-03T12:50:10.000Z</time>
      </trkpt>
      <trkpt lat="48.21513" lon="6.69096">
        <ele>553</ele>
        <time>2026-09-03T12:50:11.000Z</time>
      </trkpt>
      <trkpt lat="48.21513" lon="6.69096">
        <ele>553</ele>
        <time>2026-09-03T12:50:12.000Z</time>
      </trkpt>
      <trkpt lat="48.21513" lon="6.69095">
        <ele>553</ele>
        <time>2026-09-03T12:50:13.000Z</time>
      </trkpt>
      <trkpt lat="48.21512" lon="6.69094">
        <ele>552.80004882812</ele>
        <time>2026-09-03T12:50:14.000Z</time>
      </trkpt>
      <trkpt lat="48.21511" lon="6.69095">
        <ele>553.40002441406</ele>
        <time>2026-09-03T12:50:15.000Z</time>
      </trkpt>
      <trkpt lat="48.21512" lon="6.69094">
        <ele>553.80004882812</ele>
        <time>2026-09-03T12:50:16.000Z</time>
      </trkpt>
      <trkpt lat="48.21512" lon="6.69093">
        <ele>554</ele>
        <time>2026-09-03T12:50:17.000Z</time>
      </trkpt>
      <trkpt lat="48.21513" lon="6.69092">
        <ele>554</ele>
        <time>2026-09-03T12:50:18.000Z</time>
      </trkpt>
      <trkpt lat="48.21513" lon="6.69092">
        <ele>554</ele>
        <time>2026-09-03T12:50:19.000Z</time>
      </trkpt>
      <trkpt lat="48.21515" lon="6.6909">
        <ele>554</ele>
        <time>2026-09-03T12:50:20.000Z</time>
      </trkpt>
      <trkpt lat="48.21516" lon="6.6909">
        <ele>554</ele>
        <time>2026-09-03T12:50:21.000Z</time>
      </trkpt>
      <trkpt lat="48.21517" lon="6.6909">
        <ele>554</ele>
        <time>2026-09-03T12:50:22.000Z</time>
      </trkpt>
      <trkpt lat="48.21518" lon="6.6909">
        <ele>554</ele>
        <time>2026-09-03T12:50:23.000Z</time>
      </trkpt>
      <trkpt lat="48.21519" lon="6.6909">
        <ele>554</ele>
        <time>2026-09-03T12:50:24.000Z</time>
      </trkpt>
      <trkpt lat="48.21521" lon="6.6909">
        <ele>554</ele>
        <time>2026-09-03T12:50:25.000Z</time>
      </trkpt>
      <trkpt lat="48.21522" lon="6.69091">
        <ele>554</ele>
        <time>2026-09-03T12:50:26.000Z</time>
      </trkpt>
      <trkpt lat="48.21523" lon="6.69092">
        <ele>553.80004882812</ele>
        <time>2026-09-03T12:50:27.000Z</time>
      </trkpt>
      <trkpt lat="48.21525" lon="6.69093">
        <ele>553.59997558594</ele>
        <time>2026-09-03T12:50:28.000Z</time>
      </trkpt>
      <trkpt lat="48.21525" lon="6.69094">
        <ele>553.59997558594</ele>
        <time>2026-09-03T12:50:29.000Z</time>
      </trkpt>
      <trkpt lat="48.21526" lon="6.69095">
        <ele>553.59997558594</ele>
        <time>2026-09-03T12:50:30.000Z</time>
      </trkpt>
      <trkpt lat="48.21528" lon="6.69096">
        <ele>553.59997558594</ele>
        <time>2026-09-03T12:50:31.000Z</time>
      </trkpt>
      <trkpt lat="48.21529" lon="6.69097">
        <ele>553.59997558594</ele>
        <time>2026-09-03T12:50:32.000Z</time>
      </trkpt>
      <trkpt lat="48.2153" lon="6.69097">
        <ele>553.59997558594</ele>
        <time>2026-09-03T12:50:33.000Z</time>
      </trkpt>
      <trkpt lat="48.21531" lon="6.69098">
        <ele>553.59997558594</ele>
        <time>2026-09-03T12:50:34.000Z</time>
      </trkpt>
      <trkpt lat="48.21533" lon="6.69099">
        <ele>553.59997558594</ele>
        <time>2026-09-03T12:50:35.000Z</time>
      </trkpt>
      <trkpt lat="48.21534" lon="6.691">
        <ele>553.59997558594</ele>
        <time>2026-09-03T12:50:36.000Z</time>
      </trkpt>
      <trkpt lat="48.21534" lon="6.69101">
        <ele>553.59997558594</ele>
        <time>2026-09-03T12:50:37.000Z</time>
      </trkpt>
      <trkpt lat="48.21535" lon="6.69102">
        <ele>553.59997558594</ele>
        <time>2026-09-03T12:50:38.000Z</time>
      </trkpt>
      <trkpt lat="48.21536" lon="6.69103">
        <ele>553.40002441406</ele>
        <time>2026-09-03T12:50:39.000Z</time>
      </trkpt>
      <trkpt lat="48.21537" lon="6.69105">
        <ele>553.19995117188</ele>
        <time>2026-09-03T12:50:40.000Z</time>
      </trkpt>
      <trkpt lat="48.21537" lon="6.69106">
        <ele>553.19995117188</ele>
        <time>2026-09-03T12:50:41.000Z</time>
      </trkpt>
      <trkpt lat="48.21537" lon="6.69107">
        <ele>553</ele>
        <time>2026-09-03T12:50:42.000Z</time>
      </trkpt>
      <trkpt lat="48.21538" lon="6.69108">
        <ele>553</ele>
        <time>2026-09-03T12:50:43.000Z</time>
      </trkpt>
      <trkpt lat="48.21538" lon="6.69109">
        <ele>553</ele>
        <time>2026-09-03T12:50:44.000Z</time>
      </trkpt>
      <trkpt lat="48.21539" lon="6.6911">
        <ele>553</ele>
        <time>2026-09-03T12:50:45.000Z</time>
      </trkpt>
      <trkpt lat="48.21539" lon="6.69111">
        <ele>553</ele>
        <time>2026-09-03T12:50:46.000Z</time>
      </trkpt>
      <trkpt lat="48.21539" lon="6.69111">
        <ele>552.80004882812</ele>
        <time>2026-09-03T12:50:47.000Z</time>
      </trkpt>
      <trkpt lat="48.21539" lon="6.69111">
        <ele>552.80004882812</ele>
        <time>2026-09-03T12:50:48.000Z</time>
      </trkpt>
      <trkpt lat="48.21539" lon="6.69111">
        <ele>552.80004882812</ele>
        <time>2026-09-03T12:50:49.000Z</time>
      </trkpt>
      <trkpt lat="48.21538" lon="6.69112">
        <ele>552.80004882812</ele>
        <time>2026-09-03T12:50:50.000Z</time>
      </trkpt>
      <trkpt lat="48.21537" lon="6.69113">
        <ele>552.59997558594</ele>
        <time>2026-09-03T12:50:51.000Z</time>
      </trkpt>
      <trkpt lat="48.21538" lon="6.69113">
        <ele>552.59997558594</ele>
        <time>2026-09-03T12:50:52.000Z</time>
      </trkpt>
      <trkpt lat="48.21538" lon="6.69114">
        <ele>552.59997558594</ele>
        <time>2026-09-03T12:50:53.000Z</time>
      </trkpt>
      <trkpt lat="48.21538" lon="6.69115">
        <ele>552.59997558594</ele>
        <time>2026-09-03T12:50:54.000Z</time>
      </trkpt>
      <trkpt lat="48.21539" lon="6.69115">
        <ele>552.80004882812</ele>
        <time>2026-09-03T12:50:55.000Z</time>
      </trkpt>
      <trkpt lat="48.21539" lon="6.69115">
        <ele>552.80004882812</ele>
        <time>2026-09-03T12:50:56.000Z</time>
      </trkpt>
      <trkpt lat="48.21539" lon="6.69115">
        <ele>552.80004882812</ele>
        <time>2026-09-03T12:50:57.000Z</time>
      </trkpt>
      <trkpt lat="48.21539" lon="6.69116">
        <ele>552.80004882812</ele>
        <time>2026-09-03T12:50:58.000Z</time>
      </trkpt>
      <trkpt lat="48.21539" lon="6.69116">
        <ele>552.59997558594</ele>
        <time>2026-09-03T12:50:59.000Z</time>
      </trkpt>
      <trkpt lat="48.2154" lon="6.69116">
        <ele>552.40002441406</ele>
        <time>2026-09-03T12:51:00.000Z</time>
      </trkpt>
      <trkpt lat="48.2154" lon="6.69116">
        <ele>552.19995117188</ele>
        <time>2026-09-03T12:51:01.000Z</time>
      </trkpt>
      <trkpt lat="48.21541" lon="6.69115">
        <ele>552</ele>
        <time>2026-09-03T12:51:02.000Z</time>
      </trkpt>
      <trkpt lat="48.21541" lon="6.69115">
        <ele>552</ele>
        <time>2026-09-03T12:51:03.000Z</time>
      </trkpt>
      <trkpt lat="48.21542" lon="6.69115">
        <ele>552</ele>
        <time>2026-09-03T12:51:04.000Z</time>
      </trkpt>
      <trkpt lat="48.21543" lon="6.69116">
        <ele>552.19995117188</ele>
        <time>2026-09-03T12:51:05.000Z</time>
      </trkpt>
      <trkpt lat="48.21543" lon="6.69117">
        <ele>552.59997558594</ele>
        <time>2026-09-03T12:51:06.000Z</time>
      </trkpt>
      <trkpt lat="48.21544" lon="6.69118">
        <ele>552.80004882812</ele>
        <time>2026-09-03T12:51:07.000Z</time>
      </trkpt>
      <trkpt lat="48.21545" lon="6.69119">
        <ele>553</ele>
        <time>2026-09-03T12:51:08.000Z</time>
      </trkpt>
      <trkpt lat="48.21546" lon="6.69121">
        <ele>553</ele>
        <time>2026-09-03T12:51:09.000Z</time>
      </trkpt>
      <trkpt lat="48.21546" lon="6.69124">
        <ele>552.80004882812</ele>
        <time>2026-09-03T12:51:10.000Z</time>
      </trkpt>
      <trkpt lat="48.21546" lon="6.69125">
        <ele>552.80004882812</ele>
        <time>2026-09-03T12:51:11.000Z</time>
      </trkpt>
      <trkpt lat="48.21545" lon="6.69127">
        <ele>552.59997558594</ele>
        <time>2026-09-03T12:51:12.000Z</time>
      </trkpt>
      <trkpt lat="48.21544" lon="6.69128">
        <ele>552.59997558594</ele>
        <time>2026-09-03T12:51:13.000Z</time>
      </trkpt>
      <trkpt lat="48.21543" lon="6.69129">
        <ele>552.59997558594</ele>
        <time>2026-09-03T12:51:14.000Z</time>
      </trkpt>
      <trkpt lat="48.21543" lon="6.6913">
        <ele>552.80004882812</ele>
        <time>2026-09-03T12:51:15.000Z</time>
      </trkpt>
      <trkpt lat="48.21542" lon="6.69131">
        <ele>553</ele>
        <time>2026-09-03T12:51:16.000Z</time>
      </trkpt>
      <trkpt lat="48.21541" lon="6.69132">
        <ele>553</ele>
        <time>2026-09-03T12:51:17.000Z</time>
      </trkpt>
      <trkpt lat="48.21539" lon="6.69133">
        <ele>553.19995117188</ele>
        <time>2026-09-03T12:51:18.000Z</time>
      </trkpt>
      <trkpt lat="48.21538" lon="6.69133">
        <ele>553.19995117188</ele>
        <time>2026-09-03T12:51:19.000Z</time>
      </trkpt>
      <trkpt lat="48.21537" lon="6.69134">
        <ele>553.40002441406</ele>
        <time>2026-09-03T12:51:20.000Z</time>
      </trkpt>
      <trkpt lat="48.21535" lon="6.69135">
        <ele>553.40002441406</ele>
        <time>2026-09-03T12:51:21.000Z</time>
      </trkpt>
      <trkpt lat="48.21534" lon="6.69136">
        <ele>553.40002441406</ele>
        <time>2026-09-03T12:51:22.000Z</time>
      </trkpt>
      <trkpt lat="48.21533" lon="6.69136">
        <ele>553.40002441406</ele>
        <time>2026-09-03T12:51:23.000Z</time>
      </trkpt>
      <trkpt lat="48.21532" lon="6.69137">
        <ele>553.40002441406</ele>
        <time>2026-09-03T12:51:24.000Z</time>
      </trkpt>
      <trkpt lat="48.21531" lon="6.69138">
        <ele>553.59997558594</ele>
        <time>2026-09-03T12:51:25.000Z</time>
      </trkpt>
      <trkpt lat="48.2153" lon="6.69138">
        <ele>553.59997558594</ele>
        <time>2026-09-03T12:51:26.000Z</time>
      </trkpt>
      <trkpt lat="48.21528" lon="6.69138">
        <ele>553.80004882812</ele>
        <time>2026-09-03T12:51:27.000Z</time>
      </trkpt>
      <trkpt lat="48.21528" lon="6.69138">
        <ele>553.80004882812</ele>
        <time>2026-09-03T12:51:28.000Z</time>
      </trkpt>
      <trkpt lat="48.21528" lon="6.69139">
        <ele>553.80004882812</ele>
        <time>2026-09-03T12:51:29.000Z</time>
      </trkpt>
      <trkpt lat="48.21528" lon="6.69141">
        <ele>554</ele>
        <time>2026-09-03T12:51:30.000Z</time>
      </trkpt>
      <trkpt lat="48.21528" lon="6.69141">
        <ele>554</ele>
        <time>2026-09-03T12:51:31.000Z</time>
      </trkpt>
      <trkpt lat="48.21528" lon="6.69142">
        <ele>554</ele>
        <time>2026-09-03T12:51:32.000Z</time>
      </trkpt>
      <trkpt lat="48.21529" lon="6.69142">
        <ele>554.19995117188</ele>
        <time>2026-09-03T12:51:33.000Z</time>
      </trkpt>
      <trkpt lat="48.21529" lon="6.69143">
        <ele>554.19995117188</ele>
        <time>2026-09-03T12:51:34.000Z</time>
      </trkpt>
      <trkpt lat="48.2153" lon="6.69143">
        <ele>554</ele>
        <time>2026-09-03T12:51:35.000Z</time>
      </trkpt>
      <trkpt lat="48.2153" lon="6.69144">
        <ele>554</ele>
        <time>2026-09-03T12:51:36.000Z</time>
      </trkpt>
      <trkpt lat="48.2153" lon="6.69145">
        <ele>554</ele>
        <time>2026-09-03T12:51:37.000Z</time>
      </trkpt>
      <trkpt lat="48.2153" lon="6.69147">
        <ele>554</ele>
        <time>2026-09-03T12:51:38.000Z</time>
      </trkpt>
      <trkpt lat="48.21531" lon="6.69148">
        <ele>554.19995117188</ele>
        <time>2026-09-03T12:51:39.000Z</time>
      </trkpt>
      <trkpt lat="48.21531" lon="6.6915">
        <ele>554.19995117188</ele>
        <time>2026-09-03T12:51:40.000Z</time>
      </trkpt>
      <trkpt lat="48.21532" lon="6.69151">
        <ele>554.19995117188</ele>
        <time>2026-09-03T12:51:41.000Z</time>
      </trkpt>
      <trkpt lat="48.21532" lon="6.69153">
        <ele>554.19995117188</ele>
        <time>2026-09-03T12:51:42.000Z</time>
      </trkpt>
      <trkpt lat="48.21532" lon="6.69155">
        <ele>554.19995117188</ele>
        <time>2026-09-03T12:51:43.000Z</time>
      </trkpt>
      <trkpt lat="48.21532" lon="6.69157">
        <ele>554.19995117188</ele>
        <time>2026-09-03T12:51:44.000Z</time>
      </trkpt>
      <trkpt lat="48.21532" lon="6.69158">
        <ele>554.19995117188</ele>
        <time>2026-09-03T12:51:45.000Z</time>
      </trkpt>
      <trkpt lat="48.21533" lon="6.6916">
        <ele>554.19995117188</ele>
        <time>2026-09-03T12:51:46.000Z</time>
      </trkpt>
      <trkpt lat="48.21533" lon="6.69162">
        <ele>554.19995117188</ele>
        <time>2026-09-03T12:51:47.000Z</time>
      </trkpt>
      <trkpt lat="48.21534" lon="6.69164">
        <ele>554.19995117188</ele>
        <time>2026-09-03T12:51:48.000Z</time>
      </trkpt>
      <trkpt lat="48.21534" lon="6.69165">
        <ele>554.40002441406</ele>
        <time>2026-09-03T12:51:49.000Z</time>
      </trkpt>
      <trkpt lat="48.21534" lon="6.69168">
        <ele>554.40002441406</ele>
        <time>2026-09-03T12:51:50.000Z</time>
      </trkpt>
      <trkpt lat="48.21534" lon="6.69169">
        <ele>554.19995117188</ele>
        <time>2026-09-03T12:51:51.000Z</time>
      </trkpt>
      <trkpt lat="48.21535" lon="6.6917">
        <ele>554.19995117188</ele>
        <time>2026-09-03T12:51:52.000Z</time>
      </trkpt>
      <trkpt lat="48.21535" lon="6.69172">
        <ele>554.19995117188</ele>
        <time>2026-09-03T12:51:53.000Z</time>
      </trkpt>
      <trkpt lat="48.21536" lon="6.69175">
        <ele>554.19995117188</ele>
        <time>2026-09-03T12:51:54.000Z</time>
      </trkpt>
      <trkpt lat="48.21537" lon="6.69176">
        <ele>554.19995117188</ele>
        <time>2026-09-03T12:51:55.000Z</time>
      </trkpt>
      <trkpt lat="48.21537" lon="6.69178">
        <ele>554.19995117188</ele>
        <time>2026-09-03T12:51:56.000Z</time>
      </trkpt>
      <trkpt lat="48.21538" lon="6.69179">
        <ele>554.19995117188</ele>
        <time>2026-09-03T12:51:57.000Z</time>
      </trkpt>
      <trkpt lat="48.21538" lon="6.69181">
        <ele>554.19995117188</ele>
        <time>2026-09-03T12:51:58.000Z</time>
      </trkpt>
      <trkpt lat="48.21538" lon="6.69183">
        <ele>554.19995117188</ele>
        <time>2026-09-03T12:51:59.000Z</time>
      </trkpt>
      <trkpt lat="48.21539" lon="6.69185">
        <ele>554.19995117188</ele>
        <time>2026-09-03T12:52:00.000Z</time>
      </trkpt>
      <trkpt lat="48.21539" lon="6.69187">
        <ele>554.19995117188</ele>
        <time>2026-09-03T12:52:01.000Z</time>
      </trkpt>
      <trkpt lat="48.21539" lon="6.69188">
        <ele>554.19995117188</ele>
        <time>2026-09-03T12:52:02.000Z</time>
      </trkpt>
      <trkpt lat="48.21539" lon="6.69189">
        <ele>554.19995117188</ele>
        <time>2026-09-03T12:52:03.000Z</time>
      </trkpt>
      <trkpt lat="48.21539" lon="6.6919">
        <ele>554.19995117188</ele>
        <time>2026-09-03T12:52:04.000Z</time>
      </trkpt>
      <trkpt lat="48.21538" lon="6.69191">
        <ele>554.40002441406</ele>
        <time>2026-09-03T12:52:05.000Z</time>
      </trkpt>
      <trkpt lat="48.21539" lon="6.69192">
        <ele>554.19995117188</ele>
        <time>2026-09-03T12:52:06.000Z</time>
      </trkpt>
      <trkpt lat="48.2154" lon="6.69193">
        <ele>554.19995117188</ele>
        <time>2026-09-03T12:52:07.000Z</time>
      </trkpt>
      <trkpt lat="48.2154" lon="6.69194">
        <ele>554.19995117188</ele>
        <time>2026-09-03T12:52:08.000Z</time>
      </trkpt>
      <trkpt lat="48.2154" lon="6.69195">
        <ele>554.19995117188</ele>
        <time>2026-09-03T12:52:09.000Z</time>
      </trkpt>
      <trkpt lat="48.21541" lon="6.69196">
        <ele>554.19995117188</ele>
        <time>2026-09-03T12:52:10.000Z</time>
      </trkpt>
      <trkpt lat="48.21542" lon="6.69197">
        <ele>554.40002441406</ele>
        <time>2026-09-03T12:52:11.000Z</time>
      </trkpt>
      <trkpt lat="48.21543" lon="6.69197">
        <ele>554.40002441406</ele>
        <time>2026-09-03T12:52:12.000Z</time>
      </trkpt>
      <trkpt lat="48.21544" lon="6.69198">
        <ele>554.40002441406</ele>
        <time>2026-09-03T12:52:13.000Z</time>
      </trkpt>
      <trkpt lat="48.21545" lon="6.69199">
        <ele>554.40002441406</ele>
        <time>2026-09-03T12:52:14.000Z</time>
      </trkpt>
      <trkpt lat="48.21546" lon="6.69199">
        <ele>554.40002441406</ele>
        <time>2026-09-03T12:52:15.000Z</time>
      </trkpt>
      <trkpt lat="48.21546" lon="6.69199">
        <ele>554.19995117188</ele>
        <time>2026-09-03T12:52:16.000Z</time>
      </trkpt>
      <trkpt lat="48.21548" lon="6.692">
        <ele>554.19995117188</ele>
        <time>2026-09-03T12:52:17.000Z</time>
      </trkpt>
      <trkpt lat="48.21549" lon="6.69201">
        <ele>554.19995117188</ele>
        <time>2026-09-03T12:52:18.000Z</time>
      </trkpt>
      <trkpt lat="48.2155" lon="6.692">
        <ele>554.40002441406</ele>
        <time>2026-09-03T12:52:19.000Z</time>
      </trkpt>
      <trkpt lat="48.21552" lon="6.692">
        <ele>554.40002441406</ele>
        <time>2026-09-03T12:52:20.000Z</time>
      </trkpt>
      <trkpt lat="48.21553" lon="6.69201">
        <ele>554.19995117188</ele>
        <time>2026-09-03T12:52:21.000Z</time>
      </trkpt>
      <trkpt lat="48.21553" lon="6.69202">
        <ele>554.19995117188</ele>
        <time>2026-09-03T12:52:22.000Z</time>
      </trkpt>
      <trkpt lat="48.21553" lon="6.69202">
        <ele>554.19995117188</ele>
        <time>2026-09-03T12:52:23.000Z</time>
      </trkpt>
      <trkpt lat="48.21553" lon="6.69204">
        <ele>554.19995117188</ele>
        <time>2026-09-03T12:52:24.000Z</time>
      </trkpt>
      <trkpt lat="48.21553" lon="6.69205">
        <ele>554.19995117188</ele>
        <time>2026-09-03T12:52:25.000Z</time>
      </trkpt>
      <trkpt lat="48.21553" lon="6.69206">
        <ele>554.19995117188</ele>
        <time>2026-09-03T12:52:26.000Z</time>
      </trkpt>
      <trkpt lat="48.21553" lon="6.69206">
        <ele>554.40002441406</ele>
        <time>2026-09-03T12:52:27.000Z</time>
      </trkpt>
      <trkpt lat="48.21552" lon="6.69206">
        <ele>554.40002441406</ele>
        <time>2026-09-03T12:52:28.000Z</time>
      </trkpt>
      <trkpt lat="48.21552" lon="6.69206">
        <ele>554.40002441406</ele>
        <time>2026-09-03T12:52:29.000Z</time>
      </trkpt>
      <trkpt lat="48.21552" lon="6.69206">
        <ele>554.40002441406</ele>
        <time>2026-09-03T12:52:30.000Z</time>
      </trkpt>
      <trkpt lat="48.21552" lon="6.69206">
        <ele>554.40002441406</ele>
        <time>2026-09-03T12:52:31.000Z</time>
      </trkpt>
      <trkpt lat="48.21552" lon="6.69206">
        <ele>554.40002441406</ele>
        <time>2026-09-03T12:52:32.000Z</time>
      </trkpt>
      <trkpt lat="48.21552" lon="6.69206">
        <ele>554.40002441406</ele>
        <time>2026-09-03T12:52:33.000Z</time>
      </trkpt>
      <trkpt lat="48.21552" lon="6.69206">
        <ele>554.40002441406</ele>
        <time>2026-09-03T12:52:34.000Z</time>
      </trkpt>
      <trkpt lat="48.21552" lon="6.69206">
        <ele>554.40002441406</ele>
        <time>2026-09-03T12:52:35.000Z</time>
      </trkpt>
      <trkpt lat="48.21552" lon="6.69206">
        <ele>554.40002441406</ele>
        <time>2026-09-03T12:52:36.000Z</time>
      </trkpt>
      <trkpt lat="48.21551" lon="6.69207">
        <ele>554.40002441406</ele>
        <time>2026-09-03T12:52:37.000Z</time>
      </trkpt>
      <trkpt lat="48.2155" lon="6.69207">
        <ele>554.40002441406</ele>
        <time>2026-09-03T12:52:38.000Z</time>
      </trkpt>
      <trkpt lat="48.21549" lon="6.69206">
        <ele>554.40002441406</ele>
        <time>2026-09-03T12:52:39.000Z</time>
      </trkpt>
      <trkpt lat="48.21548" lon="6.69206">
        <ele>554.40002441406</ele>
        <time>2026-09-03T12:52:40.000Z</time>
      </trkpt>
      <trkpt lat="48.21547" lon="6.69206">
        <ele>554.40002441406</ele>
        <time>2026-09-03T12:52:41.000Z</time>
      </trkpt>
      <trkpt lat="48.21546" lon="6.69205">
        <ele>554.40002441406</ele>
        <time>2026-09-03T12:52:42.000Z</time>
      </trkpt>
      <trkpt lat="48.21545" lon="6.69205">
        <ele>554.40002441406</ele>
        <time>2026-09-03T12:52:43.000Z</time>
      </trkpt>
      <trkpt lat="48.21544" lon="6.69204">
        <ele>554.59997558594</ele>
        <time>2026-09-03T12:52:44.000Z</time>
      </trkpt>
      <trkpt lat="48.21543" lon="6.69204">
        <ele>554.59997558594</ele>
        <time>2026-09-03T12:52:45.000Z</time>
      </trkpt>
      <trkpt lat="48.21542" lon="6.69203">
        <ele>554.59997558594</ele>
        <time>2026-09-03T12:52:46.000Z</time>
      </trkpt>
      <trkpt lat="48.21542" lon="6.69203">
        <ele>554.59997558594</ele>
        <time>2026-09-03T12:52:47.000Z</time>
      </trkpt>
      <trkpt lat="48.21543" lon="6.69202">
        <ele>554.40002441406</ele>
        <time>2026-09-03T12:52:48.000Z</time>
      </trkpt>
      <trkpt lat="48.21544" lon="6.69202">
        <ele>554.40002441406</ele>
        <time>2026-09-03T12:52:49.000Z</time>
      </trkpt>
      <trkpt lat="48.21546" lon="6.69202">
        <ele>554.40002441406</ele>
        <time>2026-09-03T12:52:50.000Z</time>
      </trkpt>
      <trkpt lat="48.21547" lon="6.69202">
        <ele>554.40002441406</ele>
        <time>2026-09-03T12:52:51.000Z</time>
      </trkpt>
      <trkpt lat="48.21548" lon="6.69202">
        <ele>554.19995117188</ele>
        <time>2026-09-03T12:52:52.000Z</time>
      </trkpt>
      <trkpt lat="48.21548" lon="6.69203">
        <ele>554.19995117188</ele>
        <time>2026-09-03T12:52:53.000Z</time>
      </trkpt>
      <trkpt lat="48.21549" lon="6.69203">
        <ele>554.40002441406</ele>
        <time>2026-09-03T12:52:54.000Z</time>
      </trkpt>
      <trkpt lat="48.21549" lon="6.69203">
        <ele>554.40002441406</ele>
        <time>2026-09-03T12:52:55.000Z</time>
      </trkpt>
      <trkpt lat="48.2155" lon="6.69202">
        <ele>554.40002441406</ele>
        <time>2026-09-03T12:52:56.000Z</time>
      </trkpt>
      <trkpt lat="48.2155" lon="6.69201">
        <ele>554.40002441406</ele>
        <time>2026-09-03T12:52:57.000Z</time>
      </trkpt>
      <trkpt lat="48.2155" lon="6.692">
        <ele>554.40002441406</ele>
        <time>2026-09-03T12:52:58.000Z</time>
      </trkpt>
      <trkpt lat="48.21551" lon="6.69198">
        <ele>554.40002441406</ele>
        <time>2026-09-03T12:52:59.000Z</time>
      </trkpt>
      <trkpt lat="48.21551" lon="6.69196">
        <ele>554.40002441406</ele>
        <time>2026-09-03T12:53:00.000Z</time>
      </trkpt>
      <trkpt lat="48.21552" lon="6.69195">
        <ele>554.40002441406</ele>
        <time>2026-09-03T12:53:01.000Z</time>
      </trkpt>
      <trkpt lat="48.21552" lon="6.69193">
        <ele>554.19995117188</ele>
        <time>2026-09-03T12:53:02.000Z</time>
      </trkpt>
      <trkpt lat="48.21552" lon="6.69192">
        <ele>554.19995117188</ele>
        <time>2026-09-03T12:53:03.000Z</time>
      </trkpt>
      <trkpt lat="48.21552" lon="6.69191">
        <ele>554.19995117188</ele>
        <time>2026-09-03T12:53:04.000Z</time>
      </trkpt>
      <trkpt lat="48.21552" lon="6.69189">
        <ele>554.19995117188</ele>
        <time>2026-09-03T12:53:05.000Z</time>
      </trkpt>
      <trkpt lat="48.21552" lon="6.69188">
        <ele>554.19995117188</ele>
        <time>2026-09-03T12:53:06.000Z</time>
      </trkpt>
      <trkpt lat="48.21552" lon="6.69186">
        <ele>554.19995117188</ele>
        <time>2026-09-03T12:53:07.000Z</time>
      </trkpt>
      <trkpt lat="48.21552" lon="6.69184">
        <ele>554</ele>
        <time>2026-09-03T12:53:08.000Z</time>
      </trkpt>
      <trkpt lat="48.21552" lon="6.69182">
        <ele>554</ele>
        <time>2026-09-03T12:53:09.000Z</time>
      </trkpt>
      <trkpt lat="48.21552" lon="6.6918">
        <ele>554</ele>
        <time>2026-09-03T12:53:10.000Z</time>
      </trkpt>
      <trkpt lat="48.21552" lon="6.69179">
        <ele>554</ele>
        <time>2026-09-03T12:53:11.000Z</time>
      </trkpt>
      <trkpt lat="48.21552" lon="6.69177">
        <ele>554</ele>
        <time>2026-09-03T12:53:12.000Z</time>
      </trkpt>
      <trkpt lat="48.21552" lon="6.69176">
        <ele>554</ele>
        <time>2026-09-03T12:53:13.000Z</time>
      </trkpt>
      <trkpt lat="48.21552" lon="6.69175">
        <ele>554</ele>
        <time>2026-09-03T12:53:14.000Z</time>
      </trkpt>
      <trkpt lat="48.21552" lon="6.69174">
        <ele>553.80004882812</ele>
        <time>2026-09-03T12:53:15.000Z</time>
      </trkpt>
      <trkpt lat="48.21552" lon="6.69172">
        <ele>553.80004882812</ele>
        <time>2026-09-03T12:53:16.000Z</time>
      </trkpt>
      <trkpt lat="48.21552" lon="6.6917">
        <ele>553.80004882812</ele>
        <time>2026-09-03T12:53:17.000Z</time>
      </trkpt>
      <trkpt lat="48.21552" lon="6.69169">
        <ele>553.59997558594</ele>
        <time>2026-09-03T12:53:18.000Z</time>
      </trkpt>
      <trkpt lat="48.21552" lon="6.69167">
        <ele>553.59997558594</ele>
        <time>2026-09-03T12:53:19.000Z</time>
      </trkpt>
      <trkpt lat="48.21552" lon="6.69165">
        <ele>553.40002441406</ele>
        <time>2026-09-03T12:53:20.000Z</time>
      </trkpt>
      <trkpt lat="48.21552" lon="6.69163">
        <ele>553.40002441406</ele>
        <time>2026-09-03T12:53:21.000Z</time>
      </trkpt>
      <trkpt lat="48.21552" lon="6.69161">
        <ele>553.40002441406</ele>
        <time>2026-09-03T12:53:22.000Z</time>
      </trkpt>
      <trkpt lat="48.21552" lon="6.69159">
        <ele>553.40002441406</ele>
        <time>2026-09-03T12:53:23.000Z</time>
      </trkpt>
      <trkpt lat="48.21553" lon="6.69158">
        <ele>553.40002441406</ele>
        <time>2026-09-03T12:53:24.000Z</time>
      </trkpt>
      <trkpt lat="48.21553" lon="6.69155">
        <ele>553.40002441406</ele>
        <time>2026-09-03T12:53:25.000Z</time>
      </trkpt>
      <trkpt lat="48.21553" lon="6.69154">
        <ele>553.40002441406</ele>
        <time>2026-09-03T12:53:26.000Z</time>
      </trkpt>
      <trkpt lat="48.21554" lon="6.69152">
        <ele>553.40002441406</ele>
        <time>2026-09-03T12:53:27.000Z</time>
      </trkpt>
      <trkpt lat="48.21554" lon="6.69151">
        <ele>553.19995117188</ele>
        <time>2026-09-03T12:53:28.000Z</time>
      </trkpt>
      <trkpt lat="48.21554" lon="6.69149">
        <ele>553.19995117188</ele>
        <time>2026-09-03T12:53:29.000Z</time>
      </trkpt>
      <trkpt lat="48.21554" lon="6.69148">
        <ele>553.19995117188</ele>
        <time>2026-09-03T12:53:30.000Z</time>
      </trkpt>
      <trkpt lat="48.21555" lon="6.69146">
        <ele>553</ele>
        <time>2026-09-03T12:53:31.000Z</time>
      </trkpt>
      <trkpt lat="48.21555" lon="6.69143">
        <ele>553</ele>
        <time>2026-09-03T12:53:32.000Z</time>
      </trkpt>
      <trkpt lat="48.21555" lon="6.69142">
        <ele>553</ele>
        <time>2026-09-03T12:53:33.000Z</time>
      </trkpt>
      <trkpt lat="48.21555" lon="6.6914">
        <ele>553</ele>
        <time>2026-09-03T12:53:34.000Z</time>
      </trkpt>
      <trkpt lat="48.21555" lon="6.69138">
        <ele>553</ele>
        <time>2026-09-03T12:53:35.000Z</time>
      </trkpt>
      <trkpt lat="48.21556" lon="6.69136">
        <ele>553</ele>
        <time>2026-09-03T12:53:36.000Z</time>
      </trkpt>
      <trkpt lat="48.21556" lon="6.69135">
        <ele>553</ele>
        <time>2026-09-03T12:53:37.000Z</time>
      </trkpt>
      <trkpt lat="48.21556" lon="6.69132">
        <ele>553</ele>
        <time>2026-09-03T12:53:38.000Z</time>
      </trkpt>
      <trkpt lat="48.21556" lon="6.69131">
        <ele>552.80004882812</ele>
        <time>2026-09-03T12:53:39.000Z</time>
      </trkpt>
      <trkpt lat="48.21556" lon="6.69129">
        <ele>552.80004882812</ele>
        <time>2026-09-03T12:53:40.000Z</time>
      </trkpt>
      <trkpt lat="48.21556" lon="6.69126">
        <ele>552.80004882812</ele>
        <time>2026-09-03T12:53:41.000Z</time>
      </trkpt>
      <trkpt lat="48.21556" lon="6.69125">
        <ele>552.80004882812</ele>
        <time>2026-09-03T12:53:42.000Z</time>
      </trkpt>
      <trkpt lat="48.21557" lon="6.69123">
        <ele>552.59997558594</ele>
        <time>2026-09-03T12:53:43.000Z</time>
      </trkpt>
      <trkpt lat="48.21557" lon="6.69122">
        <ele>552.59997558594</ele>
        <time>2026-09-03T12:53:44.000Z</time>
      </trkpt>
      <trkpt lat="48.21557" lon="6.6912">
        <ele>552.40002441406</ele>
        <time>2026-09-03T12:53:45.000Z</time>
      </trkpt>
      <trkpt lat="48.21557" lon="6.69119">
        <ele>552.40002441406</ele>
        <time>2026-09-03T12:53:46.000Z</time>
      </trkpt>
      <trkpt lat="48.21557" lon="6.69118">
        <ele>552.40002441406</ele>
        <time>2026-09-03T12:53:47.000Z</time>
      </trkpt>
      <trkpt lat="48.21557" lon="6.69116">
        <ele>552.40002441406</ele>
        <time>2026-09-03T12:53:48.000Z</time>
      </trkpt>
      <trkpt lat="48.21557" lon="6.69114">
        <ele>552.19995117188</ele>
        <time>2026-09-03T12:53:49.000Z</time>
      </trkpt>
      <trkpt lat="48.21557" lon="6.69112">
        <ele>552.19995117188</ele>
        <time>2026-09-03T12:53:50.000Z</time>
      </trkpt>
      <trkpt lat="48.21557" lon="6.6911">
        <ele>552.19995117188</ele>
        <time>2026-09-03T12:53:51.000Z</time>
      </trkpt>
      <trkpt lat="48.21557" lon="6.69108">
        <ele>552.19995117188</ele>
        <time>2026-09-03T12:53:52.000Z</time>
      </trkpt>
      <trkpt lat="48.21557" lon="6.69106">
        <ele>552.19995117188</ele>
        <time>2026-09-03T12:53:53.000Z</time>
      </trkpt>
      <trkpt lat="48.21557" lon="6.69104">
        <ele>552.19995117188</ele>
        <time>2026-09-03T12:53:54.000Z</time>
      </trkpt>
      <trkpt lat="48.21557" lon="6.69103">
        <ele>552.19995117188</ele>
        <time>2026-09-03T12:53:55.000Z</time>
      </trkpt>
      <trkpt lat="48.21557" lon="6.69101">
        <ele>552.19995117188</ele>
        <time>2026-09-03T12:53:56.000Z</time>
      </trkpt>
      <trkpt lat="48.21558" lon="6.69099">
        <ele>552.19995117188</ele>
        <time>2026-09-03T12:53:57.000Z</time>
      </trkpt>
      <trkpt lat="48.21558" lon="6.69097">
        <ele>552</ele>
        <time>2026-09-03T12:53:58.000Z</time>
      </trkpt>
      <trkpt lat="48.21558" lon="6.69096">
        <ele>552</ele>
        <time>2026-09-03T12:53:59.000Z</time>
      </trkpt>
      <trkpt lat="48.21558" lon="6.69094">
        <ele>552</ele>
        <time>2026-09-03T12:54:00.000Z</time>
      </trkpt>
      <trkpt lat="48.21558" lon="6.69093">
        <ele>552</ele>
        <time>2026-09-03T12:54:01.000Z</time>
      </trkpt>
      <trkpt lat="48.21559" lon="6.69091">
        <ele>551.80004882812</ele>
        <time>2026-09-03T12:54:02.000Z</time>
      </trkpt>
      <trkpt lat="48.21559" lon="6.69088">
        <ele>551.80004882812</ele>
        <time>2026-09-03T12:54:03.000Z</time>
      </trkpt>
      <trkpt lat="48.2156" lon="6.69087">
        <ele>551.59997558594</ele>
        <time>2026-09-03T12:54:04.000Z</time>
      </trkpt>
      <trkpt lat="48.21559" lon="6.69086">
        <ele>551.40002441406</ele>
        <time>2026-09-03T12:54:05.000Z</time>
      </trkpt>
      <trkpt lat="48.21559" lon="6.69084">
        <ele>551.19995117188</ele>
        <time>2026-09-03T12:54:06.000Z</time>
      </trkpt>
      <trkpt lat="48.21559" lon="6.69082">
        <ele>551.19995117188</ele>
        <time>2026-09-03T12:54:07.000Z</time>
      </trkpt>
      <trkpt lat="48.2156" lon="6.6908">
        <ele>551.40002441406</ele>
        <time>2026-09-03T12:54:08.000Z</time>
      </trkpt>
      <trkpt lat="48.2156" lon="6.69078">
        <ele>551.40002441406</ele>
        <time>2026-09-03T12:54:09.000Z</time>
      </trkpt>
      <trkpt lat="48.2156" lon="6.69077">
        <ele>551.80004882812</ele>
        <time>2026-09-03T12:54:10.000Z</time>
      </trkpt>
      <trkpt lat="48.21561" lon="6.69075">
        <ele>551.80004882812</ele>
        <time>2026-09-03T12:54:11.000Z</time>
      </trkpt>
      <trkpt lat="48.21561" lon="6.69073">
        <ele>551.80004882812</ele>
        <time>2026-09-03T12:54:12.000Z</time>
      </trkpt>
      <trkpt lat="48.21561" lon="6.69072">
        <ele>551.80004882812</ele>
        <time>2026-09-03T12:54:13.000Z</time>
      </trkpt>
      <trkpt lat="48.21561" lon="6.69069">
        <ele>551.80004882812</ele>
        <time>2026-09-03T12:54:14.000Z</time>
      </trkpt>
      <trkpt lat="48.21562" lon="6.69067">
        <ele>551.80004882812</ele>
        <time>2026-09-03T12:54:15.000Z</time>
      </trkpt>
      <trkpt lat="48.21561" lon="6.69065">
        <ele>551.80004882812</ele>
        <time>2026-09-03T12:54:16.000Z</time>
      </trkpt>
      <trkpt lat="48.21561" lon="6.69064">
        <ele>551.80004882812</ele>
        <time>2026-09-03T12:54:17.000Z</time>
      </trkpt>
      <trkpt lat="48.21561" lon="6.69062">
        <ele>551.59997558594</ele>
        <time>2026-09-03T12:54:18.000Z</time>
      </trkpt>
      <trkpt lat="48.21561" lon="6.69061">
        <ele>551.59997558594</ele>
        <time>2026-09-03T12:54:19.000Z</time>
      </trkpt>
      <trkpt lat="48.2156" lon="6.6906">
        <ele>551.40002441406</ele>
        <time>2026-09-03T12:54:20.000Z</time>
      </trkpt>
      <trkpt lat="48.21561" lon="6.69058">
        <ele>551.40002441406</ele>
        <time>2026-09-03T12:54:21.000Z</time>
      </trkpt>
      <trkpt lat="48.21561" lon="6.69057">
        <ele>551.19995117188</ele>
        <time>2026-09-03T12:54:22.000Z</time>
      </trkpt>
      <trkpt lat="48.21561" lon="6.69055">
        <ele>551.19995117188</ele>
        <time>2026-09-03T12:54:23.000Z</time>
      </trkpt>
      <trkpt lat="48.21562" lon="6.69053">
        <ele>551.19995117188</ele>
        <time>2026-09-03T12:54:24.000Z</time>
      </trkpt>
      <trkpt lat="48.21562" lon="6.69052">
        <ele>551.40002441406</ele>
        <time>2026-09-03T12:54:25.000Z</time>
      </trkpt>
      <trkpt lat="48.21562" lon="6.6905">
        <ele>551.19995117188</ele>
        <time>2026-09-03T12:54:26.000Z</time>
      </trkpt>
      <trkpt lat="48.21562" lon="6.69048">
        <ele>551.19995117188</ele>
        <time>2026-09-03T12:54:27.000Z</time>
      </trkpt>
      <trkpt lat="48.21562" lon="6.69047">
        <ele>551.19995117188</ele>
        <time>2026-09-03T12:54:28.000Z</time>
      </trkpt>
      <trkpt lat="48.21562" lon="6.69046">
        <ele>551</ele>
        <time>2026-09-03T12:54:29.000Z</time>
      </trkpt>
      <trkpt lat="48.21562" lon="6.69044">
        <ele>551</ele>
        <time>2026-09-03T12:54:30.000Z</time>
      </trkpt>
      <trkpt lat="48.21562" lon="6.69042">
        <ele>550.80004882812</ele>
        <time>2026-09-03T12:54:31.000Z</time>
      </trkpt>
      <trkpt lat="48.21562" lon="6.6904">
        <ele>550.80004882812</ele>
        <time>2026-09-03T12:54:32.000Z</time>
      </trkpt>
      <trkpt lat="48.21562" lon="6.69038">
        <ele>550.59997558594</ele>
        <time>2026-09-03T12:54:33.000Z</time>
      </trkpt>
      <trkpt lat="48.21562" lon="6.69037">
        <ele>550.59997558594</ele>
        <time>2026-09-03T12:54:34.000Z</time>
      </trkpt>
      <trkpt lat="48.21562" lon="6.69035">
        <ele>550.59997558594</ele>
        <time>2026-09-03T12:54:35.000Z</time>
      </trkpt>
      <trkpt lat="48.21562" lon="6.69034">
        <ele>550.59997558594</ele>
        <time>2026-09-03T12:54:36.000Z</time>
      </trkpt>
      <trkpt lat="48.21562" lon="6.69031">
        <ele>550.40002441406</ele>
        <time>2026-09-03T12:54:37.000Z</time>
      </trkpt>
      <trkpt lat="48.21561" lon="6.6903">
        <ele>550.40002441406</ele>
        <time>2026-09-03T12:54:38.000Z</time>
      </trkpt>
      <trkpt lat="48.21561" lon="6.69028">
        <ele>550.40002441406</ele>
        <time>2026-09-03T12:54:39.000Z</time>
      </trkpt>
      <trkpt lat="48.21561" lon="6.69026">
        <ele>550.40002441406</ele>
        <time>2026-09-03T12:54:40.000Z</time>
      </trkpt>
      <trkpt lat="48.21561" lon="6.69024">
        <ele>550.19995117188</ele>
        <time>2026-09-03T12:54:41.000Z</time>
      </trkpt>
      <trkpt lat="48.21561" lon="6.69023">
        <ele>550.19995117188</ele>
        <time>2026-09-03T12:54:42.000Z</time>
      </trkpt>
      <trkpt lat="48.21562" lon="6.69022">
        <ele>550</ele>
        <time>2026-09-03T12:54:43.000Z</time>
      </trkpt>
      <trkpt lat="48.21562" lon="6.69021">
        <ele>550</ele>
        <time>2026-09-03T12:54:44.000Z</time>
      </trkpt>
      <trkpt lat="48.21562" lon="6.6902">
        <ele>550</ele>
        <time>2026-09-03T12:54:45.000Z</time>
      </trkpt>
      <trkpt lat="48.21562" lon="6.6902">
        <ele>550</ele>
        <time>2026-09-03T12:54:46.000Z</time>
      </trkpt>
      <trkpt lat="48.21562" lon="6.6902">
        <ele>550</ele>
        <time>2026-09-03T12:54:47.000Z</time>
      </trkpt>
      <trkpt lat="48.21563" lon="6.69019">
        <ele>550</ele>
        <time>2026-09-03T12:54:48.000Z</time>
      </trkpt>
      <trkpt lat="48.21563" lon="6.69018">
        <ele>550</ele>
        <time>2026-09-03T12:54:49.000Z</time>
      </trkpt>
      <trkpt lat="48.21564" lon="6.69017">
        <ele>550</ele>
        <time>2026-09-03T12:54:50.000Z</time>
      </trkpt>
      <trkpt lat="48.21564" lon="6.69017">
        <ele>550</ele>
        <time>2026-09-03T12:54:51.000Z</time>
      </trkpt>
      <trkpt lat="48.21564" lon="6.69018">
        <ele>549.80004882812</ele>
        <time>2026-09-03T12:54:52.000Z</time>
      </trkpt>
      <trkpt lat="48.21565" lon="6.69019">
        <ele>549.80004882812</ele>
        <time>2026-09-03T12:54:53.000Z</time>
      </trkpt>
      <trkpt lat="48.21565" lon="6.6902">
        <ele>549.80004882812</ele>
        <time>2026-09-03T12:54:54.000Z</time>
      </trkpt>
      <trkpt lat="48.21566" lon="6.69022">
        <ele>549.80004882812</ele>
        <time>2026-09-03T12:54:55.000Z</time>
      </trkpt>
      <trkpt lat="48.21567" lon="6.69023">
        <ele>549.80004882812</ele>
        <time>2026-09-03T12:54:56.000Z</time>
      </trkpt>
      <trkpt lat="48.21567" lon="6.69023">
        <ele>549.80004882812</ele>
        <time>2026-09-03T12:54:57.000Z</time>
      </trkpt>
      <trkpt lat="48.21567" lon="6.69025">
        <ele>549.80004882812</ele>
        <time>2026-09-03T12:54:58.000Z</time>
      </trkpt>
      <trkpt lat="48.21568" lon="6.69026">
        <ele>550</ele>
        <time>2026-09-03T12:54:59.000Z</time>
      </trkpt>
      <trkpt lat="48.21569" lon="6.69027">
        <ele>550</ele>
        <time>2026-09-03T12:55:00.000Z</time>
      </trkpt>
      <trkpt lat="48.21569" lon="6.69028">
        <ele>550</ele>
        <time>2026-09-03T12:55:01.000Z</time>
      </trkpt>
      <trkpt lat="48.21569" lon="6.69028">
        <ele>550</ele>
        <time>2026-09-03T12:55:02.000Z</time>
      </trkpt>
      <trkpt lat="48.21569" lon="6.69028">
        <ele>550</ele>
        <time>2026-09-03T12:55:03.000Z</time>
      </trkpt>
      <trkpt lat="48.21568" lon="6.69028">
        <ele>550</ele>
        <time>2026-09-03T12:55:04.000Z</time>
      </trkpt>
      <trkpt lat="48.21568" lon="6.69027">
        <ele>550</ele>
        <time>2026-09-03T12:55:05.000Z</time>
      </trkpt>
      <trkpt lat="48.21567" lon="6.69025">
        <ele>550</ele>
        <time>2026-09-03T12:55:06.000Z</time>
      </trkpt>
      <trkpt lat="48.21567" lon="6.69024">
        <ele>550</ele>
        <time>2026-09-03T12:55:07.000Z</time>
      </trkpt>
      <trkpt lat="48.21566" lon="6.69022">
        <ele>550</ele>
        <time>2026-09-03T12:55:08.000Z</time>
      </trkpt>
      <trkpt lat="48.21566" lon="6.69021">
        <ele>550</ele>
        <time>2026-09-03T12:55:09.000Z</time>
      </trkpt>
      <trkpt lat="48.21566" lon="6.6902">
        <ele>550</ele>
        <time>2026-09-03T12:55:10.000Z</time>
      </trkpt>
      <trkpt lat="48.21566" lon="6.69021">
        <ele>550</ele>
        <time>2026-09-03T12:55:11.000Z</time>
      </trkpt>
      <trkpt lat="48.21567" lon="6.69021">
        <ele>550</ele>
        <time>2026-09-03T12:55:12.000Z</time>
      </trkpt>
      <trkpt lat="48.21567" lon="6.69021">
        <ele>549.80004882812</ele>
        <time>2026-09-03T12:55:13.000Z</time>
      </trkpt>
      <trkpt lat="48.21567" lon="6.69021">
        <ele>549.80004882812</ele>
        <time>2026-09-03T12:55:14.000Z</time>
      </trkpt>
      <trkpt lat="48.21567" lon="6.69021">
        <ele>549.80004882812</ele>
        <time>2026-09-03T12:55:15.000Z</time>
      </trkpt>
      <trkpt lat="48.21567" lon="6.69021">
        <ele>549.80004882812</ele>
        <time>2026-09-03T12:55:16.000Z</time>
      </trkpt>
      <trkpt lat="48.21567" lon="6.69021">
        <ele>549.80004882812</ele>
        <time>2026-09-03T12:55:17.000Z</time>
      </trkpt>
      <trkpt lat="48.21567" lon="6.69021">
        <ele>549.80004882812</ele>
        <time>2026-09-03T12:55:18.000Z</time>
      </trkpt>
      <trkpt lat="48.21567" lon="6.69021">
        <ele>549.80004882812</ele>
        <time>2026-09-03T12:55:19.000Z</time>
      </trkpt>
      <trkpt lat="48.21568" lon="6.69022">
        <ele>549.80004882812</ele>
        <time>2026-09-03T12:55:20.000Z</time>
      </trkpt>
      <trkpt lat="48.21569" lon="6.69024">
        <ele>549.80004882812</ele>
        <time>2026-09-03T12:55:21.000Z</time>
      </trkpt>
      <trkpt lat="48.21569" lon="6.69025">
        <ele>550</ele>
        <time>2026-09-03T12:55:22.000Z</time>
      </trkpt>
      <trkpt lat="48.2157" lon="6.69027">
        <ele>549.80004882812</ele>
        <time>2026-09-03T12:55:23.000Z</time>
      </trkpt>
      <trkpt lat="48.21572" lon="6.69029">
        <ele>549.80004882812</ele>
        <time>2026-09-03T12:55:24.000Z</time>
      </trkpt>
      <trkpt lat="48.21572" lon="6.69029">
        <ele>549.80004882812</ele>
        <time>2026-09-03T12:55:25.000Z</time>
      </trkpt>
      <trkpt lat="48.21573" lon="6.69031">
        <ele>549.80004882812</ele>
        <time>2026-09-03T12:55:26.000Z</time>
      </trkpt>
      <trkpt lat="48.21574" lon="6.69032">
        <ele>549.59997558594</ele>
        <time>2026-09-03T12:55:27.000Z</time>
      </trkpt>
      <trkpt lat="48.21575" lon="6.69033">
        <ele>549.59997558594</ele>
        <time>2026-09-03T12:55:28.000Z</time>
      </trkpt>
      <trkpt lat="48.21576" lon="6.69033">
        <ele>549.59997558594</ele>
        <time>2026-09-03T12:55:29.000Z</time>
      </trkpt>
      <trkpt lat="48.21578" lon="6.69035">
        <ele>549.59997558594</ele>
        <time>2026-09-03T12:55:30.000Z</time>
      </trkpt>
      <trkpt lat="48.21578" lon="6.69035">
        <ele>549.59997558594</ele>
        <time>2026-09-03T12:55:31.000Z</time>
      </trkpt>
      <trkpt lat="48.2158" lon="6.69037">
        <ele>549.40002441406</ele>
        <time>2026-09-03T12:55:32.000Z</time>
      </trkpt>
      <trkpt lat="48.2158" lon="6.69038">
        <ele>549.40002441406</ele>
        <time>2026-09-03T12:55:33.000Z</time>
      </trkpt>
      <trkpt lat="48.21581" lon="6.69038">
        <ele>549.19995117188</ele>
        <time>2026-09-03T12:55:34.000Z</time>
      </trkpt>
      <trkpt lat="48.21582" lon="6.6904">
        <ele>549</ele>
        <time>2026-09-03T12:55:35.000Z</time>
      </trkpt>
      <trkpt lat="48.21583" lon="6.69041">
        <ele>548.80004882812</ele>
        <time>2026-09-03T12:55:36.000Z</time>
      </trkpt>
      <trkpt lat="48.21584" lon="6.69042">
        <ele>548.80004882812</ele>
        <time>2026-09-03T12:55:37.000Z</time>
      </trkpt>
      <trkpt lat="48.21585" lon="6.69043">
        <ele>548.80004882812</ele>
        <time>2026-09-03T12:55:38.000Z</time>
      </trkpt>
      <trkpt lat="48.21587" lon="6.69045">
        <ele>548.59997558594</ele>
        <time>2026-09-03T12:55:39.000Z</time>
      </trkpt>
      <trkpt lat="48.21588" lon="6.69046">
        <ele>548.59997558594</ele>
        <time>2026-09-03T12:55:40.000Z</time>
      </trkpt>
      <trkpt lat="48.21588" lon="6.69046">
        <ele>548.59997558594</ele>
        <time>2026-09-03T12:55:41.000Z</time>
      </trkpt>
      <trkpt lat="48.21589" lon="6.69047">
        <ele>548.40002441406</ele>
        <time>2026-09-03T12:55:42.000Z</time>
      </trkpt>
      <trkpt lat="48.21589" lon="6.69048">
        <ele>548.19995117188</ele>
        <time>2026-09-03T12:55:43.000Z</time>
      </trkpt>
      <trkpt lat="48.2159" lon="6.69049">
        <ele>548.19995117188</ele>
        <time>2026-09-03T12:55:44.000Z</time>
      </trkpt>
      <trkpt lat="48.21591" lon="6.6905">
        <ele>548</ele>
        <time>2026-09-03T12:55:45.000Z</time>
      </trkpt>
      <trkpt lat="48.21592" lon="6.69051">
        <ele>548</ele>
        <time>2026-09-03T12:55:46.000Z</time>
      </trkpt>
      <trkpt lat="48.21593" lon="6.69052">
        <ele>547.80004882812</ele>
        <time>2026-09-03T12:55:47.000Z</time>
      </trkpt>
      <trkpt lat="48.21594" lon="6.69053">
        <ele>547.80004882812</ele>
        <time>2026-09-03T12:55:48.000Z</time>
      </trkpt>
      <trkpt lat="48.21594" lon="6.69055">
        <ele>547.59997558594</ele>
        <time>2026-09-03T12:55:49.000Z</time>
      </trkpt>
      <trkpt lat="48.21595" lon="6.69056">
        <ele>547.40002441406</ele>
        <time>2026-09-03T12:55:50.000Z</time>
      </trkpt>
      <trkpt lat="48.21596" lon="6.69057">
        <ele>547.19995117188</ele>
        <time>2026-09-03T12:55:51.000Z</time>
      </trkpt>
      <trkpt lat="48.21596" lon="6.69058">
        <ele>547</ele>
        <time>2026-09-03T12:55:52.000Z</time>
      </trkpt>
      <trkpt lat="48.21597" lon="6.69059">
        <ele>547</ele>
        <time>2026-09-03T12:55:53.000Z</time>
      </trkpt>
      <trkpt lat="48.21597" lon="6.69061">
        <ele>546.80004882812</ele>
        <time>2026-09-03T12:55:54.000Z</time>
      </trkpt>
      <trkpt lat="48.21598" lon="6.69062">
        <ele>546.59997558594</ele>
        <time>2026-09-03T12:55:55.000Z</time>
      </trkpt>
      <trkpt lat="48.21599" lon="6.69063">
        <ele>546.59997558594</ele>
        <time>2026-09-03T12:55:56.000Z</time>
      </trkpt>
      <trkpt lat="48.216" lon="6.69064">
        <ele>546.40002441406</ele>
        <time>2026-09-03T12:55:57.000Z</time>
      </trkpt>
      <trkpt lat="48.21601" lon="6.69065">
        <ele>546.40002441406</ele>
        <time>2026-09-03T12:55:58.000Z</time>
      </trkpt>
      <trkpt lat="48.21601" lon="6.69067">
        <ele>546.19995117188</ele>
        <time>2026-09-03T12:55:59.000Z</time>
      </trkpt>
      <trkpt lat="48.21602" lon="6.69068">
        <ele>546.19995117188</ele>
        <time>2026-09-03T12:56:00.000Z</time>
      </trkpt>
      <trkpt lat="48.21603" lon="6.69069">
        <ele>546</ele>
        <time>2026-09-03T12:56:01.000Z</time>
      </trkpt>
      <trkpt lat="48.21604" lon="6.69071">
        <ele>546</ele>
        <time>2026-09-03T12:56:02.000Z</time>
      </trkpt>
      <trkpt lat="48.21604" lon="6.69072">
        <ele>545.80004882812</ele>
        <time>2026-09-03T12:56:03.000Z</time>
      </trkpt>
      <trkpt lat="48.21605" lon="6.69073">
        <ele>545.80004882812</ele>
        <time>2026-09-03T12:56:04.000Z</time>
      </trkpt>
      <trkpt lat="48.21607" lon="6.69075">
        <ele>545.80004882812</ele>
        <time>2026-09-03T12:56:05.000Z</time>
      </trkpt>
      <trkpt lat="48.21608" lon="6.69076">
        <ele>545.80004882812</ele>
        <time>2026-09-03T12:56:06.000Z</time>
      </trkpt>
      <trkpt lat="48.21608" lon="6.69077">
        <ele>545.80004882812</ele>
        <time>2026-09-03T12:56:07.000Z</time>
      </trkpt>
      <trkpt lat="48.21609" lon="6.69078">
        <ele>545.59997558594</ele>
        <time>2026-09-03T12:56:08.000Z</time>
      </trkpt>
      <trkpt lat="48.21609" lon="6.69078">
        <ele>545.59997558594</ele>
        <time>2026-09-03T12:56:09.000Z</time>
      </trkpt>
      <trkpt lat="48.2161" lon="6.69079">
        <ele>545.40002441406</ele>
        <time>2026-09-03T12:56:10.000Z</time>
      </trkpt>
      <trkpt lat="48.2161" lon="6.6908">
        <ele>545.40002441406</ele>
        <time>2026-09-03T12:56:11.000Z</time>
      </trkpt>
      <trkpt lat="48.21611" lon="6.69081">
        <ele>545.19995117188</ele>
        <time>2026-09-03T12:56:12.000Z</time>
      </trkpt>
      <trkpt lat="48.21612" lon="6.69082">
        <ele>545.19995117188</ele>
        <time>2026-09-03T12:56:13.000Z</time>
      </trkpt>
      <trkpt lat="48.21613" lon="6.69083">
        <ele>545</ele>
        <time>2026-09-03T12:56:14.000Z</time>
      </trkpt>
      <trkpt lat="48.21613" lon="6.69085">
        <ele>545</ele>
        <time>2026-09-03T12:56:15.000Z</time>
      </trkpt>
      <trkpt lat="48.21614" lon="6.69086">
        <ele>545</ele>
        <time>2026-09-03T12:56:16.000Z</time>
      </trkpt>
      <trkpt lat="48.21615" lon="6.69087">
        <ele>544.80004882812</ele>
        <time>2026-09-03T12:56:17.000Z</time>
      </trkpt>
      <trkpt lat="48.21616" lon="6.69089">
        <ele>544.80004882812</ele>
        <time>2026-09-03T12:56:18.000Z</time>
      </trkpt>
      <trkpt lat="48.21617" lon="6.6909">
        <ele>544.80004882812</ele>
        <time>2026-09-03T12:56:19.000Z</time>
      </trkpt>
      <trkpt lat="48.21618" lon="6.69092">
        <ele>544.80004882812</ele>
        <time>2026-09-03T12:56:20.000Z</time>
      </trkpt>
      <trkpt lat="48.2162" lon="6.69094">
        <ele>544.80004882812</ele>
        <time>2026-09-03T12:56:21.000Z</time>
      </trkpt>
      <trkpt lat="48.21621" lon="6.69095">
        <ele>544.59997558594</ele>
        <time>2026-09-03T12:56:22.000Z</time>
      </trkpt>
      <trkpt lat="48.21622" lon="6.69097">
        <ele>544.59997558594</ele>
        <time>2026-09-03T12:56:23.000Z</time>
      </trkpt>
      <trkpt lat="48.21623" lon="6.69098">
        <ele>544.59997558594</ele>
        <time>2026-09-03T12:56:24.000Z</time>
      </trkpt>
      <trkpt lat="48.21624" lon="6.69099">
        <ele>544.40002441406</ele>
        <time>2026-09-03T12:56:25.000Z</time>
      </trkpt>
      <trkpt lat="48.21624" lon="6.69101">
        <ele>544.40002441406</ele>
        <time>2026-09-03T12:56:26.000Z</time>
      </trkpt>
      <trkpt lat="48.21625" lon="6.69103">
        <ele>544.19995117188</ele>
        <time>2026-09-03T12:56:27.000Z</time>
      </trkpt>
      <trkpt lat="48.21627" lon="6.69104">
        <ele>544.19995117188</ele>
        <time>2026-09-03T12:56:28.000Z</time>
      </trkpt>
      <trkpt lat="48.21627" lon="6.69106">
        <ele>544</ele>
        <time>2026-09-03T12:56:29.000Z</time>
      </trkpt>
      <trkpt lat="48.21628" lon="6.69107">
        <ele>543.80004882812</ele>
        <time>2026-09-03T12:56:30.000Z</time>
      </trkpt>
      <trkpt lat="48.21629" lon="6.69109">
        <ele>543.59997558594</ele>
        <time>2026-09-03T12:56:31.000Z</time>
      </trkpt>
      <trkpt lat="48.2163" lon="6.6911">
        <ele>543.40002441406</ele>
        <time>2026-09-03T12:56:32.000Z</time>
      </trkpt>
      <trkpt lat="48.2163" lon="6.69111">
        <ele>543.19995117188</ele>
        <time>2026-09-03T12:56:33.000Z</time>
      </trkpt>
      <trkpt lat="48.21631" lon="6.69112">
        <ele>543.19995117188</ele>
        <time>2026-09-03T12:56:34.000Z</time>
      </trkpt>
      <trkpt lat="48.21631" lon="6.69114">
        <ele>543.40002441406</ele>
        <time>2026-09-03T12:56:35.000Z</time>
      </trkpt>
      <trkpt lat="48.21632" lon="6.69115">
        <ele>543.40002441406</ele>
        <time>2026-09-03T12:56:36.000Z</time>
      </trkpt>
      <trkpt lat="48.21632" lon="6.69117">
        <ele>543.59997558594</ele>
        <time>2026-09-03T12:56:37.000Z</time>
      </trkpt>
      <trkpt lat="48.21633" lon="6.69118">
        <ele>543.59997558594</ele>
        <time>2026-09-03T12:56:38.000Z</time>
      </trkpt>
      <trkpt lat="48.21634" lon="6.69119">
        <ele>543.59997558594</ele>
        <time>2026-09-03T12:56:39.000Z</time>
      </trkpt>
      <trkpt lat="48.21635" lon="6.6912">
        <ele>543.40002441406</ele>
        <time>2026-09-03T12:56:40.000Z</time>
      </trkpt>
      <trkpt lat="48.21635" lon="6.69122">
        <ele>543.19995117188</ele>
        <time>2026-09-03T12:56:41.000Z</time>
      </trkpt>
      <trkpt lat="48.21635" lon="6.69123">
        <ele>543</ele>
        <time>2026-09-03T12:56:42.000Z</time>
      </trkpt>
      <trkpt lat="48.21636" lon="6.69124">
        <ele>542.80004882812</ele>
        <time>2026-09-03T12:56:43.000Z</time>
      </trkpt>
      <trkpt lat="48.21637" lon="6.69125">
        <ele>542.80004882812</ele>
        <time>2026-09-03T12:56:44.000Z</time>
      </trkpt>
      <trkpt lat="48.21638" lon="6.69127">
        <ele>542.59997558594</ele>
        <time>2026-09-03T12:56:45.000Z</time>
      </trkpt>
      <trkpt lat="48.21639" lon="6.69128">
        <ele>542.59997558594</ele>
        <time>2026-09-03T12:56:46.000Z</time>
      </trkpt>
      <trkpt lat="48.2164" lon="6.6913">
        <ele>542.59997558594</ele>
        <time>2026-09-03T12:56:47.000Z</time>
      </trkpt>
      <trkpt lat="48.21641" lon="6.69131">
        <ele>542.59997558594</ele>
        <time>2026-09-03T12:56:48.000Z</time>
      </trkpt>
      <trkpt lat="48.21641" lon="6.69132">
        <ele>542.40002441406</ele>
        <time>2026-09-03T12:56:49.000Z</time>
      </trkpt>
      <trkpt lat="48.21642" lon="6.69133">
        <ele>542.40002441406</ele>
        <time>2026-09-03T12:56:50.000Z</time>
      </trkpt>
      <trkpt lat="48.21642" lon="6.69134">
        <ele>542.40002441406</ele>
        <time>2026-09-03T12:56:51.000Z</time>
      </trkpt>
      <trkpt lat="48.21643" lon="6.69135">
        <ele>542.40002441406</ele>
        <time>2026-09-03T12:56:52.000Z</time>
      </trkpt>
      <trkpt lat="48.21644" lon="6.69137">
        <ele>542.19995117188</ele>
        <time>2026-09-03T12:56:53.000Z</time>
      </trkpt>
      <trkpt lat="48.21645" lon="6.69138">
        <ele>542.19995117188</ele>
        <time>2026-09-03T12:56:54.000Z</time>
      </trkpt>
      <trkpt lat="48.21645" lon="6.6914">
        <ele>542</ele>
        <time>2026-09-03T12:56:55.000Z</time>
      </trkpt>
      <trkpt lat="48.21646" lon="6.69141">
        <ele>542</ele>
        <time>2026-09-03T12:56:56.000Z</time>
      </trkpt>
      <trkpt lat="48.21646" lon="6.69142">
        <ele>541.80004882812</ele>
        <time>2026-09-03T12:56:57.000Z</time>
      </trkpt>
      <trkpt lat="48.21647" lon="6.69143">
        <ele>541.80004882812</ele>
        <time>2026-09-03T12:56:58.000Z</time>
      </trkpt>
      <trkpt lat="48.21647" lon="6.69144">
        <ele>541.80004882812</ele>
        <time>2026-09-03T12:56:59.000Z</time>
      </trkpt>
      <trkpt lat="48.21648" lon="6.69146">
        <ele>541.80004882812</ele>
        <time>2026-09-03T12:57:00.000Z</time>
      </trkpt>
      <trkpt lat="48.21649" lon="6.69148">
        <ele>541.59997558594</ele>
        <time>2026-09-03T12:57:01.000Z</time>
      </trkpt>
      <trkpt lat="48.2165" lon="6.69149">
        <ele>541.59997558594</ele>
        <time>2026-09-03T12:57:02.000Z</time>
      </trkpt>
      <trkpt lat="48.21651" lon="6.69151">
        <ele>541.59997558594</ele>
        <time>2026-09-03T12:57:03.000Z</time>
      </trkpt>
      <trkpt lat="48.21653" lon="6.69153">
        <ele>541.40002441406</ele>
        <time>2026-09-03T12:57:04.000Z</time>
      </trkpt>
      <trkpt lat="48.21653" lon="6.69153">
        <ele>541.40002441406</ele>
        <time>2026-09-03T12:57:05.000Z</time>
      </trkpt>
      <trkpt lat="48.21654" lon="6.69154">
        <ele>541.40002441406</ele>
        <time>2026-09-03T12:57:06.000Z</time>
      </trkpt>
      <trkpt lat="48.21655" lon="6.69155">
        <ele>541.40002441406</ele>
        <time>2026-09-03T12:57:07.000Z</time>
      </trkpt>
      <trkpt lat="48.21655" lon="6.69156">
        <ele>541.40002441406</ele>
        <time>2026-09-03T12:57:08.000Z</time>
      </trkpt>
      <trkpt lat="48.21656" lon="6.69157">
        <ele>541.40002441406</ele>
        <time>2026-09-03T12:57:09.000Z</time>
      </trkpt>
      <trkpt lat="48.21657" lon="6.69159">
        <ele>541.19995117188</ele>
        <time>2026-09-03T12:57:10.000Z</time>
      </trkpt>
      <trkpt lat="48.21658" lon="6.6916">
        <ele>541.19995117188</ele>
        <time>2026-09-03T12:57:11.000Z</time>
      </trkpt>
      <trkpt lat="48.21659" lon="6.69161">
        <ele>541.19995117188</ele>
        <time>2026-09-03T12:57:12.000Z</time>
      </trkpt>
      <trkpt lat="48.2166" lon="6.69162">
        <ele>541.19995117188</ele>
        <time>2026-09-03T12:57:13.000Z</time>
      </trkpt>
      <trkpt lat="48.21661" lon="6.69164">
        <ele>541.19995117188</ele>
        <time>2026-09-03T12:57:14.000Z</time>
      </trkpt>
      <trkpt lat="48.21662" lon="6.69165">
        <ele>541.19995117188</ele>
        <time>2026-09-03T12:57:15.000Z</time>
      </trkpt>
      <trkpt lat="48.21663" lon="6.69166">
        <ele>541.19995117188</ele>
        <time>2026-09-03T12:57:16.000Z</time>
      </trkpt>
      <trkpt lat="48.21663" lon="6.69166">
        <ele>541</ele>
        <time>2026-09-03T12:57:17.000Z</time>
      </trkpt>
      <trkpt lat="48.21663" lon="6.69167">
        <ele>541</ele>
        <time>2026-09-03T12:57:18.000Z</time>
      </trkpt>
      <trkpt lat="48.21664" lon="6.69168">
        <ele>541</ele>
        <time>2026-09-03T12:57:19.000Z</time>
      </trkpt>
      <trkpt lat="48.21665" lon="6.6917">
        <ele>541.19995117188</ele>
        <time>2026-09-03T12:57:20.000Z</time>
      </trkpt>
      <trkpt lat="48.21666" lon="6.69172">
        <ele>541.19995117188</ele>
        <time>2026-09-03T12:57:21.000Z</time>
      </trkpt>
      <trkpt lat="48.21667" lon="6.69173">
        <ele>541.19995117188</ele>
        <time>2026-09-03T12:57:22.000Z</time>
      </trkpt>
      <trkpt lat="48.21669" lon="6.69174">
        <ele>541.19995117188</ele>
        <time>2026-09-03T12:57:23.000Z</time>
      </trkpt>
      <trkpt lat="48.2167" lon="6.69176">
        <ele>541</ele>
        <time>2026-09-03T12:57:24.000Z</time>
      </trkpt>
      <trkpt lat="48.21671" lon="6.69178">
        <ele>541</ele>
        <time>2026-09-03T12:57:25.000Z</time>
      </trkpt>
      <trkpt lat="48.21671" lon="6.69179">
        <ele>541</ele>
        <time>2026-09-03T12:57:26.000Z</time>
      </trkpt>
      <trkpt lat="48.21672" lon="6.69181">
        <ele>540.80004882812</ele>
        <time>2026-09-03T12:57:27.000Z</time>
      </trkpt>
      <trkpt lat="48.21673" lon="6.69182">
        <ele>540.80004882812</ele>
        <time>2026-09-03T12:57:28.000Z</time>
      </trkpt>
      <trkpt lat="48.21674" lon="6.69185">
        <ele>540.80004882812</ele>
        <time>2026-09-03T12:57:29.000Z</time>
      </trkpt>
      <trkpt lat="48.21675" lon="6.69186">
        <ele>540.80004882812</ele>
        <time>2026-09-03T12:57:30.000Z</time>
      </trkpt>
      <trkpt lat="48.21675" lon="6.69188">
        <ele>540.80004882812</ele>
        <time>2026-09-03T12:57:31.000Z</time>
      </trkpt>
      <trkpt lat="48.21676" lon="6.69189">
        <ele>540.80004882812</ele>
        <time>2026-09-03T12:57:32.000Z</time>
      </trkpt>
      <trkpt lat="48.21677" lon="6.6919">
        <ele>540.80004882812</ele>
        <time>2026-09-03T12:57:33.000Z</time>
      </trkpt>
      <trkpt lat="48.21678" lon="6.69192">
        <ele>541</ele>
        <time>2026-09-03T12:57:34.000Z</time>
      </trkpt>
      <trkpt lat="48.21678" lon="6.69194">
        <ele>540.80004882812</ele>
        <time>2026-09-03T12:57:35.000Z</time>
      </trkpt>
      <trkpt lat="48.21679" lon="6.69195">
        <ele>540.80004882812</ele>
        <time>2026-09-03T12:57:36.000Z</time>
      </trkpt>
      <trkpt lat="48.21679" lon="6.69197">
        <ele>540.80004882812</ele>
        <time>2026-09-03T12:57:37.000Z</time>
      </trkpt>
      <trkpt lat="48.2168" lon="6.69198">
        <ele>540.80004882812</ele>
        <time>2026-09-03T12:57:38.000Z</time>
      </trkpt>
      <trkpt lat="48.21681" lon="6.69199">
        <ele>540.80004882812</ele>
        <time>2026-09-03T12:57:39.000Z</time>
      </trkpt>
      <trkpt lat="48.21682" lon="6.692">
        <ele>540.80004882812</ele>
        <time>2026-09-03T12:57:40.000Z</time>
      </trkpt>
      <trkpt lat="48.21683" lon="6.69201">
        <ele>540.80004882812</ele>
        <time>2026-09-03T12:57:41.000Z</time>
      </trkpt>
      <trkpt lat="48.21684" lon="6.69203">
        <ele>540.80004882812</ele>
        <time>2026-09-03T12:57:42.000Z</time>
      </trkpt>
      <trkpt lat="48.21685" lon="6.69204">
        <ele>540.80004882812</ele>
        <time>2026-09-03T12:57:43.000Z</time>
      </trkpt>
      <trkpt lat="48.21685" lon="6.69206">
        <ele>540.80004882812</ele>
        <time>2026-09-03T12:57:44.000Z</time>
      </trkpt>
      <trkpt lat="48.21686" lon="6.69207">
        <ele>540.80004882812</ele>
        <time>2026-09-03T12:57:45.000Z</time>
      </trkpt>
      <trkpt lat="48.21686" lon="6.69209">
        <ele>540.80004882812</ele>
        <time>2026-09-03T12:57:46.000Z</time>
      </trkpt>
      <trkpt lat="48.21687" lon="6.69211">
        <ele>540.80004882812</ele>
        <time>2026-09-03T12:57:47.000Z</time>
      </trkpt>
      <trkpt lat="48.21688" lon="6.69212">
        <ele>540.80004882812</ele>
        <time>2026-09-03T12:57:48.000Z</time>
      </trkpt>
      <trkpt lat="48.21689" lon="6.69213">
        <ele>540.80004882812</ele>
        <time>2026-09-03T12:57:49.000Z</time>
      </trkpt>
      <trkpt lat="48.2169" lon="6.69214">
        <ele>541</ele>
        <time>2026-09-03T12:57:50.000Z</time>
      </trkpt>
      <trkpt lat="48.2169" lon="6.69215">
        <ele>541</ele>
        <time>2026-09-03T12:57:51.000Z</time>
      </trkpt>
      <trkpt lat="48.21691" lon="6.69215">
        <ele>541</ele>
        <time>2026-09-03T12:57:52.000Z</time>
      </trkpt>
      <trkpt lat="48.21691" lon="6.69216">
        <ele>540.80004882812</ele>
        <time>2026-09-03T12:57:53.000Z</time>
      </trkpt>
      <trkpt lat="48.21692" lon="6.69216">
        <ele>540.80004882812</ele>
        <time>2026-09-03T12:57:54.000Z</time>
      </trkpt>
      <trkpt lat="48.21693" lon="6.69218">
        <ele>540.80004882812</ele>
        <time>2026-09-03T12:57:55.000Z</time>
      </trkpt>
      <trkpt lat="48.21693" lon="6.6922">
        <ele>540.80004882812</ele>
        <time>2026-09-03T12:57:56.000Z</time>
      </trkpt>
      <trkpt lat="48.21694" lon="6.69221">
        <ele>541</ele>
        <time>2026-09-03T12:57:57.000Z</time>
      </trkpt>
      <trkpt lat="48.21694" lon="6.69222">
        <ele>541</ele>
        <time>2026-09-03T12:57:58.000Z</time>
      </trkpt>
      <trkpt lat="48.21695" lon="6.69224">
        <ele>541</ele>
        <time>2026-09-03T12:57:59.000Z</time>
      </trkpt>
      <trkpt lat="48.21696" lon="6.69225">
        <ele>541.19995117188</ele>
        <time>2026-09-03T12:58:00.000Z</time>
      </trkpt>
      <trkpt lat="48.21697" lon="6.69227">
        <ele>541.19995117188</ele>
        <time>2026-09-03T12:58:01.000Z</time>
      </trkpt>
      <trkpt lat="48.21698" lon="6.69228">
        <ele>541.19995117188</ele>
        <time>2026-09-03T12:58:02.000Z</time>
      </trkpt>
      <trkpt lat="48.21699" lon="6.6923">
        <ele>541.19995117188</ele>
        <time>2026-09-03T12:58:03.000Z</time>
      </trkpt>
      <trkpt lat="48.217" lon="6.69232">
        <ele>541.19995117188</ele>
        <time>2026-09-03T12:58:04.000Z</time>
      </trkpt>
      <trkpt lat="48.21701" lon="6.69233">
        <ele>541.19995117188</ele>
        <time>2026-09-03T12:58:05.000Z</time>
      </trkpt>
      <trkpt lat="48.21703" lon="6.69235">
        <ele>541.19995117188</ele>
        <time>2026-09-03T12:58:06.000Z</time>
      </trkpt>
      <trkpt lat="48.21703" lon="6.69237">
        <ele>541.19995117188</ele>
        <time>2026-09-03T12:58:07.000Z</time>
      </trkpt>
      <trkpt lat="48.21704" lon="6.69239">
        <ele>541.19995117188</ele>
        <time>2026-09-03T12:58:08.000Z</time>
      </trkpt>
      <trkpt lat="48.21705" lon="6.6924">
        <ele>541</ele>
        <time>2026-09-03T12:58:09.000Z</time>
      </trkpt>
      <trkpt lat="48.21705" lon="6.69242">
        <ele>540.80004882812</ele>
        <time>2026-09-03T12:58:10.000Z</time>
      </trkpt>
      <trkpt lat="48.21706" lon="6.69243">
        <ele>540.80004882812</ele>
        <time>2026-09-03T12:58:11.000Z</time>
      </trkpt>
      <trkpt lat="48.21708" lon="6.69245">
        <ele>540.80004882812</ele>
        <time>2026-09-03T12:58:12.000Z</time>
      </trkpt>
      <trkpt lat="48.21708" lon="6.69246">
        <ele>540.59997558594</ele>
        <time>2026-09-03T12:58:13.000Z</time>
      </trkpt>
      <trkpt lat="48.21708" lon="6.69246">
        <ele>540.80004882812</ele>
        <time>2026-09-03T12:58:14.000Z</time>
      </trkpt>
      <trkpt lat="48.21709" lon="6.69247">
        <ele>541</ele>
        <time>2026-09-03T12:58:15.000Z</time>
      </trkpt>
      <trkpt lat="48.2171" lon="6.69248">
        <ele>541</ele>
        <time>2026-09-03T12:58:16.000Z</time>
      </trkpt>
      <trkpt lat="48.2171" lon="6.69249">
        <ele>541</ele>
        <time>2026-09-03T12:58:17.000Z</time>
      </trkpt>
      <trkpt lat="48.21711" lon="6.6925">
        <ele>541.19995117188</ele>
        <time>2026-09-03T12:58:18.000Z</time>
      </trkpt>
      <trkpt lat="48.21712" lon="6.69252">
        <ele>541.19995117188</ele>
        <time>2026-09-03T12:58:19.000Z</time>
      </trkpt>
      <trkpt lat="48.21712" lon="6.69253">
        <ele>541.19995117188</ele>
        <time>2026-09-03T12:58:20.000Z</time>
      </trkpt>
      <trkpt lat="48.21713" lon="6.69254">
        <ele>541.40002441406</ele>
        <time>2026-09-03T12:58:21.000Z</time>
      </trkpt>
      <trkpt lat="48.21714" lon="6.69256">
        <ele>541.40002441406</ele>
        <time>2026-09-03T12:58:22.000Z</time>
      </trkpt>
      <trkpt lat="48.21715" lon="6.69256">
        <ele>541.40002441406</ele>
        <time>2026-09-03T12:58:23.000Z</time>
      </trkpt>
      <trkpt lat="48.21716" lon="6.69258">
        <ele>541.40002441406</ele>
        <time>2026-09-03T12:58:24.000Z</time>
      </trkpt>
      <trkpt lat="48.21717" lon="6.69259">
        <ele>541.40002441406</ele>
        <time>2026-09-03T12:58:25.000Z</time>
      </trkpt>
      <trkpt lat="48.21718" lon="6.69261">
        <ele>541.19995117188</ele>
        <time>2026-09-03T12:58:26.000Z</time>
      </trkpt>
      <trkpt lat="48.21718" lon="6.69262">
        <ele>541.19995117188</ele>
        <time>2026-09-03T12:58:27.000Z</time>
      </trkpt>
      <trkpt lat="48.21719" lon="6.69264">
        <ele>541.19995117188</ele>
        <time>2026-09-03T12:58:28.000Z</time>
      </trkpt>
      <trkpt lat="48.2172" lon="6.69267">
        <ele>541</ele>
        <time>2026-09-03T12:58:29.000Z</time>
      </trkpt>
      <trkpt lat="48.21721" lon="6.69269">
        <ele>541</ele>
        <time>2026-09-03T12:58:30.000Z</time>
      </trkpt>
      <trkpt lat="48.21722" lon="6.6927">
        <ele>541</ele>
        <time>2026-09-03T12:58:31.000Z</time>
      </trkpt>
      <trkpt lat="48.21723" lon="6.69271">
        <ele>541</ele>
        <time>2026-09-03T12:58:32.000Z</time>
      </trkpt>
      <trkpt lat="48.21723" lon="6.69273">
        <ele>540.80004882812</ele>
        <time>2026-09-03T12:58:33.000Z</time>
      </trkpt>
      <trkpt lat="48.21724" lon="6.69274">
        <ele>540.80004882812</ele>
        <time>2026-09-03T12:58:34.000Z</time>
      </trkpt>
      <trkpt lat="48.21724" lon="6.69276">
        <ele>540.80004882812</ele>
        <time>2026-09-03T12:58:35.000Z</time>
      </trkpt>
      <trkpt lat="48.21725" lon="6.69277">
        <ele>540.80004882812</ele>
        <time>2026-09-03T12:58:36.000Z</time>
      </trkpt>
      <trkpt lat="48.21726" lon="6.69279">
        <ele>540.80004882812</ele>
        <time>2026-09-03T12:58:37.000Z</time>
      </trkpt>
      <trkpt lat="48.21726" lon="6.69281">
        <ele>540.80004882812</ele>
        <time>2026-09-03T12:58:38.000Z</time>
      </trkpt>
      <trkpt lat="48.21727" lon="6.69282">
        <ele>540.80004882812</ele>
        <time>2026-09-03T12:58:39.000Z</time>
      </trkpt>
      <trkpt lat="48.21727" lon="6.69284">
        <ele>540.80004882812</ele>
        <time>2026-09-03T12:58:40.000Z</time>
      </trkpt>
      <trkpt lat="48.21728" lon="6.69285">
        <ele>540.80004882812</ele>
        <time>2026-09-03T12:58:41.000Z</time>
      </trkpt>
      <trkpt lat="48.21729" lon="6.69287">
        <ele>540.80004882812</ele>
        <time>2026-09-03T12:58:42.000Z</time>
      </trkpt>
      <trkpt lat="48.2173" lon="6.69288">
        <ele>540.80004882812</ele>
        <time>2026-09-03T12:58:43.000Z</time>
      </trkpt>
      <trkpt lat="48.2173" lon="6.69289">
        <ele>540.59997558594</ele>
        <time>2026-09-03T12:58:44.000Z</time>
      </trkpt>
      <trkpt lat="48.21731" lon="6.69291">
        <ele>540.59997558594</ele>
        <time>2026-09-03T12:58:45.000Z</time>
      </trkpt>
      <trkpt lat="48.21732" lon="6.69292">
        <ele>540.59997558594</ele>
        <time>2026-09-03T12:58:46.000Z</time>
      </trkpt>
      <trkpt lat="48.21732" lon="6.69294">
        <ele>540.59997558594</ele>
        <time>2026-09-03T12:58:47.000Z</time>
      </trkpt>
      <trkpt lat="48.21734" lon="6.69296">
        <ele>540.40002441406</ele>
        <time>2026-09-03T12:58:48.000Z</time>
      </trkpt>
      <trkpt lat="48.21734" lon="6.69297">
        <ele>540.40002441406</ele>
        <time>2026-09-03T12:58:49.000Z</time>
      </trkpt>
      <trkpt lat="48.21735" lon="6.69298">
        <ele>540.40002441406</ele>
        <time>2026-09-03T12:58:50.000Z</time>
      </trkpt>
      <trkpt lat="48.21736" lon="6.69299">
        <ele>540.40002441406</ele>
        <time>2026-09-03T12:58:51.000Z</time>
      </trkpt>
      <trkpt lat="48.21736" lon="6.69299">
        <ele>540.40002441406</ele>
        <time>2026-09-03T12:58:52.000Z</time>
      </trkpt>
      <trkpt lat="48.21737" lon="6.693">
        <ele>540.40002441406</ele>
        <time>2026-09-03T12:58:53.000Z</time>
      </trkpt>
      <trkpt lat="48.21737" lon="6.69301">
        <ele>540.40002441406</ele>
        <time>2026-09-03T12:58:54.000Z</time>
      </trkpt>
      <trkpt lat="48.21737" lon="6.69302">
        <ele>540.40002441406</ele>
        <time>2026-09-03T12:58:55.000Z</time>
      </trkpt>
      <trkpt lat="48.21738" lon="6.69304">
        <ele>540.40002441406</ele>
        <time>2026-09-03T12:58:56.000Z</time>
      </trkpt>
      <trkpt lat="48.21738" lon="6.69305">
        <ele>540.40002441406</ele>
        <time>2026-09-03T12:58:57.000Z</time>
      </trkpt>
      <trkpt lat="48.21739" lon="6.69307">
        <ele>540.40002441406</ele>
        <time>2026-09-03T12:58:58.000Z</time>
      </trkpt>
      <trkpt lat="48.21739" lon="6.69309">
        <ele>540.40002441406</ele>
        <time>2026-09-03T12:58:59.000Z</time>
      </trkpt>
      <trkpt lat="48.21739" lon="6.69311">
        <ele>540.59997558594</ele>
        <time>2026-09-03T12:59:00.000Z</time>
      </trkpt>
      <trkpt lat="48.21738" lon="6.69312">
        <ele>540.59997558594</ele>
        <time>2026-09-03T12:59:01.000Z</time>
      </trkpt>
      <trkpt lat="48.21738" lon="6.69312">
        <ele>540.40002441406</ele>
        <time>2026-09-03T12:59:02.000Z</time>
      </trkpt>
      <trkpt lat="48.21738" lon="6.69312">
        <ele>540.40002441406</ele>
        <time>2026-09-03T12:59:03.000Z</time>
      </trkpt>
      <trkpt lat="48.21738" lon="6.69313">
        <ele>540.19995117188</ele>
        <time>2026-09-03T12:59:04.000Z</time>
      </trkpt>
      <trkpt lat="48.21738" lon="6.69313">
        <ele>540</ele>
        <time>2026-09-03T12:59:05.000Z</time>
      </trkpt>
      <trkpt lat="48.21738" lon="6.69313">
        <ele>540</ele>
        <time>2026-09-03T12:59:06.000Z</time>
      </trkpt>
      <trkpt lat="48.21738" lon="6.69313">
        <ele>540</ele>
        <time>2026-09-03T12:59:07.000Z</time>
      </trkpt>
      <trkpt lat="48.21738" lon="6.69313">
        <ele>540</ele>
        <time>2026-09-03T12:59:08.000Z</time>
      </trkpt>
      <trkpt lat="48.21739" lon="6.69313">
        <ele>540.19995117188</ele>
        <time>2026-09-03T12:59:09.000Z</time>
      </trkpt>
      <trkpt lat="48.21738" lon="6.69313">
        <ele>540.40002441406</ele>
        <time>2026-09-03T12:59:10.000Z</time>
      </trkpt>
      <trkpt lat="48.21739" lon="6.69314">
        <ele>540.59997558594</ele>
        <time>2026-09-03T12:59:11.000Z</time>
      </trkpt>
      <trkpt lat="48.21739" lon="6.69314">
        <ele>540.59997558594</ele>
        <time>2026-09-03T12:59:12.000Z</time>
      </trkpt>
      <trkpt lat="48.21739" lon="6.69315">
        <ele>540.40002441406</ele>
        <time>2026-09-03T12:59:13.000Z</time>
      </trkpt>
      <trkpt lat="48.21739" lon="6.69315">
        <ele>540.19995117188</ele>
        <time>2026-09-03T12:59:14.000Z</time>
      </trkpt>
      <trkpt lat="48.21739" lon="6.69315">
        <ele>540</ele>
        <time>2026-09-03T12:59:15.000Z</time>
      </trkpt>
      <trkpt lat="48.21739" lon="6.69315">
        <ele>539.80004882812</ele>
        <time>2026-09-03T12:59:16.000Z</time>
      </trkpt>
      <trkpt lat="48.21739" lon="6.69315">
        <ele>539.80004882812</ele>
        <time>2026-09-03T12:59:17.000Z</time>
      </trkpt>
      <trkpt lat="48.21739" lon="6.69315">
        <ele>539.59997558594</ele>
        <time>2026-09-03T12:59:18.000Z</time>
      </trkpt>
      <trkpt lat="48.21739" lon="6.69315">
        <ele>539.59997558594</ele>
        <time>2026-09-03T12:59:19.000Z</time>
      </trkpt>
      <trkpt lat="48.21739" lon="6.69315">
        <ele>539.59997558594</ele>
        <time>2026-09-03T12:59:20.000Z</time>
      </trkpt>
      <trkpt lat="48.21739" lon="6.69315">
        <ele>539.80004882812</ele>
        <time>2026-09-03T12:59:21.000Z</time>
      </trkpt>
      <trkpt lat="48.21739" lon="6.69315">
        <ele>539.80004882812</ele>
        <time>2026-09-03T12:59:22.000Z</time>
      </trkpt>
      <trkpt lat="48.21739" lon="6.69315">
        <ele>539.80004882812</ele>
        <time>2026-09-03T12:59:23.000Z</time>
      </trkpt>
      <trkpt lat="48.21739" lon="6.69315">
        <ele>539.80004882812</ele>
        <time>2026-09-03T12:59:24.000Z</time>
      </trkpt>
      <trkpt lat="48.21739" lon="6.69315">
        <ele>539.80004882812</ele>
        <time>2026-09-03T12:59:25.000Z</time>
      </trkpt>
      <trkpt lat="48.21739" lon="6.69315">
        <ele>539.80004882812</ele>
        <time>2026-09-03T12:59:26.000Z</time>
      </trkpt>
      <trkpt lat="48.21739" lon="6.69315">
        <ele>539.80004882812</ele>
        <time>2026-09-03T12:59:27.000Z</time>
      </trkpt>
      <trkpt lat="48.21739" lon="6.69315">
        <ele>539.80004882812</ele>
        <time>2026-09-03T12:59:28.000Z</time>
      </trkpt>
      <trkpt lat="48.21739" lon="6.69315">
        <ele>540</ele>
        <time>2026-09-03T12:59:29.000Z</time>
      </trkpt>
      <trkpt lat="48.21739" lon="6.69315">
        <ele>540</ele>
        <time>2026-09-03T12:59:30.000Z</time>
      </trkpt>
      <trkpt lat="48.21739" lon="6.69315">
        <ele>540</ele>
        <time>2026-09-03T12:59:31.000Z</time>
      </trkpt>
      <trkpt lat="48.21739" lon="6.69315">
        <ele>540</ele>
        <time>2026-09-03T12:59:32.000Z</time>
      </trkpt>
      <trkpt lat="48.21739" lon="6.69315">
        <ele>539.80004882812</ele>
        <time>2026-09-03T12:59:33.000Z</time>
      </trkpt>
      <trkpt lat="48.21739" lon="6.69315">
        <ele>539.80004882812</ele>
        <time>2026-09-03T12:59:34.000Z</time>
      </trkpt>
      <trkpt lat="48.21739" lon="6.69315">
        <ele>539.59997558594</ele>
        <time>2026-09-03T12:59:35.000Z</time>
      </trkpt>
      <trkpt lat="48.21739" lon="6.69315">
        <ele>539.59997558594</ele>
        <time>2026-09-03T12:59:36.000Z</time>
      </trkpt>
      <trkpt lat="48.21739" lon="6.69315">
        <ele>539.59997558594</ele>
        <time>2026-09-03T12:59:37.000Z</time>
      </trkpt>
      <trkpt lat="48.21739" lon="6.69316">
        <ele>539.80004882812</ele>
        <time>2026-09-03T12:59:38.000Z</time>
      </trkpt>
      <trkpt lat="48.21739" lon="6.69317">
        <ele>539.80004882812</ele>
        <time>2026-09-03T12:59:39.000Z</time>
      </trkpt>
      <trkpt lat="48.21739" lon="6.69319">
        <ele>539.80004882812</ele>
        <time>2026-09-03T12:59:40.000Z</time>
      </trkpt>
      <trkpt lat="48.21739" lon="6.6932">
        <ele>540</ele>
        <time>2026-09-03T12:59:41.000Z</time>
      </trkpt>
      <trkpt lat="48.21739" lon="6.69321">
        <ele>540</ele>
        <time>2026-09-03T12:59:42.000Z</time>
      </trkpt>
      <trkpt lat="48.21738" lon="6.69322">
        <ele>540</ele>
        <time>2026-09-03T12:59:43.000Z</time>
      </trkpt>
      <trkpt lat="48.21737" lon="6.69323">
        <ele>540.19995117188</ele>
        <time>2026-09-03T12:59:44.000Z</time>
      </trkpt>
      <trkpt lat="48.21737" lon="6.69324">
        <ele>540.19995117188</ele>
        <time>2026-09-03T12:59:45.000Z</time>
      </trkpt>
      <trkpt lat="48.21736" lon="6.69326">
        <ele>540.40002441406</ele>
        <time>2026-09-03T12:59:46.000Z</time>
      </trkpt>
      <trkpt lat="48.21735" lon="6.69326">
        <ele>540.59997558594</ele>
        <time>2026-09-03T12:59:47.000Z</time>
      </trkpt>
      <trkpt lat="48.21735" lon="6.69326">
        <ele>540.59997558594</ele>
        <time>2026-09-03T12:59:48.000Z</time>
      </trkpt>
      <trkpt lat="48.21735" lon="6.69326">
        <ele>540.59997558594</ele>
        <time>2026-09-03T12:59:49.000Z</time>
      </trkpt>
      <trkpt lat="48.21735" lon="6.69326">
        <ele>540.80004882812</ele>
        <time>2026-09-03T12:59:50.000Z</time>
      </trkpt>
      <trkpt lat="48.21735" lon="6.69326">
        <ele>540.59997558594</ele>
        <time>2026-09-03T12:59:51.000Z</time>
      </trkpt>
      <trkpt lat="48.21735" lon="6.69326">
        <ele>540.59997558594</ele>
        <time>2026-09-03T12:59:52.000Z</time>
      </trkpt>
      <trkpt lat="48.21735" lon="6.69326">
        <ele>540.59997558594</ele>
        <time>2026-09-03T12:59:53.000Z</time>
      </trkpt>
      <trkpt lat="48.21735" lon="6.69328">
        <ele>540.80004882812</ele>
        <time>2026-09-03T12:59:54.000Z</time>
      </trkpt>
      <trkpt lat="48.21734" lon="6.69329">
        <ele>540.80004882812</ele>
        <time>2026-09-03T12:59:55.000Z</time>
      </trkpt>
      <trkpt lat="48.21734" lon="6.69331">
        <ele>540.80004882812</ele>
        <time>2026-09-03T12:59:56.000Z</time>
      </trkpt>
      <trkpt lat="48.21734" lon="6.69332">
        <ele>541</ele>
        <time>2026-09-03T12:59:57.000Z</time>
      </trkpt>
      <trkpt lat="48.21734" lon="6.69334">
        <ele>541</ele>
        <time>2026-09-03T12:59:58.000Z</time>
      </trkpt>
      <trkpt lat="48.21733" lon="6.69335">
        <ele>541.19995117188</ele>
        <time>2026-09-03T12:59:59.000Z</time>
      </trkpt>
      <trkpt lat="48.21733" lon="6.69336">
        <ele>541.40002441406</ele>
        <time>2026-09-03T13:00:00.000Z</time>
      </trkpt>
      <trkpt lat="48.21732" lon="6.69337">
        <ele>541.59997558594</ele>
        <time>2026-09-03T13:00:01.000Z</time>
      </trkpt>
      <trkpt lat="48.21732" lon="6.69338">
        <ele>541.59997558594</ele>
        <time>2026-09-03T13:00:02.000Z</time>
      </trkpt>
      <trkpt lat="48.21731" lon="6.6934">
        <ele>541.80004882812</ele>
        <time>2026-09-03T13:00:03.000Z</time>
      </trkpt>
      <trkpt lat="48.2173" lon="6.69341">
        <ele>542</ele>
        <time>2026-09-03T13:00:04.000Z</time>
      </trkpt>
      <trkpt lat="48.21728" lon="6.69342">
        <ele>542.19995117188</ele>
        <time>2026-09-03T13:00:05.000Z</time>
      </trkpt>
      <trkpt lat="48.21727" lon="6.69343">
        <ele>542.19995117188</ele>
        <time>2026-09-03T13:00:06.000Z</time>
      </trkpt>
      <trkpt lat="48.21727" lon="6.69343">
        <ele>542.40002441406</ele>
        <time>2026-09-03T13:00:07.000Z</time>
      </trkpt>
      <trkpt lat="48.21726" lon="6.69343">
        <ele>542.40002441406</ele>
        <time>2026-09-03T13:00:08.000Z</time>
      </trkpt>
      <trkpt lat="48.21726" lon="6.69342">
        <ele>542.40002441406</ele>
        <time>2026-09-03T13:00:09.000Z</time>
      </trkpt>
      <trkpt lat="48.21726" lon="6.69342">
        <ele>542.59997558594</ele>
        <time>2026-09-03T13:00:10.000Z</time>
      </trkpt>
      <trkpt lat="48.21726" lon="6.69342">
        <ele>542.59997558594</ele>
        <time>2026-09-03T13:00:11.000Z</time>
      </trkpt>
      <trkpt lat="48.21726" lon="6.69342">
        <ele>542.80004882812</ele>
        <time>2026-09-03T13:00:12.000Z</time>
      </trkpt>
      <trkpt lat="48.21726" lon="6.69342">
        <ele>542.80004882812</ele>
        <time>2026-09-03T13:00:13.000Z</time>
      </trkpt>
      <trkpt lat="48.21726" lon="6.69343">
        <ele>542.80004882812</ele>
        <time>2026-09-03T13:00:14.000Z</time>
      </trkpt>
      <trkpt lat="48.21726" lon="6.69345">
        <ele>543</ele>
        <time>2026-09-03T13:00:15.000Z</time>
      </trkpt>
      <trkpt lat="48.21725" lon="6.69345">
        <ele>543</ele>
        <time>2026-09-03T13:00:16.000Z</time>
      </trkpt>
      <trkpt lat="48.21725" lon="6.69346">
        <ele>543</ele>
        <time>2026-09-03T13:00:17.000Z</time>
      </trkpt>
      <trkpt lat="48.21724" lon="6.69346">
        <ele>543.19995117188</ele>
        <time>2026-09-03T13:00:18.000Z</time>
      </trkpt>
      <trkpt lat="48.21724" lon="6.69346">
        <ele>543.19995117188</ele>
        <time>2026-09-03T13:00:19.000Z</time>
      </trkpt>
      <trkpt lat="48.21724" lon="6.69345">
        <ele>543.40002441406</ele>
        <time>2026-09-03T13:00:20.000Z</time>
      </trkpt>
      <trkpt lat="48.21724" lon="6.69345">
        <ele>543.19995117188</ele>
        <time>2026-09-03T13:00:21.000Z</time>
      </trkpt>
      <trkpt lat="48.21724" lon="6.69345">
        <ele>543.19995117188</ele>
        <time>2026-09-03T13:00:22.000Z</time>
      </trkpt>
      <trkpt lat="48.21724" lon="6.69345">
        <ele>543.40002441406</ele>
        <time>2026-09-03T13:00:23.000Z</time>
      </trkpt>
      <trkpt lat="48.21724" lon="6.69345">
        <ele>543.40002441406</ele>
        <time>2026-09-03T13:00:24.000Z</time>
      </trkpt>
      <trkpt lat="48.21724" lon="6.69345">
        <ele>543.40002441406</ele>
        <time>2026-09-03T13:00:25.000Z</time>
      </trkpt>
      <trkpt lat="48.21724" lon="6.69345">
        <ele>543.40002441406</ele>
        <time>2026-09-03T13:00:26.000Z</time>
      </trkpt>
      <trkpt lat="48.21725" lon="6.69346">
        <ele>543.40002441406</ele>
        <time>2026-09-03T13:00:27.000Z</time>
      </trkpt>
      <trkpt lat="48.21724" lon="6.69346">
        <ele>543.40002441406</ele>
        <time>2026-09-03T13:00:28.000Z</time>
      </trkpt>
      <trkpt lat="48.21724" lon="6.69346">
        <ele>543.40002441406</ele>
        <time>2026-09-03T13:00:29.000Z</time>
      </trkpt>
      <trkpt lat="48.21724" lon="6.69345">
        <ele>543.40002441406</ele>
        <time>2026-09-03T13:00:30.000Z</time>
      </trkpt>
      <trkpt lat="48.21724" lon="6.69345">
        <ele>543.40002441406</ele>
        <time>2026-09-03T13:00:31.000Z</time>
      </trkpt>
      <trkpt lat="48.21724" lon="6.69345">
        <ele>543.40002441406</ele>
        <time>2026-09-03T13:00:32.000Z</time>
      </trkpt>
      <trkpt lat="48.21724" lon="6.69345">
        <ele>543.59997558594</ele>
        <time>2026-09-03T13:00:33.000Z</time>
      </trkpt>
      <trkpt lat="48.21724" lon="6.69345">
        <ele>543.40002441406</ele>
        <time>2026-09-03T13:00:34.000Z</time>
      </trkpt>
      <trkpt lat="48.21724" lon="6.69345">
        <ele>543.40002441406</ele>
        <time>2026-09-03T13:00:35.000Z</time>
      </trkpt>
      <trkpt lat="48.21724" lon="6.69345">
        <ele>543.40002441406</ele>
        <time>2026-09-03T13:00:36.000Z</time>
      </trkpt>
      <trkpt lat="48.21724" lon="6.69345">
        <ele>543.40002441406</ele>
        <time>2026-09-03T13:00:37.000Z</time>
      </trkpt>
      <trkpt lat="48.21724" lon="6.69346">
        <ele>543.40002441406</ele>
        <time>2026-09-03T13:00:38.000Z</time>
      </trkpt>
      <trkpt lat="48.21724" lon="6.69347">
        <ele>543.40002441406</ele>
        <time>2026-09-03T13:00:39.000Z</time>
      </trkpt>
      <trkpt lat="48.21724" lon="6.69348">
        <ele>543.40002441406</ele>
        <time>2026-09-03T13:00:40.000Z</time>
      </trkpt>
      <trkpt lat="48.21724" lon="6.69349">
        <ele>543.40002441406</ele>
        <time>2026-09-03T13:00:41.000Z</time>
      </trkpt>
      <trkpt lat="48.21724" lon="6.69349">
        <ele>543.40002441406</ele>
        <time>2026-09-03T13:00:42.000Z</time>
      </trkpt>
      <trkpt lat="48.21724" lon="6.69349">
        <ele>543.40002441406</ele>
        <time>2026-09-03T13:00:43.000Z</time>
      </trkpt>
      <trkpt lat="48.21724" lon="6.69349">
        <ele>543.40002441406</ele>
        <time>2026-09-03T13:00:44.000Z</time>
      </trkpt>
      <trkpt lat="48.21724" lon="6.69349">
        <ele>543.59997558594</ele>
        <time>2026-09-03T13:00:45.000Z</time>
      </trkpt>
      <trkpt lat="48.21724" lon="6.69349">
        <ele>543.59997558594</ele>
        <time>2026-09-03T13:00:46.000Z</time>
      </trkpt>
      <trkpt lat="48.21724" lon="6.69349">
        <ele>543.59997558594</ele>
        <time>2026-09-03T13:00:47.000Z</time>
      </trkpt>
      <trkpt lat="48.21724" lon="6.69349">
        <ele>543.59997558594</ele>
        <time>2026-09-03T13:00:48.000Z</time>
      </trkpt>
      <trkpt lat="48.21724" lon="6.69349">
        <ele>543.40002441406</ele>
        <time>2026-09-03T13:00:49.000Z</time>
      </trkpt>
      <trkpt lat="48.21724" lon="6.69349">
        <ele>543.40002441406</ele>
        <time>2026-09-03T13:00:50.000Z</time>
      </trkpt>
      <trkpt lat="48.21724" lon="6.69349">
        <ele>543.40002441406</ele>
        <time>2026-09-03T13:00:51.000Z</time>
      </trkpt>
      <trkpt lat="48.21724" lon="6.69349">
        <ele>543.40002441406</ele>
        <time>2026-09-03T13:00:52.000Z</time>
      </trkpt>
      <trkpt lat="48.21724" lon="6.69349">
        <ele>543.59997558594</ele>
        <time>2026-09-03T13:00:53.000Z</time>
      </trkpt>
      <trkpt lat="48.21724" lon="6.69349">
        <ele>543.59997558594</ele>
        <time>2026-09-03T13:00:54.000Z</time>
      </trkpt>
      <trkpt lat="48.21724" lon="6.69349">
        <ele>543.59997558594</ele>
        <time>2026-09-03T13:00:55.000Z</time>
      </trkpt>
      <trkpt lat="48.21724" lon="6.69349">
        <ele>543.59997558594</ele>
        <time>2026-09-03T13:00:56.000Z</time>
      </trkpt>
      <trkpt lat="48.21724" lon="6.69349">
        <ele>543.59997558594</ele>
        <time>2026-09-03T13:00:57.000Z</time>
      </trkpt>
      <trkpt lat="48.21724" lon="6.69349">
        <ele>543.59997558594</ele>
        <time>2026-09-03T13:00:58.000Z</time>
      </trkpt>
      <trkpt lat="48.21724" lon="6.69349">
        <ele>543.59997558594</ele>
        <time>2026-09-03T13:00:59.000Z</time>
      </trkpt>
      <trkpt lat="48.21724" lon="6.69349">
        <ele>543.59997558594</ele>
        <time>2026-09-03T13:01:00.000Z</time>
      </trkpt>
      <trkpt lat="48.21724" lon="6.69349">
        <ele>543.40002441406</ele>
        <time>2026-09-03T13:01:01.000Z</time>
      </trkpt>
      <trkpt lat="48.21724" lon="6.69349">
        <ele>543.40002441406</ele>
        <time>2026-09-03T13:01:02.000Z</time>
      </trkpt>
      <trkpt lat="48.21724" lon="6.6935">
        <ele>543.40002441406</ele>
        <time>2026-09-03T13:01:03.000Z</time>
      </trkpt>
      <trkpt lat="48.21724" lon="6.69352">
        <ele>543.59997558594</ele>
        <time>2026-09-03T13:01:04.000Z</time>
      </trkpt>
      <trkpt lat="48.21724" lon="6.69353">
        <ele>543.59997558594</ele>
        <time>2026-09-03T13:01:05.000Z</time>
      </trkpt>
      <trkpt lat="48.21723" lon="6.69354">
        <ele>543.80004882812</ele>
        <time>2026-09-03T13:01:06.000Z</time>
      </trkpt>
      <trkpt lat="48.21723" lon="6.69355">
        <ele>544</ele>
        <time>2026-09-03T13:01:07.000Z</time>
      </trkpt>
      <trkpt lat="48.21722" lon="6.69357">
        <ele>544.19995117188</ele>
        <time>2026-09-03T13:01:08.000Z</time>
      </trkpt>
      <trkpt lat="48.21722" lon="6.69358">
        <ele>544.40002441406</ele>
        <time>2026-09-03T13:01:09.000Z</time>
      </trkpt>
      <trkpt lat="48.21721" lon="6.69359">
        <ele>544.59997558594</ele>
        <time>2026-09-03T13:01:10.000Z</time>
      </trkpt>
      <trkpt lat="48.21721" lon="6.6936">
        <ele>544.59997558594</ele>
        <time>2026-09-03T13:01:11.000Z</time>
      </trkpt>
      <trkpt lat="48.21721" lon="6.6936">
        <ele>544.80004882812</ele>
        <time>2026-09-03T13:01:12.000Z</time>
      </trkpt>
      <trkpt lat="48.21721" lon="6.69361">
        <ele>545</ele>
        <time>2026-09-03T13:01:13.000Z</time>
      </trkpt>
      <trkpt lat="48.21721" lon="6.69361">
        <ele>545</ele>
        <time>2026-09-03T13:01:14.000Z</time>
      </trkpt>
      <trkpt lat="48.21722" lon="6.69362">
        <ele>545.19995117188</ele>
        <time>2026-09-03T13:01:15.000Z</time>
      </trkpt>
      <trkpt lat="48.21722" lon="6.69362">
        <ele>545.40002441406</ele>
        <time>2026-09-03T13:01:16.000Z</time>
      </trkpt>
      <trkpt lat="48.21723" lon="6.69363">
        <ele>545.40002441406</ele>
        <time>2026-09-03T13:01:17.000Z</time>
      </trkpt>
      <trkpt lat="48.21723" lon="6.69363">
        <ele>545.59997558594</ele>
        <time>2026-09-03T13:01:18.000Z</time>
      </trkpt>
      <trkpt lat="48.21723" lon="6.69364">
        <ele>545.59997558594</ele>
        <time>2026-09-03T13:01:19.000Z</time>
      </trkpt>
      <trkpt lat="48.21723" lon="6.69364">
        <ele>545.80004882812</ele>
        <time>2026-09-03T13:01:20.000Z</time>
      </trkpt>
      <trkpt lat="48.21723" lon="6.69365">
        <ele>545.80004882812</ele>
        <time>2026-09-03T13:01:21.000Z</time>
      </trkpt>
      <trkpt lat="48.21723" lon="6.69366">
        <ele>545.80004882812</ele>
        <time>2026-09-03T13:01:22.000Z</time>
      </trkpt>
      <trkpt lat="48.21723" lon="6.69368">
        <ele>546</ele>
        <time>2026-09-03T13:01:23.000Z</time>
      </trkpt>
      <trkpt lat="48.21723" lon="6.69369">
        <ele>546</ele>
        <time>2026-09-03T13:01:24.000Z</time>
      </trkpt>
      <trkpt lat="48.21723" lon="6.6937">
        <ele>546.19995117188</ele>
        <time>2026-09-03T13:01:25.000Z</time>
      </trkpt>
      <trkpt lat="48.21723" lon="6.69372">
        <ele>546.40002441406</ele>
        <time>2026-09-03T13:01:26.000Z</time>
      </trkpt>
      <trkpt lat="48.21723" lon="6.69373">
        <ele>546.40002441406</ele>
        <time>2026-09-03T13:01:27.000Z</time>
      </trkpt>
      <trkpt lat="48.21723" lon="6.69375">
        <ele>546.59997558594</ele>
        <time>2026-09-03T13:01:28.000Z</time>
      </trkpt>
      <trkpt lat="48.21723" lon="6.69377">
        <ele>546.59997558594</ele>
        <time>2026-09-03T13:01:29.000Z</time>
      </trkpt>
      <trkpt lat="48.21723" lon="6.69378">
        <ele>546.80004882812</ele>
        <time>2026-09-03T13:01:30.000Z</time>
      </trkpt>
      <trkpt lat="48.21722" lon="6.6938">
        <ele>546.80004882812</ele>
        <time>2026-09-03T13:01:31.000Z</time>
      </trkpt>
      <trkpt lat="48.21722" lon="6.69381">
        <ele>547</ele>
        <time>2026-09-03T13:01:32.000Z</time>
      </trkpt>
      <trkpt lat="48.21722" lon="6.69383">
        <ele>547.19995117188</ele>
        <time>2026-09-03T13:01:33.000Z</time>
      </trkpt>
      <trkpt lat="48.21721" lon="6.69383">
        <ele>547.40002441406</ele>
        <time>2026-09-03T13:01:34.000Z</time>
      </trkpt>
      <trkpt lat="48.21721" lon="6.69384">
        <ele>547.40002441406</ele>
        <time>2026-09-03T13:01:35.000Z</time>
      </trkpt>
      <trkpt lat="48.21721" lon="6.69384">
        <ele>547.59997558594</ele>
        <time>2026-09-03T13:01:36.000Z</time>
      </trkpt>
      <trkpt lat="48.21721" lon="6.69384">
        <ele>547.80004882812</ele>
        <time>2026-09-03T13:01:37.000Z</time>
      </trkpt>
      <trkpt lat="48.21721" lon="6.69383">
        <ele>547.80004882812</ele>
        <time>2026-09-03T13:01:38.000Z</time>
      </trkpt>
      <trkpt lat="48.21722" lon="6.69384">
        <ele>548</ele>
        <time>2026-09-03T13:01:39.000Z</time>
      </trkpt>
      <trkpt lat="48.21722" lon="6.69384">
        <ele>548</ele>
        <time>2026-09-03T13:01:40.000Z</time>
      </trkpt>
      <trkpt lat="48.21722" lon="6.69384">
        <ele>548</ele>
        <time>2026-09-03T13:01:41.000Z</time>
      </trkpt>
      <trkpt lat="48.21722" lon="6.69386">
        <ele>548</ele>
        <time>2026-09-03T13:01:42.000Z</time>
      </trkpt>
      <trkpt lat="48.21722" lon="6.69387">
        <ele>548.19995117188</ele>
        <time>2026-09-03T13:01:43.000Z</time>
      </trkpt>
      <trkpt lat="48.21722" lon="6.69387">
        <ele>548.19995117188</ele>
        <time>2026-09-03T13:01:44.000Z</time>
      </trkpt>
      <trkpt lat="48.21722" lon="6.69387">
        <ele>548.19995117188</ele>
        <time>2026-09-03T13:01:45.000Z</time>
      </trkpt>
      <trkpt lat="48.21722" lon="6.69387">
        <ele>548.19995117188</ele>
        <time>2026-09-03T13:01:46.000Z</time>
      </trkpt>
      <trkpt lat="48.21722" lon="6.69387">
        <ele>548.19995117188</ele>
        <time>2026-09-03T13:01:47.000Z</time>
      </trkpt>
      <trkpt lat="48.21722" lon="6.69387">
        <ele>548.19995117188</ele>
        <time>2026-09-03T13:01:48.000Z</time>
      </trkpt>
      <trkpt lat="48.21722" lon="6.69387">
        <ele>548.19995117188</ele>
        <time>2026-09-03T13:01:49.000Z</time>
      </trkpt>
      <trkpt lat="48.21722" lon="6.69387">
        <ele>548.19995117188</ele>
        <time>2026-09-03T13:01:50.000Z</time>
      </trkpt>
      <trkpt lat="48.21722" lon="6.69387">
        <ele>548.19995117188</ele>
        <time>2026-09-03T13:01:51.000Z</time>
      </trkpt>
      <trkpt lat="48.21722" lon="6.69387">
        <ele>548.19995117188</ele>
        <time>2026-09-03T13:01:52.000Z</time>
      </trkpt>
      <trkpt lat="48.21722" lon="6.69387">
        <ele>548.19995117188</ele>
        <time>2026-09-03T13:01:53.000Z</time>
      </trkpt>
      <trkpt lat="48.21722" lon="6.69387">
        <ele>548.40002441406</ele>
        <time>2026-09-03T13:01:54.000Z</time>
      </trkpt>
      <trkpt lat="48.21722" lon="6.69387">
        <ele>548.40002441406</ele>
        <time>2026-09-03T13:01:55.000Z</time>
      </trkpt>
      <trkpt lat="48.21722" lon="6.69387">
        <ele>548.40002441406</ele>
        <time>2026-09-03T13:01:56.000Z</time>
      </trkpt>
      <trkpt lat="48.21722" lon="6.69387">
        <ele>548.40002441406</ele>
        <time>2026-09-03T13:01:57.000Z</time>
      </trkpt>
      <trkpt lat="48.21722" lon="6.69387">
        <ele>548.40002441406</ele>
        <time>2026-09-03T13:01:58.000Z</time>
      </trkpt>
      <trkpt lat="48.21722" lon="6.69387">
        <ele>548.40002441406</ele>
        <time>2026-09-03T13:01:59.000Z</time>
      </trkpt>
      <trkpt lat="48.21722" lon="6.69387">
        <ele>548.40002441406</ele>
        <time>2026-09-03T13:02:00.000Z</time>
      </trkpt>
      <trkpt lat="48.21722" lon="6.69387">
        <ele>548.40002441406</ele>
        <time>2026-09-03T13:02:01.000Z</time>
      </trkpt>
      <trkpt lat="48.21722" lon="6.69387">
        <ele>548.19995117188</ele>
        <time>2026-09-03T13:02:02.000Z</time>
      </trkpt>
      <trkpt lat="48.21722" lon="6.69387">
        <ele>548.19995117188</ele>
        <time>2026-09-03T13:02:03.000Z</time>
      </trkpt>
      <trkpt lat="48.21722" lon="6.69387">
        <ele>548.19995117188</ele>
        <time>2026-09-03T13:02:04.000Z</time>
      </trkpt>
      <trkpt lat="48.21722" lon="6.69387">
        <ele>548.19995117188</ele>
        <time>2026-09-03T13:02:05.000Z</time>
      </trkpt>
      <trkpt lat="48.21723" lon="6.69386">
        <ele>548.40002441406</ele>
        <time>2026-09-03T13:02:06.000Z</time>
      </trkpt>
      <trkpt lat="48.21723" lon="6.69385">
        <ele>548.40002441406</ele>
        <time>2026-09-03T13:02:07.000Z</time>
      </trkpt>
      <trkpt lat="48.21724" lon="6.69384">
        <ele>548.40002441406</ele>
        <time>2026-09-03T13:02:08.000Z</time>
      </trkpt>
      <trkpt lat="48.21724" lon="6.69385">
        <ele>548.40002441406</ele>
        <time>2026-09-03T13:02:09.000Z</time>
      </trkpt>
      <trkpt lat="48.21724" lon="6.69385">
        <ele>548.40002441406</ele>
        <time>2026-09-03T13:02:10.000Z</time>
      </trkpt>
      <trkpt lat="48.21725" lon="6.69386">
        <ele>548.40002441406</ele>
        <time>2026-09-03T13:02:11.000Z</time>
      </trkpt>
      <trkpt lat="48.21725" lon="6.69386">
        <ele>548.40002441406</ele>
        <time>2026-09-03T13:02:12.000Z</time>
      </trkpt>
      <trkpt lat="48.21726" lon="6.69387">
        <ele>548.40002441406</ele>
        <time>2026-09-03T13:02:13.000Z</time>
      </trkpt>
      <trkpt lat="48.21726" lon="6.69388">
        <ele>548.40002441406</ele>
        <time>2026-09-03T13:02:14.000Z</time>
      </trkpt>
      <trkpt lat="48.21727" lon="6.69389">
        <ele>548.40002441406</ele>
        <time>2026-09-03T13:02:15.000Z</time>
      </trkpt>
      <trkpt lat="48.21728" lon="6.6939">
        <ele>548.59997558594</ele>
        <time>2026-09-03T13:02:16.000Z</time>
      </trkpt>
      <trkpt lat="48.21728" lon="6.69391">
        <ele>548.59997558594</ele>
        <time>2026-09-03T13:02:17.000Z</time>
      </trkpt>
      <trkpt lat="48.21729" lon="6.69392">
        <ele>548.59997558594</ele>
        <time>2026-09-03T13:02:18.000Z</time>
      </trkpt>
      <trkpt lat="48.2173" lon="6.69392">
        <ele>548.59997558594</ele>
        <time>2026-09-03T13:02:19.000Z</time>
      </trkpt>
      <trkpt lat="48.21732" lon="6.69393">
        <ele>548.80004882812</ele>
        <time>2026-09-03T13:02:20.000Z</time>
      </trkpt>
      <trkpt lat="48.21733" lon="6.69394">
        <ele>548.59997558594</ele>
        <time>2026-09-03T13:02:21.000Z</time>
      </trkpt>
      <trkpt lat="48.21735" lon="6.69395">
        <ele>548.59997558594</ele>
        <time>2026-09-03T13:02:22.000Z</time>
      </trkpt>
      <trkpt lat="48.21736" lon="6.69394">
        <ele>548.19995117188</ele>
        <time>2026-09-03T13:02:23.000Z</time>
      </trkpt>
      <trkpt lat="48.21737" lon="6.69395">
        <ele>548</ele>
        <time>2026-09-03T13:02:24.000Z</time>
      </trkpt>
      <trkpt lat="48.21738" lon="6.69395">
        <ele>547.59997558594</ele>
        <time>2026-09-03T13:02:25.000Z</time>
      </trkpt>
      <trkpt lat="48.21739" lon="6.69396">
        <ele>547.19995117188</ele>
        <time>2026-09-03T13:02:26.000Z</time>
      </trkpt>
      <trkpt lat="48.2174" lon="6.69396">
        <ele>547</ele>
        <time>2026-09-03T13:02:27.000Z</time>
      </trkpt>
      <trkpt lat="48.2174" lon="6.69396">
        <ele>546.80004882812</ele>
        <time>2026-09-03T13:02:28.000Z</time>
      </trkpt>
      <trkpt lat="48.21741" lon="6.69397">
        <ele>546.80004882812</ele>
        <time>2026-09-03T13:02:29.000Z</time>
      </trkpt>
      <trkpt lat="48.21742" lon="6.69396">
        <ele>546.80004882812</ele>
        <time>2026-09-03T13:02:30.000Z</time>
      </trkpt>
      <trkpt lat="48.21743" lon="6.69396">
        <ele>546.80004882812</ele>
        <time>2026-09-03T13:02:31.000Z</time>
      </trkpt>
      <trkpt lat="48.21745" lon="6.69396">
        <ele>546.80004882812</ele>
        <time>2026-09-03T13:02:32.000Z</time>
      </trkpt>
      <trkpt lat="48.21745" lon="6.69397">
        <ele>546.59997558594</ele>
        <time>2026-09-03T13:02:33.000Z</time>
      </trkpt>
      <trkpt lat="48.21746" lon="6.69397">
        <ele>546.59997558594</ele>
        <time>2026-09-03T13:02:34.000Z</time>
      </trkpt>
      <trkpt lat="48.21747" lon="6.69397">
        <ele>546.40002441406</ele>
        <time>2026-09-03T13:02:35.000Z</time>
      </trkpt>
      <trkpt lat="48.21748" lon="6.69398">
        <ele>546.40002441406</ele>
        <time>2026-09-03T13:02:36.000Z</time>
      </trkpt>
      <trkpt lat="48.21749" lon="6.69398">
        <ele>546.19995117188</ele>
        <time>2026-09-03T13:02:37.000Z</time>
      </trkpt>
      <trkpt lat="48.21749" lon="6.69399">
        <ele>546.40002441406</ele>
        <time>2026-09-03T13:02:38.000Z</time>
      </trkpt>
      <trkpt lat="48.21749" lon="6.69399">
        <ele>546.40002441406</ele>
        <time>2026-09-03T13:02:39.000Z</time>
      </trkpt>
      <trkpt lat="48.21749" lon="6.694">
        <ele>546.59997558594</ele>
        <time>2026-09-03T13:02:40.000Z</time>
      </trkpt>
      <trkpt lat="48.2175" lon="6.694">
        <ele>546.80004882812</ele>
        <time>2026-09-03T13:02:41.000Z</time>
      </trkpt>
      <trkpt lat="48.21751" lon="6.694">
        <ele>546.80004882812</ele>
        <time>2026-09-03T13:02:42.000Z</time>
      </trkpt>
      <trkpt lat="48.21752" lon="6.69401">
        <ele>546.80004882812</ele>
        <time>2026-09-03T13:02:43.000Z</time>
      </trkpt>
      <trkpt lat="48.21753" lon="6.69402">
        <ele>546.80004882812</ele>
        <time>2026-09-03T13:02:44.000Z</time>
      </trkpt>
      <trkpt lat="48.21753" lon="6.69403">
        <ele>546.59997558594</ele>
        <time>2026-09-03T13:02:45.000Z</time>
      </trkpt>
      <trkpt lat="48.21754" lon="6.69404">
        <ele>546.59997558594</ele>
        <time>2026-09-03T13:02:46.000Z</time>
      </trkpt>
      <trkpt lat="48.21755" lon="6.69405">
        <ele>546.40002441406</ele>
        <time>2026-09-03T13:02:47.000Z</time>
      </trkpt>
      <trkpt lat="48.21756" lon="6.69406">
        <ele>546.40002441406</ele>
        <time>2026-09-03T13:02:48.000Z</time>
      </trkpt>
      <trkpt lat="48.21757" lon="6.69408">
        <ele>546.19995117188</ele>
        <time>2026-09-03T13:02:49.000Z</time>
      </trkpt>
      <trkpt lat="48.21758" lon="6.69409">
        <ele>546.19995117188</ele>
        <time>2026-09-03T13:02:50.000Z</time>
      </trkpt>
      <trkpt lat="48.21759" lon="6.6941">
        <ele>546.40002441406</ele>
        <time>2026-09-03T13:02:51.000Z</time>
      </trkpt>
      <trkpt lat="48.21759" lon="6.69411">
        <ele>546.40002441406</ele>
        <time>2026-09-03T13:02:52.000Z</time>
      </trkpt>
      <trkpt lat="48.2176" lon="6.69412">
        <ele>546.40002441406</ele>
        <time>2026-09-03T13:02:53.000Z</time>
      </trkpt>
      <trkpt lat="48.2176" lon="6.69413">
        <ele>546.59997558594</ele>
        <time>2026-09-03T13:02:54.000Z</time>
      </trkpt>
      <trkpt lat="48.21761" lon="6.69414">
        <ele>546.59997558594</ele>
        <time>2026-09-03T13:02:55.000Z</time>
      </trkpt>
      <trkpt lat="48.21762" lon="6.69414">
        <ele>546.59997558594</ele>
        <time>2026-09-03T13:02:56.000Z</time>
      </trkpt>
      <trkpt lat="48.21763" lon="6.69415">
        <ele>546.40002441406</ele>
        <time>2026-09-03T13:02:57.000Z</time>
      </trkpt>
      <trkpt lat="48.21763" lon="6.69415">
        <ele>546.40002441406</ele>
        <time>2026-09-03T13:02:58.000Z</time>
      </trkpt>
      <trkpt lat="48.21763" lon="6.69415">
        <ele>546.19995117188</ele>
        <time>2026-09-03T13:02:59.000Z</time>
      </trkpt>
      <trkpt lat="48.21764" lon="6.69415">
        <ele>546.19995117188</ele>
        <time>2026-09-03T13:03:00.000Z</time>
      </trkpt>
      <trkpt lat="48.21765" lon="6.69414">
        <ele>546</ele>
        <time>2026-09-03T13:03:01.000Z</time>
      </trkpt>
      <trkpt lat="48.21765" lon="6.69414">
        <ele>545.80004882812</ele>
        <time>2026-09-03T13:03:02.000Z</time>
      </trkpt>
      <trkpt lat="48.21766" lon="6.69414">
        <ele>545.59997558594</ele>
        <time>2026-09-03T13:03:03.000Z</time>
      </trkpt>
      <trkpt lat="48.21767" lon="6.69414">
        <ele>545.40002441406</ele>
        <time>2026-09-03T13:03:04.000Z</time>
      </trkpt>
      <trkpt lat="48.21767" lon="6.69415">
        <ele>545.40002441406</ele>
        <time>2026-09-03T13:03:05.000Z</time>
      </trkpt>
      <trkpt lat="48.21768" lon="6.69415">
        <ele>545.19995117188</ele>
        <time>2026-09-03T13:03:06.000Z</time>
      </trkpt>
      <trkpt lat="48.2177" lon="6.69414">
        <ele>545</ele>
        <time>2026-09-03T13:03:07.000Z</time>
      </trkpt>
      <trkpt lat="48.21771" lon="6.69414">
        <ele>545</ele>
        <time>2026-09-03T13:03:08.000Z</time>
      </trkpt>
      <trkpt lat="48.21771" lon="6.69414">
        <ele>545</ele>
        <time>2026-09-03T13:03:09.000Z</time>
      </trkpt>
      <trkpt lat="48.21771" lon="6.69413">
        <ele>544.80004882812</ele>
        <time>2026-09-03T13:03:10.000Z</time>
      </trkpt>
      <trkpt lat="48.21772" lon="6.69412">
        <ele>544.80004882812</ele>
        <time>2026-09-03T13:03:11.000Z</time>
      </trkpt>
      <trkpt lat="48.21771" lon="6.69411">
        <ele>544.80004882812</ele>
        <time>2026-09-03T13:03:12.000Z</time>
      </trkpt>
      <trkpt lat="48.21772" lon="6.6941">
        <ele>544.59997558594</ele>
        <time>2026-09-03T13:03:13.000Z</time>
      </trkpt>
      <trkpt lat="48.21772" lon="6.69409">
        <ele>544.19995117188</ele>
        <time>2026-09-03T13:03:14.000Z</time>
      </trkpt>
      <trkpt lat="48.21772" lon="6.69409">
        <ele>544</ele>
        <time>2026-09-03T13:03:15.000Z</time>
      </trkpt>
      <trkpt lat="48.21772" lon="6.69408">
        <ele>543.80004882812</ele>
        <time>2026-09-03T13:03:16.000Z</time>
      </trkpt>
      <trkpt lat="48.21773" lon="6.69407">
        <ele>543.80004882812</ele>
        <time>2026-09-03T13:03:17.000Z</time>
      </trkpt>
      <trkpt lat="48.21774" lon="6.69406">
        <ele>543.80004882812</ele>
        <time>2026-09-03T13:03:18.000Z</time>
      </trkpt>
      <trkpt lat="48.21774" lon="6.69404">
        <ele>543.80004882812</ele>
        <time>2026-09-03T13:03:19.000Z</time>
      </trkpt>
      <trkpt lat="48.21775" lon="6.69403">
        <ele>543.59997558594</ele>
        <time>2026-09-03T13:03:20.000Z</time>
      </trkpt>
      <trkpt lat="48.21776" lon="6.69403">
        <ele>543.59997558594</ele>
        <time>2026-09-03T13:03:21.000Z</time>
      </trkpt>
      <trkpt lat="48.21776" lon="6.69404">
        <ele>543.40002441406</ele>
        <time>2026-09-03T13:03:22.000Z</time>
      </trkpt>
      <trkpt lat="48.21777" lon="6.69404">
        <ele>543.19995117188</ele>
        <time>2026-09-03T13:03:23.000Z</time>
      </trkpt>
      <trkpt lat="48.21778" lon="6.69404">
        <ele>543.19995117188</ele>
        <time>2026-09-03T13:03:24.000Z</time>
      </trkpt>
      <trkpt lat="48.21779" lon="6.69404">
        <ele>543</ele>
        <time>2026-09-03T13:03:25.000Z</time>
      </trkpt>
      <trkpt lat="48.21779" lon="6.69405">
        <ele>543</ele>
        <time>2026-09-03T13:03:26.000Z</time>
      </trkpt>
      <trkpt lat="48.21779" lon="6.69406">
        <ele>543</ele>
        <time>2026-09-03T13:03:27.000Z</time>
      </trkpt>
      <trkpt lat="48.2178" lon="6.69408">
        <ele>543</ele>
        <time>2026-09-03T13:03:28.000Z</time>
      </trkpt>
      <trkpt lat="48.21779" lon="6.69407">
        <ele>543</ele>
        <time>2026-09-03T13:03:29.000Z</time>
      </trkpt>
      <trkpt lat="48.21779" lon="6.69407">
        <ele>543</ele>
        <time>2026-09-03T13:03:30.000Z</time>
      </trkpt>
      <trkpt lat="48.21779" lon="6.69408">
        <ele>543</ele>
        <time>2026-09-03T13:03:31.000Z</time>
      </trkpt>
      <trkpt lat="48.2178" lon="6.69408">
        <ele>543.19995117188</ele>
        <time>2026-09-03T13:03:32.000Z</time>
      </trkpt>
      <trkpt lat="48.21779" lon="6.69408">
        <ele>543.19995117188</ele>
        <time>2026-09-03T13:03:33.000Z</time>
      </trkpt>
      <trkpt lat="48.21779" lon="6.69408">
        <ele>543.19995117188</ele>
        <time>2026-09-03T13:03:34.000Z</time>
      </trkpt>
      <trkpt lat="48.21779" lon="6.69408">
        <ele>543</ele>
        <time>2026-09-03T13:03:35.000Z</time>
      </trkpt>
      <trkpt lat="48.21779" lon="6.69408">
        <ele>543</ele>
        <time>2026-09-03T13:03:36.000Z</time>
      </trkpt>
      <trkpt lat="48.21779" lon="6.69408">
        <ele>543</ele>
        <time>2026-09-03T13:03:37.000Z</time>
      </trkpt>
      <trkpt lat="48.21779" lon="6.69408">
        <ele>543</ele>
        <time>2026-09-03T13:03:38.000Z</time>
      </trkpt>
      <trkpt lat="48.21779" lon="6.69408">
        <ele>543</ele>
        <time>2026-09-03T13:03:39.000Z</time>
      </trkpt>
      <trkpt lat="48.21779" lon="6.69408">
        <ele>543</ele>
        <time>2026-09-03T13:03:40.000Z</time>
      </trkpt>
      <trkpt lat="48.21779" lon="6.69407">
        <ele>543</ele>
        <time>2026-09-03T13:03:41.000Z</time>
      </trkpt>
      <trkpt lat="48.21778" lon="6.69406">
        <ele>543</ele>
        <time>2026-09-03T13:03:42.000Z</time>
      </trkpt>
      <trkpt lat="48.21778" lon="6.69405">
        <ele>542.80004882812</ele>
        <time>2026-09-03T13:03:43.000Z</time>
      </trkpt>
      <trkpt lat="48.21778" lon="6.69405">
        <ele>542.80004882812</ele>
        <time>2026-09-03T13:03:44.000Z</time>
      </trkpt>
      <trkpt lat="48.21778" lon="6.69403">
        <ele>542.59997558594</ele>
        <time>2026-09-03T13:03:45.000Z</time>
      </trkpt>
      <trkpt lat="48.21778" lon="6.69402">
        <ele>542.59997558594</ele>
        <time>2026-09-03T13:03:46.000Z</time>
      </trkpt>
      <trkpt lat="48.21778" lon="6.694">
        <ele>542.80004882812</ele>
        <time>2026-09-03T13:03:47.000Z</time>
      </trkpt>
      <trkpt lat="48.21779" lon="6.69399">
        <ele>542.80004882812</ele>
        <time>2026-09-03T13:03:48.000Z</time>
      </trkpt>
      <trkpt lat="48.21779" lon="6.69398">
        <ele>542.59997558594</ele>
        <time>2026-09-03T13:03:49.000Z</time>
      </trkpt>
      <trkpt lat="48.2178" lon="6.69397">
        <ele>542.59997558594</ele>
        <time>2026-09-03T13:03:50.000Z</time>
      </trkpt>
      <trkpt lat="48.21781" lon="6.69397">
        <ele>542.40002441406</ele>
        <time>2026-09-03T13:03:51.000Z</time>
      </trkpt>
      <trkpt lat="48.21781" lon="6.69397">
        <ele>542.40002441406</ele>
        <time>2026-09-03T13:03:52.000Z</time>
      </trkpt>
      <trkpt lat="48.21782" lon="6.69396">
        <ele>542.19995117188</ele>
        <time>2026-09-03T13:03:53.000Z</time>
      </trkpt>
      <trkpt lat="48.21781" lon="6.69395">
        <ele>542</ele>
        <time>2026-09-03T13:03:54.000Z</time>
      </trkpt>
      <trkpt lat="48.21781" lon="6.69394">
        <ele>541.80004882812</ele>
        <time>2026-09-03T13:03:55.000Z</time>
      </trkpt>
      <trkpt lat="48.21781" lon="6.69394">
        <ele>541.59997558594</ele>
        <time>2026-09-03T13:03:56.000Z</time>
      </trkpt>
      <trkpt lat="48.21781" lon="6.69393">
        <ele>541.40002441406</ele>
        <time>2026-09-03T13:03:57.000Z</time>
      </trkpt>
      <trkpt lat="48.21781" lon="6.69393">
        <ele>541.40002441406</ele>
        <time>2026-09-03T13:03:58.000Z</time>
      </trkpt>
      <trkpt lat="48.21781" lon="6.69392">
        <ele>541.40002441406</ele>
        <time>2026-09-03T13:03:59.000Z</time>
      </trkpt>
      <trkpt lat="48.2178" lon="6.69393">
        <ele>541.19995117188</ele>
        <time>2026-09-03T13:04:00.000Z</time>
      </trkpt>
      <trkpt lat="48.21781" lon="6.69393">
        <ele>541.40002441406</ele>
        <time>2026-09-03T13:04:01.000Z</time>
      </trkpt>
      <trkpt lat="48.2178" lon="6.69394">
        <ele>541.40002441406</ele>
        <time>2026-09-03T13:04:02.000Z</time>
      </trkpt>
      <trkpt lat="48.21781" lon="6.69394">
        <ele>541.40002441406</ele>
        <time>2026-09-03T13:04:03.000Z</time>
      </trkpt>
      <trkpt lat="48.2178" lon="6.69394">
        <ele>541.59997558594</ele>
        <time>2026-09-03T13:04:04.000Z</time>
      </trkpt>
      <trkpt lat="48.2178" lon="6.69394">
        <ele>541.59997558594</ele>
        <time>2026-09-03T13:04:05.000Z</time>
      </trkpt>
      <trkpt lat="48.2178" lon="6.69395">
        <ele>541.80004882812</ele>
        <time>2026-09-03T13:04:06.000Z</time>
      </trkpt>
      <trkpt lat="48.2178" lon="6.69395">
        <ele>542</ele>
        <time>2026-09-03T13:04:07.000Z</time>
      </trkpt>
      <trkpt lat="48.21779" lon="6.69395">
        <ele>542.19995117188</ele>
        <time>2026-09-03T13:04:08.000Z</time>
      </trkpt>
      <trkpt lat="48.21779" lon="6.69395">
        <ele>542.40002441406</ele>
        <time>2026-09-03T13:04:09.000Z</time>
      </trkpt>
      <trkpt lat="48.21779" lon="6.69395">
        <ele>542.40002441406</ele>
        <time>2026-09-03T13:04:10.000Z</time>
      </trkpt>
      <trkpt lat="48.21779" lon="6.69395">
        <ele>542.40002441406</ele>
        <time>2026-09-03T13:04:11.000Z</time>
      </trkpt>
      <trkpt lat="48.21779" lon="6.69395">
        <ele>542.40002441406</ele>
        <time>2026-09-03T13:04:12.000Z</time>
      </trkpt>
      <trkpt lat="48.21779" lon="6.69395">
        <ele>542.19995117188</ele>
        <time>2026-09-03T13:04:13.000Z</time>
      </trkpt>
      <trkpt lat="48.21779" lon="6.69395">
        <ele>542</ele>
        <time>2026-09-03T13:04:14.000Z</time>
      </trkpt>
      <trkpt lat="48.21779" lon="6.69395">
        <ele>542</ele>
        <time>2026-09-03T13:04:15.000Z</time>
      </trkpt>
      <trkpt lat="48.21779" lon="6.69395">
        <ele>542.19995117188</ele>
        <time>2026-09-03T13:04:16.000Z</time>
      </trkpt>
      <trkpt lat="48.21779" lon="6.69395">
        <ele>542.19995117188</ele>
        <time>2026-09-03T13:04:17.000Z</time>
      </trkpt>
      <trkpt lat="48.21779" lon="6.69395">
        <ele>542.19995117188</ele>
        <time>2026-09-03T13:04:18.000Z</time>
      </trkpt>
      <trkpt lat="48.21779" lon="6.69395">
        <ele>542.19995117188</ele>
        <time>2026-09-03T13:04:19.000Z</time>
      </trkpt>
      <trkpt lat="48.21779" lon="6.69395">
        <ele>542</ele>
        <time>2026-09-03T13:04:20.000Z</time>
      </trkpt>
      <trkpt lat="48.21779" lon="6.69395">
        <ele>542</ele>
        <time>2026-09-03T13:04:21.000Z</time>
      </trkpt>
      <trkpt lat="48.21779" lon="6.69395">
        <ele>542</ele>
        <time>2026-09-03T13:04:22.000Z</time>
      </trkpt>
      <trkpt lat="48.21779" lon="6.69395">
        <ele>542</ele>
        <time>2026-09-03T13:04:23.000Z</time>
      </trkpt>
      <trkpt lat="48.21779" lon="6.69395">
        <ele>542</ele>
        <time>2026-09-03T13:04:24.000Z</time>
      </trkpt>
      <trkpt lat="48.21779" lon="6.69395">
        <ele>542</ele>
        <time>2026-09-03T13:04:25.000Z</time>
      </trkpt>
      <trkpt lat="48.21779" lon="6.69395">
        <ele>542</ele>
        <time>2026-09-03T13:04:26.000Z</time>
      </trkpt>
      <trkpt lat="48.21779" lon="6.69395">
        <ele>542</ele>
        <time>2026-09-03T13:04:27.000Z</time>
      </trkpt>
      <trkpt lat="48.21779" lon="6.69395">
        <ele>542</ele>
        <time>2026-09-03T13:04:28.000Z</time>
      </trkpt>
      <trkpt lat="48.21779" lon="6.69395">
        <ele>542</ele>
        <time>2026-09-03T13:04:29.000Z</time>
      </trkpt>
      <trkpt lat="48.21779" lon="6.69395">
        <ele>542</ele>
        <time>2026-09-03T13:04:30.000Z</time>
      </trkpt>
      <trkpt lat="48.21779" lon="6.69395">
        <ele>542</ele>
        <time>2026-09-03T13:04:31.000Z</time>
      </trkpt>
      <trkpt lat="48.21779" lon="6.69395">
        <ele>542</ele>
        <time>2026-09-03T13:04:32.000Z</time>
      </trkpt>
      <trkpt lat="48.21779" lon="6.69395">
        <ele>542.19995117188</ele>
        <time>2026-09-03T13:04:33.000Z</time>
      </trkpt>
      <trkpt lat="48.21779" lon="6.69395">
        <ele>542.19995117188</ele>
        <time>2026-09-03T13:04:34.000Z</time>
      </trkpt>
      <trkpt lat="48.21779" lon="6.69395">
        <ele>542.19995117188</ele>
        <time>2026-09-03T13:04:35.000Z</time>
      </trkpt>
      <trkpt lat="48.21779" lon="6.69395">
        <ele>542.40002441406</ele>
        <time>2026-09-03T13:04:36.000Z</time>
      </trkpt>
      <trkpt lat="48.2178" lon="6.69395">
        <ele>542.40002441406</ele>
        <time>2026-09-03T13:04:37.000Z</time>
      </trkpt>
      <trkpt lat="48.2178" lon="6.69394">
        <ele>542.59997558594</ele>
        <time>2026-09-03T13:04:38.000Z</time>
      </trkpt>
      <trkpt lat="48.2178" lon="6.69394">
        <ele>542.80004882812</ele>
        <time>2026-09-03T13:04:39.000Z</time>
      </trkpt>
      <trkpt lat="48.21779" lon="6.69395">
        <ele>542.80004882812</ele>
        <time>2026-09-03T13:04:40.000Z</time>
      </trkpt>
      <trkpt lat="48.21779" lon="6.69395">
        <ele>543</ele>
        <time>2026-09-03T13:04:41.000Z</time>
      </trkpt>
      <trkpt lat="48.21779" lon="6.69395">
        <ele>542.80004882812</ele>
        <time>2026-09-03T13:04:42.000Z</time>
      </trkpt>
      <trkpt lat="48.21779" lon="6.69395">
        <ele>542.80004882812</ele>
        <time>2026-09-03T13:04:43.000Z</time>
      </trkpt>
      <trkpt lat="48.21779" lon="6.69395">
        <ele>542.59997558594</ele>
        <time>2026-09-03T13:04:44.000Z</time>
      </trkpt>
      <trkpt lat="48.21779" lon="6.69395">
        <ele>542.40002441406</ele>
        <time>2026-09-03T13:04:45.000Z</time>
      </trkpt>
      <trkpt lat="48.21779" lon="6.69393">
        <ele>542.19995117188</ele>
        <time>2026-09-03T13:04:46.000Z</time>
      </trkpt>
      <trkpt lat="48.21779" lon="6.69393">
        <ele>542.19995117188</ele>
        <time>2026-09-03T13:04:47.000Z</time>
      </trkpt>
      <trkpt lat="48.21779" lon="6.69393">
        <ele>542.19995117188</ele>
        <time>2026-09-03T13:04:48.000Z</time>
      </trkpt>
      <trkpt lat="48.21779" lon="6.69393">
        <ele>542.19995117188</ele>
        <time>2026-09-03T13:04:49.000Z</time>
      </trkpt>
      <trkpt lat="48.21779" lon="6.69393">
        <ele>542.19995117188</ele>
        <time>2026-09-03T13:04:50.000Z</time>
      </trkpt>
      <trkpt lat="48.21779" lon="6.69393">
        <ele>542.19995117188</ele>
        <time>2026-09-03T13:04:51.000Z</time>
      </trkpt>
      <trkpt lat="48.21779" lon="6.69393">
        <ele>542.19995117188</ele>
        <time>2026-09-03T13:04:52.000Z</time>
      </trkpt>
      <trkpt lat="48.21779" lon="6.69393">
        <ele>542.19995117188</ele>
        <time>2026-09-03T13:04:53.000Z</time>
      </trkpt>
      <trkpt lat="48.21779" lon="6.69393">
        <ele>542.19995117188</ele>
        <time>2026-09-03T13:04:54.000Z</time>
      </trkpt>
      <trkpt lat="48.21779" lon="6.69393">
        <ele>542.40002441406</ele>
        <time>2026-09-03T13:04:55.000Z</time>
      </trkpt>
      <trkpt lat="48.21779" lon="6.69393">
        <ele>542.40002441406</ele>
        <time>2026-09-03T13:04:56.000Z</time>
      </trkpt>
      <trkpt lat="48.21779" lon="6.69393">
        <ele>542.59997558594</ele>
        <time>2026-09-03T13:04:57.000Z</time>
      </trkpt>
      <trkpt lat="48.21779" lon="6.69393">
        <ele>542.59997558594</ele>
        <time>2026-09-03T13:04:58.000Z</time>
      </trkpt>
      <trkpt lat="48.21779" lon="6.69392">
        <ele>542.80004882812</ele>
        <time>2026-09-03T13:04:59.000Z</time>
      </trkpt>
      <trkpt lat="48.21779" lon="6.69391">
        <ele>542.59997558594</ele>
        <time>2026-09-03T13:05:00.000Z</time>
      </trkpt>
      <trkpt lat="48.2178" lon="6.6939">
        <ele>542.40002441406</ele>
        <time>2026-09-03T13:05:01.000Z</time>
      </trkpt>
      <trkpt lat="48.2178" lon="6.6939">
        <ele>542.19995117188</ele>
        <time>2026-09-03T13:05:02.000Z</time>
      </trkpt>
      <trkpt lat="48.2178" lon="6.69389">
        <ele>541.80004882812</ele>
        <time>2026-09-03T13:05:03.000Z</time>
      </trkpt>
      <trkpt lat="48.21781" lon="6.6939">
        <ele>541.40002441406</ele>
        <time>2026-09-03T13:05:04.000Z</time>
      </trkpt>
      <trkpt lat="48.21781" lon="6.6939">
        <ele>541.19995117188</ele>
        <time>2026-09-03T13:05:05.000Z</time>
      </trkpt>
      <trkpt lat="48.21781" lon="6.69389">
        <ele>540.80004882812</ele>
        <time>2026-09-03T13:05:06.000Z</time>
      </trkpt>
      <trkpt lat="48.21781" lon="6.69389">
        <ele>540.80004882812</ele>
        <time>2026-09-03T13:05:07.000Z</time>
      </trkpt>
      <trkpt lat="48.21781" lon="6.69389">
        <ele>540.59997558594</ele>
        <time>2026-09-03T13:05:08.000Z</time>
      </trkpt>
      <trkpt lat="48.21781" lon="6.69389">
        <ele>540.59997558594</ele>
        <time>2026-09-03T13:05:09.000Z</time>
      </trkpt>
      <trkpt lat="48.21781" lon="6.69389">
        <ele>540.59997558594</ele>
        <time>2026-09-03T13:05:10.000Z</time>
      </trkpt>
      <trkpt lat="48.21781" lon="6.69389">
        <ele>540.59997558594</ele>
        <time>2026-09-03T13:05:11.000Z</time>
      </trkpt>
      <trkpt lat="48.2178" lon="6.69388">
        <ele>540.59997558594</ele>
        <time>2026-09-03T13:05:12.000Z</time>
      </trkpt>
      <trkpt lat="48.2178" lon="6.69389">
        <ele>540.80004882812</ele>
        <time>2026-09-03T13:05:13.000Z</time>
      </trkpt>
      <trkpt lat="48.2178" lon="6.69388">
        <ele>541</ele>
        <time>2026-09-03T13:05:14.000Z</time>
      </trkpt>
      <trkpt lat="48.2178" lon="6.69388">
        <ele>541.40002441406</ele>
        <time>2026-09-03T13:05:15.000Z</time>
      </trkpt>
      <trkpt lat="48.2178" lon="6.69388">
        <ele>541.59997558594</ele>
        <time>2026-09-03T13:05:16.000Z</time>
      </trkpt>
      <trkpt lat="48.2178" lon="6.69388">
        <ele>541.80004882812</ele>
        <time>2026-09-03T13:05:17.000Z</time>
      </trkpt>
      <trkpt lat="48.2178" lon="6.69389">
        <ele>541.80004882812</ele>
        <time>2026-09-03T13:05:18.000Z</time>
      </trkpt>
      <trkpt lat="48.2178" lon="6.69389">
        <ele>541.80004882812</ele>
        <time>2026-09-03T13:05:19.000Z</time>
      </trkpt>
      <trkpt lat="48.21781" lon="6.69389">
        <ele>541.80004882812</ele>
        <time>2026-09-03T13:05:20.000Z</time>
      </trkpt>
      <trkpt lat="48.21781" lon="6.69389">
        <ele>541.80004882812</ele>
        <time>2026-09-03T13:05:21.000Z</time>
      </trkpt>
      <trkpt lat="48.21781" lon="6.69389">
        <ele>541.80004882812</ele>
        <time>2026-09-03T13:05:22.000Z</time>
      </trkpt>
      <trkpt lat="48.21781" lon="6.69389">
        <ele>541.80004882812</ele>
        <time>2026-09-03T13:05:23.000Z</time>
      </trkpt>
      <trkpt lat="48.21781" lon="6.69389">
        <ele>541.80004882812</ele>
        <time>2026-09-03T13:05:24.000Z</time>
      </trkpt>
      <trkpt lat="48.21781" lon="6.69389">
        <ele>541.80004882812</ele>
        <time>2026-09-03T13:05:25.000Z</time>
      </trkpt>
      <trkpt lat="48.21781" lon="6.69389">
        <ele>541.80004882812</ele>
        <time>2026-09-03T13:05:26.000Z</time>
      </trkpt>
      <trkpt lat="48.21781" lon="6.69389">
        <ele>541.80004882812</ele>
        <time>2026-09-03T13:05:27.000Z</time>
      </trkpt>
      <trkpt lat="48.2178" lon="6.69389">
        <ele>541.59997558594</ele>
        <time>2026-09-03T13:05:28.000Z</time>
      </trkpt>
      <trkpt lat="48.2178" lon="6.69389">
        <ele>541.59997558594</ele>
        <time>2026-09-03T13:05:29.000Z</time>
      </trkpt>
      <trkpt lat="48.2178" lon="6.69389">
        <ele>541.80004882812</ele>
        <time>2026-09-03T13:05:30.000Z</time>
      </trkpt>
      <trkpt lat="48.2178" lon="6.69389">
        <ele>541.80004882812</ele>
        <time>2026-09-03T13:05:31.000Z</time>
      </trkpt>
      <trkpt lat="48.2178" lon="6.69389">
        <ele>541.80004882812</ele>
        <time>2026-09-03T13:05:32.000Z</time>
      </trkpt>
      <trkpt lat="48.2178" lon="6.69389">
        <ele>541.80004882812</ele>
        <time>2026-09-03T13:05:33.000Z</time>
      </trkpt>
      <trkpt lat="48.2178" lon="6.69389">
        <ele>541.80004882812</ele>
        <time>2026-09-03T13:05:34.000Z</time>
      </trkpt>
      <trkpt lat="48.2178" lon="6.69389">
        <ele>541.80004882812</ele>
        <time>2026-09-03T13:05:35.000Z</time>
      </trkpt>
      <trkpt lat="48.2178" lon="6.69389">
        <ele>541.59997558594</ele>
        <time>2026-09-03T13:05:36.000Z</time>
      </trkpt>
      <trkpt lat="48.2178" lon="6.69389">
        <ele>541.59997558594</ele>
        <time>2026-09-03T13:05:37.000Z</time>
      </trkpt>
      <trkpt lat="48.2178" lon="6.69389">
        <ele>541.40002441406</ele>
        <time>2026-09-03T13:05:38.000Z</time>
      </trkpt>
      <trkpt lat="48.2178" lon="6.69389">
        <ele>541.40002441406</ele>
        <time>2026-09-03T13:05:39.000Z</time>
      </trkpt>
      <trkpt lat="48.21779" lon="6.69387">
        <ele>541.19995117188</ele>
        <time>2026-09-03T13:05:40.000Z</time>
      </trkpt>
      <trkpt lat="48.21779" lon="6.69387">
        <ele>541.19995117188</ele>
        <time>2026-09-03T13:05:41.000Z</time>
      </trkpt>
      <trkpt lat="48.21778" lon="6.69386">
        <ele>541.40002441406</ele>
        <time>2026-09-03T13:05:42.000Z</time>
      </trkpt>
      <trkpt lat="48.21778" lon="6.69386">
        <ele>541.40002441406</ele>
        <time>2026-09-03T13:05:43.000Z</time>
      </trkpt>
      <trkpt lat="48.21778" lon="6.69386">
        <ele>541.59997558594</ele>
        <time>2026-09-03T13:05:44.000Z</time>
      </trkpt>
      <trkpt lat="48.21778" lon="6.69386">
        <ele>541.59997558594</ele>
        <time>2026-09-03T13:05:45.000Z</time>
      </trkpt>
      <trkpt lat="48.21777" lon="6.69385">
        <ele>541.59997558594</ele>
        <time>2026-09-03T13:05:46.000Z</time>
      </trkpt>
      <trkpt lat="48.21778" lon="6.69383">
        <ele>541.59997558594</ele>
        <time>2026-09-03T13:05:47.000Z</time>
      </trkpt>
      <trkpt lat="48.21778" lon="6.69382">
        <ele>541.40002441406</ele>
        <time>2026-09-03T13:05:48.000Z</time>
      </trkpt>
      <trkpt lat="48.21778" lon="6.69381">
        <ele>541.40002441406</ele>
        <time>2026-09-03T13:05:49.000Z</time>
      </trkpt>
      <trkpt lat="48.21778" lon="6.69379">
        <ele>541.19995117188</ele>
        <time>2026-09-03T13:05:50.000Z</time>
      </trkpt>
      <trkpt lat="48.21778" lon="6.69378">
        <ele>541.19995117188</ele>
        <time>2026-09-03T13:05:51.000Z</time>
      </trkpt>
      <trkpt lat="48.21778" lon="6.69377">
        <ele>541.19995117188</ele>
        <time>2026-09-03T13:05:52.000Z</time>
      </trkpt>
      <trkpt lat="48.21778" lon="6.69376">
        <ele>541.40002441406</ele>
        <time>2026-09-03T13:05:53.000Z</time>
      </trkpt>
      <trkpt lat="48.21778" lon="6.69374">
        <ele>541.40002441406</ele>
        <time>2026-09-03T13:05:54.000Z</time>
      </trkpt>
      <trkpt lat="48.21778" lon="6.69373">
        <ele>541.59997558594</ele>
        <time>2026-09-03T13:05:55.000Z</time>
      </trkpt>
      <trkpt lat="48.21778" lon="6.69371">
        <ele>541.80004882812</ele>
        <time>2026-09-03T13:05:56.000Z</time>
      </trkpt>
      <trkpt lat="48.21778" lon="6.6937">
        <ele>542</ele>
        <time>2026-09-03T13:05:57.000Z</time>
      </trkpt>
      <trkpt lat="48.21779" lon="6.69368">
        <ele>542</ele>
        <time>2026-09-03T13:05:58.000Z</time>
      </trkpt>
      <trkpt lat="48.21779" lon="6.69368">
        <ele>541.80004882812</ele>
        <time>2026-09-03T13:05:59.000Z</time>
      </trkpt>
      <trkpt lat="48.21779" lon="6.69368">
        <ele>541.80004882812</ele>
        <time>2026-09-03T13:06:00.000Z</time>
      </trkpt>
      <trkpt lat="48.21779" lon="6.69368">
        <ele>541.80004882812</ele>
        <time>2026-09-03T13:06:01.000Z</time>
      </trkpt>
      <trkpt lat="48.21779" lon="6.69368">
        <ele>541.59997558594</ele>
        <time>2026-09-03T13:06:02.000Z</time>
      </trkpt>
      <trkpt lat="48.21779" lon="6.69368">
        <ele>541.59997558594</ele>
        <time>2026-09-03T13:06:03.000Z</time>
      </trkpt>
      <trkpt lat="48.21779" lon="6.69368">
        <ele>541.59997558594</ele>
        <time>2026-09-03T13:06:04.000Z</time>
      </trkpt>
      <trkpt lat="48.21779" lon="6.69368">
        <ele>541.59997558594</ele>
        <time>2026-09-03T13:06:05.000Z</time>
      </trkpt>
      <trkpt lat="48.21779" lon="6.69368">
        <ele>541.40002441406</ele>
        <time>2026-09-03T13:06:06.000Z</time>
      </trkpt>
      <trkpt lat="48.21779" lon="6.69367">
        <ele>541.19995117188</ele>
        <time>2026-09-03T13:06:07.000Z</time>
      </trkpt>
      <trkpt lat="48.21779" lon="6.69366">
        <ele>541.19995117188</ele>
        <time>2026-09-03T13:06:08.000Z</time>
      </trkpt>
      <trkpt lat="48.21779" lon="6.69366">
        <ele>541.19995117188</ele>
        <time>2026-09-03T13:06:09.000Z</time>
      </trkpt>
      <trkpt lat="48.21779" lon="6.69365">
        <ele>541.19995117188</ele>
        <time>2026-09-03T13:06:10.000Z</time>
      </trkpt>
      <trkpt lat="48.2178" lon="6.69364">
        <ele>541.59997558594</ele>
        <time>2026-09-03T13:06:11.000Z</time>
      </trkpt>
      <trkpt lat="48.2178" lon="6.69363">
        <ele>541.80004882812</ele>
        <time>2026-09-03T13:06:12.000Z</time>
      </trkpt>
      <trkpt lat="48.2178" lon="6.69362">
        <ele>541.80004882812</ele>
        <time>2026-09-03T13:06:13.000Z</time>
      </trkpt>
      <trkpt lat="48.2178" lon="6.69361">
        <ele>541.80004882812</ele>
        <time>2026-09-03T13:06:14.000Z</time>
      </trkpt>
      <trkpt lat="48.21781" lon="6.6936">
        <ele>541.80004882812</ele>
        <time>2026-09-03T13:06:15.000Z</time>
      </trkpt>
      <trkpt lat="48.21781" lon="6.6936">
        <ele>541.59997558594</ele>
        <time>2026-09-03T13:06:16.000Z</time>
      </trkpt>
      <trkpt lat="48.21782" lon="6.69359">
        <ele>541.59997558594</ele>
        <time>2026-09-03T13:06:17.000Z</time>
      </trkpt>
      <trkpt lat="48.21781" lon="6.69359">
        <ele>541.59997558594</ele>
        <time>2026-09-03T13:06:18.000Z</time>
      </trkpt>
      <trkpt lat="48.21781" lon="6.69358">
        <ele>541.59997558594</ele>
        <time>2026-09-03T13:06:19.000Z</time>
      </trkpt>
      <trkpt lat="48.2178" lon="6.69357">
        <ele>541.59997558594</ele>
        <time>2026-09-03T13:06:20.000Z</time>
      </trkpt>
      <trkpt lat="48.2178" lon="6.69357">
        <ele>541.40002441406</ele>
        <time>2026-09-03T13:06:21.000Z</time>
      </trkpt>
      <trkpt lat="48.21779" lon="6.69356">
        <ele>541.40002441406</ele>
        <time>2026-09-03T13:06:22.000Z</time>
      </trkpt>
      <trkpt lat="48.21778" lon="6.69356">
        <ele>541.40002441406</ele>
        <time>2026-09-03T13:06:23.000Z</time>
      </trkpt>
      <trkpt lat="48.21778" lon="6.69355">
        <ele>541.19995117188</ele>
        <time>2026-09-03T13:06:24.000Z</time>
      </trkpt>
      <trkpt lat="48.21778" lon="6.69355">
        <ele>541.19995117188</ele>
        <time>2026-09-03T13:06:25.000Z</time>
      </trkpt>
      <trkpt lat="48.21777" lon="6.69354">
        <ele>541.40002441406</ele>
        <time>2026-09-03T13:06:26.000Z</time>
      </trkpt>
      <trkpt lat="48.21777" lon="6.69353">
        <ele>541.40002441406</ele>
        <time>2026-09-03T13:06:27.000Z</time>
      </trkpt>
      <trkpt lat="48.21777" lon="6.69352">
        <ele>541.40002441406</ele>
        <time>2026-09-03T13:06:28.000Z</time>
      </trkpt>
      <trkpt lat="48.21776" lon="6.69351">
        <ele>541.40002441406</ele>
        <time>2026-09-03T13:06:29.000Z</time>
      </trkpt>
      <trkpt lat="48.21776" lon="6.69349">
        <ele>541.40002441406</ele>
        <time>2026-09-03T13:06:30.000Z</time>
      </trkpt>
      <trkpt lat="48.21775" lon="6.69348">
        <ele>541.19995117188</ele>
        <time>2026-09-03T13:06:31.000Z</time>
      </trkpt>
      <trkpt lat="48.21775" lon="6.69346">
        <ele>541.19995117188</ele>
        <time>2026-09-03T13:06:32.000Z</time>
      </trkpt>
      <trkpt lat="48.21775" lon="6.69345">
        <ele>541.19995117188</ele>
        <time>2026-09-03T13:06:33.000Z</time>
      </trkpt>
      <trkpt lat="48.21776" lon="6.69344">
        <ele>541.19995117188</ele>
        <time>2026-09-03T13:06:34.000Z</time>
      </trkpt>
      <trkpt lat="48.21777" lon="6.69342">
        <ele>541.19995117188</ele>
        <time>2026-09-03T13:06:35.000Z</time>
      </trkpt>
      <trkpt lat="48.21778" lon="6.69341">
        <ele>541</ele>
        <time>2026-09-03T13:06:36.000Z</time>
      </trkpt>
      <trkpt lat="48.21779" lon="6.69339">
        <ele>541</ele>
        <time>2026-09-03T13:06:37.000Z</time>
      </trkpt>
      <trkpt lat="48.2178" lon="6.69339">
        <ele>540.80004882812</ele>
        <time>2026-09-03T13:06:38.000Z</time>
      </trkpt>
      <trkpt lat="48.21781" lon="6.69338">
        <ele>540.80004882812</ele>
        <time>2026-09-03T13:06:39.000Z</time>
      </trkpt>
      <trkpt lat="48.21781" lon="6.69337">
        <ele>540.59997558594</ele>
        <time>2026-09-03T13:06:40.000Z</time>
      </trkpt>
      <trkpt lat="48.21781" lon="6.69337">
        <ele>540.40002441406</ele>
        <time>2026-09-03T13:06:41.000Z</time>
      </trkpt>
      <trkpt lat="48.21781" lon="6.69337">
        <ele>540.40002441406</ele>
        <time>2026-09-03T13:06:42.000Z</time>
      </trkpt>
      <trkpt lat="48.21781" lon="6.69337">
        <ele>540.40002441406</ele>
        <time>2026-09-03T13:06:43.000Z</time>
      </trkpt>
      <trkpt lat="48.21781" lon="6.69338">
        <ele>540.40002441406</ele>
        <time>2026-09-03T13:06:44.000Z</time>
      </trkpt>
      <trkpt lat="48.21781" lon="6.69338">
        <ele>540.59997558594</ele>
        <time>2026-09-03T13:06:45.000Z</time>
      </trkpt>
      <trkpt lat="48.21781" lon="6.69338">
        <ele>540.59997558594</ele>
        <time>2026-09-03T13:06:46.000Z</time>
      </trkpt>
      <trkpt lat="48.21781" lon="6.69338">
        <ele>540.80004882812</ele>
        <time>2026-09-03T13:06:47.000Z</time>
      </trkpt>
      <trkpt lat="48.21781" lon="6.69338">
        <ele>540.80004882812</ele>
        <time>2026-09-03T13:06:48.000Z</time>
      </trkpt>
      <trkpt lat="48.21781" lon="6.69338">
        <ele>540.80004882812</ele>
        <time>2026-09-03T13:06:49.000Z</time>
      </trkpt>
      <trkpt lat="48.21781" lon="6.69338">
        <ele>540.80004882812</ele>
        <time>2026-09-03T13:06:50.000Z</time>
      </trkpt>
      <trkpt lat="48.21781" lon="6.69338">
        <ele>540.80004882812</ele>
        <time>2026-09-03T13:06:51.000Z</time>
      </trkpt>
      <trkpt lat="48.21781" lon="6.69338">
        <ele>540.80004882812</ele>
        <time>2026-09-03T13:06:52.000Z</time>
      </trkpt>
      <trkpt lat="48.21781" lon="6.69338">
        <ele>540.80004882812</ele>
        <time>2026-09-03T13:06:53.000Z</time>
      </trkpt>
      <trkpt lat="48.21781" lon="6.69338">
        <ele>540.80004882812</ele>
        <time>2026-09-03T13:06:54.000Z</time>
      </trkpt>
      <trkpt lat="48.21781" lon="6.69338">
        <ele>540.80004882812</ele>
        <time>2026-09-03T13:06:55.000Z</time>
      </trkpt>
      <trkpt lat="48.2178" lon="6.69338">
        <ele>540.59997558594</ele>
        <time>2026-09-03T13:06:56.000Z</time>
      </trkpt>
      <trkpt lat="48.21779" lon="6.69338">
        <ele>540.59997558594</ele>
        <time>2026-09-03T13:06:57.000Z</time>
      </trkpt>
      <trkpt lat="48.21778" lon="6.69338">
        <ele>540.59997558594</ele>
        <time>2026-09-03T13:06:58.000Z</time>
      </trkpt>
      <trkpt lat="48.21778" lon="6.69338">
        <ele>540.59997558594</ele>
        <time>2026-09-03T13:06:59.000Z</time>
      </trkpt>
      <trkpt lat="48.21777" lon="6.69337">
        <ele>540.59997558594</ele>
        <time>2026-09-03T13:07:00.000Z</time>
      </trkpt>
      <trkpt lat="48.21776" lon="6.69337">
        <ele>540.59997558594</ele>
        <time>2026-09-03T13:07:01.000Z</time>
      </trkpt>
      <trkpt lat="48.21776" lon="6.69336">
        <ele>540.59997558594</ele>
        <time>2026-09-03T13:07:02.000Z</time>
      </trkpt>
      <trkpt lat="48.21776" lon="6.69336">
        <ele>540.59997558594</ele>
        <time>2026-09-03T13:07:03.000Z</time>
      </trkpt>
      <trkpt lat="48.21775" lon="6.69335">
        <ele>540.80004882812</ele>
        <time>2026-09-03T13:07:04.000Z</time>
      </trkpt>
      <trkpt lat="48.21775" lon="6.69335">
        <ele>540.80004882812</ele>
        <time>2026-09-03T13:07:05.000Z</time>
      </trkpt>
      <trkpt lat="48.21775" lon="6.69335">
        <ele>540.80004882812</ele>
        <time>2026-09-03T13:07:06.000Z</time>
      </trkpt>
      <trkpt lat="48.21775" lon="6.69335">
        <ele>540.80004882812</ele>
        <time>2026-09-03T13:07:07.000Z</time>
      </trkpt>
      <trkpt lat="48.21775" lon="6.69335">
        <ele>540.80004882812</ele>
        <time>2026-09-03T13:07:08.000Z</time>
      </trkpt>
      <trkpt lat="48.21775" lon="6.69335">
        <ele>540.80004882812</ele>
        <time>2026-09-03T13:07:09.000Z</time>
      </trkpt>
      <trkpt lat="48.21775" lon="6.69335">
        <ele>540.59997558594</ele>
        <time>2026-09-03T13:07:10.000Z</time>
      </trkpt>
      <trkpt lat="48.21775" lon="6.69335">
        <ele>540.59997558594</ele>
        <time>2026-09-03T13:07:11.000Z</time>
      </trkpt>
      <trkpt lat="48.21775" lon="6.69335">
        <ele>540.59997558594</ele>
        <time>2026-09-03T13:07:12.000Z</time>
      </trkpt>
      <trkpt lat="48.21775" lon="6.69335">
        <ele>540.59997558594</ele>
        <time>2026-09-03T13:07:13.000Z</time>
      </trkpt>
      <trkpt lat="48.21774" lon="6.69335">
        <ele>540.59997558594</ele>
        <time>2026-09-03T13:07:14.000Z</time>
      </trkpt>
      <trkpt lat="48.21775" lon="6.69334">
        <ele>540.59997558594</ele>
        <time>2026-09-03T13:07:15.000Z</time>
      </trkpt>
      <trkpt lat="48.21775" lon="6.69335">
        <ele>540.59997558594</ele>
        <time>2026-09-03T13:07:16.000Z</time>
      </trkpt>
      <trkpt lat="48.21775" lon="6.69336">
        <ele>540.80004882812</ele>
        <time>2026-09-03T13:07:17.000Z</time>
      </trkpt>
      <trkpt lat="48.21775" lon="6.69335">
        <ele>540.80004882812</ele>
        <time>2026-09-03T13:07:18.000Z</time>
      </trkpt>
      <trkpt lat="48.21776" lon="6.69335">
        <ele>540.80004882812</ele>
        <time>2026-09-03T13:07:19.000Z</time>
      </trkpt>
      <trkpt lat="48.21775" lon="6.69335">
        <ele>540.80004882812</ele>
        <time>2026-09-03T13:07:20.000Z</time>
      </trkpt>
      <trkpt lat="48.21775" lon="6.69335">
        <ele>540.80004882812</ele>
        <time>2026-09-03T13:07:21.000Z</time>
      </trkpt>
      <trkpt lat="48.21775" lon="6.69335">
        <ele>540.59997558594</ele>
        <time>2026-09-03T13:07:22.000Z</time>
      </trkpt>
      <trkpt lat="48.21775" lon="6.69335">
        <ele>540.59997558594</ele>
        <time>2026-09-03T13:07:23.000Z</time>
      </trkpt>
      <trkpt lat="48.21775" lon="6.69335">
        <ele>540.59997558594</ele>
        <time>2026-09-03T13:07:24.000Z</time>
      </trkpt>
      <trkpt lat="48.21775" lon="6.69335">
        <ele>540.59997558594</ele>
        <time>2026-09-03T13:07:25.000Z</time>
      </trkpt>
      <trkpt lat="48.21774" lon="6.69335">
        <ele>540.59997558594</ele>
        <time>2026-09-03T13:07:26.000Z</time>
      </trkpt>
      <trkpt lat="48.21774" lon="6.69335">
        <ele>540.80004882812</ele>
        <time>2026-09-03T13:07:27.000Z</time>
      </trkpt>
      <trkpt lat="48.21773" lon="6.69334">
        <ele>540.80004882812</ele>
        <time>2026-09-03T13:07:28.000Z</time>
      </trkpt>
      <trkpt lat="48.21772" lon="6.69334">
        <ele>540.80004882812</ele>
        <time>2026-09-03T13:07:29.000Z</time>
      </trkpt>
      <trkpt lat="48.21771" lon="6.69333">
        <ele>541</ele>
        <time>2026-09-03T13:07:30.000Z</time>
      </trkpt>
      <trkpt lat="48.2177" lon="6.69334">
        <ele>541</ele>
        <time>2026-09-03T13:07:31.000Z</time>
      </trkpt>
      <trkpt lat="48.2177" lon="6.69334">
        <ele>541</ele>
        <time>2026-09-03T13:07:32.000Z</time>
      </trkpt>
      <trkpt lat="48.21769" lon="6.69335">
        <ele>541</ele>
        <time>2026-09-03T13:07:33.000Z</time>
      </trkpt>
      <trkpt lat="48.21768" lon="6.69335">
        <ele>541.19995117188</ele>
        <time>2026-09-03T13:07:34.000Z</time>
      </trkpt>
      <trkpt lat="48.21768" lon="6.69335">
        <ele>541.19995117188</ele>
        <time>2026-09-03T13:07:35.000Z</time>
      </trkpt>
      <trkpt lat="48.21767" lon="6.69335">
        <ele>541.40002441406</ele>
        <time>2026-09-03T13:07:36.000Z</time>
      </trkpt>
      <trkpt lat="48.21767" lon="6.69335">
        <ele>541.40002441406</ele>
        <time>2026-09-03T13:07:37.000Z</time>
      </trkpt>
      <trkpt lat="48.21767" lon="6.69335">
        <ele>541.40002441406</ele>
        <time>2026-09-03T13:07:38.000Z</time>
      </trkpt>
      <trkpt lat="48.21767" lon="6.69335">
        <ele>541.40002441406</ele>
        <time>2026-09-03T13:07:39.000Z</time>
      </trkpt>
      <trkpt lat="48.21767" lon="6.69335">
        <ele>541.40002441406</ele>
        <time>2026-09-03T13:07:40.000Z</time>
      </trkpt>
      <trkpt lat="48.21767" lon="6.69335">
        <ele>541.19995117188</ele>
        <time>2026-09-03T13:07:41.000Z</time>
      </trkpt>
      <trkpt lat="48.21767" lon="6.69335">
        <ele>541.19995117188</ele>
        <time>2026-09-03T13:07:42.000Z</time>
      </trkpt>
      <trkpt lat="48.21767" lon="6.69335">
        <ele>541.19995117188</ele>
        <time>2026-09-03T13:07:43.000Z</time>
      </trkpt>
      <trkpt lat="48.21767" lon="6.69335">
        <ele>541.19995117188</ele>
        <time>2026-09-03T13:07:44.000Z</time>
      </trkpt>
      <trkpt lat="48.21767" lon="6.69335">
        <ele>541.40002441406</ele>
        <time>2026-09-03T13:07:45.000Z</time>
      </trkpt>
      <trkpt lat="48.21767" lon="6.69335">
        <ele>541.40002441406</ele>
        <time>2026-09-03T13:07:46.000Z</time>
      </trkpt>
      <trkpt lat="48.21767" lon="6.69335">
        <ele>541.59997558594</ele>
        <time>2026-09-03T13:07:47.000Z</time>
      </trkpt>
      <trkpt lat="48.21767" lon="6.69335">
        <ele>541.59997558594</ele>
        <time>2026-09-03T13:07:48.000Z</time>
      </trkpt>
      <trkpt lat="48.21766" lon="6.69334">
        <ele>541.59997558594</ele>
        <time>2026-09-03T13:07:49.000Z</time>
      </trkpt>
      <trkpt lat="48.21767" lon="6.69332">
        <ele>541.40002441406</ele>
        <time>2026-09-03T13:07:50.000Z</time>
      </trkpt>
      <trkpt lat="48.21767" lon="6.69332">
        <ele>541.19995117188</ele>
        <time>2026-09-03T13:07:51.000Z</time>
      </trkpt>
      <trkpt lat="48.21768" lon="6.69331">
        <ele>541.19995117188</ele>
        <time>2026-09-03T13:07:52.000Z</time>
      </trkpt>
      <trkpt lat="48.21769" lon="6.6933">
        <ele>541.19995117188</ele>
        <time>2026-09-03T13:07:53.000Z</time>
      </trkpt>
      <trkpt lat="48.2177" lon="6.69328">
        <ele>541.19995117188</ele>
        <time>2026-09-03T13:07:54.000Z</time>
      </trkpt>
      <trkpt lat="48.2177" lon="6.69327">
        <ele>541.19995117188</ele>
        <time>2026-09-03T13:07:55.000Z</time>
      </trkpt>
      <trkpt lat="48.2177" lon="6.69326">
        <ele>541.19995117188</ele>
        <time>2026-09-03T13:07:56.000Z</time>
      </trkpt>
      <trkpt lat="48.2177" lon="6.69325">
        <ele>541</ele>
        <time>2026-09-03T13:07:57.000Z</time>
      </trkpt>
      <trkpt lat="48.2177" lon="6.69324">
        <ele>541</ele>
        <time>2026-09-03T13:07:58.000Z</time>
      </trkpt>
      <trkpt lat="48.21769" lon="6.69322">
        <ele>541</ele>
        <time>2026-09-03T13:07:59.000Z</time>
      </trkpt>
      <trkpt lat="48.21768" lon="6.69321">
        <ele>541</ele>
        <time>2026-09-03T13:08:00.000Z</time>
      </trkpt>
      <trkpt lat="48.21768" lon="6.6932">
        <ele>541</ele>
        <time>2026-09-03T13:08:01.000Z</time>
      </trkpt>
      <trkpt lat="48.21767" lon="6.69319">
        <ele>540.80004882812</ele>
        <time>2026-09-03T13:08:02.000Z</time>
      </trkpt>
      <trkpt lat="48.21767" lon="6.69318">
        <ele>540.80004882812</ele>
        <time>2026-09-03T13:08:03.000Z</time>
      </trkpt>
      <trkpt lat="48.21766" lon="6.69317">
        <ele>540.59997558594</ele>
        <time>2026-09-03T13:08:04.000Z</time>
      </trkpt>
      <trkpt lat="48.21766" lon="6.69316">
        <ele>540.59997558594</ele>
        <time>2026-09-03T13:08:05.000Z</time>
      </trkpt>
      <trkpt lat="48.21766" lon="6.69315">
        <ele>540.59997558594</ele>
        <time>2026-09-03T13:08:06.000Z</time>
      </trkpt>
      <trkpt lat="48.21765" lon="6.69314">
        <ele>540.59997558594</ele>
        <time>2026-09-03T13:08:07.000Z</time>
      </trkpt>
      <trkpt lat="48.21765" lon="6.69312">
        <ele>540.80004882812</ele>
        <time>2026-09-03T13:08:08.000Z</time>
      </trkpt>
      <trkpt lat="48.21764" lon="6.69311">
        <ele>540.80004882812</ele>
        <time>2026-09-03T13:08:09.000Z</time>
      </trkpt>
      <trkpt lat="48.21764" lon="6.6931">
        <ele>540.80004882812</ele>
        <time>2026-09-03T13:08:10.000Z</time>
      </trkpt>
      <trkpt lat="48.21764" lon="6.69308">
        <ele>540.80004882812</ele>
        <time>2026-09-03T13:08:11.000Z</time>
      </trkpt>
      <trkpt lat="48.21764" lon="6.69305">
        <ele>540.80004882812</ele>
        <time>2026-09-03T13:08:12.000Z</time>
      </trkpt>
      <trkpt lat="48.21764" lon="6.69303">
        <ele>540.59997558594</ele>
        <time>2026-09-03T13:08:13.000Z</time>
      </trkpt>
      <trkpt lat="48.21764" lon="6.69301">
        <ele>540.19995117188</ele>
        <time>2026-09-03T13:08:14.000Z</time>
      </trkpt>
      <trkpt lat="48.21763" lon="6.693">
        <ele>540.19995117188</ele>
        <time>2026-09-03T13:08:15.000Z</time>
      </trkpt>
      <trkpt lat="48.21764" lon="6.69298">
        <ele>540.19995117188</ele>
        <time>2026-09-03T13:08:16.000Z</time>
      </trkpt>
      <trkpt lat="48.21764" lon="6.69296">
        <ele>540.19995117188</ele>
        <time>2026-09-03T13:08:17.000Z</time>
      </trkpt>
      <trkpt lat="48.21763" lon="6.69295">
        <ele>540.40002441406</ele>
        <time>2026-09-03T13:08:18.000Z</time>
      </trkpt>
      <trkpt lat="48.21763" lon="6.69294">
        <ele>540.59997558594</ele>
        <time>2026-09-03T13:08:19.000Z</time>
      </trkpt>
      <trkpt lat="48.21762" lon="6.69292">
        <ele>540.80004882812</ele>
        <time>2026-09-03T13:08:20.000Z</time>
      </trkpt>
      <trkpt lat="48.21762" lon="6.69291">
        <ele>540.80004882812</ele>
        <time>2026-09-03T13:08:21.000Z</time>
      </trkpt>
      <trkpt lat="48.21761" lon="6.6929">
        <ele>540.80004882812</ele>
        <time>2026-09-03T13:08:22.000Z</time>
      </trkpt>
      <trkpt lat="48.21761" lon="6.69289">
        <ele>540.59997558594</ele>
        <time>2026-09-03T13:08:23.000Z</time>
      </trkpt>
      <trkpt lat="48.2176" lon="6.69288">
        <ele>540.59997558594</ele>
        <time>2026-09-03T13:08:24.000Z</time>
      </trkpt>
      <trkpt lat="48.21759" lon="6.69287">
        <ele>540.59997558594</ele>
        <time>2026-09-03T13:08:25.000Z</time>
      </trkpt>
      <trkpt lat="48.21758" lon="6.69286">
        <ele>540.80004882812</ele>
        <time>2026-09-03T13:08:26.000Z</time>
      </trkpt>
      <trkpt lat="48.21757" lon="6.69285">
        <ele>540.80004882812</ele>
        <time>2026-09-03T13:08:27.000Z</time>
      </trkpt>
      <trkpt lat="48.21756" lon="6.69284">
        <ele>540.80004882812</ele>
        <time>2026-09-03T13:08:28.000Z</time>
      </trkpt>
      <trkpt lat="48.21755" lon="6.69284">
        <ele>541</ele>
        <time>2026-09-03T13:08:29.000Z</time>
      </trkpt>
      <trkpt lat="48.21755" lon="6.69284">
        <ele>541</ele>
        <time>2026-09-03T13:08:30.000Z</time>
      </trkpt>
      <trkpt lat="48.21754" lon="6.69282">
        <ele>541.19995117188</ele>
        <time>2026-09-03T13:08:31.000Z</time>
      </trkpt>
      <trkpt lat="48.21753" lon="6.69282">
        <ele>541.19995117188</ele>
        <time>2026-09-03T13:08:32.000Z</time>
      </trkpt>
      <trkpt lat="48.21752" lon="6.6928">
        <ele>541.19995117188</ele>
        <time>2026-09-03T13:08:33.000Z</time>
      </trkpt>
      <trkpt lat="48.21751" lon="6.6928">
        <ele>541.19995117188</ele>
        <time>2026-09-03T13:08:34.000Z</time>
      </trkpt>
      <trkpt lat="48.21751" lon="6.6928">
        <ele>541.19995117188</ele>
        <time>2026-09-03T13:08:35.000Z</time>
      </trkpt>
      <trkpt lat="48.21751" lon="6.6928">
        <ele>541.19995117188</ele>
        <time>2026-09-03T13:08:36.000Z</time>
      </trkpt>
      <trkpt lat="48.2175" lon="6.6928">
        <ele>541.19995117188</ele>
        <time>2026-09-03T13:08:37.000Z</time>
      </trkpt>
      <trkpt lat="48.2175" lon="6.69279">
        <ele>541.19995117188</ele>
        <time>2026-09-03T13:08:38.000Z</time>
      </trkpt>
      <trkpt lat="48.21749" lon="6.69277">
        <ele>541.19995117188</ele>
        <time>2026-09-03T13:08:39.000Z</time>
      </trkpt>
      <trkpt lat="48.21749" lon="6.69276">
        <ele>541</ele>
        <time>2026-09-03T13:08:40.000Z</time>
      </trkpt>
      <trkpt lat="48.21748" lon="6.69274">
        <ele>541</ele>
        <time>2026-09-03T13:08:41.000Z</time>
      </trkpt>
      <trkpt lat="48.21747" lon="6.69274">
        <ele>541</ele>
        <time>2026-09-03T13:08:42.000Z</time>
      </trkpt>
      <trkpt lat="48.21747" lon="6.69274">
        <ele>541</ele>
        <time>2026-09-03T13:08:43.000Z</time>
      </trkpt>
      <trkpt lat="48.21746" lon="6.69274">
        <ele>541</ele>
        <time>2026-09-03T13:08:44.000Z</time>
      </trkpt>
      <trkpt lat="48.21746" lon="6.69273">
        <ele>541.19995117188</ele>
        <time>2026-09-03T13:08:45.000Z</time>
      </trkpt>
      <trkpt lat="48.21747" lon="6.69273">
        <ele>541.40002441406</ele>
        <time>2026-09-03T13:08:46.000Z</time>
      </trkpt>
      <trkpt lat="48.21747" lon="6.69274">
        <ele>541.40002441406</ele>
        <time>2026-09-03T13:08:47.000Z</time>
      </trkpt>
      <trkpt lat="48.21748" lon="6.69274">
        <ele>541.19995117188</ele>
        <time>2026-09-03T13:08:48.000Z</time>
      </trkpt>
      <trkpt lat="48.21749" lon="6.69276">
        <ele>541.19995117188</ele>
        <time>2026-09-03T13:08:49.000Z</time>
      </trkpt>
      <trkpt lat="48.21749" lon="6.69277">
        <ele>541.19995117188</ele>
        <time>2026-09-03T13:08:50.000Z</time>
      </trkpt>
      <trkpt lat="48.21749" lon="6.69279">
        <ele>541</ele>
        <time>2026-09-03T13:08:51.000Z</time>
      </trkpt>
      <trkpt lat="48.21749" lon="6.69281">
        <ele>541</ele>
        <time>2026-09-03T13:08:52.000Z</time>
      </trkpt>
      <trkpt lat="48.21748" lon="6.69282">
        <ele>541</ele>
        <time>2026-09-03T13:08:53.000Z</time>
      </trkpt>
      <trkpt lat="48.21748" lon="6.69283">
        <ele>541.19995117188</ele>
        <time>2026-09-03T13:08:54.000Z</time>
      </trkpt>
      <trkpt lat="48.21747" lon="6.69284">
        <ele>541.40002441406</ele>
        <time>2026-09-03T13:08:55.000Z</time>
      </trkpt>
      <trkpt lat="48.21747" lon="6.69285">
        <ele>541.40002441406</ele>
        <time>2026-09-03T13:08:56.000Z</time>
      </trkpt>
      <trkpt lat="48.21746" lon="6.69287">
        <ele>541.59997558594</ele>
        <time>2026-09-03T13:08:57.000Z</time>
      </trkpt>
      <trkpt lat="48.21745" lon="6.69288">
        <ele>541.59997558594</ele>
        <time>2026-09-03T13:08:58.000Z</time>
      </trkpt>
      <trkpt lat="48.21745" lon="6.69289">
        <ele>541.80004882812</ele>
        <time>2026-09-03T13:08:59.000Z</time>
      </trkpt>
      <trkpt lat="48.21744" lon="6.6929">
        <ele>541.80004882812</ele>
        <time>2026-09-03T13:09:00.000Z</time>
      </trkpt>
      <trkpt lat="48.21743" lon="6.69291">
        <ele>541.80004882812</ele>
        <time>2026-09-03T13:09:01.000Z</time>
      </trkpt>
      <trkpt lat="48.21742" lon="6.69292">
        <ele>541.80004882812</ele>
        <time>2026-09-03T13:09:02.000Z</time>
      </trkpt>
      <trkpt lat="48.21742" lon="6.69294">
        <ele>541.80004882812</ele>
        <time>2026-09-03T13:09:03.000Z</time>
      </trkpt>
      <trkpt lat="48.21741" lon="6.69295">
        <ele>541.80004882812</ele>
        <time>2026-09-03T13:09:04.000Z</time>
      </trkpt>
      <trkpt lat="48.21741" lon="6.69296">
        <ele>542</ele>
        <time>2026-09-03T13:09:05.000Z</time>
      </trkpt>
      <trkpt lat="48.21741" lon="6.69298">
        <ele>542.19995117188</ele>
        <time>2026-09-03T13:09:06.000Z</time>
      </trkpt>
      <trkpt lat="48.2174" lon="6.69299">
        <ele>542.40002441406</ele>
        <time>2026-09-03T13:09:07.000Z</time>
      </trkpt>
      <trkpt lat="48.21739" lon="6.69301">
        <ele>542.59997558594</ele>
        <time>2026-09-03T13:09:08.000Z</time>
      </trkpt>
      <trkpt lat="48.21738" lon="6.69303">
        <ele>542.59997558594</ele>
        <time>2026-09-03T13:09:09.000Z</time>
      </trkpt>
      <trkpt lat="48.21737" lon="6.69303">
        <ele>542.80004882812</ele>
        <time>2026-09-03T13:09:10.000Z</time>
      </trkpt>
      <trkpt lat="48.21736" lon="6.69303">
        <ele>542.80004882812</ele>
        <time>2026-09-03T13:09:11.000Z</time>
      </trkpt>
      <trkpt lat="48.21735" lon="6.69302">
        <ele>543</ele>
        <time>2026-09-03T13:09:12.000Z</time>
      </trkpt>
      <trkpt lat="48.21733" lon="6.69301">
        <ele>543</ele>
        <time>2026-09-03T13:09:13.000Z</time>
      </trkpt>
      <trkpt lat="48.21732" lon="6.693">
        <ele>543.19995117188</ele>
        <time>2026-09-03T13:09:14.000Z</time>
      </trkpt>
      <trkpt lat="48.21731" lon="6.69299">
        <ele>543.19995117188</ele>
        <time>2026-09-03T13:09:15.000Z</time>
      </trkpt>
      <trkpt lat="48.21731" lon="6.69298">
        <ele>543.19995117188</ele>
        <time>2026-09-03T13:09:16.000Z</time>
      </trkpt>
      <trkpt lat="48.2173" lon="6.69297">
        <ele>543.40002441406</ele>
        <time>2026-09-03T13:09:17.000Z</time>
      </trkpt>
      <trkpt lat="48.2173" lon="6.69297">
        <ele>543.40002441406</ele>
        <time>2026-09-03T13:09:18.000Z</time>
      </trkpt>
      <trkpt lat="48.21729" lon="6.69295">
        <ele>543.40002441406</ele>
        <time>2026-09-03T13:09:19.000Z</time>
      </trkpt>
      <trkpt lat="48.21728" lon="6.69294">
        <ele>543.40002441406</ele>
        <time>2026-09-03T13:09:20.000Z</time>
      </trkpt>
      <trkpt lat="48.21727" lon="6.69293">
        <ele>543.40002441406</ele>
        <time>2026-09-03T13:09:21.000Z</time>
      </trkpt>
      <trkpt lat="48.21727" lon="6.69291">
        <ele>543.40002441406</ele>
        <time>2026-09-03T13:09:22.000Z</time>
      </trkpt>
      <trkpt lat="48.21727" lon="6.6929">
        <ele>543.59997558594</ele>
        <time>2026-09-03T13:09:23.000Z</time>
      </trkpt>
      <trkpt lat="48.21725" lon="6.69288">
        <ele>543.59997558594</ele>
        <time>2026-09-03T13:09:24.000Z</time>
      </trkpt>
      <trkpt lat="48.21724" lon="6.69287">
        <ele>543.80004882812</ele>
        <time>2026-09-03T13:09:25.000Z</time>
      </trkpt>
      <trkpt lat="48.21723" lon="6.69285">
        <ele>543.80004882812</ele>
        <time>2026-09-03T13:09:26.000Z</time>
      </trkpt>
      <trkpt lat="48.21722" lon="6.69283">
        <ele>543.80004882812</ele>
        <time>2026-09-03T13:09:27.000Z</time>
      </trkpt>
      <trkpt lat="48.21722" lon="6.69282">
        <ele>543.80004882812</ele>
        <time>2026-09-03T13:09:28.000Z</time>
      </trkpt>
      <trkpt lat="48.21721" lon="6.69281">
        <ele>543.80004882812</ele>
        <time>2026-09-03T13:09:29.000Z</time>
      </trkpt>
      <trkpt lat="48.2172" lon="6.69279">
        <ele>543.80004882812</ele>
        <time>2026-09-03T13:09:30.000Z</time>
      </trkpt>
      <trkpt lat="48.2172" lon="6.69278">
        <ele>543.80004882812</ele>
        <time>2026-09-03T13:09:31.000Z</time>
      </trkpt>
      <trkpt lat="48.21718" lon="6.69276">
        <ele>543.80004882812</ele>
        <time>2026-09-03T13:09:32.000Z</time>
      </trkpt>
      <trkpt lat="48.21717" lon="6.69275">
        <ele>543.59997558594</ele>
        <time>2026-09-03T13:09:33.000Z</time>
      </trkpt>
      <trkpt lat="48.21717" lon="6.69273">
        <ele>543.80004882812</ele>
        <time>2026-09-03T13:09:34.000Z</time>
      </trkpt>
      <trkpt lat="48.21716" lon="6.69272">
        <ele>543.59997558594</ele>
        <time>2026-09-03T13:09:35.000Z</time>
      </trkpt>
      <trkpt lat="48.21716" lon="6.69271">
        <ele>543.80004882812</ele>
        <time>2026-09-03T13:09:36.000Z</time>
      </trkpt>
      <trkpt lat="48.21715" lon="6.6927">
        <ele>543.80004882812</ele>
        <time>2026-09-03T13:09:37.000Z</time>
      </trkpt>
      <trkpt lat="48.21714" lon="6.69268">
        <ele>544</ele>
        <time>2026-09-03T13:09:38.000Z</time>
      </trkpt>
      <trkpt lat="48.21713" lon="6.69267">
        <ele>544</ele>
        <time>2026-09-03T13:09:39.000Z</time>
      </trkpt>
      <trkpt lat="48.21712" lon="6.69266">
        <ele>544.19995117188</ele>
        <time>2026-09-03T13:09:40.000Z</time>
      </trkpt>
      <trkpt lat="48.21711" lon="6.69265">
        <ele>544.19995117188</ele>
        <time>2026-09-03T13:09:41.000Z</time>
      </trkpt>
      <trkpt lat="48.2171" lon="6.69264">
        <ele>544.19995117188</ele>
        <time>2026-09-03T13:09:42.000Z</time>
      </trkpt>
      <trkpt lat="48.21709" lon="6.69262">
        <ele>544.19995117188</ele>
        <time>2026-09-03T13:09:43.000Z</time>
      </trkpt>
      <trkpt lat="48.21709" lon="6.69261">
        <ele>544.19995117188</ele>
        <time>2026-09-03T13:09:44.000Z</time>
      </trkpt>
      <trkpt lat="48.21707" lon="6.6926">
        <ele>544.19995117188</ele>
        <time>2026-09-03T13:09:45.000Z</time>
      </trkpt>
      <trkpt lat="48.21707" lon="6.69259">
        <ele>544.19995117188</ele>
        <time>2026-09-03T13:09:46.000Z</time>
      </trkpt>
      <trkpt lat="48.21706" lon="6.69258">
        <ele>544.19995117188</ele>
        <time>2026-09-03T13:09:47.000Z</time>
      </trkpt>
      <trkpt lat="48.21705" lon="6.69257">
        <ele>544.19995117188</ele>
        <time>2026-09-03T13:09:48.000Z</time>
      </trkpt>
      <trkpt lat="48.21705" lon="6.69256">
        <ele>544.19995117188</ele>
        <time>2026-09-03T13:09:49.000Z</time>
      </trkpt>
      <trkpt lat="48.21704" lon="6.69254">
        <ele>544.40002441406</ele>
        <time>2026-09-03T13:09:50.000Z</time>
      </trkpt>
      <trkpt lat="48.21703" lon="6.69253">
        <ele>544.40002441406</ele>
        <time>2026-09-03T13:09:51.000Z</time>
      </trkpt>
      <trkpt lat="48.21702" lon="6.69251">
        <ele>544.40002441406</ele>
        <time>2026-09-03T13:09:52.000Z</time>
      </trkpt>
      <trkpt lat="48.21702" lon="6.6925">
        <ele>544.19995117188</ele>
        <time>2026-09-03T13:09:53.000Z</time>
      </trkpt>
      <trkpt lat="48.21701" lon="6.69249">
        <ele>544.19995117188</ele>
        <time>2026-09-03T13:09:54.000Z</time>
      </trkpt>
      <trkpt lat="48.217" lon="6.69248">
        <ele>544.19995117188</ele>
        <time>2026-09-03T13:09:55.000Z</time>
      </trkpt>
      <trkpt lat="48.217" lon="6.69247">
        <ele>544.19995117188</ele>
        <time>2026-09-03T13:09:56.000Z</time>
      </trkpt>
      <trkpt lat="48.21699" lon="6.69246">
        <ele>544.19995117188</ele>
        <time>2026-09-03T13:09:57.000Z</time>
      </trkpt>
      <trkpt lat="48.21699" lon="6.69245">
        <ele>544.19995117188</ele>
        <time>2026-09-03T13:09:58.000Z</time>
      </trkpt>
      <trkpt lat="48.21698" lon="6.69244">
        <ele>544</ele>
        <time>2026-09-03T13:09:59.000Z</time>
      </trkpt>
      <trkpt lat="48.21698" lon="6.69243">
        <ele>544</ele>
        <time>2026-09-03T13:10:00.000Z</time>
      </trkpt>
      <trkpt lat="48.21698" lon="6.69242">
        <ele>544</ele>
        <time>2026-09-03T13:10:01.000Z</time>
      </trkpt>
      <trkpt lat="48.21697" lon="6.6924">
        <ele>544</ele>
        <time>2026-09-03T13:10:02.000Z</time>
      </trkpt>
      <trkpt lat="48.21696" lon="6.69239">
        <ele>544</ele>
        <time>2026-09-03T13:10:03.000Z</time>
      </trkpt>
      <trkpt lat="48.21695" lon="6.69238">
        <ele>544</ele>
        <time>2026-09-03T13:10:04.000Z</time>
      </trkpt>
      <trkpt lat="48.21694" lon="6.69236">
        <ele>544</ele>
        <time>2026-09-03T13:10:05.000Z</time>
      </trkpt>
      <trkpt lat="48.21693" lon="6.69235">
        <ele>544.19995117188</ele>
        <time>2026-09-03T13:10:06.000Z</time>
      </trkpt>
      <trkpt lat="48.21692" lon="6.69233">
        <ele>544.19995117188</ele>
        <time>2026-09-03T13:10:07.000Z</time>
      </trkpt>
      <trkpt lat="48.21692" lon="6.69232">
        <ele>544.19995117188</ele>
        <time>2026-09-03T13:10:08.000Z</time>
      </trkpt>
      <trkpt lat="48.21692" lon="6.69231">
        <ele>544.19995117188</ele>
        <time>2026-09-03T13:10:09.000Z</time>
      </trkpt>
      <trkpt lat="48.21691" lon="6.69229">
        <ele>544.19995117188</ele>
        <time>2026-09-03T13:10:10.000Z</time>
      </trkpt>
      <trkpt lat="48.2169" lon="6.69228">
        <ele>544</ele>
        <time>2026-09-03T13:10:11.000Z</time>
      </trkpt>
      <trkpt lat="48.21689" lon="6.69227">
        <ele>544</ele>
        <time>2026-09-03T13:10:12.000Z</time>
      </trkpt>
      <trkpt lat="48.21689" lon="6.69226">
        <ele>544</ele>
        <time>2026-09-03T13:10:13.000Z</time>
      </trkpt>
      <trkpt lat="48.21688" lon="6.69225">
        <ele>544</ele>
        <time>2026-09-03T13:10:14.000Z</time>
      </trkpt>
      <trkpt lat="48.21687" lon="6.69223">
        <ele>544</ele>
        <time>2026-09-03T13:10:15.000Z</time>
      </trkpt>
      <trkpt lat="48.21686" lon="6.69222">
        <ele>544</ele>
        <time>2026-09-03T13:10:16.000Z</time>
      </trkpt>
      <trkpt lat="48.21685" lon="6.69221">
        <ele>544</ele>
        <time>2026-09-03T13:10:17.000Z</time>
      </trkpt>
      <trkpt lat="48.21684" lon="6.69219">
        <ele>544</ele>
        <time>2026-09-03T13:10:18.000Z</time>
      </trkpt>
      <trkpt lat="48.21683" lon="6.69218">
        <ele>544</ele>
        <time>2026-09-03T13:10:19.000Z</time>
      </trkpt>
      <trkpt lat="48.21683" lon="6.69217">
        <ele>544</ele>
        <time>2026-09-03T13:10:20.000Z</time>
      </trkpt>
      <trkpt lat="48.21682" lon="6.69216">
        <ele>544</ele>
        <time>2026-09-03T13:10:21.000Z</time>
      </trkpt>
      <trkpt lat="48.21681" lon="6.69215">
        <ele>544</ele>
        <time>2026-09-03T13:10:22.000Z</time>
      </trkpt>
      <trkpt lat="48.21681" lon="6.69214">
        <ele>544</ele>
        <time>2026-09-03T13:10:23.000Z</time>
      </trkpt>
      <trkpt lat="48.2168" lon="6.69212">
        <ele>544</ele>
        <time>2026-09-03T13:10:24.000Z</time>
      </trkpt>
      <trkpt lat="48.21679" lon="6.69211">
        <ele>544.19995117188</ele>
        <time>2026-09-03T13:10:25.000Z</time>
      </trkpt>
      <trkpt lat="48.21678" lon="6.6921">
        <ele>544.19995117188</ele>
        <time>2026-09-03T13:10:26.000Z</time>
      </trkpt>
      <trkpt lat="48.21677" lon="6.69209">
        <ele>544.19995117188</ele>
        <time>2026-09-03T13:10:27.000Z</time>
      </trkpt>
      <trkpt lat="48.21677" lon="6.69207">
        <ele>544.19995117188</ele>
        <time>2026-09-03T13:10:28.000Z</time>
      </trkpt>
      <trkpt lat="48.21676" lon="6.69206">
        <ele>544.19995117188</ele>
        <time>2026-09-03T13:10:29.000Z</time>
      </trkpt>
      <trkpt lat="48.21675" lon="6.69204">
        <ele>544.19995117188</ele>
        <time>2026-09-03T13:10:30.000Z</time>
      </trkpt>
      <trkpt lat="48.21674" lon="6.69202">
        <ele>544.19995117188</ele>
        <time>2026-09-03T13:10:31.000Z</time>
      </trkpt>
      <trkpt lat="48.21673" lon="6.69201">
        <ele>544.19995117188</ele>
        <time>2026-09-03T13:10:32.000Z</time>
      </trkpt>
      <trkpt lat="48.21672" lon="6.69199">
        <ele>544.19995117188</ele>
        <time>2026-09-03T13:10:33.000Z</time>
      </trkpt>
      <trkpt lat="48.21672" lon="6.69198">
        <ele>544.19995117188</ele>
        <time>2026-09-03T13:10:34.000Z</time>
      </trkpt>
      <trkpt lat="48.21671" lon="6.69197">
        <ele>544.19995117188</ele>
        <time>2026-09-03T13:10:35.000Z</time>
      </trkpt>
      <trkpt lat="48.21671" lon="6.69196">
        <ele>544.19995117188</ele>
        <time>2026-09-03T13:10:36.000Z</time>
      </trkpt>
      <trkpt lat="48.2167" lon="6.69194">
        <ele>544.19995117188</ele>
        <time>2026-09-03T13:10:37.000Z</time>
      </trkpt>
      <trkpt lat="48.21669" lon="6.69192">
        <ele>544.19995117188</ele>
        <time>2026-09-03T13:10:38.000Z</time>
      </trkpt>
      <trkpt lat="48.21668" lon="6.69191">
        <ele>544.19995117188</ele>
        <time>2026-09-03T13:10:39.000Z</time>
      </trkpt>
      <trkpt lat="48.21668" lon="6.6919">
        <ele>544.19995117188</ele>
        <time>2026-09-03T13:10:40.000Z</time>
      </trkpt>
      <trkpt lat="48.21667" lon="6.69189">
        <ele>544.19995117188</ele>
        <time>2026-09-03T13:10:41.000Z</time>
      </trkpt>
      <trkpt lat="48.21667" lon="6.69188">
        <ele>544.19995117188</ele>
        <time>2026-09-03T13:10:42.000Z</time>
      </trkpt>
      <trkpt lat="48.21667" lon="6.69188">
        <ele>544.19995117188</ele>
        <time>2026-09-03T13:10:43.000Z</time>
      </trkpt>
      <trkpt lat="48.21666" lon="6.69187">
        <ele>544.19995117188</ele>
        <time>2026-09-03T13:10:44.000Z</time>
      </trkpt>
      <trkpt lat="48.21666" lon="6.69186">
        <ele>544.19995117188</ele>
        <time>2026-09-03T13:10:45.000Z</time>
      </trkpt>
      <trkpt lat="48.21665" lon="6.69184">
        <ele>544.19995117188</ele>
        <time>2026-09-03T13:10:46.000Z</time>
      </trkpt>
      <trkpt lat="48.21664" lon="6.69183">
        <ele>544.19995117188</ele>
        <time>2026-09-03T13:10:47.000Z</time>
      </trkpt>
      <trkpt lat="48.21663" lon="6.69182">
        <ele>544.19995117188</ele>
        <time>2026-09-03T13:10:48.000Z</time>
      </trkpt>
      <trkpt lat="48.21663" lon="6.6918">
        <ele>544.19995117188</ele>
        <time>2026-09-03T13:10:49.000Z</time>
      </trkpt>
      <trkpt lat="48.21662" lon="6.69179">
        <ele>544.19995117188</ele>
        <time>2026-09-03T13:10:50.000Z</time>
      </trkpt>
      <trkpt lat="48.21661" lon="6.69177">
        <ele>544.40002441406</ele>
        <time>2026-09-03T13:10:51.000Z</time>
      </trkpt>
      <trkpt lat="48.2166" lon="6.69176">
        <ele>544.40002441406</ele>
        <time>2026-09-03T13:10:52.000Z</time>
      </trkpt>
      <trkpt lat="48.2166" lon="6.69174">
        <ele>544.40002441406</ele>
        <time>2026-09-03T13:10:53.000Z</time>
      </trkpt>
      <trkpt lat="48.21659" lon="6.69173">
        <ele>544.40002441406</ele>
        <time>2026-09-03T13:10:54.000Z</time>
      </trkpt>
      <trkpt lat="48.21658" lon="6.69172">
        <ele>544.40002441406</ele>
        <time>2026-09-03T13:10:55.000Z</time>
      </trkpt>
      <trkpt lat="48.21658" lon="6.6917">
        <ele>544.40002441406</ele>
        <time>2026-09-03T13:10:56.000Z</time>
      </trkpt>
      <trkpt lat="48.21657" lon="6.69169">
        <ele>544.19995117188</ele>
        <time>2026-09-03T13:10:57.000Z</time>
      </trkpt>
      <trkpt lat="48.21656" lon="6.69167">
        <ele>544.19995117188</ele>
        <time>2026-09-03T13:10:58.000Z</time>
      </trkpt>
      <trkpt lat="48.21656" lon="6.69166">
        <ele>544.19995117188</ele>
        <time>2026-09-03T13:10:59.000Z</time>
      </trkpt>
      <trkpt lat="48.21655" lon="6.69165">
        <ele>544.40002441406</ele>
        <time>2026-09-03T13:11:00.000Z</time>
      </trkpt>
      <trkpt lat="48.21654" lon="6.69163">
        <ele>544.40002441406</ele>
        <time>2026-09-03T13:11:01.000Z</time>
      </trkpt>
      <trkpt lat="48.21653" lon="6.69162">
        <ele>544.40002441406</ele>
        <time>2026-09-03T13:11:02.000Z</time>
      </trkpt>
      <trkpt lat="48.21652" lon="6.69161">
        <ele>544.40002441406</ele>
        <time>2026-09-03T13:11:03.000Z</time>
      </trkpt>
      <trkpt lat="48.21652" lon="6.6916">
        <ele>544.59997558594</ele>
        <time>2026-09-03T13:11:04.000Z</time>
      </trkpt>
      <trkpt lat="48.21651" lon="6.69158">
        <ele>544.59997558594</ele>
        <time>2026-09-03T13:11:05.000Z</time>
      </trkpt>
      <trkpt lat="48.2165" lon="6.69157">
        <ele>544.59997558594</ele>
        <time>2026-09-03T13:11:06.000Z</time>
      </trkpt>
      <trkpt lat="48.21649" lon="6.69156">
        <ele>544.59997558594</ele>
        <time>2026-09-03T13:11:07.000Z</time>
      </trkpt>
      <trkpt lat="48.21648" lon="6.69155">
        <ele>544.40002441406</ele>
        <time>2026-09-03T13:11:08.000Z</time>
      </trkpt>
      <trkpt lat="48.21648" lon="6.69154">
        <ele>544.40002441406</ele>
        <time>2026-09-03T13:11:09.000Z</time>
      </trkpt>
      <trkpt lat="48.21647" lon="6.69153">
        <ele>544.59997558594</ele>
        <time>2026-09-03T13:11:10.000Z</time>
      </trkpt>
      <trkpt lat="48.21647" lon="6.69153">
        <ele>544.59997558594</ele>
        <time>2026-09-03T13:11:11.000Z</time>
      </trkpt>
      <trkpt lat="48.21646" lon="6.69151">
        <ele>544.80004882812</ele>
        <time>2026-09-03T13:11:12.000Z</time>
      </trkpt>
      <trkpt lat="48.21645" lon="6.6915">
        <ele>545</ele>
        <time>2026-09-03T13:11:13.000Z</time>
      </trkpt>
      <trkpt lat="48.21645" lon="6.69149">
        <ele>545</ele>
        <time>2026-09-03T13:11:14.000Z</time>
      </trkpt>
      <trkpt lat="48.21644" lon="6.69147">
        <ele>545</ele>
        <time>2026-09-03T13:11:15.000Z</time>
      </trkpt>
      <trkpt lat="48.21643" lon="6.69145">
        <ele>545</ele>
        <time>2026-09-03T13:11:16.000Z</time>
      </trkpt>
      <trkpt lat="48.21642" lon="6.69144">
        <ele>545</ele>
        <time>2026-09-03T13:11:17.000Z</time>
      </trkpt>
      <trkpt lat="48.21642" lon="6.69142">
        <ele>545</ele>
        <time>2026-09-03T13:11:18.000Z</time>
      </trkpt>
      <trkpt lat="48.21641" lon="6.69141">
        <ele>545</ele>
        <time>2026-09-03T13:11:19.000Z</time>
      </trkpt>
      <trkpt lat="48.2164" lon="6.69139">
        <ele>545.19995117188</ele>
        <time>2026-09-03T13:11:20.000Z</time>
      </trkpt>
      <trkpt lat="48.21638" lon="6.69139">
        <ele>545.40002441406</ele>
        <time>2026-09-03T13:11:21.000Z</time>
      </trkpt>
      <trkpt lat="48.21637" lon="6.69138">
        <ele>545.40002441406</ele>
        <time>2026-09-03T13:11:22.000Z</time>
      </trkpt>
      <trkpt lat="48.21636" lon="6.69136">
        <ele>545.40002441406</ele>
        <time>2026-09-03T13:11:23.000Z</time>
      </trkpt>
      <trkpt lat="48.21636" lon="6.69135">
        <ele>545.59997558594</ele>
        <time>2026-09-03T13:11:24.000Z</time>
      </trkpt>
      <trkpt lat="48.21635" lon="6.69134">
        <ele>545.59997558594</ele>
        <time>2026-09-03T13:11:25.000Z</time>
      </trkpt>
      <trkpt lat="48.21634" lon="6.69132">
        <ele>545.59997558594</ele>
        <time>2026-09-03T13:11:26.000Z</time>
      </trkpt>
      <trkpt lat="48.21634" lon="6.69131">
        <ele>545.59997558594</ele>
        <time>2026-09-03T13:11:27.000Z</time>
      </trkpt>
      <trkpt lat="48.21633" lon="6.6913">
        <ele>545.80004882812</ele>
        <time>2026-09-03T13:11:28.000Z</time>
      </trkpt>
      <trkpt lat="48.21632" lon="6.69128">
        <ele>545.80004882812</ele>
        <time>2026-09-03T13:11:29.000Z</time>
      </trkpt>
      <trkpt lat="48.21632" lon="6.69127">
        <ele>545.80004882812</ele>
        <time>2026-09-03T13:11:30.000Z</time>
      </trkpt>
      <trkpt lat="48.21631" lon="6.69125">
        <ele>545.80004882812</ele>
        <time>2026-09-03T13:11:31.000Z</time>
      </trkpt>
      <trkpt lat="48.2163" lon="6.69124">
        <ele>546</ele>
        <time>2026-09-03T13:11:32.000Z</time>
      </trkpt>
      <trkpt lat="48.21629" lon="6.69123">
        <ele>546</ele>
        <time>2026-09-03T13:11:33.000Z</time>
      </trkpt>
      <trkpt lat="48.21629" lon="6.69122">
        <ele>546.19995117188</ele>
        <time>2026-09-03T13:11:34.000Z</time>
      </trkpt>
      <trkpt lat="48.21629" lon="6.6912">
        <ele>546.19995117188</ele>
        <time>2026-09-03T13:11:35.000Z</time>
      </trkpt>
      <trkpt lat="48.21628" lon="6.69119">
        <ele>546.40002441406</ele>
        <time>2026-09-03T13:11:36.000Z</time>
      </trkpt>
      <trkpt lat="48.21627" lon="6.69117">
        <ele>546.40002441406</ele>
        <time>2026-09-03T13:11:37.000Z</time>
      </trkpt>
      <trkpt lat="48.21626" lon="6.69116">
        <ele>546.40002441406</ele>
        <time>2026-09-03T13:11:38.000Z</time>
      </trkpt>
      <trkpt lat="48.21625" lon="6.69115">
        <ele>546.59997558594</ele>
        <time>2026-09-03T13:11:39.000Z</time>
      </trkpt>
      <trkpt lat="48.21625" lon="6.69114">
        <ele>546.80004882812</ele>
        <time>2026-09-03T13:11:40.000Z</time>
      </trkpt>
      <trkpt lat="48.21624" lon="6.69113">
        <ele>546.80004882812</ele>
        <time>2026-09-03T13:11:41.000Z</time>
      </trkpt>
      <trkpt lat="48.21623" lon="6.69111">
        <ele>547</ele>
        <time>2026-09-03T13:11:42.000Z</time>
      </trkpt>
      <trkpt lat="48.21622" lon="6.69111">
        <ele>547</ele>
        <time>2026-09-03T13:11:43.000Z</time>
      </trkpt>
      <trkpt lat="48.21621" lon="6.69109">
        <ele>547.19995117188</ele>
        <time>2026-09-03T13:11:44.000Z</time>
      </trkpt>
      <trkpt lat="48.21621" lon="6.69108">
        <ele>547.40002441406</ele>
        <time>2026-09-03T13:11:45.000Z</time>
      </trkpt>
      <trkpt lat="48.2162" lon="6.69107">
        <ele>547.40002441406</ele>
        <time>2026-09-03T13:11:46.000Z</time>
      </trkpt>
      <trkpt lat="48.21619" lon="6.69106">
        <ele>547.40002441406</ele>
        <time>2026-09-03T13:11:47.000Z</time>
      </trkpt>
      <trkpt lat="48.21619" lon="6.69104">
        <ele>547.59997558594</ele>
        <time>2026-09-03T13:11:48.000Z</time>
      </trkpt>
      <trkpt lat="48.21617" lon="6.69103">
        <ele>547.59997558594</ele>
        <time>2026-09-03T13:11:49.000Z</time>
      </trkpt>
      <trkpt lat="48.21616" lon="6.69101">
        <ele>547.59997558594</ele>
        <time>2026-09-03T13:11:50.000Z</time>
      </trkpt>
      <trkpt lat="48.21615" lon="6.691">
        <ele>547.80004882812</ele>
        <time>2026-09-03T13:11:51.000Z</time>
      </trkpt>
      <trkpt lat="48.21615" lon="6.69099">
        <ele>547.80004882812</ele>
        <time>2026-09-03T13:11:52.000Z</time>
      </trkpt>
      <trkpt lat="48.21614" lon="6.69098">
        <ele>547.80004882812</ele>
        <time>2026-09-03T13:11:53.000Z</time>
      </trkpt>
      <trkpt lat="48.21613" lon="6.69096">
        <ele>547.80004882812</ele>
        <time>2026-09-03T13:11:54.000Z</time>
      </trkpt>
      <trkpt lat="48.21612" lon="6.69095">
        <ele>548</ele>
        <time>2026-09-03T13:11:55.000Z</time>
      </trkpt>
      <trkpt lat="48.2161" lon="6.69093">
        <ele>548</ele>
        <time>2026-09-03T13:11:56.000Z</time>
      </trkpt>
      <trkpt lat="48.21609" lon="6.69092">
        <ele>548.19995117188</ele>
        <time>2026-09-03T13:11:57.000Z</time>
      </trkpt>
      <trkpt lat="48.21608" lon="6.69091">
        <ele>548.40002441406</ele>
        <time>2026-09-03T13:11:58.000Z</time>
      </trkpt>
      <trkpt lat="48.21607" lon="6.69089">
        <ele>548.59997558594</ele>
        <time>2026-09-03T13:11:59.000Z</time>
      </trkpt>
      <trkpt lat="48.21607" lon="6.69088">
        <ele>548.80004882812</ele>
        <time>2026-09-03T13:12:00.000Z</time>
      </trkpt>
      <trkpt lat="48.21606" lon="6.69086">
        <ele>548.80004882812</ele>
        <time>2026-09-03T13:12:01.000Z</time>
      </trkpt>
      <trkpt lat="48.21604" lon="6.69085">
        <ele>548.80004882812</ele>
        <time>2026-09-03T13:12:02.000Z</time>
      </trkpt>
      <trkpt lat="48.21604" lon="6.69084">
        <ele>548.80004882812</ele>
        <time>2026-09-03T13:12:03.000Z</time>
      </trkpt>
      <trkpt lat="48.21603" lon="6.69082">
        <ele>548.80004882812</ele>
        <time>2026-09-03T13:12:04.000Z</time>
      </trkpt>
      <trkpt lat="48.21602" lon="6.69081">
        <ele>548.80004882812</ele>
        <time>2026-09-03T13:12:05.000Z</time>
      </trkpt>
      <trkpt lat="48.21602" lon="6.6908">
        <ele>548.80004882812</ele>
        <time>2026-09-03T13:12:06.000Z</time>
      </trkpt>
      <trkpt lat="48.21602" lon="6.6908">
        <ele>548.80004882812</ele>
        <time>2026-09-03T13:12:07.000Z</time>
      </trkpt>
      <trkpt lat="48.216" lon="6.69078">
        <ele>548.80004882812</ele>
        <time>2026-09-03T13:12:08.000Z</time>
      </trkpt>
      <trkpt lat="48.21599" lon="6.69077">
        <ele>549</ele>
        <time>2026-09-03T13:12:09.000Z</time>
      </trkpt>
      <trkpt lat="48.21599" lon="6.69076">
        <ele>549</ele>
        <time>2026-09-03T13:12:10.000Z</time>
      </trkpt>
      <trkpt lat="48.21598" lon="6.69075">
        <ele>549</ele>
        <time>2026-09-03T13:12:11.000Z</time>
      </trkpt>
      <trkpt lat="48.21597" lon="6.69073">
        <ele>549</ele>
        <time>2026-09-03T13:12:12.000Z</time>
      </trkpt>
      <trkpt lat="48.21596" lon="6.69072">
        <ele>549</ele>
        <time>2026-09-03T13:12:13.000Z</time>
      </trkpt>
      <trkpt lat="48.21595" lon="6.69071">
        <ele>549.19995117188</ele>
        <time>2026-09-03T13:12:14.000Z</time>
      </trkpt>
      <trkpt lat="48.21594" lon="6.69069">
        <ele>549.19995117188</ele>
        <time>2026-09-03T13:12:15.000Z</time>
      </trkpt>
      <trkpt lat="48.21594" lon="6.69068">
        <ele>549.40002441406</ele>
        <time>2026-09-03T13:12:16.000Z</time>
      </trkpt>
      <trkpt lat="48.21593" lon="6.69066">
        <ele>549.40002441406</ele>
        <time>2026-09-03T13:12:17.000Z</time>
      </trkpt>
      <trkpt lat="48.21593" lon="6.69065">
        <ele>549.59997558594</ele>
        <time>2026-09-03T13:12:18.000Z</time>
      </trkpt>
      <trkpt lat="48.21592" lon="6.69064">
        <ele>549.59997558594</ele>
        <time>2026-09-03T13:12:19.000Z</time>
      </trkpt>
      <trkpt lat="48.21592" lon="6.69063">
        <ele>549.80004882812</ele>
        <time>2026-09-03T13:12:20.000Z</time>
      </trkpt>
      <trkpt lat="48.21591" lon="6.69061">
        <ele>550</ele>
        <time>2026-09-03T13:12:21.000Z</time>
      </trkpt>
      <trkpt lat="48.2159" lon="6.6906">
        <ele>550</ele>
        <time>2026-09-03T13:12:22.000Z</time>
      </trkpt>
      <trkpt lat="48.2159" lon="6.69059">
        <ele>550.19995117188</ele>
        <time>2026-09-03T13:12:23.000Z</time>
      </trkpt>
      <trkpt lat="48.21589" lon="6.69058">
        <ele>550.40002441406</ele>
        <time>2026-09-03T13:12:24.000Z</time>
      </trkpt>
      <trkpt lat="48.21588" lon="6.69056">
        <ele>550.59997558594</ele>
        <time>2026-09-03T13:12:25.000Z</time>
      </trkpt>
      <trkpt lat="48.21586" lon="6.69056">
        <ele>550.59997558594</ele>
        <time>2026-09-03T13:12:26.000Z</time>
      </trkpt>
      <trkpt lat="48.21586" lon="6.69055">
        <ele>550.80004882812</ele>
        <time>2026-09-03T13:12:27.000Z</time>
      </trkpt>
      <trkpt lat="48.21585" lon="6.69054">
        <ele>550.80004882812</ele>
        <time>2026-09-03T13:12:28.000Z</time>
      </trkpt>
      <trkpt lat="48.21585" lon="6.69053">
        <ele>551</ele>
        <time>2026-09-03T13:12:29.000Z</time>
      </trkpt>
      <trkpt lat="48.21585" lon="6.69052">
        <ele>551</ele>
        <time>2026-09-03T13:12:30.000Z</time>
      </trkpt>
      <trkpt lat="48.21584" lon="6.69051">
        <ele>551.19995117188</ele>
        <time>2026-09-03T13:12:31.000Z</time>
      </trkpt>
      <trkpt lat="48.21583" lon="6.69049">
        <ele>551.19995117188</ele>
        <time>2026-09-03T13:12:32.000Z</time>
      </trkpt>
      <trkpt lat="48.21582" lon="6.69048">
        <ele>551.40002441406</ele>
        <time>2026-09-03T13:12:33.000Z</time>
      </trkpt>
      <trkpt lat="48.21581" lon="6.69046">
        <ele>551.59997558594</ele>
        <time>2026-09-03T13:12:34.000Z</time>
      </trkpt>
      <trkpt lat="48.21581" lon="6.69045">
        <ele>551.80004882812</ele>
        <time>2026-09-03T13:12:35.000Z</time>
      </trkpt>
      <trkpt lat="48.2158" lon="6.69044">
        <ele>551.80004882812</ele>
        <time>2026-09-03T13:12:36.000Z</time>
      </trkpt>
      <trkpt lat="48.21579" lon="6.69043">
        <ele>552</ele>
        <time>2026-09-03T13:12:37.000Z</time>
      </trkpt>
      <trkpt lat="48.21578" lon="6.69042">
        <ele>552.19995117188</ele>
        <time>2026-09-03T13:12:38.000Z</time>
      </trkpt>
      <trkpt lat="48.21577" lon="6.69041">
        <ele>552.19995117188</ele>
        <time>2026-09-03T13:12:39.000Z</time>
      </trkpt>
      <trkpt lat="48.21576" lon="6.6904">
        <ele>552.40002441406</ele>
        <time>2026-09-03T13:12:40.000Z</time>
      </trkpt>
      <trkpt lat="48.21576" lon="6.6904">
        <ele>552.40002441406</ele>
        <time>2026-09-03T13:12:41.000Z</time>
      </trkpt>
      <trkpt lat="48.21575" lon="6.69039">
        <ele>552.40002441406</ele>
        <time>2026-09-03T13:12:42.000Z</time>
      </trkpt>
      <trkpt lat="48.21573" lon="6.69037">
        <ele>552.59997558594</ele>
        <time>2026-09-03T13:12:43.000Z</time>
      </trkpt>
      <trkpt lat="48.21572" lon="6.69037">
        <ele>552.59997558594</ele>
        <time>2026-09-03T13:12:44.000Z</time>
      </trkpt>
      <trkpt lat="48.21571" lon="6.69036">
        <ele>552.80004882812</ele>
        <time>2026-09-03T13:12:45.000Z</time>
      </trkpt>
      <trkpt lat="48.2157" lon="6.69035">
        <ele>553</ele>
        <time>2026-09-03T13:12:46.000Z</time>
      </trkpt>
      <trkpt lat="48.21569" lon="6.69035">
        <ele>553</ele>
        <time>2026-09-03T13:12:47.000Z</time>
      </trkpt>
      <trkpt lat="48.21568" lon="6.69034">
        <ele>553.19995117188</ele>
        <time>2026-09-03T13:12:48.000Z</time>
      </trkpt>
      <trkpt lat="48.21567" lon="6.69033">
        <ele>553.19995117188</ele>
        <time>2026-09-03T13:12:49.000Z</time>
      </trkpt>
      <trkpt lat="48.21566" lon="6.69032">
        <ele>553.40002441406</ele>
        <time>2026-09-03T13:12:50.000Z</time>
      </trkpt>
      <trkpt lat="48.21565" lon="6.69031">
        <ele>553.40002441406</ele>
        <time>2026-09-03T13:12:51.000Z</time>
      </trkpt>
      <trkpt lat="48.21565" lon="6.6903">
        <ele>553.59997558594</ele>
        <time>2026-09-03T13:12:52.000Z</time>
      </trkpt>
      <trkpt lat="48.21565" lon="6.69029">
        <ele>553.59997558594</ele>
        <time>2026-09-03T13:12:53.000Z</time>
      </trkpt>
      <trkpt lat="48.21566" lon="6.69027">
        <ele>553.59997558594</ele>
        <time>2026-09-03T13:12:54.000Z</time>
      </trkpt>
      <trkpt lat="48.21566" lon="6.69027">
        <ele>553.59997558594</ele>
        <time>2026-09-03T13:12:55.000Z</time>
      </trkpt>
      <trkpt lat="48.21566" lon="6.69027">
        <ele>553.40002441406</ele>
        <time>2026-09-03T13:12:56.000Z</time>
      </trkpt>
      <trkpt lat="48.21565" lon="6.69027">
        <ele>553.19995117188</ele>
        <time>2026-09-03T13:12:57.000Z</time>
      </trkpt>
      <trkpt lat="48.21565" lon="6.69026">
        <ele>553</ele>
        <time>2026-09-03T13:12:58.000Z</time>
      </trkpt>
      <trkpt lat="48.21565" lon="6.69025">
        <ele>552.80004882812</ele>
        <time>2026-09-03T13:12:59.000Z</time>
      </trkpt>
      <trkpt lat="48.21565" lon="6.69025">
        <ele>552.59997558594</ele>
        <time>2026-09-03T13:13:00.000Z</time>
      </trkpt>
      <trkpt lat="48.21564" lon="6.69023">
        <ele>552.40002441406</ele>
        <time>2026-09-03T13:13:01.000Z</time>
      </trkpt>
      <trkpt lat="48.21563" lon="6.69022">
        <ele>552.19995117188</ele>
        <time>2026-09-03T13:13:02.000Z</time>
      </trkpt>
      <trkpt lat="48.21563" lon="6.69021">
        <ele>552.40002441406</ele>
        <time>2026-09-03T13:13:03.000Z</time>
      </trkpt>
      <trkpt lat="48.21563" lon="6.69019">
        <ele>552.40002441406</ele>
        <time>2026-09-03T13:13:04.000Z</time>
      </trkpt>
      <trkpt lat="48.21562" lon="6.69017">
        <ele>552.19995117188</ele>
        <time>2026-09-03T13:13:05.000Z</time>
      </trkpt>
      <trkpt lat="48.21562" lon="6.69015">
        <ele>552.19995117188</ele>
        <time>2026-09-03T13:13:06.000Z</time>
      </trkpt>
      <trkpt lat="48.21562" lon="6.69013">
        <ele>552.19995117188</ele>
        <time>2026-09-03T13:13:07.000Z</time>
      </trkpt>
      <trkpt lat="48.21562" lon="6.69011">
        <ele>552</ele>
        <time>2026-09-03T13:13:08.000Z</time>
      </trkpt>
      <trkpt lat="48.21562" lon="6.69009">
        <ele>552</ele>
        <time>2026-09-03T13:13:09.000Z</time>
      </trkpt>
      <trkpt lat="48.21562" lon="6.69008">
        <ele>552</ele>
        <time>2026-09-03T13:13:10.000Z</time>
      </trkpt>
      <trkpt lat="48.21562" lon="6.69007">
        <ele>551.80004882812</ele>
        <time>2026-09-03T13:13:11.000Z</time>
      </trkpt>
      <trkpt lat="48.21562" lon="6.69005">
        <ele>551.80004882812</ele>
        <time>2026-09-03T13:13:12.000Z</time>
      </trkpt>
      <trkpt lat="48.21562" lon="6.69004">
        <ele>551.80004882812</ele>
        <time>2026-09-03T13:13:13.000Z</time>
      </trkpt>
      <trkpt lat="48.21561" lon="6.69003">
        <ele>551.80004882812</ele>
        <time>2026-09-03T13:13:14.000Z</time>
      </trkpt>
      <trkpt lat="48.21561" lon="6.69001">
        <ele>551.80004882812</ele>
        <time>2026-09-03T13:13:15.000Z</time>
      </trkpt>
      <trkpt lat="48.21561" lon="6.69">
        <ele>551.59997558594</ele>
        <time>2026-09-03T13:13:16.000Z</time>
      </trkpt>
      <trkpt lat="48.21562" lon="6.68999">
        <ele>551.59997558594</ele>
        <time>2026-09-03T13:13:17.000Z</time>
      </trkpt>
      <trkpt lat="48.21562" lon="6.68997">
        <ele>551.40002441406</ele>
        <time>2026-09-03T13:13:18.000Z</time>
      </trkpt>
      <trkpt lat="48.21562" lon="6.68996">
        <ele>551.40002441406</ele>
        <time>2026-09-03T13:13:19.000Z</time>
      </trkpt>
      <trkpt lat="48.21562" lon="6.68994">
        <ele>551.19995117188</ele>
        <time>2026-09-03T13:13:20.000Z</time>
      </trkpt>
      <trkpt lat="48.21562" lon="6.68992">
        <ele>551.19995117188</ele>
        <time>2026-09-03T13:13:21.000Z</time>
      </trkpt>
      <trkpt lat="48.21562" lon="6.68989">
        <ele>551.19995117188</ele>
        <time>2026-09-03T13:13:22.000Z</time>
      </trkpt>
      <trkpt lat="48.21562" lon="6.68988">
        <ele>551.19995117188</ele>
        <time>2026-09-03T13:13:23.000Z</time>
      </trkpt>
      <trkpt lat="48.21562" lon="6.68987">
        <ele>551.19995117188</ele>
        <time>2026-09-03T13:13:24.000Z</time>
      </trkpt>
      <trkpt lat="48.21561" lon="6.68985">
        <ele>551.19995117188</ele>
        <time>2026-09-03T13:13:25.000Z</time>
      </trkpt>
      <trkpt lat="48.21561" lon="6.68984">
        <ele>551.19995117188</ele>
        <time>2026-09-03T13:13:26.000Z</time>
      </trkpt>
      <trkpt lat="48.21561" lon="6.68982">
        <ele>551.19995117188</ele>
        <time>2026-09-03T13:13:27.000Z</time>
      </trkpt>
      <trkpt lat="48.2156" lon="6.68981">
        <ele>551.19995117188</ele>
        <time>2026-09-03T13:13:28.000Z</time>
      </trkpt>
      <trkpt lat="48.2156" lon="6.68979">
        <ele>551</ele>
        <time>2026-09-03T13:13:29.000Z</time>
      </trkpt>
      <trkpt lat="48.2156" lon="6.68977">
        <ele>551</ele>
        <time>2026-09-03T13:13:30.000Z</time>
      </trkpt>
      <trkpt lat="48.2156" lon="6.68976">
        <ele>551</ele>
        <time>2026-09-03T13:13:31.000Z</time>
      </trkpt>
      <trkpt lat="48.2156" lon="6.68975">
        <ele>551</ele>
        <time>2026-09-03T13:13:32.000Z</time>
      </trkpt>
      <trkpt lat="48.2156" lon="6.68973">
        <ele>551.19995117188</ele>
        <time>2026-09-03T13:13:33.000Z</time>
      </trkpt>
      <trkpt lat="48.2156" lon="6.68971">
        <ele>551.19995117188</ele>
        <time>2026-09-03T13:13:34.000Z</time>
      </trkpt>
      <trkpt lat="48.2156" lon="6.68968">
        <ele>551.19995117188</ele>
        <time>2026-09-03T13:13:35.000Z</time>
      </trkpt>
      <trkpt lat="48.2156" lon="6.68967">
        <ele>551</ele>
        <time>2026-09-03T13:13:36.000Z</time>
      </trkpt>
      <trkpt lat="48.2156" lon="6.68965">
        <ele>551</ele>
        <time>2026-09-03T13:13:37.000Z</time>
      </trkpt>
      <trkpt lat="48.2156" lon="6.68962">
        <ele>551.19995117188</ele>
        <time>2026-09-03T13:13:38.000Z</time>
      </trkpt>
      <trkpt lat="48.2156" lon="6.6896">
        <ele>551.19995117188</ele>
        <time>2026-09-03T13:13:39.000Z</time>
      </trkpt>
      <trkpt lat="48.2156" lon="6.68958">
        <ele>551.40002441406</ele>
        <time>2026-09-03T13:13:40.000Z</time>
      </trkpt>
      <trkpt lat="48.2156" lon="6.68957">
        <ele>551.59997558594</ele>
        <time>2026-09-03T13:13:41.000Z</time>
      </trkpt>
      <trkpt lat="48.2156" lon="6.68956">
        <ele>551.59997558594</ele>
        <time>2026-09-03T13:13:42.000Z</time>
      </trkpt>
      <trkpt lat="48.2156" lon="6.68955">
        <ele>551.59997558594</ele>
        <time>2026-09-03T13:13:43.000Z</time>
      </trkpt>
      <trkpt lat="48.2156" lon="6.68953">
        <ele>551.59997558594</ele>
        <time>2026-09-03T13:13:44.000Z</time>
      </trkpt>
      <trkpt lat="48.2156" lon="6.68952">
        <ele>551.59997558594</ele>
        <time>2026-09-03T13:13:45.000Z</time>
      </trkpt>
      <trkpt lat="48.2156" lon="6.6895">
        <ele>551.59997558594</ele>
        <time>2026-09-03T13:13:46.000Z</time>
      </trkpt>
      <trkpt lat="48.2156" lon="6.68949">
        <ele>551.40002441406</ele>
        <time>2026-09-03T13:13:47.000Z</time>
      </trkpt>
      <trkpt lat="48.2156" lon="6.68947">
        <ele>551.40002441406</ele>
        <time>2026-09-03T13:13:48.000Z</time>
      </trkpt>
      <trkpt lat="48.2156" lon="6.68946">
        <ele>551.40002441406</ele>
        <time>2026-09-03T13:13:49.000Z</time>
      </trkpt>
      <trkpt lat="48.21561" lon="6.68944">
        <ele>551.19995117188</ele>
        <time>2026-09-03T13:13:50.000Z</time>
      </trkpt>
      <trkpt lat="48.21562" lon="6.68943">
        <ele>551.19995117188</ele>
        <time>2026-09-03T13:13:51.000Z</time>
      </trkpt>
      <trkpt lat="48.21563" lon="6.68941">
        <ele>551</ele>
        <time>2026-09-03T13:13:52.000Z</time>
      </trkpt>
      <trkpt lat="48.21563" lon="6.6894">
        <ele>550.80004882812</ele>
        <time>2026-09-03T13:13:53.000Z</time>
      </trkpt>
      <trkpt lat="48.21564" lon="6.6894">
        <ele>550.59997558594</ele>
        <time>2026-09-03T13:13:54.000Z</time>
      </trkpt>
      <trkpt lat="48.21565" lon="6.68939">
        <ele>550.59997558594</ele>
        <time>2026-09-03T13:13:55.000Z</time>
      </trkpt>
      <trkpt lat="48.21566" lon="6.68938">
        <ele>550.40002441406</ele>
        <time>2026-09-03T13:13:56.000Z</time>
      </trkpt>
      <trkpt lat="48.21567" lon="6.68937">
        <ele>550.40002441406</ele>
        <time>2026-09-03T13:13:57.000Z</time>
      </trkpt>
      <trkpt lat="48.21568" lon="6.68936">
        <ele>550.19995117188</ele>
        <time>2026-09-03T13:13:58.000Z</time>
      </trkpt>
      <trkpt lat="48.21569" lon="6.68935">
        <ele>550.19995117188</ele>
        <time>2026-09-03T13:13:59.000Z</time>
      </trkpt>
      <trkpt lat="48.2157" lon="6.68934">
        <ele>550</ele>
        <time>2026-09-03T13:14:00.000Z</time>
      </trkpt>
      <trkpt lat="48.21571" lon="6.68933">
        <ele>549.80004882812</ele>
        <time>2026-09-03T13:14:01.000Z</time>
      </trkpt>
      <trkpt lat="48.21572" lon="6.68932">
        <ele>549.59997558594</ele>
        <time>2026-09-03T13:14:02.000Z</time>
      </trkpt>
      <trkpt lat="48.21574" lon="6.68931">
        <ele>549.59997558594</ele>
        <time>2026-09-03T13:14:03.000Z</time>
      </trkpt>
      <trkpt lat="48.21574" lon="6.68932">
        <ele>549.40002441406</ele>
        <time>2026-09-03T13:14:04.000Z</time>
      </trkpt>
      <trkpt lat="48.21574" lon="6.68931">
        <ele>549.40002441406</ele>
        <time>2026-09-03T13:14:05.000Z</time>
      </trkpt>
      <trkpt lat="48.21575" lon="6.6893">
        <ele>549.19995117188</ele>
        <time>2026-09-03T13:14:06.000Z</time>
      </trkpt>
      <trkpt lat="48.21575" lon="6.6893">
        <ele>549.19995117188</ele>
        <time>2026-09-03T13:14:07.000Z</time>
      </trkpt>
      <trkpt lat="48.21575" lon="6.6893">
        <ele>549.19995117188</ele>
        <time>2026-09-03T13:14:08.000Z</time>
      </trkpt>
      <trkpt lat="48.21575" lon="6.6893">
        <ele>549.19995117188</ele>
        <time>2026-09-03T13:14:09.000Z</time>
      </trkpt>
      <trkpt lat="48.21575" lon="6.6893">
        <ele>549.19995117188</ele>
        <time>2026-09-03T13:14:10.000Z</time>
      </trkpt>
      <trkpt lat="48.21575" lon="6.6893">
        <ele>549</ele>
        <time>2026-09-03T13:14:11.000Z</time>
      </trkpt>
      <trkpt lat="48.21575" lon="6.6893">
        <ele>549</ele>
        <time>2026-09-03T13:14:12.000Z</time>
      </trkpt>
      <trkpt lat="48.21575" lon="6.6893">
        <ele>549</ele>
        <time>2026-09-03T13:14:13.000Z</time>
      </trkpt>
      <trkpt lat="48.21575" lon="6.6893">
        <ele>549</ele>
        <time>2026-09-03T13:14:14.000Z</time>
      </trkpt>
      <trkpt lat="48.21575" lon="6.6893">
        <ele>549</ele>
        <time>2026-09-03T13:14:15.000Z</time>
      </trkpt>
      <trkpt lat="48.21575" lon="6.68931">
        <ele>549.19995117188</ele>
        <time>2026-09-03T13:14:16.000Z</time>
      </trkpt>
      <trkpt lat="48.21575" lon="6.6893">
        <ele>549.19995117188</ele>
        <time>2026-09-03T13:14:17.000Z</time>
      </trkpt>
      <trkpt lat="48.21577" lon="6.68929">
        <ele>549.19995117188</ele>
        <time>2026-09-03T13:14:18.000Z</time>
      </trkpt>
      <trkpt lat="48.21577" lon="6.68928">
        <ele>549.19995117188</ele>
        <time>2026-09-03T13:14:19.000Z</time>
      </trkpt>
      <trkpt lat="48.21578" lon="6.68928">
        <ele>549.19995117188</ele>
        <time>2026-09-03T13:14:20.000Z</time>
      </trkpt>
      <trkpt lat="48.21579" lon="6.68927">
        <ele>549.40002441406</ele>
        <time>2026-09-03T13:14:21.000Z</time>
      </trkpt>
      <trkpt lat="48.2158" lon="6.68927">
        <ele>549.40002441406</ele>
        <time>2026-09-03T13:14:22.000Z</time>
      </trkpt>
      <trkpt lat="48.21581" lon="6.68926">
        <ele>549.40002441406</ele>
        <time>2026-09-03T13:14:23.000Z</time>
      </trkpt>
      <trkpt lat="48.21581" lon="6.68925">
        <ele>549.19995117188</ele>
        <time>2026-09-03T13:14:24.000Z</time>
      </trkpt>
      <trkpt lat="48.21582" lon="6.68926">
        <ele>549.19995117188</ele>
        <time>2026-09-03T13:14:25.000Z</time>
      </trkpt>
      <trkpt lat="48.21582" lon="6.68927">
        <ele>549</ele>
        <time>2026-09-03T13:14:26.000Z</time>
      </trkpt>
      <trkpt lat="48.21582" lon="6.68927">
        <ele>549</ele>
        <time>2026-09-03T13:14:27.000Z</time>
      </trkpt>
      <trkpt lat="48.21582" lon="6.68927">
        <ele>549</ele>
        <time>2026-09-03T13:14:28.000Z</time>
      </trkpt>
      <trkpt lat="48.21582" lon="6.68927">
        <ele>548.80004882812</ele>
        <time>2026-09-03T13:14:29.000Z</time>
      </trkpt>
      <trkpt lat="48.21582" lon="6.68927">
        <ele>548.80004882812</ele>
        <time>2026-09-03T13:14:30.000Z</time>
      </trkpt>
      <trkpt lat="48.21582" lon="6.68927">
        <ele>548.80004882812</ele>
        <time>2026-09-03T13:14:31.000Z</time>
      </trkpt>
      <trkpt lat="48.21582" lon="6.68927">
        <ele>548.80004882812</ele>
        <time>2026-09-03T13:14:32.000Z</time>
      </trkpt>
      <trkpt lat="48.21582" lon="6.68927">
        <ele>548.80004882812</ele>
        <time>2026-09-03T13:14:33.000Z</time>
      </trkpt>
      <trkpt lat="48.21582" lon="6.68927">
        <ele>548.80004882812</ele>
        <time>2026-09-03T13:14:34.000Z</time>
      </trkpt>
      <trkpt lat="48.21582" lon="6.68927">
        <ele>548.80004882812</ele>
        <time>2026-09-03T13:14:35.000Z</time>
      </trkpt>
      <trkpt lat="48.21582" lon="6.68927">
        <ele>548.80004882812</ele>
        <time>2026-09-03T13:14:36.000Z</time>
      </trkpt>
      <trkpt lat="48.21582" lon="6.68927">
        <ele>548.80004882812</ele>
        <time>2026-09-03T13:14:37.000Z</time>
      </trkpt>
      <trkpt lat="48.21582" lon="6.68927">
        <ele>548.80004882812</ele>
        <time>2026-09-03T13:14:38.000Z</time>
      </trkpt>
      <trkpt lat="48.21582" lon="6.68927">
        <ele>548.80004882812</ele>
        <time>2026-09-03T13:14:39.000Z</time>
      </trkpt>
      <trkpt lat="48.21582" lon="6.68927">
        <ele>548.80004882812</ele>
        <time>2026-09-03T13:14:40.000Z</time>
      </trkpt>
      <trkpt lat="48.21582" lon="6.68926">
        <ele>548.80004882812</ele>
        <time>2026-09-03T13:14:41.000Z</time>
      </trkpt>
      <trkpt lat="48.21582" lon="6.68925">
        <ele>548.80004882812</ele>
        <time>2026-09-03T13:14:42.000Z</time>
      </trkpt>
      <trkpt lat="48.21583" lon="6.68924">
        <ele>549</ele>
        <time>2026-09-03T13:14:43.000Z</time>
      </trkpt>
      <trkpt lat="48.21584" lon="6.68923">
        <ele>549</ele>
        <time>2026-09-03T13:14:44.000Z</time>
      </trkpt>
      <trkpt lat="48.21585" lon="6.68922">
        <ele>549</ele>
        <time>2026-09-03T13:14:45.000Z</time>
      </trkpt>
      <trkpt lat="48.21585" lon="6.68921">
        <ele>549</ele>
        <time>2026-09-03T13:14:46.000Z</time>
      </trkpt>
      <trkpt lat="48.21585" lon="6.6892">
        <ele>549</ele>
        <time>2026-09-03T13:14:47.000Z</time>
      </trkpt>
      <trkpt lat="48.21586" lon="6.68919">
        <ele>548.80004882812</ele>
        <time>2026-09-03T13:14:48.000Z</time>
      </trkpt>
      <trkpt lat="48.21587" lon="6.68917">
        <ele>548.80004882812</ele>
        <time>2026-09-03T13:14:49.000Z</time>
      </trkpt>
      <trkpt lat="48.21588" lon="6.68916">
        <ele>548.59997558594</ele>
        <time>2026-09-03T13:14:50.000Z</time>
      </trkpt>
      <trkpt lat="48.21589" lon="6.68914">
        <ele>548.59997558594</ele>
        <time>2026-09-03T13:14:51.000Z</time>
      </trkpt>
      <trkpt lat="48.2159" lon="6.68913">
        <ele>548.59997558594</ele>
        <time>2026-09-03T13:14:52.000Z</time>
      </trkpt>
      <trkpt lat="48.2159" lon="6.68912">
        <ele>548.59997558594</ele>
        <time>2026-09-03T13:14:53.000Z</time>
      </trkpt>
      <trkpt lat="48.21591" lon="6.6891">
        <ele>548.40002441406</ele>
        <time>2026-09-03T13:14:54.000Z</time>
      </trkpt>
      <trkpt lat="48.21592" lon="6.68909">
        <ele>548.40002441406</ele>
        <time>2026-09-03T13:14:55.000Z</time>
      </trkpt>
      <trkpt lat="48.21592" lon="6.68908">
        <ele>548.19995117188</ele>
        <time>2026-09-03T13:14:56.000Z</time>
      </trkpt>
      <trkpt lat="48.21593" lon="6.68907">
        <ele>548.19995117188</ele>
        <time>2026-09-03T13:14:57.000Z</time>
      </trkpt>
      <trkpt lat="48.21594" lon="6.68906">
        <ele>548.19995117188</ele>
        <time>2026-09-03T13:14:58.000Z</time>
      </trkpt>
      <trkpt lat="48.21595" lon="6.68906">
        <ele>548</ele>
        <time>2026-09-03T13:14:59.000Z</time>
      </trkpt>
      <trkpt lat="48.21595" lon="6.68905">
        <ele>548</ele>
        <time>2026-09-03T13:15:00.000Z</time>
      </trkpt>
      <trkpt lat="48.21596" lon="6.68904">
        <ele>548</ele>
        <time>2026-09-03T13:15:01.000Z</time>
      </trkpt>
      <trkpt lat="48.21597" lon="6.68903">
        <ele>548</ele>
        <time>2026-09-03T13:15:02.000Z</time>
      </trkpt>
      <trkpt lat="48.21598" lon="6.68901">
        <ele>548</ele>
        <time>2026-09-03T13:15:03.000Z</time>
      </trkpt>
      <trkpt lat="48.21599" lon="6.689">
        <ele>547.80004882812</ele>
        <time>2026-09-03T13:15:04.000Z</time>
      </trkpt>
      <trkpt lat="48.21599" lon="6.689">
        <ele>547.80004882812</ele>
        <time>2026-09-03T13:15:05.000Z</time>
      </trkpt>
      <trkpt lat="48.216" lon="6.689">
        <ele>547.80004882812</ele>
        <time>2026-09-03T13:15:06.000Z</time>
      </trkpt>
      <trkpt lat="48.216" lon="6.68899">
        <ele>547.59997558594</ele>
        <time>2026-09-03T13:15:07.000Z</time>
      </trkpt>
      <trkpt lat="48.21601" lon="6.68898">
        <ele>547.59997558594</ele>
        <time>2026-09-03T13:15:08.000Z</time>
      </trkpt>
      <trkpt lat="48.21602" lon="6.68897">
        <ele>547.59997558594</ele>
        <time>2026-09-03T13:15:09.000Z</time>
      </trkpt>
      <trkpt lat="48.21603" lon="6.68896">
        <ele>547.40002441406</ele>
        <time>2026-09-03T13:15:10.000Z</time>
      </trkpt>
      <trkpt lat="48.21604" lon="6.68895">
        <ele>547.40002441406</ele>
        <time>2026-09-03T13:15:11.000Z</time>
      </trkpt>
      <trkpt lat="48.21605" lon="6.68894">
        <ele>547.19995117188</ele>
        <time>2026-09-03T13:15:12.000Z</time>
      </trkpt>
      <trkpt lat="48.21605" lon="6.68893">
        <ele>547</ele>
        <time>2026-09-03T13:15:13.000Z</time>
      </trkpt>
      <trkpt lat="48.21606" lon="6.68893">
        <ele>546.80004882812</ele>
        <time>2026-09-03T13:15:14.000Z</time>
      </trkpt>
      <trkpt lat="48.21607" lon="6.68891">
        <ele>546.80004882812</ele>
        <time>2026-09-03T13:15:15.000Z</time>
      </trkpt>
      <trkpt lat="48.21608" lon="6.6889">
        <ele>546.59997558594</ele>
        <time>2026-09-03T13:15:16.000Z</time>
      </trkpt>
      <trkpt lat="48.21608" lon="6.68889">
        <ele>546.40002441406</ele>
        <time>2026-09-03T13:15:17.000Z</time>
      </trkpt>
      <trkpt lat="48.21609" lon="6.68887">
        <ele>546.19995117188</ele>
        <time>2026-09-03T13:15:18.000Z</time>
      </trkpt>
      <trkpt lat="48.2161" lon="6.68886">
        <ele>546.19995117188</ele>
        <time>2026-09-03T13:15:19.000Z</time>
      </trkpt>
      <trkpt lat="48.2161" lon="6.68885">
        <ele>546</ele>
        <time>2026-09-03T13:15:20.000Z</time>
      </trkpt>
      <trkpt lat="48.21611" lon="6.68884">
        <ele>546</ele>
        <time>2026-09-03T13:15:21.000Z</time>
      </trkpt>
      <trkpt lat="48.21611" lon="6.68883">
        <ele>546</ele>
        <time>2026-09-03T13:15:22.000Z</time>
      </trkpt>
      <trkpt lat="48.21612" lon="6.68882">
        <ele>545.80004882812</ele>
        <time>2026-09-03T13:15:23.000Z</time>
      </trkpt>
      <trkpt lat="48.21613" lon="6.68881">
        <ele>545.59997558594</ele>
        <time>2026-09-03T13:15:24.000Z</time>
      </trkpt>
      <trkpt lat="48.21614" lon="6.68881">
        <ele>545.59997558594</ele>
        <time>2026-09-03T13:15:25.000Z</time>
      </trkpt>
      <trkpt lat="48.21615" lon="6.6888">
        <ele>545.40002441406</ele>
        <time>2026-09-03T13:15:26.000Z</time>
      </trkpt>
      <trkpt lat="48.21616" lon="6.68879">
        <ele>545.40002441406</ele>
        <time>2026-09-03T13:15:27.000Z</time>
      </trkpt>
      <trkpt lat="48.21616" lon="6.68878">
        <ele>545.19995117188</ele>
        <time>2026-09-03T13:15:28.000Z</time>
      </trkpt>
      <trkpt lat="48.21617" lon="6.68878">
        <ele>545.19995117188</ele>
        <time>2026-09-03T13:15:29.000Z</time>
      </trkpt>
      <trkpt lat="48.21618" lon="6.68876">
        <ele>545.19995117188</ele>
        <time>2026-09-03T13:15:30.000Z</time>
      </trkpt>
      <trkpt lat="48.21619" lon="6.68875">
        <ele>545</ele>
        <time>2026-09-03T13:15:31.000Z</time>
      </trkpt>
      <trkpt lat="48.2162" lon="6.68875">
        <ele>545</ele>
        <time>2026-09-03T13:15:32.000Z</time>
      </trkpt>
      <trkpt lat="48.2162" lon="6.68874">
        <ele>544.80004882812</ele>
        <time>2026-09-03T13:15:33.000Z</time>
      </trkpt>
      <trkpt lat="48.21621" lon="6.68873">
        <ele>544.80004882812</ele>
        <time>2026-09-03T13:15:34.000Z</time>
      </trkpt>
      <trkpt lat="48.21622" lon="6.68872">
        <ele>544.59997558594</ele>
        <time>2026-09-03T13:15:35.000Z</time>
      </trkpt>
      <trkpt lat="48.21622" lon="6.68871">
        <ele>544.19995117188</ele>
        <time>2026-09-03T13:15:36.000Z</time>
      </trkpt>
      <trkpt lat="48.21623" lon="6.68869">
        <ele>544.19995117188</ele>
        <time>2026-09-03T13:15:37.000Z</time>
      </trkpt>
      <trkpt lat="48.21624" lon="6.68868">
        <ele>544</ele>
        <time>2026-09-03T13:15:38.000Z</time>
      </trkpt>
      <trkpt lat="48.21625" lon="6.68867">
        <ele>544</ele>
        <time>2026-09-03T13:15:39.000Z</time>
      </trkpt>
      <trkpt lat="48.21626" lon="6.68866">
        <ele>544.19995117188</ele>
        <time>2026-09-03T13:15:40.000Z</time>
      </trkpt>
      <trkpt lat="48.21626" lon="6.68866">
        <ele>544.19995117188</ele>
        <time>2026-09-03T13:15:41.000Z</time>
      </trkpt>
      <trkpt lat="48.21627" lon="6.68865">
        <ele>544.19995117188</ele>
        <time>2026-09-03T13:15:42.000Z</time>
      </trkpt>
      <trkpt lat="48.21628" lon="6.68864">
        <ele>544</ele>
        <time>2026-09-03T13:15:43.000Z</time>
      </trkpt>
      <trkpt lat="48.21629" lon="6.68862">
        <ele>544</ele>
        <time>2026-09-03T13:15:44.000Z</time>
      </trkpt>
      <trkpt lat="48.2163" lon="6.68861">
        <ele>543.80004882812</ele>
        <time>2026-09-03T13:15:45.000Z</time>
      </trkpt>
      <trkpt lat="48.21631" lon="6.6886">
        <ele>543.80004882812</ele>
        <time>2026-09-03T13:15:46.000Z</time>
      </trkpt>
      <trkpt lat="48.21632" lon="6.68859">
        <ele>543.80004882812</ele>
        <time>2026-09-03T13:15:47.000Z</time>
      </trkpt>
      <trkpt lat="48.21633" lon="6.68858">
        <ele>543.59997558594</ele>
        <time>2026-09-03T13:15:48.000Z</time>
      </trkpt>
      <trkpt lat="48.21634" lon="6.68857">
        <ele>543.59997558594</ele>
        <time>2026-09-03T13:15:49.000Z</time>
      </trkpt>
      <trkpt lat="48.21634" lon="6.68856">
        <ele>543.40002441406</ele>
        <time>2026-09-03T13:15:50.000Z</time>
      </trkpt>
      <trkpt lat="48.21635" lon="6.68855">
        <ele>543.40002441406</ele>
        <time>2026-09-03T13:15:51.000Z</time>
      </trkpt>
      <trkpt lat="48.21636" lon="6.68853">
        <ele>543.40002441406</ele>
        <time>2026-09-03T13:15:52.000Z</time>
      </trkpt>
      <trkpt lat="48.21636" lon="6.68852">
        <ele>543.19995117188</ele>
        <time>2026-09-03T13:15:53.000Z</time>
      </trkpt>
      <trkpt lat="48.21637" lon="6.68851">
        <ele>543.19995117188</ele>
        <time>2026-09-03T13:15:54.000Z</time>
      </trkpt>
      <trkpt lat="48.21638" lon="6.6885">
        <ele>543.19995117188</ele>
        <time>2026-09-03T13:15:55.000Z</time>
      </trkpt>
      <trkpt lat="48.21638" lon="6.68848">
        <ele>543.19995117188</ele>
        <time>2026-09-03T13:15:56.000Z</time>
      </trkpt>
      <trkpt lat="48.21639" lon="6.68847">
        <ele>543</ele>
        <time>2026-09-03T13:15:57.000Z</time>
      </trkpt>
      <trkpt lat="48.2164" lon="6.68845">
        <ele>543</ele>
        <time>2026-09-03T13:15:58.000Z</time>
      </trkpt>
      <trkpt lat="48.21641" lon="6.68844">
        <ele>542.80004882812</ele>
        <time>2026-09-03T13:15:59.000Z</time>
      </trkpt>
      <trkpt lat="48.21642" lon="6.68843">
        <ele>542.80004882812</ele>
        <time>2026-09-03T13:16:00.000Z</time>
      </trkpt>
      <trkpt lat="48.21643" lon="6.68843">
        <ele>542.80004882812</ele>
        <time>2026-09-03T13:16:01.000Z</time>
      </trkpt>
      <trkpt lat="48.21644" lon="6.68842">
        <ele>542.59997558594</ele>
        <time>2026-09-03T13:16:02.000Z</time>
      </trkpt>
      <trkpt lat="48.21644" lon="6.6884">
        <ele>542.59997558594</ele>
        <time>2026-09-03T13:16:03.000Z</time>
      </trkpt>
      <trkpt lat="48.21645" lon="6.68839">
        <ele>542.59997558594</ele>
        <time>2026-09-03T13:16:04.000Z</time>
      </trkpt>
      <trkpt lat="48.21646" lon="6.68838">
        <ele>542.40002441406</ele>
        <time>2026-09-03T13:16:05.000Z</time>
      </trkpt>
      <trkpt lat="48.21647" lon="6.68837">
        <ele>542.19995117188</ele>
        <time>2026-09-03T13:16:06.000Z</time>
      </trkpt>
      <trkpt lat="48.21648" lon="6.68836">
        <ele>542</ele>
        <time>2026-09-03T13:16:07.000Z</time>
      </trkpt>
      <trkpt lat="48.21649" lon="6.68836">
        <ele>541.80004882812</ele>
        <time>2026-09-03T13:16:08.000Z</time>
      </trkpt>
      <trkpt lat="48.2165" lon="6.68835">
        <ele>541.80004882812</ele>
        <time>2026-09-03T13:16:09.000Z</time>
      </trkpt>
      <trkpt lat="48.21651" lon="6.68834">
        <ele>541.59997558594</ele>
        <time>2026-09-03T13:16:10.000Z</time>
      </trkpt>
      <trkpt lat="48.21652" lon="6.68833">
        <ele>541.40002441406</ele>
        <time>2026-09-03T13:16:11.000Z</time>
      </trkpt>
      <trkpt lat="48.21652" lon="6.68832">
        <ele>541.40002441406</ele>
        <time>2026-09-03T13:16:12.000Z</time>
      </trkpt>
      <trkpt lat="48.21653" lon="6.68832">
        <ele>541.19995117188</ele>
        <time>2026-09-03T13:16:13.000Z</time>
      </trkpt>
      <trkpt lat="48.21654" lon="6.68831">
        <ele>541.19995117188</ele>
        <time>2026-09-03T13:16:14.000Z</time>
      </trkpt>
      <trkpt lat="48.21655" lon="6.6883">
        <ele>541</ele>
        <time>2026-09-03T13:16:15.000Z</time>
      </trkpt>
      <trkpt lat="48.21656" lon="6.6883">
        <ele>540.80004882812</ele>
        <time>2026-09-03T13:16:16.000Z</time>
      </trkpt>
      <trkpt lat="48.21656" lon="6.68828">
        <ele>540.59997558594</ele>
        <time>2026-09-03T13:16:17.000Z</time>
      </trkpt>
      <trkpt lat="48.21657" lon="6.68827">
        <ele>540.40002441406</ele>
        <time>2026-09-03T13:16:18.000Z</time>
      </trkpt>
      <trkpt lat="48.21658" lon="6.68826">
        <ele>540.40002441406</ele>
        <time>2026-09-03T13:16:19.000Z</time>
      </trkpt>
      <trkpt lat="48.21659" lon="6.68825">
        <ele>540.19995117188</ele>
        <time>2026-09-03T13:16:20.000Z</time>
      </trkpt>
      <trkpt lat="48.2166" lon="6.68824">
        <ele>540.19995117188</ele>
        <time>2026-09-03T13:16:21.000Z</time>
      </trkpt>
      <trkpt lat="48.2166" lon="6.68823">
        <ele>540</ele>
        <time>2026-09-03T13:16:22.000Z</time>
      </trkpt>
      <trkpt lat="48.21661" lon="6.68822">
        <ele>539.80004882812</ele>
        <time>2026-09-03T13:16:23.000Z</time>
      </trkpt>
      <trkpt lat="48.21661" lon="6.68822">
        <ele>539.80004882812</ele>
        <time>2026-09-03T13:16:24.000Z</time>
      </trkpt>
      <trkpt lat="48.21662" lon="6.68821">
        <ele>539.59997558594</ele>
        <time>2026-09-03T13:16:25.000Z</time>
      </trkpt>
      <trkpt lat="48.21663" lon="6.6882">
        <ele>539.40002441406</ele>
        <time>2026-09-03T13:16:26.000Z</time>
      </trkpt>
      <trkpt lat="48.21664" lon="6.68818">
        <ele>539.19995117188</ele>
        <time>2026-09-03T13:16:27.000Z</time>
      </trkpt>
      <trkpt lat="48.21665" lon="6.68818">
        <ele>539.19995117188</ele>
        <time>2026-09-03T13:16:28.000Z</time>
      </trkpt>
      <trkpt lat="48.21665" lon="6.68817">
        <ele>539</ele>
        <time>2026-09-03T13:16:29.000Z</time>
      </trkpt>
      <trkpt lat="48.21665" lon="6.68816">
        <ele>538.80004882812</ele>
        <time>2026-09-03T13:16:30.000Z</time>
      </trkpt>
      <trkpt lat="48.21666" lon="6.68816">
        <ele>538.80004882812</ele>
        <time>2026-09-03T13:16:31.000Z</time>
      </trkpt>
      <trkpt lat="48.21667" lon="6.68814">
        <ele>538.59997558594</ele>
        <time>2026-09-03T13:16:32.000Z</time>
      </trkpt>
      <trkpt lat="48.21667" lon="6.68814">
        <ele>538.59997558594</ele>
        <time>2026-09-03T13:16:33.000Z</time>
      </trkpt>
      <trkpt lat="48.21668" lon="6.68813">
        <ele>538.59997558594</ele>
        <time>2026-09-03T13:16:34.000Z</time>
      </trkpt>
      <trkpt lat="48.21669" lon="6.68812">
        <ele>538.40002441406</ele>
        <time>2026-09-03T13:16:35.000Z</time>
      </trkpt>
      <trkpt lat="48.21669" lon="6.68811">
        <ele>538.40002441406</ele>
        <time>2026-09-03T13:16:36.000Z</time>
      </trkpt>
      <trkpt lat="48.2167" lon="6.6881">
        <ele>538.19995117188</ele>
        <time>2026-09-03T13:16:37.000Z</time>
      </trkpt>
      <trkpt lat="48.21671" lon="6.68809">
        <ele>538</ele>
        <time>2026-09-03T13:16:38.000Z</time>
      </trkpt>
      <trkpt lat="48.21672" lon="6.68808">
        <ele>538</ele>
        <time>2026-09-03T13:16:39.000Z</time>
      </trkpt>
      <trkpt lat="48.21673" lon="6.68807">
        <ele>537.80004882812</ele>
        <time>2026-09-03T13:16:40.000Z</time>
      </trkpt>
      <trkpt lat="48.21674" lon="6.68805">
        <ele>537.59997558594</ele>
        <time>2026-09-03T13:16:41.000Z</time>
      </trkpt>
      <trkpt lat="48.21674" lon="6.68804">
        <ele>537.59997558594</ele>
        <time>2026-09-03T13:16:42.000Z</time>
      </trkpt>
      <trkpt lat="48.21675" lon="6.68803">
        <ele>537.40002441406</ele>
        <time>2026-09-03T13:16:43.000Z</time>
      </trkpt>
      <trkpt lat="48.21675" lon="6.68802">
        <ele>537.59997558594</ele>
        <time>2026-09-03T13:16:44.000Z</time>
      </trkpt>
      <trkpt lat="48.21676" lon="6.68802">
        <ele>537.59997558594</ele>
        <time>2026-09-03T13:16:45.000Z</time>
      </trkpt>
      <trkpt lat="48.21677" lon="6.68801">
        <ele>537.59997558594</ele>
        <time>2026-09-03T13:16:46.000Z</time>
      </trkpt>
      <trkpt lat="48.21678" lon="6.688">
        <ele>537.40002441406</ele>
        <time>2026-09-03T13:16:47.000Z</time>
      </trkpt>
      <trkpt lat="48.21679" lon="6.68799">
        <ele>537.40002441406</ele>
        <time>2026-09-03T13:16:48.000Z</time>
      </trkpt>
      <trkpt lat="48.21679" lon="6.68798">
        <ele>537.19995117188</ele>
        <time>2026-09-03T13:16:49.000Z</time>
      </trkpt>
      <trkpt lat="48.2168" lon="6.68797">
        <ele>537</ele>
        <time>2026-09-03T13:16:50.000Z</time>
      </trkpt>
      <trkpt lat="48.21681" lon="6.68796">
        <ele>537</ele>
        <time>2026-09-03T13:16:51.000Z</time>
      </trkpt>
      <trkpt lat="48.21682" lon="6.68794">
        <ele>536.80004882812</ele>
        <time>2026-09-03T13:16:52.000Z</time>
      </trkpt>
      <trkpt lat="48.21683" lon="6.68794">
        <ele>536.80004882812</ele>
        <time>2026-09-03T13:16:53.000Z</time>
      </trkpt>
      <trkpt lat="48.21684" lon="6.68792">
        <ele>536.59997558594</ele>
        <time>2026-09-03T13:16:54.000Z</time>
      </trkpt>
      <trkpt lat="48.21684" lon="6.68791">
        <ele>536.59997558594</ele>
        <time>2026-09-03T13:16:55.000Z</time>
      </trkpt>
      <trkpt lat="48.21685" lon="6.68789">
        <ele>536.40002441406</ele>
        <time>2026-09-03T13:16:56.000Z</time>
      </trkpt>
      <trkpt lat="48.21686" lon="6.68788">
        <ele>536.40002441406</ele>
        <time>2026-09-03T13:16:57.000Z</time>
      </trkpt>
      <trkpt lat="48.21687" lon="6.68788">
        <ele>536.40002441406</ele>
        <time>2026-09-03T13:16:58.000Z</time>
      </trkpt>
      <trkpt lat="48.21688" lon="6.68787">
        <ele>536.40002441406</ele>
        <time>2026-09-03T13:16:59.000Z</time>
      </trkpt>
      <trkpt lat="48.21689" lon="6.68785">
        <ele>536.19995117188</ele>
        <time>2026-09-03T13:17:00.000Z</time>
      </trkpt>
      <trkpt lat="48.2169" lon="6.68784">
        <ele>536.19995117188</ele>
        <time>2026-09-03T13:17:01.000Z</time>
      </trkpt>
      <trkpt lat="48.21691" lon="6.68782">
        <ele>536</ele>
        <time>2026-09-03T13:17:02.000Z</time>
      </trkpt>
      <trkpt lat="48.21692" lon="6.68781">
        <ele>536</ele>
        <time>2026-09-03T13:17:03.000Z</time>
      </trkpt>
      <trkpt lat="48.21693" lon="6.6878">
        <ele>535.80004882812</ele>
        <time>2026-09-03T13:17:04.000Z</time>
      </trkpt>
      <trkpt lat="48.21694" lon="6.68779">
        <ele>535.59997558594</ele>
        <time>2026-09-03T13:17:05.000Z</time>
      </trkpt>
      <trkpt lat="48.21694" lon="6.68778">
        <ele>535.40002441406</ele>
        <time>2026-09-03T13:17:06.000Z</time>
      </trkpt>
      <trkpt lat="48.21695" lon="6.68777">
        <ele>535.40002441406</ele>
        <time>2026-09-03T13:17:07.000Z</time>
      </trkpt>
      <trkpt lat="48.21696" lon="6.68776">
        <ele>535.40002441406</ele>
        <time>2026-09-03T13:17:08.000Z</time>
      </trkpt>
      <trkpt lat="48.21697" lon="6.68775">
        <ele>535.40002441406</ele>
        <time>2026-09-03T13:17:09.000Z</time>
      </trkpt>
      <trkpt lat="48.21698" lon="6.68774">
        <ele>535.19995117188</ele>
        <time>2026-09-03T13:17:10.000Z</time>
      </trkpt>
      <trkpt lat="48.21699" lon="6.68772">
        <ele>535.19995117188</ele>
        <time>2026-09-03T13:17:11.000Z</time>
      </trkpt>
      <trkpt lat="48.217" lon="6.68771">
        <ele>535.19995117188</ele>
        <time>2026-09-03T13:17:12.000Z</time>
      </trkpt>
      <trkpt lat="48.21701" lon="6.6877">
        <ele>535</ele>
        <time>2026-09-03T13:17:13.000Z</time>
      </trkpt>
      <trkpt lat="48.217" lon="6.6877">
        <ele>535</ele>
        <time>2026-09-03T13:17:14.000Z</time>
      </trkpt>
      <trkpt lat="48.21701" lon="6.68769">
        <ele>535</ele>
        <time>2026-09-03T13:17:15.000Z</time>
      </trkpt>
      <trkpt lat="48.21702" lon="6.68768">
        <ele>534.80004882812</ele>
        <time>2026-09-03T13:17:16.000Z</time>
      </trkpt>
      <trkpt lat="48.21702" lon="6.68767">
        <ele>534.80004882812</ele>
        <time>2026-09-03T13:17:17.000Z</time>
      </trkpt>
      <trkpt lat="48.21704" lon="6.68766">
        <ele>534.80004882812</ele>
        <time>2026-09-03T13:17:18.000Z</time>
      </trkpt>
      <trkpt lat="48.21705" lon="6.68765">
        <ele>535</ele>
        <time>2026-09-03T13:17:19.000Z</time>
      </trkpt>
      <trkpt lat="48.21705" lon="6.68764">
        <ele>535</ele>
        <time>2026-09-03T13:17:20.000Z</time>
      </trkpt>
      <trkpt lat="48.21706" lon="6.68763">
        <ele>535</ele>
        <time>2026-09-03T13:17:21.000Z</time>
      </trkpt>
      <trkpt lat="48.21706" lon="6.68763">
        <ele>535</ele>
        <time>2026-09-03T13:17:22.000Z</time>
      </trkpt>
      <trkpt lat="48.21708" lon="6.68761">
        <ele>535</ele>
        <time>2026-09-03T13:17:23.000Z</time>
      </trkpt>
      <trkpt lat="48.21708" lon="6.6876">
        <ele>535</ele>
        <time>2026-09-03T13:17:24.000Z</time>
      </trkpt>
      <trkpt lat="48.21709" lon="6.6876">
        <ele>535</ele>
        <time>2026-09-03T13:17:25.000Z</time>
      </trkpt>
      <trkpt lat="48.2171" lon="6.68759">
        <ele>535</ele>
        <time>2026-09-03T13:17:26.000Z</time>
      </trkpt>
      <trkpt lat="48.21711" lon="6.68757">
        <ele>535</ele>
        <time>2026-09-03T13:17:27.000Z</time>
      </trkpt>
      <trkpt lat="48.21712" lon="6.68756">
        <ele>535.19995117188</ele>
        <time>2026-09-03T13:17:28.000Z</time>
      </trkpt>
      <trkpt lat="48.21713" lon="6.68755">
        <ele>535.19995117188</ele>
        <time>2026-09-03T13:17:29.000Z</time>
      </trkpt>
      <trkpt lat="48.21714" lon="6.68754">
        <ele>535.40002441406</ele>
        <time>2026-09-03T13:17:30.000Z</time>
      </trkpt>
      <trkpt lat="48.21715" lon="6.68753">
        <ele>535.40002441406</ele>
        <time>2026-09-03T13:17:31.000Z</time>
      </trkpt>
      <trkpt lat="48.21716" lon="6.68751">
        <ele>535.40002441406</ele>
        <time>2026-09-03T13:17:32.000Z</time>
      </trkpt>
      <trkpt lat="48.21717" lon="6.6875">
        <ele>535.40002441406</ele>
        <time>2026-09-03T13:17:33.000Z</time>
      </trkpt>
      <trkpt lat="48.21718" lon="6.68749">
        <ele>535.40002441406</ele>
        <time>2026-09-03T13:17:34.000Z</time>
      </trkpt>
      <trkpt lat="48.21719" lon="6.68748">
        <ele>535.40002441406</ele>
        <time>2026-09-03T13:17:35.000Z</time>
      </trkpt>
      <trkpt lat="48.2172" lon="6.68747">
        <ele>535.40002441406</ele>
        <time>2026-09-03T13:17:36.000Z</time>
      </trkpt>
      <trkpt lat="48.2172" lon="6.68747">
        <ele>535.40002441406</ele>
        <time>2026-09-03T13:17:37.000Z</time>
      </trkpt>
      <trkpt lat="48.21721" lon="6.68746">
        <ele>535.40002441406</ele>
        <time>2026-09-03T13:17:38.000Z</time>
      </trkpt>
      <trkpt lat="48.21721" lon="6.68745">
        <ele>535.40002441406</ele>
        <time>2026-09-03T13:17:39.000Z</time>
      </trkpt>
      <trkpt lat="48.21722" lon="6.68743">
        <ele>535.40002441406</ele>
        <time>2026-09-03T13:17:40.000Z</time>
      </trkpt>
      <trkpt lat="48.21722" lon="6.68743">
        <ele>535.59997558594</ele>
        <time>2026-09-03T13:17:41.000Z</time>
      </trkpt>
      <trkpt lat="48.21723" lon="6.68742">
        <ele>535.59997558594</ele>
        <time>2026-09-03T13:17:42.000Z</time>
      </trkpt>
      <trkpt lat="48.21724" lon="6.68741">
        <ele>535.59997558594</ele>
        <time>2026-09-03T13:17:43.000Z</time>
      </trkpt>
      <trkpt lat="48.21724" lon="6.6874">
        <ele>535.59997558594</ele>
        <time>2026-09-03T13:17:44.000Z</time>
      </trkpt>
      <trkpt lat="48.21725" lon="6.68738">
        <ele>535.80004882812</ele>
        <time>2026-09-03T13:17:45.000Z</time>
      </trkpt>
      <trkpt lat="48.21726" lon="6.68737">
        <ele>535.80004882812</ele>
        <time>2026-09-03T13:17:46.000Z</time>
      </trkpt>
      <trkpt lat="48.21727" lon="6.68737">
        <ele>535.80004882812</ele>
        <time>2026-09-03T13:17:47.000Z</time>
      </trkpt>
      <trkpt lat="48.21728" lon="6.68736">
        <ele>535.80004882812</ele>
        <time>2026-09-03T13:17:48.000Z</time>
      </trkpt>
      <trkpt lat="48.21729" lon="6.68734">
        <ele>535.80004882812</ele>
        <time>2026-09-03T13:17:49.000Z</time>
      </trkpt>
      <trkpt lat="48.2173" lon="6.68733">
        <ele>535.80004882812</ele>
        <time>2026-09-03T13:17:50.000Z</time>
      </trkpt>
      <trkpt lat="48.21731" lon="6.68732">
        <ele>535.80004882812</ele>
        <time>2026-09-03T13:17:51.000Z</time>
      </trkpt>
      <trkpt lat="48.21731" lon="6.68732">
        <ele>535.59997558594</ele>
        <time>2026-09-03T13:17:52.000Z</time>
      </trkpt>
      <trkpt lat="48.21732" lon="6.68731">
        <ele>535.59997558594</ele>
        <time>2026-09-03T13:17:53.000Z</time>
      </trkpt>
      <trkpt lat="48.21732" lon="6.68731">
        <ele>535.40002441406</ele>
        <time>2026-09-03T13:17:54.000Z</time>
      </trkpt>
      <trkpt lat="48.21733" lon="6.6873">
        <ele>535.19995117188</ele>
        <time>2026-09-03T13:17:55.000Z</time>
      </trkpt>
      <trkpt lat="48.21733" lon="6.68729">
        <ele>535.19995117188</ele>
        <time>2026-09-03T13:17:56.000Z</time>
      </trkpt>
      <trkpt lat="48.21734" lon="6.68728">
        <ele>535.19995117188</ele>
        <time>2026-09-03T13:17:57.000Z</time>
      </trkpt>
      <trkpt lat="48.21735" lon="6.68727">
        <ele>535</ele>
        <time>2026-09-03T13:17:58.000Z</time>
      </trkpt>
      <trkpt lat="48.21735" lon="6.68726">
        <ele>535</ele>
        <time>2026-09-03T13:17:59.000Z</time>
      </trkpt>
      <trkpt lat="48.21736" lon="6.68725">
        <ele>535</ele>
        <time>2026-09-03T13:18:00.000Z</time>
      </trkpt>
      <trkpt lat="48.21736" lon="6.68724">
        <ele>535</ele>
        <time>2026-09-03T13:18:01.000Z</time>
      </trkpt>
      <trkpt lat="48.21737" lon="6.68723">
        <ele>534.80004882812</ele>
        <time>2026-09-03T13:18:02.000Z</time>
      </trkpt>
      <trkpt lat="48.21738" lon="6.68722">
        <ele>534.80004882812</ele>
        <time>2026-09-03T13:18:03.000Z</time>
      </trkpt>
      <trkpt lat="48.21739" lon="6.68721">
        <ele>534.80004882812</ele>
        <time>2026-09-03T13:18:04.000Z</time>
      </trkpt>
      <trkpt lat="48.21739" lon="6.6872">
        <ele>534.59997558594</ele>
        <time>2026-09-03T13:18:05.000Z</time>
      </trkpt>
      <trkpt lat="48.2174" lon="6.68719">
        <ele>534.59997558594</ele>
        <time>2026-09-03T13:18:06.000Z</time>
      </trkpt>
      <trkpt lat="48.21741" lon="6.68718">
        <ele>534.40002441406</ele>
        <time>2026-09-03T13:18:07.000Z</time>
      </trkpt>
      <trkpt lat="48.21742" lon="6.68717">
        <ele>534.40002441406</ele>
        <time>2026-09-03T13:18:08.000Z</time>
      </trkpt>
      <trkpt lat="48.21743" lon="6.68716">
        <ele>534.19995117188</ele>
        <time>2026-09-03T13:18:09.000Z</time>
      </trkpt>
      <trkpt lat="48.21743" lon="6.68714">
        <ele>534.19995117188</ele>
        <time>2026-09-03T13:18:10.000Z</time>
      </trkpt>
      <trkpt lat="48.21744" lon="6.68714">
        <ele>534</ele>
        <time>2026-09-03T13:18:11.000Z</time>
      </trkpt>
      <trkpt lat="48.21744" lon="6.68713">
        <ele>534</ele>
        <time>2026-09-03T13:18:12.000Z</time>
      </trkpt>
      <trkpt lat="48.21745" lon="6.68712">
        <ele>533.80004882812</ele>
        <time>2026-09-03T13:18:13.000Z</time>
      </trkpt>
      <trkpt lat="48.21746" lon="6.6871">
        <ele>533.59997558594</ele>
        <time>2026-09-03T13:18:14.000Z</time>
      </trkpt>
      <trkpt lat="48.21747" lon="6.68709">
        <ele>533.59997558594</ele>
        <time>2026-09-03T13:18:15.000Z</time>
      </trkpt>
      <trkpt lat="48.21748" lon="6.68708">
        <ele>533.59997558594</ele>
        <time>2026-09-03T13:18:16.000Z</time>
      </trkpt>
      <trkpt lat="48.21749" lon="6.68707">
        <ele>533.40002441406</ele>
        <time>2026-09-03T13:18:17.000Z</time>
      </trkpt>
      <trkpt lat="48.2175" lon="6.68706">
        <ele>533.40002441406</ele>
        <time>2026-09-03T13:18:18.000Z</time>
      </trkpt>
      <trkpt lat="48.21751" lon="6.68705">
        <ele>533.19995117188</ele>
        <time>2026-09-03T13:18:19.000Z</time>
      </trkpt>
      <trkpt lat="48.21752" lon="6.68704">
        <ele>533</ele>
        <time>2026-09-03T13:18:20.000Z</time>
      </trkpt>
      <trkpt lat="48.21753" lon="6.68703">
        <ele>532.80004882812</ele>
        <time>2026-09-03T13:18:21.000Z</time>
      </trkpt>
      <trkpt lat="48.21754" lon="6.68703">
        <ele>532.59997558594</ele>
        <time>2026-09-03T13:18:22.000Z</time>
      </trkpt>
      <trkpt lat="48.21755" lon="6.68701">
        <ele>532.40002441406</ele>
        <time>2026-09-03T13:18:23.000Z</time>
      </trkpt>
      <trkpt lat="48.21756" lon="6.687">
        <ele>532.40002441406</ele>
        <time>2026-09-03T13:18:24.000Z</time>
      </trkpt>
      <trkpt lat="48.21757" lon="6.68699">
        <ele>532.40002441406</ele>
        <time>2026-09-03T13:18:25.000Z</time>
      </trkpt>
      <trkpt lat="48.21758" lon="6.68699">
        <ele>532.19995117188</ele>
        <time>2026-09-03T13:18:26.000Z</time>
      </trkpt>
      <trkpt lat="48.21759" lon="6.68699">
        <ele>532.19995117188</ele>
        <time>2026-09-03T13:18:27.000Z</time>
      </trkpt>
      <trkpt lat="48.2176" lon="6.68698">
        <ele>532</ele>
        <time>2026-09-03T13:18:28.000Z</time>
      </trkpt>
      <trkpt lat="48.21761" lon="6.68697">
        <ele>532</ele>
        <time>2026-09-03T13:18:29.000Z</time>
      </trkpt>
      <trkpt lat="48.21761" lon="6.68697">
        <ele>531.80004882812</ele>
        <time>2026-09-03T13:18:30.000Z</time>
      </trkpt>
      <trkpt lat="48.21762" lon="6.68696">
        <ele>531.59997558594</ele>
        <time>2026-09-03T13:18:31.000Z</time>
      </trkpt>
      <trkpt lat="48.21763" lon="6.68695">
        <ele>531.59997558594</ele>
        <time>2026-09-03T13:18:32.000Z</time>
      </trkpt>
      <trkpt lat="48.21764" lon="6.68694">
        <ele>531.59997558594</ele>
        <time>2026-09-03T13:18:33.000Z</time>
      </trkpt>
      <trkpt lat="48.21765" lon="6.68693">
        <ele>531.40002441406</ele>
        <time>2026-09-03T13:18:34.000Z</time>
      </trkpt>
      <trkpt lat="48.21766" lon="6.68692">
        <ele>531.40002441406</ele>
        <time>2026-09-03T13:18:35.000Z</time>
      </trkpt>
      <trkpt lat="48.21767" lon="6.68691">
        <ele>531.59997558594</ele>
        <time>2026-09-03T13:18:36.000Z</time>
      </trkpt>
      <trkpt lat="48.21768" lon="6.6869">
        <ele>531.40002441406</ele>
        <time>2026-09-03T13:18:37.000Z</time>
      </trkpt>
      <trkpt lat="48.21769" lon="6.68689">
        <ele>531.40002441406</ele>
        <time>2026-09-03T13:18:38.000Z</time>
      </trkpt>
      <trkpt lat="48.2177" lon="6.68688">
        <ele>531.40002441406</ele>
        <time>2026-09-03T13:18:39.000Z</time>
      </trkpt>
      <trkpt lat="48.21771" lon="6.68687">
        <ele>531.40002441406</ele>
        <time>2026-09-03T13:18:40.000Z</time>
      </trkpt>
      <trkpt lat="48.21772" lon="6.68686">
        <ele>531.19995117188</ele>
        <time>2026-09-03T13:18:41.000Z</time>
      </trkpt>
      <trkpt lat="48.21773" lon="6.68685">
        <ele>531.19995117188</ele>
        <time>2026-09-03T13:18:42.000Z</time>
      </trkpt>
      <trkpt lat="48.21773" lon="6.68684">
        <ele>531.19995117188</ele>
        <time>2026-09-03T13:18:43.000Z</time>
      </trkpt>
      <trkpt lat="48.21774" lon="6.68683">
        <ele>531</ele>
        <time>2026-09-03T13:18:44.000Z</time>
      </trkpt>
      <trkpt lat="48.21775" lon="6.68681">
        <ele>531</ele>
        <time>2026-09-03T13:18:45.000Z</time>
      </trkpt>
      <trkpt lat="48.21776" lon="6.68681">
        <ele>530.80004882812</ele>
        <time>2026-09-03T13:18:46.000Z</time>
      </trkpt>
      <trkpt lat="48.21777" lon="6.6868">
        <ele>530.80004882812</ele>
        <time>2026-09-03T13:18:47.000Z</time>
      </trkpt>
      <trkpt lat="48.21778" lon="6.68678">
        <ele>530.59997558594</ele>
        <time>2026-09-03T13:18:48.000Z</time>
      </trkpt>
      <trkpt lat="48.21778" lon="6.68677">
        <ele>530.59997558594</ele>
        <time>2026-09-03T13:18:49.000Z</time>
      </trkpt>
      <trkpt lat="48.21779" lon="6.68676">
        <ele>530.59997558594</ele>
        <time>2026-09-03T13:18:50.000Z</time>
      </trkpt>
      <trkpt lat="48.2178" lon="6.68675">
        <ele>530.59997558594</ele>
        <time>2026-09-03T13:18:51.000Z</time>
      </trkpt>
      <trkpt lat="48.21781" lon="6.68673">
        <ele>530.40002441406</ele>
        <time>2026-09-03T13:18:52.000Z</time>
      </trkpt>
      <trkpt lat="48.21782" lon="6.68672">
        <ele>530.40002441406</ele>
        <time>2026-09-03T13:18:53.000Z</time>
      </trkpt>
      <trkpt lat="48.21783" lon="6.68671">
        <ele>530.40002441406</ele>
        <time>2026-09-03T13:18:54.000Z</time>
      </trkpt>
      <trkpt lat="48.21784" lon="6.6867">
        <ele>530.19995117188</ele>
        <time>2026-09-03T13:18:55.000Z</time>
      </trkpt>
      <trkpt lat="48.21784" lon="6.68668">
        <ele>530.19995117188</ele>
        <time>2026-09-03T13:18:56.000Z</time>
      </trkpt>
      <trkpt lat="48.21785" lon="6.68667">
        <ele>530.19995117188</ele>
        <time>2026-09-03T13:18:57.000Z</time>
      </trkpt>
      <trkpt lat="48.21786" lon="6.68666">
        <ele>530</ele>
        <time>2026-09-03T13:18:58.000Z</time>
      </trkpt>
      <trkpt lat="48.21787" lon="6.68665">
        <ele>530</ele>
        <time>2026-09-03T13:18:59.000Z</time>
      </trkpt>
      <trkpt lat="48.21788" lon="6.68664">
        <ele>529.80004882812</ele>
        <time>2026-09-03T13:19:00.000Z</time>
      </trkpt>
      <trkpt lat="48.21789" lon="6.68663">
        <ele>529.80004882812</ele>
        <time>2026-09-03T13:19:01.000Z</time>
      </trkpt>
      <trkpt lat="48.21789" lon="6.68661">
        <ele>529.59997558594</ele>
        <time>2026-09-03T13:19:02.000Z</time>
      </trkpt>
      <trkpt lat="48.2179" lon="6.68659">
        <ele>529.59997558594</ele>
        <time>2026-09-03T13:19:03.000Z</time>
      </trkpt>
      <trkpt lat="48.2179" lon="6.68657">
        <ele>529.59997558594</ele>
        <time>2026-09-03T13:19:04.000Z</time>
      </trkpt>
      <trkpt lat="48.21791" lon="6.68656">
        <ele>529.40002441406</ele>
        <time>2026-09-03T13:19:05.000Z</time>
      </trkpt>
      <trkpt lat="48.21792" lon="6.68654">
        <ele>529.40002441406</ele>
        <time>2026-09-03T13:19:06.000Z</time>
      </trkpt>
      <trkpt lat="48.21792" lon="6.68653">
        <ele>529.19995117188</ele>
        <time>2026-09-03T13:19:07.000Z</time>
      </trkpt>
      <trkpt lat="48.21793" lon="6.68651">
        <ele>529</ele>
        <time>2026-09-03T13:19:08.000Z</time>
      </trkpt>
      <trkpt lat="48.21793" lon="6.6865">
        <ele>529</ele>
        <time>2026-09-03T13:19:09.000Z</time>
      </trkpt>
      <trkpt lat="48.21794" lon="6.68648">
        <ele>529</ele>
        <time>2026-09-03T13:19:10.000Z</time>
      </trkpt>
      <trkpt lat="48.21795" lon="6.68646">
        <ele>529</ele>
        <time>2026-09-03T13:19:11.000Z</time>
      </trkpt>
      <trkpt lat="48.21796" lon="6.68645">
        <ele>529</ele>
        <time>2026-09-03T13:19:12.000Z</time>
      </trkpt>
      <trkpt lat="48.21796" lon="6.68644">
        <ele>529</ele>
        <time>2026-09-03T13:19:13.000Z</time>
      </trkpt>
      <trkpt lat="48.21797" lon="6.68643">
        <ele>529</ele>
        <time>2026-09-03T13:19:14.000Z</time>
      </trkpt>
      <trkpt lat="48.21798" lon="6.68641">
        <ele>528.80004882812</ele>
        <time>2026-09-03T13:19:15.000Z</time>
      </trkpt>
      <trkpt lat="48.21799" lon="6.6864">
        <ele>528.80004882812</ele>
        <time>2026-09-03T13:19:16.000Z</time>
      </trkpt>
      <trkpt lat="48.218" lon="6.68639">
        <ele>528.80004882812</ele>
        <time>2026-09-03T13:19:17.000Z</time>
      </trkpt>
      <trkpt lat="48.21801" lon="6.68637">
        <ele>529</ele>
        <time>2026-09-03T13:19:18.000Z</time>
      </trkpt>
      <trkpt lat="48.21802" lon="6.68636">
        <ele>529</ele>
        <time>2026-09-03T13:19:19.000Z</time>
      </trkpt>
      <trkpt lat="48.21803" lon="6.68636">
        <ele>529</ele>
        <time>2026-09-03T13:19:20.000Z</time>
      </trkpt>
      <trkpt lat="48.21804" lon="6.68635">
        <ele>529</ele>
        <time>2026-09-03T13:19:21.000Z</time>
      </trkpt>
      <trkpt lat="48.21805" lon="6.68634">
        <ele>529</ele>
        <time>2026-09-03T13:19:22.000Z</time>
      </trkpt>
      <trkpt lat="48.21805" lon="6.68633">
        <ele>529</ele>
        <time>2026-09-03T13:19:23.000Z</time>
      </trkpt>
      <trkpt lat="48.21807" lon="6.68632">
        <ele>529</ele>
        <time>2026-09-03T13:19:24.000Z</time>
      </trkpt>
      <trkpt lat="48.21807" lon="6.68631">
        <ele>529</ele>
        <time>2026-09-03T13:19:25.000Z</time>
      </trkpt>
      <trkpt lat="48.21807" lon="6.6863">
        <ele>529</ele>
        <time>2026-09-03T13:19:26.000Z</time>
      </trkpt>
      <trkpt lat="48.21808" lon="6.6863">
        <ele>529</ele>
        <time>2026-09-03T13:19:27.000Z</time>
      </trkpt>
      <trkpt lat="48.21808" lon="6.6863">
        <ele>529</ele>
        <time>2026-09-03T13:19:28.000Z</time>
      </trkpt>
      <trkpt lat="48.21809" lon="6.68629">
        <ele>529</ele>
        <time>2026-09-03T13:19:29.000Z</time>
      </trkpt>
      <trkpt lat="48.2181" lon="6.68628">
        <ele>528.80004882812</ele>
        <time>2026-09-03T13:19:30.000Z</time>
      </trkpt>
      <trkpt lat="48.21811" lon="6.68627">
        <ele>528.80004882812</ele>
        <time>2026-09-03T13:19:31.000Z</time>
      </trkpt>
      <trkpt lat="48.21812" lon="6.68626">
        <ele>528.80004882812</ele>
        <time>2026-09-03T13:19:32.000Z</time>
      </trkpt>
      <trkpt lat="48.21813" lon="6.68625">
        <ele>528.80004882812</ele>
        <time>2026-09-03T13:19:33.000Z</time>
      </trkpt>
      <trkpt lat="48.21814" lon="6.68624">
        <ele>528.80004882812</ele>
        <time>2026-09-03T13:19:34.000Z</time>
      </trkpt>
      <trkpt lat="48.21815" lon="6.68623">
        <ele>528.80004882812</ele>
        <time>2026-09-03T13:19:35.000Z</time>
      </trkpt>
      <trkpt lat="48.21816" lon="6.68623">
        <ele>528.80004882812</ele>
        <time>2026-09-03T13:19:36.000Z</time>
      </trkpt>
      <trkpt lat="48.21817" lon="6.68622">
        <ele>528.80004882812</ele>
        <time>2026-09-03T13:19:37.000Z</time>
      </trkpt>
      <trkpt lat="48.21818" lon="6.6862">
        <ele>528.59997558594</ele>
        <time>2026-09-03T13:19:38.000Z</time>
      </trkpt>
      <trkpt lat="48.21819" lon="6.68619">
        <ele>528.59997558594</ele>
        <time>2026-09-03T13:19:39.000Z</time>
      </trkpt>
      <trkpt lat="48.2182" lon="6.68618">
        <ele>528.59997558594</ele>
        <time>2026-09-03T13:19:40.000Z</time>
      </trkpt>
      <trkpt lat="48.2182" lon="6.68617">
        <ele>528.59997558594</ele>
        <time>2026-09-03T13:19:41.000Z</time>
      </trkpt>
      <trkpt lat="48.21821" lon="6.68616">
        <ele>528.80004882812</ele>
        <time>2026-09-03T13:19:42.000Z</time>
      </trkpt>
      <trkpt lat="48.21822" lon="6.68615">
        <ele>528.80004882812</ele>
        <time>2026-09-03T13:19:43.000Z</time>
      </trkpt>
      <trkpt lat="48.21824" lon="6.68614">
        <ele>528.59997558594</ele>
        <time>2026-09-03T13:19:44.000Z</time>
      </trkpt>
      <trkpt lat="48.21824" lon="6.68613">
        <ele>528.59997558594</ele>
        <time>2026-09-03T13:19:45.000Z</time>
      </trkpt>
      <trkpt lat="48.21825" lon="6.68612">
        <ele>528.59997558594</ele>
        <time>2026-09-03T13:19:46.000Z</time>
      </trkpt>
      <trkpt lat="48.21827" lon="6.68612">
        <ele>528.59997558594</ele>
        <time>2026-09-03T13:19:47.000Z</time>
      </trkpt>
      <trkpt lat="48.21827" lon="6.68611">
        <ele>528.40002441406</ele>
        <time>2026-09-03T13:19:48.000Z</time>
      </trkpt>
      <trkpt lat="48.21829" lon="6.68609">
        <ele>528.59997558594</ele>
        <time>2026-09-03T13:19:49.000Z</time>
      </trkpt>
      <trkpt lat="48.21829" lon="6.68608">
        <ele>528.59997558594</ele>
        <time>2026-09-03T13:19:50.000Z</time>
      </trkpt>
      <trkpt lat="48.2183" lon="6.68606">
        <ele>528.59997558594</ele>
        <time>2026-09-03T13:19:51.000Z</time>
      </trkpt>
      <trkpt lat="48.21831" lon="6.68605">
        <ele>528.80004882812</ele>
        <time>2026-09-03T13:19:52.000Z</time>
      </trkpt>
      <trkpt lat="48.21832" lon="6.68604">
        <ele>528.80004882812</ele>
        <time>2026-09-03T13:19:53.000Z</time>
      </trkpt>
      <trkpt lat="48.21833" lon="6.68603">
        <ele>528.80004882812</ele>
        <time>2026-09-03T13:19:54.000Z</time>
      </trkpt>
      <trkpt lat="48.21833" lon="6.68602">
        <ele>528.80004882812</ele>
        <time>2026-09-03T13:19:55.000Z</time>
      </trkpt>
      <trkpt lat="48.21833" lon="6.68602">
        <ele>528.80004882812</ele>
        <time>2026-09-03T13:19:56.000Z</time>
      </trkpt>
      <trkpt lat="48.21833" lon="6.68602">
        <ele>529</ele>
        <time>2026-09-03T13:19:57.000Z</time>
      </trkpt>
      <trkpt lat="48.21833" lon="6.68602">
        <ele>529</ele>
        <time>2026-09-03T13:19:58.000Z</time>
      </trkpt>
      <trkpt lat="48.21832" lon="6.68601">
        <ele>529.19995117188</ele>
        <time>2026-09-03T13:19:59.000Z</time>
      </trkpt>
      <trkpt lat="48.21832" lon="6.68601">
        <ele>529.19995117188</ele>
        <time>2026-09-03T13:20:00.000Z</time>
      </trkpt>
      <trkpt lat="48.21831" lon="6.686">
        <ele>529.40002441406</ele>
        <time>2026-09-03T13:20:01.000Z</time>
      </trkpt>
      <trkpt lat="48.21831" lon="6.68599">
        <ele>529.40002441406</ele>
        <time>2026-09-03T13:20:02.000Z</time>
      </trkpt>
      <trkpt lat="48.21831" lon="6.68597">
        <ele>529.59997558594</ele>
        <time>2026-09-03T13:20:03.000Z</time>
      </trkpt>
      <trkpt lat="48.2183" lon="6.68597">
        <ele>529.59997558594</ele>
        <time>2026-09-03T13:20:04.000Z</time>
      </trkpt>
      <trkpt lat="48.2183" lon="6.68596">
        <ele>529.80004882812</ele>
        <time>2026-09-03T13:20:05.000Z</time>
      </trkpt>
      <trkpt lat="48.2183" lon="6.68595">
        <ele>529.80004882812</ele>
        <time>2026-09-03T13:20:06.000Z</time>
      </trkpt>
      <trkpt lat="48.21828" lon="6.68595">
        <ele>530</ele>
        <time>2026-09-03T13:20:07.000Z</time>
      </trkpt>
      <trkpt lat="48.21827" lon="6.68594">
        <ele>530</ele>
        <time>2026-09-03T13:20:08.000Z</time>
      </trkpt>
      <trkpt lat="48.21827" lon="6.68593">
        <ele>530.19995117188</ele>
        <time>2026-09-03T13:20:09.000Z</time>
      </trkpt>
      <trkpt lat="48.21827" lon="6.68591">
        <ele>530.19995117188</ele>
        <time>2026-09-03T13:20:10.000Z</time>
      </trkpt>
      <trkpt lat="48.21826" lon="6.6859">
        <ele>530.19995117188</ele>
        <time>2026-09-03T13:20:11.000Z</time>
      </trkpt>
      <trkpt lat="48.21825" lon="6.6859">
        <ele>530.19995117188</ele>
        <time>2026-09-03T13:20:12.000Z</time>
      </trkpt>
      <trkpt lat="48.21824" lon="6.6859">
        <ele>530.19995117188</ele>
        <time>2026-09-03T13:20:13.000Z</time>
      </trkpt>
      <trkpt lat="48.21824" lon="6.6859">
        <ele>530.19995117188</ele>
        <time>2026-09-03T13:20:14.000Z</time>
      </trkpt>
      <trkpt lat="48.21823" lon="6.6859">
        <ele>530.19995117188</ele>
        <time>2026-09-03T13:20:15.000Z</time>
      </trkpt>
      <trkpt lat="48.21822" lon="6.6859">
        <ele>530.19995117188</ele>
        <time>2026-09-03T13:20:16.000Z</time>
      </trkpt>
      <trkpt lat="48.21821" lon="6.68589">
        <ele>530.40002441406</ele>
        <time>2026-09-03T13:20:17.000Z</time>
      </trkpt>
      <trkpt lat="48.21819" lon="6.68588">
        <ele>530.40002441406</ele>
        <time>2026-09-03T13:20:18.000Z</time>
      </trkpt>
      <trkpt lat="48.21818" lon="6.68587">
        <ele>530.40002441406</ele>
        <time>2026-09-03T13:20:19.000Z</time>
      </trkpt>
      <trkpt lat="48.21816" lon="6.68586">
        <ele>530.40002441406</ele>
        <time>2026-09-03T13:20:20.000Z</time>
      </trkpt>
      <trkpt lat="48.21815" lon="6.68585">
        <ele>530.40002441406</ele>
        <time>2026-09-03T13:20:21.000Z</time>
      </trkpt>
      <trkpt lat="48.21815" lon="6.68585">
        <ele>530.40002441406</ele>
        <time>2026-09-03T13:20:22.000Z</time>
      </trkpt>
      <trkpt lat="48.21815" lon="6.68585">
        <ele>530.19995117188</ele>
        <time>2026-09-03T13:20:23.000Z</time>
      </trkpt>
      <trkpt lat="48.21814" lon="6.68584">
        <ele>530.19995117188</ele>
        <time>2026-09-03T13:20:24.000Z</time>
      </trkpt>
      <trkpt lat="48.21814" lon="6.68583">
        <ele>530.19995117188</ele>
        <time>2026-09-03T13:20:25.000Z</time>
      </trkpt>
      <trkpt lat="48.21814" lon="6.68583">
        <ele>530.19995117188</ele>
        <time>2026-09-03T13:20:26.000Z</time>
      </trkpt>
      <trkpt lat="48.21813" lon="6.68582">
        <ele>530.19995117188</ele>
        <time>2026-09-03T13:20:27.000Z</time>
      </trkpt>
      <trkpt lat="48.21811" lon="6.68582">
        <ele>530.19995117188</ele>
        <time>2026-09-03T13:20:28.000Z</time>
      </trkpt>
      <trkpt lat="48.2181" lon="6.6858">
        <ele>530.19995117188</ele>
        <time>2026-09-03T13:20:29.000Z</time>
      </trkpt>
      <trkpt lat="48.21809" lon="6.68579">
        <ele>530.19995117188</ele>
        <time>2026-09-03T13:20:30.000Z</time>
      </trkpt>
      <trkpt lat="48.21809" lon="6.68578">
        <ele>530.19995117188</ele>
        <time>2026-09-03T13:20:31.000Z</time>
      </trkpt>
      <trkpt lat="48.21808" lon="6.68578">
        <ele>530.19995117188</ele>
        <time>2026-09-03T13:20:32.000Z</time>
      </trkpt>
      <trkpt lat="48.21808" lon="6.68576">
        <ele>530.19995117188</ele>
        <time>2026-09-03T13:20:33.000Z</time>
      </trkpt>
      <trkpt lat="48.21806" lon="6.68575">
        <ele>530.19995117188</ele>
        <time>2026-09-03T13:20:34.000Z</time>
      </trkpt>
      <trkpt lat="48.21805" lon="6.68573">
        <ele>530</ele>
        <time>2026-09-03T13:20:35.000Z</time>
      </trkpt>
      <trkpt lat="48.21804" lon="6.68572">
        <ele>530</ele>
        <time>2026-09-03T13:20:36.000Z</time>
      </trkpt>
      <trkpt lat="48.21803" lon="6.68572">
        <ele>530</ele>
        <time>2026-09-03T13:20:37.000Z</time>
      </trkpt>
      <trkpt lat="48.21802" lon="6.68571">
        <ele>530</ele>
        <time>2026-09-03T13:20:38.000Z</time>
      </trkpt>
      <trkpt lat="48.21801" lon="6.6857">
        <ele>530</ele>
        <time>2026-09-03T13:20:39.000Z</time>
      </trkpt>
      <trkpt lat="48.218" lon="6.6857">
        <ele>530</ele>
        <time>2026-09-03T13:20:40.000Z</time>
      </trkpt>
      <trkpt lat="48.218" lon="6.6857">
        <ele>530</ele>
        <time>2026-09-03T13:20:41.000Z</time>
      </trkpt>
      <trkpt lat="48.21799" lon="6.68571">
        <ele>530</ele>
        <time>2026-09-03T13:20:42.000Z</time>
      </trkpt>
      <trkpt lat="48.21798" lon="6.68571">
        <ele>530</ele>
        <time>2026-09-03T13:20:43.000Z</time>
      </trkpt>
      <trkpt lat="48.21797" lon="6.68571">
        <ele>529.80004882812</ele>
        <time>2026-09-03T13:20:44.000Z</time>
      </trkpt>
      <trkpt lat="48.21796" lon="6.68572">
        <ele>529.80004882812</ele>
        <time>2026-09-03T13:20:45.000Z</time>
      </trkpt>
      <trkpt lat="48.21796" lon="6.68573">
        <ele>529.59997558594</ele>
        <time>2026-09-03T13:20:46.000Z</time>
      </trkpt>
      <trkpt lat="48.21795" lon="6.68573">
        <ele>529.59997558594</ele>
        <time>2026-09-03T13:20:47.000Z</time>
      </trkpt>
      <trkpt lat="48.21794" lon="6.68573">
        <ele>529.59997558594</ele>
        <time>2026-09-03T13:20:48.000Z</time>
      </trkpt>
      <trkpt lat="48.21793" lon="6.68574">
        <ele>529.59997558594</ele>
        <time>2026-09-03T13:20:49.000Z</time>
      </trkpt>
      <trkpt lat="48.21792" lon="6.68575">
        <ele>529.40002441406</ele>
        <time>2026-09-03T13:20:50.000Z</time>
      </trkpt>
      <trkpt lat="48.21791" lon="6.68573">
        <ele>529.40002441406</ele>
        <time>2026-09-03T13:20:51.000Z</time>
      </trkpt>
      <trkpt lat="48.2179" lon="6.68572">
        <ele>529.40002441406</ele>
        <time>2026-09-03T13:20:52.000Z</time>
      </trkpt>
      <trkpt lat="48.2179" lon="6.68572">
        <ele>529.40002441406</ele>
        <time>2026-09-03T13:20:53.000Z</time>
      </trkpt>
      <trkpt lat="48.21789" lon="6.68571">
        <ele>529.19995117188</ele>
        <time>2026-09-03T13:20:54.000Z</time>
      </trkpt>
      <trkpt lat="48.21788" lon="6.6857">
        <ele>529.19995117188</ele>
        <time>2026-09-03T13:20:55.000Z</time>
      </trkpt>
      <trkpt lat="48.21787" lon="6.68569">
        <ele>529</ele>
        <time>2026-09-03T13:20:56.000Z</time>
      </trkpt>
      <trkpt lat="48.21786" lon="6.68569">
        <ele>529</ele>
        <time>2026-09-03T13:20:57.000Z</time>
      </trkpt>
      <trkpt lat="48.21785" lon="6.68568">
        <ele>529</ele>
        <time>2026-09-03T13:20:58.000Z</time>
      </trkpt>
      <trkpt lat="48.21785" lon="6.68567">
        <ele>528.80004882812</ele>
        <time>2026-09-03T13:20:59.000Z</time>
      </trkpt>
      <trkpt lat="48.21784" lon="6.68566">
        <ele>528.59997558594</ele>
        <time>2026-09-03T13:21:00.000Z</time>
      </trkpt>
      <trkpt lat="48.21784" lon="6.68565">
        <ele>528.59997558594</ele>
        <time>2026-09-03T13:21:01.000Z</time>
      </trkpt>
      <trkpt lat="48.21783" lon="6.68564">
        <ele>528.19995117188</ele>
        <time>2026-09-03T13:21:02.000Z</time>
      </trkpt>
      <trkpt lat="48.21782" lon="6.68563">
        <ele>528.19995117188</ele>
        <time>2026-09-03T13:21:03.000Z</time>
      </trkpt>
      <trkpt lat="48.21782" lon="6.68562">
        <ele>528</ele>
        <time>2026-09-03T13:21:04.000Z</time>
      </trkpt>
      <trkpt lat="48.21781" lon="6.6856">
        <ele>527.80004882812</ele>
        <time>2026-09-03T13:21:05.000Z</time>
      </trkpt>
      <trkpt lat="48.21781" lon="6.68558">
        <ele>527.80004882812</ele>
        <time>2026-09-03T13:21:06.000Z</time>
      </trkpt>
      <trkpt lat="48.2178" lon="6.68557">
        <ele>527.59997558594</ele>
        <time>2026-09-03T13:21:07.000Z</time>
      </trkpt>
      <trkpt lat="48.21779" lon="6.68556">
        <ele>527.59997558594</ele>
        <time>2026-09-03T13:21:08.000Z</time>
      </trkpt>
      <trkpt lat="48.21779" lon="6.68555">
        <ele>527.59997558594</ele>
        <time>2026-09-03T13:21:09.000Z</time>
      </trkpt>
      <trkpt lat="48.21778" lon="6.68555">
        <ele>527.59997558594</ele>
        <time>2026-09-03T13:21:10.000Z</time>
      </trkpt>
      <trkpt lat="48.21777" lon="6.68554">
        <ele>527.40002441406</ele>
        <time>2026-09-03T13:21:11.000Z</time>
      </trkpt>
      <trkpt lat="48.21776" lon="6.68555">
        <ele>527.40002441406</ele>
        <time>2026-09-03T13:21:12.000Z</time>
      </trkpt>
      <trkpt lat="48.21775" lon="6.68555">
        <ele>527.40002441406</ele>
        <time>2026-09-03T13:21:13.000Z</time>
      </trkpt>
      <trkpt lat="48.21774" lon="6.68555">
        <ele>527.19995117188</ele>
        <time>2026-09-03T13:21:14.000Z</time>
      </trkpt>
      <trkpt lat="48.21773" lon="6.68555">
        <ele>527</ele>
        <time>2026-09-03T13:21:15.000Z</time>
      </trkpt>
      <trkpt lat="48.21772" lon="6.68554">
        <ele>527</ele>
        <time>2026-09-03T13:21:16.000Z</time>
      </trkpt>
      <trkpt lat="48.21771" lon="6.68554">
        <ele>526.80004882812</ele>
        <time>2026-09-03T13:21:17.000Z</time>
      </trkpt>
      <trkpt lat="48.2177" lon="6.68553">
        <ele>526.80004882812</ele>
        <time>2026-09-03T13:21:18.000Z</time>
      </trkpt>
      <trkpt lat="48.2177" lon="6.68553">
        <ele>526.59997558594</ele>
        <time>2026-09-03T13:21:19.000Z</time>
      </trkpt>
      <trkpt lat="48.21769" lon="6.68553">
        <ele>526.59997558594</ele>
        <time>2026-09-03T13:21:20.000Z</time>
      </trkpt>
      <trkpt lat="48.21769" lon="6.68552">
        <ele>526.40002441406</ele>
        <time>2026-09-03T13:21:21.000Z</time>
      </trkpt>
      <trkpt lat="48.21768" lon="6.68551">
        <ele>526.19995117188</ele>
        <time>2026-09-03T13:21:22.000Z</time>
      </trkpt>
      <trkpt lat="48.21767" lon="6.68551">
        <ele>526.19995117188</ele>
        <time>2026-09-03T13:21:23.000Z</time>
      </trkpt>
      <trkpt lat="48.21766" lon="6.68549">
        <ele>526</ele>
        <time>2026-09-03T13:21:24.000Z</time>
      </trkpt>
      <trkpt lat="48.21766" lon="6.68549">
        <ele>525.80004882812</ele>
        <time>2026-09-03T13:21:25.000Z</time>
      </trkpt>
      <trkpt lat="48.21765" lon="6.68548">
        <ele>525.59997558594</ele>
        <time>2026-09-03T13:21:26.000Z</time>
      </trkpt>
      <trkpt lat="48.21765" lon="6.68547">
        <ele>525.59997558594</ele>
        <time>2026-09-03T13:21:27.000Z</time>
      </trkpt>
      <trkpt lat="48.21764" lon="6.68547">
        <ele>525.40002441406</ele>
        <time>2026-09-03T13:21:28.000Z</time>
      </trkpt>
      <trkpt lat="48.21764" lon="6.68547">
        <ele>525.40002441406</ele>
        <time>2026-09-03T13:21:29.000Z</time>
      </trkpt>
      <trkpt lat="48.21763" lon="6.68546">
        <ele>525.19995117188</ele>
        <time>2026-09-03T13:21:30.000Z</time>
      </trkpt>
      <trkpt lat="48.21762" lon="6.68545">
        <ele>525.19995117188</ele>
        <time>2026-09-03T13:21:31.000Z</time>
      </trkpt>
      <trkpt lat="48.21761" lon="6.68544">
        <ele>525</ele>
        <time>2026-09-03T13:21:32.000Z</time>
      </trkpt>
      <trkpt lat="48.2176" lon="6.68543">
        <ele>524.80004882812</ele>
        <time>2026-09-03T13:21:33.000Z</time>
      </trkpt>
      <trkpt lat="48.21759" lon="6.68542">
        <ele>524.80004882812</ele>
        <time>2026-09-03T13:21:34.000Z</time>
      </trkpt>
      <trkpt lat="48.21759" lon="6.68542">
        <ele>524.59997558594</ele>
        <time>2026-09-03T13:21:35.000Z</time>
      </trkpt>
      <trkpt lat="48.21758" lon="6.68542">
        <ele>524.40002441406</ele>
        <time>2026-09-03T13:21:36.000Z</time>
      </trkpt>
      <trkpt lat="48.21758" lon="6.68541">
        <ele>524.40002441406</ele>
        <time>2026-09-03T13:21:37.000Z</time>
      </trkpt>
      <trkpt lat="48.21757" lon="6.6854">
        <ele>524.19995117188</ele>
        <time>2026-09-03T13:21:38.000Z</time>
      </trkpt>
      <trkpt lat="48.21757" lon="6.68539">
        <ele>524.19995117188</ele>
        <time>2026-09-03T13:21:39.000Z</time>
      </trkpt>
      <trkpt lat="48.21756" lon="6.68538">
        <ele>524</ele>
        <time>2026-09-03T13:21:40.000Z</time>
      </trkpt>
      <trkpt lat="48.21755" lon="6.68538">
        <ele>524</ele>
        <time>2026-09-03T13:21:41.000Z</time>
      </trkpt>
      <trkpt lat="48.21754" lon="6.68537">
        <ele>523.79998779297</ele>
        <time>2026-09-03T13:21:42.000Z</time>
      </trkpt>
      <trkpt lat="48.21753" lon="6.68537">
        <ele>523.59997558594</ele>
        <time>2026-09-03T13:21:43.000Z</time>
      </trkpt>
      <trkpt lat="48.21752" lon="6.68536">
        <ele>523.40002441406</ele>
        <time>2026-09-03T13:21:44.000Z</time>
      </trkpt>
      <trkpt lat="48.21751" lon="6.68536">
        <ele>523.40002441406</ele>
        <time>2026-09-03T13:21:45.000Z</time>
      </trkpt>
      <trkpt lat="48.2175" lon="6.68535">
        <ele>523.20001220703</ele>
        <time>2026-09-03T13:21:46.000Z</time>
      </trkpt>
      <trkpt lat="48.2175" lon="6.68535">
        <ele>523</ele>
        <time>2026-09-03T13:21:47.000Z</time>
      </trkpt>
      <trkpt lat="48.21749" lon="6.68534">
        <ele>522.79998779297</ele>
        <time>2026-09-03T13:21:48.000Z</time>
      </trkpt>
      <trkpt lat="48.21748" lon="6.68533">
        <ele>522.59997558594</ele>
        <time>2026-09-03T13:21:49.000Z</time>
      </trkpt>
      <trkpt lat="48.21748" lon="6.68532">
        <ele>522.59997558594</ele>
        <time>2026-09-03T13:21:50.000Z</time>
      </trkpt>
      <trkpt lat="48.21747" lon="6.68532">
        <ele>522.40002441406</ele>
        <time>2026-09-03T13:21:51.000Z</time>
      </trkpt>
      <trkpt lat="48.21746" lon="6.68532">
        <ele>522.20001220703</ele>
        <time>2026-09-03T13:21:52.000Z</time>
      </trkpt>
      <trkpt lat="48.21745" lon="6.68531">
        <ele>522</ele>
        <time>2026-09-03T13:21:53.000Z</time>
      </trkpt>
      <trkpt lat="48.21744" lon="6.68531">
        <ele>522</ele>
        <time>2026-09-03T13:21:54.000Z</time>
      </trkpt>
      <trkpt lat="48.21744" lon="6.6853">
        <ele>521.79998779297</ele>
        <time>2026-09-03T13:21:55.000Z</time>
      </trkpt>
      <trkpt lat="48.21743" lon="6.6853">
        <ele>521.59997558594</ele>
        <time>2026-09-03T13:21:56.000Z</time>
      </trkpt>
      <trkpt lat="48.21742" lon="6.68529">
        <ele>521.40002441406</ele>
        <time>2026-09-03T13:21:57.000Z</time>
      </trkpt>
      <trkpt lat="48.21741" lon="6.68529">
        <ele>521.20001220703</ele>
        <time>2026-09-03T13:21:58.000Z</time>
      </trkpt>
      <trkpt lat="48.2174" lon="6.68528">
        <ele>521</ele>
        <time>2026-09-03T13:21:59.000Z</time>
      </trkpt>
      <trkpt lat="48.21739" lon="6.68528">
        <ele>520.79998779297</ele>
        <time>2026-09-03T13:22:00.000Z</time>
      </trkpt>
      <trkpt lat="48.21738" lon="6.68527">
        <ele>520.59997558594</ele>
        <time>2026-09-03T13:22:01.000Z</time>
      </trkpt>
      <trkpt lat="48.21737" lon="6.68527">
        <ele>520.59997558594</ele>
        <time>2026-09-03T13:22:02.000Z</time>
      </trkpt>
      <trkpt lat="48.21737" lon="6.68526">
        <ele>520.40002441406</ele>
        <time>2026-09-03T13:22:03.000Z</time>
      </trkpt>
      <trkpt lat="48.21737" lon="6.68525">
        <ele>520.20001220703</ele>
        <time>2026-09-03T13:22:04.000Z</time>
      </trkpt>
      <trkpt lat="48.21736" lon="6.68526">
        <ele>520.20001220703</ele>
        <time>2026-09-03T13:22:05.000Z</time>
      </trkpt>
      <trkpt lat="48.21736" lon="6.68526">
        <ele>520</ele>
        <time>2026-09-03T13:22:06.000Z</time>
      </trkpt>
      <trkpt lat="48.21735" lon="6.68525">
        <ele>519.79998779297</ele>
        <time>2026-09-03T13:22:07.000Z</time>
      </trkpt>
      <trkpt lat="48.21735" lon="6.68524">
        <ele>519.59997558594</ele>
        <time>2026-09-03T13:22:08.000Z</time>
      </trkpt>
      <trkpt lat="48.21734" lon="6.68523">
        <ele>519.40002441406</ele>
        <time>2026-09-03T13:22:09.000Z</time>
      </trkpt>
      <trkpt lat="48.21734" lon="6.68523">
        <ele>519.20001220703</ele>
        <time>2026-09-03T13:22:10.000Z</time>
      </trkpt>
      <trkpt lat="48.21733" lon="6.68523">
        <ele>519</ele>
        <time>2026-09-03T13:22:11.000Z</time>
      </trkpt>
      <trkpt lat="48.21732" lon="6.68522">
        <ele>518.79998779297</ele>
        <time>2026-09-03T13:22:12.000Z</time>
      </trkpt>
      <trkpt lat="48.21731" lon="6.68522">
        <ele>518.59997558594</ele>
        <time>2026-09-03T13:22:13.000Z</time>
      </trkpt>
      <trkpt lat="48.2173" lon="6.68521">
        <ele>518.40002441406</ele>
        <time>2026-09-03T13:22:14.000Z</time>
      </trkpt>
      <trkpt lat="48.21729" lon="6.68521">
        <ele>518.20001220703</ele>
        <time>2026-09-03T13:22:15.000Z</time>
      </trkpt>
      <trkpt lat="48.21729" lon="6.68521">
        <ele>518</ele>
        <time>2026-09-03T13:22:16.000Z</time>
      </trkpt>
      <trkpt lat="48.21729" lon="6.68521">
        <ele>518</ele>
        <time>2026-09-03T13:22:17.000Z</time>
      </trkpt>
      <trkpt lat="48.21728" lon="6.6852">
        <ele>517.79998779297</ele>
        <time>2026-09-03T13:22:18.000Z</time>
      </trkpt>
      <trkpt lat="48.21727" lon="6.68519">
        <ele>517.40002441406</ele>
        <time>2026-09-03T13:22:19.000Z</time>
      </trkpt>
      <trkpt lat="48.21727" lon="6.68518">
        <ele>517.20001220703</ele>
        <time>2026-09-03T13:22:20.000Z</time>
      </trkpt>
      <trkpt lat="48.21726" lon="6.68518">
        <ele>517</ele>
        <time>2026-09-03T13:22:21.000Z</time>
      </trkpt>
      <trkpt lat="48.21726" lon="6.68517">
        <ele>516.79998779297</ele>
        <time>2026-09-03T13:22:22.000Z</time>
      </trkpt>
      <trkpt lat="48.21725" lon="6.68516">
        <ele>516.59997558594</ele>
        <time>2026-09-03T13:22:23.000Z</time>
      </trkpt>
      <trkpt lat="48.21724" lon="6.68516">
        <ele>516.40002441406</ele>
        <time>2026-09-03T13:22:24.000Z</time>
      </trkpt>
      <trkpt lat="48.21724" lon="6.68516">
        <ele>516.20001220703</ele>
        <time>2026-09-03T13:22:25.000Z</time>
      </trkpt>
      <trkpt lat="48.21723" lon="6.68516">
        <ele>516.20001220703</ele>
        <time>2026-09-03T13:22:26.000Z</time>
      </trkpt>
      <trkpt lat="48.21722" lon="6.68516">
        <ele>516</ele>
        <time>2026-09-03T13:22:27.000Z</time>
      </trkpt>
      <trkpt lat="48.21721" lon="6.68515">
        <ele>516</ele>
        <time>2026-09-03T13:22:28.000Z</time>
      </trkpt>
      <trkpt lat="48.21721" lon="6.68515">
        <ele>516</ele>
        <time>2026-09-03T13:22:29.000Z</time>
      </trkpt>
      <trkpt lat="48.2172" lon="6.68514">
        <ele>515.79998779297</ele>
        <time>2026-09-03T13:22:30.000Z</time>
      </trkpt>
      <trkpt lat="48.2172" lon="6.68514">
        <ele>515.59997558594</ele>
        <time>2026-09-03T13:22:31.000Z</time>
      </trkpt>
      <trkpt lat="48.21719" lon="6.68513">
        <ele>515.40002441406</ele>
        <time>2026-09-03T13:22:32.000Z</time>
      </trkpt>
      <trkpt lat="48.21719" lon="6.68513">
        <ele>515.20001220703</ele>
        <time>2026-09-03T13:22:33.000Z</time>
      </trkpt>
      <trkpt lat="48.21719" lon="6.68513">
        <ele>515</ele>
        <time>2026-09-03T13:22:34.000Z</time>
      </trkpt>
      <trkpt lat="48.21717" lon="6.68512">
        <ele>514.59997558594</ele>
        <time>2026-09-03T13:22:35.000Z</time>
      </trkpt>
      <trkpt lat="48.21717" lon="6.68512">
        <ele>514.40002441406</ele>
        <time>2026-09-03T13:22:36.000Z</time>
      </trkpt>
      <trkpt lat="48.21716" lon="6.68511">
        <ele>514.40002441406</ele>
        <time>2026-09-03T13:22:37.000Z</time>
      </trkpt>
      <trkpt lat="48.21715" lon="6.68511">
        <ele>514.20001220703</ele>
        <time>2026-09-03T13:22:38.000Z</time>
      </trkpt>
      <trkpt lat="48.21715" lon="6.6851">
        <ele>514</ele>
        <time>2026-09-03T13:22:39.000Z</time>
      </trkpt>
      <trkpt lat="48.21713" lon="6.6851">
        <ele>514</ele>
        <time>2026-09-03T13:22:40.000Z</time>
      </trkpt>
      <trkpt lat="48.21712" lon="6.68509">
        <ele>513.79998779297</ele>
        <time>2026-09-03T13:22:41.000Z</time>
      </trkpt>
      <trkpt lat="48.21712" lon="6.68509">
        <ele>513.59997558594</ele>
        <time>2026-09-03T13:22:42.000Z</time>
      </trkpt>
      <trkpt lat="48.21711" lon="6.68508">
        <ele>513.40002441406</ele>
        <time>2026-09-03T13:22:43.000Z</time>
      </trkpt>
      <trkpt lat="48.2171" lon="6.68508">
        <ele>513.20001220703</ele>
        <time>2026-09-03T13:22:44.000Z</time>
      </trkpt>
      <trkpt lat="48.21709" lon="6.68507">
        <ele>513</ele>
        <time>2026-09-03T13:22:45.000Z</time>
      </trkpt>
      <trkpt lat="48.21709" lon="6.68507">
        <ele>512.79998779297</ele>
        <time>2026-09-03T13:22:46.000Z</time>
      </trkpt>
      <trkpt lat="48.21708" lon="6.68506">
        <ele>512.59997558594</ele>
        <time>2026-09-03T13:22:47.000Z</time>
      </trkpt>
      <trkpt lat="48.21707" lon="6.68506">
        <ele>512.40002441406</ele>
        <time>2026-09-03T13:22:48.000Z</time>
      </trkpt>
      <trkpt lat="48.21707" lon="6.68506">
        <ele>512.20001220703</ele>
        <time>2026-09-03T13:22:49.000Z</time>
      </trkpt>
      <trkpt lat="48.21706" lon="6.68506">
        <ele>512</ele>
        <time>2026-09-03T13:22:50.000Z</time>
      </trkpt>
      <trkpt lat="48.21706" lon="6.68505">
        <ele>511.79998779297</ele>
        <time>2026-09-03T13:22:51.000Z</time>
      </trkpt>
      <trkpt lat="48.21706" lon="6.68504">
        <ele>511.59997558594</ele>
        <time>2026-09-03T13:22:52.000Z</time>
      </trkpt>
      <trkpt lat="48.21705" lon="6.68503">
        <ele>511.59997558594</ele>
        <time>2026-09-03T13:22:53.000Z</time>
      </trkpt>
      <trkpt lat="48.21704" lon="6.68501">
        <ele>511.40002441406</ele>
        <time>2026-09-03T13:22:54.000Z</time>
      </trkpt>
      <trkpt lat="48.21704" lon="6.685">
        <ele>511.20001220703</ele>
        <time>2026-09-03T13:22:55.000Z</time>
      </trkpt>
      <trkpt lat="48.21704" lon="6.68499">
        <ele>511</ele>
        <time>2026-09-03T13:22:56.000Z</time>
      </trkpt>
      <trkpt lat="48.21703" lon="6.68498">
        <ele>510.79998779297</ele>
        <time>2026-09-03T13:22:57.000Z</time>
      </trkpt>
      <trkpt lat="48.21702" lon="6.68497">
        <ele>510.79998779297</ele>
        <time>2026-09-03T13:22:58.000Z</time>
      </trkpt>
      <trkpt lat="48.21702" lon="6.68496">
        <ele>510.79998779297</ele>
        <time>2026-09-03T13:22:59.000Z</time>
      </trkpt>
      <trkpt lat="48.21702" lon="6.68494">
        <ele>510.59997558594</ele>
        <time>2026-09-03T13:23:00.000Z</time>
      </trkpt>
      <trkpt lat="48.217" lon="6.68494">
        <ele>510.59997558594</ele>
        <time>2026-09-03T13:23:01.000Z</time>
      </trkpt>
      <trkpt lat="48.217" lon="6.68494">
        <ele>510.40002441406</ele>
        <time>2026-09-03T13:23:02.000Z</time>
      </trkpt>
      <trkpt lat="48.21699" lon="6.68493">
        <ele>510.40002441406</ele>
        <time>2026-09-03T13:23:03.000Z</time>
      </trkpt>
      <trkpt lat="48.21698" lon="6.68492">
        <ele>510.40002441406</ele>
        <time>2026-09-03T13:23:04.000Z</time>
      </trkpt>
      <trkpt lat="48.21697" lon="6.68491">
        <ele>510.40002441406</ele>
        <time>2026-09-03T13:23:05.000Z</time>
      </trkpt>
      <trkpt lat="48.21697" lon="6.68489">
        <ele>510.40002441406</ele>
        <time>2026-09-03T13:23:06.000Z</time>
      </trkpt>
      <trkpt lat="48.21696" lon="6.68489">
        <ele>510.40002441406</ele>
        <time>2026-09-03T13:23:07.000Z</time>
      </trkpt>
      <trkpt lat="48.21695" lon="6.68488">
        <ele>510.40002441406</ele>
        <time>2026-09-03T13:23:08.000Z</time>
      </trkpt>
      <trkpt lat="48.21695" lon="6.68487">
        <ele>510.40002441406</ele>
        <time>2026-09-03T13:23:09.000Z</time>
      </trkpt>
      <trkpt lat="48.21694" lon="6.68487">
        <ele>510.20001220703</ele>
        <time>2026-09-03T13:23:10.000Z</time>
      </trkpt>
      <trkpt lat="48.21693" lon="6.68486">
        <ele>510.20001220703</ele>
        <time>2026-09-03T13:23:11.000Z</time>
      </trkpt>
      <trkpt lat="48.21692" lon="6.68486">
        <ele>510</ele>
        <time>2026-09-03T13:23:12.000Z</time>
      </trkpt>
      <trkpt lat="48.2169" lon="6.68485">
        <ele>510</ele>
        <time>2026-09-03T13:23:13.000Z</time>
      </trkpt>
      <trkpt lat="48.2169" lon="6.68484">
        <ele>510</ele>
        <time>2026-09-03T13:23:14.000Z</time>
      </trkpt>
      <trkpt lat="48.21689" lon="6.68484">
        <ele>510</ele>
        <time>2026-09-03T13:23:15.000Z</time>
      </trkpt>
      <trkpt lat="48.21689" lon="6.68483">
        <ele>510.20001220703</ele>
        <time>2026-09-03T13:23:16.000Z</time>
      </trkpt>
      <trkpt lat="48.21687" lon="6.68483">
        <ele>510.20001220703</ele>
        <time>2026-09-03T13:23:17.000Z</time>
      </trkpt>
      <trkpt lat="48.21686" lon="6.68482">
        <ele>510.40002441406</ele>
        <time>2026-09-03T13:23:18.000Z</time>
      </trkpt>
      <trkpt lat="48.21685" lon="6.68482">
        <ele>510.40002441406</ele>
        <time>2026-09-03T13:23:19.000Z</time>
      </trkpt>
      <trkpt lat="48.21684" lon="6.68482">
        <ele>510.59997558594</ele>
        <time>2026-09-03T13:23:20.000Z</time>
      </trkpt>
      <trkpt lat="48.21683" lon="6.6848">
        <ele>510.59997558594</ele>
        <time>2026-09-03T13:23:21.000Z</time>
      </trkpt>
      <trkpt lat="48.21682" lon="6.68479">
        <ele>510.59997558594</ele>
        <time>2026-09-03T13:23:22.000Z</time>
      </trkpt>
      <trkpt lat="48.21681" lon="6.68479">
        <ele>510.59997558594</ele>
        <time>2026-09-03T13:23:23.000Z</time>
      </trkpt>
      <trkpt lat="48.2168" lon="6.68478">
        <ele>510.59997558594</ele>
        <time>2026-09-03T13:23:24.000Z</time>
      </trkpt>
      <trkpt lat="48.21679" lon="6.68478">
        <ele>510.59997558594</ele>
        <time>2026-09-03T13:23:25.000Z</time>
      </trkpt>
      <trkpt lat="48.21678" lon="6.68477">
        <ele>510.59997558594</ele>
        <time>2026-09-03T13:23:26.000Z</time>
      </trkpt>
      <trkpt lat="48.21677" lon="6.68477">
        <ele>510.59997558594</ele>
        <time>2026-09-03T13:23:27.000Z</time>
      </trkpt>
      <trkpt lat="48.21676" lon="6.68476">
        <ele>510.59997558594</ele>
        <time>2026-09-03T13:23:28.000Z</time>
      </trkpt>
      <trkpt lat="48.21675" lon="6.68476">
        <ele>510.59997558594</ele>
        <time>2026-09-03T13:23:29.000Z</time>
      </trkpt>
      <trkpt lat="48.21674" lon="6.68475">
        <ele>510.59997558594</ele>
        <time>2026-09-03T13:23:30.000Z</time>
      </trkpt>
      <trkpt lat="48.21673" lon="6.68474">
        <ele>510.59997558594</ele>
        <time>2026-09-03T13:23:31.000Z</time>
      </trkpt>
      <trkpt lat="48.21672" lon="6.68472">
        <ele>510.59997558594</ele>
        <time>2026-09-03T13:23:32.000Z</time>
      </trkpt>
      <trkpt lat="48.21671" lon="6.68472">
        <ele>510.59997558594</ele>
        <time>2026-09-03T13:23:33.000Z</time>
      </trkpt>
      <trkpt lat="48.2167" lon="6.68471">
        <ele>510.59997558594</ele>
        <time>2026-09-03T13:23:34.000Z</time>
      </trkpt>
      <trkpt lat="48.21669" lon="6.6847">
        <ele>510.59997558594</ele>
        <time>2026-09-03T13:23:35.000Z</time>
      </trkpt>
      <trkpt lat="48.21669" lon="6.68469">
        <ele>510.59997558594</ele>
        <time>2026-09-03T13:23:36.000Z</time>
      </trkpt>
      <trkpt lat="48.21669" lon="6.68469">
        <ele>510.59997558594</ele>
        <time>2026-09-03T13:23:37.000Z</time>
      </trkpt>
      <trkpt lat="48.21669" lon="6.68469">
        <ele>510.59997558594</ele>
        <time>2026-09-03T13:23:38.000Z</time>
      </trkpt>
      <trkpt lat="48.21668" lon="6.68469">
        <ele>510.79998779297</ele>
        <time>2026-09-03T13:23:39.000Z</time>
      </trkpt>
      <trkpt lat="48.21667" lon="6.68469">
        <ele>510.79998779297</ele>
        <time>2026-09-03T13:23:40.000Z</time>
      </trkpt>
      <trkpt lat="48.21666" lon="6.68468">
        <ele>510.79998779297</ele>
        <time>2026-09-03T13:23:41.000Z</time>
      </trkpt>
      <trkpt lat="48.21665" lon="6.68468">
        <ele>511</ele>
        <time>2026-09-03T13:23:42.000Z</time>
      </trkpt>
      <trkpt lat="48.21665" lon="6.68467">
        <ele>511</ele>
        <time>2026-09-03T13:23:43.000Z</time>
      </trkpt>
      <trkpt lat="48.21664" lon="6.68467">
        <ele>511</ele>
        <time>2026-09-03T13:23:44.000Z</time>
      </trkpt>
      <trkpt lat="48.21664" lon="6.68467">
        <ele>511.20001220703</ele>
        <time>2026-09-03T13:23:45.000Z</time>
      </trkpt>
      <trkpt lat="48.21663" lon="6.68466">
        <ele>511.20001220703</ele>
        <time>2026-09-03T13:23:46.000Z</time>
      </trkpt>
      <trkpt lat="48.21662" lon="6.68466">
        <ele>511.20001220703</ele>
        <time>2026-09-03T13:23:47.000Z</time>
      </trkpt>
      <trkpt lat="48.21661" lon="6.68466">
        <ele>511.40002441406</ele>
        <time>2026-09-03T13:23:48.000Z</time>
      </trkpt>
      <trkpt lat="48.2166" lon="6.68466">
        <ele>511.59997558594</ele>
        <time>2026-09-03T13:23:49.000Z</time>
      </trkpt>
      <trkpt lat="48.21659" lon="6.68465">
        <ele>511.59997558594</ele>
        <time>2026-09-03T13:23:50.000Z</time>
      </trkpt>
      <trkpt lat="48.21658" lon="6.68465">
        <ele>511.79998779297</ele>
        <time>2026-09-03T13:23:51.000Z</time>
      </trkpt>
      <trkpt lat="48.21658" lon="6.68464">
        <ele>512</ele>
        <time>2026-09-03T13:23:52.000Z</time>
      </trkpt>
      <trkpt lat="48.21657" lon="6.68464">
        <ele>512.20001220703</ele>
        <time>2026-09-03T13:23:53.000Z</time>
      </trkpt>
      <trkpt lat="48.21656" lon="6.68463">
        <ele>512.40002441406</ele>
        <time>2026-09-03T13:23:54.000Z</time>
      </trkpt>
      <trkpt lat="48.21656" lon="6.68463">
        <ele>512.59997558594</ele>
        <time>2026-09-03T13:23:55.000Z</time>
      </trkpt>
      <trkpt lat="48.21656" lon="6.68462">
        <ele>512.79998779297</ele>
        <time>2026-09-03T13:23:56.000Z</time>
      </trkpt>
      <trkpt lat="48.21655" lon="6.68462">
        <ele>513</ele>
        <time>2026-09-03T13:23:57.000Z</time>
      </trkpt>
      <trkpt lat="48.21655" lon="6.68462">
        <ele>513</ele>
        <time>2026-09-03T13:23:58.000Z</time>
      </trkpt>
      <trkpt lat="48.21654" lon="6.68461">
        <ele>513.20001220703</ele>
        <time>2026-09-03T13:23:59.000Z</time>
      </trkpt>
      <trkpt lat="48.21654" lon="6.6846">
        <ele>513.40002441406</ele>
        <time>2026-09-03T13:24:00.000Z</time>
      </trkpt>
      <trkpt lat="48.21653" lon="6.6846">
        <ele>513.59997558594</ele>
        <time>2026-09-03T13:24:01.000Z</time>
      </trkpt>
      <trkpt lat="48.21653" lon="6.6846">
        <ele>513.59997558594</ele>
        <time>2026-09-03T13:24:02.000Z</time>
      </trkpt>
      <trkpt lat="48.21652" lon="6.68459">
        <ele>513.79998779297</ele>
        <time>2026-09-03T13:24:03.000Z</time>
      </trkpt>
      <trkpt lat="48.21651" lon="6.68458">
        <ele>513.79998779297</ele>
        <time>2026-09-03T13:24:04.000Z</time>
      </trkpt>
      <trkpt lat="48.21651" lon="6.68457">
        <ele>514</ele>
        <time>2026-09-03T13:24:05.000Z</time>
      </trkpt>
      <trkpt lat="48.21651" lon="6.68456">
        <ele>514.20001220703</ele>
        <time>2026-09-03T13:24:06.000Z</time>
      </trkpt>
      <trkpt lat="48.21649" lon="6.68455">
        <ele>514.40002441406</ele>
        <time>2026-09-03T13:24:07.000Z</time>
      </trkpt>
      <trkpt lat="48.21649" lon="6.68454">
        <ele>514.59997558594</ele>
        <time>2026-09-03T13:24:08.000Z</time>
      </trkpt>
      <trkpt lat="48.21649" lon="6.68453">
        <ele>514.79998779297</ele>
        <time>2026-09-03T13:24:09.000Z</time>
      </trkpt>
      <trkpt lat="48.21648" lon="6.68453">
        <ele>515</ele>
        <time>2026-09-03T13:24:10.000Z</time>
      </trkpt>
      <trkpt lat="48.21648" lon="6.68453">
        <ele>515.20001220703</ele>
        <time>2026-09-03T13:24:11.000Z</time>
      </trkpt>
      <trkpt lat="48.21647" lon="6.68452">
        <ele>515.20001220703</ele>
        <time>2026-09-03T13:24:12.000Z</time>
      </trkpt>
      <trkpt lat="48.21646" lon="6.68451">
        <ele>515.40002441406</ele>
        <time>2026-09-03T13:24:13.000Z</time>
      </trkpt>
      <trkpt lat="48.21646" lon="6.68451">
        <ele>515.59997558594</ele>
        <time>2026-09-03T13:24:14.000Z</time>
      </trkpt>
      <trkpt lat="48.21646" lon="6.6845">
        <ele>515.59997558594</ele>
        <time>2026-09-03T13:24:15.000Z</time>
      </trkpt>
      <trkpt lat="48.21645" lon="6.6845">
        <ele>515.79998779297</ele>
        <time>2026-09-03T13:24:16.000Z</time>
      </trkpt>
      <trkpt lat="48.21645" lon="6.68449">
        <ele>516</ele>
        <time>2026-09-03T13:24:17.000Z</time>
      </trkpt>
      <trkpt lat="48.21644" lon="6.68448">
        <ele>516.20001220703</ele>
        <time>2026-09-03T13:24:18.000Z</time>
      </trkpt>
      <trkpt lat="48.21643" lon="6.68447">
        <ele>516.20001220703</ele>
        <time>2026-09-03T13:24:19.000Z</time>
      </trkpt>
      <trkpt lat="48.21643" lon="6.68447">
        <ele>516.40002441406</ele>
        <time>2026-09-03T13:24:20.000Z</time>
      </trkpt>
      <trkpt lat="48.21643" lon="6.68446">
        <ele>516.59997558594</ele>
        <time>2026-09-03T13:24:21.000Z</time>
      </trkpt>
      <trkpt lat="48.21643" lon="6.68445">
        <ele>516.79998779297</ele>
        <time>2026-09-03T13:24:22.000Z</time>
      </trkpt>
      <trkpt lat="48.21642" lon="6.68445">
        <ele>517</ele>
        <time>2026-09-03T13:24:23.000Z</time>
      </trkpt>
      <trkpt lat="48.21641" lon="6.68445">
        <ele>517.20001220703</ele>
        <time>2026-09-03T13:24:24.000Z</time>
      </trkpt>
      <trkpt lat="48.21641" lon="6.68444">
        <ele>517.40002441406</ele>
        <time>2026-09-03T13:24:25.000Z</time>
      </trkpt>
      <trkpt lat="48.2164" lon="6.68443">
        <ele>517.59997558594</ele>
        <time>2026-09-03T13:24:26.000Z</time>
      </trkpt>
      <trkpt lat="48.21639" lon="6.68441">
        <ele>518</ele>
        <time>2026-09-03T13:24:27.000Z</time>
      </trkpt>
      <trkpt lat="48.21639" lon="6.6844">
        <ele>518.20001220703</ele>
        <time>2026-09-03T13:24:28.000Z</time>
      </trkpt>
      <trkpt lat="48.21638" lon="6.68441">
        <ele>518.40002441406</ele>
        <time>2026-09-03T13:24:29.000Z</time>
      </trkpt>
      <trkpt lat="48.21638" lon="6.6844">
        <ele>518.59997558594</ele>
        <time>2026-09-03T13:24:30.000Z</time>
      </trkpt>
      <trkpt lat="48.21638" lon="6.6844">
        <ele>518.79998779297</ele>
        <time>2026-09-03T13:24:31.000Z</time>
      </trkpt>
      <trkpt lat="48.21637" lon="6.6844">
        <ele>519</ele>
        <time>2026-09-03T13:24:32.000Z</time>
      </trkpt>
      <trkpt lat="48.21638" lon="6.6844">
        <ele>519.20001220703</ele>
        <time>2026-09-03T13:24:33.000Z</time>
      </trkpt>
      <trkpt lat="48.21637" lon="6.6844">
        <ele>519.40002441406</ele>
        <time>2026-09-03T13:24:34.000Z</time>
      </trkpt>
      <trkpt lat="48.21637" lon="6.68439">
        <ele>519.59997558594</ele>
        <time>2026-09-03T13:24:35.000Z</time>
      </trkpt>
      <trkpt lat="48.21636" lon="6.6844">
        <ele>519.79998779297</ele>
        <time>2026-09-03T13:24:36.000Z</time>
      </trkpt>
      <trkpt lat="48.21636" lon="6.68439">
        <ele>520</ele>
        <time>2026-09-03T13:24:37.000Z</time>
      </trkpt>
      <trkpt lat="48.21635" lon="6.68438">
        <ele>520.20001220703</ele>
        <time>2026-09-03T13:24:38.000Z</time>
      </trkpt>
      <trkpt lat="48.21634" lon="6.68437">
        <ele>520.20001220703</ele>
        <time>2026-09-03T13:24:39.000Z</time>
      </trkpt>
      <trkpt lat="48.21633" lon="6.68437">
        <ele>520.40002441406</ele>
        <time>2026-09-03T13:24:40.000Z</time>
      </trkpt>
      <trkpt lat="48.21633" lon="6.68436">
        <ele>520.59997558594</ele>
        <time>2026-09-03T13:24:41.000Z</time>
      </trkpt>
      <trkpt lat="48.21633" lon="6.68436">
        <ele>520.59997558594</ele>
        <time>2026-09-03T13:24:42.000Z</time>
      </trkpt>
      <trkpt lat="48.21633" lon="6.68436">
        <ele>520.79998779297</ele>
        <time>2026-09-03T13:24:43.000Z</time>
      </trkpt>
      <trkpt lat="48.21633" lon="6.68436">
        <ele>520.79998779297</ele>
        <time>2026-09-03T13:24:44.000Z</time>
      </trkpt>
      <trkpt lat="48.21633" lon="6.68436">
        <ele>520.79998779297</ele>
        <time>2026-09-03T13:24:45.000Z</time>
      </trkpt>
      <trkpt lat="48.21633" lon="6.68436">
        <ele>520.79998779297</ele>
        <time>2026-09-03T13:24:46.000Z</time>
      </trkpt>
      <trkpt lat="48.21633" lon="6.68436">
        <ele>520.79998779297</ele>
        <time>2026-09-03T13:24:47.000Z</time>
      </trkpt>
      <trkpt lat="48.21633" lon="6.68436">
        <ele>520.79998779297</ele>
        <time>2026-09-03T13:24:48.000Z</time>
      </trkpt>
      <trkpt lat="48.21632" lon="6.68435">
        <ele>520.79998779297</ele>
        <time>2026-09-03T13:24:49.000Z</time>
      </trkpt>
      <trkpt lat="48.21631" lon="6.68434">
        <ele>521</ele>
        <time>2026-09-03T13:24:50.000Z</time>
      </trkpt>
      <trkpt lat="48.2163" lon="6.68433">
        <ele>521.20001220703</ele>
        <time>2026-09-03T13:24:51.000Z</time>
      </trkpt>
      <trkpt lat="48.2163" lon="6.68432">
        <ele>521.40002441406</ele>
        <time>2026-09-03T13:24:52.000Z</time>
      </trkpt>
      <trkpt lat="48.21629" lon="6.68431">
        <ele>521.59997558594</ele>
        <time>2026-09-03T13:24:53.000Z</time>
      </trkpt>
      <trkpt lat="48.21628" lon="6.68431">
        <ele>521.79998779297</ele>
        <time>2026-09-03T13:24:54.000Z</time>
      </trkpt>
      <trkpt lat="48.21628" lon="6.6843">
        <ele>522</ele>
        <time>2026-09-03T13:24:55.000Z</time>
      </trkpt>
      <trkpt lat="48.21627" lon="6.6843">
        <ele>522</ele>
        <time>2026-09-03T13:24:56.000Z</time>
      </trkpt>
      <trkpt lat="48.21626" lon="6.68429">
        <ele>522.20001220703</ele>
        <time>2026-09-03T13:24:57.000Z</time>
      </trkpt>
      <trkpt lat="48.21626" lon="6.68428">
        <ele>522.40002441406</ele>
        <time>2026-09-03T13:24:58.000Z</time>
      </trkpt>
      <trkpt lat="48.21626" lon="6.68428">
        <ele>522.79998779297</ele>
        <time>2026-09-03T13:24:59.000Z</time>
      </trkpt>
      <trkpt lat="48.21626" lon="6.68428">
        <ele>523</ele>
        <time>2026-09-03T13:25:00.000Z</time>
      </trkpt>
      <trkpt lat="48.21626" lon="6.68427">
        <ele>523.20001220703</ele>
        <time>2026-09-03T13:25:01.000Z</time>
      </trkpt>
      <trkpt lat="48.21626" lon="6.68426">
        <ele>523.20001220703</ele>
        <time>2026-09-03T13:25:02.000Z</time>
      </trkpt>
      <trkpt lat="48.21626" lon="6.68426">
        <ele>523.40002441406</ele>
        <time>2026-09-03T13:25:03.000Z</time>
      </trkpt>
      <trkpt lat="48.21626" lon="6.68424">
        <ele>523.40002441406</ele>
        <time>2026-09-03T13:25:04.000Z</time>
      </trkpt>
      <trkpt lat="48.21626" lon="6.68423">
        <ele>523.40002441406</ele>
        <time>2026-09-03T13:25:05.000Z</time>
      </trkpt>
      <trkpt lat="48.21626" lon="6.68422">
        <ele>523.20001220703</ele>
        <time>2026-09-03T13:25:06.000Z</time>
      </trkpt>
      <trkpt lat="48.21626" lon="6.68422">
        <ele>523.20001220703</ele>
        <time>2026-09-03T13:25:07.000Z</time>
      </trkpt>
      <trkpt lat="48.21626" lon="6.68422">
        <ele>523.20001220703</ele>
        <time>2026-09-03T13:25:08.000Z</time>
      </trkpt>
      <trkpt lat="48.21626" lon="6.68422">
        <ele>523.20001220703</ele>
        <time>2026-09-03T13:25:09.000Z</time>
      </trkpt>
      <trkpt lat="48.21626" lon="6.68422">
        <ele>523.20001220703</ele>
        <time>2026-09-03T13:25:10.000Z</time>
      </trkpt>
      <trkpt lat="48.21626" lon="6.68424">
        <ele>523.20001220703</ele>
        <time>2026-09-03T13:25:11.000Z</time>
      </trkpt>
      <trkpt lat="48.21626" lon="6.68423">
        <ele>523.20001220703</ele>
        <time>2026-09-03T13:25:12.000Z</time>
      </trkpt>
      <trkpt lat="48.21626" lon="6.68422">
        <ele>523</ele>
        <time>2026-09-03T13:25:13.000Z</time>
      </trkpt>
      <trkpt lat="48.21625" lon="6.68422">
        <ele>523</ele>
        <time>2026-09-03T13:25:14.000Z</time>
      </trkpt>
      <trkpt lat="48.21625" lon="6.68421">
        <ele>523</ele>
        <time>2026-09-03T13:25:15.000Z</time>
      </trkpt>
      <trkpt lat="48.21624" lon="6.6842">
        <ele>522.79998779297</ele>
        <time>2026-09-03T13:25:16.000Z</time>
      </trkpt>
      <trkpt lat="48.21623" lon="6.68418">
        <ele>522.79998779297</ele>
        <time>2026-09-03T13:25:17.000Z</time>
      </trkpt>
      <trkpt lat="48.21623" lon="6.68418">
        <ele>522.79998779297</ele>
        <time>2026-09-03T13:25:18.000Z</time>
      </trkpt>
      <trkpt lat="48.21622" lon="6.68416">
        <ele>522.79998779297</ele>
        <time>2026-09-03T13:25:19.000Z</time>
      </trkpt>
      <trkpt lat="48.21622" lon="6.68416">
        <ele>522.79998779297</ele>
        <time>2026-09-03T13:25:20.000Z</time>
      </trkpt>
      <trkpt lat="48.21621" lon="6.68415">
        <ele>522.79998779297</ele>
        <time>2026-09-03T13:25:21.000Z</time>
      </trkpt>
      <trkpt lat="48.21621" lon="6.68414">
        <ele>522.79998779297</ele>
        <time>2026-09-03T13:25:22.000Z</time>
      </trkpt>
      <trkpt lat="48.2162" lon="6.68414">
        <ele>522.79998779297</ele>
        <time>2026-09-03T13:25:23.000Z</time>
      </trkpt>
      <trkpt lat="48.21619" lon="6.68413">
        <ele>522.59997558594</ele>
        <time>2026-09-03T13:25:24.000Z</time>
      </trkpt>
      <trkpt lat="48.21619" lon="6.68412">
        <ele>522.59997558594</ele>
        <time>2026-09-03T13:25:25.000Z</time>
      </trkpt>
      <trkpt lat="48.21618" lon="6.6841">
        <ele>522.40002441406</ele>
        <time>2026-09-03T13:25:26.000Z</time>
      </trkpt>
      <trkpt lat="48.21617" lon="6.68409">
        <ele>522.40002441406</ele>
        <time>2026-09-03T13:25:27.000Z</time>
      </trkpt>
      <trkpt lat="48.21616" lon="6.68408">
        <ele>522.20001220703</ele>
        <time>2026-09-03T13:25:28.000Z</time>
      </trkpt>
      <trkpt lat="48.21615" lon="6.68407">
        <ele>522.20001220703</ele>
        <time>2026-09-03T13:25:29.000Z</time>
      </trkpt>
      <trkpt lat="48.21615" lon="6.68406">
        <ele>522.20001220703</ele>
        <time>2026-09-03T13:25:30.000Z</time>
      </trkpt>
      <trkpt lat="48.21614" lon="6.68405">
        <ele>522.20001220703</ele>
        <time>2026-09-03T13:25:31.000Z</time>
      </trkpt>
      <trkpt lat="48.21614" lon="6.68404">
        <ele>522.40002441406</ele>
        <time>2026-09-03T13:25:32.000Z</time>
      </trkpt>
      <trkpt lat="48.21614" lon="6.68403">
        <ele>522.40002441406</ele>
        <time>2026-09-03T13:25:33.000Z</time>
      </trkpt>
      <trkpt lat="48.21613" lon="6.68403">
        <ele>522.20001220703</ele>
        <time>2026-09-03T13:25:34.000Z</time>
      </trkpt>
      <trkpt lat="48.21613" lon="6.68402">
        <ele>522.20001220703</ele>
        <time>2026-09-03T13:25:35.000Z</time>
      </trkpt>
      <trkpt lat="48.21613" lon="6.68402">
        <ele>522.20001220703</ele>
        <time>2026-09-03T13:25:36.000Z</time>
      </trkpt>
      <trkpt lat="48.21612" lon="6.68401">
        <ele>522</ele>
        <time>2026-09-03T13:25:37.000Z</time>
      </trkpt>
      <trkpt lat="48.21612" lon="6.684">
        <ele>522</ele>
        <time>2026-09-03T13:25:38.000Z</time>
      </trkpt>
      <trkpt lat="48.21612" lon="6.68399">
        <ele>521.79998779297</ele>
        <time>2026-09-03T13:25:39.000Z</time>
      </trkpt>
      <trkpt lat="48.21611" lon="6.68397">
        <ele>521.79998779297</ele>
        <time>2026-09-03T13:25:40.000Z</time>
      </trkpt>
      <trkpt lat="48.21611" lon="6.68397">
        <ele>521.79998779297</ele>
        <time>2026-09-03T13:25:41.000Z</time>
      </trkpt>
      <trkpt lat="48.21611" lon="6.68397">
        <ele>521.59997558594</ele>
        <time>2026-09-03T13:25:42.000Z</time>
      </trkpt>
      <trkpt lat="48.21611" lon="6.68396">
        <ele>521.59997558594</ele>
        <time>2026-09-03T13:25:43.000Z</time>
      </trkpt>
      <trkpt lat="48.2161" lon="6.68396">
        <ele>521.59997558594</ele>
        <time>2026-09-03T13:25:44.000Z</time>
      </trkpt>
      <trkpt lat="48.2161" lon="6.68395">
        <ele>521.59997558594</ele>
        <time>2026-09-03T13:25:45.000Z</time>
      </trkpt>
      <trkpt lat="48.21608" lon="6.68394">
        <ele>521.59997558594</ele>
        <time>2026-09-03T13:25:46.000Z</time>
      </trkpt>
      <trkpt lat="48.21607" lon="6.68394">
        <ele>521.59997558594</ele>
        <time>2026-09-03T13:25:47.000Z</time>
      </trkpt>
      <trkpt lat="48.21607" lon="6.68393">
        <ele>521.59997558594</ele>
        <time>2026-09-03T13:25:48.000Z</time>
      </trkpt>
      <trkpt lat="48.21607" lon="6.68393">
        <ele>521.40002441406</ele>
        <time>2026-09-03T13:25:49.000Z</time>
      </trkpt>
      <trkpt lat="48.21607" lon="6.68392">
        <ele>521.40002441406</ele>
        <time>2026-09-03T13:25:50.000Z</time>
      </trkpt>
      <trkpt lat="48.21606" lon="6.6839">
        <ele>521.20001220703</ele>
        <time>2026-09-03T13:25:51.000Z</time>
      </trkpt>
      <trkpt lat="48.21605" lon="6.68388">
        <ele>521.20001220703</ele>
        <time>2026-09-03T13:25:52.000Z</time>
      </trkpt>
      <trkpt lat="48.21604" lon="6.68387">
        <ele>521</ele>
        <time>2026-09-03T13:25:53.000Z</time>
      </trkpt>
      <trkpt lat="48.21604" lon="6.68386">
        <ele>520.79998779297</ele>
        <time>2026-09-03T13:25:54.000Z</time>
      </trkpt>
      <trkpt lat="48.21604" lon="6.68385">
        <ele>520.79998779297</ele>
        <time>2026-09-03T13:25:55.000Z</time>
      </trkpt>
      <trkpt lat="48.21603" lon="6.68383">
        <ele>520.79998779297</ele>
        <time>2026-09-03T13:25:56.000Z</time>
      </trkpt>
      <trkpt lat="48.21603" lon="6.68383">
        <ele>520.79998779297</ele>
        <time>2026-09-03T13:25:57.000Z</time>
      </trkpt>
      <trkpt lat="48.21602" lon="6.68382">
        <ele>520.79998779297</ele>
        <time>2026-09-03T13:25:58.000Z</time>
      </trkpt>
      <trkpt lat="48.21602" lon="6.68382">
        <ele>520.79998779297</ele>
        <time>2026-09-03T13:25:59.000Z</time>
      </trkpt>
      <trkpt lat="48.21602" lon="6.6838">
        <ele>520.59997558594</ele>
        <time>2026-09-03T13:26:00.000Z</time>
      </trkpt>
      <trkpt lat="48.21601" lon="6.68379">
        <ele>520.59997558594</ele>
        <time>2026-09-03T13:26:01.000Z</time>
      </trkpt>
      <trkpt lat="48.21601" lon="6.68378">
        <ele>520.40002441406</ele>
        <time>2026-09-03T13:26:02.000Z</time>
      </trkpt>
      <trkpt lat="48.21601" lon="6.68377">
        <ele>520.40002441406</ele>
        <time>2026-09-03T13:26:03.000Z</time>
      </trkpt>
      <trkpt lat="48.216" lon="6.68376">
        <ele>520.20001220703</ele>
        <time>2026-09-03T13:26:04.000Z</time>
      </trkpt>
      <trkpt lat="48.216" lon="6.68375">
        <ele>520.20001220703</ele>
        <time>2026-09-03T13:26:05.000Z</time>
      </trkpt>
      <trkpt lat="48.21599" lon="6.68373">
        <ele>520.20001220703</ele>
        <time>2026-09-03T13:26:06.000Z</time>
      </trkpt>
      <trkpt lat="48.21599" lon="6.68372">
        <ele>520</ele>
        <time>2026-09-03T13:26:07.000Z</time>
      </trkpt>
      <trkpt lat="48.21598" lon="6.68371">
        <ele>520</ele>
        <time>2026-09-03T13:26:08.000Z</time>
      </trkpt>
      <trkpt lat="48.21598" lon="6.6837">
        <ele>520</ele>
        <time>2026-09-03T13:26:09.000Z</time>
      </trkpt>
      <trkpt lat="48.21598" lon="6.68369">
        <ele>520</ele>
        <time>2026-09-03T13:26:10.000Z</time>
      </trkpt>
      <trkpt lat="48.21597" lon="6.68367">
        <ele>520</ele>
        <time>2026-09-03T13:26:11.000Z</time>
      </trkpt>
      <trkpt lat="48.21595" lon="6.68366">
        <ele>520</ele>
        <time>2026-09-03T13:26:12.000Z</time>
      </trkpt>
      <trkpt lat="48.21594" lon="6.68364">
        <ele>520</ele>
        <time>2026-09-03T13:26:13.000Z</time>
      </trkpt>
      <trkpt lat="48.21594" lon="6.68363">
        <ele>520</ele>
        <time>2026-09-03T13:26:14.000Z</time>
      </trkpt>
      <trkpt lat="48.21593" lon="6.68362">
        <ele>520</ele>
        <time>2026-09-03T13:26:15.000Z</time>
      </trkpt>
      <trkpt lat="48.21593" lon="6.68361">
        <ele>520.20001220703</ele>
        <time>2026-09-03T13:26:16.000Z</time>
      </trkpt>
      <trkpt lat="48.21592" lon="6.6836">
        <ele>520.20001220703</ele>
        <time>2026-09-03T13:26:17.000Z</time>
      </trkpt>
      <trkpt lat="48.21591" lon="6.68358">
        <ele>520</ele>
        <time>2026-09-03T13:26:18.000Z</time>
      </trkpt>
      <trkpt lat="48.2159" lon="6.68357">
        <ele>520</ele>
        <time>2026-09-03T13:26:19.000Z</time>
      </trkpt>
      <trkpt lat="48.2159" lon="6.68356">
        <ele>520</ele>
        <time>2026-09-03T13:26:20.000Z</time>
      </trkpt>
      <trkpt lat="48.2159" lon="6.68356">
        <ele>519.79998779297</ele>
        <time>2026-09-03T13:26:21.000Z</time>
      </trkpt>
      <trkpt lat="48.21589" lon="6.68354">
        <ele>519.79998779297</ele>
        <time>2026-09-03T13:26:22.000Z</time>
      </trkpt>
      <trkpt lat="48.21589" lon="6.68353">
        <ele>519.79998779297</ele>
        <time>2026-09-03T13:26:23.000Z</time>
      </trkpt>
      <trkpt lat="48.21588" lon="6.68351">
        <ele>519.79998779297</ele>
        <time>2026-09-03T13:26:24.000Z</time>
      </trkpt>
      <trkpt lat="48.21588" lon="6.68351">
        <ele>519.79998779297</ele>
        <time>2026-09-03T13:26:25.000Z</time>
      </trkpt>
      <trkpt lat="48.21587" lon="6.6835">
        <ele>519.79998779297</ele>
        <time>2026-09-03T13:26:26.000Z</time>
      </trkpt>
      <trkpt lat="48.21586" lon="6.68348">
        <ele>519.79998779297</ele>
        <time>2026-09-03T13:26:27.000Z</time>
      </trkpt>
      <trkpt lat="48.21586" lon="6.68347">
        <ele>519.79998779297</ele>
        <time>2026-09-03T13:26:28.000Z</time>
      </trkpt>
      <trkpt lat="48.21586" lon="6.68346">
        <ele>519.59997558594</ele>
        <time>2026-09-03T13:26:29.000Z</time>
      </trkpt>
      <trkpt lat="48.21586" lon="6.68345">
        <ele>519.59997558594</ele>
        <time>2026-09-03T13:26:30.000Z</time>
      </trkpt>
      <trkpt lat="48.21586" lon="6.68343">
        <ele>519.59997558594</ele>
        <time>2026-09-03T13:26:31.000Z</time>
      </trkpt>
      <trkpt lat="48.21586" lon="6.68342">
        <ele>519.59997558594</ele>
        <time>2026-09-03T13:26:32.000Z</time>
      </trkpt>
      <trkpt lat="48.21585" lon="6.68341">
        <ele>519.59997558594</ele>
        <time>2026-09-03T13:26:33.000Z</time>
      </trkpt>
      <trkpt lat="48.21585" lon="6.68339">
        <ele>519.59997558594</ele>
        <time>2026-09-03T13:26:34.000Z</time>
      </trkpt>
      <trkpt lat="48.21585" lon="6.68337">
        <ele>519.59997558594</ele>
        <time>2026-09-03T13:26:35.000Z</time>
      </trkpt>
      <trkpt lat="48.21584" lon="6.68336">
        <ele>519.59997558594</ele>
        <time>2026-09-03T13:26:36.000Z</time>
      </trkpt>
      <trkpt lat="48.21584" lon="6.68335">
        <ele>519.40002441406</ele>
        <time>2026-09-03T13:26:37.000Z</time>
      </trkpt>
      <trkpt lat="48.21583" lon="6.68334">
        <ele>519.40002441406</ele>
        <time>2026-09-03T13:26:38.000Z</time>
      </trkpt>
      <trkpt lat="48.21583" lon="6.68333">
        <ele>519.59997558594</ele>
        <time>2026-09-03T13:26:39.000Z</time>
      </trkpt>
      <trkpt lat="48.21582" lon="6.68331">
        <ele>519.59997558594</ele>
        <time>2026-09-03T13:26:40.000Z</time>
      </trkpt>
      <trkpt lat="48.21581" lon="6.68329">
        <ele>519.79998779297</ele>
        <time>2026-09-03T13:26:41.000Z</time>
      </trkpt>
      <trkpt lat="48.21581" lon="6.68327">
        <ele>519.79998779297</ele>
        <time>2026-09-03T13:26:42.000Z</time>
      </trkpt>
      <trkpt lat="48.21581" lon="6.68326">
        <ele>520</ele>
        <time>2026-09-03T13:26:43.000Z</time>
      </trkpt>
      <trkpt lat="48.21581" lon="6.68325">
        <ele>520</ele>
        <time>2026-09-03T13:26:44.000Z</time>
      </trkpt>
      <trkpt lat="48.2158" lon="6.68323">
        <ele>519.79998779297</ele>
        <time>2026-09-03T13:26:45.000Z</time>
      </trkpt>
      <trkpt lat="48.21579" lon="6.68322">
        <ele>519.79998779297</ele>
        <time>2026-09-03T13:26:46.000Z</time>
      </trkpt>
      <trkpt lat="48.21579" lon="6.68321">
        <ele>519.79998779297</ele>
        <time>2026-09-03T13:26:47.000Z</time>
      </trkpt>
      <trkpt lat="48.21578" lon="6.6832">
        <ele>519.79998779297</ele>
        <time>2026-09-03T13:26:48.000Z</time>
      </trkpt>
      <trkpt lat="48.21577" lon="6.68319">
        <ele>519.79998779297</ele>
        <time>2026-09-03T13:26:49.000Z</time>
      </trkpt>
      <trkpt lat="48.21577" lon="6.68319">
        <ele>519.59997558594</ele>
        <time>2026-09-03T13:26:50.000Z</time>
      </trkpt>
      <trkpt lat="48.21577" lon="6.68318">
        <ele>519.59997558594</ele>
        <time>2026-09-03T13:26:51.000Z</time>
      </trkpt>
      <trkpt lat="48.21576" lon="6.68317">
        <ele>519.59997558594</ele>
        <time>2026-09-03T13:26:52.000Z</time>
      </trkpt>
      <trkpt lat="48.21576" lon="6.68316">
        <ele>519.59997558594</ele>
        <time>2026-09-03T13:26:53.000Z</time>
      </trkpt>
      <trkpt lat="48.21574" lon="6.68315">
        <ele>519.59997558594</ele>
        <time>2026-09-03T13:26:54.000Z</time>
      </trkpt>
      <trkpt lat="48.21574" lon="6.68313">
        <ele>519.79998779297</ele>
        <time>2026-09-03T13:26:55.000Z</time>
      </trkpt>
      <trkpt lat="48.21573" lon="6.68312">
        <ele>519.79998779297</ele>
        <time>2026-09-03T13:26:56.000Z</time>
      </trkpt>
      <trkpt lat="48.21572" lon="6.68312">
        <ele>519.79998779297</ele>
        <time>2026-09-03T13:26:57.000Z</time>
      </trkpt>
      <trkpt lat="48.21572" lon="6.6831">
        <ele>520</ele>
        <time>2026-09-03T13:26:58.000Z</time>
      </trkpt>
      <trkpt lat="48.21571" lon="6.68308">
        <ele>520</ele>
        <time>2026-09-03T13:26:59.000Z</time>
      </trkpt>
      <trkpt lat="48.21571" lon="6.68307">
        <ele>520</ele>
        <time>2026-09-03T13:27:00.000Z</time>
      </trkpt>
      <trkpt lat="48.21571" lon="6.68306">
        <ele>520</ele>
        <time>2026-09-03T13:27:01.000Z</time>
      </trkpt>
      <trkpt lat="48.2157" lon="6.68304">
        <ele>520</ele>
        <time>2026-09-03T13:27:02.000Z</time>
      </trkpt>
      <trkpt lat="48.2157" lon="6.68303">
        <ele>520</ele>
        <time>2026-09-03T13:27:03.000Z</time>
      </trkpt>
      <trkpt lat="48.21569" lon="6.68302">
        <ele>519.79998779297</ele>
        <time>2026-09-03T13:27:04.000Z</time>
      </trkpt>
      <trkpt lat="48.21568" lon="6.68301">
        <ele>519.79998779297</ele>
        <time>2026-09-03T13:27:05.000Z</time>
      </trkpt>
      <trkpt lat="48.21567" lon="6.683">
        <ele>519.79998779297</ele>
        <time>2026-09-03T13:27:06.000Z</time>
      </trkpt>
      <trkpt lat="48.21567" lon="6.68299">
        <ele>519.79998779297</ele>
        <time>2026-09-03T13:27:07.000Z</time>
      </trkpt>
      <trkpt lat="48.21566" lon="6.68298">
        <ele>519.79998779297</ele>
        <time>2026-09-03T13:27:08.000Z</time>
      </trkpt>
      <trkpt lat="48.21566" lon="6.68297">
        <ele>520</ele>
        <time>2026-09-03T13:27:09.000Z</time>
      </trkpt>
      <trkpt lat="48.21565" lon="6.68296">
        <ele>520</ele>
        <time>2026-09-03T13:27:10.000Z</time>
      </trkpt>
      <trkpt lat="48.21564" lon="6.68295">
        <ele>520.20001220703</ele>
        <time>2026-09-03T13:27:11.000Z</time>
      </trkpt>
      <trkpt lat="48.21564" lon="6.68294">
        <ele>520.20001220703</ele>
        <time>2026-09-03T13:27:12.000Z</time>
      </trkpt>
      <trkpt lat="48.21563" lon="6.68293">
        <ele>520.20001220703</ele>
        <time>2026-09-03T13:27:13.000Z</time>
      </trkpt>
      <trkpt lat="48.21563" lon="6.68291">
        <ele>520</ele>
        <time>2026-09-03T13:27:14.000Z</time>
      </trkpt>
      <trkpt lat="48.21562" lon="6.6829">
        <ele>520</ele>
        <time>2026-09-03T13:27:15.000Z</time>
      </trkpt>
      <trkpt lat="48.21562" lon="6.68289">
        <ele>520</ele>
        <time>2026-09-03T13:27:16.000Z</time>
      </trkpt>
      <trkpt lat="48.21561" lon="6.68287">
        <ele>520</ele>
        <time>2026-09-03T13:27:17.000Z</time>
      </trkpt>
      <trkpt lat="48.2156" lon="6.68285">
        <ele>520</ele>
        <time>2026-09-03T13:27:18.000Z</time>
      </trkpt>
      <trkpt lat="48.21559" lon="6.68284">
        <ele>520</ele>
        <time>2026-09-03T13:27:19.000Z</time>
      </trkpt>
      <trkpt lat="48.21559" lon="6.68282">
        <ele>520.20001220703</ele>
        <time>2026-09-03T13:27:20.000Z</time>
      </trkpt>
      <trkpt lat="48.21558" lon="6.68281">
        <ele>520.20001220703</ele>
        <time>2026-09-03T13:27:21.000Z</time>
      </trkpt>
      <trkpt lat="48.21558" lon="6.6828">
        <ele>520.20001220703</ele>
        <time>2026-09-03T13:27:22.000Z</time>
      </trkpt>
      <trkpt lat="48.21557" lon="6.6828">
        <ele>520.20001220703</ele>
        <time>2026-09-03T13:27:23.000Z</time>
      </trkpt>
      <trkpt lat="48.21557" lon="6.68279">
        <ele>520</ele>
        <time>2026-09-03T13:27:24.000Z</time>
      </trkpt>
      <trkpt lat="48.21557" lon="6.68277">
        <ele>520</ele>
        <time>2026-09-03T13:27:25.000Z</time>
      </trkpt>
      <trkpt lat="48.21556" lon="6.68276">
        <ele>519.79998779297</ele>
        <time>2026-09-03T13:27:26.000Z</time>
      </trkpt>
      <trkpt lat="48.21555" lon="6.68275">
        <ele>519.79998779297</ele>
        <time>2026-09-03T13:27:27.000Z</time>
      </trkpt>
      <trkpt lat="48.21555" lon="6.68274">
        <ele>519.79998779297</ele>
        <time>2026-09-03T13:27:28.000Z</time>
      </trkpt>
      <trkpt lat="48.21554" lon="6.68274">
        <ele>519.79998779297</ele>
        <time>2026-09-03T13:27:29.000Z</time>
      </trkpt>
      <trkpt lat="48.21554" lon="6.68272">
        <ele>519.59997558594</ele>
        <time>2026-09-03T13:27:30.000Z</time>
      </trkpt>
      <trkpt lat="48.21553" lon="6.68271">
        <ele>519.59997558594</ele>
        <time>2026-09-03T13:27:31.000Z</time>
      </trkpt>
      <trkpt lat="48.21552" lon="6.68269">
        <ele>519.59997558594</ele>
        <time>2026-09-03T13:27:32.000Z</time>
      </trkpt>
      <trkpt lat="48.21552" lon="6.68268">
        <ele>519.59997558594</ele>
        <time>2026-09-03T13:27:33.000Z</time>
      </trkpt>
      <trkpt lat="48.21551" lon="6.68267">
        <ele>519.59997558594</ele>
        <time>2026-09-03T13:27:34.000Z</time>
      </trkpt>
      <trkpt lat="48.2155" lon="6.68266">
        <ele>519.59997558594</ele>
        <time>2026-09-03T13:27:35.000Z</time>
      </trkpt>
      <trkpt lat="48.2155" lon="6.68264">
        <ele>519.59997558594</ele>
        <time>2026-09-03T13:27:36.000Z</time>
      </trkpt>
      <trkpt lat="48.21549" lon="6.68262">
        <ele>519.59997558594</ele>
        <time>2026-09-03T13:27:37.000Z</time>
      </trkpt>
      <trkpt lat="48.21549" lon="6.68261">
        <ele>519.59997558594</ele>
        <time>2026-09-03T13:27:38.000Z</time>
      </trkpt>
      <trkpt lat="48.21548" lon="6.6826">
        <ele>519.79998779297</ele>
        <time>2026-09-03T13:27:39.000Z</time>
      </trkpt>
      <trkpt lat="48.21548" lon="6.68259">
        <ele>519.79998779297</ele>
        <time>2026-09-03T13:27:40.000Z</time>
      </trkpt>
      <trkpt lat="48.21547" lon="6.68258">
        <ele>519.79998779297</ele>
        <time>2026-09-03T13:27:41.000Z</time>
      </trkpt>
      <trkpt lat="48.21547" lon="6.68256">
        <ele>519.59997558594</ele>
        <time>2026-09-03T13:27:42.000Z</time>
      </trkpt>
      <trkpt lat="48.21546" lon="6.68255">
        <ele>519.40002441406</ele>
        <time>2026-09-03T13:27:43.000Z</time>
      </trkpt>
      <trkpt lat="48.21546" lon="6.68254">
        <ele>519.20001220703</ele>
        <time>2026-09-03T13:27:44.000Z</time>
      </trkpt>
      <trkpt lat="48.21546" lon="6.68253">
        <ele>518.79998779297</ele>
        <time>2026-09-03T13:27:45.000Z</time>
      </trkpt>
      <trkpt lat="48.21546" lon="6.68252">
        <ele>518.79998779297</ele>
        <time>2026-09-03T13:27:46.000Z</time>
      </trkpt>
      <trkpt lat="48.21545" lon="6.6825">
        <ele>518.79998779297</ele>
        <time>2026-09-03T13:27:47.000Z</time>
      </trkpt>
      <trkpt lat="48.21544" lon="6.68249">
        <ele>518.79998779297</ele>
        <time>2026-09-03T13:27:48.000Z</time>
      </trkpt>
      <trkpt lat="48.21543" lon="6.68248">
        <ele>519</ele>
        <time>2026-09-03T13:27:49.000Z</time>
      </trkpt>
      <trkpt lat="48.21543" lon="6.68246">
        <ele>519.40002441406</ele>
        <time>2026-09-03T13:27:50.000Z</time>
      </trkpt>
      <trkpt lat="48.21542" lon="6.68245">
        <ele>519.40002441406</ele>
        <time>2026-09-03T13:27:51.000Z</time>
      </trkpt>
      <trkpt lat="48.21541" lon="6.68244">
        <ele>519.40002441406</ele>
        <time>2026-09-03T13:27:52.000Z</time>
      </trkpt>
      <trkpt lat="48.2154" lon="6.68243">
        <ele>519.40002441406</ele>
        <time>2026-09-03T13:27:53.000Z</time>
      </trkpt>
      <trkpt lat="48.2154" lon="6.68242">
        <ele>519.40002441406</ele>
        <time>2026-09-03T13:27:54.000Z</time>
      </trkpt>
      <trkpt lat="48.21539" lon="6.68241">
        <ele>519.20001220703</ele>
        <time>2026-09-03T13:27:55.000Z</time>
      </trkpt>
      <trkpt lat="48.21539" lon="6.6824">
        <ele>519.20001220703</ele>
        <time>2026-09-03T13:27:56.000Z</time>
      </trkpt>
      <trkpt lat="48.21538" lon="6.68238">
        <ele>519.20001220703</ele>
        <time>2026-09-03T13:27:57.000Z</time>
      </trkpt>
      <trkpt lat="48.21537" lon="6.68237">
        <ele>519.20001220703</ele>
        <time>2026-09-03T13:27:58.000Z</time>
      </trkpt>
      <trkpt lat="48.21537" lon="6.68236">
        <ele>519.20001220703</ele>
        <time>2026-09-03T13:27:59.000Z</time>
      </trkpt>
      <trkpt lat="48.21537" lon="6.68235">
        <ele>519.20001220703</ele>
        <time>2026-09-03T13:28:00.000Z</time>
      </trkpt>
      <trkpt lat="48.21536" lon="6.68233">
        <ele>519.20001220703</ele>
        <time>2026-09-03T13:28:01.000Z</time>
      </trkpt>
      <trkpt lat="48.21536" lon="6.68231">
        <ele>519.20001220703</ele>
        <time>2026-09-03T13:28:02.000Z</time>
      </trkpt>
      <trkpt lat="48.21536" lon="6.6823">
        <ele>519.20001220703</ele>
        <time>2026-09-03T13:28:03.000Z</time>
      </trkpt>
      <trkpt lat="48.21535" lon="6.68228">
        <ele>519</ele>
        <time>2026-09-03T13:28:04.000Z</time>
      </trkpt>
      <trkpt lat="48.21535" lon="6.68227">
        <ele>519</ele>
        <time>2026-09-03T13:28:05.000Z</time>
      </trkpt>
      <trkpt lat="48.21534" lon="6.68225">
        <ele>518.79998779297</ele>
        <time>2026-09-03T13:28:06.000Z</time>
      </trkpt>
      <trkpt lat="48.21534" lon="6.68224">
        <ele>518.79998779297</ele>
        <time>2026-09-03T13:28:07.000Z</time>
      </trkpt>
      <trkpt lat="48.21533" lon="6.68223">
        <ele>518.79998779297</ele>
        <time>2026-09-03T13:28:08.000Z</time>
      </trkpt>
      <trkpt lat="48.21532" lon="6.68221">
        <ele>518.79998779297</ele>
        <time>2026-09-03T13:28:09.000Z</time>
      </trkpt>
      <trkpt lat="48.21532" lon="6.68221">
        <ele>518.59997558594</ele>
        <time>2026-09-03T13:28:10.000Z</time>
      </trkpt>
      <trkpt lat="48.21531" lon="6.6822">
        <ele>518.59997558594</ele>
        <time>2026-09-03T13:28:11.000Z</time>
      </trkpt>
      <trkpt lat="48.21531" lon="6.68219">
        <ele>518.59997558594</ele>
        <time>2026-09-03T13:28:12.000Z</time>
      </trkpt>
      <trkpt lat="48.21531" lon="6.68218">
        <ele>518.59997558594</ele>
        <time>2026-09-03T13:28:13.000Z</time>
      </trkpt>
      <trkpt lat="48.2153" lon="6.68217">
        <ele>518.59997558594</ele>
        <time>2026-09-03T13:28:14.000Z</time>
      </trkpt>
      <trkpt lat="48.21529" lon="6.68215">
        <ele>518.40002441406</ele>
        <time>2026-09-03T13:28:15.000Z</time>
      </trkpt>
      <trkpt lat="48.21528" lon="6.68214">
        <ele>518.40002441406</ele>
        <time>2026-09-03T13:28:16.000Z</time>
      </trkpt>
      <trkpt lat="48.21528" lon="6.68213">
        <ele>518.40002441406</ele>
        <time>2026-09-03T13:28:17.000Z</time>
      </trkpt>
      <trkpt lat="48.21528" lon="6.68212">
        <ele>518.40002441406</ele>
        <time>2026-09-03T13:28:18.000Z</time>
      </trkpt>
      <trkpt lat="48.21527" lon="6.68211">
        <ele>518.40002441406</ele>
        <time>2026-09-03T13:28:19.000Z</time>
      </trkpt>
      <trkpt lat="48.21526" lon="6.6821">
        <ele>518.40002441406</ele>
        <time>2026-09-03T13:28:20.000Z</time>
      </trkpt>
      <trkpt lat="48.21526" lon="6.68209">
        <ele>518.20001220703</ele>
        <time>2026-09-03T13:28:21.000Z</time>
      </trkpt>
      <trkpt lat="48.21525" lon="6.68207">
        <ele>518.20001220703</ele>
        <time>2026-09-03T13:28:22.000Z</time>
      </trkpt>
      <trkpt lat="48.21523" lon="6.68206">
        <ele>518.20001220703</ele>
        <time>2026-09-03T13:28:23.000Z</time>
      </trkpt>
      <trkpt lat="48.21523" lon="6.68204">
        <ele>518.20001220703</ele>
        <time>2026-09-03T13:28:24.000Z</time>
      </trkpt>
      <trkpt lat="48.21523" lon="6.68204">
        <ele>518.20001220703</ele>
        <time>2026-09-03T13:28:25.000Z</time>
      </trkpt>
      <trkpt lat="48.21522" lon="6.68202">
        <ele>518.20001220703</ele>
        <time>2026-09-03T13:28:26.000Z</time>
      </trkpt>
      <trkpt lat="48.21522" lon="6.682">
        <ele>518.20001220703</ele>
        <time>2026-09-03T13:28:27.000Z</time>
      </trkpt>
      <trkpt lat="48.21522" lon="6.68199">
        <ele>518.20001220703</ele>
        <time>2026-09-03T13:28:28.000Z</time>
      </trkpt>
      <trkpt lat="48.21521" lon="6.68198">
        <ele>518.20001220703</ele>
        <time>2026-09-03T13:28:29.000Z</time>
      </trkpt>
      <trkpt lat="48.2152" lon="6.68196">
        <ele>518.20001220703</ele>
        <time>2026-09-03T13:28:30.000Z</time>
      </trkpt>
      <trkpt lat="48.2152" lon="6.68195">
        <ele>518</ele>
        <time>2026-09-03T13:28:31.000Z</time>
      </trkpt>
      <trkpt lat="48.2152" lon="6.68194">
        <ele>518</ele>
        <time>2026-09-03T13:28:32.000Z</time>
      </trkpt>
      <trkpt lat="48.2152" lon="6.68193">
        <ele>518</ele>
        <time>2026-09-03T13:28:33.000Z</time>
      </trkpt>
      <trkpt lat="48.2152" lon="6.68192">
        <ele>518</ele>
        <time>2026-09-03T13:28:34.000Z</time>
      </trkpt>
      <trkpt lat="48.2152" lon="6.68191">
        <ele>518</ele>
        <time>2026-09-03T13:28:35.000Z</time>
      </trkpt>
      <trkpt lat="48.2152" lon="6.68191">
        <ele>518</ele>
        <time>2026-09-03T13:28:36.000Z</time>
      </trkpt>
      <trkpt lat="48.2152" lon="6.68191">
        <ele>518</ele>
        <time>2026-09-03T13:28:37.000Z</time>
      </trkpt>
      <trkpt lat="48.21519" lon="6.68189">
        <ele>518.20001220703</ele>
        <time>2026-09-03T13:28:38.000Z</time>
      </trkpt>
      <trkpt lat="48.21519" lon="6.68188">
        <ele>518.20001220703</ele>
        <time>2026-09-03T13:28:39.000Z</time>
      </trkpt>
      <trkpt lat="48.21518" lon="6.68187">
        <ele>518.20001220703</ele>
        <time>2026-09-03T13:28:40.000Z</time>
      </trkpt>
      <trkpt lat="48.21517" lon="6.68186">
        <ele>518.20001220703</ele>
        <time>2026-09-03T13:28:41.000Z</time>
      </trkpt>
      <trkpt lat="48.21516" lon="6.68184">
        <ele>518.20001220703</ele>
        <time>2026-09-03T13:28:42.000Z</time>
      </trkpt>
      <trkpt lat="48.21515" lon="6.68183">
        <ele>518</ele>
        <time>2026-09-03T13:28:43.000Z</time>
      </trkpt>
      <trkpt lat="48.21515" lon="6.68181">
        <ele>518</ele>
        <time>2026-09-03T13:28:44.000Z</time>
      </trkpt>
      <trkpt lat="48.21516" lon="6.68181">
        <ele>517.79998779297</ele>
        <time>2026-09-03T13:28:45.000Z</time>
      </trkpt>
      <trkpt lat="48.21515" lon="6.6818">
        <ele>517.79998779297</ele>
        <time>2026-09-03T13:28:46.000Z</time>
      </trkpt>
      <trkpt lat="48.21515" lon="6.6818">
        <ele>517.79998779297</ele>
        <time>2026-09-03T13:28:47.000Z</time>
      </trkpt>
      <trkpt lat="48.21515" lon="6.6818">
        <ele>518</ele>
        <time>2026-09-03T13:28:48.000Z</time>
      </trkpt>
      <trkpt lat="48.21515" lon="6.68179">
        <ele>518</ele>
        <time>2026-09-03T13:28:49.000Z</time>
      </trkpt>
      <trkpt lat="48.21514" lon="6.68178">
        <ele>517.79998779297</ele>
        <time>2026-09-03T13:28:50.000Z</time>
      </trkpt>
      <trkpt lat="48.21513" lon="6.68177">
        <ele>517.79998779297</ele>
        <time>2026-09-03T13:28:51.000Z</time>
      </trkpt>
      <trkpt lat="48.21512" lon="6.68176">
        <ele>517.79998779297</ele>
        <time>2026-09-03T13:28:52.000Z</time>
      </trkpt>
      <trkpt lat="48.21512" lon="6.68175">
        <ele>517.79998779297</ele>
        <time>2026-09-03T13:28:53.000Z</time>
      </trkpt>
      <trkpt lat="48.21512" lon="6.68175">
        <ele>517.79998779297</ele>
        <time>2026-09-03T13:28:54.000Z</time>
      </trkpt>
      <trkpt lat="48.21511" lon="6.68174">
        <ele>517.79998779297</ele>
        <time>2026-09-03T13:28:55.000Z</time>
      </trkpt>
      <trkpt lat="48.2151" lon="6.68172">
        <ele>517.59997558594</ele>
        <time>2026-09-03T13:28:56.000Z</time>
      </trkpt>
      <trkpt lat="48.2151" lon="6.68171">
        <ele>517.59997558594</ele>
        <time>2026-09-03T13:28:57.000Z</time>
      </trkpt>
      <trkpt lat="48.21509" lon="6.68169">
        <ele>517.40002441406</ele>
        <time>2026-09-03T13:28:58.000Z</time>
      </trkpt>
      <trkpt lat="48.21508" lon="6.68168">
        <ele>517.40002441406</ele>
        <time>2026-09-03T13:28:59.000Z</time>
      </trkpt>
      <trkpt lat="48.21508" lon="6.68168">
        <ele>517.40002441406</ele>
        <time>2026-09-03T13:29:00.000Z</time>
      </trkpt>
      <trkpt lat="48.21507" lon="6.68167">
        <ele>517.40002441406</ele>
        <time>2026-09-03T13:29:01.000Z</time>
      </trkpt>
      <trkpt lat="48.21507" lon="6.68166">
        <ele>517.40002441406</ele>
        <time>2026-09-03T13:29:02.000Z</time>
      </trkpt>
      <trkpt lat="48.21506" lon="6.68164">
        <ele>517.40002441406</ele>
        <time>2026-09-03T13:29:03.000Z</time>
      </trkpt>
      <trkpt lat="48.21506" lon="6.68163">
        <ele>517.40002441406</ele>
        <time>2026-09-03T13:29:04.000Z</time>
      </trkpt>
      <trkpt lat="48.21505" lon="6.68161">
        <ele>517.40002441406</ele>
        <time>2026-09-03T13:29:05.000Z</time>
      </trkpt>
      <trkpt lat="48.21504" lon="6.6816">
        <ele>517.20001220703</ele>
        <time>2026-09-03T13:29:06.000Z</time>
      </trkpt>
      <trkpt lat="48.21503" lon="6.68158">
        <ele>517.20001220703</ele>
        <time>2026-09-03T13:29:07.000Z</time>
      </trkpt>
      <trkpt lat="48.21502" lon="6.68157">
        <ele>517</ele>
        <time>2026-09-03T13:29:08.000Z</time>
      </trkpt>
      <trkpt lat="48.21501" lon="6.68156">
        <ele>517</ele>
        <time>2026-09-03T13:29:09.000Z</time>
      </trkpt>
      <trkpt lat="48.21501" lon="6.68155">
        <ele>517</ele>
        <time>2026-09-03T13:29:10.000Z</time>
      </trkpt>
      <trkpt lat="48.215" lon="6.68154">
        <ele>517</ele>
        <time>2026-09-03T13:29:11.000Z</time>
      </trkpt>
      <trkpt lat="48.215" lon="6.68152">
        <ele>517</ele>
        <time>2026-09-03T13:29:12.000Z</time>
      </trkpt>
      <trkpt lat="48.21499" lon="6.68151">
        <ele>517</ele>
        <time>2026-09-03T13:29:13.000Z</time>
      </trkpt>
      <trkpt lat="48.21498" lon="6.68149">
        <ele>517</ele>
        <time>2026-09-03T13:29:14.000Z</time>
      </trkpt>
      <trkpt lat="48.21498" lon="6.68147">
        <ele>517</ele>
        <time>2026-09-03T13:29:15.000Z</time>
      </trkpt>
      <trkpt lat="48.21497" lon="6.68146">
        <ele>517</ele>
        <time>2026-09-03T13:29:16.000Z</time>
      </trkpt>
      <trkpt lat="48.21496" lon="6.68145">
        <ele>517</ele>
        <time>2026-09-03T13:29:17.000Z</time>
      </trkpt>
      <trkpt lat="48.21495" lon="6.68144">
        <ele>516.79998779297</ele>
        <time>2026-09-03T13:29:18.000Z</time>
      </trkpt>
      <trkpt lat="48.21495" lon="6.68142">
        <ele>516.79998779297</ele>
        <time>2026-09-03T13:29:19.000Z</time>
      </trkpt>
      <trkpt lat="48.21494" lon="6.68141">
        <ele>516.79998779297</ele>
        <time>2026-09-03T13:29:20.000Z</time>
      </trkpt>
      <trkpt lat="48.21493" lon="6.68139">
        <ele>516.79998779297</ele>
        <time>2026-09-03T13:29:21.000Z</time>
      </trkpt>
      <trkpt lat="48.21492" lon="6.68138">
        <ele>517</ele>
        <time>2026-09-03T13:29:22.000Z</time>
      </trkpt>
      <trkpt lat="48.21491" lon="6.68136">
        <ele>517</ele>
        <time>2026-09-03T13:29:23.000Z</time>
      </trkpt>
      <trkpt lat="48.21491" lon="6.68135">
        <ele>517</ele>
        <time>2026-09-03T13:29:24.000Z</time>
      </trkpt>
      <trkpt lat="48.2149" lon="6.68134">
        <ele>517</ele>
        <time>2026-09-03T13:29:25.000Z</time>
      </trkpt>
      <trkpt lat="48.21489" lon="6.68132">
        <ele>517.20001220703</ele>
        <time>2026-09-03T13:29:26.000Z</time>
      </trkpt>
      <trkpt lat="48.21488" lon="6.68131">
        <ele>517.20001220703</ele>
        <time>2026-09-03T13:29:27.000Z</time>
      </trkpt>
      <trkpt lat="48.21488" lon="6.68129">
        <ele>517.20001220703</ele>
        <time>2026-09-03T13:29:28.000Z</time>
      </trkpt>
      <trkpt lat="48.21488" lon="6.68127">
        <ele>517.20001220703</ele>
        <time>2026-09-03T13:29:29.000Z</time>
      </trkpt>
      <trkpt lat="48.21487" lon="6.68126">
        <ele>517.20001220703</ele>
        <time>2026-09-03T13:29:30.000Z</time>
      </trkpt>
      <trkpt lat="48.21486" lon="6.68125">
        <ele>517</ele>
        <time>2026-09-03T13:29:31.000Z</time>
      </trkpt>
      <trkpt lat="48.21486" lon="6.68124">
        <ele>517</ele>
        <time>2026-09-03T13:29:32.000Z</time>
      </trkpt>
      <trkpt lat="48.21485" lon="6.68123">
        <ele>516.79998779297</ele>
        <time>2026-09-03T13:29:33.000Z</time>
      </trkpt>
      <trkpt lat="48.21485" lon="6.68121">
        <ele>516.79998779297</ele>
        <time>2026-09-03T13:29:34.000Z</time>
      </trkpt>
      <trkpt lat="48.21484" lon="6.6812">
        <ele>516.59997558594</ele>
        <time>2026-09-03T13:29:35.000Z</time>
      </trkpt>
      <trkpt lat="48.21484" lon="6.68118">
        <ele>516.59997558594</ele>
        <time>2026-09-03T13:29:36.000Z</time>
      </trkpt>
      <trkpt lat="48.21483" lon="6.68117">
        <ele>516.40002441406</ele>
        <time>2026-09-03T13:29:37.000Z</time>
      </trkpt>
      <trkpt lat="48.21483" lon="6.68116">
        <ele>516.40002441406</ele>
        <time>2026-09-03T13:29:38.000Z</time>
      </trkpt>
      <trkpt lat="48.21482" lon="6.68114">
        <ele>516.40002441406</ele>
        <time>2026-09-03T13:29:39.000Z</time>
      </trkpt>
      <trkpt lat="48.21482" lon="6.68112">
        <ele>516.40002441406</ele>
        <time>2026-09-03T13:29:40.000Z</time>
      </trkpt>
      <trkpt lat="48.21481" lon="6.6811">
        <ele>516.40002441406</ele>
        <time>2026-09-03T13:29:41.000Z</time>
      </trkpt>
      <trkpt lat="48.2148" lon="6.68108">
        <ele>516.20001220703</ele>
        <time>2026-09-03T13:29:42.000Z</time>
      </trkpt>
      <trkpt lat="48.21479" lon="6.68107">
        <ele>516</ele>
        <time>2026-09-03T13:29:43.000Z</time>
      </trkpt>
      <trkpt lat="48.21479" lon="6.68105">
        <ele>516</ele>
        <time>2026-09-03T13:29:44.000Z</time>
      </trkpt>
      <trkpt lat="48.21478" lon="6.68103">
        <ele>516</ele>
        <time>2026-09-03T13:29:45.000Z</time>
      </trkpt>
      <trkpt lat="48.21477" lon="6.68102">
        <ele>516</ele>
        <time>2026-09-03T13:29:46.000Z</time>
      </trkpt>
      <trkpt lat="48.21477" lon="6.68101">
        <ele>516</ele>
        <time>2026-09-03T13:29:47.000Z</time>
      </trkpt>
      <trkpt lat="48.21476" lon="6.681">
        <ele>516.20001220703</ele>
        <time>2026-09-03T13:29:48.000Z</time>
      </trkpt>
      <trkpt lat="48.21475" lon="6.68099">
        <ele>516.20001220703</ele>
        <time>2026-09-03T13:29:49.000Z</time>
      </trkpt>
      <trkpt lat="48.21475" lon="6.68098">
        <ele>516.20001220703</ele>
        <time>2026-09-03T13:29:50.000Z</time>
      </trkpt>
      <trkpt lat="48.21475" lon="6.68097">
        <ele>516.20001220703</ele>
        <time>2026-09-03T13:29:51.000Z</time>
      </trkpt>
      <trkpt lat="48.21475" lon="6.68097">
        <ele>516.20001220703</ele>
        <time>2026-09-03T13:29:52.000Z</time>
      </trkpt>
      <trkpt lat="48.21475" lon="6.68097">
        <ele>516.20001220703</ele>
        <time>2026-09-03T13:29:53.000Z</time>
      </trkpt>
      <trkpt lat="48.21474" lon="6.68097">
        <ele>516.20001220703</ele>
        <time>2026-09-03T13:29:54.000Z</time>
      </trkpt>
      <trkpt lat="48.21473" lon="6.68095">
        <ele>516.20001220703</ele>
        <time>2026-09-03T13:29:55.000Z</time>
      </trkpt>
      <trkpt lat="48.21473" lon="6.68094">
        <ele>516.20001220703</ele>
        <time>2026-09-03T13:29:56.000Z</time>
      </trkpt>
      <trkpt lat="48.21472" lon="6.68094">
        <ele>516.20001220703</ele>
        <time>2026-09-03T13:29:57.000Z</time>
      </trkpt>
      <trkpt lat="48.21471" lon="6.68093">
        <ele>516.20001220703</ele>
        <time>2026-09-03T13:29:58.000Z</time>
      </trkpt>
      <trkpt lat="48.2147" lon="6.68091">
        <ele>516.20001220703</ele>
        <time>2026-09-03T13:29:59.000Z</time>
      </trkpt>
      <trkpt lat="48.2147" lon="6.68089">
        <ele>516.40002441406</ele>
        <time>2026-09-03T13:30:00.000Z</time>
      </trkpt>
      <trkpt lat="48.21469" lon="6.68088">
        <ele>516.40002441406</ele>
        <time>2026-09-03T13:30:01.000Z</time>
      </trkpt>
      <trkpt lat="48.21469" lon="6.68086">
        <ele>516.40002441406</ele>
        <time>2026-09-03T13:30:02.000Z</time>
      </trkpt>
      <trkpt lat="48.21468" lon="6.68085">
        <ele>516.20001220703</ele>
        <time>2026-09-03T13:30:03.000Z</time>
      </trkpt>
      <trkpt lat="48.21468" lon="6.68084">
        <ele>516.20001220703</ele>
        <time>2026-09-03T13:30:04.000Z</time>
      </trkpt>
      <trkpt lat="48.21467" lon="6.68083">
        <ele>516.20001220703</ele>
        <time>2026-09-03T13:30:05.000Z</time>
      </trkpt>
      <trkpt lat="48.21466" lon="6.68081">
        <ele>516.20001220703</ele>
        <time>2026-09-03T13:30:06.000Z</time>
      </trkpt>
      <trkpt lat="48.21466" lon="6.6808">
        <ele>516.20001220703</ele>
        <time>2026-09-03T13:30:07.000Z</time>
      </trkpt>
      <trkpt lat="48.21465" lon="6.68078">
        <ele>516</ele>
        <time>2026-09-03T13:30:08.000Z</time>
      </trkpt>
      <trkpt lat="48.21464" lon="6.68075">
        <ele>516</ele>
        <time>2026-09-03T13:30:09.000Z</time>
      </trkpt>
      <trkpt lat="48.21464" lon="6.68073">
        <ele>516</ele>
        <time>2026-09-03T13:30:10.000Z</time>
      </trkpt>
      <trkpt lat="48.21463" lon="6.68072">
        <ele>516</ele>
        <time>2026-09-03T13:30:11.000Z</time>
      </trkpt>
      <trkpt lat="48.21462" lon="6.68071">
        <ele>515.79998779297</ele>
        <time>2026-09-03T13:30:12.000Z</time>
      </trkpt>
      <trkpt lat="48.21461" lon="6.68069">
        <ele>515.79998779297</ele>
        <time>2026-09-03T13:30:13.000Z</time>
      </trkpt>
      <trkpt lat="48.21461" lon="6.68068">
        <ele>515.79998779297</ele>
        <time>2026-09-03T13:30:14.000Z</time>
      </trkpt>
      <trkpt lat="48.2146" lon="6.68066">
        <ele>515.79998779297</ele>
        <time>2026-09-03T13:30:15.000Z</time>
      </trkpt>
      <trkpt lat="48.21459" lon="6.68064">
        <ele>515.79998779297</ele>
        <time>2026-09-03T13:30:16.000Z</time>
      </trkpt>
      <trkpt lat="48.21459" lon="6.68063">
        <ele>515.79998779297</ele>
        <time>2026-09-03T13:30:17.000Z</time>
      </trkpt>
      <trkpt lat="48.21458" lon="6.68061">
        <ele>515.79998779297</ele>
        <time>2026-09-03T13:30:18.000Z</time>
      </trkpt>
      <trkpt lat="48.21459" lon="6.68059">
        <ele>515.79998779297</ele>
        <time>2026-09-03T13:30:19.000Z</time>
      </trkpt>
      <trkpt lat="48.2146" lon="6.68057">
        <ele>515.79998779297</ele>
        <time>2026-09-03T13:30:20.000Z</time>
      </trkpt>
      <trkpt lat="48.2146" lon="6.68055">
        <ele>515.79998779297</ele>
        <time>2026-09-03T13:30:21.000Z</time>
      </trkpt>
      <trkpt lat="48.21461" lon="6.68054">
        <ele>515.59997558594</ele>
        <time>2026-09-03T13:30:22.000Z</time>
      </trkpt>
      <trkpt lat="48.21462" lon="6.68052">
        <ele>515.40002441406</ele>
        <time>2026-09-03T13:30:23.000Z</time>
      </trkpt>
      <trkpt lat="48.21463" lon="6.68051">
        <ele>515.20001220703</ele>
        <time>2026-09-03T13:30:24.000Z</time>
      </trkpt>
      <trkpt lat="48.21463" lon="6.6805">
        <ele>515</ele>
        <time>2026-09-03T13:30:25.000Z</time>
      </trkpt>
      <trkpt lat="48.21464" lon="6.68049">
        <ele>515</ele>
        <time>2026-09-03T13:30:26.000Z</time>
      </trkpt>
      <trkpt lat="48.21464" lon="6.68047">
        <ele>514.79998779297</ele>
        <time>2026-09-03T13:30:27.000Z</time>
      </trkpt>
      <trkpt lat="48.21464" lon="6.68045">
        <ele>514.79998779297</ele>
        <time>2026-09-03T13:30:28.000Z</time>
      </trkpt>
      <trkpt lat="48.21465" lon="6.68044">
        <ele>514.79998779297</ele>
        <time>2026-09-03T13:30:29.000Z</time>
      </trkpt>
      <trkpt lat="48.21465" lon="6.68042">
        <ele>514.79998779297</ele>
        <time>2026-09-03T13:30:30.000Z</time>
      </trkpt>
      <trkpt lat="48.21466" lon="6.6804">
        <ele>514.79998779297</ele>
        <time>2026-09-03T13:30:31.000Z</time>
      </trkpt>
      <trkpt lat="48.21466" lon="6.68039">
        <ele>514.79998779297</ele>
        <time>2026-09-03T13:30:32.000Z</time>
      </trkpt>
      <trkpt lat="48.21467" lon="6.68038">
        <ele>514.59997558594</ele>
        <time>2026-09-03T13:30:33.000Z</time>
      </trkpt>
      <trkpt lat="48.21469" lon="6.68037">
        <ele>514.40002441406</ele>
        <time>2026-09-03T13:30:34.000Z</time>
      </trkpt>
      <trkpt lat="48.2147" lon="6.68036">
        <ele>514.40002441406</ele>
        <time>2026-09-03T13:30:35.000Z</time>
      </trkpt>
      <trkpt lat="48.2147" lon="6.68036">
        <ele>514.20001220703</ele>
        <time>2026-09-03T13:30:36.000Z</time>
      </trkpt>
      <trkpt lat="48.21471" lon="6.68035">
        <ele>514.20001220703</ele>
        <time>2026-09-03T13:30:37.000Z</time>
      </trkpt>
      <trkpt lat="48.21472" lon="6.68035">
        <ele>514</ele>
        <time>2026-09-03T13:30:38.000Z</time>
      </trkpt>
      <trkpt lat="48.21472" lon="6.68035">
        <ele>514</ele>
        <time>2026-09-03T13:30:39.000Z</time>
      </trkpt>
      <trkpt lat="48.21473" lon="6.68035">
        <ele>513.79998779297</ele>
        <time>2026-09-03T13:30:40.000Z</time>
      </trkpt>
      <trkpt lat="48.21473" lon="6.68034">
        <ele>513.59997558594</ele>
        <time>2026-09-03T13:30:41.000Z</time>
      </trkpt>
      <trkpt lat="48.21474" lon="6.68033">
        <ele>513.40002441406</ele>
        <time>2026-09-03T13:30:42.000Z</time>
      </trkpt>
      <trkpt lat="48.21475" lon="6.68033">
        <ele>513.40002441406</ele>
        <time>2026-09-03T13:30:43.000Z</time>
      </trkpt>
      <trkpt lat="48.21475" lon="6.68032">
        <ele>513.20001220703</ele>
        <time>2026-09-03T13:30:44.000Z</time>
      </trkpt>
      <trkpt lat="48.21476" lon="6.68032">
        <ele>513.20001220703</ele>
        <time>2026-09-03T13:30:45.000Z</time>
      </trkpt>
      <trkpt lat="48.21476" lon="6.68031">
        <ele>513</ele>
        <time>2026-09-03T13:30:46.000Z</time>
      </trkpt>
      <trkpt lat="48.21476" lon="6.68031">
        <ele>513</ele>
        <time>2026-09-03T13:30:47.000Z</time>
      </trkpt>
      <trkpt lat="48.21476" lon="6.6803">
        <ele>512.79998779297</ele>
        <time>2026-09-03T13:30:48.000Z</time>
      </trkpt>
      <trkpt lat="48.21476" lon="6.68029">
        <ele>512.79998779297</ele>
        <time>2026-09-03T13:30:49.000Z</time>
      </trkpt>
      <trkpt lat="48.21476" lon="6.68029">
        <ele>512.59997558594</ele>
        <time>2026-09-03T13:30:50.000Z</time>
      </trkpt>
      <trkpt lat="48.21476" lon="6.68028">
        <ele>512.59997558594</ele>
        <time>2026-09-03T13:30:51.000Z</time>
      </trkpt>
      <trkpt lat="48.21476" lon="6.68028">
        <ele>512.40002441406</ele>
        <time>2026-09-03T13:30:52.000Z</time>
      </trkpt>
      <trkpt lat="48.21476" lon="6.68027">
        <ele>512.40002441406</ele>
        <time>2026-09-03T13:30:53.000Z</time>
      </trkpt>
      <trkpt lat="48.21476" lon="6.68025">
        <ele>512.20001220703</ele>
        <time>2026-09-03T13:30:54.000Z</time>
      </trkpt>
      <trkpt lat="48.21477" lon="6.68024">
        <ele>512</ele>
        <time>2026-09-03T13:30:55.000Z</time>
      </trkpt>
      <trkpt lat="48.21477" lon="6.68024">
        <ele>511.79998779297</ele>
        <time>2026-09-03T13:30:56.000Z</time>
      </trkpt>
      <trkpt lat="48.21477" lon="6.68023">
        <ele>511.79998779297</ele>
        <time>2026-09-03T13:30:57.000Z</time>
      </trkpt>
      <trkpt lat="48.21478" lon="6.68022">
        <ele>511.59997558594</ele>
        <time>2026-09-03T13:30:58.000Z</time>
      </trkpt>
      <trkpt lat="48.21479" lon="6.68021">
        <ele>511.40002441406</ele>
        <time>2026-09-03T13:30:59.000Z</time>
      </trkpt>
      <trkpt lat="48.2148" lon="6.68021">
        <ele>511.40002441406</ele>
        <time>2026-09-03T13:31:00.000Z</time>
      </trkpt>
      <trkpt lat="48.2148" lon="6.68022">
        <ele>511.20001220703</ele>
        <time>2026-09-03T13:31:01.000Z</time>
      </trkpt>
      <trkpt lat="48.21481" lon="6.68024">
        <ele>511</ele>
        <time>2026-09-03T13:31:02.000Z</time>
      </trkpt>
      <trkpt lat="48.21482" lon="6.68024">
        <ele>510.79998779297</ele>
        <time>2026-09-03T13:31:03.000Z</time>
      </trkpt>
      <trkpt lat="48.21481" lon="6.68024">
        <ele>510.79998779297</ele>
        <time>2026-09-03T13:31:04.000Z</time>
      </trkpt>
      <trkpt lat="48.21481" lon="6.68023">
        <ele>510.59997558594</ele>
        <time>2026-09-03T13:31:05.000Z</time>
      </trkpt>
      <trkpt lat="48.21481" lon="6.68022">
        <ele>510.59997558594</ele>
        <time>2026-09-03T13:31:06.000Z</time>
      </trkpt>
      <trkpt lat="48.21481" lon="6.6802">
        <ele>510.59997558594</ele>
        <time>2026-09-03T13:31:07.000Z</time>
      </trkpt>
      <trkpt lat="48.21481" lon="6.6802">
        <ele>510.79998779297</ele>
        <time>2026-09-03T13:31:08.000Z</time>
      </trkpt>
      <trkpt lat="48.21481" lon="6.6802">
        <ele>510.79998779297</ele>
        <time>2026-09-03T13:31:09.000Z</time>
      </trkpt>
      <trkpt lat="48.21482" lon="6.68019">
        <ele>510.79998779297</ele>
        <time>2026-09-03T13:31:10.000Z</time>
      </trkpt>
      <trkpt lat="48.21482" lon="6.68018">
        <ele>510.79998779297</ele>
        <time>2026-09-03T13:31:11.000Z</time>
      </trkpt>
      <trkpt lat="48.21482" lon="6.68018">
        <ele>510.79998779297</ele>
        <time>2026-09-03T13:31:12.000Z</time>
      </trkpt>
      <trkpt lat="48.21482" lon="6.68017">
        <ele>510.79998779297</ele>
        <time>2026-09-03T13:31:13.000Z</time>
      </trkpt>
      <trkpt lat="48.21482" lon="6.68017">
        <ele>510.79998779297</ele>
        <time>2026-09-03T13:31:14.000Z</time>
      </trkpt>
      <trkpt lat="48.21483" lon="6.68017">
        <ele>510.59997558594</ele>
        <time>2026-09-03T13:31:15.000Z</time>
      </trkpt>
      <trkpt lat="48.21483" lon="6.68017">
        <ele>510.40002441406</ele>
        <time>2026-09-03T13:31:16.000Z</time>
      </trkpt>
      <trkpt lat="48.21484" lon="6.68015">
        <ele>510.20001220703</ele>
        <time>2026-09-03T13:31:17.000Z</time>
      </trkpt>
      <trkpt lat="48.21484" lon="6.68014">
        <ele>510.20001220703</ele>
        <time>2026-09-03T13:31:18.000Z</time>
      </trkpt>
      <trkpt lat="48.21485" lon="6.68014">
        <ele>510</ele>
        <time>2026-09-03T13:31:19.000Z</time>
      </trkpt>
      <trkpt lat="48.21485" lon="6.68014">
        <ele>510</ele>
        <time>2026-09-03T13:31:20.000Z</time>
      </trkpt>
      <trkpt lat="48.21484" lon="6.68012">
        <ele>510</ele>
        <time>2026-09-03T13:31:21.000Z</time>
      </trkpt>
      <trkpt lat="48.21483" lon="6.68011">
        <ele>509.79998779297</ele>
        <time>2026-09-03T13:31:22.000Z</time>
      </trkpt>
      <trkpt lat="48.21483" lon="6.6801">
        <ele>509.40002441406</ele>
        <time>2026-09-03T13:31:23.000Z</time>
      </trkpt>
      <trkpt lat="48.21482" lon="6.68009">
        <ele>509.20001220703</ele>
        <time>2026-09-03T13:31:24.000Z</time>
      </trkpt>
      <trkpt lat="48.21482" lon="6.68007">
        <ele>508.79998779297</ele>
        <time>2026-09-03T13:31:25.000Z</time>
      </trkpt>
      <trkpt lat="48.21481" lon="6.68006">
        <ele>508.20001220703</ele>
        <time>2026-09-03T13:31:26.000Z</time>
      </trkpt>
      <trkpt lat="48.2148" lon="6.68005">
        <ele>507.79998779297</ele>
        <time>2026-09-03T13:31:27.000Z</time>
      </trkpt>
      <trkpt lat="48.2148" lon="6.68004">
        <ele>507.79998779297</ele>
        <time>2026-09-03T13:31:28.000Z</time>
      </trkpt>
      <trkpt lat="48.21479" lon="6.68002">
        <ele>507.40002441406</ele>
        <time>2026-09-03T13:31:29.000Z</time>
      </trkpt>
      <trkpt lat="48.21479" lon="6.68001">
        <ele>507.59997558594</ele>
        <time>2026-09-03T13:31:30.000Z</time>
      </trkpt>
      <trkpt lat="48.21479" lon="6.67999">
        <ele>508</ele>
        <time>2026-09-03T13:31:31.000Z</time>
      </trkpt>
      <trkpt lat="48.21478" lon="6.67999">
        <ele>508.20001220703</ele>
        <time>2026-09-03T13:31:32.000Z</time>
      </trkpt>
      <trkpt lat="48.21478" lon="6.67998">
        <ele>508.40002441406</ele>
        <time>2026-09-03T13:31:33.000Z</time>
      </trkpt>
      <trkpt lat="48.21478" lon="6.67998">
        <ele>508.40002441406</ele>
        <time>2026-09-03T13:31:34.000Z</time>
      </trkpt>
      <trkpt lat="48.21479" lon="6.67998">
        <ele>508.20001220703</ele>
        <time>2026-09-03T13:31:35.000Z</time>
      </trkpt>
      <trkpt lat="48.2148" lon="6.67999">
        <ele>508.20001220703</ele>
        <time>2026-09-03T13:31:36.000Z</time>
      </trkpt>
      <trkpt lat="48.2148" lon="6.68">
        <ele>508.20001220703</ele>
        <time>2026-09-03T13:31:37.000Z</time>
      </trkpt>
      <trkpt lat="48.2148" lon="6.68001">
        <ele>508.20001220703</ele>
        <time>2026-09-03T13:31:38.000Z</time>
      </trkpt>
      <trkpt lat="48.2148" lon="6.68001">
        <ele>508</ele>
        <time>2026-09-03T13:31:39.000Z</time>
      </trkpt>
      <trkpt lat="48.2148" lon="6.68001">
        <ele>508</ele>
        <time>2026-09-03T13:31:40.000Z</time>
      </trkpt>
      <trkpt lat="48.2148" lon="6.68001">
        <ele>508</ele>
        <time>2026-09-03T13:31:41.000Z</time>
      </trkpt>
      <trkpt lat="48.2148" lon="6.68001">
        <ele>508</ele>
        <time>2026-09-03T13:31:42.000Z</time>
      </trkpt>
      <trkpt lat="48.2148" lon="6.68001">
        <ele>508</ele>
        <time>2026-09-03T13:31:43.000Z</time>
      </trkpt>
      <trkpt lat="48.2148" lon="6.68001">
        <ele>508</ele>
        <time>2026-09-03T13:31:44.000Z</time>
      </trkpt>
      <trkpt lat="48.2148" lon="6.68001">
        <ele>508</ele>
        <time>2026-09-03T13:31:45.000Z</time>
      </trkpt>
      <trkpt lat="48.2148" lon="6.68001">
        <ele>508</ele>
        <time>2026-09-03T13:31:46.000Z</time>
      </trkpt>
      <trkpt lat="48.21481" lon="6.68001">
        <ele>508</ele>
        <time>2026-09-03T13:31:47.000Z</time>
      </trkpt>
      <trkpt lat="48.2148" lon="6.67999">
        <ele>508</ele>
        <time>2026-09-03T13:31:48.000Z</time>
      </trkpt>
      <trkpt lat="48.21479" lon="6.67996">
        <ele>508.20001220703</ele>
        <time>2026-09-03T13:31:49.000Z</time>
      </trkpt>
      <trkpt lat="48.21479" lon="6.67993">
        <ele>508.20001220703</ele>
        <time>2026-09-03T13:31:50.000Z</time>
      </trkpt>
      <trkpt lat="48.21478" lon="6.67991">
        <ele>508</ele>
        <time>2026-09-03T13:31:51.000Z</time>
      </trkpt>
      <trkpt lat="48.21477" lon="6.67989">
        <ele>508</ele>
        <time>2026-09-03T13:31:52.000Z</time>
      </trkpt>
      <trkpt lat="48.21477" lon="6.67987">
        <ele>508</ele>
        <time>2026-09-03T13:31:53.000Z</time>
      </trkpt>
      <trkpt lat="48.21477" lon="6.67985">
        <ele>508</ele>
        <time>2026-09-03T13:31:54.000Z</time>
      </trkpt>
      <trkpt lat="48.21477" lon="6.67984">
        <ele>507.79998779297</ele>
        <time>2026-09-03T13:31:55.000Z</time>
      </trkpt>
      <trkpt lat="48.21476" lon="6.67982">
        <ele>507.79998779297</ele>
        <time>2026-09-03T13:31:56.000Z</time>
      </trkpt>
      <trkpt lat="48.21476" lon="6.67981">
        <ele>507.79998779297</ele>
        <time>2026-09-03T13:31:57.000Z</time>
      </trkpt>
      <trkpt lat="48.21475" lon="6.67978">
        <ele>507.79998779297</ele>
        <time>2026-09-03T13:31:58.000Z</time>
      </trkpt>
      <trkpt lat="48.21475" lon="6.67976">
        <ele>507.59997558594</ele>
        <time>2026-09-03T13:31:59.000Z</time>
      </trkpt>
      <trkpt lat="48.21475" lon="6.67975">
        <ele>507.79998779297</ele>
        <time>2026-09-03T13:32:00.000Z</time>
      </trkpt>
      <trkpt lat="48.21474" lon="6.67973">
        <ele>507.79998779297</ele>
        <time>2026-09-03T13:32:01.000Z</time>
      </trkpt>
      <trkpt lat="48.21474" lon="6.67971">
        <ele>507.79998779297</ele>
        <time>2026-09-03T13:32:02.000Z</time>
      </trkpt>
      <trkpt lat="48.21474" lon="6.67969">
        <ele>507.79998779297</ele>
        <time>2026-09-03T13:32:03.000Z</time>
      </trkpt>
      <trkpt lat="48.21474" lon="6.67968">
        <ele>507.79998779297</ele>
        <time>2026-09-03T13:32:04.000Z</time>
      </trkpt>
      <trkpt lat="48.21474" lon="6.67966">
        <ele>507.79998779297</ele>
        <time>2026-09-03T13:32:05.000Z</time>
      </trkpt>
      <trkpt lat="48.21474" lon="6.67965">
        <ele>507.79998779297</ele>
        <time>2026-09-03T13:32:06.000Z</time>
      </trkpt>
      <trkpt lat="48.21474" lon="6.67964">
        <ele>507.59997558594</ele>
        <time>2026-09-03T13:32:07.000Z</time>
      </trkpt>
      <trkpt lat="48.21474" lon="6.67962">
        <ele>507.59997558594</ele>
        <time>2026-09-03T13:32:08.000Z</time>
      </trkpt>
      <trkpt lat="48.21474" lon="6.67961">
        <ele>507.40002441406</ele>
        <time>2026-09-03T13:32:09.000Z</time>
      </trkpt>
      <trkpt lat="48.21474" lon="6.67959">
        <ele>507.20001220703</ele>
        <time>2026-09-03T13:32:10.000Z</time>
      </trkpt>
      <trkpt lat="48.21474" lon="6.67958">
        <ele>507.20001220703</ele>
        <time>2026-09-03T13:32:11.000Z</time>
      </trkpt>
      <trkpt lat="48.21474" lon="6.67957">
        <ele>507</ele>
        <time>2026-09-03T13:32:12.000Z</time>
      </trkpt>
      <trkpt lat="48.21473" lon="6.67956">
        <ele>507</ele>
        <time>2026-09-03T13:32:13.000Z</time>
      </trkpt>
      <trkpt lat="48.21473" lon="6.67954">
        <ele>507</ele>
        <time>2026-09-03T13:32:14.000Z</time>
      </trkpt>
      <trkpt lat="48.21473" lon="6.67952">
        <ele>507</ele>
        <time>2026-09-03T13:32:15.000Z</time>
      </trkpt>
      <trkpt lat="48.21472" lon="6.6795">
        <ele>506.79998779297</ele>
        <time>2026-09-03T13:32:16.000Z</time>
      </trkpt>
      <trkpt lat="48.21472" lon="6.67949">
        <ele>506.79998779297</ele>
        <time>2026-09-03T13:32:17.000Z</time>
      </trkpt>
      <trkpt lat="48.21471" lon="6.67947">
        <ele>506.79998779297</ele>
        <time>2026-09-03T13:32:18.000Z</time>
      </trkpt>
      <trkpt lat="48.21471" lon="6.67945">
        <ele>506.79998779297</ele>
        <time>2026-09-03T13:32:19.000Z</time>
      </trkpt>
      <trkpt lat="48.2147" lon="6.67942">
        <ele>506.79998779297</ele>
        <time>2026-09-03T13:32:20.000Z</time>
      </trkpt>
      <trkpt lat="48.2147" lon="6.6794">
        <ele>506.79998779297</ele>
        <time>2026-09-03T13:32:21.000Z</time>
      </trkpt>
      <trkpt lat="48.21469" lon="6.67937">
        <ele>506.79998779297</ele>
        <time>2026-09-03T13:32:22.000Z</time>
      </trkpt>
      <trkpt lat="48.21468" lon="6.67936">
        <ele>506.79998779297</ele>
        <time>2026-09-03T13:32:23.000Z</time>
      </trkpt>
      <trkpt lat="48.21468" lon="6.67933">
        <ele>506.59997558594</ele>
        <time>2026-09-03T13:32:24.000Z</time>
      </trkpt>
      <trkpt lat="48.21468" lon="6.67931">
        <ele>506.40002441406</ele>
        <time>2026-09-03T13:32:25.000Z</time>
      </trkpt>
      <trkpt lat="48.21467" lon="6.6793">
        <ele>506.40002441406</ele>
        <time>2026-09-03T13:32:26.000Z</time>
      </trkpt>
      <trkpt lat="48.21467" lon="6.67928">
        <ele>506.20001220703</ele>
        <time>2026-09-03T13:32:27.000Z</time>
      </trkpt>
      <trkpt lat="48.21467" lon="6.67927">
        <ele>506</ele>
        <time>2026-09-03T13:32:28.000Z</time>
      </trkpt>
      <trkpt lat="48.21466" lon="6.67926">
        <ele>506</ele>
        <time>2026-09-03T13:32:29.000Z</time>
      </trkpt>
      <trkpt lat="48.21466" lon="6.67925">
        <ele>506</ele>
        <time>2026-09-03T13:32:30.000Z</time>
      </trkpt>
      <trkpt lat="48.21466" lon="6.67924">
        <ele>505.79998779297</ele>
        <time>2026-09-03T13:32:31.000Z</time>
      </trkpt>
      <trkpt lat="48.21466" lon="6.67922">
        <ele>505.79998779297</ele>
        <time>2026-09-03T13:32:32.000Z</time>
      </trkpt>
      <trkpt lat="48.21466" lon="6.67921">
        <ele>505.59997558594</ele>
        <time>2026-09-03T13:32:33.000Z</time>
      </trkpt>
      <trkpt lat="48.21466" lon="6.6792">
        <ele>505.59997558594</ele>
        <time>2026-09-03T13:32:34.000Z</time>
      </trkpt>
      <trkpt lat="48.21466" lon="6.67918">
        <ele>505.40002441406</ele>
        <time>2026-09-03T13:32:35.000Z</time>
      </trkpt>
      <trkpt lat="48.21466" lon="6.67916">
        <ele>505.40002441406</ele>
        <time>2026-09-03T13:32:36.000Z</time>
      </trkpt>
      <trkpt lat="48.21465" lon="6.67914">
        <ele>505.40002441406</ele>
        <time>2026-09-03T13:32:37.000Z</time>
      </trkpt>
      <trkpt lat="48.21466" lon="6.67913">
        <ele>505.40002441406</ele>
        <time>2026-09-03T13:32:38.000Z</time>
      </trkpt>
      <trkpt lat="48.21466" lon="6.67912">
        <ele>505.40002441406</ele>
        <time>2026-09-03T13:32:39.000Z</time>
      </trkpt>
      <trkpt lat="48.21466" lon="6.6791">
        <ele>505.20001220703</ele>
        <time>2026-09-03T13:32:40.000Z</time>
      </trkpt>
      <trkpt lat="48.21466" lon="6.67908">
        <ele>505.20001220703</ele>
        <time>2026-09-03T13:32:41.000Z</time>
      </trkpt>
      <trkpt lat="48.21466" lon="6.67906">
        <ele>505.20001220703</ele>
        <time>2026-09-03T13:32:42.000Z</time>
      </trkpt>
      <trkpt lat="48.21466" lon="6.67904">
        <ele>505</ele>
        <time>2026-09-03T13:32:43.000Z</time>
      </trkpt>
      <trkpt lat="48.21466" lon="6.67902">
        <ele>504.79998779297</ele>
        <time>2026-09-03T13:32:44.000Z</time>
      </trkpt>
      <trkpt lat="48.21466" lon="6.679">
        <ele>504.79998779297</ele>
        <time>2026-09-03T13:32:45.000Z</time>
      </trkpt>
      <trkpt lat="48.21466" lon="6.67899">
        <ele>504.59997558594</ele>
        <time>2026-09-03T13:32:46.000Z</time>
      </trkpt>
      <trkpt lat="48.21466" lon="6.67898">
        <ele>504.40002441406</ele>
        <time>2026-09-03T13:32:47.000Z</time>
      </trkpt>
      <trkpt lat="48.21466" lon="6.67896">
        <ele>504.40002441406</ele>
        <time>2026-09-03T13:32:48.000Z</time>
      </trkpt>
      <trkpt lat="48.21467" lon="6.67895">
        <ele>504.20001220703</ele>
        <time>2026-09-03T13:32:49.000Z</time>
      </trkpt>
      <trkpt lat="48.21467" lon="6.67893">
        <ele>504</ele>
        <time>2026-09-03T13:32:50.000Z</time>
      </trkpt>
      <trkpt lat="48.21467" lon="6.67892">
        <ele>504</ele>
        <time>2026-09-03T13:32:51.000Z</time>
      </trkpt>
      <trkpt lat="48.21467" lon="6.67891">
        <ele>504</ele>
        <time>2026-09-03T13:32:52.000Z</time>
      </trkpt>
      <trkpt lat="48.21467" lon="6.67889">
        <ele>504</ele>
        <time>2026-09-03T13:32:53.000Z</time>
      </trkpt>
      <trkpt lat="48.21468" lon="6.67888">
        <ele>504</ele>
        <time>2026-09-03T13:32:54.000Z</time>
      </trkpt>
      <trkpt lat="48.21468" lon="6.67887">
        <ele>503.79998779297</ele>
        <time>2026-09-03T13:32:55.000Z</time>
      </trkpt>
      <trkpt lat="48.21468" lon="6.67886">
        <ele>503.59997558594</ele>
        <time>2026-09-03T13:32:56.000Z</time>
      </trkpt>
      <trkpt lat="48.21468" lon="6.67884">
        <ele>503.59997558594</ele>
        <time>2026-09-03T13:32:57.000Z</time>
      </trkpt>
      <trkpt lat="48.21468" lon="6.67883">
        <ele>503.40002441406</ele>
        <time>2026-09-03T13:32:58.000Z</time>
      </trkpt>
      <trkpt lat="48.21468" lon="6.67883">
        <ele>503.20001220703</ele>
        <time>2026-09-03T13:32:59.000Z</time>
      </trkpt>
      <trkpt lat="48.21468" lon="6.67881">
        <ele>503</ele>
        <time>2026-09-03T13:33:00.000Z</time>
      </trkpt>
      <trkpt lat="48.21468" lon="6.6788">
        <ele>503</ele>
        <time>2026-09-03T13:33:01.000Z</time>
      </trkpt>
      <trkpt lat="48.21468" lon="6.67879">
        <ele>502.79998779297</ele>
        <time>2026-09-03T13:33:02.000Z</time>
      </trkpt>
      <trkpt lat="48.21468" lon="6.67877">
        <ele>502.79998779297</ele>
        <time>2026-09-03T13:33:03.000Z</time>
      </trkpt>
      <trkpt lat="48.21468" lon="6.67875">
        <ele>502.59997558594</ele>
        <time>2026-09-03T13:33:04.000Z</time>
      </trkpt>
      <trkpt lat="48.21468" lon="6.67874">
        <ele>502.40002441406</ele>
        <time>2026-09-03T13:33:05.000Z</time>
      </trkpt>
      <trkpt lat="48.21468" lon="6.67872">
        <ele>502.20001220703</ele>
        <time>2026-09-03T13:33:06.000Z</time>
      </trkpt>
      <trkpt lat="48.21468" lon="6.67871">
        <ele>502</ele>
        <time>2026-09-03T13:33:07.000Z</time>
      </trkpt>
      <trkpt lat="48.21468" lon="6.67869">
        <ele>502</ele>
        <time>2026-09-03T13:33:08.000Z</time>
      </trkpt>
      <trkpt lat="48.21468" lon="6.67867">
        <ele>501.79998779297</ele>
        <time>2026-09-03T13:33:09.000Z</time>
      </trkpt>
      <trkpt lat="48.21468" lon="6.67866">
        <ele>501.79998779297</ele>
        <time>2026-09-03T13:33:10.000Z</time>
      </trkpt>
      <trkpt lat="48.21468" lon="6.67865">
        <ele>501.59997558594</ele>
        <time>2026-09-03T13:33:11.000Z</time>
      </trkpt>
      <trkpt lat="48.21468" lon="6.67863">
        <ele>501.59997558594</ele>
        <time>2026-09-03T13:33:12.000Z</time>
      </trkpt>
      <trkpt lat="48.21468" lon="6.67861">
        <ele>501.59997558594</ele>
        <time>2026-09-03T13:33:13.000Z</time>
      </trkpt>
      <trkpt lat="48.21468" lon="6.6786">
        <ele>501.40002441406</ele>
        <time>2026-09-03T13:33:14.000Z</time>
      </trkpt>
      <trkpt lat="48.21468" lon="6.67858">
        <ele>501.20001220703</ele>
        <time>2026-09-03T13:33:15.000Z</time>
      </trkpt>
      <trkpt lat="48.21469" lon="6.67858">
        <ele>501</ele>
        <time>2026-09-03T13:33:16.000Z</time>
      </trkpt>
      <trkpt lat="48.21469" lon="6.67857">
        <ele>500.79998779297</ele>
        <time>2026-09-03T13:33:17.000Z</time>
      </trkpt>
      <trkpt lat="48.21469" lon="6.67856">
        <ele>500.79998779297</ele>
        <time>2026-09-03T13:33:18.000Z</time>
      </trkpt>
      <trkpt lat="48.2147" lon="6.67854">
        <ele>500.79998779297</ele>
        <time>2026-09-03T13:33:19.000Z</time>
      </trkpt>
      <trkpt lat="48.2147" lon="6.67852">
        <ele>500.79998779297</ele>
        <time>2026-09-03T13:33:20.000Z</time>
      </trkpt>
      <trkpt lat="48.2147" lon="6.6785">
        <ele>500.59997558594</ele>
        <time>2026-09-03T13:33:21.000Z</time>
      </trkpt>
      <trkpt lat="48.2147" lon="6.67849">
        <ele>500.59997558594</ele>
        <time>2026-09-03T13:33:22.000Z</time>
      </trkpt>
      <trkpt lat="48.2147" lon="6.67847">
        <ele>500.40002441406</ele>
        <time>2026-09-03T13:33:23.000Z</time>
      </trkpt>
      <trkpt lat="48.2147" lon="6.67846">
        <ele>500.40002441406</ele>
        <time>2026-09-03T13:33:24.000Z</time>
      </trkpt>
      <trkpt lat="48.2147" lon="6.67845">
        <ele>500.20001220703</ele>
        <time>2026-09-03T13:33:25.000Z</time>
      </trkpt>
      <trkpt lat="48.2147" lon="6.67843">
        <ele>500</ele>
        <time>2026-09-03T13:33:26.000Z</time>
      </trkpt>
      <trkpt lat="48.2147" lon="6.67841">
        <ele>500</ele>
        <time>2026-09-03T13:33:27.000Z</time>
      </trkpt>
      <trkpt lat="48.21471" lon="6.67838">
        <ele>499.79998779297</ele>
        <time>2026-09-03T13:33:28.000Z</time>
      </trkpt>
      <trkpt lat="48.21471" lon="6.67837">
        <ele>499.59997558594</ele>
        <time>2026-09-03T13:33:29.000Z</time>
      </trkpt>
      <trkpt lat="48.21471" lon="6.67836">
        <ele>499.59997558594</ele>
        <time>2026-09-03T13:33:30.000Z</time>
      </trkpt>
      <trkpt lat="48.2147" lon="6.67834">
        <ele>499.40002441406</ele>
        <time>2026-09-03T13:33:31.000Z</time>
      </trkpt>
      <trkpt lat="48.21471" lon="6.67832">
        <ele>499.40002441406</ele>
        <time>2026-09-03T13:33:32.000Z</time>
      </trkpt>
      <trkpt lat="48.21471" lon="6.6783">
        <ele>499.40002441406</ele>
        <time>2026-09-03T13:33:33.000Z</time>
      </trkpt>
      <trkpt lat="48.2147" lon="6.67828">
        <ele>499.40002441406</ele>
        <time>2026-09-03T13:33:34.000Z</time>
      </trkpt>
      <trkpt lat="48.2147" lon="6.67826">
        <ele>499.40002441406</ele>
        <time>2026-09-03T13:33:35.000Z</time>
      </trkpt>
      <trkpt lat="48.2147" lon="6.67824">
        <ele>499.40002441406</ele>
        <time>2026-09-03T13:33:36.000Z</time>
      </trkpt>
      <trkpt lat="48.2147" lon="6.67822">
        <ele>499.20001220703</ele>
        <time>2026-09-03T13:33:37.000Z</time>
      </trkpt>
      <trkpt lat="48.2147" lon="6.6782">
        <ele>499.20001220703</ele>
        <time>2026-09-03T13:33:38.000Z</time>
      </trkpt>
      <trkpt lat="48.2147" lon="6.67819">
        <ele>499</ele>
        <time>2026-09-03T13:33:39.000Z</time>
      </trkpt>
      <trkpt lat="48.2147" lon="6.67817">
        <ele>499</ele>
        <time>2026-09-03T13:33:40.000Z</time>
      </trkpt>
      <trkpt lat="48.2147" lon="6.67816">
        <ele>498.79998779297</ele>
        <time>2026-09-03T13:33:41.000Z</time>
      </trkpt>
      <trkpt lat="48.21471" lon="6.67815">
        <ele>498.79998779297</ele>
        <time>2026-09-03T13:33:42.000Z</time>
      </trkpt>
      <trkpt lat="48.21471" lon="6.67813">
        <ele>498.79998779297</ele>
        <time>2026-09-03T13:33:43.000Z</time>
      </trkpt>
      <trkpt lat="48.21471" lon="6.67812">
        <ele>498.59997558594</ele>
        <time>2026-09-03T13:33:44.000Z</time>
      </trkpt>
      <trkpt lat="48.21471" lon="6.67811">
        <ele>498.59997558594</ele>
        <time>2026-09-03T13:33:45.000Z</time>
      </trkpt>
      <trkpt lat="48.21471" lon="6.6781">
        <ele>498.40002441406</ele>
        <time>2026-09-03T13:33:46.000Z</time>
      </trkpt>
      <trkpt lat="48.21472" lon="6.67807">
        <ele>498.40002441406</ele>
        <time>2026-09-03T13:33:47.000Z</time>
      </trkpt>
      <trkpt lat="48.21472" lon="6.67804">
        <ele>498.20001220703</ele>
        <time>2026-09-03T13:33:48.000Z</time>
      </trkpt>
      <trkpt lat="48.21472" lon="6.67802">
        <ele>498.20001220703</ele>
        <time>2026-09-03T13:33:49.000Z</time>
      </trkpt>
      <trkpt lat="48.21472" lon="6.67801">
        <ele>498.20001220703</ele>
        <time>2026-09-03T13:33:50.000Z</time>
      </trkpt>
      <trkpt lat="48.21472" lon="6.67799">
        <ele>498.20001220703</ele>
        <time>2026-09-03T13:33:51.000Z</time>
      </trkpt>
      <trkpt lat="48.21473" lon="6.67797">
        <ele>498.20001220703</ele>
        <time>2026-09-03T13:33:52.000Z</time>
      </trkpt>
      <trkpt lat="48.21473" lon="6.67796">
        <ele>498.20001220703</ele>
        <time>2026-09-03T13:33:53.000Z</time>
      </trkpt>
      <trkpt lat="48.21473" lon="6.67794">
        <ele>498</ele>
        <time>2026-09-03T13:33:54.000Z</time>
      </trkpt>
      <trkpt lat="48.21474" lon="6.67791">
        <ele>498</ele>
        <time>2026-09-03T13:33:55.000Z</time>
      </trkpt>
      <trkpt lat="48.21474" lon="6.67789">
        <ele>497.79998779297</ele>
        <time>2026-09-03T13:33:56.000Z</time>
      </trkpt>
      <trkpt lat="48.21475" lon="6.67788">
        <ele>497.79998779297</ele>
        <time>2026-09-03T13:33:57.000Z</time>
      </trkpt>
      <trkpt lat="48.21475" lon="6.67786">
        <ele>497.59997558594</ele>
        <time>2026-09-03T13:33:58.000Z</time>
      </trkpt>
      <trkpt lat="48.21475" lon="6.67785">
        <ele>497.59997558594</ele>
        <time>2026-09-03T13:33:59.000Z</time>
      </trkpt>
      <trkpt lat="48.21475" lon="6.67783">
        <ele>497.59997558594</ele>
        <time>2026-09-03T13:34:00.000Z</time>
      </trkpt>
      <trkpt lat="48.21475" lon="6.67782">
        <ele>497.59997558594</ele>
        <time>2026-09-03T13:34:01.000Z</time>
      </trkpt>
      <trkpt lat="48.21475" lon="6.6778">
        <ele>497.59997558594</ele>
        <time>2026-09-03T13:34:02.000Z</time>
      </trkpt>
      <trkpt lat="48.21475" lon="6.67778">
        <ele>497.59997558594</ele>
        <time>2026-09-03T13:34:03.000Z</time>
      </trkpt>
      <trkpt lat="48.21476" lon="6.67777">
        <ele>497.40002441406</ele>
        <time>2026-09-03T13:34:04.000Z</time>
      </trkpt>
      <trkpt lat="48.21476" lon="6.67775">
        <ele>497.40002441406</ele>
        <time>2026-09-03T13:34:05.000Z</time>
      </trkpt>
      <trkpt lat="48.21476" lon="6.67774">
        <ele>497.20001220703</ele>
        <time>2026-09-03T13:34:06.000Z</time>
      </trkpt>
      <trkpt lat="48.21477" lon="6.67772">
        <ele>497.20001220703</ele>
        <time>2026-09-03T13:34:07.000Z</time>
      </trkpt>
      <trkpt lat="48.21477" lon="6.67771">
        <ele>497</ele>
        <time>2026-09-03T13:34:08.000Z</time>
      </trkpt>
      <trkpt lat="48.21477" lon="6.6777">
        <ele>497</ele>
        <time>2026-09-03T13:34:09.000Z</time>
      </trkpt>
      <trkpt lat="48.21477" lon="6.67769">
        <ele>497</ele>
        <time>2026-09-03T13:34:10.000Z</time>
      </trkpt>
      <trkpt lat="48.21477" lon="6.67767">
        <ele>496.79998779297</ele>
        <time>2026-09-03T13:34:11.000Z</time>
      </trkpt>
      <trkpt lat="48.21478" lon="6.67765">
        <ele>496.79998779297</ele>
        <time>2026-09-03T13:34:12.000Z</time>
      </trkpt>
      <trkpt lat="48.21478" lon="6.67763">
        <ele>496.79998779297</ele>
        <time>2026-09-03T13:34:13.000Z</time>
      </trkpt>
      <trkpt lat="48.21479" lon="6.67762">
        <ele>496.79998779297</ele>
        <time>2026-09-03T13:34:14.000Z</time>
      </trkpt>
      <trkpt lat="48.2148" lon="6.67761">
        <ele>496.79998779297</ele>
        <time>2026-09-03T13:34:15.000Z</time>
      </trkpt>
      <trkpt lat="48.2148" lon="6.67759">
        <ele>496.59997558594</ele>
        <time>2026-09-03T13:34:16.000Z</time>
      </trkpt>
      <trkpt lat="48.21481" lon="6.67757">
        <ele>496.59997558594</ele>
        <time>2026-09-03T13:34:17.000Z</time>
      </trkpt>
      <trkpt lat="48.21481" lon="6.67756">
        <ele>496.59997558594</ele>
        <time>2026-09-03T13:34:18.000Z</time>
      </trkpt>
      <trkpt lat="48.21481" lon="6.67755">
        <ele>496.59997558594</ele>
        <time>2026-09-03T13:34:19.000Z</time>
      </trkpt>
      <trkpt lat="48.21482" lon="6.67753">
        <ele>496.40002441406</ele>
        <time>2026-09-03T13:34:20.000Z</time>
      </trkpt>
      <trkpt lat="48.21482" lon="6.67752">
        <ele>496.40002441406</ele>
        <time>2026-09-03T13:34:21.000Z</time>
      </trkpt>
      <trkpt lat="48.21483" lon="6.67751">
        <ele>496.20001220703</ele>
        <time>2026-09-03T13:34:22.000Z</time>
      </trkpt>
      <trkpt lat="48.21483" lon="6.67749">
        <ele>496.20001220703</ele>
        <time>2026-09-03T13:34:23.000Z</time>
      </trkpt>
      <trkpt lat="48.21484" lon="6.67747">
        <ele>496.20001220703</ele>
        <time>2026-09-03T13:34:24.000Z</time>
      </trkpt>
      <trkpt lat="48.21484" lon="6.67745">
        <ele>496</ele>
        <time>2026-09-03T13:34:25.000Z</time>
      </trkpt>
      <trkpt lat="48.21485" lon="6.67743">
        <ele>496</ele>
        <time>2026-09-03T13:34:26.000Z</time>
      </trkpt>
      <trkpt lat="48.21486" lon="6.67741">
        <ele>496</ele>
        <time>2026-09-03T13:34:27.000Z</time>
      </trkpt>
      <trkpt lat="48.21486" lon="6.6774">
        <ele>496</ele>
        <time>2026-09-03T13:34:28.000Z</time>
      </trkpt>
      <trkpt lat="48.21487" lon="6.67738">
        <ele>495.79998779297</ele>
        <time>2026-09-03T13:34:29.000Z</time>
      </trkpt>
      <trkpt lat="48.21487" lon="6.67736">
        <ele>495.79998779297</ele>
        <time>2026-09-03T13:34:30.000Z</time>
      </trkpt>
      <trkpt lat="48.21487" lon="6.67735">
        <ele>495.59997558594</ele>
        <time>2026-09-03T13:34:31.000Z</time>
      </trkpt>
      <trkpt lat="48.21487" lon="6.67733">
        <ele>495.59997558594</ele>
        <time>2026-09-03T13:34:32.000Z</time>
      </trkpt>
      <trkpt lat="48.21487" lon="6.67732">
        <ele>495.40002441406</ele>
        <time>2026-09-03T13:34:33.000Z</time>
      </trkpt>
      <trkpt lat="48.21487" lon="6.67731">
        <ele>495.40002441406</ele>
        <time>2026-09-03T13:34:34.000Z</time>
      </trkpt>
      <trkpt lat="48.21488" lon="6.67729">
        <ele>495.40002441406</ele>
        <time>2026-09-03T13:34:35.000Z</time>
      </trkpt>
      <trkpt lat="48.21488" lon="6.67727">
        <ele>495.40002441406</ele>
        <time>2026-09-03T13:34:36.000Z</time>
      </trkpt>
      <trkpt lat="48.21488" lon="6.67726">
        <ele>495.40002441406</ele>
        <time>2026-09-03T13:34:37.000Z</time>
      </trkpt>
      <trkpt lat="48.21489" lon="6.67724">
        <ele>495.40002441406</ele>
        <time>2026-09-03T13:34:38.000Z</time>
      </trkpt>
      <trkpt lat="48.21489" lon="6.67722">
        <ele>495.20001220703</ele>
        <time>2026-09-03T13:34:39.000Z</time>
      </trkpt>
      <trkpt lat="48.21489" lon="6.67722">
        <ele>495</ele>
        <time>2026-09-03T13:34:40.000Z</time>
      </trkpt>
      <trkpt lat="48.21489" lon="6.67721">
        <ele>494.79998779297</ele>
        <time>2026-09-03T13:34:41.000Z</time>
      </trkpt>
      <trkpt lat="48.2149" lon="6.67719">
        <ele>494.79998779297</ele>
        <time>2026-09-03T13:34:42.000Z</time>
      </trkpt>
      <trkpt lat="48.21491" lon="6.67718">
        <ele>494.59997558594</ele>
        <time>2026-09-03T13:34:43.000Z</time>
      </trkpt>
      <trkpt lat="48.21491" lon="6.67717">
        <ele>494.59997558594</ele>
        <time>2026-09-03T13:34:44.000Z</time>
      </trkpt>
      <trkpt lat="48.21492" lon="6.67715">
        <ele>494.59997558594</ele>
        <time>2026-09-03T13:34:45.000Z</time>
      </trkpt>
      <trkpt lat="48.21493" lon="6.67715">
        <ele>494.59997558594</ele>
        <time>2026-09-03T13:34:46.000Z</time>
      </trkpt>
      <trkpt lat="48.21493" lon="6.67714">
        <ele>494.59997558594</ele>
        <time>2026-09-03T13:34:47.000Z</time>
      </trkpt>
      <trkpt lat="48.21494" lon="6.67713">
        <ele>494.59997558594</ele>
        <time>2026-09-03T13:34:48.000Z</time>
      </trkpt>
      <trkpt lat="48.21496" lon="6.67712">
        <ele>494.59997558594</ele>
        <time>2026-09-03T13:34:49.000Z</time>
      </trkpt>
      <trkpt lat="48.21497" lon="6.67711">
        <ele>494.40002441406</ele>
        <time>2026-09-03T13:34:50.000Z</time>
      </trkpt>
      <trkpt lat="48.21498" lon="6.67709">
        <ele>494.40002441406</ele>
        <time>2026-09-03T13:34:51.000Z</time>
      </trkpt>
      <trkpt lat="48.21498" lon="6.67708">
        <ele>494.20001220703</ele>
        <time>2026-09-03T13:34:52.000Z</time>
      </trkpt>
      <trkpt lat="48.21499" lon="6.67707">
        <ele>494</ele>
        <time>2026-09-03T13:34:53.000Z</time>
      </trkpt>
      <trkpt lat="48.21501" lon="6.67706">
        <ele>494</ele>
        <time>2026-09-03T13:34:54.000Z</time>
      </trkpt>
      <trkpt lat="48.21501" lon="6.67705">
        <ele>493.79998779297</ele>
        <time>2026-09-03T13:34:55.000Z</time>
      </trkpt>
      <trkpt lat="48.21503" lon="6.67705">
        <ele>493.79998779297</ele>
        <time>2026-09-03T13:34:56.000Z</time>
      </trkpt>
      <trkpt lat="48.21503" lon="6.67704">
        <ele>493.59997558594</ele>
        <time>2026-09-03T13:34:57.000Z</time>
      </trkpt>
      <trkpt lat="48.21504" lon="6.67703">
        <ele>493.40002441406</ele>
        <time>2026-09-03T13:34:58.000Z</time>
      </trkpt>
      <trkpt lat="48.21504" lon="6.67702">
        <ele>493.40002441406</ele>
        <time>2026-09-03T13:34:59.000Z</time>
      </trkpt>
      <trkpt lat="48.21505" lon="6.67702">
        <ele>493.20001220703</ele>
        <time>2026-09-03T13:35:00.000Z</time>
      </trkpt>
      <trkpt lat="48.21506" lon="6.677">
        <ele>493.20001220703</ele>
        <time>2026-09-03T13:35:01.000Z</time>
      </trkpt>
      <trkpt lat="48.21507" lon="6.67699">
        <ele>493</ele>
        <time>2026-09-03T13:35:02.000Z</time>
      </trkpt>
      <trkpt lat="48.21507" lon="6.67698">
        <ele>493</ele>
        <time>2026-09-03T13:35:03.000Z</time>
      </trkpt>
      <trkpt lat="48.21508" lon="6.67697">
        <ele>492.79998779297</ele>
        <time>2026-09-03T13:35:04.000Z</time>
      </trkpt>
      <trkpt lat="48.21508" lon="6.67696">
        <ele>492.59997558594</ele>
        <time>2026-09-03T13:35:05.000Z</time>
      </trkpt>
      <trkpt lat="48.21509" lon="6.67695">
        <ele>492.59997558594</ele>
        <time>2026-09-03T13:35:06.000Z</time>
      </trkpt>
      <trkpt lat="48.2151" lon="6.67695">
        <ele>492.20001220703</ele>
        <time>2026-09-03T13:35:07.000Z</time>
      </trkpt>
      <trkpt lat="48.21511" lon="6.67693">
        <ele>492.20001220703</ele>
        <time>2026-09-03T13:35:08.000Z</time>
      </trkpt>
      <trkpt lat="48.21511" lon="6.67692">
        <ele>492</ele>
        <time>2026-09-03T13:35:09.000Z</time>
      </trkpt>
      <trkpt lat="48.21512" lon="6.6769">
        <ele>492</ele>
        <time>2026-09-03T13:35:10.000Z</time>
      </trkpt>
      <trkpt lat="48.21513" lon="6.67689">
        <ele>491.79998779297</ele>
        <time>2026-09-03T13:35:11.000Z</time>
      </trkpt>
      <trkpt lat="48.21514" lon="6.67687">
        <ele>491.40002441406</ele>
        <time>2026-09-03T13:35:12.000Z</time>
      </trkpt>
      <trkpt lat="48.21515" lon="6.67686">
        <ele>491</ele>
        <time>2026-09-03T13:35:13.000Z</time>
      </trkpt>
      <trkpt lat="48.21515" lon="6.67685">
        <ele>490.59997558594</ele>
        <time>2026-09-03T13:35:14.000Z</time>
      </trkpt>
      <trkpt lat="48.21516" lon="6.67684">
        <ele>490.20001220703</ele>
        <time>2026-09-03T13:35:15.000Z</time>
      </trkpt>
      <trkpt lat="48.21517" lon="6.67683">
        <ele>490</ele>
        <time>2026-09-03T13:35:16.000Z</time>
      </trkpt>
      <trkpt lat="48.21517" lon="6.67682">
        <ele>489.79998779297</ele>
        <time>2026-09-03T13:35:17.000Z</time>
      </trkpt>
      <trkpt lat="48.21517" lon="6.67682">
        <ele>489.79998779297</ele>
        <time>2026-09-03T13:35:18.000Z</time>
      </trkpt>
      <trkpt lat="48.21517" lon="6.67681">
        <ele>489.79998779297</ele>
        <time>2026-09-03T13:35:19.000Z</time>
      </trkpt>
      <trkpt lat="48.21518" lon="6.6768">
        <ele>490</ele>
        <time>2026-09-03T13:35:20.000Z</time>
      </trkpt>
      <trkpt lat="48.21518" lon="6.67679">
        <ele>490.20001220703</ele>
        <time>2026-09-03T13:35:21.000Z</time>
      </trkpt>
      <trkpt lat="48.21519" lon="6.67677">
        <ele>490.40002441406</ele>
        <time>2026-09-03T13:35:22.000Z</time>
      </trkpt>
      <trkpt lat="48.2152" lon="6.67677">
        <ele>490.40002441406</ele>
        <time>2026-09-03T13:35:23.000Z</time>
      </trkpt>
      <trkpt lat="48.2152" lon="6.67677">
        <ele>490.40002441406</ele>
        <time>2026-09-03T13:35:24.000Z</time>
      </trkpt>
      <trkpt lat="48.21521" lon="6.67675">
        <ele>490.20001220703</ele>
        <time>2026-09-03T13:35:25.000Z</time>
      </trkpt>
      <trkpt lat="48.21522" lon="6.67674">
        <ele>490</ele>
        <time>2026-09-03T13:35:26.000Z</time>
      </trkpt>
      <trkpt lat="48.21523" lon="6.67673">
        <ele>489.79998779297</ele>
        <time>2026-09-03T13:35:27.000Z</time>
      </trkpt>
      <trkpt lat="48.21523" lon="6.67673">
        <ele>489.79998779297</ele>
        <time>2026-09-03T13:35:28.000Z</time>
      </trkpt>
      <trkpt lat="48.21524" lon="6.67671">
        <ele>489.59997558594</ele>
        <time>2026-09-03T13:35:29.000Z</time>
      </trkpt>
      <trkpt lat="48.21525" lon="6.67671">
        <ele>489.40002441406</ele>
        <time>2026-09-03T13:35:30.000Z</time>
      </trkpt>
      <trkpt lat="48.21526" lon="6.6767">
        <ele>489.40002441406</ele>
        <time>2026-09-03T13:35:31.000Z</time>
      </trkpt>
      <trkpt lat="48.21526" lon="6.67669">
        <ele>489.20001220703</ele>
        <time>2026-09-03T13:35:32.000Z</time>
      </trkpt>
      <trkpt lat="48.21527" lon="6.67668">
        <ele>489.20001220703</ele>
        <time>2026-09-03T13:35:33.000Z</time>
      </trkpt>
      <trkpt lat="48.21528" lon="6.67667">
        <ele>489.20001220703</ele>
        <time>2026-09-03T13:35:34.000Z</time>
      </trkpt>
      <trkpt lat="48.21528" lon="6.67666">
        <ele>489.20001220703</ele>
        <time>2026-09-03T13:35:35.000Z</time>
      </trkpt>
      <trkpt lat="48.21529" lon="6.67665">
        <ele>489</ele>
        <time>2026-09-03T13:35:36.000Z</time>
      </trkpt>
      <trkpt lat="48.21529" lon="6.67664">
        <ele>489</ele>
        <time>2026-09-03T13:35:37.000Z</time>
      </trkpt>
      <trkpt lat="48.2153" lon="6.67664">
        <ele>488.79998779297</ele>
        <time>2026-09-03T13:35:38.000Z</time>
      </trkpt>
      <trkpt lat="48.2153" lon="6.67662">
        <ele>488.79998779297</ele>
        <time>2026-09-03T13:35:39.000Z</time>
      </trkpt>
      <trkpt lat="48.21531" lon="6.67661">
        <ele>488.59997558594</ele>
        <time>2026-09-03T13:35:40.000Z</time>
      </trkpt>
      <trkpt lat="48.21531" lon="6.6766">
        <ele>488.40002441406</ele>
        <time>2026-09-03T13:35:41.000Z</time>
      </trkpt>
      <trkpt lat="48.21532" lon="6.67659">
        <ele>488.40002441406</ele>
        <time>2026-09-03T13:35:42.000Z</time>
      </trkpt>
      <trkpt lat="48.21533" lon="6.67658">
        <ele>488.40002441406</ele>
        <time>2026-09-03T13:35:43.000Z</time>
      </trkpt>
      <trkpt lat="48.21533" lon="6.67657">
        <ele>488.20001220703</ele>
        <time>2026-09-03T13:35:44.000Z</time>
      </trkpt>
      <trkpt lat="48.21534" lon="6.67656">
        <ele>488.20001220703</ele>
        <time>2026-09-03T13:35:45.000Z</time>
      </trkpt>
      <trkpt lat="48.21535" lon="6.67655">
        <ele>488</ele>
        <time>2026-09-03T13:35:46.000Z</time>
      </trkpt>
      <trkpt lat="48.21536" lon="6.67654">
        <ele>488</ele>
        <time>2026-09-03T13:35:47.000Z</time>
      </trkpt>
      <trkpt lat="48.21537" lon="6.67653">
        <ele>487.79998779297</ele>
        <time>2026-09-03T13:35:48.000Z</time>
      </trkpt>
      <trkpt lat="48.21538" lon="6.67653">
        <ele>487.79998779297</ele>
        <time>2026-09-03T13:35:49.000Z</time>
      </trkpt>
      <trkpt lat="48.21538" lon="6.67652">
        <ele>487.59997558594</ele>
        <time>2026-09-03T13:35:50.000Z</time>
      </trkpt>
      <trkpt lat="48.21539" lon="6.6765">
        <ele>487.59997558594</ele>
        <time>2026-09-03T13:35:51.000Z</time>
      </trkpt>
      <trkpt lat="48.2154" lon="6.67649">
        <ele>487.59997558594</ele>
        <time>2026-09-03T13:35:52.000Z</time>
      </trkpt>
      <trkpt lat="48.21541" lon="6.67647">
        <ele>487.40002441406</ele>
        <time>2026-09-03T13:35:53.000Z</time>
      </trkpt>
      <trkpt lat="48.21542" lon="6.67646">
        <ele>487.40002441406</ele>
        <time>2026-09-03T13:35:54.000Z</time>
      </trkpt>
      <trkpt lat="48.21542" lon="6.67645">
        <ele>487.20001220703</ele>
        <time>2026-09-03T13:35:55.000Z</time>
      </trkpt>
      <trkpt lat="48.21543" lon="6.67644">
        <ele>487.20001220703</ele>
        <time>2026-09-03T13:35:56.000Z</time>
      </trkpt>
      <trkpt lat="48.21544" lon="6.67643">
        <ele>487</ele>
        <time>2026-09-03T13:35:57.000Z</time>
      </trkpt>
      <trkpt lat="48.21545" lon="6.67642">
        <ele>487</ele>
        <time>2026-09-03T13:35:58.000Z</time>
      </trkpt>
      <trkpt lat="48.21546" lon="6.67641">
        <ele>487</ele>
        <time>2026-09-03T13:35:59.000Z</time>
      </trkpt>
      <trkpt lat="48.21547" lon="6.67641">
        <ele>486.79998779297</ele>
        <time>2026-09-03T13:36:00.000Z</time>
      </trkpt>
      <trkpt lat="48.21548" lon="6.6764">
        <ele>486.79998779297</ele>
        <time>2026-09-03T13:36:01.000Z</time>
      </trkpt>
      <trkpt lat="48.21549" lon="6.67639">
        <ele>486.59997558594</ele>
        <time>2026-09-03T13:36:02.000Z</time>
      </trkpt>
      <trkpt lat="48.2155" lon="6.67639">
        <ele>486.59997558594</ele>
        <time>2026-09-03T13:36:03.000Z</time>
      </trkpt>
      <trkpt lat="48.21551" lon="6.67639">
        <ele>486.40002441406</ele>
        <time>2026-09-03T13:36:04.000Z</time>
      </trkpt>
      <trkpt lat="48.21552" lon="6.67638">
        <ele>486.20001220703</ele>
        <time>2026-09-03T13:36:05.000Z</time>
      </trkpt>
      <trkpt lat="48.21553" lon="6.67637">
        <ele>486</ele>
        <time>2026-09-03T13:36:06.000Z</time>
      </trkpt>
      <trkpt lat="48.21554" lon="6.67637">
        <ele>486</ele>
        <time>2026-09-03T13:36:07.000Z</time>
      </trkpt>
      <trkpt lat="48.21555" lon="6.67636">
        <ele>485.79998779297</ele>
        <time>2026-09-03T13:36:08.000Z</time>
      </trkpt>
      <trkpt lat="48.21556" lon="6.67636">
        <ele>485.79998779297</ele>
        <time>2026-09-03T13:36:09.000Z</time>
      </trkpt>
      <trkpt lat="48.21557" lon="6.67635">
        <ele>485.79998779297</ele>
        <time>2026-09-03T13:36:10.000Z</time>
      </trkpt>
      <trkpt lat="48.21558" lon="6.67635">
        <ele>485.79998779297</ele>
        <time>2026-09-03T13:36:11.000Z</time>
      </trkpt>
      <trkpt lat="48.2156" lon="6.67635">
        <ele>485.59997558594</ele>
        <time>2026-09-03T13:36:12.000Z</time>
      </trkpt>
      <trkpt lat="48.21561" lon="6.67634">
        <ele>485.59997558594</ele>
        <time>2026-09-03T13:36:13.000Z</time>
      </trkpt>
      <trkpt lat="48.21562" lon="6.67633">
        <ele>485.59997558594</ele>
        <time>2026-09-03T13:36:14.000Z</time>
      </trkpt>
      <trkpt lat="48.21563" lon="6.67632">
        <ele>485.40002441406</ele>
        <time>2026-09-03T13:36:15.000Z</time>
      </trkpt>
      <trkpt lat="48.21564" lon="6.67631">
        <ele>485.40002441406</ele>
        <time>2026-09-03T13:36:16.000Z</time>
      </trkpt>
      <trkpt lat="48.21565" lon="6.67631">
        <ele>485.20001220703</ele>
        <time>2026-09-03T13:36:17.000Z</time>
      </trkpt>
      <trkpt lat="48.21566" lon="6.6763">
        <ele>485</ele>
        <time>2026-09-03T13:36:18.000Z</time>
      </trkpt>
      <trkpt lat="48.21567" lon="6.6763">
        <ele>484.79998779297</ele>
        <time>2026-09-03T13:36:19.000Z</time>
      </trkpt>
      <trkpt lat="48.21568" lon="6.67629">
        <ele>484.59997558594</ele>
        <time>2026-09-03T13:36:20.000Z</time>
      </trkpt>
      <trkpt lat="48.21569" lon="6.67628">
        <ele>484.59997558594</ele>
        <time>2026-09-03T13:36:21.000Z</time>
      </trkpt>
      <trkpt lat="48.2157" lon="6.67627">
        <ele>484.40002441406</ele>
        <time>2026-09-03T13:36:22.000Z</time>
      </trkpt>
      <trkpt lat="48.21571" lon="6.67627">
        <ele>484.40002441406</ele>
        <time>2026-09-03T13:36:23.000Z</time>
      </trkpt>
      <trkpt lat="48.21572" lon="6.67626">
        <ele>484.40002441406</ele>
        <time>2026-09-03T13:36:24.000Z</time>
      </trkpt>
      <trkpt lat="48.21573" lon="6.67626">
        <ele>484.20001220703</ele>
        <time>2026-09-03T13:36:25.000Z</time>
      </trkpt>
      <trkpt lat="48.21573" lon="6.67625">
        <ele>484.20001220703</ele>
        <time>2026-09-03T13:36:26.000Z</time>
      </trkpt>
      <trkpt lat="48.21574" lon="6.67624">
        <ele>484.20001220703</ele>
        <time>2026-09-03T13:36:27.000Z</time>
      </trkpt>
      <trkpt lat="48.21576" lon="6.67623">
        <ele>484.20001220703</ele>
        <time>2026-09-03T13:36:28.000Z</time>
      </trkpt>
      <trkpt lat="48.21576" lon="6.67623">
        <ele>484</ele>
        <time>2026-09-03T13:36:29.000Z</time>
      </trkpt>
      <trkpt lat="48.21577" lon="6.67622">
        <ele>484</ele>
        <time>2026-09-03T13:36:30.000Z</time>
      </trkpt>
      <trkpt lat="48.21578" lon="6.67621">
        <ele>483.79998779297</ele>
        <time>2026-09-03T13:36:31.000Z</time>
      </trkpt>
      <trkpt lat="48.21579" lon="6.67621">
        <ele>483.79998779297</ele>
        <time>2026-09-03T13:36:32.000Z</time>
      </trkpt>
      <trkpt lat="48.2158" lon="6.6762">
        <ele>483.79998779297</ele>
        <time>2026-09-03T13:36:33.000Z</time>
      </trkpt>
      <trkpt lat="48.21582" lon="6.67619">
        <ele>483.59997558594</ele>
        <time>2026-09-03T13:36:34.000Z</time>
      </trkpt>
      <trkpt lat="48.21583" lon="6.67617">
        <ele>483.59997558594</ele>
        <time>2026-09-03T13:36:35.000Z</time>
      </trkpt>
      <trkpt lat="48.21584" lon="6.67616">
        <ele>483.59997558594</ele>
        <time>2026-09-03T13:36:36.000Z</time>
      </trkpt>
      <trkpt lat="48.21584" lon="6.67615">
        <ele>483.40002441406</ele>
        <time>2026-09-03T13:36:37.000Z</time>
      </trkpt>
      <trkpt lat="48.21585" lon="6.67615">
        <ele>483.20001220703</ele>
        <time>2026-09-03T13:36:38.000Z</time>
      </trkpt>
      <trkpt lat="48.21585" lon="6.67614">
        <ele>483.20001220703</ele>
        <time>2026-09-03T13:36:39.000Z</time>
      </trkpt>
      <trkpt lat="48.21586" lon="6.67613">
        <ele>483</ele>
        <time>2026-09-03T13:36:40.000Z</time>
      </trkpt>
      <trkpt lat="48.21587" lon="6.67612">
        <ele>483</ele>
        <time>2026-09-03T13:36:41.000Z</time>
      </trkpt>
      <trkpt lat="48.21588" lon="6.67611">
        <ele>483</ele>
        <time>2026-09-03T13:36:42.000Z</time>
      </trkpt>
      <trkpt lat="48.21589" lon="6.67609">
        <ele>482.79998779297</ele>
        <time>2026-09-03T13:36:43.000Z</time>
      </trkpt>
      <trkpt lat="48.21589" lon="6.67608">
        <ele>482.79998779297</ele>
        <time>2026-09-03T13:36:44.000Z</time>
      </trkpt>
      <trkpt lat="48.2159" lon="6.67608">
        <ele>482.59997558594</ele>
        <time>2026-09-03T13:36:45.000Z</time>
      </trkpt>
      <trkpt lat="48.21591" lon="6.67607">
        <ele>482.59997558594</ele>
        <time>2026-09-03T13:36:46.000Z</time>
      </trkpt>
      <trkpt lat="48.21592" lon="6.67605">
        <ele>482.40002441406</ele>
        <time>2026-09-03T13:36:47.000Z</time>
      </trkpt>
      <trkpt lat="48.21593" lon="6.67602">
        <ele>482.20001220703</ele>
        <time>2026-09-03T13:36:48.000Z</time>
      </trkpt>
      <trkpt lat="48.21593" lon="6.676">
        <ele>482.20001220703</ele>
        <time>2026-09-03T13:36:49.000Z</time>
      </trkpt>
      <trkpt lat="48.21594" lon="6.67599">
        <ele>482.20001220703</ele>
        <time>2026-09-03T13:36:50.000Z</time>
      </trkpt>
      <trkpt lat="48.21595" lon="6.67598">
        <ele>482.20001220703</ele>
        <time>2026-09-03T13:36:51.000Z</time>
      </trkpt>
      <trkpt lat="48.21596" lon="6.67597">
        <ele>482.20001220703</ele>
        <time>2026-09-03T13:36:52.000Z</time>
      </trkpt>
      <trkpt lat="48.21596" lon="6.67596">
        <ele>482.20001220703</ele>
        <time>2026-09-03T13:36:53.000Z</time>
      </trkpt>
      <trkpt lat="48.21597" lon="6.67595">
        <ele>482</ele>
        <time>2026-09-03T13:36:54.000Z</time>
      </trkpt>
      <trkpt lat="48.21598" lon="6.67594">
        <ele>482</ele>
        <time>2026-09-03T13:36:55.000Z</time>
      </trkpt>
      <trkpt lat="48.21599" lon="6.67593">
        <ele>481.79998779297</ele>
        <time>2026-09-03T13:36:56.000Z</time>
      </trkpt>
      <trkpt lat="48.21599" lon="6.67592">
        <ele>481.79998779297</ele>
        <time>2026-09-03T13:36:57.000Z</time>
      </trkpt>
      <trkpt lat="48.21599" lon="6.67591">
        <ele>481.59997558594</ele>
        <time>2026-09-03T13:36:58.000Z</time>
      </trkpt>
      <trkpt lat="48.21599" lon="6.6759">
        <ele>481.40002441406</ele>
        <time>2026-09-03T13:36:59.000Z</time>
      </trkpt>
      <trkpt lat="48.21599" lon="6.67589">
        <ele>481.20001220703</ele>
        <time>2026-09-03T13:37:00.000Z</time>
      </trkpt>
      <trkpt lat="48.216" lon="6.67587">
        <ele>481.20001220703</ele>
        <time>2026-09-03T13:37:01.000Z</time>
      </trkpt>
      <trkpt lat="48.21601" lon="6.67586">
        <ele>481</ele>
        <time>2026-09-03T13:37:02.000Z</time>
      </trkpt>
      <trkpt lat="48.21602" lon="6.67585">
        <ele>481</ele>
        <time>2026-09-03T13:37:03.000Z</time>
      </trkpt>
      <trkpt lat="48.21602" lon="6.67584">
        <ele>481</ele>
        <time>2026-09-03T13:37:04.000Z</time>
      </trkpt>
      <trkpt lat="48.21603" lon="6.67584">
        <ele>481.20001220703</ele>
        <time>2026-09-03T13:37:05.000Z</time>
      </trkpt>
      <trkpt lat="48.21602" lon="6.67584">
        <ele>481</ele>
        <time>2026-09-03T13:37:06.000Z</time>
      </trkpt>
      <trkpt lat="48.21602" lon="6.67584">
        <ele>481</ele>
        <time>2026-09-03T13:37:07.000Z</time>
      </trkpt>
      <trkpt lat="48.21602" lon="6.67586">
        <ele>481</ele>
        <time>2026-09-03T13:37:08.000Z</time>
      </trkpt>
      <trkpt lat="48.21601" lon="6.67586">
        <ele>480.79998779297</ele>
        <time>2026-09-03T13:37:09.000Z</time>
      </trkpt>
      <trkpt lat="48.21601" lon="6.67586">
        <ele>480.79998779297</ele>
        <time>2026-09-03T13:37:10.000Z</time>
      </trkpt>
      <trkpt lat="48.21601" lon="6.67586">
        <ele>480.59997558594</ele>
        <time>2026-09-03T13:37:11.000Z</time>
      </trkpt>
      <trkpt lat="48.21601" lon="6.67586">
        <ele>480.59997558594</ele>
        <time>2026-09-03T13:37:12.000Z</time>
      </trkpt>
      <trkpt lat="48.216" lon="6.67587">
        <ele>480.59997558594</ele>
        <time>2026-09-03T13:37:13.000Z</time>
      </trkpt>
      <trkpt lat="48.216" lon="6.67587">
        <ele>480.59997558594</ele>
        <time>2026-09-03T13:37:14.000Z</time>
      </trkpt>
      <trkpt lat="48.216" lon="6.67587">
        <ele>480.59997558594</ele>
        <time>2026-09-03T13:37:15.000Z</time>
      </trkpt>
      <trkpt lat="48.216" lon="6.67587">
        <ele>480.59997558594</ele>
        <time>2026-09-03T13:37:16.000Z</time>
      </trkpt>
      <trkpt lat="48.216" lon="6.67587">
        <ele>480.59997558594</ele>
        <time>2026-09-03T13:37:17.000Z</time>
      </trkpt>
      <trkpt lat="48.216" lon="6.67587">
        <ele>480.59997558594</ele>
        <time>2026-09-03T13:37:18.000Z</time>
      </trkpt>
      <trkpt lat="48.216" lon="6.67587">
        <ele>480.59997558594</ele>
        <time>2026-09-03T13:37:19.000Z</time>
      </trkpt>
      <trkpt lat="48.216" lon="6.67587">
        <ele>480.59997558594</ele>
        <time>2026-09-03T13:37:20.000Z</time>
      </trkpt>
      <trkpt lat="48.216" lon="6.67587">
        <ele>480.79998779297</ele>
        <time>2026-09-03T13:37:21.000Z</time>
      </trkpt>
      <trkpt lat="48.216" lon="6.67586">
        <ele>480.79998779297</ele>
        <time>2026-09-03T13:37:22.000Z</time>
      </trkpt>
      <trkpt lat="48.21599" lon="6.67586">
        <ele>480.79998779297</ele>
        <time>2026-09-03T13:37:23.000Z</time>
      </trkpt>
      <trkpt lat="48.21598" lon="6.67586">
        <ele>480.79998779297</ele>
        <time>2026-09-03T13:37:24.000Z</time>
      </trkpt>
      <trkpt lat="48.21597" lon="6.67586">
        <ele>480.79998779297</ele>
        <time>2026-09-03T13:37:25.000Z</time>
      </trkpt>
      <trkpt lat="48.21596" lon="6.67585">
        <ele>480.79998779297</ele>
        <time>2026-09-03T13:37:26.000Z</time>
      </trkpt>
      <trkpt lat="48.21594" lon="6.67584">
        <ele>480.79998779297</ele>
        <time>2026-09-03T13:37:27.000Z</time>
      </trkpt>
      <trkpt lat="48.21593" lon="6.67583">
        <ele>480.79998779297</ele>
        <time>2026-09-03T13:37:28.000Z</time>
      </trkpt>
      <trkpt lat="48.21591" lon="6.67583">
        <ele>481</ele>
        <time>2026-09-03T13:37:29.000Z</time>
      </trkpt>
      <trkpt lat="48.21591" lon="6.67582">
        <ele>481</ele>
        <time>2026-09-03T13:37:30.000Z</time>
      </trkpt>
      <trkpt lat="48.2159" lon="6.67582">
        <ele>481</ele>
        <time>2026-09-03T13:37:31.000Z</time>
      </trkpt>
      <trkpt lat="48.21589" lon="6.67581">
        <ele>481</ele>
        <time>2026-09-03T13:37:32.000Z</time>
      </trkpt>
      <trkpt lat="48.21588" lon="6.6758">
        <ele>481</ele>
        <time>2026-09-03T13:37:33.000Z</time>
      </trkpt>
      <trkpt lat="48.21588" lon="6.67579">
        <ele>481.20001220703</ele>
        <time>2026-09-03T13:37:34.000Z</time>
      </trkpt>
      <trkpt lat="48.21587" lon="6.67579">
        <ele>481.20001220703</ele>
        <time>2026-09-03T13:37:35.000Z</time>
      </trkpt>
      <trkpt lat="48.21587" lon="6.67577">
        <ele>481.40002441406</ele>
        <time>2026-09-03T13:37:36.000Z</time>
      </trkpt>
      <trkpt lat="48.21587" lon="6.67577">
        <ele>481.40002441406</ele>
        <time>2026-09-03T13:37:37.000Z</time>
      </trkpt>
      <trkpt lat="48.21586" lon="6.67576">
        <ele>481.40002441406</ele>
        <time>2026-09-03T13:37:38.000Z</time>
      </trkpt>
      <trkpt lat="48.21586" lon="6.67575">
        <ele>481.40002441406</ele>
        <time>2026-09-03T13:37:39.000Z</time>
      </trkpt>
      <trkpt lat="48.21586" lon="6.67574">
        <ele>481.20001220703</ele>
        <time>2026-09-03T13:37:40.000Z</time>
      </trkpt>
      <trkpt lat="48.21587" lon="6.67573">
        <ele>481</ele>
        <time>2026-09-03T13:37:41.000Z</time>
      </trkpt>
      <trkpt lat="48.21587" lon="6.67573">
        <ele>480.79998779297</ele>
        <time>2026-09-03T13:37:42.000Z</time>
      </trkpt>
      <trkpt lat="48.21587" lon="6.67573">
        <ele>480.59997558594</ele>
        <time>2026-09-03T13:37:43.000Z</time>
      </trkpt>
      <trkpt lat="48.21587" lon="6.67573">
        <ele>480.40002441406</ele>
        <time>2026-09-03T13:37:44.000Z</time>
      </trkpt>
      <trkpt lat="48.21587" lon="6.67573">
        <ele>480.59997558594</ele>
        <time>2026-09-03T13:37:45.000Z</time>
      </trkpt>
      <trkpt lat="48.21587" lon="6.67573">
        <ele>480.79998779297</ele>
        <time>2026-09-03T13:37:46.000Z</time>
      </trkpt>
      <trkpt lat="48.21587" lon="6.67573">
        <ele>481</ele>
        <time>2026-09-03T13:37:47.000Z</time>
      </trkpt>
      <trkpt lat="48.21589" lon="6.67574">
        <ele>481.20001220703</ele>
        <time>2026-09-03T13:37:48.000Z</time>
      </trkpt>
      <trkpt lat="48.2159" lon="6.67574">
        <ele>481.40002441406</ele>
        <time>2026-09-03T13:37:49.000Z</time>
      </trkpt>
      <trkpt lat="48.21591" lon="6.67575">
        <ele>481.40002441406</ele>
        <time>2026-09-03T13:37:50.000Z</time>
      </trkpt>
      <trkpt lat="48.21592" lon="6.67576">
        <ele>481.40002441406</ele>
        <time>2026-09-03T13:37:51.000Z</time>
      </trkpt>
      <trkpt lat="48.21594" lon="6.67576">
        <ele>481.40002441406</ele>
        <time>2026-09-03T13:37:52.000Z</time>
      </trkpt>
      <trkpt lat="48.21595" lon="6.67576">
        <ele>481.40002441406</ele>
        <time>2026-09-03T13:37:53.000Z</time>
      </trkpt>
      <trkpt lat="48.21595" lon="6.67576">
        <ele>481.20001220703</ele>
        <time>2026-09-03T13:37:54.000Z</time>
      </trkpt>
      <trkpt lat="48.21596" lon="6.67577">
        <ele>481</ele>
        <time>2026-09-03T13:37:55.000Z</time>
      </trkpt>
      <trkpt lat="48.21598" lon="6.67578">
        <ele>480.79998779297</ele>
        <time>2026-09-03T13:37:56.000Z</time>
      </trkpt>
      <trkpt lat="48.216" lon="6.67578">
        <ele>480.79998779297</ele>
        <time>2026-09-03T13:37:57.000Z</time>
      </trkpt>
      <trkpt lat="48.21602" lon="6.67578">
        <ele>480.59997558594</ele>
        <time>2026-09-03T13:37:58.000Z</time>
      </trkpt>
      <trkpt lat="48.21604" lon="6.67579">
        <ele>480.40002441406</ele>
        <time>2026-09-03T13:37:59.000Z</time>
      </trkpt>
      <trkpt lat="48.21605" lon="6.67579">
        <ele>480.20001220703</ele>
        <time>2026-09-03T13:38:00.000Z</time>
      </trkpt>
      <trkpt lat="48.21606" lon="6.67578">
        <ele>480.20001220703</ele>
        <time>2026-09-03T13:38:01.000Z</time>
      </trkpt>
      <trkpt lat="48.21608" lon="6.67579">
        <ele>480.20001220703</ele>
        <time>2026-09-03T13:38:02.000Z</time>
      </trkpt>
      <trkpt lat="48.2161" lon="6.6758">
        <ele>480.20001220703</ele>
        <time>2026-09-03T13:38:03.000Z</time>
      </trkpt>
      <trkpt lat="48.21611" lon="6.67579">
        <ele>480.40002441406</ele>
        <time>2026-09-03T13:38:04.000Z</time>
      </trkpt>
      <trkpt lat="48.21612" lon="6.67579">
        <ele>480.40002441406</ele>
        <time>2026-09-03T13:38:05.000Z</time>
      </trkpt>
      <trkpt lat="48.21614" lon="6.6758">
        <ele>480.40002441406</ele>
        <time>2026-09-03T13:38:06.000Z</time>
      </trkpt>
      <trkpt lat="48.21615" lon="6.6758">
        <ele>480.40002441406</ele>
        <time>2026-09-03T13:38:07.000Z</time>
      </trkpt>
      <trkpt lat="48.21616" lon="6.6758">
        <ele>480.40002441406</ele>
        <time>2026-09-03T13:38:08.000Z</time>
      </trkpt>
      <trkpt lat="48.21616" lon="6.6758">
        <ele>480.20001220703</ele>
        <time>2026-09-03T13:38:09.000Z</time>
      </trkpt>
      <trkpt lat="48.21617" lon="6.6758">
        <ele>480</ele>
        <time>2026-09-03T13:38:10.000Z</time>
      </trkpt>
      <trkpt lat="48.21618" lon="6.6758">
        <ele>480</ele>
        <time>2026-09-03T13:38:11.000Z</time>
      </trkpt>
      <trkpt lat="48.21619" lon="6.67579">
        <ele>479.79998779297</ele>
        <time>2026-09-03T13:38:12.000Z</time>
      </trkpt>
      <trkpt lat="48.21621" lon="6.67579">
        <ele>479.79998779297</ele>
        <time>2026-09-03T13:38:13.000Z</time>
      </trkpt>
      <trkpt lat="48.21622" lon="6.67579">
        <ele>479.79998779297</ele>
        <time>2026-09-03T13:38:14.000Z</time>
      </trkpt>
      <trkpt lat="48.21622" lon="6.67579">
        <ele>480</ele>
        <time>2026-09-03T13:38:15.000Z</time>
      </trkpt>
      <trkpt lat="48.21623" lon="6.67579">
        <ele>480</ele>
        <time>2026-09-03T13:38:16.000Z</time>
      </trkpt>
      <trkpt lat="48.21624" lon="6.67579">
        <ele>480</ele>
        <time>2026-09-03T13:38:17.000Z</time>
      </trkpt>
      <trkpt lat="48.21625" lon="6.67578">
        <ele>479.79998779297</ele>
        <time>2026-09-03T13:38:18.000Z</time>
      </trkpt>
      <trkpt lat="48.21625" lon="6.67578">
        <ele>479.79998779297</ele>
        <time>2026-09-03T13:38:19.000Z</time>
      </trkpt>
      <trkpt lat="48.21626" lon="6.67578">
        <ele>479.59997558594</ele>
        <time>2026-09-03T13:38:20.000Z</time>
      </trkpt>
      <trkpt lat="48.21627" lon="6.67578">
        <ele>479.40002441406</ele>
        <time>2026-09-03T13:38:21.000Z</time>
      </trkpt>
      <trkpt lat="48.21628" lon="6.67577">
        <ele>479.20001220703</ele>
        <time>2026-09-03T13:38:22.000Z</time>
      </trkpt>
      <trkpt lat="48.21629" lon="6.67576">
        <ele>479</ele>
        <time>2026-09-03T13:38:23.000Z</time>
      </trkpt>
      <trkpt lat="48.2163" lon="6.67576">
        <ele>479</ele>
        <time>2026-09-03T13:38:24.000Z</time>
      </trkpt>
      <trkpt lat="48.21631" lon="6.67575">
        <ele>479</ele>
        <time>2026-09-03T13:38:25.000Z</time>
      </trkpt>
      <trkpt lat="48.21632" lon="6.67575">
        <ele>479</ele>
        <time>2026-09-03T13:38:26.000Z</time>
      </trkpt>
      <trkpt lat="48.21633" lon="6.67574">
        <ele>479</ele>
        <time>2026-09-03T13:38:27.000Z</time>
      </trkpt>
      <trkpt lat="48.21634" lon="6.67573">
        <ele>478.79998779297</ele>
        <time>2026-09-03T13:38:28.000Z</time>
      </trkpt>
      <trkpt lat="48.21635" lon="6.67572">
        <ele>478.59997558594</ele>
        <time>2026-09-03T13:38:29.000Z</time>
      </trkpt>
      <trkpt lat="48.21635" lon="6.67572">
        <ele>478.40002441406</ele>
        <time>2026-09-03T13:38:30.000Z</time>
      </trkpt>
      <trkpt lat="48.21636" lon="6.67571">
        <ele>478.40002441406</ele>
        <time>2026-09-03T13:38:31.000Z</time>
      </trkpt>
      <trkpt lat="48.21637" lon="6.6757">
        <ele>478.20001220703</ele>
        <time>2026-09-03T13:38:32.000Z</time>
      </trkpt>
      <trkpt lat="48.21638" lon="6.6757">
        <ele>478.20001220703</ele>
        <time>2026-09-03T13:38:33.000Z</time>
      </trkpt>
      <trkpt lat="48.21639" lon="6.67569">
        <ele>478.20001220703</ele>
        <time>2026-09-03T13:38:34.000Z</time>
      </trkpt>
      <trkpt lat="48.2164" lon="6.6757">
        <ele>478</ele>
        <time>2026-09-03T13:38:35.000Z</time>
      </trkpt>
      <trkpt lat="48.2164" lon="6.67571">
        <ele>477.79998779297</ele>
        <time>2026-09-03T13:38:36.000Z</time>
      </trkpt>
      <trkpt lat="48.2164" lon="6.67571">
        <ele>477.79998779297</ele>
        <time>2026-09-03T13:38:37.000Z</time>
      </trkpt>
      <trkpt lat="48.21639" lon="6.67572">
        <ele>477.79998779297</ele>
        <time>2026-09-03T13:38:38.000Z</time>
      </trkpt>
      <trkpt lat="48.21639" lon="6.67572">
        <ele>477.79998779297</ele>
        <time>2026-09-03T13:38:39.000Z</time>
      </trkpt>
      <trkpt lat="48.21639" lon="6.67572">
        <ele>477.79998779297</ele>
        <time>2026-09-03T13:38:40.000Z</time>
      </trkpt>
      <trkpt lat="48.21639" lon="6.67572">
        <ele>478</ele>
        <time>2026-09-03T13:38:41.000Z</time>
      </trkpt>
      <trkpt lat="48.21639" lon="6.67572">
        <ele>478</ele>
        <time>2026-09-03T13:38:42.000Z</time>
      </trkpt>
      <trkpt lat="48.21639" lon="6.67572">
        <ele>478</ele>
        <time>2026-09-03T13:38:43.000Z</time>
      </trkpt>
      <trkpt lat="48.21639" lon="6.67572">
        <ele>478</ele>
        <time>2026-09-03T13:38:44.000Z</time>
      </trkpt>
      <trkpt lat="48.21639" lon="6.67572">
        <ele>478</ele>
        <time>2026-09-03T13:38:45.000Z</time>
      </trkpt>
      <trkpt lat="48.21639" lon="6.67572">
        <ele>478</ele>
        <time>2026-09-03T13:38:46.000Z</time>
      </trkpt>
      <trkpt lat="48.21639" lon="6.67572">
        <ele>478</ele>
        <time>2026-09-03T13:38:47.000Z</time>
      </trkpt>
      <trkpt lat="48.21639" lon="6.67572">
        <ele>478</ele>
        <time>2026-09-03T13:38:48.000Z</time>
      </trkpt>
      <trkpt lat="48.21639" lon="6.67572">
        <ele>478.20001220703</ele>
        <time>2026-09-03T13:38:49.000Z</time>
      </trkpt>
      <trkpt lat="48.21639" lon="6.67572">
        <ele>478.20001220703</ele>
        <time>2026-09-03T13:38:50.000Z</time>
      </trkpt>
      <trkpt lat="48.21639" lon="6.67572">
        <ele>478.20001220703</ele>
        <time>2026-09-03T13:38:51.000Z</time>
      </trkpt>
      <trkpt lat="48.21639" lon="6.67572">
        <ele>478.20001220703</ele>
        <time>2026-09-03T13:38:52.000Z</time>
      </trkpt>
      <trkpt lat="48.21639" lon="6.67572">
        <ele>478.40002441406</ele>
        <time>2026-09-03T13:38:53.000Z</time>
      </trkpt>
      <trkpt lat="48.21639" lon="6.67572">
        <ele>478.20001220703</ele>
        <time>2026-09-03T13:38:54.000Z</time>
      </trkpt>
      <trkpt lat="48.21639" lon="6.67572">
        <ele>478.20001220703</ele>
        <time>2026-09-03T13:38:55.000Z</time>
      </trkpt>
      <trkpt lat="48.21639" lon="6.6757">
        <ele>478.20001220703</ele>
        <time>2026-09-03T13:38:56.000Z</time>
      </trkpt>
      <trkpt lat="48.21639" lon="6.67568">
        <ele>478.20001220703</ele>
        <time>2026-09-03T13:38:57.000Z</time>
      </trkpt>
      <trkpt lat="48.2164" lon="6.67567">
        <ele>478.20001220703</ele>
        <time>2026-09-03T13:38:58.000Z</time>
      </trkpt>
      <trkpt lat="48.21641" lon="6.67567">
        <ele>478.20001220703</ele>
        <time>2026-09-03T13:38:59.000Z</time>
      </trkpt>
      <trkpt lat="48.21642" lon="6.67565">
        <ele>478</ele>
        <time>2026-09-03T13:39:00.000Z</time>
      </trkpt>
      <trkpt lat="48.21643" lon="6.67564">
        <ele>478</ele>
        <time>2026-09-03T13:39:01.000Z</time>
      </trkpt>
      <trkpt lat="48.21644" lon="6.67563">
        <ele>478</ele>
        <time>2026-09-03T13:39:02.000Z</time>
      </trkpt>
      <trkpt lat="48.21646" lon="6.67562">
        <ele>478</ele>
        <time>2026-09-03T13:39:03.000Z</time>
      </trkpt>
      <trkpt lat="48.21646" lon="6.67562">
        <ele>478</ele>
        <time>2026-09-03T13:39:04.000Z</time>
      </trkpt>
      <trkpt lat="48.21647" lon="6.67561">
        <ele>478</ele>
        <time>2026-09-03T13:39:05.000Z</time>
      </trkpt>
      <trkpt lat="48.21648" lon="6.67561">
        <ele>477.79998779297</ele>
        <time>2026-09-03T13:39:06.000Z</time>
      </trkpt>
      <trkpt lat="48.21649" lon="6.6756">
        <ele>477.59997558594</ele>
        <time>2026-09-03T13:39:07.000Z</time>
      </trkpt>
      <trkpt lat="48.2165" lon="6.67559">
        <ele>477.59997558594</ele>
        <time>2026-09-03T13:39:08.000Z</time>
      </trkpt>
      <trkpt lat="48.21651" lon="6.67558">
        <ele>477.59997558594</ele>
        <time>2026-09-03T13:39:09.000Z</time>
      </trkpt>
      <trkpt lat="48.21652" lon="6.67558">
        <ele>477.40002441406</ele>
        <time>2026-09-03T13:39:10.000Z</time>
      </trkpt>
      <trkpt lat="48.21652" lon="6.67558">
        <ele>477.40002441406</ele>
        <time>2026-09-03T13:39:11.000Z</time>
      </trkpt>
      <trkpt lat="48.21653" lon="6.67558">
        <ele>477.40002441406</ele>
        <time>2026-09-03T13:39:12.000Z</time>
      </trkpt>
      <trkpt lat="48.21654" lon="6.67557">
        <ele>477.40002441406</ele>
        <time>2026-09-03T13:39:13.000Z</time>
      </trkpt>
      <trkpt lat="48.21656" lon="6.67557">
        <ele>477.20001220703</ele>
        <time>2026-09-03T13:39:14.000Z</time>
      </trkpt>
      <trkpt lat="48.21656" lon="6.67556">
        <ele>477.20001220703</ele>
        <time>2026-09-03T13:39:15.000Z</time>
      </trkpt>
      <trkpt lat="48.21657" lon="6.67556">
        <ele>477</ele>
        <time>2026-09-03T13:39:16.000Z</time>
      </trkpt>
      <trkpt lat="48.21658" lon="6.67555">
        <ele>477</ele>
        <time>2026-09-03T13:39:17.000Z</time>
      </trkpt>
      <trkpt lat="48.2166" lon="6.67554">
        <ele>476.79998779297</ele>
        <time>2026-09-03T13:39:18.000Z</time>
      </trkpt>
      <trkpt lat="48.21661" lon="6.67553">
        <ele>476.79998779297</ele>
        <time>2026-09-03T13:39:19.000Z</time>
      </trkpt>
      <trkpt lat="48.21662" lon="6.67551">
        <ele>476.79998779297</ele>
        <time>2026-09-03T13:39:20.000Z</time>
      </trkpt>
      <trkpt lat="48.21663" lon="6.6755">
        <ele>476.59997558594</ele>
        <time>2026-09-03T13:39:21.000Z</time>
      </trkpt>
      <trkpt lat="48.21664" lon="6.67549">
        <ele>476.59997558594</ele>
        <time>2026-09-03T13:39:22.000Z</time>
      </trkpt>
      <trkpt lat="48.21665" lon="6.67549">
        <ele>476.59997558594</ele>
        <time>2026-09-03T13:39:23.000Z</time>
      </trkpt>
      <trkpt lat="48.21666" lon="6.67549">
        <ele>476.59997558594</ele>
        <time>2026-09-03T13:39:24.000Z</time>
      </trkpt>
      <trkpt lat="48.21667" lon="6.67548">
        <ele>476.40002441406</ele>
        <time>2026-09-03T13:39:25.000Z</time>
      </trkpt>
      <trkpt lat="48.21668" lon="6.67548">
        <ele>476.40002441406</ele>
        <time>2026-09-03T13:39:26.000Z</time>
      </trkpt>
      <trkpt lat="48.21669" lon="6.67547">
        <ele>476.40002441406</ele>
        <time>2026-09-03T13:39:27.000Z</time>
      </trkpt>
      <trkpt lat="48.2167" lon="6.67546">
        <ele>476.40002441406</ele>
        <time>2026-09-03T13:39:28.000Z</time>
      </trkpt>
      <trkpt lat="48.21672" lon="6.67546">
        <ele>476.20001220703</ele>
        <time>2026-09-03T13:39:29.000Z</time>
      </trkpt>
      <trkpt lat="48.21673" lon="6.67545">
        <ele>476</ele>
        <time>2026-09-03T13:39:30.000Z</time>
      </trkpt>
      <trkpt lat="48.21674" lon="6.67545">
        <ele>476</ele>
        <time>2026-09-03T13:39:31.000Z</time>
      </trkpt>
      <trkpt lat="48.21675" lon="6.67544">
        <ele>475.79998779297</ele>
        <time>2026-09-03T13:39:32.000Z</time>
      </trkpt>
      <trkpt lat="48.21676" lon="6.67544">
        <ele>475.79998779297</ele>
        <time>2026-09-03T13:39:33.000Z</time>
      </trkpt>
      <trkpt lat="48.21677" lon="6.67542">
        <ele>475.79998779297</ele>
        <time>2026-09-03T13:39:34.000Z</time>
      </trkpt>
      <trkpt lat="48.21678" lon="6.67541">
        <ele>475.59997558594</ele>
        <time>2026-09-03T13:39:35.000Z</time>
      </trkpt>
      <trkpt lat="48.21678" lon="6.6754">
        <ele>475.59997558594</ele>
        <time>2026-09-03T13:39:36.000Z</time>
      </trkpt>
      <trkpt lat="48.21679" lon="6.67539">
        <ele>475.59997558594</ele>
        <time>2026-09-03T13:39:37.000Z</time>
      </trkpt>
      <trkpt lat="48.2168" lon="6.67538">
        <ele>475.59997558594</ele>
        <time>2026-09-03T13:39:38.000Z</time>
      </trkpt>
      <trkpt lat="48.2168" lon="6.67537">
        <ele>475.40002441406</ele>
        <time>2026-09-03T13:39:39.000Z</time>
      </trkpt>
      <trkpt lat="48.21681" lon="6.67536">
        <ele>475.40002441406</ele>
        <time>2026-09-03T13:39:40.000Z</time>
      </trkpt>
      <trkpt lat="48.21682" lon="6.67535">
        <ele>475.40002441406</ele>
        <time>2026-09-03T13:39:41.000Z</time>
      </trkpt>
      <trkpt lat="48.21683" lon="6.67534">
        <ele>475.20001220703</ele>
        <time>2026-09-03T13:39:42.000Z</time>
      </trkpt>
      <trkpt lat="48.21684" lon="6.67534">
        <ele>475.20001220703</ele>
        <time>2026-09-03T13:39:43.000Z</time>
      </trkpt>
      <trkpt lat="48.21685" lon="6.67533">
        <ele>475</ele>
        <time>2026-09-03T13:39:44.000Z</time>
      </trkpt>
      <trkpt lat="48.21686" lon="6.67532">
        <ele>475</ele>
        <time>2026-09-03T13:39:45.000Z</time>
      </trkpt>
      <trkpt lat="48.21687" lon="6.67531">
        <ele>474.79998779297</ele>
        <time>2026-09-03T13:39:46.000Z</time>
      </trkpt>
      <trkpt lat="48.21688" lon="6.6753">
        <ele>474.79998779297</ele>
        <time>2026-09-03T13:39:47.000Z</time>
      </trkpt>
      <trkpt lat="48.2169" lon="6.6753">
        <ele>474.79998779297</ele>
        <time>2026-09-03T13:39:48.000Z</time>
      </trkpt>
      <trkpt lat="48.21691" lon="6.67529">
        <ele>474.79998779297</ele>
        <time>2026-09-03T13:39:49.000Z</time>
      </trkpt>
      <trkpt lat="48.21692" lon="6.67527">
        <ele>474.59997558594</ele>
        <time>2026-09-03T13:39:50.000Z</time>
      </trkpt>
      <trkpt lat="48.21693" lon="6.67526">
        <ele>474.59997558594</ele>
        <time>2026-09-03T13:39:51.000Z</time>
      </trkpt>
      <trkpt lat="48.21694" lon="6.67524">
        <ele>474.59997558594</ele>
        <time>2026-09-03T13:39:52.000Z</time>
      </trkpt>
      <trkpt lat="48.21694" lon="6.67524">
        <ele>474.59997558594</ele>
        <time>2026-09-03T13:39:53.000Z</time>
      </trkpt>
      <trkpt lat="48.21695" lon="6.67523">
        <ele>474.40002441406</ele>
        <time>2026-09-03T13:39:54.000Z</time>
      </trkpt>
      <trkpt lat="48.21695" lon="6.67522">
        <ele>474.40002441406</ele>
        <time>2026-09-03T13:39:55.000Z</time>
      </trkpt>
      <trkpt lat="48.21696" lon="6.6752">
        <ele>474.40002441406</ele>
        <time>2026-09-03T13:39:56.000Z</time>
      </trkpt>
      <trkpt lat="48.21697" lon="6.67519">
        <ele>474.20001220703</ele>
        <time>2026-09-03T13:39:57.000Z</time>
      </trkpt>
      <trkpt lat="48.21698" lon="6.67518">
        <ele>474.20001220703</ele>
        <time>2026-09-03T13:39:58.000Z</time>
      </trkpt>
      <trkpt lat="48.21699" lon="6.67517">
        <ele>474.20001220703</ele>
        <time>2026-09-03T13:39:59.000Z</time>
      </trkpt>
      <trkpt lat="48.217" lon="6.67515">
        <ele>474.20001220703</ele>
        <time>2026-09-03T13:40:00.000Z</time>
      </trkpt>
      <trkpt lat="48.217" lon="6.67513">
        <ele>474.20001220703</ele>
        <time>2026-09-03T13:40:01.000Z</time>
      </trkpt>
      <trkpt lat="48.21701" lon="6.67512">
        <ele>474.20001220703</ele>
        <time>2026-09-03T13:40:02.000Z</time>
      </trkpt>
      <trkpt lat="48.21702" lon="6.6751">
        <ele>474.20001220703</ele>
        <time>2026-09-03T13:40:03.000Z</time>
      </trkpt>
      <trkpt lat="48.21703" lon="6.67508">
        <ele>474.20001220703</ele>
        <time>2026-09-03T13:40:04.000Z</time>
      </trkpt>
      <trkpt lat="48.21704" lon="6.67507">
        <ele>474</ele>
        <time>2026-09-03T13:40:05.000Z</time>
      </trkpt>
      <trkpt lat="48.21704" lon="6.67505">
        <ele>473.79998779297</ele>
        <time>2026-09-03T13:40:06.000Z</time>
      </trkpt>
      <trkpt lat="48.21705" lon="6.67503">
        <ele>473.79998779297</ele>
        <time>2026-09-03T13:40:07.000Z</time>
      </trkpt>
      <trkpt lat="48.21705" lon="6.67502">
        <ele>473.59997558594</ele>
        <time>2026-09-03T13:40:08.000Z</time>
      </trkpt>
      <trkpt lat="48.21706" lon="6.67501">
        <ele>473.59997558594</ele>
        <time>2026-09-03T13:40:09.000Z</time>
      </trkpt>
      <trkpt lat="48.21706" lon="6.675">
        <ele>473.59997558594</ele>
        <time>2026-09-03T13:40:10.000Z</time>
      </trkpt>
      <trkpt lat="48.21707" lon="6.67498">
        <ele>473.40002441406</ele>
        <time>2026-09-03T13:40:11.000Z</time>
      </trkpt>
      <trkpt lat="48.21707" lon="6.67496">
        <ele>473.40002441406</ele>
        <time>2026-09-03T13:40:12.000Z</time>
      </trkpt>
      <trkpt lat="48.21707" lon="6.67495">
        <ele>473.20001220703</ele>
        <time>2026-09-03T13:40:13.000Z</time>
      </trkpt>
      <trkpt lat="48.21707" lon="6.67494">
        <ele>473.20001220703</ele>
        <time>2026-09-03T13:40:14.000Z</time>
      </trkpt>
      <trkpt lat="48.21708" lon="6.67493">
        <ele>473.20001220703</ele>
        <time>2026-09-03T13:40:15.000Z</time>
      </trkpt>
      <trkpt lat="48.21708" lon="6.67492">
        <ele>473.20001220703</ele>
        <time>2026-09-03T13:40:16.000Z</time>
      </trkpt>
      <trkpt lat="48.21709" lon="6.6749">
        <ele>473</ele>
        <time>2026-09-03T13:40:17.000Z</time>
      </trkpt>
      <trkpt lat="48.21709" lon="6.67489">
        <ele>473</ele>
        <time>2026-09-03T13:40:18.000Z</time>
      </trkpt>
      <trkpt lat="48.21709" lon="6.67487">
        <ele>472.79998779297</ele>
        <time>2026-09-03T13:40:19.000Z</time>
      </trkpt>
      <trkpt lat="48.2171" lon="6.67485">
        <ele>472.79998779297</ele>
        <time>2026-09-03T13:40:20.000Z</time>
      </trkpt>
      <trkpt lat="48.2171" lon="6.67484">
        <ele>472.59997558594</ele>
        <time>2026-09-03T13:40:21.000Z</time>
      </trkpt>
      <trkpt lat="48.2171" lon="6.67482">
        <ele>472.59997558594</ele>
        <time>2026-09-03T13:40:22.000Z</time>
      </trkpt>
      <trkpt lat="48.21711" lon="6.6748">
        <ele>472.59997558594</ele>
        <time>2026-09-03T13:40:23.000Z</time>
      </trkpt>
      <trkpt lat="48.21711" lon="6.67479">
        <ele>472.59997558594</ele>
        <time>2026-09-03T13:40:24.000Z</time>
      </trkpt>
      <trkpt lat="48.21711" lon="6.67478">
        <ele>472.59997558594</ele>
        <time>2026-09-03T13:40:25.000Z</time>
      </trkpt>
      <trkpt lat="48.21711" lon="6.67476">
        <ele>472.59997558594</ele>
        <time>2026-09-03T13:40:26.000Z</time>
      </trkpt>
      <trkpt lat="48.21711" lon="6.67474">
        <ele>472.59997558594</ele>
        <time>2026-09-03T13:40:27.000Z</time>
      </trkpt>
      <trkpt lat="48.21711" lon="6.67472">
        <ele>472.40002441406</ele>
        <time>2026-09-03T13:40:28.000Z</time>
      </trkpt>
      <trkpt lat="48.21711" lon="6.67469">
        <ele>472.20001220703</ele>
        <time>2026-09-03T13:40:29.000Z</time>
      </trkpt>
      <trkpt lat="48.21711" lon="6.67468">
        <ele>472.20001220703</ele>
        <time>2026-09-03T13:40:30.000Z</time>
      </trkpt>
      <trkpt lat="48.21711" lon="6.67466">
        <ele>472</ele>
        <time>2026-09-03T13:40:31.000Z</time>
      </trkpt>
      <trkpt lat="48.21711" lon="6.67464">
        <ele>471.79998779297</ele>
        <time>2026-09-03T13:40:32.000Z</time>
      </trkpt>
      <trkpt lat="48.21711" lon="6.67463">
        <ele>471.79998779297</ele>
        <time>2026-09-03T13:40:33.000Z</time>
      </trkpt>
      <trkpt lat="48.2171" lon="6.6746">
        <ele>472</ele>
        <time>2026-09-03T13:40:34.000Z</time>
      </trkpt>
      <trkpt lat="48.2171" lon="6.67459">
        <ele>472.20001220703</ele>
        <time>2026-09-03T13:40:35.000Z</time>
      </trkpt>
      <trkpt lat="48.21711" lon="6.67457">
        <ele>472.20001220703</ele>
        <time>2026-09-03T13:40:36.000Z</time>
      </trkpt>
      <trkpt lat="48.21711" lon="6.67456">
        <ele>472.20001220703</ele>
        <time>2026-09-03T13:40:37.000Z</time>
      </trkpt>
      <trkpt lat="48.21711" lon="6.67454">
        <ele>472.20001220703</ele>
        <time>2026-09-03T13:40:38.000Z</time>
      </trkpt>
      <trkpt lat="48.21711" lon="6.67452">
        <ele>472</ele>
        <time>2026-09-03T13:40:39.000Z</time>
      </trkpt>
      <trkpt lat="48.21712" lon="6.67451">
        <ele>471.79998779297</ele>
        <time>2026-09-03T13:40:40.000Z</time>
      </trkpt>
      <trkpt lat="48.21712" lon="6.6745">
        <ele>471.59997558594</ele>
        <time>2026-09-03T13:40:41.000Z</time>
      </trkpt>
      <trkpt lat="48.21712" lon="6.67448">
        <ele>471.40002441406</ele>
        <time>2026-09-03T13:40:42.000Z</time>
      </trkpt>
      <trkpt lat="48.21712" lon="6.67447">
        <ele>471.20001220703</ele>
        <time>2026-09-03T13:40:43.000Z</time>
      </trkpt>
      <trkpt lat="48.21712" lon="6.67445">
        <ele>471</ele>
        <time>2026-09-03T13:40:44.000Z</time>
      </trkpt>
      <trkpt lat="48.21712" lon="6.67442">
        <ele>471.20001220703</ele>
        <time>2026-09-03T13:40:45.000Z</time>
      </trkpt>
      <trkpt lat="48.21712" lon="6.6744">
        <ele>471.40002441406</ele>
        <time>2026-09-03T13:40:46.000Z</time>
      </trkpt>
      <trkpt lat="48.21712" lon="6.67438">
        <ele>471.59997558594</ele>
        <time>2026-09-03T13:40:47.000Z</time>
      </trkpt>
      <trkpt lat="48.21712" lon="6.67437">
        <ele>471.59997558594</ele>
        <time>2026-09-03T13:40:48.000Z</time>
      </trkpt>
      <trkpt lat="48.21713" lon="6.67435">
        <ele>471.59997558594</ele>
        <time>2026-09-03T13:40:49.000Z</time>
      </trkpt>
      <trkpt lat="48.21713" lon="6.67433">
        <ele>471.59997558594</ele>
        <time>2026-09-03T13:40:50.000Z</time>
      </trkpt>
      <trkpt lat="48.21713" lon="6.6743">
        <ele>471.59997558594</ele>
        <time>2026-09-03T13:40:51.000Z</time>
      </trkpt>
      <trkpt lat="48.21713" lon="6.67428">
        <ele>471.59997558594</ele>
        <time>2026-09-03T13:40:52.000Z</time>
      </trkpt>
      <trkpt lat="48.21714" lon="6.67425">
        <ele>471.40002441406</ele>
        <time>2026-09-03T13:40:53.000Z</time>
      </trkpt>
      <trkpt lat="48.21714" lon="6.67423">
        <ele>471.40002441406</ele>
        <time>2026-09-03T13:40:54.000Z</time>
      </trkpt>
      <trkpt lat="48.21715" lon="6.67421">
        <ele>471.20001220703</ele>
        <time>2026-09-03T13:40:55.000Z</time>
      </trkpt>
      <trkpt lat="48.21715" lon="6.67419">
        <ele>471.20001220703</ele>
        <time>2026-09-03T13:40:56.000Z</time>
      </trkpt>
      <trkpt lat="48.21715" lon="6.67417">
        <ele>471.20001220703</ele>
        <time>2026-09-03T13:40:57.000Z</time>
      </trkpt>
      <trkpt lat="48.21716" lon="6.67415">
        <ele>471</ele>
        <time>2026-09-03T13:40:58.000Z</time>
      </trkpt>
      <trkpt lat="48.21716" lon="6.67413">
        <ele>471</ele>
        <time>2026-09-03T13:40:59.000Z</time>
      </trkpt>
      <trkpt lat="48.21716" lon="6.67412">
        <ele>471</ele>
        <time>2026-09-03T13:41:00.000Z</time>
      </trkpt>
      <trkpt lat="48.21717" lon="6.6741">
        <ele>470.79998779297</ele>
        <time>2026-09-03T13:41:01.000Z</time>
      </trkpt>
      <trkpt lat="48.21717" lon="6.67408">
        <ele>470.79998779297</ele>
        <time>2026-09-03T13:41:02.000Z</time>
      </trkpt>
      <trkpt lat="48.21718" lon="6.67407">
        <ele>470.59997558594</ele>
        <time>2026-09-03T13:41:03.000Z</time>
      </trkpt>
      <trkpt lat="48.21718" lon="6.67405">
        <ele>470.59997558594</ele>
        <time>2026-09-03T13:41:04.000Z</time>
      </trkpt>
      <trkpt lat="48.21719" lon="6.67402">
        <ele>470.59997558594</ele>
        <time>2026-09-03T13:41:05.000Z</time>
      </trkpt>
      <trkpt lat="48.21719" lon="6.67401">
        <ele>470.59997558594</ele>
        <time>2026-09-03T13:41:06.000Z</time>
      </trkpt>
      <trkpt lat="48.21719" lon="6.674">
        <ele>470.40002441406</ele>
        <time>2026-09-03T13:41:07.000Z</time>
      </trkpt>
      <trkpt lat="48.2172" lon="6.67398">
        <ele>470.40002441406</ele>
        <time>2026-09-03T13:41:08.000Z</time>
      </trkpt>
      <trkpt lat="48.2172" lon="6.67396">
        <ele>470.20001220703</ele>
        <time>2026-09-03T13:41:09.000Z</time>
      </trkpt>
      <trkpt lat="48.2172" lon="6.67394">
        <ele>470.20001220703</ele>
        <time>2026-09-03T13:41:10.000Z</time>
      </trkpt>
      <trkpt lat="48.21721" lon="6.67392">
        <ele>470.20001220703</ele>
        <time>2026-09-03T13:41:11.000Z</time>
      </trkpt>
      <trkpt lat="48.21722" lon="6.67391">
        <ele>470</ele>
        <time>2026-09-03T13:41:12.000Z</time>
      </trkpt>
      <trkpt lat="48.21722" lon="6.6739">
        <ele>470</ele>
        <time>2026-09-03T13:41:13.000Z</time>
      </trkpt>
      <trkpt lat="48.21723" lon="6.67389">
        <ele>470</ele>
        <time>2026-09-03T13:41:14.000Z</time>
      </trkpt>
      <trkpt lat="48.21723" lon="6.67388">
        <ele>470</ele>
        <time>2026-09-03T13:41:15.000Z</time>
      </trkpt>
      <trkpt lat="48.21724" lon="6.67386">
        <ele>469.79998779297</ele>
        <time>2026-09-03T13:41:16.000Z</time>
      </trkpt>
      <trkpt lat="48.21724" lon="6.67385">
        <ele>469.79998779297</ele>
        <time>2026-09-03T13:41:17.000Z</time>
      </trkpt>
      <trkpt lat="48.21724" lon="6.67383">
        <ele>469.79998779297</ele>
        <time>2026-09-03T13:41:18.000Z</time>
      </trkpt>
      <trkpt lat="48.21725" lon="6.67381">
        <ele>469.59997558594</ele>
        <time>2026-09-03T13:41:19.000Z</time>
      </trkpt>
      <trkpt lat="48.21725" lon="6.67379">
        <ele>469.59997558594</ele>
        <time>2026-09-03T13:41:20.000Z</time>
      </trkpt>
      <trkpt lat="48.21725" lon="6.67378">
        <ele>469.40002441406</ele>
        <time>2026-09-03T13:41:21.000Z</time>
      </trkpt>
      <trkpt lat="48.21726" lon="6.67376">
        <ele>469.40002441406</ele>
        <time>2026-09-03T13:41:22.000Z</time>
      </trkpt>
      <trkpt lat="48.21727" lon="6.67375">
        <ele>469.40002441406</ele>
        <time>2026-09-03T13:41:23.000Z</time>
      </trkpt>
      <trkpt lat="48.21727" lon="6.67373">
        <ele>469.20001220703</ele>
        <time>2026-09-03T13:41:24.000Z</time>
      </trkpt>
      <trkpt lat="48.21728" lon="6.67371">
        <ele>469.20001220703</ele>
        <time>2026-09-03T13:41:25.000Z</time>
      </trkpt>
      <trkpt lat="48.21728" lon="6.6737">
        <ele>469.20001220703</ele>
        <time>2026-09-03T13:41:26.000Z</time>
      </trkpt>
      <trkpt lat="48.21729" lon="6.67369">
        <ele>469.20001220703</ele>
        <time>2026-09-03T13:41:27.000Z</time>
      </trkpt>
      <trkpt lat="48.21729" lon="6.67367">
        <ele>469.20001220703</ele>
        <time>2026-09-03T13:41:28.000Z</time>
      </trkpt>
      <trkpt lat="48.2173" lon="6.67365">
        <ele>469</ele>
        <time>2026-09-03T13:41:29.000Z</time>
      </trkpt>
      <trkpt lat="48.2173" lon="6.67364">
        <ele>469</ele>
        <time>2026-09-03T13:41:30.000Z</time>
      </trkpt>
      <trkpt lat="48.2173" lon="6.67363">
        <ele>469</ele>
        <time>2026-09-03T13:41:31.000Z</time>
      </trkpt>
      <trkpt lat="48.21731" lon="6.67361">
        <ele>468.79998779297</ele>
        <time>2026-09-03T13:41:32.000Z</time>
      </trkpt>
      <trkpt lat="48.21732" lon="6.6736">
        <ele>468.59997558594</ele>
        <time>2026-09-03T13:41:33.000Z</time>
      </trkpt>
      <trkpt lat="48.21732" lon="6.67358">
        <ele>468.59997558594</ele>
        <time>2026-09-03T13:41:34.000Z</time>
      </trkpt>
      <trkpt lat="48.21733" lon="6.67357">
        <ele>468.59997558594</ele>
        <time>2026-09-03T13:41:35.000Z</time>
      </trkpt>
      <trkpt lat="48.21733" lon="6.67354">
        <ele>468.59997558594</ele>
        <time>2026-09-03T13:41:36.000Z</time>
      </trkpt>
      <trkpt lat="48.21734" lon="6.67352">
        <ele>468.40002441406</ele>
        <time>2026-09-03T13:41:37.000Z</time>
      </trkpt>
      <trkpt lat="48.21734" lon="6.67351">
        <ele>468.40002441406</ele>
        <time>2026-09-03T13:41:38.000Z</time>
      </trkpt>
      <trkpt lat="48.21735" lon="6.67349">
        <ele>468.40002441406</ele>
        <time>2026-09-03T13:41:39.000Z</time>
      </trkpt>
      <trkpt lat="48.21735" lon="6.67347">
        <ele>468.40002441406</ele>
        <time>2026-09-03T13:41:40.000Z</time>
      </trkpt>
      <trkpt lat="48.21736" lon="6.67345">
        <ele>468.40002441406</ele>
        <time>2026-09-03T13:41:41.000Z</time>
      </trkpt>
      <trkpt lat="48.21736" lon="6.67343">
        <ele>468.40002441406</ele>
        <time>2026-09-03T13:41:42.000Z</time>
      </trkpt>
      <trkpt lat="48.21737" lon="6.67341">
        <ele>468.20001220703</ele>
        <time>2026-09-03T13:41:43.000Z</time>
      </trkpt>
      <trkpt lat="48.21738" lon="6.67339">
        <ele>468.20001220703</ele>
        <time>2026-09-03T13:41:44.000Z</time>
      </trkpt>
      <trkpt lat="48.21739" lon="6.67338">
        <ele>468.20001220703</ele>
        <time>2026-09-03T13:41:45.000Z</time>
      </trkpt>
      <trkpt lat="48.21739" lon="6.67336">
        <ele>468.20001220703</ele>
        <time>2026-09-03T13:41:46.000Z</time>
      </trkpt>
      <trkpt lat="48.2174" lon="6.67335">
        <ele>468.20001220703</ele>
        <time>2026-09-03T13:41:47.000Z</time>
      </trkpt>
      <trkpt lat="48.2174" lon="6.67334">
        <ele>468.20001220703</ele>
        <time>2026-09-03T13:41:48.000Z</time>
      </trkpt>
      <trkpt lat="48.21741" lon="6.67332">
        <ele>468</ele>
        <time>2026-09-03T13:41:49.000Z</time>
      </trkpt>
      <trkpt lat="48.21741" lon="6.67331">
        <ele>468</ele>
        <time>2026-09-03T13:41:50.000Z</time>
      </trkpt>
      <trkpt lat="48.21742" lon="6.67329">
        <ele>468</ele>
        <time>2026-09-03T13:41:51.000Z</time>
      </trkpt>
      <trkpt lat="48.21742" lon="6.67327">
        <ele>468</ele>
        <time>2026-09-03T13:41:52.000Z</time>
      </trkpt>
      <trkpt lat="48.21743" lon="6.67326">
        <ele>468</ele>
        <time>2026-09-03T13:41:53.000Z</time>
      </trkpt>
      <trkpt lat="48.21744" lon="6.67324">
        <ele>467.79998779297</ele>
        <time>2026-09-03T13:41:54.000Z</time>
      </trkpt>
      <trkpt lat="48.21744" lon="6.67322">
        <ele>467.79998779297</ele>
        <time>2026-09-03T13:41:55.000Z</time>
      </trkpt>
      <trkpt lat="48.21745" lon="6.67321">
        <ele>467.59997558594</ele>
        <time>2026-09-03T13:41:56.000Z</time>
      </trkpt>
      <trkpt lat="48.21745" lon="6.67319">
        <ele>467.59997558594</ele>
        <time>2026-09-03T13:41:57.000Z</time>
      </trkpt>
      <trkpt lat="48.21745" lon="6.67317">
        <ele>467.59997558594</ele>
        <time>2026-09-03T13:41:58.000Z</time>
      </trkpt>
      <trkpt lat="48.21746" lon="6.67316">
        <ele>467.59997558594</ele>
        <time>2026-09-03T13:41:59.000Z</time>
      </trkpt>
      <trkpt lat="48.21746" lon="6.67314">
        <ele>467.59997558594</ele>
        <time>2026-09-03T13:42:00.000Z</time>
      </trkpt>
      <trkpt lat="48.21747" lon="6.67313">
        <ele>467.59997558594</ele>
        <time>2026-09-03T13:42:01.000Z</time>
      </trkpt>
      <trkpt lat="48.21747" lon="6.67311">
        <ele>467.59997558594</ele>
        <time>2026-09-03T13:42:02.000Z</time>
      </trkpt>
      <trkpt lat="48.21747" lon="6.67309">
        <ele>467.59997558594</ele>
        <time>2026-09-03T13:42:03.000Z</time>
      </trkpt>
      <trkpt lat="48.21748" lon="6.67308">
        <ele>467.59997558594</ele>
        <time>2026-09-03T13:42:04.000Z</time>
      </trkpt>
      <trkpt lat="48.21748" lon="6.67305">
        <ele>467.40002441406</ele>
        <time>2026-09-03T13:42:05.000Z</time>
      </trkpt>
      <trkpt lat="48.21748" lon="6.67303">
        <ele>467.40002441406</ele>
        <time>2026-09-03T13:42:06.000Z</time>
      </trkpt>
      <trkpt lat="48.21749" lon="6.67302">
        <ele>467.20001220703</ele>
        <time>2026-09-03T13:42:07.000Z</time>
      </trkpt>
      <trkpt lat="48.21749" lon="6.673">
        <ele>467.20001220703</ele>
        <time>2026-09-03T13:42:08.000Z</time>
      </trkpt>
      <trkpt lat="48.2175" lon="6.67298">
        <ele>467.20001220703</ele>
        <time>2026-09-03T13:42:09.000Z</time>
      </trkpt>
      <trkpt lat="48.2175" lon="6.67297">
        <ele>467</ele>
        <time>2026-09-03T13:42:10.000Z</time>
      </trkpt>
      <trkpt lat="48.2175" lon="6.67295">
        <ele>467</ele>
        <time>2026-09-03T13:42:11.000Z</time>
      </trkpt>
      <trkpt lat="48.2175" lon="6.67293">
        <ele>467</ele>
        <time>2026-09-03T13:42:12.000Z</time>
      </trkpt>
      <trkpt lat="48.2175" lon="6.67292">
        <ele>466.79998779297</ele>
        <time>2026-09-03T13:42:13.000Z</time>
      </trkpt>
      <trkpt lat="48.2175" lon="6.6729">
        <ele>466.79998779297</ele>
        <time>2026-09-03T13:42:14.000Z</time>
      </trkpt>
      <trkpt lat="48.2175" lon="6.67287">
        <ele>466.79998779297</ele>
        <time>2026-09-03T13:42:15.000Z</time>
      </trkpt>
      <trkpt lat="48.21751" lon="6.67285">
        <ele>466.59997558594</ele>
        <time>2026-09-03T13:42:16.000Z</time>
      </trkpt>
      <trkpt lat="48.2175" lon="6.67284">
        <ele>466.59997558594</ele>
        <time>2026-09-03T13:42:17.000Z</time>
      </trkpt>
      <trkpt lat="48.21751" lon="6.67282">
        <ele>466.59997558594</ele>
        <time>2026-09-03T13:42:18.000Z</time>
      </trkpt>
      <trkpt lat="48.21751" lon="6.6728">
        <ele>466.59997558594</ele>
        <time>2026-09-03T13:42:19.000Z</time>
      </trkpt>
      <trkpt lat="48.21751" lon="6.67278">
        <ele>466.59997558594</ele>
        <time>2026-09-03T13:42:20.000Z</time>
      </trkpt>
      <trkpt lat="48.21751" lon="6.67278">
        <ele>466.40002441406</ele>
        <time>2026-09-03T13:42:21.000Z</time>
      </trkpt>
      <trkpt lat="48.21751" lon="6.67276">
        <ele>466.40002441406</ele>
        <time>2026-09-03T13:42:22.000Z</time>
      </trkpt>
      <trkpt lat="48.21751" lon="6.67274">
        <ele>466.20001220703</ele>
        <time>2026-09-03T13:42:23.000Z</time>
      </trkpt>
      <trkpt lat="48.21751" lon="6.67272">
        <ele>466.20001220703</ele>
        <time>2026-09-03T13:42:24.000Z</time>
      </trkpt>
      <trkpt lat="48.21751" lon="6.6727">
        <ele>466.20001220703</ele>
        <time>2026-09-03T13:42:25.000Z</time>
      </trkpt>
      <trkpt lat="48.21751" lon="6.67268">
        <ele>466.20001220703</ele>
        <time>2026-09-03T13:42:26.000Z</time>
      </trkpt>
      <trkpt lat="48.21751" lon="6.67266">
        <ele>466.20001220703</ele>
        <time>2026-09-03T13:42:27.000Z</time>
      </trkpt>
      <trkpt lat="48.21751" lon="6.67265">
        <ele>466.20001220703</ele>
        <time>2026-09-03T13:42:28.000Z</time>
      </trkpt>
      <trkpt lat="48.21751" lon="6.67264">
        <ele>466.20001220703</ele>
        <time>2026-09-03T13:42:29.000Z</time>
      </trkpt>
      <trkpt lat="48.21751" lon="6.67263">
        <ele>466.20001220703</ele>
        <time>2026-09-03T13:42:30.000Z</time>
      </trkpt>
      <trkpt lat="48.21751" lon="6.6726">
        <ele>466.20001220703</ele>
        <time>2026-09-03T13:42:31.000Z</time>
      </trkpt>
      <trkpt lat="48.21751" lon="6.67258">
        <ele>466.20001220703</ele>
        <time>2026-09-03T13:42:32.000Z</time>
      </trkpt>
      <trkpt lat="48.21751" lon="6.67257">
        <ele>466.20001220703</ele>
        <time>2026-09-03T13:42:33.000Z</time>
      </trkpt>
      <trkpt lat="48.21751" lon="6.67255">
        <ele>466.20001220703</ele>
        <time>2026-09-03T13:42:34.000Z</time>
      </trkpt>
      <trkpt lat="48.21751" lon="6.67254">
        <ele>466.20001220703</ele>
        <time>2026-09-03T13:42:35.000Z</time>
      </trkpt>
      <trkpt lat="48.21751" lon="6.67252">
        <ele>466</ele>
        <time>2026-09-03T13:42:36.000Z</time>
      </trkpt>
      <trkpt lat="48.21751" lon="6.67251">
        <ele>466</ele>
        <time>2026-09-03T13:42:37.000Z</time>
      </trkpt>
      <trkpt lat="48.21751" lon="6.67249">
        <ele>466</ele>
        <time>2026-09-03T13:42:38.000Z</time>
      </trkpt>
      <trkpt lat="48.21752" lon="6.67248">
        <ele>465.79998779297</ele>
        <time>2026-09-03T13:42:39.000Z</time>
      </trkpt>
      <trkpt lat="48.21752" lon="6.67247">
        <ele>465.79998779297</ele>
        <time>2026-09-03T13:42:40.000Z</time>
      </trkpt>
      <trkpt lat="48.21752" lon="6.67245">
        <ele>465.79998779297</ele>
        <time>2026-09-03T13:42:41.000Z</time>
      </trkpt>
      <trkpt lat="48.21752" lon="6.67243">
        <ele>465.79998779297</ele>
        <time>2026-09-03T13:42:42.000Z</time>
      </trkpt>
      <trkpt lat="48.21751" lon="6.67242">
        <ele>465.79998779297</ele>
        <time>2026-09-03T13:42:43.000Z</time>
      </trkpt>
      <trkpt lat="48.21751" lon="6.6724">
        <ele>465.79998779297</ele>
        <time>2026-09-03T13:42:44.000Z</time>
      </trkpt>
      <trkpt lat="48.21751" lon="6.67238">
        <ele>465.79998779297</ele>
        <time>2026-09-03T13:42:45.000Z</time>
      </trkpt>
      <trkpt lat="48.21751" lon="6.67236">
        <ele>465.59997558594</ele>
        <time>2026-09-03T13:42:46.000Z</time>
      </trkpt>
      <trkpt lat="48.21752" lon="6.67234">
        <ele>465.79998779297</ele>
        <time>2026-09-03T13:42:47.000Z</time>
      </trkpt>
      <trkpt lat="48.21752" lon="6.67231">
        <ele>465.79998779297</ele>
        <time>2026-09-03T13:42:48.000Z</time>
      </trkpt>
      <trkpt lat="48.21752" lon="6.67229">
        <ele>465.79998779297</ele>
        <time>2026-09-03T13:42:49.000Z</time>
      </trkpt>
      <trkpt lat="48.21752" lon="6.67227">
        <ele>465.79998779297</ele>
        <time>2026-09-03T13:42:50.000Z</time>
      </trkpt>
      <trkpt lat="48.21752" lon="6.67224">
        <ele>465.79998779297</ele>
        <time>2026-09-03T13:42:51.000Z</time>
      </trkpt>
      <trkpt lat="48.21753" lon="6.67222">
        <ele>465.79998779297</ele>
        <time>2026-09-03T13:42:52.000Z</time>
      </trkpt>
      <trkpt lat="48.21753" lon="6.6722">
        <ele>465.79998779297</ele>
        <time>2026-09-03T13:42:53.000Z</time>
      </trkpt>
      <trkpt lat="48.21753" lon="6.67218">
        <ele>465.79998779297</ele>
        <time>2026-09-03T13:42:54.000Z</time>
      </trkpt>
      <trkpt lat="48.21754" lon="6.67217">
        <ele>465.79998779297</ele>
        <time>2026-09-03T13:42:55.000Z</time>
      </trkpt>
      <trkpt lat="48.21754" lon="6.67215">
        <ele>465.59997558594</ele>
        <time>2026-09-03T13:42:56.000Z</time>
      </trkpt>
      <trkpt lat="48.21754" lon="6.67213">
        <ele>465.59997558594</ele>
        <time>2026-09-03T13:42:57.000Z</time>
      </trkpt>
      <trkpt lat="48.21755" lon="6.67211">
        <ele>465.59997558594</ele>
        <time>2026-09-03T13:42:58.000Z</time>
      </trkpt>
      <trkpt lat="48.21755" lon="6.67209">
        <ele>465.59997558594</ele>
        <time>2026-09-03T13:42:59.000Z</time>
      </trkpt>
      <trkpt lat="48.21756" lon="6.67207">
        <ele>465.40002441406</ele>
        <time>2026-09-03T13:43:00.000Z</time>
      </trkpt>
      <trkpt lat="48.21756" lon="6.67206">
        <ele>465.40002441406</ele>
        <time>2026-09-03T13:43:01.000Z</time>
      </trkpt>
      <trkpt lat="48.21756" lon="6.67204">
        <ele>465.40002441406</ele>
        <time>2026-09-03T13:43:02.000Z</time>
      </trkpt>
      <trkpt lat="48.21757" lon="6.67202">
        <ele>465.59997558594</ele>
        <time>2026-09-03T13:43:03.000Z</time>
      </trkpt>
      <trkpt lat="48.21757" lon="6.67201">
        <ele>465.40002441406</ele>
        <time>2026-09-03T13:43:04.000Z</time>
      </trkpt>
      <trkpt lat="48.21757" lon="6.67199">
        <ele>465.20001220703</ele>
        <time>2026-09-03T13:43:05.000Z</time>
      </trkpt>
      <trkpt lat="48.21757" lon="6.67197">
        <ele>465.20001220703</ele>
        <time>2026-09-03T13:43:06.000Z</time>
      </trkpt>
      <trkpt lat="48.21757" lon="6.67195">
        <ele>465</ele>
        <time>2026-09-03T13:43:07.000Z</time>
      </trkpt>
      <trkpt lat="48.21757" lon="6.67193">
        <ele>465</ele>
        <time>2026-09-03T13:43:08.000Z</time>
      </trkpt>
      <trkpt lat="48.21758" lon="6.67191">
        <ele>465</ele>
        <time>2026-09-03T13:43:09.000Z</time>
      </trkpt>
      <trkpt lat="48.21758" lon="6.6719">
        <ele>465.20001220703</ele>
        <time>2026-09-03T13:43:10.000Z</time>
      </trkpt>
      <trkpt lat="48.21758" lon="6.67189">
        <ele>465.20001220703</ele>
        <time>2026-09-03T13:43:11.000Z</time>
      </trkpt>
      <trkpt lat="48.21759" lon="6.67187">
        <ele>465.40002441406</ele>
        <time>2026-09-03T13:43:12.000Z</time>
      </trkpt>
      <trkpt lat="48.21758" lon="6.67185">
        <ele>465.40002441406</ele>
        <time>2026-09-03T13:43:13.000Z</time>
      </trkpt>
      <trkpt lat="48.21759" lon="6.67183">
        <ele>465.40002441406</ele>
        <time>2026-09-03T13:43:14.000Z</time>
      </trkpt>
      <trkpt lat="48.21759" lon="6.67181">
        <ele>465.20001220703</ele>
        <time>2026-09-03T13:43:15.000Z</time>
      </trkpt>
      <trkpt lat="48.21759" lon="6.67179">
        <ele>465.20001220703</ele>
        <time>2026-09-03T13:43:16.000Z</time>
      </trkpt>
      <trkpt lat="48.21759" lon="6.67177">
        <ele>465.20001220703</ele>
        <time>2026-09-03T13:43:17.000Z</time>
      </trkpt>
      <trkpt lat="48.21759" lon="6.67176">
        <ele>465.20001220703</ele>
        <time>2026-09-03T13:43:18.000Z</time>
      </trkpt>
      <trkpt lat="48.2176" lon="6.67174">
        <ele>465.40002441406</ele>
        <time>2026-09-03T13:43:19.000Z</time>
      </trkpt>
      <trkpt lat="48.2176" lon="6.67172">
        <ele>465.40002441406</ele>
        <time>2026-09-03T13:43:20.000Z</time>
      </trkpt>
      <trkpt lat="48.2176" lon="6.6717">
        <ele>465.40002441406</ele>
        <time>2026-09-03T13:43:21.000Z</time>
      </trkpt>
      <trkpt lat="48.2176" lon="6.67168">
        <ele>465.40002441406</ele>
        <time>2026-09-03T13:43:22.000Z</time>
      </trkpt>
      <trkpt lat="48.21761" lon="6.67166">
        <ele>465.40002441406</ele>
        <time>2026-09-03T13:43:23.000Z</time>
      </trkpt>
      <trkpt lat="48.21761" lon="6.67165">
        <ele>465.40002441406</ele>
        <time>2026-09-03T13:43:24.000Z</time>
      </trkpt>
      <trkpt lat="48.21762" lon="6.67163">
        <ele>465.20001220703</ele>
        <time>2026-09-03T13:43:25.000Z</time>
      </trkpt>
      <trkpt lat="48.21762" lon="6.67162">
        <ele>465.20001220703</ele>
        <time>2026-09-03T13:43:26.000Z</time>
      </trkpt>
      <trkpt lat="48.21763" lon="6.6716">
        <ele>465.20001220703</ele>
        <time>2026-09-03T13:43:27.000Z</time>
      </trkpt>
      <trkpt lat="48.21763" lon="6.67158">
        <ele>465.20001220703</ele>
        <time>2026-09-03T13:43:28.000Z</time>
      </trkpt>
      <trkpt lat="48.21764" lon="6.67156">
        <ele>465.20001220703</ele>
        <time>2026-09-03T13:43:29.000Z</time>
      </trkpt>
      <trkpt lat="48.21764" lon="6.67155">
        <ele>465.40002441406</ele>
        <time>2026-09-03T13:43:30.000Z</time>
      </trkpt>
      <trkpt lat="48.21764" lon="6.67153">
        <ele>465.40002441406</ele>
        <time>2026-09-03T13:43:31.000Z</time>
      </trkpt>
      <trkpt lat="48.21765" lon="6.6715">
        <ele>465.20001220703</ele>
        <time>2026-09-03T13:43:32.000Z</time>
      </trkpt>
      <trkpt lat="48.21765" lon="6.67149">
        <ele>465</ele>
        <time>2026-09-03T13:43:33.000Z</time>
      </trkpt>
      <trkpt lat="48.21766" lon="6.67148">
        <ele>465</ele>
        <time>2026-09-03T13:43:34.000Z</time>
      </trkpt>
      <trkpt lat="48.21766" lon="6.67146">
        <ele>464.79998779297</ele>
        <time>2026-09-03T13:43:35.000Z</time>
      </trkpt>
      <trkpt lat="48.21767" lon="6.67144">
        <ele>464.79998779297</ele>
        <time>2026-09-03T13:43:36.000Z</time>
      </trkpt>
      <trkpt lat="48.21767" lon="6.67142">
        <ele>465</ele>
        <time>2026-09-03T13:43:37.000Z</time>
      </trkpt>
      <trkpt lat="48.21767" lon="6.6714">
        <ele>465.20001220703</ele>
        <time>2026-09-03T13:43:38.000Z</time>
      </trkpt>
      <trkpt lat="48.21768" lon="6.67139">
        <ele>465.40002441406</ele>
        <time>2026-09-03T13:43:39.000Z</time>
      </trkpt>
      <trkpt lat="48.21769" lon="6.67137">
        <ele>465.59997558594</ele>
        <time>2026-09-03T13:43:40.000Z</time>
      </trkpt>
      <trkpt lat="48.21769" lon="6.67136">
        <ele>465.40002441406</ele>
        <time>2026-09-03T13:43:41.000Z</time>
      </trkpt>
      <trkpt lat="48.2177" lon="6.67134">
        <ele>465.20001220703</ele>
        <time>2026-09-03T13:43:42.000Z</time>
      </trkpt>
      <trkpt lat="48.21771" lon="6.67132">
        <ele>465.20001220703</ele>
        <time>2026-09-03T13:43:43.000Z</time>
      </trkpt>
      <trkpt lat="48.21771" lon="6.6713">
        <ele>465</ele>
        <time>2026-09-03T13:43:44.000Z</time>
      </trkpt>
      <trkpt lat="48.21772" lon="6.67129">
        <ele>465</ele>
        <time>2026-09-03T13:43:45.000Z</time>
      </trkpt>
      <trkpt lat="48.21772" lon="6.67127">
        <ele>465.20001220703</ele>
        <time>2026-09-03T13:43:46.000Z</time>
      </trkpt>
      <trkpt lat="48.21773" lon="6.67126">
        <ele>465.40002441406</ele>
        <time>2026-09-03T13:43:47.000Z</time>
      </trkpt>
      <trkpt lat="48.21773" lon="6.67125">
        <ele>465.59997558594</ele>
        <time>2026-09-03T13:43:48.000Z</time>
      </trkpt>
      <trkpt lat="48.21774" lon="6.67124">
        <ele>465.79998779297</ele>
        <time>2026-09-03T13:43:49.000Z</time>
      </trkpt>
      <trkpt lat="48.21775" lon="6.67124">
        <ele>465.79998779297</ele>
        <time>2026-09-03T13:43:50.000Z</time>
      </trkpt>
      <trkpt lat="48.21776" lon="6.67122">
        <ele>465.59997558594</ele>
        <time>2026-09-03T13:43:51.000Z</time>
      </trkpt>
      <trkpt lat="48.21776" lon="6.6712">
        <ele>465.59997558594</ele>
        <time>2026-09-03T13:43:52.000Z</time>
      </trkpt>
      <trkpt lat="48.21777" lon="6.67119">
        <ele>465.59997558594</ele>
        <time>2026-09-03T13:43:53.000Z</time>
      </trkpt>
      <trkpt lat="48.21777" lon="6.67117">
        <ele>465.59997558594</ele>
        <time>2026-09-03T13:43:54.000Z</time>
      </trkpt>
      <trkpt lat="48.21777" lon="6.67115">
        <ele>465.59997558594</ele>
        <time>2026-09-03T13:43:55.000Z</time>
      </trkpt>
      <trkpt lat="48.21778" lon="6.67113">
        <ele>465.59997558594</ele>
        <time>2026-09-03T13:43:56.000Z</time>
      </trkpt>
      <trkpt lat="48.21778" lon="6.67111">
        <ele>465.59997558594</ele>
        <time>2026-09-03T13:43:57.000Z</time>
      </trkpt>
      <trkpt lat="48.21779" lon="6.67109">
        <ele>465.59997558594</ele>
        <time>2026-09-03T13:43:58.000Z</time>
      </trkpt>
      <trkpt lat="48.2178" lon="6.67107">
        <ele>465.59997558594</ele>
        <time>2026-09-03T13:43:59.000Z</time>
      </trkpt>
      <trkpt lat="48.2178" lon="6.67106">
        <ele>465.59997558594</ele>
        <time>2026-09-03T13:44:00.000Z</time>
      </trkpt>
      <trkpt lat="48.21781" lon="6.67104">
        <ele>465.59997558594</ele>
        <time>2026-09-03T13:44:01.000Z</time>
      </trkpt>
      <trkpt lat="48.21781" lon="6.67102">
        <ele>465.59997558594</ele>
        <time>2026-09-03T13:44:02.000Z</time>
      </trkpt>
      <trkpt lat="48.21781" lon="6.67101">
        <ele>465.59997558594</ele>
        <time>2026-09-03T13:44:03.000Z</time>
      </trkpt>
      <trkpt lat="48.21782" lon="6.671">
        <ele>465.59997558594</ele>
        <time>2026-09-03T13:44:04.000Z</time>
      </trkpt>
      <trkpt lat="48.21782" lon="6.67098">
        <ele>465.59997558594</ele>
        <time>2026-09-03T13:44:05.000Z</time>
      </trkpt>
      <trkpt lat="48.21783" lon="6.67096">
        <ele>465.59997558594</ele>
        <time>2026-09-03T13:44:06.000Z</time>
      </trkpt>
      <trkpt lat="48.21783" lon="6.67094">
        <ele>465.59997558594</ele>
        <time>2026-09-03T13:44:07.000Z</time>
      </trkpt>
      <trkpt lat="48.21784" lon="6.67092">
        <ele>465.59997558594</ele>
        <time>2026-09-03T13:44:08.000Z</time>
      </trkpt>
      <trkpt lat="48.21784" lon="6.67089">
        <ele>465.59997558594</ele>
        <time>2026-09-03T13:44:09.000Z</time>
      </trkpt>
      <trkpt lat="48.21784" lon="6.67088">
        <ele>465.59997558594</ele>
        <time>2026-09-03T13:44:10.000Z</time>
      </trkpt>
      <trkpt lat="48.21785" lon="6.67086">
        <ele>465.59997558594</ele>
        <time>2026-09-03T13:44:11.000Z</time>
      </trkpt>
      <trkpt lat="48.21785" lon="6.67084">
        <ele>465.59997558594</ele>
        <time>2026-09-03T13:44:12.000Z</time>
      </trkpt>
      <trkpt lat="48.21785" lon="6.67083">
        <ele>465.59997558594</ele>
        <time>2026-09-03T13:44:13.000Z</time>
      </trkpt>
      <trkpt lat="48.21785" lon="6.67081">
        <ele>465.59997558594</ele>
        <time>2026-09-03T13:44:14.000Z</time>
      </trkpt>
      <trkpt lat="48.21786" lon="6.67078">
        <ele>465.59997558594</ele>
        <time>2026-09-03T13:44:15.000Z</time>
      </trkpt>
      <trkpt lat="48.21786" lon="6.67077">
        <ele>465.59997558594</ele>
        <time>2026-09-03T13:44:16.000Z</time>
      </trkpt>
      <trkpt lat="48.21787" lon="6.67074">
        <ele>465.59997558594</ele>
        <time>2026-09-03T13:44:17.000Z</time>
      </trkpt>
      <trkpt lat="48.21787" lon="6.67072">
        <ele>465.79998779297</ele>
        <time>2026-09-03T13:44:18.000Z</time>
      </trkpt>
      <trkpt lat="48.21787" lon="6.6707">
        <ele>465.79998779297</ele>
        <time>2026-09-03T13:44:19.000Z</time>
      </trkpt>
      <trkpt lat="48.21788" lon="6.67068">
        <ele>465.79998779297</ele>
        <time>2026-09-03T13:44:20.000Z</time>
      </trkpt>
      <trkpt lat="48.21788" lon="6.67067">
        <ele>465.79998779297</ele>
        <time>2026-09-03T13:44:21.000Z</time>
      </trkpt>
      <trkpt lat="48.21788" lon="6.67066">
        <ele>465.79998779297</ele>
        <time>2026-09-03T13:44:22.000Z</time>
      </trkpt>
      <trkpt lat="48.21789" lon="6.67064">
        <ele>465.59997558594</ele>
        <time>2026-09-03T13:44:23.000Z</time>
      </trkpt>
      <trkpt lat="48.21789" lon="6.67062">
        <ele>465.59997558594</ele>
        <time>2026-09-03T13:44:24.000Z</time>
      </trkpt>
      <trkpt lat="48.2179" lon="6.6706">
        <ele>465.59997558594</ele>
        <time>2026-09-03T13:44:25.000Z</time>
      </trkpt>
      <trkpt lat="48.21791" lon="6.67059">
        <ele>465.59997558594</ele>
        <time>2026-09-03T13:44:26.000Z</time>
      </trkpt>
      <trkpt lat="48.21791" lon="6.67057">
        <ele>465.40002441406</ele>
        <time>2026-09-03T13:44:27.000Z</time>
      </trkpt>
      <trkpt lat="48.21792" lon="6.67056">
        <ele>465.40002441406</ele>
        <time>2026-09-03T13:44:28.000Z</time>
      </trkpt>
      <trkpt lat="48.21792" lon="6.67055">
        <ele>465.40002441406</ele>
        <time>2026-09-03T13:44:29.000Z</time>
      </trkpt>
      <trkpt lat="48.21792" lon="6.67053">
        <ele>465.40002441406</ele>
        <time>2026-09-03T13:44:30.000Z</time>
      </trkpt>
      <trkpt lat="48.21792" lon="6.67052">
        <ele>465.59997558594</ele>
        <time>2026-09-03T13:44:31.000Z</time>
      </trkpt>
      <trkpt lat="48.21793" lon="6.6705">
        <ele>465.59997558594</ele>
        <time>2026-09-03T13:44:32.000Z</time>
      </trkpt>
      <trkpt lat="48.21793" lon="6.67048">
        <ele>465.59997558594</ele>
        <time>2026-09-03T13:44:33.000Z</time>
      </trkpt>
      <trkpt lat="48.21793" lon="6.67047">
        <ele>465.59997558594</ele>
        <time>2026-09-03T13:44:34.000Z</time>
      </trkpt>
      <trkpt lat="48.21793" lon="6.67046">
        <ele>465.40002441406</ele>
        <time>2026-09-03T13:44:35.000Z</time>
      </trkpt>
      <trkpt lat="48.21794" lon="6.67044">
        <ele>465.40002441406</ele>
        <time>2026-09-03T13:44:36.000Z</time>
      </trkpt>
      <trkpt lat="48.21794" lon="6.67043">
        <ele>465.40002441406</ele>
        <time>2026-09-03T13:44:37.000Z</time>
      </trkpt>
      <trkpt lat="48.21794" lon="6.67041">
        <ele>465.59997558594</ele>
        <time>2026-09-03T13:44:38.000Z</time>
      </trkpt>
      <trkpt lat="48.21795" lon="6.67039">
        <ele>465.79998779297</ele>
        <time>2026-09-03T13:44:39.000Z</time>
      </trkpt>
      <trkpt lat="48.21795" lon="6.67037">
        <ele>466</ele>
        <time>2026-09-03T13:44:40.000Z</time>
      </trkpt>
      <trkpt lat="48.21795" lon="6.67036">
        <ele>466</ele>
        <time>2026-09-03T13:44:41.000Z</time>
      </trkpt>
      <trkpt lat="48.21796" lon="6.67035">
        <ele>466</ele>
        <time>2026-09-03T13:44:42.000Z</time>
      </trkpt>
      <trkpt lat="48.21796" lon="6.67034">
        <ele>466</ele>
        <time>2026-09-03T13:44:43.000Z</time>
      </trkpt>
      <trkpt lat="48.21797" lon="6.67032">
        <ele>466</ele>
        <time>2026-09-03T13:44:44.000Z</time>
      </trkpt>
      <trkpt lat="48.21797" lon="6.6703">
        <ele>466</ele>
        <time>2026-09-03T13:44:45.000Z</time>
      </trkpt>
      <trkpt lat="48.21798" lon="6.67028">
        <ele>466</ele>
        <time>2026-09-03T13:44:46.000Z</time>
      </trkpt>
      <trkpt lat="48.21798" lon="6.67026">
        <ele>466</ele>
        <time>2026-09-03T13:44:47.000Z</time>
      </trkpt>
      <trkpt lat="48.21799" lon="6.67025">
        <ele>466</ele>
        <time>2026-09-03T13:44:48.000Z</time>
      </trkpt>
      <trkpt lat="48.21799" lon="6.67025">
        <ele>465.79998779297</ele>
        <time>2026-09-03T13:44:49.000Z</time>
      </trkpt>
      <trkpt lat="48.218" lon="6.67024">
        <ele>465.79998779297</ele>
        <time>2026-09-03T13:44:50.000Z</time>
      </trkpt>
      <trkpt lat="48.218" lon="6.67022">
        <ele>465.79998779297</ele>
        <time>2026-09-03T13:44:51.000Z</time>
      </trkpt>
      <trkpt lat="48.21801" lon="6.67021">
        <ele>466</ele>
        <time>2026-09-03T13:44:52.000Z</time>
      </trkpt>
      <trkpt lat="48.21801" lon="6.67019">
        <ele>466</ele>
        <time>2026-09-03T13:44:53.000Z</time>
      </trkpt>
      <trkpt lat="48.21802" lon="6.67017">
        <ele>466</ele>
        <time>2026-09-03T13:44:54.000Z</time>
      </trkpt>
      <trkpt lat="48.21802" lon="6.67016">
        <ele>466</ele>
        <time>2026-09-03T13:44:55.000Z</time>
      </trkpt>
      <trkpt lat="48.21803" lon="6.67015">
        <ele>466</ele>
        <time>2026-09-03T13:44:56.000Z</time>
      </trkpt>
      <trkpt lat="48.21803" lon="6.67013">
        <ele>465.79998779297</ele>
        <time>2026-09-03T13:44:57.000Z</time>
      </trkpt>
      <trkpt lat="48.21803" lon="6.67012">
        <ele>465.79998779297</ele>
        <time>2026-09-03T13:44:58.000Z</time>
      </trkpt>
      <trkpt lat="48.21804" lon="6.6701">
        <ele>465.79998779297</ele>
        <time>2026-09-03T13:44:59.000Z</time>
      </trkpt>
      <trkpt lat="48.21805" lon="6.67008">
        <ele>465.79998779297</ele>
        <time>2026-09-03T13:45:00.000Z</time>
      </trkpt>
      <trkpt lat="48.21805" lon="6.67007">
        <ele>466</ele>
        <time>2026-09-03T13:45:01.000Z</time>
      </trkpt>
      <trkpt lat="48.21806" lon="6.67005">
        <ele>466</ele>
        <time>2026-09-03T13:45:02.000Z</time>
      </trkpt>
      <trkpt lat="48.21807" lon="6.67003">
        <ele>466</ele>
        <time>2026-09-03T13:45:03.000Z</time>
      </trkpt>
      <trkpt lat="48.21807" lon="6.67002">
        <ele>466</ele>
        <time>2026-09-03T13:45:04.000Z</time>
      </trkpt>
      <trkpt lat="48.21808" lon="6.67">
        <ele>466</ele>
        <time>2026-09-03T13:45:05.000Z</time>
      </trkpt>
      <trkpt lat="48.21809" lon="6.66999">
        <ele>466</ele>
        <time>2026-09-03T13:45:06.000Z</time>
      </trkpt>
      <trkpt lat="48.21809" lon="6.66997">
        <ele>466</ele>
        <time>2026-09-03T13:45:07.000Z</time>
      </trkpt>
      <trkpt lat="48.2181" lon="6.66995">
        <ele>465.79998779297</ele>
        <time>2026-09-03T13:45:08.000Z</time>
      </trkpt>
      <trkpt lat="48.21811" lon="6.66993">
        <ele>465.59997558594</ele>
        <time>2026-09-03T13:45:09.000Z</time>
      </trkpt>
      <trkpt lat="48.21811" lon="6.66991">
        <ele>465.59997558594</ele>
        <time>2026-09-03T13:45:10.000Z</time>
      </trkpt>
      <trkpt lat="48.21812" lon="6.66989">
        <ele>465.59997558594</ele>
        <time>2026-09-03T13:45:11.000Z</time>
      </trkpt>
      <trkpt lat="48.21812" lon="6.66988">
        <ele>465.59997558594</ele>
        <time>2026-09-03T13:45:12.000Z</time>
      </trkpt>
      <trkpt lat="48.21813" lon="6.66987">
        <ele>465.59997558594</ele>
        <time>2026-09-03T13:45:13.000Z</time>
      </trkpt>
      <trkpt lat="48.21814" lon="6.66985">
        <ele>465.59997558594</ele>
        <time>2026-09-03T13:45:14.000Z</time>
      </trkpt>
      <trkpt lat="48.21814" lon="6.66984">
        <ele>465.40002441406</ele>
        <time>2026-09-03T13:45:15.000Z</time>
      </trkpt>
      <trkpt lat="48.21815" lon="6.66982">
        <ele>465.40002441406</ele>
        <time>2026-09-03T13:45:16.000Z</time>
      </trkpt>
      <trkpt lat="48.21815" lon="6.66981">
        <ele>465.40002441406</ele>
        <time>2026-09-03T13:45:17.000Z</time>
      </trkpt>
      <trkpt lat="48.21816" lon="6.66979">
        <ele>465.40002441406</ele>
        <time>2026-09-03T13:45:18.000Z</time>
      </trkpt>
      <trkpt lat="48.21816" lon="6.66977">
        <ele>465.40002441406</ele>
        <time>2026-09-03T13:45:19.000Z</time>
      </trkpt>
      <trkpt lat="48.21817" lon="6.66975">
        <ele>465.40002441406</ele>
        <time>2026-09-03T13:45:20.000Z</time>
      </trkpt>
      <trkpt lat="48.21818" lon="6.66974">
        <ele>465.20001220703</ele>
        <time>2026-09-03T13:45:21.000Z</time>
      </trkpt>
      <trkpt lat="48.21818" lon="6.66973">
        <ele>465.20001220703</ele>
        <time>2026-09-03T13:45:22.000Z</time>
      </trkpt>
      <trkpt lat="48.21819" lon="6.66971">
        <ele>465.20001220703</ele>
        <time>2026-09-03T13:45:23.000Z</time>
      </trkpt>
      <trkpt lat="48.21819" lon="6.66969">
        <ele>465.20001220703</ele>
        <time>2026-09-03T13:45:24.000Z</time>
      </trkpt>
      <trkpt lat="48.2182" lon="6.66968">
        <ele>465</ele>
        <time>2026-09-03T13:45:25.000Z</time>
      </trkpt>
      <trkpt lat="48.2182" lon="6.66966">
        <ele>465</ele>
        <time>2026-09-03T13:45:26.000Z</time>
      </trkpt>
      <trkpt lat="48.2182" lon="6.66965">
        <ele>464.79998779297</ele>
        <time>2026-09-03T13:45:27.000Z</time>
      </trkpt>
      <trkpt lat="48.21821" lon="6.66963">
        <ele>464.59997558594</ele>
        <time>2026-09-03T13:45:28.000Z</time>
      </trkpt>
      <trkpt lat="48.21822" lon="6.66961">
        <ele>464.59997558594</ele>
        <time>2026-09-03T13:45:29.000Z</time>
      </trkpt>
      <trkpt lat="48.21823" lon="6.6696">
        <ele>464.59997558594</ele>
        <time>2026-09-03T13:45:30.000Z</time>
      </trkpt>
      <trkpt lat="48.21824" lon="6.66958">
        <ele>464.79998779297</ele>
        <time>2026-09-03T13:45:31.000Z</time>
      </trkpt>
      <trkpt lat="48.21824" lon="6.66957">
        <ele>464.79998779297</ele>
        <time>2026-09-03T13:45:32.000Z</time>
      </trkpt>
      <trkpt lat="48.21825" lon="6.66956">
        <ele>464.79998779297</ele>
        <time>2026-09-03T13:45:33.000Z</time>
      </trkpt>
      <trkpt lat="48.21825" lon="6.66955">
        <ele>464.59997558594</ele>
        <time>2026-09-03T13:45:34.000Z</time>
      </trkpt>
      <trkpt lat="48.21825" lon="6.66954">
        <ele>464.59997558594</ele>
        <time>2026-09-03T13:45:35.000Z</time>
      </trkpt>
      <trkpt lat="48.21826" lon="6.66952">
        <ele>464.59997558594</ele>
        <time>2026-09-03T13:45:36.000Z</time>
      </trkpt>
      <trkpt lat="48.21827" lon="6.6695">
        <ele>464.59997558594</ele>
        <time>2026-09-03T13:45:37.000Z</time>
      </trkpt>
      <trkpt lat="48.21828" lon="6.66949">
        <ele>464.59997558594</ele>
        <time>2026-09-03T13:45:38.000Z</time>
      </trkpt>
      <trkpt lat="48.21828" lon="6.66947">
        <ele>464.79998779297</ele>
        <time>2026-09-03T13:45:39.000Z</time>
      </trkpt>
      <trkpt lat="48.21829" lon="6.66946">
        <ele>464.79998779297</ele>
        <time>2026-09-03T13:45:40.000Z</time>
      </trkpt>
      <trkpt lat="48.2183" lon="6.66944">
        <ele>464.79998779297</ele>
        <time>2026-09-03T13:45:41.000Z</time>
      </trkpt>
      <trkpt lat="48.21831" lon="6.66943">
        <ele>464.59997558594</ele>
        <time>2026-09-03T13:45:42.000Z</time>
      </trkpt>
      <trkpt lat="48.21832" lon="6.66942">
        <ele>464.59997558594</ele>
        <time>2026-09-03T13:45:43.000Z</time>
      </trkpt>
      <trkpt lat="48.21832" lon="6.6694">
        <ele>464.59997558594</ele>
        <time>2026-09-03T13:45:44.000Z</time>
      </trkpt>
      <trkpt lat="48.21833" lon="6.66939">
        <ele>464.59997558594</ele>
        <time>2026-09-03T13:45:45.000Z</time>
      </trkpt>
      <trkpt lat="48.21833" lon="6.66938">
        <ele>464.59997558594</ele>
        <time>2026-09-03T13:45:46.000Z</time>
      </trkpt>
      <trkpt lat="48.21834" lon="6.66936">
        <ele>464.59997558594</ele>
        <time>2026-09-03T13:45:47.000Z</time>
      </trkpt>
      <trkpt lat="48.21834" lon="6.66934">
        <ele>464.59997558594</ele>
        <time>2026-09-03T13:45:48.000Z</time>
      </trkpt>
      <trkpt lat="48.21834" lon="6.66933">
        <ele>464.59997558594</ele>
        <time>2026-09-03T13:45:49.000Z</time>
      </trkpt>
      <trkpt lat="48.21835" lon="6.66932">
        <ele>464.59997558594</ele>
        <time>2026-09-03T13:45:50.000Z</time>
      </trkpt>
      <trkpt lat="48.21835" lon="6.66931">
        <ele>464.59997558594</ele>
        <time>2026-09-03T13:45:51.000Z</time>
      </trkpt>
      <trkpt lat="48.21836" lon="6.66929">
        <ele>464.59997558594</ele>
        <time>2026-09-03T13:45:52.000Z</time>
      </trkpt>
      <trkpt lat="48.21836" lon="6.66927">
        <ele>464.59997558594</ele>
        <time>2026-09-03T13:45:53.000Z</time>
      </trkpt>
      <trkpt lat="48.21837" lon="6.66926">
        <ele>464.59997558594</ele>
        <time>2026-09-03T13:45:54.000Z</time>
      </trkpt>
      <trkpt lat="48.21837" lon="6.66925">
        <ele>464.59997558594</ele>
        <time>2026-09-03T13:45:55.000Z</time>
      </trkpt>
      <trkpt lat="48.21837" lon="6.66924">
        <ele>464.59997558594</ele>
        <time>2026-09-03T13:45:56.000Z</time>
      </trkpt>
      <trkpt lat="48.21837" lon="6.66923">
        <ele>464.40002441406</ele>
        <time>2026-09-03T13:45:57.000Z</time>
      </trkpt>
      <trkpt lat="48.21838" lon="6.66921">
        <ele>464.40002441406</ele>
        <time>2026-09-03T13:45:58.000Z</time>
      </trkpt>
      <trkpt lat="48.21839" lon="6.6692">
        <ele>464.40002441406</ele>
        <time>2026-09-03T13:45:59.000Z</time>
      </trkpt>
      <trkpt lat="48.2184" lon="6.66917">
        <ele>464.40002441406</ele>
        <time>2026-09-03T13:46:00.000Z</time>
      </trkpt>
      <trkpt lat="48.2184" lon="6.66916">
        <ele>464.40002441406</ele>
        <time>2026-09-03T13:46:01.000Z</time>
      </trkpt>
      <trkpt lat="48.2184" lon="6.66914">
        <ele>464.40002441406</ele>
        <time>2026-09-03T13:46:02.000Z</time>
      </trkpt>
      <trkpt lat="48.2184" lon="6.66913">
        <ele>464.20001220703</ele>
        <time>2026-09-03T13:46:03.000Z</time>
      </trkpt>
      <trkpt lat="48.21841" lon="6.6691">
        <ele>463.79998779297</ele>
        <time>2026-09-03T13:46:04.000Z</time>
      </trkpt>
      <trkpt lat="48.21842" lon="6.66909">
        <ele>463.59997558594</ele>
        <time>2026-09-03T13:46:05.000Z</time>
      </trkpt>
      <trkpt lat="48.21842" lon="6.66907">
        <ele>463.40002441406</ele>
        <time>2026-09-03T13:46:06.000Z</time>
      </trkpt>
      <trkpt lat="48.21843" lon="6.66906">
        <ele>463.40002441406</ele>
        <time>2026-09-03T13:46:07.000Z</time>
      </trkpt>
      <trkpt lat="48.21843" lon="6.66904">
        <ele>463.59997558594</ele>
        <time>2026-09-03T13:46:08.000Z</time>
      </trkpt>
      <trkpt lat="48.21843" lon="6.66902">
        <ele>463.79998779297</ele>
        <time>2026-09-03T13:46:09.000Z</time>
      </trkpt>
      <trkpt lat="48.21844" lon="6.669">
        <ele>464</ele>
        <time>2026-09-03T13:46:10.000Z</time>
      </trkpt>
      <trkpt lat="48.21845" lon="6.66899">
        <ele>464</ele>
        <time>2026-09-03T13:46:11.000Z</time>
      </trkpt>
      <trkpt lat="48.21845" lon="6.66897">
        <ele>464</ele>
        <time>2026-09-03T13:46:12.000Z</time>
      </trkpt>
      <trkpt lat="48.21846" lon="6.66895">
        <ele>464</ele>
        <time>2026-09-03T13:46:13.000Z</time>
      </trkpt>
      <trkpt lat="48.21846" lon="6.66894">
        <ele>463.79998779297</ele>
        <time>2026-09-03T13:46:14.000Z</time>
      </trkpt>
      <trkpt lat="48.21846" lon="6.66893">
        <ele>463.59997558594</ele>
        <time>2026-09-03T13:46:15.000Z</time>
      </trkpt>
      <trkpt lat="48.21846" lon="6.66892">
        <ele>463.40002441406</ele>
        <time>2026-09-03T13:46:16.000Z</time>
      </trkpt>
      <trkpt lat="48.21847" lon="6.66892">
        <ele>463.40002441406</ele>
        <time>2026-09-03T13:46:17.000Z</time>
      </trkpt>
      <trkpt lat="48.21847" lon="6.66889">
        <ele>463.20001220703</ele>
        <time>2026-09-03T13:46:18.000Z</time>
      </trkpt>
      <trkpt lat="48.21847" lon="6.66888">
        <ele>463</ele>
        <time>2026-09-03T13:46:19.000Z</time>
      </trkpt>
      <trkpt lat="48.21848" lon="6.66885">
        <ele>463</ele>
        <time>2026-09-03T13:46:20.000Z</time>
      </trkpt>
      <trkpt lat="48.21849" lon="6.66884">
        <ele>463</ele>
        <time>2026-09-03T13:46:21.000Z</time>
      </trkpt>
      <trkpt lat="48.21849" lon="6.66882">
        <ele>463</ele>
        <time>2026-09-03T13:46:22.000Z</time>
      </trkpt>
      <trkpt lat="48.2185" lon="6.66882">
        <ele>463</ele>
        <time>2026-09-03T13:46:23.000Z</time>
      </trkpt>
      <trkpt lat="48.21851" lon="6.66881">
        <ele>463.20001220703</ele>
        <time>2026-09-03T13:46:24.000Z</time>
      </trkpt>
      <trkpt lat="48.21851" lon="6.6688">
        <ele>463.20001220703</ele>
        <time>2026-09-03T13:46:25.000Z</time>
      </trkpt>
      <trkpt lat="48.21852" lon="6.66878">
        <ele>463</ele>
        <time>2026-09-03T13:46:26.000Z</time>
      </trkpt>
      <trkpt lat="48.21852" lon="6.66877">
        <ele>462.79998779297</ele>
        <time>2026-09-03T13:46:27.000Z</time>
      </trkpt>
      <trkpt lat="48.21853" lon="6.66875">
        <ele>462.79998779297</ele>
        <time>2026-09-03T13:46:28.000Z</time>
      </trkpt>
      <trkpt lat="48.21853" lon="6.66872">
        <ele>462.59997558594</ele>
        <time>2026-09-03T13:46:29.000Z</time>
      </trkpt>
      <trkpt lat="48.21854" lon="6.66871">
        <ele>462.59997558594</ele>
        <time>2026-09-03T13:46:30.000Z</time>
      </trkpt>
      <trkpt lat="48.21855" lon="6.66868">
        <ele>462.40002441406</ele>
        <time>2026-09-03T13:46:31.000Z</time>
      </trkpt>
      <trkpt lat="48.21856" lon="6.66865">
        <ele>462.40002441406</ele>
        <time>2026-09-03T13:46:32.000Z</time>
      </trkpt>
      <trkpt lat="48.21856" lon="6.66863">
        <ele>462.40002441406</ele>
        <time>2026-09-03T13:46:33.000Z</time>
      </trkpt>
      <trkpt lat="48.21856" lon="6.66861">
        <ele>462.40002441406</ele>
        <time>2026-09-03T13:46:34.000Z</time>
      </trkpt>
      <trkpt lat="48.21857" lon="6.66859">
        <ele>462.40002441406</ele>
        <time>2026-09-03T13:46:35.000Z</time>
      </trkpt>
      <trkpt lat="48.21858" lon="6.66858">
        <ele>462.20001220703</ele>
        <time>2026-09-03T13:46:36.000Z</time>
      </trkpt>
      <trkpt lat="48.21858" lon="6.66857">
        <ele>462</ele>
        <time>2026-09-03T13:46:37.000Z</time>
      </trkpt>
      <trkpt lat="48.21859" lon="6.66855">
        <ele>461.79998779297</ele>
        <time>2026-09-03T13:46:38.000Z</time>
      </trkpt>
      <trkpt lat="48.21859" lon="6.66855">
        <ele>461.40002441406</ele>
        <time>2026-09-03T13:46:39.000Z</time>
      </trkpt>
      <trkpt lat="48.2186" lon="6.66853">
        <ele>461.20001220703</ele>
        <time>2026-09-03T13:46:40.000Z</time>
      </trkpt>
      <trkpt lat="48.2186" lon="6.66852">
        <ele>461.20001220703</ele>
        <time>2026-09-03T13:46:41.000Z</time>
      </trkpt>
      <trkpt lat="48.21861" lon="6.6685">
        <ele>461.40002441406</ele>
        <time>2026-09-03T13:46:42.000Z</time>
      </trkpt>
      <trkpt lat="48.21861" lon="6.66848">
        <ele>461.40002441406</ele>
        <time>2026-09-03T13:46:43.000Z</time>
      </trkpt>
      <trkpt lat="48.21861" lon="6.66847">
        <ele>461.59997558594</ele>
        <time>2026-09-03T13:46:44.000Z</time>
      </trkpt>
      <trkpt lat="48.21862" lon="6.66846">
        <ele>461.59997558594</ele>
        <time>2026-09-03T13:46:45.000Z</time>
      </trkpt>
      <trkpt lat="48.21862" lon="6.66845">
        <ele>461.59997558594</ele>
        <time>2026-09-03T13:46:46.000Z</time>
      </trkpt>
      <trkpt lat="48.21863" lon="6.66843">
        <ele>461.59997558594</ele>
        <time>2026-09-03T13:46:47.000Z</time>
      </trkpt>
      <trkpt lat="48.21864" lon="6.66842">
        <ele>461.59997558594</ele>
        <time>2026-09-03T13:46:48.000Z</time>
      </trkpt>
      <trkpt lat="48.21864" lon="6.6684">
        <ele>461.40002441406</ele>
        <time>2026-09-03T13:46:49.000Z</time>
      </trkpt>
      <trkpt lat="48.21865" lon="6.66839">
        <ele>461.40002441406</ele>
        <time>2026-09-03T13:46:50.000Z</time>
      </trkpt>
      <trkpt lat="48.21865" lon="6.66837">
        <ele>461.40002441406</ele>
        <time>2026-09-03T13:46:51.000Z</time>
      </trkpt>
      <trkpt lat="48.21866" lon="6.66836">
        <ele>461.20001220703</ele>
        <time>2026-09-03T13:46:52.000Z</time>
      </trkpt>
      <trkpt lat="48.21866" lon="6.66835">
        <ele>461.20001220703</ele>
        <time>2026-09-03T13:46:53.000Z</time>
      </trkpt>
      <trkpt lat="48.21867" lon="6.66834">
        <ele>461.20001220703</ele>
        <time>2026-09-03T13:46:54.000Z</time>
      </trkpt>
      <trkpt lat="48.21867" lon="6.66833">
        <ele>461.20001220703</ele>
        <time>2026-09-03T13:46:55.000Z</time>
      </trkpt>
      <trkpt lat="48.21868" lon="6.66831">
        <ele>461.20001220703</ele>
        <time>2026-09-03T13:46:56.000Z</time>
      </trkpt>
      <trkpt lat="48.21869" lon="6.66829">
        <ele>461.20001220703</ele>
        <time>2026-09-03T13:46:57.000Z</time>
      </trkpt>
      <trkpt lat="48.2187" lon="6.66828">
        <ele>461</ele>
        <time>2026-09-03T13:46:58.000Z</time>
      </trkpt>
      <trkpt lat="48.2187" lon="6.66825">
        <ele>460.79998779297</ele>
        <time>2026-09-03T13:46:59.000Z</time>
      </trkpt>
      <trkpt lat="48.2187" lon="6.66824">
        <ele>460.59997558594</ele>
        <time>2026-09-03T13:47:00.000Z</time>
      </trkpt>
      <trkpt lat="48.21871" lon="6.66822">
        <ele>460.59997558594</ele>
        <time>2026-09-03T13:47:01.000Z</time>
      </trkpt>
      <trkpt lat="48.21872" lon="6.66821">
        <ele>460.59997558594</ele>
        <time>2026-09-03T13:47:02.000Z</time>
      </trkpt>
      <trkpt lat="48.21872" lon="6.6682">
        <ele>460.59997558594</ele>
        <time>2026-09-03T13:47:03.000Z</time>
      </trkpt>
      <trkpt lat="48.21872" lon="6.66819">
        <ele>460.59997558594</ele>
        <time>2026-09-03T13:47:04.000Z</time>
      </trkpt>
      <trkpt lat="48.21873" lon="6.66818">
        <ele>460.59997558594</ele>
        <time>2026-09-03T13:47:05.000Z</time>
      </trkpt>
      <trkpt lat="48.21873" lon="6.66817">
        <ele>460.59997558594</ele>
        <time>2026-09-03T13:47:06.000Z</time>
      </trkpt>
      <trkpt lat="48.21874" lon="6.66816">
        <ele>460.40002441406</ele>
        <time>2026-09-03T13:47:07.000Z</time>
      </trkpt>
      <trkpt lat="48.21875" lon="6.66815">
        <ele>460.40002441406</ele>
        <time>2026-09-03T13:47:08.000Z</time>
      </trkpt>
      <trkpt lat="48.21876" lon="6.66814">
        <ele>460.40002441406</ele>
        <time>2026-09-03T13:47:09.000Z</time>
      </trkpt>
      <trkpt lat="48.21875" lon="6.66813">
        <ele>460.20001220703</ele>
        <time>2026-09-03T13:47:10.000Z</time>
      </trkpt>
      <trkpt lat="48.21876" lon="6.66811">
        <ele>460</ele>
        <time>2026-09-03T13:47:11.000Z</time>
      </trkpt>
      <trkpt lat="48.21877" lon="6.6681">
        <ele>459.79998779297</ele>
        <time>2026-09-03T13:47:12.000Z</time>
      </trkpt>
      <trkpt lat="48.21877" lon="6.66809">
        <ele>459.79998779297</ele>
        <time>2026-09-03T13:47:13.000Z</time>
      </trkpt>
      <trkpt lat="48.21878" lon="6.66807">
        <ele>459.79998779297</ele>
        <time>2026-09-03T13:47:14.000Z</time>
      </trkpt>
      <trkpt lat="48.21879" lon="6.66805">
        <ele>459.79998779297</ele>
        <time>2026-09-03T13:47:15.000Z</time>
      </trkpt>
      <trkpt lat="48.2188" lon="6.66804">
        <ele>459.79998779297</ele>
        <time>2026-09-03T13:47:16.000Z</time>
      </trkpt>
      <trkpt lat="48.2188" lon="6.66802">
        <ele>459.59997558594</ele>
        <time>2026-09-03T13:47:17.000Z</time>
      </trkpt>
      <trkpt lat="48.21881" lon="6.66801">
        <ele>459.59997558594</ele>
        <time>2026-09-03T13:47:18.000Z</time>
      </trkpt>
      <trkpt lat="48.21882" lon="6.668">
        <ele>459.40002441406</ele>
        <time>2026-09-03T13:47:19.000Z</time>
      </trkpt>
      <trkpt lat="48.21883" lon="6.66798">
        <ele>459.40002441406</ele>
        <time>2026-09-03T13:47:20.000Z</time>
      </trkpt>
      <trkpt lat="48.21883" lon="6.66797">
        <ele>459.20001220703</ele>
        <time>2026-09-03T13:47:21.000Z</time>
      </trkpt>
      <trkpt lat="48.21884" lon="6.66795">
        <ele>459.20001220703</ele>
        <time>2026-09-03T13:47:22.000Z</time>
      </trkpt>
      <trkpt lat="48.21885" lon="6.66794">
        <ele>459.20001220703</ele>
        <time>2026-09-03T13:47:23.000Z</time>
      </trkpt>
      <trkpt lat="48.21885" lon="6.66792">
        <ele>459.20001220703</ele>
        <time>2026-09-03T13:47:24.000Z</time>
      </trkpt>
      <trkpt lat="48.21886" lon="6.66791">
        <ele>459.20001220703</ele>
        <time>2026-09-03T13:47:25.000Z</time>
      </trkpt>
      <trkpt lat="48.21886" lon="6.6679">
        <ele>459</ele>
        <time>2026-09-03T13:47:26.000Z</time>
      </trkpt>
      <trkpt lat="48.21887" lon="6.66789">
        <ele>459</ele>
        <time>2026-09-03T13:47:27.000Z</time>
      </trkpt>
      <trkpt lat="48.21888" lon="6.66787">
        <ele>458.79998779297</ele>
        <time>2026-09-03T13:47:28.000Z</time>
      </trkpt>
      <trkpt lat="48.21888" lon="6.66785">
        <ele>458.79998779297</ele>
        <time>2026-09-03T13:47:29.000Z</time>
      </trkpt>
      <trkpt lat="48.21889" lon="6.66783">
        <ele>458.79998779297</ele>
        <time>2026-09-03T13:47:30.000Z</time>
      </trkpt>
      <trkpt lat="48.2189" lon="6.66781">
        <ele>458.59997558594</ele>
        <time>2026-09-03T13:47:31.000Z</time>
      </trkpt>
      <trkpt lat="48.21891" lon="6.6678">
        <ele>458.59997558594</ele>
        <time>2026-09-03T13:47:32.000Z</time>
      </trkpt>
      <trkpt lat="48.21891" lon="6.66778">
        <ele>458.59997558594</ele>
        <time>2026-09-03T13:47:33.000Z</time>
      </trkpt>
      <trkpt lat="48.21891" lon="6.66777">
        <ele>458.59997558594</ele>
        <time>2026-09-03T13:47:34.000Z</time>
      </trkpt>
      <trkpt lat="48.21891" lon="6.66776">
        <ele>458.40002441406</ele>
        <time>2026-09-03T13:47:35.000Z</time>
      </trkpt>
      <trkpt lat="48.21892" lon="6.66774">
        <ele>458.40002441406</ele>
        <time>2026-09-03T13:47:36.000Z</time>
      </trkpt>
      <trkpt lat="48.21893" lon="6.66774">
        <ele>458.20001220703</ele>
        <time>2026-09-03T13:47:37.000Z</time>
      </trkpt>
      <trkpt lat="48.21894" lon="6.66772">
        <ele>458.20001220703</ele>
        <time>2026-09-03T13:47:38.000Z</time>
      </trkpt>
      <trkpt lat="48.21895" lon="6.66771">
        <ele>458.20001220703</ele>
        <time>2026-09-03T13:47:39.000Z</time>
      </trkpt>
      <trkpt lat="48.21896" lon="6.66769">
        <ele>458</ele>
        <time>2026-09-03T13:47:40.000Z</time>
      </trkpt>
      <trkpt lat="48.21897" lon="6.66769">
        <ele>457.79998779297</ele>
        <time>2026-09-03T13:47:41.000Z</time>
      </trkpt>
      <trkpt lat="48.21898" lon="6.66767">
        <ele>457.40002441406</ele>
        <time>2026-09-03T13:47:42.000Z</time>
      </trkpt>
      <trkpt lat="48.21899" lon="6.66766">
        <ele>457.20001220703</ele>
        <time>2026-09-03T13:47:43.000Z</time>
      </trkpt>
      <trkpt lat="48.219" lon="6.66765">
        <ele>457</ele>
        <time>2026-09-03T13:47:44.000Z</time>
      </trkpt>
      <trkpt lat="48.219" lon="6.66764">
        <ele>457</ele>
        <time>2026-09-03T13:47:45.000Z</time>
      </trkpt>
      <trkpt lat="48.21901" lon="6.66763">
        <ele>457</ele>
        <time>2026-09-03T13:47:46.000Z</time>
      </trkpt>
      <trkpt lat="48.21902" lon="6.66762">
        <ele>457.20001220703</ele>
        <time>2026-09-03T13:47:47.000Z</time>
      </trkpt>
      <trkpt lat="48.21902" lon="6.6676">
        <ele>457.20001220703</ele>
        <time>2026-09-03T13:47:48.000Z</time>
      </trkpt>
      <trkpt lat="48.21903" lon="6.66759">
        <ele>457.20001220703</ele>
        <time>2026-09-03T13:47:49.000Z</time>
      </trkpt>
      <trkpt lat="48.21904" lon="6.66757">
        <ele>457.20001220703</ele>
        <time>2026-09-03T13:47:50.000Z</time>
      </trkpt>
      <trkpt lat="48.21905" lon="6.66757">
        <ele>457</ele>
        <time>2026-09-03T13:47:51.000Z</time>
      </trkpt>
      <trkpt lat="48.21906" lon="6.66755">
        <ele>457</ele>
        <time>2026-09-03T13:47:52.000Z</time>
      </trkpt>
      <trkpt lat="48.21906" lon="6.66753">
        <ele>457</ele>
        <time>2026-09-03T13:47:53.000Z</time>
      </trkpt>
      <trkpt lat="48.21907" lon="6.66752">
        <ele>456.79998779297</ele>
        <time>2026-09-03T13:47:54.000Z</time>
      </trkpt>
      <trkpt lat="48.21908" lon="6.66751">
        <ele>457</ele>
        <time>2026-09-03T13:47:55.000Z</time>
      </trkpt>
      <trkpt lat="48.21909" lon="6.6675">
        <ele>457</ele>
        <time>2026-09-03T13:47:56.000Z</time>
      </trkpt>
      <trkpt lat="48.21909" lon="6.66749">
        <ele>457</ele>
        <time>2026-09-03T13:47:57.000Z</time>
      </trkpt>
      <trkpt lat="48.2191" lon="6.66747">
        <ele>457</ele>
        <time>2026-09-03T13:47:58.000Z</time>
      </trkpt>
      <trkpt lat="48.21911" lon="6.66747">
        <ele>457</ele>
        <time>2026-09-03T13:47:59.000Z</time>
      </trkpt>
      <trkpt lat="48.21911" lon="6.66746">
        <ele>456.79998779297</ele>
        <time>2026-09-03T13:48:00.000Z</time>
      </trkpt>
      <trkpt lat="48.21912" lon="6.66746">
        <ele>456.79998779297</ele>
        <time>2026-09-03T13:48:01.000Z</time>
      </trkpt>
      <trkpt lat="48.21913" lon="6.66745">
        <ele>456.59997558594</ele>
        <time>2026-09-03T13:48:02.000Z</time>
      </trkpt>
      <trkpt lat="48.21914" lon="6.66744">
        <ele>456.59997558594</ele>
        <time>2026-09-03T13:48:03.000Z</time>
      </trkpt>
      <trkpt lat="48.21915" lon="6.66743">
        <ele>456.40002441406</ele>
        <time>2026-09-03T13:48:04.000Z</time>
      </trkpt>
      <trkpt lat="48.21915" lon="6.66742">
        <ele>456.40002441406</ele>
        <time>2026-09-03T13:48:05.000Z</time>
      </trkpt>
      <trkpt lat="48.21915" lon="6.66743">
        <ele>456.40002441406</ele>
        <time>2026-09-03T13:48:06.000Z</time>
      </trkpt>
      <trkpt lat="48.21915" lon="6.66744">
        <ele>456.40002441406</ele>
        <time>2026-09-03T13:48:07.000Z</time>
      </trkpt>
      <trkpt lat="48.21916" lon="6.66745">
        <ele>456.20001220703</ele>
        <time>2026-09-03T13:48:08.000Z</time>
      </trkpt>
      <trkpt lat="48.21916" lon="6.66746">
        <ele>456.20001220703</ele>
        <time>2026-09-03T13:48:09.000Z</time>
      </trkpt>
      <trkpt lat="48.21915" lon="6.66746">
        <ele>456</ele>
        <time>2026-09-03T13:48:10.000Z</time>
      </trkpt>
      <trkpt lat="48.21915" lon="6.66746">
        <ele>455.79998779297</ele>
        <time>2026-09-03T13:48:11.000Z</time>
      </trkpt>
      <trkpt lat="48.21915" lon="6.66746">
        <ele>455.79998779297</ele>
        <time>2026-09-03T13:48:12.000Z</time>
      </trkpt>
      <trkpt lat="48.21915" lon="6.66746">
        <ele>455.79998779297</ele>
        <time>2026-09-03T13:48:13.000Z</time>
      </trkpt>
      <trkpt lat="48.21915" lon="6.66746">
        <ele>455.79998779297</ele>
        <time>2026-09-03T13:48:14.000Z</time>
      </trkpt>
      <trkpt lat="48.21915" lon="6.66747">
        <ele>456</ele>
        <time>2026-09-03T13:48:15.000Z</time>
      </trkpt>
      <trkpt lat="48.21915" lon="6.66748">
        <ele>456</ele>
        <time>2026-09-03T13:48:16.000Z</time>
      </trkpt>
      <trkpt lat="48.21916" lon="6.66747">
        <ele>455.79998779297</ele>
        <time>2026-09-03T13:48:17.000Z</time>
      </trkpt>
      <trkpt lat="48.21915" lon="6.66748">
        <ele>455.79998779297</ele>
        <time>2026-09-03T13:48:18.000Z</time>
      </trkpt>
      <trkpt lat="48.21915" lon="6.66749">
        <ele>455.59997558594</ele>
        <time>2026-09-03T13:48:19.000Z</time>
      </trkpt>
      <trkpt lat="48.21915" lon="6.66749">
        <ele>455.40002441406</ele>
        <time>2026-09-03T13:48:20.000Z</time>
      </trkpt>
      <trkpt lat="48.21915" lon="6.66749">
        <ele>455.40002441406</ele>
        <time>2026-09-03T13:48:21.000Z</time>
      </trkpt>
      <trkpt lat="48.21915" lon="6.66749">
        <ele>455.59997558594</ele>
        <time>2026-09-03T13:48:22.000Z</time>
      </trkpt>
      <trkpt lat="48.21915" lon="6.66749">
        <ele>455.59997558594</ele>
        <time>2026-09-03T13:48:23.000Z</time>
      </trkpt>
      <trkpt lat="48.21915" lon="6.66749">
        <ele>455.59997558594</ele>
        <time>2026-09-03T13:48:24.000Z</time>
      </trkpt>
      <trkpt lat="48.21915" lon="6.66749">
        <ele>455.59997558594</ele>
        <time>2026-09-03T13:48:25.000Z</time>
      </trkpt>
      <trkpt lat="48.21915" lon="6.66749">
        <ele>455.59997558594</ele>
        <time>2026-09-03T13:48:26.000Z</time>
      </trkpt>
      <trkpt lat="48.21915" lon="6.66749">
        <ele>455.40002441406</ele>
        <time>2026-09-03T13:48:27.000Z</time>
      </trkpt>
      <trkpt lat="48.21915" lon="6.66749">
        <ele>455.40002441406</ele>
        <time>2026-09-03T13:48:28.000Z</time>
      </trkpt>
      <trkpt lat="48.21915" lon="6.66749">
        <ele>455.40002441406</ele>
        <time>2026-09-03T13:48:29.000Z</time>
      </trkpt>
      <trkpt lat="48.21915" lon="6.66749">
        <ele>455.40002441406</ele>
        <time>2026-09-03T13:48:30.000Z</time>
      </trkpt>
      <trkpt lat="48.21915" lon="6.66749">
        <ele>455.40002441406</ele>
        <time>2026-09-03T13:48:31.000Z</time>
      </trkpt>
      <trkpt lat="48.21915" lon="6.66749">
        <ele>455.40002441406</ele>
        <time>2026-09-03T13:48:32.000Z</time>
      </trkpt>
      <trkpt lat="48.21915" lon="6.66749">
        <ele>455.40002441406</ele>
        <time>2026-09-03T13:48:33.000Z</time>
      </trkpt>
      <trkpt lat="48.21915" lon="6.66749">
        <ele>455.40002441406</ele>
        <time>2026-09-03T13:48:34.000Z</time>
      </trkpt>
      <trkpt lat="48.21915" lon="6.66749">
        <ele>455.40002441406</ele>
        <time>2026-09-03T13:48:35.000Z</time>
      </trkpt>
      <trkpt lat="48.21915" lon="6.66749">
        <ele>455.40002441406</ele>
        <time>2026-09-03T13:48:36.000Z</time>
      </trkpt>
      <trkpt lat="48.21915" lon="6.66749">
        <ele>455.40002441406</ele>
        <time>2026-09-03T13:48:37.000Z</time>
      </trkpt>
      <trkpt lat="48.21915" lon="6.66749">
        <ele>455.40002441406</ele>
        <time>2026-09-03T13:48:38.000Z</time>
      </trkpt>
      <trkpt lat="48.21915" lon="6.66749">
        <ele>455.40002441406</ele>
        <time>2026-09-03T13:48:39.000Z</time>
      </trkpt>
      <trkpt lat="48.21915" lon="6.66749">
        <ele>455.40002441406</ele>
        <time>2026-09-03T13:48:40.000Z</time>
      </trkpt>
      <trkpt lat="48.21915" lon="6.66749">
        <ele>455.40002441406</ele>
        <time>2026-09-03T13:48:41.000Z</time>
      </trkpt>
      <trkpt lat="48.21915" lon="6.66749">
        <ele>455.20001220703</ele>
        <time>2026-09-03T13:48:42.000Z</time>
      </trkpt>
      <trkpt lat="48.21915" lon="6.66749">
        <ele>455.20001220703</ele>
        <time>2026-09-03T13:48:43.000Z</time>
      </trkpt>
      <trkpt lat="48.21915" lon="6.66749">
        <ele>455.20001220703</ele>
        <time>2026-09-03T13:48:44.000Z</time>
      </trkpt>
      <trkpt lat="48.21915" lon="6.66749">
        <ele>455.20001220703</ele>
        <time>2026-09-03T13:48:45.000Z</time>
      </trkpt>
      <trkpt lat="48.21915" lon="6.66749">
        <ele>455.20001220703</ele>
        <time>2026-09-03T13:48:46.000Z</time>
      </trkpt>
      <trkpt lat="48.21915" lon="6.66748">
        <ele>455.40002441406</ele>
        <time>2026-09-03T13:48:47.000Z</time>
      </trkpt>
      <trkpt lat="48.21916" lon="6.66747">
        <ele>455.40002441406</ele>
        <time>2026-09-03T13:48:48.000Z</time>
      </trkpt>
      <trkpt lat="48.21915" lon="6.66748">
        <ele>455.40002441406</ele>
        <time>2026-09-03T13:48:49.000Z</time>
      </trkpt>
      <trkpt lat="48.21915" lon="6.66748">
        <ele>455.40002441406</ele>
        <time>2026-09-03T13:48:50.000Z</time>
      </trkpt>
      <trkpt lat="48.21915" lon="6.66748">
        <ele>455.40002441406</ele>
        <time>2026-09-03T13:48:51.000Z</time>
      </trkpt>
      <trkpt lat="48.21915" lon="6.66748">
        <ele>455.40002441406</ele>
        <time>2026-09-03T13:48:52.000Z</time>
      </trkpt>
      <trkpt lat="48.21915" lon="6.66748">
        <ele>455.40002441406</ele>
        <time>2026-09-03T13:48:53.000Z</time>
      </trkpt>
      <trkpt lat="48.21916" lon="6.66748">
        <ele>455.40002441406</ele>
        <time>2026-09-03T13:48:54.000Z</time>
      </trkpt>
      <trkpt lat="48.21916" lon="6.66747">
        <ele>455.40002441406</ele>
        <time>2026-09-03T13:48:55.000Z</time>
      </trkpt>
      <trkpt lat="48.21916" lon="6.66749">
        <ele>455.59997558594</ele>
        <time>2026-09-03T13:48:56.000Z</time>
      </trkpt>
      <trkpt lat="48.21915" lon="6.6675">
        <ele>455.40002441406</ele>
        <time>2026-09-03T13:48:57.000Z</time>
      </trkpt>
      <trkpt lat="48.21915" lon="6.6675">
        <ele>455.40002441406</ele>
        <time>2026-09-03T13:48:58.000Z</time>
      </trkpt>
      <trkpt lat="48.21915" lon="6.6675">
        <ele>455.40002441406</ele>
        <time>2026-09-03T13:48:59.000Z</time>
      </trkpt>
      <trkpt lat="48.21913" lon="6.66752">
        <ele>455.40002441406</ele>
        <time>2026-09-03T13:49:00.000Z</time>
      </trkpt>
      <trkpt lat="48.21912" lon="6.66752">
        <ele>455.59997558594</ele>
        <time>2026-09-03T13:49:01.000Z</time>
      </trkpt>
      <trkpt lat="48.21911" lon="6.66752">
        <ele>455.59997558594</ele>
        <time>2026-09-03T13:49:02.000Z</time>
      </trkpt>
      <trkpt lat="48.2191" lon="6.66752">
        <ele>455.40002441406</ele>
        <time>2026-09-03T13:49:03.000Z</time>
      </trkpt>
      <trkpt lat="48.2191" lon="6.66752">
        <ele>455.40002441406</ele>
        <time>2026-09-03T13:49:04.000Z</time>
      </trkpt>
      <trkpt lat="48.21909" lon="6.66752">
        <ele>455.20001220703</ele>
        <time>2026-09-03T13:49:05.000Z</time>
      </trkpt>
      <trkpt lat="48.21909" lon="6.66752">
        <ele>455.20001220703</ele>
        <time>2026-09-03T13:49:06.000Z</time>
      </trkpt>
      <trkpt lat="48.21908" lon="6.66752">
        <ele>455.20001220703</ele>
        <time>2026-09-03T13:49:07.000Z</time>
      </trkpt>
      <trkpt lat="48.21908" lon="6.66753">
        <ele>455.20001220703</ele>
        <time>2026-09-03T13:49:08.000Z</time>
      </trkpt>
      <trkpt lat="48.21908" lon="6.66752">
        <ele>455.40002441406</ele>
        <time>2026-09-03T13:49:09.000Z</time>
      </trkpt>
      <trkpt lat="48.21907" lon="6.66753">
        <ele>455.40002441406</ele>
        <time>2026-09-03T13:49:10.000Z</time>
      </trkpt>
      <trkpt lat="48.21906" lon="6.66752">
        <ele>455.59997558594</ele>
        <time>2026-09-03T13:49:11.000Z</time>
      </trkpt>
      <trkpt lat="48.21905" lon="6.66752">
        <ele>455.79998779297</ele>
        <time>2026-09-03T13:49:12.000Z</time>
      </trkpt>
      <trkpt lat="48.21905" lon="6.6675">
        <ele>456.20001220703</ele>
        <time>2026-09-03T13:49:13.000Z</time>
      </trkpt>
      <trkpt lat="48.21904" lon="6.6675">
        <ele>456.40002441406</ele>
        <time>2026-09-03T13:49:14.000Z</time>
      </trkpt>
      <trkpt lat="48.21904" lon="6.66748">
        <ele>456.59997558594</ele>
        <time>2026-09-03T13:49:15.000Z</time>
      </trkpt>
      <trkpt lat="48.21904" lon="6.66748">
        <ele>456.79998779297</ele>
        <time>2026-09-03T13:49:16.000Z</time>
      </trkpt>
      <trkpt lat="48.21904" lon="6.66748">
        <ele>456.79998779297</ele>
        <time>2026-09-03T13:49:17.000Z</time>
      </trkpt>
      <trkpt lat="48.21903" lon="6.66748">
        <ele>456.79998779297</ele>
        <time>2026-09-03T13:49:18.000Z</time>
      </trkpt>
      <trkpt lat="48.21904" lon="6.66748">
        <ele>456.79998779297</ele>
        <time>2026-09-03T13:49:19.000Z</time>
      </trkpt>
      <trkpt lat="48.21904" lon="6.66748">
        <ele>456.79998779297</ele>
        <time>2026-09-03T13:49:20.000Z</time>
      </trkpt>
      <trkpt lat="48.21904" lon="6.66748">
        <ele>456.79998779297</ele>
        <time>2026-09-03T13:49:21.000Z</time>
      </trkpt>
      <trkpt lat="48.21904" lon="6.66748">
        <ele>456.79998779297</ele>
        <time>2026-09-03T13:49:22.000Z</time>
      </trkpt>
      <trkpt lat="48.21904" lon="6.66748">
        <ele>456.79998779297</ele>
        <time>2026-09-03T13:49:23.000Z</time>
      </trkpt>
      <trkpt lat="48.21904" lon="6.66748">
        <ele>456.79998779297</ele>
        <time>2026-09-03T13:49:24.000Z</time>
      </trkpt>
      <trkpt lat="48.21904" lon="6.66748">
        <ele>456.79998779297</ele>
        <time>2026-09-03T13:49:25.000Z</time>
      </trkpt>
      <trkpt lat="48.21904" lon="6.66748">
        <ele>456.79998779297</ele>
        <time>2026-09-03T13:49:26.000Z</time>
      </trkpt>
      <trkpt lat="48.21904" lon="6.66748">
        <ele>456.79998779297</ele>
        <time>2026-09-03T13:49:27.000Z</time>
      </trkpt>
      <trkpt lat="48.21904" lon="6.66748">
        <ele>456.79998779297</ele>
        <time>2026-09-03T13:49:28.000Z</time>
      </trkpt>
      <trkpt lat="48.21904" lon="6.66748">
        <ele>456.79998779297</ele>
        <time>2026-09-03T13:49:29.000Z</time>
      </trkpt>
      <trkpt lat="48.21904" lon="6.66748">
        <ele>457</ele>
        <time>2026-09-03T13:49:30.000Z</time>
      </trkpt>
      <trkpt lat="48.21904" lon="6.66748">
        <ele>457.20001220703</ele>
        <time>2026-09-03T13:49:31.000Z</time>
      </trkpt>
      <trkpt lat="48.21904" lon="6.66748">
        <ele>457.20001220703</ele>
        <time>2026-09-03T13:49:32.000Z</time>
      </trkpt>
      <trkpt lat="48.21904" lon="6.66748">
        <ele>457.20001220703</ele>
        <time>2026-09-03T13:49:33.000Z</time>
      </trkpt>
      <trkpt lat="48.21904" lon="6.66748">
        <ele>457.40002441406</ele>
        <time>2026-09-03T13:49:34.000Z</time>
      </trkpt>
      <trkpt lat="48.21904" lon="6.66748">
        <ele>457.40002441406</ele>
        <time>2026-09-03T13:49:35.000Z</time>
      </trkpt>
      <trkpt lat="48.21904" lon="6.66748">
        <ele>457.40002441406</ele>
        <time>2026-09-03T13:49:36.000Z</time>
      </trkpt>
      <trkpt lat="48.21904" lon="6.66748">
        <ele>457.40002441406</ele>
        <time>2026-09-03T13:49:37.000Z</time>
      </trkpt>
      <trkpt lat="48.21904" lon="6.66748">
        <ele>457.59997558594</ele>
        <time>2026-09-03T13:49:38.000Z</time>
      </trkpt>
      <trkpt lat="48.21904" lon="6.66748">
        <ele>457.59997558594</ele>
        <time>2026-09-03T13:49:39.000Z</time>
      </trkpt>
      <trkpt lat="48.21904" lon="6.66748">
        <ele>457.59997558594</ele>
        <time>2026-09-03T13:49:40.000Z</time>
      </trkpt>
      <trkpt lat="48.21904" lon="6.66748">
        <ele>457.40002441406</ele>
        <time>2026-09-03T13:49:41.000Z</time>
      </trkpt>
      <trkpt lat="48.21904" lon="6.66748">
        <ele>457.40002441406</ele>
        <time>2026-09-03T13:49:42.000Z</time>
      </trkpt>
      <trkpt lat="48.21904" lon="6.66748">
        <ele>457.40002441406</ele>
        <time>2026-09-03T13:49:43.000Z</time>
      </trkpt>
      <trkpt lat="48.21904" lon="6.66748">
        <ele>457.20001220703</ele>
        <time>2026-09-03T13:49:44.000Z</time>
      </trkpt>
      <trkpt lat="48.21904" lon="6.66748">
        <ele>457.20001220703</ele>
        <time>2026-09-03T13:49:45.000Z</time>
      </trkpt>
      <trkpt lat="48.21904" lon="6.66748">
        <ele>457</ele>
        <time>2026-09-03T13:49:46.000Z</time>
      </trkpt>
      <trkpt lat="48.21904" lon="6.66748">
        <ele>457</ele>
        <time>2026-09-03T13:49:47.000Z</time>
      </trkpt>
      <trkpt lat="48.21904" lon="6.66748">
        <ele>457</ele>
        <time>2026-09-03T13:49:48.000Z</time>
      </trkpt>
      <trkpt lat="48.21904" lon="6.66748">
        <ele>457</ele>
        <time>2026-09-03T13:49:49.000Z</time>
      </trkpt>
      <trkpt lat="48.21904" lon="6.66748">
        <ele>457.20001220703</ele>
        <time>2026-09-03T13:49:50.000Z</time>
      </trkpt>
      <trkpt lat="48.21904" lon="6.66748">
        <ele>457.20001220703</ele>
        <time>2026-09-03T13:49:51.000Z</time>
      </trkpt>
      <trkpt lat="48.21904" lon="6.66748">
        <ele>457</ele>
        <time>2026-09-03T13:49:52.000Z</time>
      </trkpt>
      <trkpt lat="48.21904" lon="6.66748">
        <ele>457</ele>
        <time>2026-09-03T13:49:53.000Z</time>
      </trkpt>
      <trkpt lat="48.21904" lon="6.66748">
        <ele>457</ele>
        <time>2026-09-03T13:49:54.000Z</time>
      </trkpt>
      <trkpt lat="48.21904" lon="6.66748">
        <ele>457.20001220703</ele>
        <time>2026-09-03T13:49:55.000Z</time>
      </trkpt>
      <trkpt lat="48.21904" lon="6.66748">
        <ele>457.20001220703</ele>
        <time>2026-09-03T13:49:56.000Z</time>
      </trkpt>
      <trkpt lat="48.21904" lon="6.66748">
        <ele>457.40002441406</ele>
        <time>2026-09-03T13:49:57.000Z</time>
      </trkpt>
      <trkpt lat="48.21904" lon="6.66748">
        <ele>457.40002441406</ele>
        <time>2026-09-03T13:49:58.000Z</time>
      </trkpt>
      <trkpt lat="48.21904" lon="6.66748">
        <ele>457.40002441406</ele>
        <time>2026-09-03T13:49:59.000Z</time>
      </trkpt>
      <trkpt lat="48.21904" lon="6.66748">
        <ele>457.40002441406</ele>
        <time>2026-09-03T13:50:00.000Z</time>
      </trkpt>
      <trkpt lat="48.21904" lon="6.66748">
        <ele>457.40002441406</ele>
        <time>2026-09-03T13:50:01.000Z</time>
      </trkpt>
      <trkpt lat="48.21904" lon="6.66748">
        <ele>457.40002441406</ele>
        <time>2026-09-03T13:50:02.000Z</time>
      </trkpt>
      <trkpt lat="48.21904" lon="6.66748">
        <ele>457.40002441406</ele>
        <time>2026-09-03T13:50:03.000Z</time>
      </trkpt>
      <trkpt lat="48.21904" lon="6.66748">
        <ele>457.40002441406</ele>
        <time>2026-09-03T13:50:04.000Z</time>
      </trkpt>
      <trkpt lat="48.21904" lon="6.66748">
        <ele>457.20001220703</ele>
        <time>2026-09-03T13:50:05.000Z</time>
      </trkpt>
      <trkpt lat="48.21904" lon="6.66748">
        <ele>457.20001220703</ele>
        <time>2026-09-03T13:50:06.000Z</time>
      </trkpt>
      <trkpt lat="48.21904" lon="6.66748">
        <ele>457</ele>
        <time>2026-09-03T13:50:07.000Z</time>
      </trkpt>
      <trkpt lat="48.21904" lon="6.66748">
        <ele>457</ele>
        <time>2026-09-03T13:50:08.000Z</time>
      </trkpt>
      <trkpt lat="48.21904" lon="6.66748">
        <ele>457</ele>
        <time>2026-09-03T13:50:09.000Z</time>
      </trkpt>
      <trkpt lat="48.21904" lon="6.66748">
        <ele>457</ele>
        <time>2026-09-03T13:50:10.000Z</time>
      </trkpt>
      <trkpt lat="48.21905" lon="6.66748">
        <ele>457</ele>
        <time>2026-09-03T13:50:11.000Z</time>
      </trkpt>
      <trkpt lat="48.21905" lon="6.66748">
        <ele>457</ele>
        <time>2026-09-03T13:50:12.000Z</time>
      </trkpt>
      <trkpt lat="48.21906" lon="6.66748">
        <ele>457</ele>
        <time>2026-09-03T13:50:13.000Z</time>
      </trkpt>
      <trkpt lat="48.21906" lon="6.66748">
        <ele>457</ele>
        <time>2026-09-03T13:50:14.000Z</time>
      </trkpt>
      <trkpt lat="48.21907" lon="6.66748">
        <ele>457</ele>
        <time>2026-09-03T13:50:15.000Z</time>
      </trkpt>
      <trkpt lat="48.21909" lon="6.66747">
        <ele>457</ele>
        <time>2026-09-03T13:50:16.000Z</time>
      </trkpt>
      <trkpt lat="48.2191" lon="6.66747">
        <ele>457</ele>
        <time>2026-09-03T13:50:17.000Z</time>
      </trkpt>
      <trkpt lat="48.21911" lon="6.66746">
        <ele>457</ele>
        <time>2026-09-03T13:50:18.000Z</time>
      </trkpt>
      <trkpt lat="48.21913" lon="6.66746">
        <ele>456.79998779297</ele>
        <time>2026-09-03T13:50:19.000Z</time>
      </trkpt>
      <trkpt lat="48.21914" lon="6.66746">
        <ele>456.79998779297</ele>
        <time>2026-09-03T13:50:20.000Z</time>
      </trkpt>
      <trkpt lat="48.21915" lon="6.66745">
        <ele>456.59997558594</ele>
        <time>2026-09-03T13:50:21.000Z</time>
      </trkpt>
      <trkpt lat="48.21915" lon="6.66744">
        <ele>456.59997558594</ele>
        <time>2026-09-03T13:50:22.000Z</time>
      </trkpt>
      <trkpt lat="48.21916" lon="6.66743">
        <ele>456.59997558594</ele>
        <time>2026-09-03T13:50:23.000Z</time>
      </trkpt>
      <trkpt lat="48.21916" lon="6.66742">
        <ele>456.59997558594</ele>
        <time>2026-09-03T13:50:24.000Z</time>
      </trkpt>
      <trkpt lat="48.21917" lon="6.6674">
        <ele>456.59997558594</ele>
        <time>2026-09-03T13:50:25.000Z</time>
      </trkpt>
      <trkpt lat="48.21918" lon="6.66739">
        <ele>456.40002441406</ele>
        <time>2026-09-03T13:50:26.000Z</time>
      </trkpt>
      <trkpt lat="48.21919" lon="6.66737">
        <ele>456.20001220703</ele>
        <time>2026-09-03T13:50:27.000Z</time>
      </trkpt>
      <trkpt lat="48.21919" lon="6.66736">
        <ele>456</ele>
        <time>2026-09-03T13:50:28.000Z</time>
      </trkpt>
      <trkpt lat="48.2192" lon="6.66734">
        <ele>455.79998779297</ele>
        <time>2026-09-03T13:50:29.000Z</time>
      </trkpt>
      <trkpt lat="48.21921" lon="6.66733">
        <ele>455.59997558594</ele>
        <time>2026-09-03T13:50:30.000Z</time>
      </trkpt>
      <trkpt lat="48.21921" lon="6.66731">
        <ele>455.59997558594</ele>
        <time>2026-09-03T13:50:31.000Z</time>
      </trkpt>
      <trkpt lat="48.21922" lon="6.66731">
        <ele>455.59997558594</ele>
        <time>2026-09-03T13:50:32.000Z</time>
      </trkpt>
      <trkpt lat="48.21922" lon="6.6673">
        <ele>455.59997558594</ele>
        <time>2026-09-03T13:50:33.000Z</time>
      </trkpt>
      <trkpt lat="48.21923" lon="6.66729">
        <ele>455.40002441406</ele>
        <time>2026-09-03T13:50:34.000Z</time>
      </trkpt>
      <trkpt lat="48.21924" lon="6.66727">
        <ele>455.40002441406</ele>
        <time>2026-09-03T13:50:35.000Z</time>
      </trkpt>
      <trkpt lat="48.21926" lon="6.66725">
        <ele>455.40002441406</ele>
        <time>2026-09-03T13:50:36.000Z</time>
      </trkpt>
      <trkpt lat="48.21926" lon="6.66723">
        <ele>455.20001220703</ele>
        <time>2026-09-03T13:50:37.000Z</time>
      </trkpt>
      <trkpt lat="48.21927" lon="6.66721">
        <ele>455</ele>
        <time>2026-09-03T13:50:38.000Z</time>
      </trkpt>
      <trkpt lat="48.21927" lon="6.6672">
        <ele>454.79998779297</ele>
        <time>2026-09-03T13:50:39.000Z</time>
      </trkpt>
      <trkpt lat="48.21928" lon="6.66719">
        <ele>454.59997558594</ele>
        <time>2026-09-03T13:50:40.000Z</time>
      </trkpt>
      <trkpt lat="48.21929" lon="6.66718">
        <ele>454.40002441406</ele>
        <time>2026-09-03T13:50:41.000Z</time>
      </trkpt>
      <trkpt lat="48.21929" lon="6.66719">
        <ele>454.40002441406</ele>
        <time>2026-09-03T13:50:42.000Z</time>
      </trkpt>
      <trkpt lat="48.21929" lon="6.6672">
        <ele>454.20001220703</ele>
        <time>2026-09-03T13:50:43.000Z</time>
      </trkpt>
      <trkpt lat="48.21929" lon="6.6672">
        <ele>454.20001220703</ele>
        <time>2026-09-03T13:50:44.000Z</time>
      </trkpt>
      <trkpt lat="48.21929" lon="6.66721">
        <ele>454</ele>
        <time>2026-09-03T13:50:45.000Z</time>
      </trkpt>
      <trkpt lat="48.21929" lon="6.6672">
        <ele>453.79998779297</ele>
        <time>2026-09-03T13:50:46.000Z</time>
      </trkpt>
      <trkpt lat="48.21929" lon="6.6672">
        <ele>453.79998779297</ele>
        <time>2026-09-03T13:50:47.000Z</time>
      </trkpt>
      <trkpt lat="48.21929" lon="6.6672">
        <ele>453.59997558594</ele>
        <time>2026-09-03T13:50:48.000Z</time>
      </trkpt>
      <trkpt lat="48.21929" lon="6.6672">
        <ele>453.59997558594</ele>
        <time>2026-09-03T13:50:49.000Z</time>
      </trkpt>
      <trkpt lat="48.21929" lon="6.6672">
        <ele>453.59997558594</ele>
        <time>2026-09-03T13:50:50.000Z</time>
      </trkpt>
      <trkpt lat="48.21929" lon="6.6672">
        <ele>453.59997558594</ele>
        <time>2026-09-03T13:50:51.000Z</time>
      </trkpt>
      <trkpt lat="48.21929" lon="6.6672">
        <ele>453.59997558594</ele>
        <time>2026-09-03T13:50:52.000Z</time>
      </trkpt>
      <trkpt lat="48.21929" lon="6.6672">
        <ele>453.59997558594</ele>
        <time>2026-09-03T13:50:53.000Z</time>
      </trkpt>
      <trkpt lat="48.21929" lon="6.6672">
        <ele>453.59997558594</ele>
        <time>2026-09-03T13:50:54.000Z</time>
      </trkpt>
      <trkpt lat="48.21929" lon="6.6672">
        <ele>453.59997558594</ele>
        <time>2026-09-03T13:50:55.000Z</time>
      </trkpt>
      <trkpt lat="48.21929" lon="6.6672">
        <ele>453.79998779297</ele>
        <time>2026-09-03T13:50:56.000Z</time>
      </trkpt>
      <trkpt lat="48.21929" lon="6.6672">
        <ele>453.79998779297</ele>
        <time>2026-09-03T13:50:57.000Z</time>
      </trkpt>
      <trkpt lat="48.21929" lon="6.6672">
        <ele>454</ele>
        <time>2026-09-03T13:50:58.000Z</time>
      </trkpt>
      <trkpt lat="48.21929" lon="6.6672">
        <ele>454.20001220703</ele>
        <time>2026-09-03T13:50:59.000Z</time>
      </trkpt>
      <trkpt lat="48.21929" lon="6.6672">
        <ele>454.40002441406</ele>
        <time>2026-09-03T13:51:00.000Z</time>
      </trkpt>
      <trkpt lat="48.2193" lon="6.66719">
        <ele>454.59997558594</ele>
        <time>2026-09-03T13:51:01.000Z</time>
      </trkpt>
      <trkpt lat="48.2193" lon="6.66718">
        <ele>454.79998779297</ele>
        <time>2026-09-03T13:51:02.000Z</time>
      </trkpt>
      <trkpt lat="48.21931" lon="6.66717">
        <ele>454.79998779297</ele>
        <time>2026-09-03T13:51:03.000Z</time>
      </trkpt>
      <trkpt lat="48.21932" lon="6.66716">
        <ele>454.79998779297</ele>
        <time>2026-09-03T13:51:04.000Z</time>
      </trkpt>
      <trkpt lat="48.21932" lon="6.66714">
        <ele>454.79998779297</ele>
        <time>2026-09-03T13:51:05.000Z</time>
      </trkpt>
      <trkpt lat="48.21933" lon="6.66713">
        <ele>454.59997558594</ele>
        <time>2026-09-03T13:51:06.000Z</time>
      </trkpt>
      <trkpt lat="48.21934" lon="6.66711">
        <ele>454.40002441406</ele>
        <time>2026-09-03T13:51:07.000Z</time>
      </trkpt>
      <trkpt lat="48.21934" lon="6.6671">
        <ele>454.40002441406</ele>
        <time>2026-09-03T13:51:08.000Z</time>
      </trkpt>
      <trkpt lat="48.21935" lon="6.66709">
        <ele>454.40002441406</ele>
        <time>2026-09-03T13:51:09.000Z</time>
      </trkpt>
      <trkpt lat="48.21936" lon="6.66708">
        <ele>454.40002441406</ele>
        <time>2026-09-03T13:51:10.000Z</time>
      </trkpt>
      <trkpt lat="48.21937" lon="6.66708">
        <ele>454.20001220703</ele>
        <time>2026-09-03T13:51:11.000Z</time>
      </trkpt>
      <trkpt lat="48.21938" lon="6.66707">
        <ele>454.20001220703</ele>
        <time>2026-09-03T13:51:12.000Z</time>
      </trkpt>
      <trkpt lat="48.21938" lon="6.66705">
        <ele>454</ele>
        <time>2026-09-03T13:51:13.000Z</time>
      </trkpt>
      <trkpt lat="48.21939" lon="6.66705">
        <ele>454</ele>
        <time>2026-09-03T13:51:14.000Z</time>
      </trkpt>
      <trkpt lat="48.21939" lon="6.66704">
        <ele>453.79998779297</ele>
        <time>2026-09-03T13:51:15.000Z</time>
      </trkpt>
      <trkpt lat="48.2194" lon="6.66703">
        <ele>453.79998779297</ele>
        <time>2026-09-03T13:51:16.000Z</time>
      </trkpt>
      <trkpt lat="48.2194" lon="6.66703">
        <ele>453.59997558594</ele>
        <time>2026-09-03T13:51:17.000Z</time>
      </trkpt>
      <trkpt lat="48.2194" lon="6.66702">
        <ele>453.40002441406</ele>
        <time>2026-09-03T13:51:18.000Z</time>
      </trkpt>
      <trkpt lat="48.21941" lon="6.66701">
        <ele>453.20001220703</ele>
        <time>2026-09-03T13:51:19.000Z</time>
      </trkpt>
      <trkpt lat="48.21942" lon="6.667">
        <ele>453.20001220703</ele>
        <time>2026-09-03T13:51:20.000Z</time>
      </trkpt>
      <trkpt lat="48.21943" lon="6.66699">
        <ele>453</ele>
        <time>2026-09-03T13:51:21.000Z</time>
      </trkpt>
      <trkpt lat="48.21943" lon="6.66697">
        <ele>453</ele>
        <time>2026-09-03T13:51:22.000Z</time>
      </trkpt>
      <trkpt lat="48.21944" lon="6.66696">
        <ele>452.79998779297</ele>
        <time>2026-09-03T13:51:23.000Z</time>
      </trkpt>
      <trkpt lat="48.21945" lon="6.66696">
        <ele>452.79998779297</ele>
        <time>2026-09-03T13:51:24.000Z</time>
      </trkpt>
      <trkpt lat="48.21945" lon="6.66694">
        <ele>452.59997558594</ele>
        <time>2026-09-03T13:51:25.000Z</time>
      </trkpt>
      <trkpt lat="48.21946" lon="6.66693">
        <ele>452.59997558594</ele>
        <time>2026-09-03T13:51:26.000Z</time>
      </trkpt>
      <trkpt lat="48.21947" lon="6.66692">
        <ele>452.59997558594</ele>
        <time>2026-09-03T13:51:27.000Z</time>
      </trkpt>
      <trkpt lat="48.21947" lon="6.66691">
        <ele>452.40002441406</ele>
        <time>2026-09-03T13:51:28.000Z</time>
      </trkpt>
      <trkpt lat="48.21948" lon="6.6669">
        <ele>452.20001220703</ele>
        <time>2026-09-03T13:51:29.000Z</time>
      </trkpt>
      <trkpt lat="48.21949" lon="6.6669">
        <ele>452.20001220703</ele>
        <time>2026-09-03T13:51:30.000Z</time>
      </trkpt>
      <trkpt lat="48.21949" lon="6.66688">
        <ele>452</ele>
        <time>2026-09-03T13:51:31.000Z</time>
      </trkpt>
      <trkpt lat="48.2195" lon="6.66687">
        <ele>451.79998779297</ele>
        <time>2026-09-03T13:51:32.000Z</time>
      </trkpt>
      <trkpt lat="48.21951" lon="6.66686">
        <ele>451.59997558594</ele>
        <time>2026-09-03T13:51:33.000Z</time>
      </trkpt>
      <trkpt lat="48.21952" lon="6.66684">
        <ele>451.40002441406</ele>
        <time>2026-09-03T13:51:34.000Z</time>
      </trkpt>
      <trkpt lat="48.21953" lon="6.66683">
        <ele>451.40002441406</ele>
        <time>2026-09-03T13:51:35.000Z</time>
      </trkpt>
      <trkpt lat="48.21953" lon="6.66681">
        <ele>451.20001220703</ele>
        <time>2026-09-03T13:51:36.000Z</time>
      </trkpt>
      <trkpt lat="48.21954" lon="6.6668">
        <ele>451.20001220703</ele>
        <time>2026-09-03T13:51:37.000Z</time>
      </trkpt>
      <trkpt lat="48.21954" lon="6.6668">
        <ele>451.20001220703</ele>
        <time>2026-09-03T13:51:38.000Z</time>
      </trkpt>
      <trkpt lat="48.21955" lon="6.66679">
        <ele>451</ele>
        <time>2026-09-03T13:51:39.000Z</time>
      </trkpt>
      <trkpt lat="48.21956" lon="6.66678">
        <ele>451</ele>
        <time>2026-09-03T13:51:40.000Z</time>
      </trkpt>
      <trkpt lat="48.21957" lon="6.66676">
        <ele>450.79998779297</ele>
        <time>2026-09-03T13:51:41.000Z</time>
      </trkpt>
      <trkpt lat="48.21958" lon="6.66675">
        <ele>450.59997558594</ele>
        <time>2026-09-03T13:51:42.000Z</time>
      </trkpt>
      <trkpt lat="48.21959" lon="6.66673">
        <ele>450.40002441406</ele>
        <time>2026-09-03T13:51:43.000Z</time>
      </trkpt>
      <trkpt lat="48.2196" lon="6.66672">
        <ele>450.20001220703</ele>
        <time>2026-09-03T13:51:44.000Z</time>
      </trkpt>
      <trkpt lat="48.21961" lon="6.66672">
        <ele>450</ele>
        <time>2026-09-03T13:51:45.000Z</time>
      </trkpt>
      <trkpt lat="48.21961" lon="6.66671">
        <ele>449.79998779297</ele>
        <time>2026-09-03T13:51:46.000Z</time>
      </trkpt>
      <trkpt lat="48.21962" lon="6.6667">
        <ele>449.59997558594</ele>
        <time>2026-09-03T13:51:47.000Z</time>
      </trkpt>
      <trkpt lat="48.21962" lon="6.66669">
        <ele>449.40002441406</ele>
        <time>2026-09-03T13:51:48.000Z</time>
      </trkpt>
      <trkpt lat="48.21964" lon="6.66668">
        <ele>449.40002441406</ele>
        <time>2026-09-03T13:51:49.000Z</time>
      </trkpt>
      <trkpt lat="48.21965" lon="6.66667">
        <ele>449.59997558594</ele>
        <time>2026-09-03T13:51:50.000Z</time>
      </trkpt>
      <trkpt lat="48.21965" lon="6.66666">
        <ele>449.79998779297</ele>
        <time>2026-09-03T13:51:51.000Z</time>
      </trkpt>
      <trkpt lat="48.21966" lon="6.66665">
        <ele>450</ele>
        <time>2026-09-03T13:51:52.000Z</time>
      </trkpt>
      <trkpt lat="48.21967" lon="6.66664">
        <ele>450</ele>
        <time>2026-09-03T13:51:53.000Z</time>
      </trkpt>
      <trkpt lat="48.21968" lon="6.66663">
        <ele>450</ele>
        <time>2026-09-03T13:51:54.000Z</time>
      </trkpt>
      <trkpt lat="48.21969" lon="6.66662">
        <ele>449.79998779297</ele>
        <time>2026-09-03T13:51:55.000Z</time>
      </trkpt>
      <trkpt lat="48.2197" lon="6.66661">
        <ele>449.59997558594</ele>
        <time>2026-09-03T13:51:56.000Z</time>
      </trkpt>
      <trkpt lat="48.21971" lon="6.6666">
        <ele>449.40002441406</ele>
        <time>2026-09-03T13:51:57.000Z</time>
      </trkpt>
      <trkpt lat="48.21972" lon="6.66659">
        <ele>449.40002441406</ele>
        <time>2026-09-03T13:51:58.000Z</time>
      </trkpt>
      <trkpt lat="48.21973" lon="6.66658">
        <ele>449.20001220703</ele>
        <time>2026-09-03T13:51:59.000Z</time>
      </trkpt>
      <trkpt lat="48.21974" lon="6.66656">
        <ele>449.20001220703</ele>
        <time>2026-09-03T13:52:00.000Z</time>
      </trkpt>
      <trkpt lat="48.21976" lon="6.66655">
        <ele>449.20001220703</ele>
        <time>2026-09-03T13:52:01.000Z</time>
      </trkpt>
      <trkpt lat="48.21977" lon="6.66654">
        <ele>449.20001220703</ele>
        <time>2026-09-03T13:52:02.000Z</time>
      </trkpt>
      <trkpt lat="48.21978" lon="6.66653">
        <ele>449.20001220703</ele>
        <time>2026-09-03T13:52:03.000Z</time>
      </trkpt>
      <trkpt lat="48.21979" lon="6.66652">
        <ele>449.20001220703</ele>
        <time>2026-09-03T13:52:04.000Z</time>
      </trkpt>
      <trkpt lat="48.21981" lon="6.66651">
        <ele>449.20001220703</ele>
        <time>2026-09-03T13:52:05.000Z</time>
      </trkpt>
      <trkpt lat="48.21982" lon="6.66649">
        <ele>449.20001220703</ele>
        <time>2026-09-03T13:52:06.000Z</time>
      </trkpt>
      <trkpt lat="48.21983" lon="6.66649">
        <ele>449.20001220703</ele>
        <time>2026-09-03T13:52:07.000Z</time>
      </trkpt>
      <trkpt lat="48.21984" lon="6.66647">
        <ele>449</ele>
        <time>2026-09-03T13:52:08.000Z</time>
      </trkpt>
      <trkpt lat="48.21985" lon="6.66646">
        <ele>449</ele>
        <time>2026-09-03T13:52:09.000Z</time>
      </trkpt>
      <trkpt lat="48.21986" lon="6.66645">
        <ele>449</ele>
        <time>2026-09-03T13:52:10.000Z</time>
      </trkpt>
      <trkpt lat="48.21987" lon="6.66644">
        <ele>449</ele>
        <time>2026-09-03T13:52:11.000Z</time>
      </trkpt>
      <trkpt lat="48.21988" lon="6.66643">
        <ele>449</ele>
        <time>2026-09-03T13:52:12.000Z</time>
      </trkpt>
      <trkpt lat="48.2199" lon="6.66642">
        <ele>449</ele>
        <time>2026-09-03T13:52:13.000Z</time>
      </trkpt>
      <trkpt lat="48.21991" lon="6.66641">
        <ele>449</ele>
        <time>2026-09-03T13:52:14.000Z</time>
      </trkpt>
      <trkpt lat="48.21991" lon="6.6664">
        <ele>449</ele>
        <time>2026-09-03T13:52:15.000Z</time>
      </trkpt>
      <trkpt lat="48.21992" lon="6.66639">
        <ele>449</ele>
        <time>2026-09-03T13:52:16.000Z</time>
      </trkpt>
      <trkpt lat="48.21993" lon="6.66638">
        <ele>449</ele>
        <time>2026-09-03T13:52:17.000Z</time>
      </trkpt>
      <trkpt lat="48.21993" lon="6.66638">
        <ele>449</ele>
        <time>2026-09-03T13:52:18.000Z</time>
      </trkpt>
      <trkpt lat="48.21994" lon="6.66637">
        <ele>448.79998779297</ele>
        <time>2026-09-03T13:52:19.000Z</time>
      </trkpt>
      <trkpt lat="48.21996" lon="6.66636">
        <ele>448.40002441406</ele>
        <time>2026-09-03T13:52:20.000Z</time>
      </trkpt>
      <trkpt lat="48.21997" lon="6.66635">
        <ele>448.40002441406</ele>
        <time>2026-09-03T13:52:21.000Z</time>
      </trkpt>
      <trkpt lat="48.21997" lon="6.66633">
        <ele>448.40002441406</ele>
        <time>2026-09-03T13:52:22.000Z</time>
      </trkpt>
      <trkpt lat="48.21998" lon="6.66632">
        <ele>448.40002441406</ele>
        <time>2026-09-03T13:52:23.000Z</time>
      </trkpt>
      <trkpt lat="48.21999" lon="6.6663">
        <ele>448.59997558594</ele>
        <time>2026-09-03T13:52:24.000Z</time>
      </trkpt>
      <trkpt lat="48.22" lon="6.66629">
        <ele>448.59997558594</ele>
        <time>2026-09-03T13:52:25.000Z</time>
      </trkpt>
      <trkpt lat="48.22001" lon="6.66628">
        <ele>448.59997558594</ele>
        <time>2026-09-03T13:52:26.000Z</time>
      </trkpt>
      <trkpt lat="48.22001" lon="6.66627">
        <ele>448.59997558594</ele>
        <time>2026-09-03T13:52:27.000Z</time>
      </trkpt>
      <trkpt lat="48.22002" lon="6.66626">
        <ele>448.59997558594</ele>
        <time>2026-09-03T13:52:28.000Z</time>
      </trkpt>
      <trkpt lat="48.22003" lon="6.66624">
        <ele>448.59997558594</ele>
        <time>2026-09-03T13:52:29.000Z</time>
      </trkpt>
      <trkpt lat="48.22004" lon="6.66622">
        <ele>448.59997558594</ele>
        <time>2026-09-03T13:52:30.000Z</time>
      </trkpt>
      <trkpt lat="48.22005" lon="6.66621">
        <ele>448.59997558594</ele>
        <time>2026-09-03T13:52:31.000Z</time>
      </trkpt>
      <trkpt lat="48.22006" lon="6.6662">
        <ele>448.59997558594</ele>
        <time>2026-09-03T13:52:32.000Z</time>
      </trkpt>
      <trkpt lat="48.22006" lon="6.66618">
        <ele>448.59997558594</ele>
        <time>2026-09-03T13:52:33.000Z</time>
      </trkpt>
      <trkpt lat="48.22007" lon="6.66617">
        <ele>448.59997558594</ele>
        <time>2026-09-03T13:52:34.000Z</time>
      </trkpt>
      <trkpt lat="48.22008" lon="6.66615">
        <ele>448.59997558594</ele>
        <time>2026-09-03T13:52:35.000Z</time>
      </trkpt>
      <trkpt lat="48.22009" lon="6.66614">
        <ele>448.59997558594</ele>
        <time>2026-09-03T13:52:36.000Z</time>
      </trkpt>
      <trkpt lat="48.2201" lon="6.66613">
        <ele>448.59997558594</ele>
        <time>2026-09-03T13:52:37.000Z</time>
      </trkpt>
      <trkpt lat="48.22011" lon="6.66611">
        <ele>448.40002441406</ele>
        <time>2026-09-03T13:52:38.000Z</time>
      </trkpt>
      <trkpt lat="48.22011" lon="6.6661">
        <ele>448.20001220703</ele>
        <time>2026-09-03T13:52:39.000Z</time>
      </trkpt>
      <trkpt lat="48.22012" lon="6.66609">
        <ele>448</ele>
        <time>2026-09-03T13:52:40.000Z</time>
      </trkpt>
      <trkpt lat="48.22012" lon="6.66608">
        <ele>448</ele>
        <time>2026-09-03T13:52:41.000Z</time>
      </trkpt>
      <trkpt lat="48.22013" lon="6.66607">
        <ele>448</ele>
        <time>2026-09-03T13:52:42.000Z</time>
      </trkpt>
      <trkpt lat="48.22013" lon="6.66605">
        <ele>448</ele>
        <time>2026-09-03T13:52:43.000Z</time>
      </trkpt>
      <trkpt lat="48.22014" lon="6.66604">
        <ele>448.20001220703</ele>
        <time>2026-09-03T13:52:44.000Z</time>
      </trkpt>
      <trkpt lat="48.22014" lon="6.66603">
        <ele>448.20001220703</ele>
        <time>2026-09-03T13:52:45.000Z</time>
      </trkpt>
      <trkpt lat="48.22015" lon="6.66601">
        <ele>448.20001220703</ele>
        <time>2026-09-03T13:52:46.000Z</time>
      </trkpt>
      <trkpt lat="48.22016" lon="6.666">
        <ele>448.20001220703</ele>
        <time>2026-09-03T13:52:47.000Z</time>
      </trkpt>
      <trkpt lat="48.22017" lon="6.66599">
        <ele>448.20001220703</ele>
        <time>2026-09-03T13:52:48.000Z</time>
      </trkpt>
      <trkpt lat="48.22018" lon="6.66598">
        <ele>448.20001220703</ele>
        <time>2026-09-03T13:52:49.000Z</time>
      </trkpt>
      <trkpt lat="48.22018" lon="6.66596">
        <ele>448.20001220703</ele>
        <time>2026-09-03T13:52:50.000Z</time>
      </trkpt>
      <trkpt lat="48.22019" lon="6.66595">
        <ele>448.20001220703</ele>
        <time>2026-09-03T13:52:51.000Z</time>
      </trkpt>
      <trkpt lat="48.2202" lon="6.66594">
        <ele>448</ele>
        <time>2026-09-03T13:52:52.000Z</time>
      </trkpt>
      <trkpt lat="48.22021" lon="6.66593">
        <ele>447.79998779297</ele>
        <time>2026-09-03T13:52:53.000Z</time>
      </trkpt>
      <trkpt lat="48.22021" lon="6.66591">
        <ele>447.59997558594</ele>
        <time>2026-09-03T13:52:54.000Z</time>
      </trkpt>
      <trkpt lat="48.22022" lon="6.6659">
        <ele>447.40002441406</ele>
        <time>2026-09-03T13:52:55.000Z</time>
      </trkpt>
      <trkpt lat="48.22023" lon="6.66588">
        <ele>447.40002441406</ele>
        <time>2026-09-03T13:52:56.000Z</time>
      </trkpt>
      <trkpt lat="48.22023" lon="6.66587">
        <ele>447.40002441406</ele>
        <time>2026-09-03T13:52:57.000Z</time>
      </trkpt>
      <trkpt lat="48.22024" lon="6.66585">
        <ele>447.79998779297</ele>
        <time>2026-09-03T13:52:58.000Z</time>
      </trkpt>
      <trkpt lat="48.22024" lon="6.66583">
        <ele>448</ele>
        <time>2026-09-03T13:52:59.000Z</time>
      </trkpt>
      <trkpt lat="48.22025" lon="6.66581">
        <ele>448.20001220703</ele>
        <time>2026-09-03T13:53:00.000Z</time>
      </trkpt>
      <trkpt lat="48.22026" lon="6.66579">
        <ele>448.20001220703</ele>
        <time>2026-09-03T13:53:01.000Z</time>
      </trkpt>
      <trkpt lat="48.22027" lon="6.66578">
        <ele>448.20001220703</ele>
        <time>2026-09-03T13:53:02.000Z</time>
      </trkpt>
      <trkpt lat="48.22027" lon="6.66576">
        <ele>448.20001220703</ele>
        <time>2026-09-03T13:53:03.000Z</time>
      </trkpt>
      <trkpt lat="48.22027" lon="6.66575">
        <ele>448</ele>
        <time>2026-09-03T13:53:04.000Z</time>
      </trkpt>
      <trkpt lat="48.22028" lon="6.66573">
        <ele>448</ele>
        <time>2026-09-03T13:53:05.000Z</time>
      </trkpt>
      <trkpt lat="48.22029" lon="6.66571">
        <ele>448</ele>
        <time>2026-09-03T13:53:06.000Z</time>
      </trkpt>
      <trkpt lat="48.2203" lon="6.6657">
        <ele>448</ele>
        <time>2026-09-03T13:53:07.000Z</time>
      </trkpt>
      <trkpt lat="48.22031" lon="6.66568">
        <ele>448</ele>
        <time>2026-09-03T13:53:08.000Z</time>
      </trkpt>
      <trkpt lat="48.22032" lon="6.66566">
        <ele>448</ele>
        <time>2026-09-03T13:53:09.000Z</time>
      </trkpt>
      <trkpt lat="48.22033" lon="6.66564">
        <ele>448</ele>
        <time>2026-09-03T13:53:10.000Z</time>
      </trkpt>
      <trkpt lat="48.22034" lon="6.66563">
        <ele>447.79998779297</ele>
        <time>2026-09-03T13:53:11.000Z</time>
      </trkpt>
      <trkpt lat="48.22034" lon="6.66562">
        <ele>447.40002441406</ele>
        <time>2026-09-03T13:53:12.000Z</time>
      </trkpt>
      <trkpt lat="48.22035" lon="6.66561">
        <ele>447</ele>
        <time>2026-09-03T13:53:13.000Z</time>
      </trkpt>
      <trkpt lat="48.22035" lon="6.66559">
        <ele>446.79998779297</ele>
        <time>2026-09-03T13:53:14.000Z</time>
      </trkpt>
      <trkpt lat="48.22036" lon="6.66558">
        <ele>446.40002441406</ele>
        <time>2026-09-03T13:53:15.000Z</time>
      </trkpt>
      <trkpt lat="48.22037" lon="6.66557">
        <ele>446.20001220703</ele>
        <time>2026-09-03T13:53:16.000Z</time>
      </trkpt>
      <trkpt lat="48.22038" lon="6.66555">
        <ele>446.20001220703</ele>
        <time>2026-09-03T13:53:17.000Z</time>
      </trkpt>
      <trkpt lat="48.22038" lon="6.66554">
        <ele>446.20001220703</ele>
        <time>2026-09-03T13:53:18.000Z</time>
      </trkpt>
      <trkpt lat="48.22039" lon="6.66553">
        <ele>446.20001220703</ele>
        <time>2026-09-03T13:53:19.000Z</time>
      </trkpt>
      <trkpt lat="48.22039" lon="6.66551">
        <ele>446.40002441406</ele>
        <time>2026-09-03T13:53:20.000Z</time>
      </trkpt>
      <trkpt lat="48.2204" lon="6.6655">
        <ele>446.59997558594</ele>
        <time>2026-09-03T13:53:21.000Z</time>
      </trkpt>
      <trkpt lat="48.22041" lon="6.66548">
        <ele>446.79998779297</ele>
        <time>2026-09-03T13:53:22.000Z</time>
      </trkpt>
      <trkpt lat="48.22042" lon="6.66547">
        <ele>446.79998779297</ele>
        <time>2026-09-03T13:53:23.000Z</time>
      </trkpt>
      <trkpt lat="48.22043" lon="6.66545">
        <ele>446.79998779297</ele>
        <time>2026-09-03T13:53:24.000Z</time>
      </trkpt>
      <trkpt lat="48.22044" lon="6.66543">
        <ele>446.79998779297</ele>
        <time>2026-09-03T13:53:25.000Z</time>
      </trkpt>
      <trkpt lat="48.22044" lon="6.66542">
        <ele>446.79998779297</ele>
        <time>2026-09-03T13:53:26.000Z</time>
      </trkpt>
      <trkpt lat="48.22045" lon="6.66541">
        <ele>446.59997558594</ele>
        <time>2026-09-03T13:53:27.000Z</time>
      </trkpt>
      <trkpt lat="48.22045" lon="6.66539">
        <ele>446.40002441406</ele>
        <time>2026-09-03T13:53:28.000Z</time>
      </trkpt>
      <trkpt lat="48.22046" lon="6.66539">
        <ele>446.20001220703</ele>
        <time>2026-09-03T13:53:29.000Z</time>
      </trkpt>
      <trkpt lat="48.22047" lon="6.66537">
        <ele>446</ele>
        <time>2026-09-03T13:53:30.000Z</time>
      </trkpt>
      <trkpt lat="48.22047" lon="6.66536">
        <ele>445.79998779297</ele>
        <time>2026-09-03T13:53:31.000Z</time>
      </trkpt>
      <trkpt lat="48.22048" lon="6.66534">
        <ele>445.79998779297</ele>
        <time>2026-09-03T13:53:32.000Z</time>
      </trkpt>
      <trkpt lat="48.22049" lon="6.66532">
        <ele>445.79998779297</ele>
        <time>2026-09-03T13:53:33.000Z</time>
      </trkpt>
      <trkpt lat="48.2205" lon="6.6653">
        <ele>445.79998779297</ele>
        <time>2026-09-03T13:53:34.000Z</time>
      </trkpt>
      <trkpt lat="48.22051" lon="6.66529">
        <ele>446</ele>
        <time>2026-09-03T13:53:35.000Z</time>
      </trkpt>
      <trkpt lat="48.22051" lon="6.66527">
        <ele>446</ele>
        <time>2026-09-03T13:53:36.000Z</time>
      </trkpt>
      <trkpt lat="48.22051" lon="6.66526">
        <ele>446</ele>
        <time>2026-09-03T13:53:37.000Z</time>
      </trkpt>
      <trkpt lat="48.22052" lon="6.66525">
        <ele>446</ele>
        <time>2026-09-03T13:53:38.000Z</time>
      </trkpt>
      <trkpt lat="48.22053" lon="6.66523">
        <ele>446</ele>
        <time>2026-09-03T13:53:39.000Z</time>
      </trkpt>
      <trkpt lat="48.22053" lon="6.66521">
        <ele>445.79998779297</ele>
        <time>2026-09-03T13:53:40.000Z</time>
      </trkpt>
      <trkpt lat="48.22054" lon="6.66519">
        <ele>445.59997558594</ele>
        <time>2026-09-03T13:53:41.000Z</time>
      </trkpt>
      <trkpt lat="48.22055" lon="6.66518">
        <ele>445.59997558594</ele>
        <time>2026-09-03T13:53:42.000Z</time>
      </trkpt>
      <trkpt lat="48.22055" lon="6.66516">
        <ele>445.40002441406</ele>
        <time>2026-09-03T13:53:43.000Z</time>
      </trkpt>
      <trkpt lat="48.22056" lon="6.66515">
        <ele>445.40002441406</ele>
        <time>2026-09-03T13:53:44.000Z</time>
      </trkpt>
      <trkpt lat="48.22056" lon="6.66513">
        <ele>445.40002441406</ele>
        <time>2026-09-03T13:53:45.000Z</time>
      </trkpt>
      <trkpt lat="48.22057" lon="6.66512">
        <ele>445.20001220703</ele>
        <time>2026-09-03T13:53:46.000Z</time>
      </trkpt>
      <trkpt lat="48.22058" lon="6.66511">
        <ele>445</ele>
        <time>2026-09-03T13:53:47.000Z</time>
      </trkpt>
      <trkpt lat="48.22059" lon="6.6651">
        <ele>445</ele>
        <time>2026-09-03T13:53:48.000Z</time>
      </trkpt>
      <trkpt lat="48.22059" lon="6.66508">
        <ele>445</ele>
        <time>2026-09-03T13:53:49.000Z</time>
      </trkpt>
      <trkpt lat="48.22061" lon="6.66506">
        <ele>444.79998779297</ele>
        <time>2026-09-03T13:53:50.000Z</time>
      </trkpt>
      <trkpt lat="48.22061" lon="6.66505">
        <ele>444.79998779297</ele>
        <time>2026-09-03T13:53:51.000Z</time>
      </trkpt>
      <trkpt lat="48.22062" lon="6.66503">
        <ele>444.59997558594</ele>
        <time>2026-09-03T13:53:52.000Z</time>
      </trkpt>
      <trkpt lat="48.22063" lon="6.66503">
        <ele>444.59997558594</ele>
        <time>2026-09-03T13:53:53.000Z</time>
      </trkpt>
      <trkpt lat="48.22063" lon="6.66501">
        <ele>444.59997558594</ele>
        <time>2026-09-03T13:53:54.000Z</time>
      </trkpt>
      <trkpt lat="48.22063" lon="6.665">
        <ele>444.40002441406</ele>
        <time>2026-09-03T13:53:55.000Z</time>
      </trkpt>
      <trkpt lat="48.22064" lon="6.66498">
        <ele>444.40002441406</ele>
        <time>2026-09-03T13:53:56.000Z</time>
      </trkpt>
      <trkpt lat="48.22065" lon="6.66497">
        <ele>444.40002441406</ele>
        <time>2026-09-03T13:53:57.000Z</time>
      </trkpt>
      <trkpt lat="48.22066" lon="6.66495">
        <ele>444.20001220703</ele>
        <time>2026-09-03T13:53:58.000Z</time>
      </trkpt>
      <trkpt lat="48.22065" lon="6.66492">
        <ele>444.20001220703</ele>
        <time>2026-09-03T13:53:59.000Z</time>
      </trkpt>
      <trkpt lat="48.22066" lon="6.66491">
        <ele>444</ele>
        <time>2026-09-03T13:54:00.000Z</time>
      </trkpt>
      <trkpt lat="48.22066" lon="6.66489">
        <ele>443.79998779297</ele>
        <time>2026-09-03T13:54:01.000Z</time>
      </trkpt>
      <trkpt lat="48.22067" lon="6.66488">
        <ele>443.79998779297</ele>
        <time>2026-09-03T13:54:02.000Z</time>
      </trkpt>
      <trkpt lat="48.22067" lon="6.66486">
        <ele>443.79998779297</ele>
        <time>2026-09-03T13:54:03.000Z</time>
      </trkpt>
      <trkpt lat="48.22068" lon="6.66485">
        <ele>443.59997558594</ele>
        <time>2026-09-03T13:54:04.000Z</time>
      </trkpt>
      <trkpt lat="48.22069" lon="6.66483">
        <ele>443.59997558594</ele>
        <time>2026-09-03T13:54:05.000Z</time>
      </trkpt>
      <trkpt lat="48.2207" lon="6.66481">
        <ele>443.40002441406</ele>
        <time>2026-09-03T13:54:06.000Z</time>
      </trkpt>
      <trkpt lat="48.2207" lon="6.66479">
        <ele>443.40002441406</ele>
        <time>2026-09-03T13:54:07.000Z</time>
      </trkpt>
      <trkpt lat="48.2207" lon="6.66478">
        <ele>443.40002441406</ele>
        <time>2026-09-03T13:54:08.000Z</time>
      </trkpt>
      <trkpt lat="48.22071" lon="6.66476">
        <ele>443.40002441406</ele>
        <time>2026-09-03T13:54:09.000Z</time>
      </trkpt>
      <trkpt lat="48.22072" lon="6.66474">
        <ele>443.20001220703</ele>
        <time>2026-09-03T13:54:10.000Z</time>
      </trkpt>
      <trkpt lat="48.22072" lon="6.66473">
        <ele>443.20001220703</ele>
        <time>2026-09-03T13:54:11.000Z</time>
      </trkpt>
      <trkpt lat="48.22073" lon="6.66471">
        <ele>443.20001220703</ele>
        <time>2026-09-03T13:54:12.000Z</time>
      </trkpt>
      <trkpt lat="48.22074" lon="6.66469">
        <ele>443</ele>
        <time>2026-09-03T13:54:13.000Z</time>
      </trkpt>
      <trkpt lat="48.22074" lon="6.66468">
        <ele>442.79998779297</ele>
        <time>2026-09-03T13:54:14.000Z</time>
      </trkpt>
      <trkpt lat="48.22075" lon="6.66466">
        <ele>442.59997558594</ele>
        <time>2026-09-03T13:54:15.000Z</time>
      </trkpt>
      <trkpt lat="48.22075" lon="6.66464">
        <ele>442.40002441406</ele>
        <time>2026-09-03T13:54:16.000Z</time>
      </trkpt>
      <trkpt lat="48.22076" lon="6.66462">
        <ele>442</ele>
        <time>2026-09-03T13:54:17.000Z</time>
      </trkpt>
      <trkpt lat="48.22077" lon="6.66461">
        <ele>442</ele>
        <time>2026-09-03T13:54:18.000Z</time>
      </trkpt>
      <trkpt lat="48.22077" lon="6.6646">
        <ele>442.20001220703</ele>
        <time>2026-09-03T13:54:19.000Z</time>
      </trkpt>
      <trkpt lat="48.22078" lon="6.66459">
        <ele>442.40002441406</ele>
        <time>2026-09-03T13:54:20.000Z</time>
      </trkpt>
      <trkpt lat="48.22078" lon="6.66458">
        <ele>442.79998779297</ele>
        <time>2026-09-03T13:54:21.000Z</time>
      </trkpt>
      <trkpt lat="48.22079" lon="6.66457">
        <ele>443</ele>
        <time>2026-09-03T13:54:22.000Z</time>
      </trkpt>
      <trkpt lat="48.2208" lon="6.66455">
        <ele>443</ele>
        <time>2026-09-03T13:54:23.000Z</time>
      </trkpt>
      <trkpt lat="48.2208" lon="6.66453">
        <ele>443</ele>
        <time>2026-09-03T13:54:24.000Z</time>
      </trkpt>
      <trkpt lat="48.22081" lon="6.66451">
        <ele>442.79998779297</ele>
        <time>2026-09-03T13:54:25.000Z</time>
      </trkpt>
      <trkpt lat="48.22081" lon="6.6645">
        <ele>442.79998779297</ele>
        <time>2026-09-03T13:54:26.000Z</time>
      </trkpt>
      <trkpt lat="48.22081" lon="6.6645">
        <ele>442.40002441406</ele>
        <time>2026-09-03T13:54:27.000Z</time>
      </trkpt>
      <trkpt lat="48.22082" lon="6.66448">
        <ele>442.40002441406</ele>
        <time>2026-09-03T13:54:28.000Z</time>
      </trkpt>
      <trkpt lat="48.22083" lon="6.66447">
        <ele>442.20001220703</ele>
        <time>2026-09-03T13:54:29.000Z</time>
      </trkpt>
      <trkpt lat="48.22083" lon="6.66446">
        <ele>442.20001220703</ele>
        <time>2026-09-03T13:54:30.000Z</time>
      </trkpt>
      <trkpt lat="48.22083" lon="6.66444">
        <ele>442</ele>
        <time>2026-09-03T13:54:31.000Z</time>
      </trkpt>
      <trkpt lat="48.22084" lon="6.66442">
        <ele>442</ele>
        <time>2026-09-03T13:54:32.000Z</time>
      </trkpt>
      <trkpt lat="48.22084" lon="6.66441">
        <ele>442</ele>
        <time>2026-09-03T13:54:33.000Z</time>
      </trkpt>
      <trkpt lat="48.22085" lon="6.66439">
        <ele>442</ele>
        <time>2026-09-03T13:54:34.000Z</time>
      </trkpt>
      <trkpt lat="48.22085" lon="6.66438">
        <ele>442</ele>
        <time>2026-09-03T13:54:35.000Z</time>
      </trkpt>
      <trkpt lat="48.22086" lon="6.66436">
        <ele>441.79998779297</ele>
        <time>2026-09-03T13:54:36.000Z</time>
      </trkpt>
      <trkpt lat="48.22086" lon="6.66435">
        <ele>441.79998779297</ele>
        <time>2026-09-03T13:54:37.000Z</time>
      </trkpt>
      <trkpt lat="48.22087" lon="6.66433">
        <ele>441.79998779297</ele>
        <time>2026-09-03T13:54:38.000Z</time>
      </trkpt>
      <trkpt lat="48.22087" lon="6.66432">
        <ele>441.59997558594</ele>
        <time>2026-09-03T13:54:39.000Z</time>
      </trkpt>
      <trkpt lat="48.22087" lon="6.6643">
        <ele>441.79998779297</ele>
        <time>2026-09-03T13:54:40.000Z</time>
      </trkpt>
      <trkpt lat="48.22087" lon="6.66428">
        <ele>441.59997558594</ele>
        <time>2026-09-03T13:54:41.000Z</time>
      </trkpt>
      <trkpt lat="48.22087" lon="6.66428">
        <ele>441.59997558594</ele>
        <time>2026-09-03T13:54:42.000Z</time>
      </trkpt>
      <trkpt lat="48.22088" lon="6.66426">
        <ele>441.59997558594</ele>
        <time>2026-09-03T13:54:43.000Z</time>
      </trkpt>
      <trkpt lat="48.22088" lon="6.66424">
        <ele>441.59997558594</ele>
        <time>2026-09-03T13:54:44.000Z</time>
      </trkpt>
      <trkpt lat="48.22089" lon="6.66423">
        <ele>441.40002441406</ele>
        <time>2026-09-03T13:54:45.000Z</time>
      </trkpt>
      <trkpt lat="48.22089" lon="6.66421">
        <ele>441.40002441406</ele>
        <time>2026-09-03T13:54:46.000Z</time>
      </trkpt>
      <trkpt lat="48.2209" lon="6.66419">
        <ele>441.20001220703</ele>
        <time>2026-09-03T13:54:47.000Z</time>
      </trkpt>
      <trkpt lat="48.22091" lon="6.66417">
        <ele>441.20001220703</ele>
        <time>2026-09-03T13:54:48.000Z</time>
      </trkpt>
      <trkpt lat="48.22091" lon="6.66416">
        <ele>441</ele>
        <time>2026-09-03T13:54:49.000Z</time>
      </trkpt>
      <trkpt lat="48.22091" lon="6.66413">
        <ele>441</ele>
        <time>2026-09-03T13:54:50.000Z</time>
      </trkpt>
      <trkpt lat="48.22091" lon="6.66412">
        <ele>440.79998779297</ele>
        <time>2026-09-03T13:54:51.000Z</time>
      </trkpt>
      <trkpt lat="48.22092" lon="6.66411">
        <ele>440.79998779297</ele>
        <time>2026-09-03T13:54:52.000Z</time>
      </trkpt>
      <trkpt lat="48.22092" lon="6.66409">
        <ele>440.79998779297</ele>
        <time>2026-09-03T13:54:53.000Z</time>
      </trkpt>
      <trkpt lat="48.22093" lon="6.66407">
        <ele>440.79998779297</ele>
        <time>2026-09-03T13:54:54.000Z</time>
      </trkpt>
      <trkpt lat="48.22094" lon="6.66405">
        <ele>440.59997558594</ele>
        <time>2026-09-03T13:54:55.000Z</time>
      </trkpt>
      <trkpt lat="48.22094" lon="6.66403">
        <ele>440.59997558594</ele>
        <time>2026-09-03T13:54:56.000Z</time>
      </trkpt>
      <trkpt lat="48.22094" lon="6.66402">
        <ele>440.59997558594</ele>
        <time>2026-09-03T13:54:57.000Z</time>
      </trkpt>
      <trkpt lat="48.22094" lon="6.664">
        <ele>440.59997558594</ele>
        <time>2026-09-03T13:54:58.000Z</time>
      </trkpt>
      <trkpt lat="48.22095" lon="6.66399">
        <ele>440.40002441406</ele>
        <time>2026-09-03T13:54:59.000Z</time>
      </trkpt>
      <trkpt lat="48.22096" lon="6.66398">
        <ele>440.40002441406</ele>
        <time>2026-09-03T13:55:00.000Z</time>
      </trkpt>
      <trkpt lat="48.22096" lon="6.66396">
        <ele>440.40002441406</ele>
        <time>2026-09-03T13:55:01.000Z</time>
      </trkpt>
      <trkpt lat="48.22097" lon="6.66395">
        <ele>440.20001220703</ele>
        <time>2026-09-03T13:55:02.000Z</time>
      </trkpt>
      <trkpt lat="48.22098" lon="6.66393">
        <ele>440</ele>
        <time>2026-09-03T13:55:03.000Z</time>
      </trkpt>
      <trkpt lat="48.22099" lon="6.66392">
        <ele>440</ele>
        <time>2026-09-03T13:55:04.000Z</time>
      </trkpt>
      <trkpt lat="48.221" lon="6.66391">
        <ele>439.79998779297</ele>
        <time>2026-09-03T13:55:05.000Z</time>
      </trkpt>
      <trkpt lat="48.221" lon="6.66389">
        <ele>439.59997558594</ele>
        <time>2026-09-03T13:55:06.000Z</time>
      </trkpt>
      <trkpt lat="48.22101" lon="6.66389">
        <ele>439.59997558594</ele>
        <time>2026-09-03T13:55:07.000Z</time>
      </trkpt>
      <trkpt lat="48.22102" lon="6.66387">
        <ele>439.40002441406</ele>
        <time>2026-09-03T13:55:08.000Z</time>
      </trkpt>
      <trkpt lat="48.22102" lon="6.66385">
        <ele>439.40002441406</ele>
        <time>2026-09-03T13:55:09.000Z</time>
      </trkpt>
      <trkpt lat="48.22103" lon="6.66384">
        <ele>439.20001220703</ele>
        <time>2026-09-03T13:55:10.000Z</time>
      </trkpt>
      <trkpt lat="48.22103" lon="6.66383">
        <ele>439.20001220703</ele>
        <time>2026-09-03T13:55:11.000Z</time>
      </trkpt>
      <trkpt lat="48.22103" lon="6.66382">
        <ele>439</ele>
        <time>2026-09-03T13:55:12.000Z</time>
      </trkpt>
      <trkpt lat="48.22104" lon="6.6638">
        <ele>439</ele>
        <time>2026-09-03T13:55:13.000Z</time>
      </trkpt>
      <trkpt lat="48.22104" lon="6.66379">
        <ele>438.79998779297</ele>
        <time>2026-09-03T13:55:14.000Z</time>
      </trkpt>
      <trkpt lat="48.22105" lon="6.66377">
        <ele>438.59997558594</ele>
        <time>2026-09-03T13:55:15.000Z</time>
      </trkpt>
      <trkpt lat="48.22105" lon="6.66376">
        <ele>438.40002441406</ele>
        <time>2026-09-03T13:55:16.000Z</time>
      </trkpt>
      <trkpt lat="48.22106" lon="6.66374">
        <ele>438.40002441406</ele>
        <time>2026-09-03T13:55:17.000Z</time>
      </trkpt>
      <trkpt lat="48.22106" lon="6.66372">
        <ele>438.20001220703</ele>
        <time>2026-09-03T13:55:18.000Z</time>
      </trkpt>
      <trkpt lat="48.22107" lon="6.66371">
        <ele>438.20001220703</ele>
        <time>2026-09-03T13:55:19.000Z</time>
      </trkpt>
      <trkpt lat="48.22107" lon="6.6637">
        <ele>438</ele>
        <time>2026-09-03T13:55:20.000Z</time>
      </trkpt>
      <trkpt lat="48.22107" lon="6.66369">
        <ele>438</ele>
        <time>2026-09-03T13:55:21.000Z</time>
      </trkpt>
      <trkpt lat="48.22108" lon="6.66368">
        <ele>437.59997558594</ele>
        <time>2026-09-03T13:55:22.000Z</time>
      </trkpt>
      <trkpt lat="48.22108" lon="6.66367">
        <ele>437.40002441406</ele>
        <time>2026-09-03T13:55:23.000Z</time>
      </trkpt>
      <trkpt lat="48.22109" lon="6.66365">
        <ele>437</ele>
        <time>2026-09-03T13:55:24.000Z</time>
      </trkpt>
      <trkpt lat="48.2211" lon="6.66364">
        <ele>436.59997558594</ele>
        <time>2026-09-03T13:55:25.000Z</time>
      </trkpt>
      <trkpt lat="48.22111" lon="6.66362">
        <ele>436.40002441406</ele>
        <time>2026-09-03T13:55:26.000Z</time>
      </trkpt>
      <trkpt lat="48.22111" lon="6.6636">
        <ele>436.20001220703</ele>
        <time>2026-09-03T13:55:27.000Z</time>
      </trkpt>
      <trkpt lat="48.22112" lon="6.66358">
        <ele>436.20001220703</ele>
        <time>2026-09-03T13:55:28.000Z</time>
      </trkpt>
      <trkpt lat="48.22112" lon="6.66357">
        <ele>436.40002441406</ele>
        <time>2026-09-03T13:55:29.000Z</time>
      </trkpt>
      <trkpt lat="48.22113" lon="6.66355">
        <ele>436.59997558594</ele>
        <time>2026-09-03T13:55:30.000Z</time>
      </trkpt>
      <trkpt lat="48.22113" lon="6.66354">
        <ele>436.59997558594</ele>
        <time>2026-09-03T13:55:31.000Z</time>
      </trkpt>
      <trkpt lat="48.22114" lon="6.66352">
        <ele>436.59997558594</ele>
        <time>2026-09-03T13:55:32.000Z</time>
      </trkpt>
      <trkpt lat="48.22114" lon="6.6635">
        <ele>436.59997558594</ele>
        <time>2026-09-03T13:55:33.000Z</time>
      </trkpt>
      <trkpt lat="48.22114" lon="6.66348">
        <ele>436.59997558594</ele>
        <time>2026-09-03T13:55:34.000Z</time>
      </trkpt>
      <trkpt lat="48.22114" lon="6.66347">
        <ele>436.40002441406</ele>
        <time>2026-09-03T13:55:35.000Z</time>
      </trkpt>
      <trkpt lat="48.22115" lon="6.66346">
        <ele>436.40002441406</ele>
        <time>2026-09-03T13:55:36.000Z</time>
      </trkpt>
      <trkpt lat="48.22115" lon="6.66345">
        <ele>436.20001220703</ele>
        <time>2026-09-03T13:55:37.000Z</time>
      </trkpt>
      <trkpt lat="48.22116" lon="6.66343">
        <ele>436.20001220703</ele>
        <time>2026-09-03T13:55:38.000Z</time>
      </trkpt>
      <trkpt lat="48.22116" lon="6.66342">
        <ele>436</ele>
        <time>2026-09-03T13:55:39.000Z</time>
      </trkpt>
      <trkpt lat="48.22117" lon="6.6634">
        <ele>436</ele>
        <time>2026-09-03T13:55:40.000Z</time>
      </trkpt>
      <trkpt lat="48.22118" lon="6.66338">
        <ele>435.79998779297</ele>
        <time>2026-09-03T13:55:41.000Z</time>
      </trkpt>
      <trkpt lat="48.22118" lon="6.66337">
        <ele>435.79998779297</ele>
        <time>2026-09-03T13:55:42.000Z</time>
      </trkpt>
      <trkpt lat="48.22119" lon="6.66336">
        <ele>435.59997558594</ele>
        <time>2026-09-03T13:55:43.000Z</time>
      </trkpt>
      <trkpt lat="48.2212" lon="6.66334">
        <ele>435.40002441406</ele>
        <time>2026-09-03T13:55:44.000Z</time>
      </trkpt>
      <trkpt lat="48.2212" lon="6.66333">
        <ele>435.20001220703</ele>
        <time>2026-09-03T13:55:45.000Z</time>
      </trkpt>
      <trkpt lat="48.2212" lon="6.66332">
        <ele>435</ele>
        <time>2026-09-03T13:55:46.000Z</time>
      </trkpt>
      <trkpt lat="48.22121" lon="6.6633">
        <ele>434.79998779297</ele>
        <time>2026-09-03T13:55:47.000Z</time>
      </trkpt>
      <trkpt lat="48.22122" lon="6.66329">
        <ele>435</ele>
        <time>2026-09-03T13:55:48.000Z</time>
      </trkpt>
      <trkpt lat="48.22122" lon="6.66328">
        <ele>435</ele>
        <time>2026-09-03T13:55:49.000Z</time>
      </trkpt>
      <trkpt lat="48.22123" lon="6.66327">
        <ele>435.20001220703</ele>
        <time>2026-09-03T13:55:50.000Z</time>
      </trkpt>
      <trkpt lat="48.22124" lon="6.66326">
        <ele>435.20001220703</ele>
        <time>2026-09-03T13:55:51.000Z</time>
      </trkpt>
      <trkpt lat="48.22125" lon="6.66325">
        <ele>435.20001220703</ele>
        <time>2026-09-03T13:55:52.000Z</time>
      </trkpt>
      <trkpt lat="48.22125" lon="6.66324">
        <ele>435</ele>
        <time>2026-09-03T13:55:53.000Z</time>
      </trkpt>
      <trkpt lat="48.22125" lon="6.66323">
        <ele>435</ele>
        <time>2026-09-03T13:55:54.000Z</time>
      </trkpt>
      <trkpt lat="48.22126" lon="6.66322">
        <ele>434.79998779297</ele>
        <time>2026-09-03T13:55:55.000Z</time>
      </trkpt>
      <trkpt lat="48.22127" lon="6.66321">
        <ele>434.79998779297</ele>
        <time>2026-09-03T13:55:56.000Z</time>
      </trkpt>
      <trkpt lat="48.22127" lon="6.66321">
        <ele>434.59997558594</ele>
        <time>2026-09-03T13:55:57.000Z</time>
      </trkpt>
      <trkpt lat="48.22128" lon="6.66322">
        <ele>434.40002441406</ele>
        <time>2026-09-03T13:55:58.000Z</time>
      </trkpt>
      <trkpt lat="48.22127" lon="6.66321">
        <ele>434.40002441406</ele>
        <time>2026-09-03T13:55:59.000Z</time>
      </trkpt>
      <trkpt lat="48.22128" lon="6.6632">
        <ele>434.20001220703</ele>
        <time>2026-09-03T13:56:00.000Z</time>
      </trkpt>
      <trkpt lat="48.22128" lon="6.66318">
        <ele>434.20001220703</ele>
        <time>2026-09-03T13:56:01.000Z</time>
      </trkpt>
      <trkpt lat="48.22129" lon="6.66317">
        <ele>434.20001220703</ele>
        <time>2026-09-03T13:56:02.000Z</time>
      </trkpt>
      <trkpt lat="48.2213" lon="6.66315">
        <ele>434.20001220703</ele>
        <time>2026-09-03T13:56:03.000Z</time>
      </trkpt>
      <trkpt lat="48.22131" lon="6.66313">
        <ele>434.20001220703</ele>
        <time>2026-09-03T13:56:04.000Z</time>
      </trkpt>
      <trkpt lat="48.22133" lon="6.66312">
        <ele>434.20001220703</ele>
        <time>2026-09-03T13:56:05.000Z</time>
      </trkpt>
      <trkpt lat="48.22133" lon="6.66311">
        <ele>434</ele>
        <time>2026-09-03T13:56:06.000Z</time>
      </trkpt>
      <trkpt lat="48.22133" lon="6.6631">
        <ele>434</ele>
        <time>2026-09-03T13:56:07.000Z</time>
      </trkpt>
      <trkpt lat="48.22134" lon="6.66309">
        <ele>434</ele>
        <time>2026-09-03T13:56:08.000Z</time>
      </trkpt>
      <trkpt lat="48.22135" lon="6.66308">
        <ele>433.79998779297</ele>
        <time>2026-09-03T13:56:09.000Z</time>
      </trkpt>
      <trkpt lat="48.22136" lon="6.66307">
        <ele>433.79998779297</ele>
        <time>2026-09-03T13:56:10.000Z</time>
      </trkpt>
      <trkpt lat="48.22137" lon="6.66305">
        <ele>433.79998779297</ele>
        <time>2026-09-03T13:56:11.000Z</time>
      </trkpt>
      <trkpt lat="48.22138" lon="6.66304">
        <ele>433.59997558594</ele>
        <time>2026-09-03T13:56:12.000Z</time>
      </trkpt>
      <trkpt lat="48.22139" lon="6.66304">
        <ele>433.59997558594</ele>
        <time>2026-09-03T13:56:13.000Z</time>
      </trkpt>
      <trkpt lat="48.2214" lon="6.66302">
        <ele>433.59997558594</ele>
        <time>2026-09-03T13:56:14.000Z</time>
      </trkpt>
      <trkpt lat="48.22141" lon="6.66301">
        <ele>433.59997558594</ele>
        <time>2026-09-03T13:56:15.000Z</time>
      </trkpt>
      <trkpt lat="48.22142" lon="6.663">
        <ele>433.59997558594</ele>
        <time>2026-09-03T13:56:16.000Z</time>
      </trkpt>
      <trkpt lat="48.22143" lon="6.663">
        <ele>433.59997558594</ele>
        <time>2026-09-03T13:56:17.000Z</time>
      </trkpt>
      <trkpt lat="48.22144" lon="6.66299">
        <ele>433.59997558594</ele>
        <time>2026-09-03T13:56:18.000Z</time>
      </trkpt>
      <trkpt lat="48.22145" lon="6.66298">
        <ele>433.40002441406</ele>
        <time>2026-09-03T13:56:19.000Z</time>
      </trkpt>
      <trkpt lat="48.22146" lon="6.66297">
        <ele>433.20001220703</ele>
        <time>2026-09-03T13:56:20.000Z</time>
      </trkpt>
      <trkpt lat="48.22147" lon="6.66297">
        <ele>433.20001220703</ele>
        <time>2026-09-03T13:56:21.000Z</time>
      </trkpt>
      <trkpt lat="48.22148" lon="6.66296">
        <ele>433</ele>
        <time>2026-09-03T13:56:22.000Z</time>
      </trkpt>
      <trkpt lat="48.22149" lon="6.66294">
        <ele>433</ele>
        <time>2026-09-03T13:56:23.000Z</time>
      </trkpt>
      <trkpt lat="48.2215" lon="6.66293">
        <ele>433</ele>
        <time>2026-09-03T13:56:24.000Z</time>
      </trkpt>
      <trkpt lat="48.22151" lon="6.66292">
        <ele>432.79998779297</ele>
        <time>2026-09-03T13:56:25.000Z</time>
      </trkpt>
      <trkpt lat="48.22152" lon="6.66291">
        <ele>432.79998779297</ele>
        <time>2026-09-03T13:56:26.000Z</time>
      </trkpt>
      <trkpt lat="48.22153" lon="6.66291">
        <ele>432.59997558594</ele>
        <time>2026-09-03T13:56:27.000Z</time>
      </trkpt>
      <trkpt lat="48.22154" lon="6.6629">
        <ele>432.59997558594</ele>
        <time>2026-09-03T13:56:28.000Z</time>
      </trkpt>
      <trkpt lat="48.22155" lon="6.6629">
        <ele>432.59997558594</ele>
        <time>2026-09-03T13:56:29.000Z</time>
      </trkpt>
      <trkpt lat="48.22156" lon="6.66289">
        <ele>432.40002441406</ele>
        <time>2026-09-03T13:56:30.000Z</time>
      </trkpt>
      <trkpt lat="48.22157" lon="6.66288">
        <ele>432.40002441406</ele>
        <time>2026-09-03T13:56:31.000Z</time>
      </trkpt>
      <trkpt lat="48.22158" lon="6.66288">
        <ele>432.40002441406</ele>
        <time>2026-09-03T13:56:32.000Z</time>
      </trkpt>
      <trkpt lat="48.22159" lon="6.66287">
        <ele>432.20001220703</ele>
        <time>2026-09-03T13:56:33.000Z</time>
      </trkpt>
      <trkpt lat="48.22161" lon="6.66286">
        <ele>432.20001220703</ele>
        <time>2026-09-03T13:56:34.000Z</time>
      </trkpt>
      <trkpt lat="48.22162" lon="6.66285">
        <ele>432</ele>
        <time>2026-09-03T13:56:35.000Z</time>
      </trkpt>
      <trkpt lat="48.22163" lon="6.66284">
        <ele>432</ele>
        <time>2026-09-03T13:56:36.000Z</time>
      </trkpt>
      <trkpt lat="48.22164" lon="6.66284">
        <ele>431.79998779297</ele>
        <time>2026-09-03T13:56:37.000Z</time>
      </trkpt>
      <trkpt lat="48.22165" lon="6.66283">
        <ele>432</ele>
        <time>2026-09-03T13:56:38.000Z</time>
      </trkpt>
      <trkpt lat="48.22166" lon="6.66282">
        <ele>432</ele>
        <time>2026-09-03T13:56:39.000Z</time>
      </trkpt>
      <trkpt lat="48.22167" lon="6.66281">
        <ele>432</ele>
        <time>2026-09-03T13:56:40.000Z</time>
      </trkpt>
      <trkpt lat="48.22168" lon="6.6628">
        <ele>432</ele>
        <time>2026-09-03T13:56:41.000Z</time>
      </trkpt>
      <trkpt lat="48.22169" lon="6.66279">
        <ele>432</ele>
        <time>2026-09-03T13:56:42.000Z</time>
      </trkpt>
      <trkpt lat="48.2217" lon="6.66278">
        <ele>432</ele>
        <time>2026-09-03T13:56:43.000Z</time>
      </trkpt>
      <trkpt lat="48.22171" lon="6.66276">
        <ele>431.79998779297</ele>
        <time>2026-09-03T13:56:44.000Z</time>
      </trkpt>
      <trkpt lat="48.22172" lon="6.66276">
        <ele>431.79998779297</ele>
        <time>2026-09-03T13:56:45.000Z</time>
      </trkpt>
      <trkpt lat="48.22173" lon="6.66275">
        <ele>431.79998779297</ele>
        <time>2026-09-03T13:56:46.000Z</time>
      </trkpt>
      <trkpt lat="48.22174" lon="6.66275">
        <ele>431.59997558594</ele>
        <time>2026-09-03T13:56:47.000Z</time>
      </trkpt>
      <trkpt lat="48.22175" lon="6.66274">
        <ele>431.59997558594</ele>
        <time>2026-09-03T13:56:48.000Z</time>
      </trkpt>
      <trkpt lat="48.22176" lon="6.66274">
        <ele>431.40002441406</ele>
        <time>2026-09-03T13:56:49.000Z</time>
      </trkpt>
      <trkpt lat="48.22177" lon="6.66272">
        <ele>431.40002441406</ele>
        <time>2026-09-03T13:56:50.000Z</time>
      </trkpt>
      <trkpt lat="48.22178" lon="6.66271">
        <ele>431.20001220703</ele>
        <time>2026-09-03T13:56:51.000Z</time>
      </trkpt>
      <trkpt lat="48.22179" lon="6.6627">
        <ele>431.20001220703</ele>
        <time>2026-09-03T13:56:52.000Z</time>
      </trkpt>
      <trkpt lat="48.22179" lon="6.66269">
        <ele>431</ele>
        <time>2026-09-03T13:56:53.000Z</time>
      </trkpt>
      <trkpt lat="48.22181" lon="6.66268">
        <ele>431</ele>
        <time>2026-09-03T13:56:54.000Z</time>
      </trkpt>
      <trkpt lat="48.22182" lon="6.66267">
        <ele>431</ele>
        <time>2026-09-03T13:56:55.000Z</time>
      </trkpt>
      <trkpt lat="48.22183" lon="6.66267">
        <ele>431</ele>
        <time>2026-09-03T13:56:56.000Z</time>
      </trkpt>
      <trkpt lat="48.22184" lon="6.66266">
        <ele>431</ele>
        <time>2026-09-03T13:56:57.000Z</time>
      </trkpt>
      <trkpt lat="48.22185" lon="6.66266">
        <ele>430.79998779297</ele>
        <time>2026-09-03T13:56:58.000Z</time>
      </trkpt>
      <trkpt lat="48.22186" lon="6.66264">
        <ele>430.79998779297</ele>
        <time>2026-09-03T13:56:59.000Z</time>
      </trkpt>
      <trkpt lat="48.22187" lon="6.66264">
        <ele>430.59997558594</ele>
        <time>2026-09-03T13:57:00.000Z</time>
      </trkpt>
      <trkpt lat="48.22188" lon="6.66263">
        <ele>430.40002441406</ele>
        <time>2026-09-03T13:57:01.000Z</time>
      </trkpt>
      <trkpt lat="48.22189" lon="6.66262">
        <ele>430.40002441406</ele>
        <time>2026-09-03T13:57:02.000Z</time>
      </trkpt>
      <trkpt lat="48.22189" lon="6.66261">
        <ele>430.20001220703</ele>
        <time>2026-09-03T13:57:03.000Z</time>
      </trkpt>
      <trkpt lat="48.2219" lon="6.66261">
        <ele>430.20001220703</ele>
        <time>2026-09-03T13:57:04.000Z</time>
      </trkpt>
      <trkpt lat="48.22191" lon="6.6626">
        <ele>430.20001220703</ele>
        <time>2026-09-03T13:57:05.000Z</time>
      </trkpt>
      <trkpt lat="48.22192" lon="6.66259">
        <ele>430</ele>
        <time>2026-09-03T13:57:06.000Z</time>
      </trkpt>
      <trkpt lat="48.22194" lon="6.66258">
        <ele>430</ele>
        <time>2026-09-03T13:57:07.000Z</time>
      </trkpt>
      <trkpt lat="48.22195" lon="6.66257">
        <ele>429.79998779297</ele>
        <time>2026-09-03T13:57:08.000Z</time>
      </trkpt>
      <trkpt lat="48.22195" lon="6.66256">
        <ele>429.59997558594</ele>
        <time>2026-09-03T13:57:09.000Z</time>
      </trkpt>
      <trkpt lat="48.22196" lon="6.66255">
        <ele>429.40002441406</ele>
        <time>2026-09-03T13:57:10.000Z</time>
      </trkpt>
      <trkpt lat="48.22197" lon="6.66255">
        <ele>429.40002441406</ele>
        <time>2026-09-03T13:57:11.000Z</time>
      </trkpt>
      <trkpt lat="48.22198" lon="6.66254">
        <ele>429.20001220703</ele>
        <time>2026-09-03T13:57:12.000Z</time>
      </trkpt>
      <trkpt lat="48.22199" lon="6.66253">
        <ele>429</ele>
        <time>2026-09-03T13:57:13.000Z</time>
      </trkpt>
      <trkpt lat="48.22199" lon="6.66253">
        <ele>428.79998779297</ele>
        <time>2026-09-03T13:57:14.000Z</time>
      </trkpt>
      <trkpt lat="48.222" lon="6.66252">
        <ele>428.59997558594</ele>
        <time>2026-09-03T13:57:15.000Z</time>
      </trkpt>
      <trkpt lat="48.22201" lon="6.66251">
        <ele>428.59997558594</ele>
        <time>2026-09-03T13:57:16.000Z</time>
      </trkpt>
      <trkpt lat="48.22202" lon="6.66251">
        <ele>428.40002441406</ele>
        <time>2026-09-03T13:57:17.000Z</time>
      </trkpt>
      <trkpt lat="48.22203" lon="6.6625">
        <ele>428.20001220703</ele>
        <time>2026-09-03T13:57:18.000Z</time>
      </trkpt>
      <trkpt lat="48.22204" lon="6.66249">
        <ele>428</ele>
        <time>2026-09-03T13:57:19.000Z</time>
      </trkpt>
      <trkpt lat="48.22204" lon="6.66248">
        <ele>427.79998779297</ele>
        <time>2026-09-03T13:57:20.000Z</time>
      </trkpt>
      <trkpt lat="48.22205" lon="6.66248">
        <ele>427.79998779297</ele>
        <time>2026-09-03T13:57:21.000Z</time>
      </trkpt>
      <trkpt lat="48.22206" lon="6.66247">
        <ele>427.79998779297</ele>
        <time>2026-09-03T13:57:22.000Z</time>
      </trkpt>
      <trkpt lat="48.22207" lon="6.66247">
        <ele>427.79998779297</ele>
        <time>2026-09-03T13:57:23.000Z</time>
      </trkpt>
      <trkpt lat="48.22208" lon="6.66246">
        <ele>427.59997558594</ele>
        <time>2026-09-03T13:57:24.000Z</time>
      </trkpt>
      <trkpt lat="48.22209" lon="6.66245">
        <ele>427.59997558594</ele>
        <time>2026-09-03T13:57:25.000Z</time>
      </trkpt>
      <trkpt lat="48.22211" lon="6.66244">
        <ele>427.59997558594</ele>
        <time>2026-09-03T13:57:26.000Z</time>
      </trkpt>
      <trkpt lat="48.22212" lon="6.66243">
        <ele>427.40002441406</ele>
        <time>2026-09-03T13:57:27.000Z</time>
      </trkpt>
      <trkpt lat="48.22213" lon="6.66242">
        <ele>427.40002441406</ele>
        <time>2026-09-03T13:57:28.000Z</time>
      </trkpt>
      <trkpt lat="48.22214" lon="6.66242">
        <ele>427.40002441406</ele>
        <time>2026-09-03T13:57:29.000Z</time>
      </trkpt>
      <trkpt lat="48.22215" lon="6.66241">
        <ele>427.40002441406</ele>
        <time>2026-09-03T13:57:30.000Z</time>
      </trkpt>
      <trkpt lat="48.22216" lon="6.6624">
        <ele>427.40002441406</ele>
        <time>2026-09-03T13:57:31.000Z</time>
      </trkpt>
      <trkpt lat="48.22217" lon="6.6624">
        <ele>427.20001220703</ele>
        <time>2026-09-03T13:57:32.000Z</time>
      </trkpt>
      <trkpt lat="48.22218" lon="6.6624">
        <ele>426.79998779297</ele>
        <time>2026-09-03T13:57:33.000Z</time>
      </trkpt>
      <trkpt lat="48.22219" lon="6.6624">
        <ele>426.59997558594</ele>
        <time>2026-09-03T13:57:34.000Z</time>
      </trkpt>
      <trkpt lat="48.22221" lon="6.66239">
        <ele>426.20001220703</ele>
        <time>2026-09-03T13:57:35.000Z</time>
      </trkpt>
      <trkpt lat="48.22222" lon="6.66237">
        <ele>426</ele>
        <time>2026-09-03T13:57:36.000Z</time>
      </trkpt>
      <trkpt lat="48.22223" lon="6.66236">
        <ele>425.79998779297</ele>
        <time>2026-09-03T13:57:37.000Z</time>
      </trkpt>
      <trkpt lat="48.22224" lon="6.66235">
        <ele>425.79998779297</ele>
        <time>2026-09-03T13:57:38.000Z</time>
      </trkpt>
      <trkpt lat="48.22225" lon="6.66233">
        <ele>426</ele>
        <time>2026-09-03T13:57:39.000Z</time>
      </trkpt>
      <trkpt lat="48.22227" lon="6.66232">
        <ele>426.20001220703</ele>
        <time>2026-09-03T13:57:40.000Z</time>
      </trkpt>
      <trkpt lat="48.22228" lon="6.66231">
        <ele>426.20001220703</ele>
        <time>2026-09-03T13:57:41.000Z</time>
      </trkpt>
      <trkpt lat="48.22229" lon="6.66231">
        <ele>426</ele>
        <time>2026-09-03T13:57:42.000Z</time>
      </trkpt>
      <trkpt lat="48.2223" lon="6.6623">
        <ele>426</ele>
        <time>2026-09-03T13:57:43.000Z</time>
      </trkpt>
      <trkpt lat="48.22231" lon="6.66229">
        <ele>425.79998779297</ele>
        <time>2026-09-03T13:57:44.000Z</time>
      </trkpt>
      <trkpt lat="48.22232" lon="6.66228">
        <ele>425.59997558594</ele>
        <time>2026-09-03T13:57:45.000Z</time>
      </trkpt>
      <trkpt lat="48.22232" lon="6.66227">
        <ele>425.40002441406</ele>
        <time>2026-09-03T13:57:46.000Z</time>
      </trkpt>
      <trkpt lat="48.22233" lon="6.66226">
        <ele>425.20001220703</ele>
        <time>2026-09-03T13:57:47.000Z</time>
      </trkpt>
      <trkpt lat="48.22234" lon="6.66226">
        <ele>425.20001220703</ele>
        <time>2026-09-03T13:57:48.000Z</time>
      </trkpt>
      <trkpt lat="48.22236" lon="6.66226">
        <ele>425</ele>
        <time>2026-09-03T13:57:49.000Z</time>
      </trkpt>
      <trkpt lat="48.22237" lon="6.66225">
        <ele>425</ele>
        <time>2026-09-03T13:57:50.000Z</time>
      </trkpt>
      <trkpt lat="48.22238" lon="6.66225">
        <ele>425</ele>
        <time>2026-09-03T13:57:51.000Z</time>
      </trkpt>
      <trkpt lat="48.22239" lon="6.66224">
        <ele>425</ele>
        <time>2026-09-03T13:57:52.000Z</time>
      </trkpt>
      <trkpt lat="48.2224" lon="6.66224">
        <ele>425</ele>
        <time>2026-09-03T13:57:53.000Z</time>
      </trkpt>
      <trkpt lat="48.22242" lon="6.66223">
        <ele>425</ele>
        <time>2026-09-03T13:57:54.000Z</time>
      </trkpt>
      <trkpt lat="48.22243" lon="6.66222">
        <ele>424.79998779297</ele>
        <time>2026-09-03T13:57:55.000Z</time>
      </trkpt>
      <trkpt lat="48.22244" lon="6.66222">
        <ele>424.79998779297</ele>
        <time>2026-09-03T13:57:56.000Z</time>
      </trkpt>
      <trkpt lat="48.22245" lon="6.66221">
        <ele>424.79998779297</ele>
        <time>2026-09-03T13:57:57.000Z</time>
      </trkpt>
      <trkpt lat="48.22246" lon="6.6622">
        <ele>424.79998779297</ele>
        <time>2026-09-03T13:57:58.000Z</time>
      </trkpt>
      <trkpt lat="48.22247" lon="6.66219">
        <ele>424.59997558594</ele>
        <time>2026-09-03T13:57:59.000Z</time>
      </trkpt>
      <trkpt lat="48.22248" lon="6.66219">
        <ele>424.59997558594</ele>
        <time>2026-09-03T13:58:00.000Z</time>
      </trkpt>
      <trkpt lat="48.22249" lon="6.66218">
        <ele>424.40002441406</ele>
        <time>2026-09-03T13:58:01.000Z</time>
      </trkpt>
      <trkpt lat="48.2225" lon="6.66218">
        <ele>424.20001220703</ele>
        <time>2026-09-03T13:58:02.000Z</time>
      </trkpt>
      <trkpt lat="48.22251" lon="6.66217">
        <ele>424.20001220703</ele>
        <time>2026-09-03T13:58:03.000Z</time>
      </trkpt>
      <trkpt lat="48.22253" lon="6.66217">
        <ele>424</ele>
        <time>2026-09-03T13:58:04.000Z</time>
      </trkpt>
      <trkpt lat="48.22254" lon="6.66216">
        <ele>424</ele>
        <time>2026-09-03T13:58:05.000Z</time>
      </trkpt>
      <trkpt lat="48.22255" lon="6.66215">
        <ele>424</ele>
        <time>2026-09-03T13:58:06.000Z</time>
      </trkpt>
      <trkpt lat="48.22257" lon="6.66214">
        <ele>424</ele>
        <time>2026-09-03T13:58:07.000Z</time>
      </trkpt>
      <trkpt lat="48.22258" lon="6.66214">
        <ele>424</ele>
        <time>2026-09-03T13:58:08.000Z</time>
      </trkpt>
      <trkpt lat="48.22259" lon="6.66213">
        <ele>423.79998779297</ele>
        <time>2026-09-03T13:58:09.000Z</time>
      </trkpt>
      <trkpt lat="48.2226" lon="6.66213">
        <ele>423.79998779297</ele>
        <time>2026-09-03T13:58:10.000Z</time>
      </trkpt>
      <trkpt lat="48.22261" lon="6.66212">
        <ele>423.59997558594</ele>
        <time>2026-09-03T13:58:11.000Z</time>
      </trkpt>
      <trkpt lat="48.22262" lon="6.66212">
        <ele>423.40002441406</ele>
        <time>2026-09-03T13:58:12.000Z</time>
      </trkpt>
      <trkpt lat="48.22263" lon="6.66212">
        <ele>423.40002441406</ele>
        <time>2026-09-03T13:58:13.000Z</time>
      </trkpt>
      <trkpt lat="48.22264" lon="6.66211">
        <ele>423.20001220703</ele>
        <time>2026-09-03T13:58:14.000Z</time>
      </trkpt>
      <trkpt lat="48.22265" lon="6.6621">
        <ele>423.20001220703</ele>
        <time>2026-09-03T13:58:15.000Z</time>
      </trkpt>
      <trkpt lat="48.22266" lon="6.6621">
        <ele>423</ele>
        <time>2026-09-03T13:58:16.000Z</time>
      </trkpt>
      <trkpt lat="48.22266" lon="6.66209">
        <ele>423</ele>
        <time>2026-09-03T13:58:17.000Z</time>
      </trkpt>
      <trkpt lat="48.22267" lon="6.66209">
        <ele>423</ele>
        <time>2026-09-03T13:58:18.000Z</time>
      </trkpt>
      <trkpt lat="48.22268" lon="6.66208">
        <ele>422.79998779297</ele>
        <time>2026-09-03T13:58:19.000Z</time>
      </trkpt>
      <trkpt lat="48.22269" lon="6.66208">
        <ele>422.79998779297</ele>
        <time>2026-09-03T13:58:20.000Z</time>
      </trkpt>
      <trkpt lat="48.22269" lon="6.66208">
        <ele>422.79998779297</ele>
        <time>2026-09-03T13:58:21.000Z</time>
      </trkpt>
      <trkpt lat="48.22271" lon="6.66208">
        <ele>422.79998779297</ele>
        <time>2026-09-03T13:58:22.000Z</time>
      </trkpt>
      <trkpt lat="48.22273" lon="6.66208">
        <ele>422.59997558594</ele>
        <time>2026-09-03T13:58:23.000Z</time>
      </trkpt>
      <trkpt lat="48.22274" lon="6.66207">
        <ele>422.59997558594</ele>
        <time>2026-09-03T13:58:24.000Z</time>
      </trkpt>
      <trkpt lat="48.22276" lon="6.66206">
        <ele>422.40002441406</ele>
        <time>2026-09-03T13:58:25.000Z</time>
      </trkpt>
      <trkpt lat="48.22277" lon="6.66206">
        <ele>422.40002441406</ele>
        <time>2026-09-03T13:58:26.000Z</time>
      </trkpt>
      <trkpt lat="48.22278" lon="6.66205">
        <ele>422.40002441406</ele>
        <time>2026-09-03T13:58:27.000Z</time>
      </trkpt>
      <trkpt lat="48.22279" lon="6.66204">
        <ele>422.20001220703</ele>
        <time>2026-09-03T13:58:28.000Z</time>
      </trkpt>
      <trkpt lat="48.2228" lon="6.66204">
        <ele>422.20001220703</ele>
        <time>2026-09-03T13:58:29.000Z</time>
      </trkpt>
      <trkpt lat="48.22281" lon="6.66204">
        <ele>422.20001220703</ele>
        <time>2026-09-03T13:58:30.000Z</time>
      </trkpt>
      <trkpt lat="48.22282" lon="6.66204">
        <ele>422.20001220703</ele>
        <time>2026-09-03T13:58:31.000Z</time>
      </trkpt>
      <trkpt lat="48.22283" lon="6.66203">
        <ele>422.20001220703</ele>
        <time>2026-09-03T13:58:32.000Z</time>
      </trkpt>
      <trkpt lat="48.22284" lon="6.66203">
        <ele>422.20001220703</ele>
        <time>2026-09-03T13:58:33.000Z</time>
      </trkpt>
      <trkpt lat="48.22285" lon="6.66203">
        <ele>422.20001220703</ele>
        <time>2026-09-03T13:58:34.000Z</time>
      </trkpt>
      <trkpt lat="48.22286" lon="6.66203">
        <ele>422.20001220703</ele>
        <time>2026-09-03T13:58:35.000Z</time>
      </trkpt>
      <trkpt lat="48.22287" lon="6.66203">
        <ele>422</ele>
        <time>2026-09-03T13:58:36.000Z</time>
      </trkpt>
      <trkpt lat="48.22289" lon="6.66203">
        <ele>421.79998779297</ele>
        <time>2026-09-03T13:58:37.000Z</time>
      </trkpt>
      <trkpt lat="48.2229" lon="6.66202">
        <ele>421.59997558594</ele>
        <time>2026-09-03T13:58:38.000Z</time>
      </trkpt>
      <trkpt lat="48.22291" lon="6.66202">
        <ele>421.40002441406</ele>
        <time>2026-09-03T13:58:39.000Z</time>
      </trkpt>
      <trkpt lat="48.22292" lon="6.66202">
        <ele>421.20001220703</ele>
        <time>2026-09-03T13:58:40.000Z</time>
      </trkpt>
      <trkpt lat="48.22293" lon="6.66201">
        <ele>421.20001220703</ele>
        <time>2026-09-03T13:58:41.000Z</time>
      </trkpt>
      <trkpt lat="48.22295" lon="6.66201">
        <ele>421.20001220703</ele>
        <time>2026-09-03T13:58:42.000Z</time>
      </trkpt>
      <trkpt lat="48.22296" lon="6.662">
        <ele>421.20001220703</ele>
        <time>2026-09-03T13:58:43.000Z</time>
      </trkpt>
      <trkpt lat="48.22297" lon="6.66199">
        <ele>421.20001220703</ele>
        <time>2026-09-03T13:58:44.000Z</time>
      </trkpt>
      <trkpt lat="48.22298" lon="6.66199">
        <ele>421.20001220703</ele>
        <time>2026-09-03T13:58:45.000Z</time>
      </trkpt>
      <trkpt lat="48.22299" lon="6.66198">
        <ele>421.20001220703</ele>
        <time>2026-09-03T13:58:46.000Z</time>
      </trkpt>
      <trkpt lat="48.223" lon="6.66199">
        <ele>421</ele>
        <time>2026-09-03T13:58:47.000Z</time>
      </trkpt>
      <trkpt lat="48.22301" lon="6.66198">
        <ele>421</ele>
        <time>2026-09-03T13:58:48.000Z</time>
      </trkpt>
      <trkpt lat="48.22302" lon="6.66198">
        <ele>420.79998779297</ele>
        <time>2026-09-03T13:58:49.000Z</time>
      </trkpt>
      <trkpt lat="48.22303" lon="6.66197">
        <ele>420.79998779297</ele>
        <time>2026-09-03T13:58:50.000Z</time>
      </trkpt>
      <trkpt lat="48.22304" lon="6.66196">
        <ele>420.79998779297</ele>
        <time>2026-09-03T13:58:51.000Z</time>
      </trkpt>
      <trkpt lat="48.22305" lon="6.66195">
        <ele>420.79998779297</ele>
        <time>2026-09-03T13:58:52.000Z</time>
      </trkpt>
      <trkpt lat="48.22306" lon="6.66194">
        <ele>420.59997558594</ele>
        <time>2026-09-03T13:58:53.000Z</time>
      </trkpt>
      <trkpt lat="48.22307" lon="6.66193">
        <ele>420.59997558594</ele>
        <time>2026-09-03T13:58:54.000Z</time>
      </trkpt>
      <trkpt lat="48.22308" lon="6.66193">
        <ele>420.40002441406</ele>
        <time>2026-09-03T13:58:55.000Z</time>
      </trkpt>
      <trkpt lat="48.22309" lon="6.66192">
        <ele>420.40002441406</ele>
        <time>2026-09-03T13:58:56.000Z</time>
      </trkpt>
      <trkpt lat="48.2231" lon="6.66191">
        <ele>420.20001220703</ele>
        <time>2026-09-03T13:58:57.000Z</time>
      </trkpt>
      <trkpt lat="48.22311" lon="6.66191">
        <ele>420</ele>
        <time>2026-09-03T13:58:58.000Z</time>
      </trkpt>
      <trkpt lat="48.22312" lon="6.6619">
        <ele>419.79998779297</ele>
        <time>2026-09-03T13:58:59.000Z</time>
      </trkpt>
      <trkpt lat="48.22312" lon="6.6619">
        <ele>419.79998779297</ele>
        <time>2026-09-03T13:59:00.000Z</time>
      </trkpt>
      <trkpt lat="48.22312" lon="6.66188">
        <ele>419.79998779297</ele>
        <time>2026-09-03T13:59:01.000Z</time>
      </trkpt>
      <trkpt lat="48.22311" lon="6.66189">
        <ele>419.79998779297</ele>
        <time>2026-09-03T13:59:02.000Z</time>
      </trkpt>
      <trkpt lat="48.22311" lon="6.66189">
        <ele>419.59997558594</ele>
        <time>2026-09-03T13:59:03.000Z</time>
      </trkpt>
      <trkpt lat="48.2231" lon="6.6619">
        <ele>419.59997558594</ele>
        <time>2026-09-03T13:59:04.000Z</time>
      </trkpt>
      <trkpt lat="48.2231" lon="6.6619">
        <ele>419.40002441406</ele>
        <time>2026-09-03T13:59:05.000Z</time>
      </trkpt>
      <trkpt lat="48.2231" lon="6.6619">
        <ele>419</ele>
        <time>2026-09-03T13:59:06.000Z</time>
      </trkpt>
      <trkpt lat="48.2231" lon="6.6619">
        <ele>418.79998779297</ele>
        <time>2026-09-03T13:59:07.000Z</time>
      </trkpt>
      <trkpt lat="48.2231" lon="6.6619">
        <ele>418.59997558594</ele>
        <time>2026-09-03T13:59:08.000Z</time>
      </trkpt>
      <trkpt lat="48.2231" lon="6.6619">
        <ele>418.59997558594</ele>
        <time>2026-09-03T13:59:09.000Z</time>
      </trkpt>
      <trkpt lat="48.2231" lon="6.6619">
        <ele>418.79998779297</ele>
        <time>2026-09-03T13:59:10.000Z</time>
      </trkpt>
      <trkpt lat="48.2231" lon="6.6619">
        <ele>418.79998779297</ele>
        <time>2026-09-03T13:59:11.000Z</time>
      </trkpt>
      <trkpt lat="48.2231" lon="6.6619">
        <ele>419</ele>
        <time>2026-09-03T13:59:12.000Z</time>
      </trkpt>
      <trkpt lat="48.2231" lon="6.6619">
        <ele>419</ele>
        <time>2026-09-03T13:59:13.000Z</time>
      </trkpt>
      <trkpt lat="48.2231" lon="6.6619">
        <ele>419</ele>
        <time>2026-09-03T13:59:14.000Z</time>
      </trkpt>
      <trkpt lat="48.22309" lon="6.6619">
        <ele>419</ele>
        <time>2026-09-03T13:59:15.000Z</time>
      </trkpt>
      <trkpt lat="48.22309" lon="6.6619">
        <ele>419</ele>
        <time>2026-09-03T13:59:16.000Z</time>
      </trkpt>
      <trkpt lat="48.22309" lon="6.6619">
        <ele>419.20001220703</ele>
        <time>2026-09-03T13:59:17.000Z</time>
      </trkpt>
      <trkpt lat="48.22309" lon="6.66189">
        <ele>419.20001220703</ele>
        <time>2026-09-03T13:59:18.000Z</time>
      </trkpt>
      <trkpt lat="48.22309" lon="6.6619">
        <ele>419.20001220703</ele>
        <time>2026-09-03T13:59:19.000Z</time>
      </trkpt>
      <trkpt lat="48.2231" lon="6.6619">
        <ele>419.40002441406</ele>
        <time>2026-09-03T13:59:20.000Z</time>
      </trkpt>
      <trkpt lat="48.2231" lon="6.6619">
        <ele>419.40002441406</ele>
        <time>2026-09-03T13:59:21.000Z</time>
      </trkpt>
      <trkpt lat="48.2231" lon="6.6619">
        <ele>419.40002441406</ele>
        <time>2026-09-03T13:59:22.000Z</time>
      </trkpt>
      <trkpt lat="48.2231" lon="6.6619">
        <ele>419.40002441406</ele>
        <time>2026-09-03T13:59:23.000Z</time>
      </trkpt>
      <trkpt lat="48.2231" lon="6.6619">
        <ele>419.40002441406</ele>
        <time>2026-09-03T13:59:24.000Z</time>
      </trkpt>
      <trkpt lat="48.2231" lon="6.6619">
        <ele>419.40002441406</ele>
        <time>2026-09-03T13:59:25.000Z</time>
      </trkpt>
      <trkpt lat="48.2231" lon="6.6619">
        <ele>419.59997558594</ele>
        <time>2026-09-03T13:59:26.000Z</time>
      </trkpt>
      <trkpt lat="48.22312" lon="6.6619">
        <ele>419.59997558594</ele>
        <time>2026-09-03T13:59:27.000Z</time>
      </trkpt>
      <trkpt lat="48.22313" lon="6.66189">
        <ele>419.40002441406</ele>
        <time>2026-09-03T13:59:28.000Z</time>
      </trkpt>
      <trkpt lat="48.22315" lon="6.66189">
        <ele>419.59997558594</ele>
        <time>2026-09-03T13:59:29.000Z</time>
      </trkpt>
      <trkpt lat="48.22316" lon="6.66189">
        <ele>419.40002441406</ele>
        <time>2026-09-03T13:59:30.000Z</time>
      </trkpt>
      <trkpt lat="48.22317" lon="6.66188">
        <ele>419.40002441406</ele>
        <time>2026-09-03T13:59:31.000Z</time>
      </trkpt>
      <trkpt lat="48.22317" lon="6.66188">
        <ele>419.20001220703</ele>
        <time>2026-09-03T13:59:32.000Z</time>
      </trkpt>
      <trkpt lat="48.22317" lon="6.66189">
        <ele>419.20001220703</ele>
        <time>2026-09-03T13:59:33.000Z</time>
      </trkpt>
      <trkpt lat="48.22317" lon="6.66189">
        <ele>419</ele>
        <time>2026-09-03T13:59:34.000Z</time>
      </trkpt>
      <trkpt lat="48.22317" lon="6.66189">
        <ele>419</ele>
        <time>2026-09-03T13:59:35.000Z</time>
      </trkpt>
      <trkpt lat="48.22317" lon="6.66189">
        <ele>419</ele>
        <time>2026-09-03T13:59:36.000Z</time>
      </trkpt>
      <trkpt lat="48.22317" lon="6.66189">
        <ele>419</ele>
        <time>2026-09-03T13:59:37.000Z</time>
      </trkpt>
      <trkpt lat="48.22317" lon="6.66189">
        <ele>419</ele>
        <time>2026-09-03T13:59:38.000Z</time>
      </trkpt>
      <trkpt lat="48.22317" lon="6.66189">
        <ele>419.20001220703</ele>
        <time>2026-09-03T13:59:39.000Z</time>
      </trkpt>
      <trkpt lat="48.22317" lon="6.66189">
        <ele>419.20001220703</ele>
        <time>2026-09-03T13:59:40.000Z</time>
      </trkpt>
      <trkpt lat="48.22317" lon="6.66189">
        <ele>419.20001220703</ele>
        <time>2026-09-03T13:59:41.000Z</time>
      </trkpt>
      <trkpt lat="48.22317" lon="6.66189">
        <ele>419</ele>
        <time>2026-09-03T13:59:42.000Z</time>
      </trkpt>
      <trkpt lat="48.22317" lon="6.66189">
        <ele>419.20001220703</ele>
        <time>2026-09-03T13:59:43.000Z</time>
      </trkpt>
      <trkpt lat="48.22317" lon="6.66189">
        <ele>419</ele>
        <time>2026-09-03T13:59:44.000Z</time>
      </trkpt>
      <trkpt lat="48.22317" lon="6.66189">
        <ele>419</ele>
        <time>2026-09-03T13:59:45.000Z</time>
      </trkpt>
      <trkpt lat="48.22317" lon="6.66189">
        <ele>419</ele>
        <time>2026-09-03T13:59:46.000Z</time>
      </trkpt>
      <trkpt lat="48.22317" lon="6.66189">
        <ele>419</ele>
        <time>2026-09-03T13:59:47.000Z</time>
      </trkpt>
      <trkpt lat="48.22317" lon="6.66189">
        <ele>419</ele>
        <time>2026-09-03T13:59:48.000Z</time>
      </trkpt>
      <trkpt lat="48.22317" lon="6.66189">
        <ele>419</ele>
        <time>2026-09-03T13:59:49.000Z</time>
      </trkpt>
      <trkpt lat="48.22317" lon="6.66189">
        <ele>419</ele>
        <time>2026-09-03T13:59:50.000Z</time>
      </trkpt>
      <trkpt lat="48.22317" lon="6.66189">
        <ele>419</ele>
        <time>2026-09-03T13:59:51.000Z</time>
      </trkpt>
      <trkpt lat="48.22317" lon="6.66189">
        <ele>419</ele>
        <time>2026-09-03T13:59:52.000Z</time>
      </trkpt>
      <trkpt lat="48.22317" lon="6.66189">
        <ele>419</ele>
        <time>2026-09-03T13:59:53.000Z</time>
      </trkpt>
      <trkpt lat="48.22317" lon="6.66189">
        <ele>419</ele>
        <time>2026-09-03T13:59:54.000Z</time>
      </trkpt>
      <trkpt lat="48.22317" lon="6.66189">
        <ele>419</ele>
        <time>2026-09-03T13:59:55.000Z</time>
      </trkpt>
      <trkpt lat="48.22317" lon="6.66189">
        <ele>418.79998779297</ele>
        <time>2026-09-03T13:59:56.000Z</time>
      </trkpt>
      <trkpt lat="48.22317" lon="6.66189">
        <ele>419</ele>
        <time>2026-09-03T13:59:57.000Z</time>
      </trkpt>
      <trkpt lat="48.22317" lon="6.66189">
        <ele>419</ele>
        <time>2026-09-03T13:59:58.000Z</time>
      </trkpt>
      <trkpt lat="48.22317" lon="6.66189">
        <ele>418.79998779297</ele>
        <time>2026-09-03T13:59:59.000Z</time>
      </trkpt>
      <trkpt lat="48.22317" lon="6.66189">
        <ele>418.79998779297</ele>
        <time>2026-09-03T14:00:00.000Z</time>
      </trkpt>
      <trkpt lat="48.22317" lon="6.66189">
        <ele>418.79998779297</ele>
        <time>2026-09-03T14:00:01.000Z</time>
      </trkpt>
      <trkpt lat="48.22317" lon="6.66189">
        <ele>418.79998779297</ele>
        <time>2026-09-03T14:00:02.000Z</time>
      </trkpt>
      <trkpt lat="48.22317" lon="6.66189">
        <ele>418.59997558594</ele>
        <time>2026-09-03T14:00:03.000Z</time>
      </trkpt>
      <trkpt lat="48.22317" lon="6.66189">
        <ele>418.59997558594</ele>
        <time>2026-09-03T14:00:04.000Z</time>
      </trkpt>
      <trkpt lat="48.22317" lon="6.66189">
        <ele>418.59997558594</ele>
        <time>2026-09-03T14:00:05.000Z</time>
      </trkpt>
      <trkpt lat="48.22317" lon="6.66189">
        <ele>418.59997558594</ele>
        <time>2026-09-03T14:00:06.000Z</time>
      </trkpt>
      <trkpt lat="48.22317" lon="6.66189">
        <ele>418.59997558594</ele>
        <time>2026-09-03T14:00:07.000Z</time>
      </trkpt>
      <trkpt lat="48.22317" lon="6.66189">
        <ele>418.79998779297</ele>
        <time>2026-09-03T14:00:08.000Z</time>
      </trkpt>
      <trkpt lat="48.22317" lon="6.66189">
        <ele>418.79998779297</ele>
        <time>2026-09-03T14:00:09.000Z</time>
      </trkpt>
      <trkpt lat="48.22317" lon="6.66189">
        <ele>419</ele>
        <time>2026-09-03T14:00:10.000Z</time>
      </trkpt>
      <trkpt lat="48.22317" lon="6.66189">
        <ele>419</ele>
        <time>2026-09-03T14:00:11.000Z</time>
      </trkpt>
      <trkpt lat="48.22317" lon="6.66189">
        <ele>419</ele>
        <time>2026-09-03T14:00:12.000Z</time>
      </trkpt>
      <trkpt lat="48.22317" lon="6.66189">
        <ele>419</ele>
        <time>2026-09-03T14:00:13.000Z</time>
      </trkpt>
      <trkpt lat="48.22317" lon="6.66189">
        <ele>419</ele>
        <time>2026-09-03T14:00:14.000Z</time>
      </trkpt>
      <trkpt lat="48.22317" lon="6.66189">
        <ele>419</ele>
        <time>2026-09-03T14:00:15.000Z</time>
      </trkpt>
      <trkpt lat="48.22317" lon="6.66189">
        <ele>419</ele>
        <time>2026-09-03T14:00:16.000Z</time>
      </trkpt>
      <trkpt lat="48.22317" lon="6.66189">
        <ele>419</ele>
        <time>2026-09-03T14:00:17.000Z</time>
      </trkpt>
      <trkpt lat="48.22317" lon="6.66189">
        <ele>419</ele>
        <time>2026-09-03T14:00:18.000Z</time>
      </trkpt>
      <trkpt lat="48.22317" lon="6.66189">
        <ele>419</ele>
        <time>2026-09-03T14:00:19.000Z</time>
      </trkpt>
      <trkpt lat="48.22317" lon="6.66189">
        <ele>419</ele>
        <time>2026-09-03T14:00:20.000Z</time>
      </trkpt>
      <trkpt lat="48.22317" lon="6.66189">
        <ele>419</ele>
        <time>2026-09-03T14:00:21.000Z</time>
      </trkpt>
      <trkpt lat="48.22317" lon="6.66189">
        <ele>419</ele>
        <time>2026-09-03T14:00:22.000Z</time>
      </trkpt>
      <trkpt lat="48.22317" lon="6.66189">
        <ele>419</ele>
        <time>2026-09-03T14:00:23.000Z</time>
      </trkpt>
      <trkpt lat="48.22317" lon="6.66189">
        <ele>419</ele>
        <time>2026-09-03T14:00:24.000Z</time>
      </trkpt>
      <trkpt lat="48.22317" lon="6.66189">
        <ele>419</ele>
        <time>2026-09-03T14:00:25.000Z</time>
      </trkpt>
      <trkpt lat="48.22317" lon="6.66189">
        <ele>419</ele>
        <time>2026-09-03T14:00:26.000Z</time>
      </trkpt>
      <trkpt lat="48.22317" lon="6.66189">
        <ele>419</ele>
        <time>2026-09-03T14:00:27.000Z</time>
      </trkpt>
      <trkpt lat="48.22317" lon="6.66189">
        <ele>419</ele>
        <time>2026-09-03T14:00:28.000Z</time>
      </trkpt>
      <trkpt lat="48.22317" lon="6.66189">
        <ele>419</ele>
        <time>2026-09-03T14:00:29.000Z</time>
      </trkpt>
      <trkpt lat="48.22317" lon="6.66189">
        <ele>418.79998779297</ele>
        <time>2026-09-03T14:00:30.000Z</time>
      </trkpt>
      <trkpt lat="48.22317" lon="6.66189">
        <ele>418.79998779297</ele>
        <time>2026-09-03T14:00:31.000Z</time>
      </trkpt>
      <trkpt lat="48.22317" lon="6.66189">
        <ele>418.79998779297</ele>
        <time>2026-09-03T14:00:32.000Z</time>
      </trkpt>
      <trkpt lat="48.22316" lon="6.66189">
        <ele>418.79998779297</ele>
        <time>2026-09-03T14:00:33.000Z</time>
      </trkpt>
      <trkpt lat="48.22316" lon="6.66188">
        <ele>419</ele>
        <time>2026-09-03T14:00:34.000Z</time>
      </trkpt>
      <trkpt lat="48.22316" lon="6.66188">
        <ele>419</ele>
        <time>2026-09-03T14:00:35.000Z</time>
      </trkpt>
      <trkpt lat="48.22316" lon="6.66188">
        <ele>419</ele>
        <time>2026-09-03T14:00:36.000Z</time>
      </trkpt>
      <trkpt lat="48.22316" lon="6.66188">
        <ele>419</ele>
        <time>2026-09-03T14:00:37.000Z</time>
      </trkpt>
      <trkpt lat="48.22316" lon="6.66188">
        <ele>419</ele>
        <time>2026-09-03T14:00:38.000Z</time>
      </trkpt>
      <trkpt lat="48.22316" lon="6.66188">
        <ele>419</ele>
        <time>2026-09-03T14:00:39.000Z</time>
      </trkpt>
      <trkpt lat="48.22316" lon="6.66188">
        <ele>419</ele>
        <time>2026-09-03T14:00:40.000Z</time>
      </trkpt>
      <trkpt lat="48.22316" lon="6.66188">
        <ele>419</ele>
        <time>2026-09-03T14:00:41.000Z</time>
      </trkpt>
      <trkpt lat="48.22316" lon="6.66188">
        <ele>419</ele>
        <time>2026-09-03T14:00:42.000Z</time>
      </trkpt>
      <trkpt lat="48.22316" lon="6.66188">
        <ele>418.79998779297</ele>
        <time>2026-09-03T14:00:43.000Z</time>
      </trkpt>
      <trkpt lat="48.22316" lon="6.66188">
        <ele>418.79998779297</ele>
        <time>2026-09-03T14:00:44.000Z</time>
      </trkpt>
      <trkpt lat="48.22316" lon="6.66188">
        <ele>418.79998779297</ele>
        <time>2026-09-03T14:00:45.000Z</time>
      </trkpt>
      <trkpt lat="48.22316" lon="6.66188">
        <ele>418.79998779297</ele>
        <time>2026-09-03T14:00:46.000Z</time>
      </trkpt>
      <trkpt lat="48.22316" lon="6.66186">
        <ele>418.79998779297</ele>
        <time>2026-09-03T14:00:47.000Z</time>
      </trkpt>
      <trkpt lat="48.22316" lon="6.66185">
        <ele>418.79998779297</ele>
        <time>2026-09-03T14:00:48.000Z</time>
      </trkpt>
      <trkpt lat="48.22317" lon="6.66184">
        <ele>418.79998779297</ele>
        <time>2026-09-03T14:00:49.000Z</time>
      </trkpt>
      <trkpt lat="48.22317" lon="6.66183">
        <ele>418.79998779297</ele>
        <time>2026-09-03T14:00:50.000Z</time>
      </trkpt>
      <trkpt lat="48.22318" lon="6.66182">
        <ele>418.79998779297</ele>
        <time>2026-09-03T14:00:51.000Z</time>
      </trkpt>
      <trkpt lat="48.22318" lon="6.66181">
        <ele>418.79998779297</ele>
        <time>2026-09-03T14:00:52.000Z</time>
      </trkpt>
      <trkpt lat="48.22318" lon="6.6618">
        <ele>418.79998779297</ele>
        <time>2026-09-03T14:00:53.000Z</time>
      </trkpt>
      <trkpt lat="48.22318" lon="6.66179">
        <ele>418.59997558594</ele>
        <time>2026-09-03T14:00:54.000Z</time>
      </trkpt>
      <trkpt lat="48.22318" lon="6.66178">
        <ele>418.40002441406</ele>
        <time>2026-09-03T14:00:55.000Z</time>
      </trkpt>
      <trkpt lat="48.22319" lon="6.66177">
        <ele>418.40002441406</ele>
        <time>2026-09-03T14:00:56.000Z</time>
      </trkpt>
      <trkpt lat="48.2232" lon="6.66176">
        <ele>418.40002441406</ele>
        <time>2026-09-03T14:00:57.000Z</time>
      </trkpt>
      <trkpt lat="48.2232" lon="6.66176">
        <ele>418.59997558594</ele>
        <time>2026-09-03T14:00:58.000Z</time>
      </trkpt>
      <trkpt lat="48.2232" lon="6.66174">
        <ele>418.59997558594</ele>
        <time>2026-09-03T14:00:59.000Z</time>
      </trkpt>
      <trkpt lat="48.22321" lon="6.66173">
        <ele>418.79998779297</ele>
        <time>2026-09-03T14:01:00.000Z</time>
      </trkpt>
      <trkpt lat="48.2232" lon="6.66173">
        <ele>418.79998779297</ele>
        <time>2026-09-03T14:01:01.000Z</time>
      </trkpt>
      <trkpt lat="48.22321" lon="6.66171">
        <ele>418.59997558594</ele>
        <time>2026-09-03T14:01:02.000Z</time>
      </trkpt>
      <trkpt lat="48.22321" lon="6.6617">
        <ele>418.59997558594</ele>
        <time>2026-09-03T14:01:03.000Z</time>
      </trkpt>
      <trkpt lat="48.22321" lon="6.66168">
        <ele>418.40002441406</ele>
        <time>2026-09-03T14:01:04.000Z</time>
      </trkpt>
      <trkpt lat="48.22322" lon="6.66167">
        <ele>418.40002441406</ele>
        <time>2026-09-03T14:01:05.000Z</time>
      </trkpt>
      <trkpt lat="48.22323" lon="6.66166">
        <ele>418.40002441406</ele>
        <time>2026-09-03T14:01:06.000Z</time>
      </trkpt>
      <trkpt lat="48.22323" lon="6.66165">
        <ele>418.20001220703</ele>
        <time>2026-09-03T14:01:07.000Z</time>
      </trkpt>
      <trkpt lat="48.22323" lon="6.66164">
        <ele>418.20001220703</ele>
        <time>2026-09-03T14:01:08.000Z</time>
      </trkpt>
      <trkpt lat="48.22324" lon="6.66162">
        <ele>418</ele>
        <time>2026-09-03T14:01:09.000Z</time>
      </trkpt>
      <trkpt lat="48.22324" lon="6.6616">
        <ele>418</ele>
        <time>2026-09-03T14:01:10.000Z</time>
      </trkpt>
      <trkpt lat="48.22324" lon="6.66159">
        <ele>418</ele>
        <time>2026-09-03T14:01:11.000Z</time>
      </trkpt>
      <trkpt lat="48.22325" lon="6.66158">
        <ele>417.79998779297</ele>
        <time>2026-09-03T14:01:12.000Z</time>
      </trkpt>
      <trkpt lat="48.22325" lon="6.66158">
        <ele>417.79998779297</ele>
        <time>2026-09-03T14:01:13.000Z</time>
      </trkpt>
      <trkpt lat="48.22326" lon="6.66156">
        <ele>417.59997558594</ele>
        <time>2026-09-03T14:01:14.000Z</time>
      </trkpt>
      <trkpt lat="48.22326" lon="6.66155">
        <ele>417.59997558594</ele>
        <time>2026-09-03T14:01:15.000Z</time>
      </trkpt>
      <trkpt lat="48.22328" lon="6.66155">
        <ele>417.59997558594</ele>
        <time>2026-09-03T14:01:16.000Z</time>
      </trkpt>
      <trkpt lat="48.22328" lon="6.66154">
        <ele>417.59997558594</ele>
        <time>2026-09-03T14:01:17.000Z</time>
      </trkpt>
      <trkpt lat="48.22329" lon="6.66153">
        <ele>417.59997558594</ele>
        <time>2026-09-03T14:01:18.000Z</time>
      </trkpt>
      <trkpt lat="48.2233" lon="6.66152">
        <ele>417.59997558594</ele>
        <time>2026-09-03T14:01:19.000Z</time>
      </trkpt>
      <trkpt lat="48.22331" lon="6.66151">
        <ele>417.40002441406</ele>
        <time>2026-09-03T14:01:20.000Z</time>
      </trkpt>
      <trkpt lat="48.22332" lon="6.6615">
        <ele>417.20001220703</ele>
        <time>2026-09-03T14:01:21.000Z</time>
      </trkpt>
      <trkpt lat="48.22333" lon="6.66148">
        <ele>417</ele>
        <time>2026-09-03T14:01:22.000Z</time>
      </trkpt>
      <trkpt lat="48.22333" lon="6.66147">
        <ele>417</ele>
        <time>2026-09-03T14:01:23.000Z</time>
      </trkpt>
      <trkpt lat="48.22334" lon="6.66146">
        <ele>416.79998779297</ele>
        <time>2026-09-03T14:01:24.000Z</time>
      </trkpt>
      <trkpt lat="48.22334" lon="6.66144">
        <ele>416.79998779297</ele>
        <time>2026-09-03T14:01:25.000Z</time>
      </trkpt>
      <trkpt lat="48.22335" lon="6.66143">
        <ele>416.79998779297</ele>
        <time>2026-09-03T14:01:26.000Z</time>
      </trkpt>
      <trkpt lat="48.22336" lon="6.66142">
        <ele>416.59997558594</ele>
        <time>2026-09-03T14:01:27.000Z</time>
      </trkpt>
      <trkpt lat="48.22337" lon="6.6614">
        <ele>416.59997558594</ele>
        <time>2026-09-03T14:01:28.000Z</time>
      </trkpt>
      <trkpt lat="48.22338" lon="6.66139">
        <ele>416.40002441406</ele>
        <time>2026-09-03T14:01:29.000Z</time>
      </trkpt>
      <trkpt lat="48.22338" lon="6.66138">
        <ele>416.40002441406</ele>
        <time>2026-09-03T14:01:30.000Z</time>
      </trkpt>
      <trkpt lat="48.22339" lon="6.66137">
        <ele>416.40002441406</ele>
        <time>2026-09-03T14:01:31.000Z</time>
      </trkpt>
      <trkpt lat="48.22339" lon="6.66135">
        <ele>416.20001220703</ele>
        <time>2026-09-03T14:01:32.000Z</time>
      </trkpt>
      <trkpt lat="48.2234" lon="6.66134">
        <ele>416.20001220703</ele>
        <time>2026-09-03T14:01:33.000Z</time>
      </trkpt>
      <trkpt lat="48.2234" lon="6.66133">
        <ele>416</ele>
        <time>2026-09-03T14:01:34.000Z</time>
      </trkpt>
      <trkpt lat="48.22341" lon="6.66131">
        <ele>415.79998779297</ele>
        <time>2026-09-03T14:01:35.000Z</time>
      </trkpt>
      <trkpt lat="48.22341" lon="6.66129">
        <ele>415.59997558594</ele>
        <time>2026-09-03T14:01:36.000Z</time>
      </trkpt>
      <trkpt lat="48.22342" lon="6.66128">
        <ele>415.59997558594</ele>
        <time>2026-09-03T14:01:37.000Z</time>
      </trkpt>
      <trkpt lat="48.22343" lon="6.66127">
        <ele>415.59997558594</ele>
        <time>2026-09-03T14:01:38.000Z</time>
      </trkpt>
      <trkpt lat="48.22343" lon="6.66126">
        <ele>415.40002441406</ele>
        <time>2026-09-03T14:01:39.000Z</time>
      </trkpt>
      <trkpt lat="48.22344" lon="6.66123">
        <ele>415.40002441406</ele>
        <time>2026-09-03T14:01:40.000Z</time>
      </trkpt>
      <trkpt lat="48.22345" lon="6.66122">
        <ele>415.20001220703</ele>
        <time>2026-09-03T14:01:41.000Z</time>
      </trkpt>
      <trkpt lat="48.22345" lon="6.6612">
        <ele>415.20001220703</ele>
        <time>2026-09-03T14:01:42.000Z</time>
      </trkpt>
      <trkpt lat="48.22346" lon="6.66119">
        <ele>415</ele>
        <time>2026-09-03T14:01:43.000Z</time>
      </trkpt>
      <trkpt lat="48.22347" lon="6.66118">
        <ele>415</ele>
        <time>2026-09-03T14:01:44.000Z</time>
      </trkpt>
      <trkpt lat="48.22347" lon="6.66117">
        <ele>414.79998779297</ele>
        <time>2026-09-03T14:01:45.000Z</time>
      </trkpt>
      <trkpt lat="48.22348" lon="6.66115">
        <ele>414.59997558594</ele>
        <time>2026-09-03T14:01:46.000Z</time>
      </trkpt>
      <trkpt lat="48.22349" lon="6.66113">
        <ele>414.59997558594</ele>
        <time>2026-09-03T14:01:47.000Z</time>
      </trkpt>
      <trkpt lat="48.22349" lon="6.66111">
        <ele>414.40002441406</ele>
        <time>2026-09-03T14:01:48.000Z</time>
      </trkpt>
      <trkpt lat="48.2235" lon="6.6611">
        <ele>414.40002441406</ele>
        <time>2026-09-03T14:01:49.000Z</time>
      </trkpt>
      <trkpt lat="48.22351" lon="6.66108">
        <ele>414.59997558594</ele>
        <time>2026-09-03T14:01:50.000Z</time>
      </trkpt>
      <trkpt lat="48.22351" lon="6.66107">
        <ele>414.59997558594</ele>
        <time>2026-09-03T14:01:51.000Z</time>
      </trkpt>
      <trkpt lat="48.22351" lon="6.66105">
        <ele>414.59997558594</ele>
        <time>2026-09-03T14:01:52.000Z</time>
      </trkpt>
      <trkpt lat="48.22352" lon="6.66104">
        <ele>414.59997558594</ele>
        <time>2026-09-03T14:01:53.000Z</time>
      </trkpt>
      <trkpt lat="48.22352" lon="6.66102">
        <ele>414.40002441406</ele>
        <time>2026-09-03T14:01:54.000Z</time>
      </trkpt>
      <trkpt lat="48.22354" lon="6.661">
        <ele>414.40002441406</ele>
        <time>2026-09-03T14:01:55.000Z</time>
      </trkpt>
      <trkpt lat="48.22354" lon="6.66099">
        <ele>414.20001220703</ele>
        <time>2026-09-03T14:01:56.000Z</time>
      </trkpt>
      <trkpt lat="48.22355" lon="6.66097">
        <ele>414.20001220703</ele>
        <time>2026-09-03T14:01:57.000Z</time>
      </trkpt>
      <trkpt lat="48.22356" lon="6.66095">
        <ele>414.20001220703</ele>
        <time>2026-09-03T14:01:58.000Z</time>
      </trkpt>
      <trkpt lat="48.22357" lon="6.66094">
        <ele>414</ele>
        <time>2026-09-03T14:01:59.000Z</time>
      </trkpt>
      <trkpt lat="48.22357" lon="6.66093">
        <ele>414</ele>
        <time>2026-09-03T14:02:00.000Z</time>
      </trkpt>
      <trkpt lat="48.22358" lon="6.66092">
        <ele>414</ele>
        <time>2026-09-03T14:02:01.000Z</time>
      </trkpt>
      <trkpt lat="48.22359" lon="6.6609">
        <ele>413.79998779297</ele>
        <time>2026-09-03T14:02:02.000Z</time>
      </trkpt>
      <trkpt lat="48.2236" lon="6.66088">
        <ele>413.79998779297</ele>
        <time>2026-09-03T14:02:03.000Z</time>
      </trkpt>
      <trkpt lat="48.22361" lon="6.66087">
        <ele>413.59997558594</ele>
        <time>2026-09-03T14:02:04.000Z</time>
      </trkpt>
      <trkpt lat="48.22362" lon="6.66085">
        <ele>413.59997558594</ele>
        <time>2026-09-03T14:02:05.000Z</time>
      </trkpt>
      <trkpt lat="48.22363" lon="6.66084">
        <ele>413.59997558594</ele>
        <time>2026-09-03T14:02:06.000Z</time>
      </trkpt>
      <trkpt lat="48.22363" lon="6.66083">
        <ele>413.59997558594</ele>
        <time>2026-09-03T14:02:07.000Z</time>
      </trkpt>
      <trkpt lat="48.22364" lon="6.66082">
        <ele>413.40002441406</ele>
        <time>2026-09-03T14:02:08.000Z</time>
      </trkpt>
      <trkpt lat="48.22365" lon="6.66081">
        <ele>413.40002441406</ele>
        <time>2026-09-03T14:02:09.000Z</time>
      </trkpt>
      <trkpt lat="48.22366" lon="6.66079">
        <ele>413.40002441406</ele>
        <time>2026-09-03T14:02:10.000Z</time>
      </trkpt>
      <trkpt lat="48.22366" lon="6.66078">
        <ele>413.40002441406</ele>
        <time>2026-09-03T14:02:11.000Z</time>
      </trkpt>
      <trkpt lat="48.22367" lon="6.66078">
        <ele>413.40002441406</ele>
        <time>2026-09-03T14:02:12.000Z</time>
      </trkpt>
      <trkpt lat="48.22367" lon="6.66077">
        <ele>413.20001220703</ele>
        <time>2026-09-03T14:02:13.000Z</time>
      </trkpt>
      <trkpt lat="48.22368" lon="6.66076">
        <ele>413.20001220703</ele>
        <time>2026-09-03T14:02:14.000Z</time>
      </trkpt>
      <trkpt lat="48.22369" lon="6.66075">
        <ele>413.20001220703</ele>
        <time>2026-09-03T14:02:15.000Z</time>
      </trkpt>
      <trkpt lat="48.2237" lon="6.66074">
        <ele>413</ele>
        <time>2026-09-03T14:02:16.000Z</time>
      </trkpt>
      <trkpt lat="48.2237" lon="6.66073">
        <ele>413</ele>
        <time>2026-09-03T14:02:17.000Z</time>
      </trkpt>
      <trkpt lat="48.22371" lon="6.66072">
        <ele>412.79998779297</ele>
        <time>2026-09-03T14:02:18.000Z</time>
      </trkpt>
      <trkpt lat="48.22371" lon="6.66071">
        <ele>412.79998779297</ele>
        <time>2026-09-03T14:02:19.000Z</time>
      </trkpt>
      <trkpt lat="48.22371" lon="6.6607">
        <ele>412.59997558594</ele>
        <time>2026-09-03T14:02:20.000Z</time>
      </trkpt>
      <trkpt lat="48.22372" lon="6.66068">
        <ele>412.59997558594</ele>
        <time>2026-09-03T14:02:21.000Z</time>
      </trkpt>
      <trkpt lat="48.22372" lon="6.66067">
        <ele>412.59997558594</ele>
        <time>2026-09-03T14:02:22.000Z</time>
      </trkpt>
      <trkpt lat="48.22373" lon="6.66066">
        <ele>412.40002441406</ele>
        <time>2026-09-03T14:02:23.000Z</time>
      </trkpt>
      <trkpt lat="48.22373" lon="6.66065">
        <ele>412.20001220703</ele>
        <time>2026-09-03T14:02:24.000Z</time>
      </trkpt>
      <trkpt lat="48.22375" lon="6.66064">
        <ele>412</ele>
        <time>2026-09-03T14:02:25.000Z</time>
      </trkpt>
      <trkpt lat="48.22375" lon="6.66063">
        <ele>412</ele>
        <time>2026-09-03T14:02:26.000Z</time>
      </trkpt>
      <trkpt lat="48.22376" lon="6.66063">
        <ele>411.79998779297</ele>
        <time>2026-09-03T14:02:27.000Z</time>
      </trkpt>
      <trkpt lat="48.22376" lon="6.66062">
        <ele>411.79998779297</ele>
        <time>2026-09-03T14:02:28.000Z</time>
      </trkpt>
      <trkpt lat="48.22376" lon="6.66062">
        <ele>411.59997558594</ele>
        <time>2026-09-03T14:02:29.000Z</time>
      </trkpt>
      <trkpt lat="48.22376" lon="6.66061">
        <ele>411.59997558594</ele>
        <time>2026-09-03T14:02:30.000Z</time>
      </trkpt>
      <trkpt lat="48.22378" lon="6.66059">
        <ele>411.59997558594</ele>
        <time>2026-09-03T14:02:31.000Z</time>
      </trkpt>
      <trkpt lat="48.22378" lon="6.66059">
        <ele>411.59997558594</ele>
        <time>2026-09-03T14:02:32.000Z</time>
      </trkpt>
      <trkpt lat="48.22379" lon="6.66058">
        <ele>411.59997558594</ele>
        <time>2026-09-03T14:02:33.000Z</time>
      </trkpt>
      <trkpt lat="48.22379" lon="6.66056">
        <ele>411.40002441406</ele>
        <time>2026-09-03T14:02:34.000Z</time>
      </trkpt>
      <trkpt lat="48.2238" lon="6.66055">
        <ele>411.40002441406</ele>
        <time>2026-09-03T14:02:35.000Z</time>
      </trkpt>
      <trkpt lat="48.2238" lon="6.66053">
        <ele>411.40002441406</ele>
        <time>2026-09-03T14:02:36.000Z</time>
      </trkpt>
      <trkpt lat="48.22381" lon="6.66051">
        <ele>411.20001220703</ele>
        <time>2026-09-03T14:02:37.000Z</time>
      </trkpt>
      <trkpt lat="48.22381" lon="6.6605">
        <ele>411.20001220703</ele>
        <time>2026-09-03T14:02:38.000Z</time>
      </trkpt>
      <trkpt lat="48.22382" lon="6.66049">
        <ele>411.20001220703</ele>
        <time>2026-09-03T14:02:39.000Z</time>
      </trkpt>
      <trkpt lat="48.22383" lon="6.66048">
        <ele>411.20001220703</ele>
        <time>2026-09-03T14:02:40.000Z</time>
      </trkpt>
      <trkpt lat="48.22383" lon="6.66046">
        <ele>411.20001220703</ele>
        <time>2026-09-03T14:02:41.000Z</time>
      </trkpt>
      <trkpt lat="48.22384" lon="6.66045">
        <ele>411.20001220703</ele>
        <time>2026-09-03T14:02:42.000Z</time>
      </trkpt>
      <trkpt lat="48.22385" lon="6.66044">
        <ele>411.20001220703</ele>
        <time>2026-09-03T14:02:43.000Z</time>
      </trkpt>
      <trkpt lat="48.22385" lon="6.66043">
        <ele>411.20001220703</ele>
        <time>2026-09-03T14:02:44.000Z</time>
      </trkpt>
      <trkpt lat="48.22386" lon="6.66041">
        <ele>411</ele>
        <time>2026-09-03T14:02:45.000Z</time>
      </trkpt>
      <trkpt lat="48.22386" lon="6.6604">
        <ele>411</ele>
        <time>2026-09-03T14:02:46.000Z</time>
      </trkpt>
      <trkpt lat="48.22386" lon="6.66039">
        <ele>410.79998779297</ele>
        <time>2026-09-03T14:02:47.000Z</time>
      </trkpt>
      <trkpt lat="48.22387" lon="6.66037">
        <ele>410.59997558594</ele>
        <time>2026-09-03T14:02:48.000Z</time>
      </trkpt>
      <trkpt lat="48.22387" lon="6.66035">
        <ele>410.59997558594</ele>
        <time>2026-09-03T14:02:49.000Z</time>
      </trkpt>
      <trkpt lat="48.22387" lon="6.66033">
        <ele>410.40002441406</ele>
        <time>2026-09-03T14:02:50.000Z</time>
      </trkpt>
      <trkpt lat="48.22388" lon="6.66032">
        <ele>410.20001220703</ele>
        <time>2026-09-03T14:02:51.000Z</time>
      </trkpt>
      <trkpt lat="48.22388" lon="6.66031">
        <ele>410.20001220703</ele>
        <time>2026-09-03T14:02:52.000Z</time>
      </trkpt>
      <trkpt lat="48.22389" lon="6.66029">
        <ele>410.20001220703</ele>
        <time>2026-09-03T14:02:53.000Z</time>
      </trkpt>
      <trkpt lat="48.22389" lon="6.66028">
        <ele>410.20001220703</ele>
        <time>2026-09-03T14:02:54.000Z</time>
      </trkpt>
      <trkpt lat="48.22389" lon="6.66027">
        <ele>410.20001220703</ele>
        <time>2026-09-03T14:02:55.000Z</time>
      </trkpt>
      <trkpt lat="48.22389" lon="6.66026">
        <ele>410.20001220703</ele>
        <time>2026-09-03T14:02:56.000Z</time>
      </trkpt>
      <trkpt lat="48.2239" lon="6.66025">
        <ele>410.20001220703</ele>
        <time>2026-09-03T14:02:57.000Z</time>
      </trkpt>
      <trkpt lat="48.2239" lon="6.66023">
        <ele>410.20001220703</ele>
        <time>2026-09-03T14:02:58.000Z</time>
      </trkpt>
      <trkpt lat="48.2239" lon="6.66022">
        <ele>410</ele>
        <time>2026-09-03T14:02:59.000Z</time>
      </trkpt>
      <trkpt lat="48.2239" lon="6.6602">
        <ele>409.79998779297</ele>
        <time>2026-09-03T14:03:00.000Z</time>
      </trkpt>
      <trkpt lat="48.2239" lon="6.66018">
        <ele>409.59997558594</ele>
        <time>2026-09-03T14:03:01.000Z</time>
      </trkpt>
      <trkpt lat="48.2239" lon="6.66017">
        <ele>409.59997558594</ele>
        <time>2026-09-03T14:03:02.000Z</time>
      </trkpt>
      <trkpt lat="48.22391" lon="6.66016">
        <ele>409.40002441406</ele>
        <time>2026-09-03T14:03:03.000Z</time>
      </trkpt>
      <trkpt lat="48.22391" lon="6.66014">
        <ele>409.20001220703</ele>
        <time>2026-09-03T14:03:04.000Z</time>
      </trkpt>
      <trkpt lat="48.22391" lon="6.66013">
        <ele>409.20001220703</ele>
        <time>2026-09-03T14:03:05.000Z</time>
      </trkpt>
      <trkpt lat="48.22393" lon="6.66011">
        <ele>409.20001220703</ele>
        <time>2026-09-03T14:03:06.000Z</time>
      </trkpt>
      <trkpt lat="48.22393" lon="6.66011">
        <ele>409.20001220703</ele>
        <time>2026-09-03T14:03:07.000Z</time>
      </trkpt>
      <trkpt lat="48.22393" lon="6.6601">
        <ele>409</ele>
        <time>2026-09-03T14:03:08.000Z</time>
      </trkpt>
      <trkpt lat="48.22394" lon="6.66009">
        <ele>408.79998779297</ele>
        <time>2026-09-03T14:03:09.000Z</time>
      </trkpt>
      <trkpt lat="48.22394" lon="6.66007">
        <ele>408.59997558594</ele>
        <time>2026-09-03T14:03:10.000Z</time>
      </trkpt>
      <trkpt lat="48.22394" lon="6.66005">
        <ele>408.40002441406</ele>
        <time>2026-09-03T14:03:11.000Z</time>
      </trkpt>
      <trkpt lat="48.22395" lon="6.66004">
        <ele>408.20001220703</ele>
        <time>2026-09-03T14:03:12.000Z</time>
      </trkpt>
      <trkpt lat="48.22395" lon="6.66002">
        <ele>408.20001220703</ele>
        <time>2026-09-03T14:03:13.000Z</time>
      </trkpt>
      <trkpt lat="48.22396" lon="6.66001">
        <ele>408.20001220703</ele>
        <time>2026-09-03T14:03:14.000Z</time>
      </trkpt>
      <trkpt lat="48.22396" lon="6.66">
        <ele>408.40002441406</ele>
        <time>2026-09-03T14:03:15.000Z</time>
      </trkpt>
      <trkpt lat="48.22397" lon="6.65998">
        <ele>408.40002441406</ele>
        <time>2026-09-03T14:03:16.000Z</time>
      </trkpt>
      <trkpt lat="48.22398" lon="6.65995">
        <ele>408.40002441406</ele>
        <time>2026-09-03T14:03:17.000Z</time>
      </trkpt>
      <trkpt lat="48.22398" lon="6.65994">
        <ele>408.40002441406</ele>
        <time>2026-09-03T14:03:18.000Z</time>
      </trkpt>
      <trkpt lat="48.22399" lon="6.65993">
        <ele>408.20001220703</ele>
        <time>2026-09-03T14:03:19.000Z</time>
      </trkpt>
      <trkpt lat="48.224" lon="6.65991">
        <ele>408</ele>
        <time>2026-09-03T14:03:20.000Z</time>
      </trkpt>
      <trkpt lat="48.224" lon="6.6599">
        <ele>408</ele>
        <time>2026-09-03T14:03:21.000Z</time>
      </trkpt>
      <trkpt lat="48.22401" lon="6.65988">
        <ele>407.79998779297</ele>
        <time>2026-09-03T14:03:22.000Z</time>
      </trkpt>
      <trkpt lat="48.22401" lon="6.65987">
        <ele>407.79998779297</ele>
        <time>2026-09-03T14:03:23.000Z</time>
      </trkpt>
      <trkpt lat="48.22402" lon="6.65985">
        <ele>407.59997558594</ele>
        <time>2026-09-03T14:03:24.000Z</time>
      </trkpt>
      <trkpt lat="48.22402" lon="6.65983">
        <ele>407.59997558594</ele>
        <time>2026-09-03T14:03:25.000Z</time>
      </trkpt>
      <trkpt lat="48.22403" lon="6.65981">
        <ele>407.40002441406</ele>
        <time>2026-09-03T14:03:26.000Z</time>
      </trkpt>
      <trkpt lat="48.22403" lon="6.6598">
        <ele>407.20001220703</ele>
        <time>2026-09-03T14:03:27.000Z</time>
      </trkpt>
      <trkpt lat="48.22404" lon="6.65979">
        <ele>407.20001220703</ele>
        <time>2026-09-03T14:03:28.000Z</time>
      </trkpt>
      <trkpt lat="48.22404" lon="6.65978">
        <ele>407</ele>
        <time>2026-09-03T14:03:29.000Z</time>
      </trkpt>
      <trkpt lat="48.22405" lon="6.65977">
        <ele>406.79998779297</ele>
        <time>2026-09-03T14:03:30.000Z</time>
      </trkpt>
      <trkpt lat="48.22406" lon="6.65975">
        <ele>406.59997558594</ele>
        <time>2026-09-03T14:03:31.000Z</time>
      </trkpt>
      <trkpt lat="48.22407" lon="6.65974">
        <ele>406.59997558594</ele>
        <time>2026-09-03T14:03:32.000Z</time>
      </trkpt>
      <trkpt lat="48.22407" lon="6.65974">
        <ele>406.59997558594</ele>
        <time>2026-09-03T14:03:33.000Z</time>
      </trkpt>
      <trkpt lat="48.22408" lon="6.65973">
        <ele>406.59997558594</ele>
        <time>2026-09-03T14:03:34.000Z</time>
      </trkpt>
      <trkpt lat="48.22408" lon="6.65971">
        <ele>406.59997558594</ele>
        <time>2026-09-03T14:03:35.000Z</time>
      </trkpt>
      <trkpt lat="48.22408" lon="6.6597">
        <ele>406.40002441406</ele>
        <time>2026-09-03T14:03:36.000Z</time>
      </trkpt>
      <trkpt lat="48.22409" lon="6.65968">
        <ele>406.20001220703</ele>
        <time>2026-09-03T14:03:37.000Z</time>
      </trkpt>
      <trkpt lat="48.22409" lon="6.65967">
        <ele>406.20001220703</ele>
        <time>2026-09-03T14:03:38.000Z</time>
      </trkpt>
      <trkpt lat="48.22409" lon="6.65967">
        <ele>406</ele>
        <time>2026-09-03T14:03:39.000Z</time>
      </trkpt>
      <trkpt lat="48.22409" lon="6.65965">
        <ele>405.79998779297</ele>
        <time>2026-09-03T14:03:40.000Z</time>
      </trkpt>
      <trkpt lat="48.22408" lon="6.65964">
        <ele>405.59997558594</ele>
        <time>2026-09-03T14:03:41.000Z</time>
      </trkpt>
      <trkpt lat="48.22408" lon="6.65962">
        <ele>405.59997558594</ele>
        <time>2026-09-03T14:03:42.000Z</time>
      </trkpt>
      <trkpt lat="48.22409" lon="6.65961">
        <ele>405.40002441406</ele>
        <time>2026-09-03T14:03:43.000Z</time>
      </trkpt>
      <trkpt lat="48.22409" lon="6.6596">
        <ele>405.20001220703</ele>
        <time>2026-09-03T14:03:44.000Z</time>
      </trkpt>
      <trkpt lat="48.22408" lon="6.65959">
        <ele>405.20001220703</ele>
        <time>2026-09-03T14:03:45.000Z</time>
      </trkpt>
      <trkpt lat="48.22408" lon="6.65959">
        <ele>405</ele>
        <time>2026-09-03T14:03:46.000Z</time>
      </trkpt>
      <trkpt lat="48.22407" lon="6.65957">
        <ele>405</ele>
        <time>2026-09-03T14:03:47.000Z</time>
      </trkpt>
      <trkpt lat="48.22407" lon="6.65955">
        <ele>404.79998779297</ele>
        <time>2026-09-03T14:03:48.000Z</time>
      </trkpt>
      <trkpt lat="48.22408" lon="6.65954">
        <ele>404.59997558594</ele>
        <time>2026-09-03T14:03:49.000Z</time>
      </trkpt>
      <trkpt lat="48.22407" lon="6.65953">
        <ele>404.59997558594</ele>
        <time>2026-09-03T14:03:50.000Z</time>
      </trkpt>
      <trkpt lat="48.22407" lon="6.65952">
        <ele>404.59997558594</ele>
        <time>2026-09-03T14:03:51.000Z</time>
      </trkpt>
      <trkpt lat="48.22407" lon="6.6595">
        <ele>404.40002441406</ele>
        <time>2026-09-03T14:03:52.000Z</time>
      </trkpt>
      <trkpt lat="48.22407" lon="6.65948">
        <ele>404.40002441406</ele>
        <time>2026-09-03T14:03:53.000Z</time>
      </trkpt>
      <trkpt lat="48.22406" lon="6.65946">
        <ele>404.40002441406</ele>
        <time>2026-09-03T14:03:54.000Z</time>
      </trkpt>
      <trkpt lat="48.22406" lon="6.65945">
        <ele>404.20001220703</ele>
        <time>2026-09-03T14:03:55.000Z</time>
      </trkpt>
      <trkpt lat="48.22406" lon="6.65945">
        <ele>404.20001220703</ele>
        <time>2026-09-03T14:03:56.000Z</time>
      </trkpt>
      <trkpt lat="48.22406" lon="6.65943">
        <ele>404</ele>
        <time>2026-09-03T14:03:57.000Z</time>
      </trkpt>
      <trkpt lat="48.22406" lon="6.65942">
        <ele>403.79998779297</ele>
        <time>2026-09-03T14:03:58.000Z</time>
      </trkpt>
      <trkpt lat="48.22405" lon="6.65941">
        <ele>403.59997558594</ele>
        <time>2026-09-03T14:03:59.000Z</time>
      </trkpt>
      <trkpt lat="48.22405" lon="6.65939">
        <ele>403.40002441406</ele>
        <time>2026-09-03T14:04:00.000Z</time>
      </trkpt>
      <trkpt lat="48.22404" lon="6.65937">
        <ele>403.40002441406</ele>
        <time>2026-09-03T14:04:01.000Z</time>
      </trkpt>
      <trkpt lat="48.22404" lon="6.65936">
        <ele>403.20001220703</ele>
        <time>2026-09-03T14:04:02.000Z</time>
      </trkpt>
      <trkpt lat="48.22404" lon="6.65936">
        <ele>403</ele>
        <time>2026-09-03T14:04:03.000Z</time>
      </trkpt>
      <trkpt lat="48.22403" lon="6.65935">
        <ele>403</ele>
        <time>2026-09-03T14:04:04.000Z</time>
      </trkpt>
      <trkpt lat="48.22403" lon="6.65934">
        <ele>402.79998779297</ele>
        <time>2026-09-03T14:04:05.000Z</time>
      </trkpt>
      <trkpt lat="48.22402" lon="6.65933">
        <ele>402.79998779297</ele>
        <time>2026-09-03T14:04:06.000Z</time>
      </trkpt>
      <trkpt lat="48.22401" lon="6.65932">
        <ele>402.59997558594</ele>
        <time>2026-09-03T14:04:07.000Z</time>
      </trkpt>
      <trkpt lat="48.224" lon="6.65931">
        <ele>402.59997558594</ele>
        <time>2026-09-03T14:04:08.000Z</time>
      </trkpt>
      <trkpt lat="48.224" lon="6.6593">
        <ele>402.59997558594</ele>
        <time>2026-09-03T14:04:09.000Z</time>
      </trkpt>
      <trkpt lat="48.22399" lon="6.65929">
        <ele>402.40002441406</ele>
        <time>2026-09-03T14:04:10.000Z</time>
      </trkpt>
      <trkpt lat="48.22399" lon="6.65928">
        <ele>402.40002441406</ele>
        <time>2026-09-03T14:04:11.000Z</time>
      </trkpt>
      <trkpt lat="48.22398" lon="6.65927">
        <ele>402.20001220703</ele>
        <time>2026-09-03T14:04:12.000Z</time>
      </trkpt>
      <trkpt lat="48.22397" lon="6.65925">
        <ele>402.20001220703</ele>
        <time>2026-09-03T14:04:13.000Z</time>
      </trkpt>
      <trkpt lat="48.22397" lon="6.65924">
        <ele>402</ele>
        <time>2026-09-03T14:04:14.000Z</time>
      </trkpt>
      <trkpt lat="48.22396" lon="6.65923">
        <ele>402</ele>
        <time>2026-09-03T14:04:15.000Z</time>
      </trkpt>
      <trkpt lat="48.22395" lon="6.65921">
        <ele>401.79998779297</ele>
        <time>2026-09-03T14:04:16.000Z</time>
      </trkpt>
      <trkpt lat="48.22394" lon="6.6592">
        <ele>401.59997558594</ele>
        <time>2026-09-03T14:04:17.000Z</time>
      </trkpt>
      <trkpt lat="48.22394" lon="6.65919">
        <ele>401.59997558594</ele>
        <time>2026-09-03T14:04:18.000Z</time>
      </trkpt>
      <trkpt lat="48.22394" lon="6.65917">
        <ele>401.40002441406</ele>
        <time>2026-09-03T14:04:19.000Z</time>
      </trkpt>
      <trkpt lat="48.22393" lon="6.65916">
        <ele>401.40002441406</ele>
        <time>2026-09-03T14:04:20.000Z</time>
      </trkpt>
      <trkpt lat="48.22393" lon="6.65915">
        <ele>401.40002441406</ele>
        <time>2026-09-03T14:04:21.000Z</time>
      </trkpt>
      <trkpt lat="48.22392" lon="6.65914">
        <ele>401.40002441406</ele>
        <time>2026-09-03T14:04:22.000Z</time>
      </trkpt>
      <trkpt lat="48.22391" lon="6.65912">
        <ele>401.40002441406</ele>
        <time>2026-09-03T14:04:23.000Z</time>
      </trkpt>
      <trkpt lat="48.2239" lon="6.6591">
        <ele>401.40002441406</ele>
        <time>2026-09-03T14:04:24.000Z</time>
      </trkpt>
      <trkpt lat="48.2239" lon="6.65909">
        <ele>401.40002441406</ele>
        <time>2026-09-03T14:04:25.000Z</time>
      </trkpt>
      <trkpt lat="48.22389" lon="6.65907">
        <ele>401.20001220703</ele>
        <time>2026-09-03T14:04:26.000Z</time>
      </trkpt>
      <trkpt lat="48.22388" lon="6.65905">
        <ele>401</ele>
        <time>2026-09-03T14:04:27.000Z</time>
      </trkpt>
      <trkpt lat="48.22388" lon="6.65904">
        <ele>401</ele>
        <time>2026-09-03T14:04:28.000Z</time>
      </trkpt>
      <trkpt lat="48.22387" lon="6.65903">
        <ele>400.79998779297</ele>
        <time>2026-09-03T14:04:29.000Z</time>
      </trkpt>
      <trkpt lat="48.22387" lon="6.659">
        <ele>400.79998779297</ele>
        <time>2026-09-03T14:04:30.000Z</time>
      </trkpt>
      <trkpt lat="48.22387" lon="6.65898">
        <ele>400.59997558594</ele>
        <time>2026-09-03T14:04:31.000Z</time>
      </trkpt>
      <trkpt lat="48.22386" lon="6.65896">
        <ele>400.40002441406</ele>
        <time>2026-09-03T14:04:32.000Z</time>
      </trkpt>
      <trkpt lat="48.22386" lon="6.65895">
        <ele>400.40002441406</ele>
        <time>2026-09-03T14:04:33.000Z</time>
      </trkpt>
      <trkpt lat="48.22386" lon="6.65893">
        <ele>400.20001220703</ele>
        <time>2026-09-03T14:04:34.000Z</time>
      </trkpt>
      <trkpt lat="48.22386" lon="6.6589">
        <ele>400.20001220703</ele>
        <time>2026-09-03T14:04:35.000Z</time>
      </trkpt>
      <trkpt lat="48.22386" lon="6.65888">
        <ele>400.20001220703</ele>
        <time>2026-09-03T14:04:36.000Z</time>
      </trkpt>
      <trkpt lat="48.22386" lon="6.65886">
        <ele>400</ele>
        <time>2026-09-03T14:04:37.000Z</time>
      </trkpt>
      <trkpt lat="48.22385" lon="6.65885">
        <ele>399.79998779297</ele>
        <time>2026-09-03T14:04:38.000Z</time>
      </trkpt>
      <trkpt lat="48.22385" lon="6.65883">
        <ele>399.79998779297</ele>
        <time>2026-09-03T14:04:39.000Z</time>
      </trkpt>
      <trkpt lat="48.22385" lon="6.65882">
        <ele>399.59997558594</ele>
        <time>2026-09-03T14:04:40.000Z</time>
      </trkpt>
      <trkpt lat="48.22385" lon="6.6588">
        <ele>399.59997558594</ele>
        <time>2026-09-03T14:04:41.000Z</time>
      </trkpt>
      <trkpt lat="48.22385" lon="6.65877">
        <ele>399.40002441406</ele>
        <time>2026-09-03T14:04:42.000Z</time>
      </trkpt>
      <trkpt lat="48.22385" lon="6.65875">
        <ele>399.40002441406</ele>
        <time>2026-09-03T14:04:43.000Z</time>
      </trkpt>
      <trkpt lat="48.22384" lon="6.65873">
        <ele>399.40002441406</ele>
        <time>2026-09-03T14:04:44.000Z</time>
      </trkpt>
      <trkpt lat="48.22384" lon="6.65872">
        <ele>399.40002441406</ele>
        <time>2026-09-03T14:04:45.000Z</time>
      </trkpt>
      <trkpt lat="48.22384" lon="6.65871">
        <ele>399.40002441406</ele>
        <time>2026-09-03T14:04:46.000Z</time>
      </trkpt>
      <trkpt lat="48.22384" lon="6.65869">
        <ele>399.40002441406</ele>
        <time>2026-09-03T14:04:47.000Z</time>
      </trkpt>
      <trkpt lat="48.22384" lon="6.65867">
        <ele>399.40002441406</ele>
        <time>2026-09-03T14:04:48.000Z</time>
      </trkpt>
      <trkpt lat="48.22384" lon="6.65866">
        <ele>399.40002441406</ele>
        <time>2026-09-03T14:04:49.000Z</time>
      </trkpt>
      <trkpt lat="48.22383" lon="6.65864">
        <ele>399.20001220703</ele>
        <time>2026-09-03T14:04:50.000Z</time>
      </trkpt>
      <trkpt lat="48.22383" lon="6.65863">
        <ele>399.20001220703</ele>
        <time>2026-09-03T14:04:51.000Z</time>
      </trkpt>
      <trkpt lat="48.22383" lon="6.65862">
        <ele>399</ele>
        <time>2026-09-03T14:04:52.000Z</time>
      </trkpt>
      <trkpt lat="48.22383" lon="6.6586">
        <ele>399</ele>
        <time>2026-09-03T14:04:53.000Z</time>
      </trkpt>
      <trkpt lat="48.22382" lon="6.65859">
        <ele>398.79998779297</ele>
        <time>2026-09-03T14:04:54.000Z</time>
      </trkpt>
      <trkpt lat="48.22382" lon="6.65858">
        <ele>398.79998779297</ele>
        <time>2026-09-03T14:04:55.000Z</time>
      </trkpt>
      <trkpt lat="48.22382" lon="6.65857">
        <ele>398.79998779297</ele>
        <time>2026-09-03T14:04:56.000Z</time>
      </trkpt>
      <trkpt lat="48.22382" lon="6.65857">
        <ele>398.59997558594</ele>
        <time>2026-09-03T14:04:57.000Z</time>
      </trkpt>
      <trkpt lat="48.22381" lon="6.65856">
        <ele>398.59997558594</ele>
        <time>2026-09-03T14:04:58.000Z</time>
      </trkpt>
      <trkpt lat="48.22381" lon="6.65855">
        <ele>398.59997558594</ele>
        <time>2026-09-03T14:04:59.000Z</time>
      </trkpt>
      <trkpt lat="48.2238" lon="6.65854">
        <ele>398.40002441406</ele>
        <time>2026-09-03T14:05:00.000Z</time>
      </trkpt>
      <trkpt lat="48.2238" lon="6.65854">
        <ele>398.40002441406</ele>
        <time>2026-09-03T14:05:01.000Z</time>
      </trkpt>
      <trkpt lat="48.22379" lon="6.65853">
        <ele>398.40002441406</ele>
        <time>2026-09-03T14:05:02.000Z</time>
      </trkpt>
      <trkpt lat="48.22379" lon="6.65853">
        <ele>398.20001220703</ele>
        <time>2026-09-03T14:05:03.000Z</time>
      </trkpt>
      <trkpt lat="48.22378" lon="6.65851">
        <ele>398.20001220703</ele>
        <time>2026-09-03T14:05:04.000Z</time>
      </trkpt>
      <trkpt lat="48.22377" lon="6.65849">
        <ele>398.20001220703</ele>
        <time>2026-09-03T14:05:05.000Z</time>
      </trkpt>
      <trkpt lat="48.22376" lon="6.65849">
        <ele>398.20001220703</ele>
        <time>2026-09-03T14:05:06.000Z</time>
      </trkpt>
      <trkpt lat="48.22376" lon="6.65847">
        <ele>398</ele>
        <time>2026-09-03T14:05:07.000Z</time>
      </trkpt>
      <trkpt lat="48.22375" lon="6.65846">
        <ele>398</ele>
        <time>2026-09-03T14:05:08.000Z</time>
      </trkpt>
      <trkpt lat="48.22375" lon="6.65844">
        <ele>398</ele>
        <time>2026-09-03T14:05:09.000Z</time>
      </trkpt>
      <trkpt lat="48.22374" lon="6.65843">
        <ele>398</ele>
        <time>2026-09-03T14:05:10.000Z</time>
      </trkpt>
      <trkpt lat="48.22373" lon="6.6584">
        <ele>397.79998779297</ele>
        <time>2026-09-03T14:05:11.000Z</time>
      </trkpt>
      <trkpt lat="48.22372" lon="6.65839">
        <ele>397.79998779297</ele>
        <time>2026-09-03T14:05:12.000Z</time>
      </trkpt>
      <trkpt lat="48.22371" lon="6.65838">
        <ele>397.59997558594</ele>
        <time>2026-09-03T14:05:13.000Z</time>
      </trkpt>
      <trkpt lat="48.22371" lon="6.65836">
        <ele>397.59997558594</ele>
        <time>2026-09-03T14:05:14.000Z</time>
      </trkpt>
      <trkpt lat="48.2237" lon="6.65835">
        <ele>397.59997558594</ele>
        <time>2026-09-03T14:05:15.000Z</time>
      </trkpt>
      <trkpt lat="48.2237" lon="6.65834">
        <ele>397.40002441406</ele>
        <time>2026-09-03T14:05:16.000Z</time>
      </trkpt>
      <trkpt lat="48.22369" lon="6.65832">
        <ele>397.40002441406</ele>
        <time>2026-09-03T14:05:17.000Z</time>
      </trkpt>
      <trkpt lat="48.22367" lon="6.6583">
        <ele>397.40002441406</ele>
        <time>2026-09-03T14:05:18.000Z</time>
      </trkpt>
      <trkpt lat="48.22367" lon="6.65829">
        <ele>397.40002441406</ele>
        <time>2026-09-03T14:05:19.000Z</time>
      </trkpt>
      <trkpt lat="48.22366" lon="6.65827">
        <ele>397.40002441406</ele>
        <time>2026-09-03T14:05:20.000Z</time>
      </trkpt>
      <trkpt lat="48.22365" lon="6.65827">
        <ele>397.40002441406</ele>
        <time>2026-09-03T14:05:21.000Z</time>
      </trkpt>
      <trkpt lat="48.22364" lon="6.65826">
        <ele>397.40002441406</ele>
        <time>2026-09-03T14:05:22.000Z</time>
      </trkpt>
      <trkpt lat="48.22364" lon="6.65825">
        <ele>397.40002441406</ele>
        <time>2026-09-03T14:05:23.000Z</time>
      </trkpt>
      <trkpt lat="48.22363" lon="6.65824">
        <ele>397.40002441406</ele>
        <time>2026-09-03T14:05:24.000Z</time>
      </trkpt>
      <trkpt lat="48.22363" lon="6.65822">
        <ele>397.40002441406</ele>
        <time>2026-09-03T14:05:25.000Z</time>
      </trkpt>
      <trkpt lat="48.22362" lon="6.6582">
        <ele>397.40002441406</ele>
        <time>2026-09-03T14:05:26.000Z</time>
      </trkpt>
      <trkpt lat="48.22361" lon="6.65819">
        <ele>397.20001220703</ele>
        <time>2026-09-03T14:05:27.000Z</time>
      </trkpt>
      <trkpt lat="48.2236" lon="6.65818">
        <ele>397.20001220703</ele>
        <time>2026-09-03T14:05:28.000Z</time>
      </trkpt>
      <trkpt lat="48.22359" lon="6.65817">
        <ele>397.20001220703</ele>
        <time>2026-09-03T14:05:29.000Z</time>
      </trkpt>
      <trkpt lat="48.22359" lon="6.65817">
        <ele>397.20001220703</ele>
        <time>2026-09-03T14:05:30.000Z</time>
      </trkpt>
      <trkpt lat="48.22358" lon="6.65816">
        <ele>397</ele>
        <time>2026-09-03T14:05:31.000Z</time>
      </trkpt>
      <trkpt lat="48.22358" lon="6.65814">
        <ele>397</ele>
        <time>2026-09-03T14:05:32.000Z</time>
      </trkpt>
      <trkpt lat="48.22357" lon="6.65813">
        <ele>397</ele>
        <time>2026-09-03T14:05:33.000Z</time>
      </trkpt>
      <trkpt lat="48.22357" lon="6.65812">
        <ele>397</ele>
        <time>2026-09-03T14:05:34.000Z</time>
      </trkpt>
      <trkpt lat="48.22356" lon="6.65811">
        <ele>397</ele>
        <time>2026-09-03T14:05:35.000Z</time>
      </trkpt>
      <trkpt lat="48.22356" lon="6.6581">
        <ele>396.79998779297</ele>
        <time>2026-09-03T14:05:36.000Z</time>
      </trkpt>
      <trkpt lat="48.22355" lon="6.65809">
        <ele>396.79998779297</ele>
        <time>2026-09-03T14:05:37.000Z</time>
      </trkpt>
      <trkpt lat="48.22355" lon="6.6581">
        <ele>396.79998779297</ele>
        <time>2026-09-03T14:05:38.000Z</time>
      </trkpt>
      <trkpt lat="48.22355" lon="6.65811">
        <ele>396.59997558594</ele>
        <time>2026-09-03T14:05:39.000Z</time>
      </trkpt>
      <trkpt lat="48.22355" lon="6.6581">
        <ele>396.20001220703</ele>
        <time>2026-09-03T14:05:40.000Z</time>
      </trkpt>
      <trkpt lat="48.22355" lon="6.65809">
        <ele>396</ele>
        <time>2026-09-03T14:05:41.000Z</time>
      </trkpt>
      <trkpt lat="48.22354" lon="6.65809">
        <ele>396</ele>
        <time>2026-09-03T14:05:42.000Z</time>
      </trkpt>
      <trkpt lat="48.22353" lon="6.65808">
        <ele>396</ele>
        <time>2026-09-03T14:05:43.000Z</time>
      </trkpt>
      <trkpt lat="48.22353" lon="6.65807">
        <ele>396</ele>
        <time>2026-09-03T14:05:44.000Z</time>
      </trkpt>
      <trkpt lat="48.22352" lon="6.65806">
        <ele>396.20001220703</ele>
        <time>2026-09-03T14:05:45.000Z</time>
      </trkpt>
      <trkpt lat="48.22351" lon="6.65805">
        <ele>396.40002441406</ele>
        <time>2026-09-03T14:05:46.000Z</time>
      </trkpt>
      <trkpt lat="48.2235" lon="6.65804">
        <ele>396.40002441406</ele>
        <time>2026-09-03T14:05:47.000Z</time>
      </trkpt>
      <trkpt lat="48.22349" lon="6.65803">
        <ele>396.40002441406</ele>
        <time>2026-09-03T14:05:48.000Z</time>
      </trkpt>
      <trkpt lat="48.22348" lon="6.65802">
        <ele>396.40002441406</ele>
        <time>2026-09-03T14:05:49.000Z</time>
      </trkpt>
      <trkpt lat="48.22347" lon="6.65801">
        <ele>396.40002441406</ele>
        <time>2026-09-03T14:05:50.000Z</time>
      </trkpt>
      <trkpt lat="48.22347" lon="6.658">
        <ele>396.20001220703</ele>
        <time>2026-09-03T14:05:51.000Z</time>
      </trkpt>
      <trkpt lat="48.22346" lon="6.65799">
        <ele>396.20001220703</ele>
        <time>2026-09-03T14:05:52.000Z</time>
      </trkpt>
      <trkpt lat="48.22345" lon="6.65797">
        <ele>396</ele>
        <time>2026-09-03T14:05:53.000Z</time>
      </trkpt>
      <trkpt lat="48.22344" lon="6.65797">
        <ele>396</ele>
        <time>2026-09-03T14:05:54.000Z</time>
      </trkpt>
      <trkpt lat="48.22343" lon="6.65796">
        <ele>395.79998779297</ele>
        <time>2026-09-03T14:05:55.000Z</time>
      </trkpt>
      <trkpt lat="48.22342" lon="6.65796">
        <ele>395.79998779297</ele>
        <time>2026-09-03T14:05:56.000Z</time>
      </trkpt>
      <trkpt lat="48.22341" lon="6.65796">
        <ele>395.79998779297</ele>
        <time>2026-09-03T14:05:57.000Z</time>
      </trkpt>
      <trkpt lat="48.22339" lon="6.65795">
        <ele>395.59997558594</ele>
        <time>2026-09-03T14:05:58.000Z</time>
      </trkpt>
      <trkpt lat="48.22338" lon="6.65793">
        <ele>395.59997558594</ele>
        <time>2026-09-03T14:05:59.000Z</time>
      </trkpt>
      <trkpt lat="48.22337" lon="6.65793">
        <ele>395.59997558594</ele>
        <time>2026-09-03T14:06:00.000Z</time>
      </trkpt>
      <trkpt lat="48.22335" lon="6.65794">
        <ele>395.59997558594</ele>
        <time>2026-09-03T14:06:01.000Z</time>
      </trkpt>
      <trkpt lat="48.22335" lon="6.65793">
        <ele>395.40002441406</ele>
        <time>2026-09-03T14:06:02.000Z</time>
      </trkpt>
      <trkpt lat="48.22334" lon="6.65793">
        <ele>395.40002441406</ele>
        <time>2026-09-03T14:06:03.000Z</time>
      </trkpt>
      <trkpt lat="48.22332" lon="6.65792">
        <ele>395.40002441406</ele>
        <time>2026-09-03T14:06:04.000Z</time>
      </trkpt>
      <trkpt lat="48.22331" lon="6.65792">
        <ele>395.20001220703</ele>
        <time>2026-09-03T14:06:05.000Z</time>
      </trkpt>
      <trkpt lat="48.2233" lon="6.65791">
        <ele>395.20001220703</ele>
        <time>2026-09-03T14:06:06.000Z</time>
      </trkpt>
      <trkpt lat="48.22329" lon="6.65791">
        <ele>395.20001220703</ele>
        <time>2026-09-03T14:06:07.000Z</time>
      </trkpt>
      <trkpt lat="48.22328" lon="6.65791">
        <ele>395.20001220703</ele>
        <time>2026-09-03T14:06:08.000Z</time>
      </trkpt>
      <trkpt lat="48.22327" lon="6.65791">
        <ele>395</ele>
        <time>2026-09-03T14:06:09.000Z</time>
      </trkpt>
      <trkpt lat="48.22326" lon="6.65791">
        <ele>395</ele>
        <time>2026-09-03T14:06:10.000Z</time>
      </trkpt>
      <trkpt lat="48.22325" lon="6.65791">
        <ele>395</ele>
        <time>2026-09-03T14:06:11.000Z</time>
      </trkpt>
      <trkpt lat="48.22324" lon="6.65791">
        <ele>395</ele>
        <time>2026-09-03T14:06:12.000Z</time>
      </trkpt>
      <trkpt lat="48.22323" lon="6.65792">
        <ele>395</ele>
        <time>2026-09-03T14:06:13.000Z</time>
      </trkpt>
      <trkpt lat="48.22322" lon="6.65792">
        <ele>395</ele>
        <time>2026-09-03T14:06:14.000Z</time>
      </trkpt>
      <trkpt lat="48.22321" lon="6.65792">
        <ele>395</ele>
        <time>2026-09-03T14:06:15.000Z</time>
      </trkpt>
      <trkpt lat="48.22319" lon="6.65792">
        <ele>394.79998779297</ele>
        <time>2026-09-03T14:06:16.000Z</time>
      </trkpt>
      <trkpt lat="48.22318" lon="6.65792">
        <ele>394.79998779297</ele>
        <time>2026-09-03T14:06:17.000Z</time>
      </trkpt>
      <trkpt lat="48.22317" lon="6.65792">
        <ele>394.79998779297</ele>
        <time>2026-09-03T14:06:18.000Z</time>
      </trkpt>
      <trkpt lat="48.22316" lon="6.65792">
        <ele>394.59997558594</ele>
        <time>2026-09-03T14:06:19.000Z</time>
      </trkpt>
      <trkpt lat="48.22315" lon="6.65792">
        <ele>394.59997558594</ele>
        <time>2026-09-03T14:06:20.000Z</time>
      </trkpt>
      <trkpt lat="48.22315" lon="6.65792">
        <ele>394.59997558594</ele>
        <time>2026-09-03T14:06:21.000Z</time>
      </trkpt>
      <trkpt lat="48.22313" lon="6.65792">
        <ele>394.59997558594</ele>
        <time>2026-09-03T14:06:22.000Z</time>
      </trkpt>
      <trkpt lat="48.22312" lon="6.65792">
        <ele>394.59997558594</ele>
        <time>2026-09-03T14:06:23.000Z</time>
      </trkpt>
      <trkpt lat="48.22311" lon="6.65793">
        <ele>394.40002441406</ele>
        <time>2026-09-03T14:06:24.000Z</time>
      </trkpt>
      <trkpt lat="48.2231" lon="6.65793">
        <ele>394.40002441406</ele>
        <time>2026-09-03T14:06:25.000Z</time>
      </trkpt>
      <trkpt lat="48.2231" lon="6.65793">
        <ele>394.40002441406</ele>
        <time>2026-09-03T14:06:26.000Z</time>
      </trkpt>
      <trkpt lat="48.22309" lon="6.65792">
        <ele>394.40002441406</ele>
        <time>2026-09-03T14:06:27.000Z</time>
      </trkpt>
      <trkpt lat="48.22307" lon="6.65792">
        <ele>394.40002441406</ele>
        <time>2026-09-03T14:06:28.000Z</time>
      </trkpt>
      <trkpt lat="48.22306" lon="6.65792">
        <ele>394.40002441406</ele>
        <time>2026-09-03T14:06:29.000Z</time>
      </trkpt>
      <trkpt lat="48.22304" lon="6.65792">
        <ele>394.40002441406</ele>
        <time>2026-09-03T14:06:30.000Z</time>
      </trkpt>
      <trkpt lat="48.22304" lon="6.65792">
        <ele>394.40002441406</ele>
        <time>2026-09-03T14:06:31.000Z</time>
      </trkpt>
      <trkpt lat="48.22303" lon="6.65792">
        <ele>394.40002441406</ele>
        <time>2026-09-03T14:06:32.000Z</time>
      </trkpt>
      <trkpt lat="48.22302" lon="6.65791">
        <ele>394.40002441406</ele>
        <time>2026-09-03T14:06:33.000Z</time>
      </trkpt>
      <trkpt lat="48.22301" lon="6.65791">
        <ele>394.40002441406</ele>
        <time>2026-09-03T14:06:34.000Z</time>
      </trkpt>
      <trkpt lat="48.223" lon="6.65791">
        <ele>394.40002441406</ele>
        <time>2026-09-03T14:06:35.000Z</time>
      </trkpt>
      <trkpt lat="48.22299" lon="6.6579">
        <ele>394.40002441406</ele>
        <time>2026-09-03T14:06:36.000Z</time>
      </trkpt>
      <trkpt lat="48.22298" lon="6.6579">
        <ele>394.40002441406</ele>
        <time>2026-09-03T14:06:37.000Z</time>
      </trkpt>
      <trkpt lat="48.22296" lon="6.65789">
        <ele>394.40002441406</ele>
        <time>2026-09-03T14:06:38.000Z</time>
      </trkpt>
      <trkpt lat="48.22295" lon="6.65788">
        <ele>394.40002441406</ele>
        <time>2026-09-03T14:06:39.000Z</time>
      </trkpt>
      <trkpt lat="48.22293" lon="6.65788">
        <ele>394.20001220703</ele>
        <time>2026-09-03T14:06:40.000Z</time>
      </trkpt>
      <trkpt lat="48.22292" lon="6.65787">
        <ele>394.20001220703</ele>
        <time>2026-09-03T14:06:41.000Z</time>
      </trkpt>
      <trkpt lat="48.22291" lon="6.65787">
        <ele>394.20001220703</ele>
        <time>2026-09-03T14:06:42.000Z</time>
      </trkpt>
      <trkpt lat="48.2229" lon="6.65787">
        <ele>394.20001220703</ele>
        <time>2026-09-03T14:06:43.000Z</time>
      </trkpt>
      <trkpt lat="48.2229" lon="6.65787">
        <ele>394.20001220703</ele>
        <time>2026-09-03T14:06:44.000Z</time>
      </trkpt>
      <trkpt lat="48.2229" lon="6.65787">
        <ele>394.20001220703</ele>
        <time>2026-09-03T14:06:45.000Z</time>
      </trkpt>
      <trkpt lat="48.2229" lon="6.65787">
        <ele>394.20001220703</ele>
        <time>2026-09-03T14:06:46.000Z</time>
      </trkpt>
      <trkpt lat="48.2229" lon="6.65787">
        <ele>394</ele>
        <time>2026-09-03T14:06:47.000Z</time>
      </trkpt>
      <trkpt lat="48.22289" lon="6.65787">
        <ele>394</ele>
        <time>2026-09-03T14:06:48.000Z</time>
      </trkpt>
      <trkpt lat="48.2229" lon="6.65787">
        <ele>394</ele>
        <time>2026-09-03T14:06:49.000Z</time>
      </trkpt>
      <trkpt lat="48.2229" lon="6.65787">
        <ele>394</ele>
        <time>2026-09-03T14:06:50.000Z</time>
      </trkpt>
      <trkpt lat="48.2229" lon="6.65787">
        <ele>394</ele>
        <time>2026-09-03T14:06:51.000Z</time>
      </trkpt>
      <trkpt lat="48.22289" lon="6.65786">
        <ele>394.20001220703</ele>
        <time>2026-09-03T14:06:52.000Z</time>
      </trkpt>
      <trkpt lat="48.22288" lon="6.65786">
        <ele>394.20001220703</ele>
        <time>2026-09-03T14:06:53.000Z</time>
      </trkpt>
      <trkpt lat="48.22287" lon="6.65785">
        <ele>394.20001220703</ele>
        <time>2026-09-03T14:06:54.000Z</time>
      </trkpt>
      <trkpt lat="48.22287" lon="6.65785">
        <ele>394.20001220703</ele>
        <time>2026-09-03T14:06:55.000Z</time>
      </trkpt>
      <trkpt lat="48.22286" lon="6.65785">
        <ele>394.40002441406</ele>
        <time>2026-09-03T14:06:56.000Z</time>
      </trkpt>
      <trkpt lat="48.22286" lon="6.65785">
        <ele>394.40002441406</ele>
        <time>2026-09-03T14:06:57.000Z</time>
      </trkpt>
      <trkpt lat="48.22285" lon="6.65785">
        <ele>394.40002441406</ele>
        <time>2026-09-03T14:06:58.000Z</time>
      </trkpt>
      <trkpt lat="48.22285" lon="6.65786">
        <ele>394.40002441406</ele>
        <time>2026-09-03T14:06:59.000Z</time>
      </trkpt>
      <trkpt lat="48.22284" lon="6.65785">
        <ele>394.40002441406</ele>
        <time>2026-09-03T14:07:00.000Z</time>
      </trkpt>
      <trkpt lat="48.22284" lon="6.65785">
        <ele>394.40002441406</ele>
        <time>2026-09-03T14:07:01.000Z</time>
      </trkpt>
      <trkpt lat="48.22283" lon="6.65785">
        <ele>394.40002441406</ele>
        <time>2026-09-03T14:07:02.000Z</time>
      </trkpt>
      <trkpt lat="48.22284" lon="6.65785">
        <ele>394.40002441406</ele>
        <time>2026-09-03T14:07:03.000Z</time>
      </trkpt>
      <trkpt lat="48.22284" lon="6.65785">
        <ele>394.40002441406</ele>
        <time>2026-09-03T14:07:04.000Z</time>
      </trkpt>
      <trkpt lat="48.22284" lon="6.65785">
        <ele>394.40002441406</ele>
        <time>2026-09-03T14:07:05.000Z</time>
      </trkpt>
      <trkpt lat="48.22284" lon="6.65785">
        <ele>394.40002441406</ele>
        <time>2026-09-03T14:07:06.000Z</time>
      </trkpt>
      <trkpt lat="48.22283" lon="6.65785">
        <ele>394.40002441406</ele>
        <time>2026-09-03T14:07:07.000Z</time>
      </trkpt>
      <trkpt lat="48.22282" lon="6.65785">
        <ele>394.40002441406</ele>
        <time>2026-09-03T14:07:08.000Z</time>
      </trkpt>
      <trkpt lat="48.22283" lon="6.65785">
        <ele>394.40002441406</ele>
        <time>2026-09-03T14:07:09.000Z</time>
      </trkpt>
      <trkpt lat="48.22283" lon="6.65785">
        <ele>394.40002441406</ele>
        <time>2026-09-03T14:07:10.000Z</time>
      </trkpt>
      <trkpt lat="48.22282" lon="6.65786">
        <ele>394.59997558594</ele>
        <time>2026-09-03T14:07:11.000Z</time>
      </trkpt>
      <trkpt lat="48.22282" lon="6.65785">
        <ele>394.59997558594</ele>
        <time>2026-09-03T14:07:12.000Z</time>
      </trkpt>
      <trkpt lat="48.22281" lon="6.65784">
        <ele>394.59997558594</ele>
        <time>2026-09-03T14:07:13.000Z</time>
      </trkpt>
      <trkpt lat="48.22281" lon="6.65784">
        <ele>394.59997558594</ele>
        <time>2026-09-03T14:07:14.000Z</time>
      </trkpt>
      <trkpt lat="48.2228" lon="6.65783">
        <ele>394.59997558594</ele>
        <time>2026-09-03T14:07:15.000Z</time>
      </trkpt>
      <trkpt lat="48.2228" lon="6.65782">
        <ele>394.59997558594</ele>
        <time>2026-09-03T14:07:16.000Z</time>
      </trkpt>
      <trkpt lat="48.22279" lon="6.65782">
        <ele>394.59997558594</ele>
        <time>2026-09-03T14:07:17.000Z</time>
      </trkpt>
      <trkpt lat="48.22278" lon="6.65781">
        <ele>394.59997558594</ele>
        <time>2026-09-03T14:07:18.000Z</time>
      </trkpt>
      <trkpt lat="48.22277" lon="6.65781">
        <ele>394.59997558594</ele>
        <time>2026-09-03T14:07:19.000Z</time>
      </trkpt>
      <trkpt lat="48.22277" lon="6.6578">
        <ele>394.59997558594</ele>
        <time>2026-09-03T14:07:20.000Z</time>
      </trkpt>
      <trkpt lat="48.22277" lon="6.6578">
        <ele>394.59997558594</ele>
        <time>2026-09-03T14:07:21.000Z</time>
      </trkpt>
      <trkpt lat="48.22277" lon="6.6578">
        <ele>394.59997558594</ele>
        <time>2026-09-03T14:07:22.000Z</time>
      </trkpt>
      <trkpt lat="48.22277" lon="6.65781">
        <ele>394.59997558594</ele>
        <time>2026-09-03T14:07:23.000Z</time>
      </trkpt>
      <trkpt lat="48.22277" lon="6.65781">
        <ele>394.59997558594</ele>
        <time>2026-09-03T14:07:24.000Z</time>
      </trkpt>
      <trkpt lat="48.22277" lon="6.65781">
        <ele>394.59997558594</ele>
        <time>2026-09-03T14:07:25.000Z</time>
      </trkpt>
      <trkpt lat="48.22277" lon="6.65781">
        <ele>394.59997558594</ele>
        <time>2026-09-03T14:07:26.000Z</time>
      </trkpt>
      <trkpt lat="48.22277" lon="6.65781">
        <ele>394.59997558594</ele>
        <time>2026-09-03T14:07:27.000Z</time>
      </trkpt>
      <trkpt lat="48.22277" lon="6.65781">
        <ele>394.59997558594</ele>
        <time>2026-09-03T14:07:28.000Z</time>
      </trkpt>
      <trkpt lat="48.22277" lon="6.65781">
        <ele>394.59997558594</ele>
        <time>2026-09-03T14:07:29.000Z</time>
      </trkpt>
      <trkpt lat="48.22277" lon="6.65781">
        <ele>394.59997558594</ele>
        <time>2026-09-03T14:07:30.000Z</time>
      </trkpt>
      <trkpt lat="48.22277" lon="6.65781">
        <ele>394.59997558594</ele>
        <time>2026-09-03T14:07:31.000Z</time>
      </trkpt>
      <trkpt lat="48.22277" lon="6.65781">
        <ele>394.59997558594</ele>
        <time>2026-09-03T14:07:32.000Z</time>
      </trkpt>
      <trkpt lat="48.22277" lon="6.65781">
        <ele>394.59997558594</ele>
        <time>2026-09-03T14:07:33.000Z</time>
      </trkpt>
      <trkpt lat="48.22277" lon="6.6578">
        <ele>394.59997558594</ele>
        <time>2026-09-03T14:07:34.000Z</time>
      </trkpt>
      <trkpt lat="48.22276" lon="6.65779">
        <ele>394.59997558594</ele>
        <time>2026-09-03T14:07:35.000Z</time>
      </trkpt>
      <trkpt lat="48.22276" lon="6.65779">
        <ele>394.59997558594</ele>
        <time>2026-09-03T14:07:36.000Z</time>
      </trkpt>
      <trkpt lat="48.22274" lon="6.65778">
        <ele>394.59997558594</ele>
        <time>2026-09-03T14:07:37.000Z</time>
      </trkpt>
      <trkpt lat="48.22274" lon="6.65777">
        <ele>394.59997558594</ele>
        <time>2026-09-03T14:07:38.000Z</time>
      </trkpt>
      <trkpt lat="48.22274" lon="6.65775">
        <ele>394.79998779297</ele>
        <time>2026-09-03T14:07:39.000Z</time>
      </trkpt>
      <trkpt lat="48.22274" lon="6.65774">
        <ele>395</ele>
        <time>2026-09-03T14:07:40.000Z</time>
      </trkpt>
      <trkpt lat="48.22274" lon="6.65773">
        <ele>395</ele>
        <time>2026-09-03T14:07:41.000Z</time>
      </trkpt>
      <trkpt lat="48.22273" lon="6.65771">
        <ele>395</ele>
        <time>2026-09-03T14:07:42.000Z</time>
      </trkpt>
      <trkpt lat="48.22273" lon="6.6577">
        <ele>395</ele>
        <time>2026-09-03T14:07:43.000Z</time>
      </trkpt>
      <trkpt lat="48.22273" lon="6.65769">
        <ele>395</ele>
        <time>2026-09-03T14:07:44.000Z</time>
      </trkpt>
      <trkpt lat="48.22272" lon="6.65766">
        <ele>395</ele>
        <time>2026-09-03T14:07:45.000Z</time>
      </trkpt>
      <trkpt lat="48.2227" lon="6.65764">
        <ele>395</ele>
        <time>2026-09-03T14:07:46.000Z</time>
      </trkpt>
      <trkpt lat="48.2227" lon="6.65763">
        <ele>395</ele>
        <time>2026-09-03T14:07:47.000Z</time>
      </trkpt>
      <trkpt lat="48.22269" lon="6.65761">
        <ele>395.20001220703</ele>
        <time>2026-09-03T14:07:48.000Z</time>
      </trkpt>
      <trkpt lat="48.22269" lon="6.65761">
        <ele>395.40002441406</ele>
        <time>2026-09-03T14:07:49.000Z</time>
      </trkpt>
      <trkpt lat="48.22268" lon="6.65759">
        <ele>395.40002441406</ele>
        <time>2026-09-03T14:07:50.000Z</time>
      </trkpt>
      <trkpt lat="48.22268" lon="6.65758">
        <ele>395.59997558594</ele>
        <time>2026-09-03T14:07:51.000Z</time>
      </trkpt>
      <trkpt lat="48.22268" lon="6.65758">
        <ele>395.79998779297</ele>
        <time>2026-09-03T14:07:52.000Z</time>
      </trkpt>
      <trkpt lat="48.22267" lon="6.65757">
        <ele>396</ele>
        <time>2026-09-03T14:07:53.000Z</time>
      </trkpt>
      <trkpt lat="48.22266" lon="6.65756">
        <ele>396.20001220703</ele>
        <time>2026-09-03T14:07:54.000Z</time>
      </trkpt>
      <trkpt lat="48.22266" lon="6.65754">
        <ele>396.40002441406</ele>
        <time>2026-09-03T14:07:55.000Z</time>
      </trkpt>
      <trkpt lat="48.22266" lon="6.65753">
        <ele>396.59997558594</ele>
        <time>2026-09-03T14:07:56.000Z</time>
      </trkpt>
      <trkpt lat="48.22265" lon="6.65752">
        <ele>396.79998779297</ele>
        <time>2026-09-03T14:07:57.000Z</time>
      </trkpt>
      <trkpt lat="48.22265" lon="6.65751">
        <ele>396.79998779297</ele>
        <time>2026-09-03T14:07:58.000Z</time>
      </trkpt>
      <trkpt lat="48.22265" lon="6.6575">
        <ele>397</ele>
        <time>2026-09-03T14:07:59.000Z</time>
      </trkpt>
      <trkpt lat="48.22265" lon="6.65749">
        <ele>397</ele>
        <time>2026-09-03T14:08:00.000Z</time>
      </trkpt>
      <trkpt lat="48.22265" lon="6.65748">
        <ele>397.20001220703</ele>
        <time>2026-09-03T14:08:01.000Z</time>
      </trkpt>
      <trkpt lat="48.22265" lon="6.65747">
        <ele>397.40002441406</ele>
        <time>2026-09-03T14:08:02.000Z</time>
      </trkpt>
      <trkpt lat="48.22264" lon="6.65746">
        <ele>397.59997558594</ele>
        <time>2026-09-03T14:08:03.000Z</time>
      </trkpt>
      <trkpt lat="48.22264" lon="6.65747">
        <ele>397.79998779297</ele>
        <time>2026-09-03T14:08:04.000Z</time>
      </trkpt>
      <trkpt lat="48.22264" lon="6.65746">
        <ele>398</ele>
        <time>2026-09-03T14:08:05.000Z</time>
      </trkpt>
      <trkpt lat="48.22263" lon="6.65746">
        <ele>398.20001220703</ele>
        <time>2026-09-03T14:08:06.000Z</time>
      </trkpt>
      <trkpt lat="48.22263" lon="6.65745">
        <ele>398.40002441406</ele>
        <time>2026-09-03T14:08:07.000Z</time>
      </trkpt>
      <trkpt lat="48.22263" lon="6.65745">
        <ele>398.59997558594</ele>
        <time>2026-09-03T14:08:08.000Z</time>
      </trkpt>
      <trkpt lat="48.22262" lon="6.65744">
        <ele>398.59997558594</ele>
        <time>2026-09-03T14:08:09.000Z</time>
      </trkpt>
      <trkpt lat="48.22262" lon="6.65743">
        <ele>398.79998779297</ele>
        <time>2026-09-03T14:08:10.000Z</time>
      </trkpt>
      <trkpt lat="48.22262" lon="6.65742">
        <ele>399</ele>
        <time>2026-09-03T14:08:11.000Z</time>
      </trkpt>
      <trkpt lat="48.22261" lon="6.65742">
        <ele>399</ele>
        <time>2026-09-03T14:08:12.000Z</time>
      </trkpt>
      <trkpt lat="48.22261" lon="6.65742">
        <ele>399</ele>
        <time>2026-09-03T14:08:13.000Z</time>
      </trkpt>
      <trkpt lat="48.2226" lon="6.65741">
        <ele>399.20001220703</ele>
        <time>2026-09-03T14:08:14.000Z</time>
      </trkpt>
      <trkpt lat="48.2226" lon="6.65741">
        <ele>399.20001220703</ele>
        <time>2026-09-03T14:08:15.000Z</time>
      </trkpt>
      <trkpt lat="48.22259" lon="6.65741">
        <ele>399.20001220703</ele>
        <time>2026-09-03T14:08:16.000Z</time>
      </trkpt>
      <trkpt lat="48.22259" lon="6.6574">
        <ele>399.40002441406</ele>
        <time>2026-09-03T14:08:17.000Z</time>
      </trkpt>
      <trkpt lat="48.22258" lon="6.65739">
        <ele>399.59997558594</ele>
        <time>2026-09-03T14:08:18.000Z</time>
      </trkpt>
      <trkpt lat="48.22258" lon="6.65739">
        <ele>399.59997558594</ele>
        <time>2026-09-03T14:08:19.000Z</time>
      </trkpt>
      <trkpt lat="48.22257" lon="6.65739">
        <ele>399.79998779297</ele>
        <time>2026-09-03T14:08:20.000Z</time>
      </trkpt>
      <trkpt lat="48.22257" lon="6.65738">
        <ele>400</ele>
        <time>2026-09-03T14:08:21.000Z</time>
      </trkpt>
      <trkpt lat="48.22257" lon="6.65736">
        <ele>400</ele>
        <time>2026-09-03T14:08:22.000Z</time>
      </trkpt>
      <trkpt lat="48.22257" lon="6.65736">
        <ele>400</ele>
        <time>2026-09-03T14:08:23.000Z</time>
      </trkpt>
      <trkpt lat="48.22256" lon="6.65735">
        <ele>400</ele>
        <time>2026-09-03T14:08:24.000Z</time>
      </trkpt>
      <trkpt lat="48.22255" lon="6.65733">
        <ele>400</ele>
        <time>2026-09-03T14:08:25.000Z</time>
      </trkpt>
      <trkpt lat="48.22255" lon="6.65732">
        <ele>400</ele>
        <time>2026-09-03T14:08:26.000Z</time>
      </trkpt>
      <trkpt lat="48.22254" lon="6.65732">
        <ele>400.20001220703</ele>
        <time>2026-09-03T14:08:27.000Z</time>
      </trkpt>
      <trkpt lat="48.22254" lon="6.6573">
        <ele>400.20001220703</ele>
        <time>2026-09-03T14:08:28.000Z</time>
      </trkpt>
      <trkpt lat="48.22253" lon="6.65729">
        <ele>400.40002441406</ele>
        <time>2026-09-03T14:08:29.000Z</time>
      </trkpt>
      <trkpt lat="48.22253" lon="6.65729">
        <ele>400.40002441406</ele>
        <time>2026-09-03T14:08:30.000Z</time>
      </trkpt>
      <trkpt lat="48.22253" lon="6.65729">
        <ele>400.40002441406</ele>
        <time>2026-09-03T14:08:31.000Z</time>
      </trkpt>
      <trkpt lat="48.22252" lon="6.65728">
        <ele>400.40002441406</ele>
        <time>2026-09-03T14:08:32.000Z</time>
      </trkpt>
      <trkpt lat="48.22252" lon="6.65727">
        <ele>400.59997558594</ele>
        <time>2026-09-03T14:08:33.000Z</time>
      </trkpt>
      <trkpt lat="48.22251" lon="6.65726">
        <ele>400.59997558594</ele>
        <time>2026-09-03T14:08:34.000Z</time>
      </trkpt>
      <trkpt lat="48.2225" lon="6.65724">
        <ele>400.59997558594</ele>
        <time>2026-09-03T14:08:35.000Z</time>
      </trkpt>
      <trkpt lat="48.2225" lon="6.65723">
        <ele>400.79998779297</ele>
        <time>2026-09-03T14:08:36.000Z</time>
      </trkpt>
      <trkpt lat="48.22249" lon="6.65721">
        <ele>400.79998779297</ele>
        <time>2026-09-03T14:08:37.000Z</time>
      </trkpt>
      <trkpt lat="48.22249" lon="6.65719">
        <ele>401</ele>
        <time>2026-09-03T14:08:38.000Z</time>
      </trkpt>
      <trkpt lat="48.22248" lon="6.65717">
        <ele>401</ele>
        <time>2026-09-03T14:08:39.000Z</time>
      </trkpt>
      <trkpt lat="48.22247" lon="6.65715">
        <ele>401</ele>
        <time>2026-09-03T14:08:40.000Z</time>
      </trkpt>
      <trkpt lat="48.22247" lon="6.65714">
        <ele>401</ele>
        <time>2026-09-03T14:08:41.000Z</time>
      </trkpt>
      <trkpt lat="48.22246" lon="6.65713">
        <ele>401</ele>
        <time>2026-09-03T14:08:42.000Z</time>
      </trkpt>
      <trkpt lat="48.22245" lon="6.65711">
        <ele>401.20001220703</ele>
        <time>2026-09-03T14:08:43.000Z</time>
      </trkpt>
      <trkpt lat="48.22244" lon="6.6571">
        <ele>401</ele>
        <time>2026-09-03T14:08:44.000Z</time>
      </trkpt>
      <trkpt lat="48.22245" lon="6.65709">
        <ele>401</ele>
        <time>2026-09-03T14:08:45.000Z</time>
      </trkpt>
      <trkpt lat="48.22244" lon="6.65708">
        <ele>401</ele>
        <time>2026-09-03T14:08:46.000Z</time>
      </trkpt>
      <trkpt lat="48.22243" lon="6.65706">
        <ele>401.20001220703</ele>
        <time>2026-09-03T14:08:47.000Z</time>
      </trkpt>
      <trkpt lat="48.22242" lon="6.65705">
        <ele>401.20001220703</ele>
        <time>2026-09-03T14:08:48.000Z</time>
      </trkpt>
      <trkpt lat="48.22242" lon="6.65703">
        <ele>401.20001220703</ele>
        <time>2026-09-03T14:08:49.000Z</time>
      </trkpt>
      <trkpt lat="48.22242" lon="6.65703">
        <ele>401.40002441406</ele>
        <time>2026-09-03T14:08:50.000Z</time>
      </trkpt>
      <trkpt lat="48.22241" lon="6.65702">
        <ele>401.40002441406</ele>
        <time>2026-09-03T14:08:51.000Z</time>
      </trkpt>
      <trkpt lat="48.22241" lon="6.65702">
        <ele>401.40002441406</ele>
        <time>2026-09-03T14:08:52.000Z</time>
      </trkpt>
      <trkpt lat="48.22241" lon="6.65701">
        <ele>401.59997558594</ele>
        <time>2026-09-03T14:08:53.000Z</time>
      </trkpt>
      <trkpt lat="48.2224" lon="6.65701">
        <ele>401.59997558594</ele>
        <time>2026-09-03T14:08:54.000Z</time>
      </trkpt>
      <trkpt lat="48.2224" lon="6.657">
        <ele>401.59997558594</ele>
        <time>2026-09-03T14:08:55.000Z</time>
      </trkpt>
      <trkpt lat="48.22239" lon="6.65699">
        <ele>401.59997558594</ele>
        <time>2026-09-03T14:08:56.000Z</time>
      </trkpt>
      <trkpt lat="48.22239" lon="6.65699">
        <ele>401.40002441406</ele>
        <time>2026-09-03T14:08:57.000Z</time>
      </trkpt>
      <trkpt lat="48.22239" lon="6.65699">
        <ele>401.40002441406</ele>
        <time>2026-09-03T14:08:58.000Z</time>
      </trkpt>
      <trkpt lat="48.22239" lon="6.65698">
        <ele>401.40002441406</ele>
        <time>2026-09-03T14:08:59.000Z</time>
      </trkpt>
      <trkpt lat="48.22239" lon="6.65698">
        <ele>401.40002441406</ele>
        <time>2026-09-03T14:09:00.000Z</time>
      </trkpt>
      <trkpt lat="48.22239" lon="6.65698">
        <ele>401.40002441406</ele>
        <time>2026-09-03T14:09:01.000Z</time>
      </trkpt>
      <trkpt lat="48.22239" lon="6.65698">
        <ele>401.20001220703</ele>
        <time>2026-09-03T14:09:02.000Z</time>
      </trkpt>
      <trkpt lat="48.22239" lon="6.65698">
        <ele>401.40002441406</ele>
        <time>2026-09-03T14:09:03.000Z</time>
      </trkpt>
      <trkpt lat="48.22239" lon="6.65698">
        <ele>401.40002441406</ele>
        <time>2026-09-03T14:09:04.000Z</time>
      </trkpt>
      <trkpt lat="48.22239" lon="6.65698">
        <ele>401.40002441406</ele>
        <time>2026-09-03T14:09:05.000Z</time>
      </trkpt>
      <trkpt lat="48.22239" lon="6.65698">
        <ele>401.40002441406</ele>
        <time>2026-09-03T14:09:06.000Z</time>
      </trkpt>
      <trkpt lat="48.22239" lon="6.65698">
        <ele>401.40002441406</ele>
        <time>2026-09-03T14:09:07.000Z</time>
      </trkpt>
      <trkpt lat="48.22239" lon="6.65698">
        <ele>401.40002441406</ele>
        <time>2026-09-03T14:09:08.000Z</time>
      </trkpt>
      <trkpt lat="48.22239" lon="6.65698">
        <ele>401.40002441406</ele>
        <time>2026-09-03T14:09:09.000Z</time>
      </trkpt>
      <trkpt lat="48.22238" lon="6.65698">
        <ele>401.40002441406</ele>
        <time>2026-09-03T14:09:10.000Z</time>
      </trkpt>
      <trkpt lat="48.22238" lon="6.65697">
        <ele>401.40002441406</ele>
        <time>2026-09-03T14:09:11.000Z</time>
      </trkpt>
      <trkpt lat="48.22237" lon="6.65697">
        <ele>401.40002441406</ele>
        <time>2026-09-03T14:09:12.000Z</time>
      </trkpt>
      <trkpt lat="48.22236" lon="6.65698">
        <ele>401.59997558594</ele>
        <time>2026-09-03T14:09:13.000Z</time>
      </trkpt>
      <trkpt lat="48.22234" lon="6.65697">
        <ele>401.59997558594</ele>
        <time>2026-09-03T14:09:14.000Z</time>
      </trkpt>
      <trkpt lat="48.22234" lon="6.65696">
        <ele>401.79998779297</ele>
        <time>2026-09-03T14:09:15.000Z</time>
      </trkpt>
      <trkpt lat="48.22232" lon="6.65695">
        <ele>401.79998779297</ele>
        <time>2026-09-03T14:09:16.000Z</time>
      </trkpt>
      <trkpt lat="48.22231" lon="6.65694">
        <ele>402</ele>
        <time>2026-09-03T14:09:17.000Z</time>
      </trkpt>
      <trkpt lat="48.2223" lon="6.65693">
        <ele>402</ele>
        <time>2026-09-03T14:09:18.000Z</time>
      </trkpt>
      <trkpt lat="48.22229" lon="6.65692">
        <ele>402.20001220703</ele>
        <time>2026-09-03T14:09:19.000Z</time>
      </trkpt>
      <trkpt lat="48.22228" lon="6.65691">
        <ele>402.20001220703</ele>
        <time>2026-09-03T14:09:20.000Z</time>
      </trkpt>
      <trkpt lat="48.22227" lon="6.65691">
        <ele>402.40002441406</ele>
        <time>2026-09-03T14:09:21.000Z</time>
      </trkpt>
      <trkpt lat="48.22226" lon="6.6569">
        <ele>402.59997558594</ele>
        <time>2026-09-03T14:09:22.000Z</time>
      </trkpt>
      <trkpt lat="48.22225" lon="6.65688">
        <ele>402.79998779297</ele>
        <time>2026-09-03T14:09:23.000Z</time>
      </trkpt>
      <trkpt lat="48.22224" lon="6.65686">
        <ele>402.79998779297</ele>
        <time>2026-09-03T14:09:24.000Z</time>
      </trkpt>
      <trkpt lat="48.22223" lon="6.65686">
        <ele>402.59997558594</ele>
        <time>2026-09-03T14:09:25.000Z</time>
      </trkpt>
      <trkpt lat="48.22222" lon="6.65686">
        <ele>402.59997558594</ele>
        <time>2026-09-03T14:09:26.000Z</time>
      </trkpt>
      <trkpt lat="48.22221" lon="6.65686">
        <ele>402.59997558594</ele>
        <time>2026-09-03T14:09:27.000Z</time>
      </trkpt>
      <trkpt lat="48.2222" lon="6.65686">
        <ele>402.59997558594</ele>
        <time>2026-09-03T14:09:28.000Z</time>
      </trkpt>
      <trkpt lat="48.2222" lon="6.65686">
        <ele>402.79998779297</ele>
        <time>2026-09-03T14:09:29.000Z</time>
      </trkpt>
      <trkpt lat="48.2222" lon="6.65686">
        <ele>403.20001220703</ele>
        <time>2026-09-03T14:09:30.000Z</time>
      </trkpt>
      <trkpt lat="48.22219" lon="6.65687">
        <ele>403.40002441406</ele>
        <time>2026-09-03T14:09:31.000Z</time>
      </trkpt>
      <trkpt lat="48.22218" lon="6.65688">
        <ele>403.79998779297</ele>
        <time>2026-09-03T14:09:32.000Z</time>
      </trkpt>
      <trkpt lat="48.22218" lon="6.65689">
        <ele>403.79998779297</ele>
        <time>2026-09-03T14:09:33.000Z</time>
      </trkpt>
      <trkpt lat="48.22217" lon="6.6569">
        <ele>403.79998779297</ele>
        <time>2026-09-03T14:09:34.000Z</time>
      </trkpt>
      <trkpt lat="48.22216" lon="6.6569">
        <ele>403.79998779297</ele>
        <time>2026-09-03T14:09:35.000Z</time>
      </trkpt>
      <trkpt lat="48.22215" lon="6.65692">
        <ele>403.79998779297</ele>
        <time>2026-09-03T14:09:36.000Z</time>
      </trkpt>
      <trkpt lat="48.22215" lon="6.65692">
        <ele>403.79998779297</ele>
        <time>2026-09-03T14:09:37.000Z</time>
      </trkpt>
      <trkpt lat="48.22214" lon="6.65692">
        <ele>403.79998779297</ele>
        <time>2026-09-03T14:09:38.000Z</time>
      </trkpt>
      <trkpt lat="48.22214" lon="6.65692">
        <ele>403.79998779297</ele>
        <time>2026-09-03T14:09:39.000Z</time>
      </trkpt>
      <trkpt lat="48.22213" lon="6.65693">
        <ele>403.79998779297</ele>
        <time>2026-09-03T14:09:40.000Z</time>
      </trkpt>
      <trkpt lat="48.22212" lon="6.65694">
        <ele>403.79998779297</ele>
        <time>2026-09-03T14:09:41.000Z</time>
      </trkpt>
      <trkpt lat="48.22211" lon="6.65695">
        <ele>404</ele>
        <time>2026-09-03T14:09:42.000Z</time>
      </trkpt>
      <trkpt lat="48.2221" lon="6.65696">
        <ele>404</ele>
        <time>2026-09-03T14:09:43.000Z</time>
      </trkpt>
      <trkpt lat="48.2221" lon="6.65696">
        <ele>404.20001220703</ele>
        <time>2026-09-03T14:09:44.000Z</time>
      </trkpt>
      <trkpt lat="48.22208" lon="6.65697">
        <ele>404.20001220703</ele>
        <time>2026-09-03T14:09:45.000Z</time>
      </trkpt>
      <trkpt lat="48.22207" lon="6.65698">
        <ele>404.20001220703</ele>
        <time>2026-09-03T14:09:46.000Z</time>
      </trkpt>
      <trkpt lat="48.22206" lon="6.65699">
        <ele>404.20001220703</ele>
        <time>2026-09-03T14:09:47.000Z</time>
      </trkpt>
      <trkpt lat="48.22204" lon="6.657">
        <ele>404.20001220703</ele>
        <time>2026-09-03T14:09:48.000Z</time>
      </trkpt>
      <trkpt lat="48.22204" lon="6.657">
        <ele>404.20001220703</ele>
        <time>2026-09-03T14:09:49.000Z</time>
      </trkpt>
      <trkpt lat="48.22203" lon="6.65701">
        <ele>404.40002441406</ele>
        <time>2026-09-03T14:09:50.000Z</time>
      </trkpt>
      <trkpt lat="48.22202" lon="6.65702">
        <ele>404.40002441406</ele>
        <time>2026-09-03T14:09:51.000Z</time>
      </trkpt>
      <trkpt lat="48.22201" lon="6.65703">
        <ele>404.59997558594</ele>
        <time>2026-09-03T14:09:52.000Z</time>
      </trkpt>
      <trkpt lat="48.222" lon="6.65705">
        <ele>404.59997558594</ele>
        <time>2026-09-03T14:09:53.000Z</time>
      </trkpt>
      <trkpt lat="48.222" lon="6.65705">
        <ele>404.59997558594</ele>
        <time>2026-09-03T14:09:54.000Z</time>
      </trkpt>
      <trkpt lat="48.22199" lon="6.65705">
        <ele>404.59997558594</ele>
        <time>2026-09-03T14:09:55.000Z</time>
      </trkpt>
      <trkpt lat="48.22198" lon="6.65707">
        <ele>404.59997558594</ele>
        <time>2026-09-03T14:09:56.000Z</time>
      </trkpt>
      <trkpt lat="48.22198" lon="6.65708">
        <ele>404.59997558594</ele>
        <time>2026-09-03T14:09:57.000Z</time>
      </trkpt>
      <trkpt lat="48.22198" lon="6.65709">
        <ele>404.59997558594</ele>
        <time>2026-09-03T14:09:58.000Z</time>
      </trkpt>
      <trkpt lat="48.22197" lon="6.6571">
        <ele>404.79998779297</ele>
        <time>2026-09-03T14:09:59.000Z</time>
      </trkpt>
      <trkpt lat="48.22197" lon="6.65711">
        <ele>404.79998779297</ele>
        <time>2026-09-03T14:10:00.000Z</time>
      </trkpt>
      <trkpt lat="48.22197" lon="6.65712">
        <ele>404.79998779297</ele>
        <time>2026-09-03T14:10:01.000Z</time>
      </trkpt>
      <trkpt lat="48.22196" lon="6.65713">
        <ele>405</ele>
        <time>2026-09-03T14:10:02.000Z</time>
      </trkpt>
      <trkpt lat="48.22195" lon="6.65714">
        <ele>405</ele>
        <time>2026-09-03T14:10:03.000Z</time>
      </trkpt>
      <trkpt lat="48.22194" lon="6.65715">
        <ele>405</ele>
        <time>2026-09-03T14:10:04.000Z</time>
      </trkpt>
      <trkpt lat="48.22194" lon="6.65716">
        <ele>405</ele>
        <time>2026-09-03T14:10:05.000Z</time>
      </trkpt>
      <trkpt lat="48.22193" lon="6.65717">
        <ele>405</ele>
        <time>2026-09-03T14:10:06.000Z</time>
      </trkpt>
      <trkpt lat="48.22192" lon="6.65717">
        <ele>404.79998779297</ele>
        <time>2026-09-03T14:10:07.000Z</time>
      </trkpt>
      <trkpt lat="48.22191" lon="6.65718">
        <ele>404.79998779297</ele>
        <time>2026-09-03T14:10:08.000Z</time>
      </trkpt>
      <trkpt lat="48.2219" lon="6.65718">
        <ele>404.59997558594</ele>
        <time>2026-09-03T14:10:09.000Z</time>
      </trkpt>
      <trkpt lat="48.22189" lon="6.65718">
        <ele>404.59997558594</ele>
        <time>2026-09-03T14:10:10.000Z</time>
      </trkpt>
      <trkpt lat="48.22188" lon="6.65718">
        <ele>404.59997558594</ele>
        <time>2026-09-03T14:10:11.000Z</time>
      </trkpt>
      <trkpt lat="48.22188" lon="6.65719">
        <ele>404.79998779297</ele>
        <time>2026-09-03T14:10:12.000Z</time>
      </trkpt>
      <trkpt lat="48.22187" lon="6.65719">
        <ele>404.79998779297</ele>
        <time>2026-09-03T14:10:13.000Z</time>
      </trkpt>
      <trkpt lat="48.22185" lon="6.6572">
        <ele>404.79998779297</ele>
        <time>2026-09-03T14:10:14.000Z</time>
      </trkpt>
      <trkpt lat="48.22185" lon="6.65721">
        <ele>404.79998779297</ele>
        <time>2026-09-03T14:10:15.000Z</time>
      </trkpt>
      <trkpt lat="48.22184" lon="6.65721">
        <ele>404.79998779297</ele>
        <time>2026-09-03T14:10:16.000Z</time>
      </trkpt>
      <trkpt lat="48.22183" lon="6.65722">
        <ele>404.79998779297</ele>
        <time>2026-09-03T14:10:17.000Z</time>
      </trkpt>
      <trkpt lat="48.22182" lon="6.65722">
        <ele>405</ele>
        <time>2026-09-03T14:10:18.000Z</time>
      </trkpt>
      <trkpt lat="48.22182" lon="6.65722">
        <ele>405</ele>
        <time>2026-09-03T14:10:19.000Z</time>
      </trkpt>
      <trkpt lat="48.22182" lon="6.65722">
        <ele>405</ele>
        <time>2026-09-03T14:10:20.000Z</time>
      </trkpt>
      <trkpt lat="48.22182" lon="6.65722">
        <ele>405</ele>
        <time>2026-09-03T14:10:21.000Z</time>
      </trkpt>
      <trkpt lat="48.22182" lon="6.65722">
        <ele>405</ele>
        <time>2026-09-03T14:10:22.000Z</time>
      </trkpt>
      <trkpt lat="48.22182" lon="6.65722">
        <ele>404.79998779297</ele>
        <time>2026-09-03T14:10:23.000Z</time>
      </trkpt>
      <trkpt lat="48.22182" lon="6.65722">
        <ele>404.79998779297</ele>
        <time>2026-09-03T14:10:24.000Z</time>
      </trkpt>
      <trkpt lat="48.22182" lon="6.65722">
        <ele>404.79998779297</ele>
        <time>2026-09-03T14:10:25.000Z</time>
      </trkpt>
      <trkpt lat="48.22182" lon="6.65722">
        <ele>404.59997558594</ele>
        <time>2026-09-03T14:10:26.000Z</time>
      </trkpt>
      <trkpt lat="48.22182" lon="6.65723">
        <ele>404.59997558594</ele>
        <time>2026-09-03T14:10:27.000Z</time>
      </trkpt>
      <trkpt lat="48.22182" lon="6.65723">
        <ele>404.79998779297</ele>
        <time>2026-09-03T14:10:28.000Z</time>
      </trkpt>
      <trkpt lat="48.22181" lon="6.65723">
        <ele>405</ele>
        <time>2026-09-03T14:10:29.000Z</time>
      </trkpt>
      <trkpt lat="48.22181" lon="6.65724">
        <ele>405</ele>
        <time>2026-09-03T14:10:30.000Z</time>
      </trkpt>
      <trkpt lat="48.2218" lon="6.65725">
        <ele>405.20001220703</ele>
        <time>2026-09-03T14:10:31.000Z</time>
      </trkpt>
      <trkpt lat="48.22179" lon="6.65725">
        <ele>405.20001220703</ele>
        <time>2026-09-03T14:10:32.000Z</time>
      </trkpt>
      <trkpt lat="48.22178" lon="6.65725">
        <ele>405.20001220703</ele>
        <time>2026-09-03T14:10:33.000Z</time>
      </trkpt>
      <trkpt lat="48.22177" lon="6.65727">
        <ele>405.20001220703</ele>
        <time>2026-09-03T14:10:34.000Z</time>
      </trkpt>
      <trkpt lat="48.22176" lon="6.65727">
        <ele>405.20001220703</ele>
        <time>2026-09-03T14:10:35.000Z</time>
      </trkpt>
      <trkpt lat="48.22176" lon="6.65727">
        <ele>405.20001220703</ele>
        <time>2026-09-03T14:10:36.000Z</time>
      </trkpt>
      <trkpt lat="48.22176" lon="6.65727">
        <ele>405.20001220703</ele>
        <time>2026-09-03T14:10:37.000Z</time>
      </trkpt>
      <trkpt lat="48.22175" lon="6.65727">
        <ele>405.20001220703</ele>
        <time>2026-09-03T14:10:38.000Z</time>
      </trkpt>
      <trkpt lat="48.22175" lon="6.65727">
        <ele>405.20001220703</ele>
        <time>2026-09-03T14:10:39.000Z</time>
      </trkpt>
      <trkpt lat="48.22175" lon="6.65727">
        <ele>405.20001220703</ele>
        <time>2026-09-03T14:10:40.000Z</time>
      </trkpt>
      <trkpt lat="48.22175" lon="6.65727">
        <ele>405.20001220703</ele>
        <time>2026-09-03T14:10:41.000Z</time>
      </trkpt>
      <trkpt lat="48.22175" lon="6.65727">
        <ele>405.20001220703</ele>
        <time>2026-09-03T14:10:42.000Z</time>
      </trkpt>
      <trkpt lat="48.22175" lon="6.65727">
        <ele>405.20001220703</ele>
        <time>2026-09-03T14:10:43.000Z</time>
      </trkpt>
      <trkpt lat="48.22175" lon="6.65727">
        <ele>405.20001220703</ele>
        <time>2026-09-03T14:10:44.000Z</time>
      </trkpt>
      <trkpt lat="48.22175" lon="6.65727">
        <ele>405.20001220703</ele>
        <time>2026-09-03T14:10:45.000Z</time>
      </trkpt>
      <trkpt lat="48.22175" lon="6.65727">
        <ele>405.20001220703</ele>
        <time>2026-09-03T14:10:46.000Z</time>
      </trkpt>
      <trkpt lat="48.22175" lon="6.65727">
        <ele>405.20001220703</ele>
        <time>2026-09-03T14:10:47.000Z</time>
      </trkpt>
      <trkpt lat="48.22175" lon="6.65727">
        <ele>405.20001220703</ele>
        <time>2026-09-03T14:10:48.000Z</time>
      </trkpt>
      <trkpt lat="48.22175" lon="6.65727">
        <ele>405.20001220703</ele>
        <time>2026-09-03T14:10:49.000Z</time>
      </trkpt>
      <trkpt lat="48.22175" lon="6.65727">
        <ele>405.20001220703</ele>
        <time>2026-09-03T14:10:50.000Z</time>
      </trkpt>
      <trkpt lat="48.22175" lon="6.65727">
        <ele>405.20001220703</ele>
        <time>2026-09-03T14:10:51.000Z</time>
      </trkpt>
      <trkpt lat="48.22175" lon="6.65727">
        <ele>405.20001220703</ele>
        <time>2026-09-03T14:10:52.000Z</time>
      </trkpt>
      <trkpt lat="48.22175" lon="6.65725">
        <ele>405.20001220703</ele>
        <time>2026-09-03T14:10:53.000Z</time>
      </trkpt>
      <trkpt lat="48.22176" lon="6.65724">
        <ele>405.20001220703</ele>
        <time>2026-09-03T14:10:54.000Z</time>
      </trkpt>
      <trkpt lat="48.22177" lon="6.65722">
        <ele>405.20001220703</ele>
        <time>2026-09-03T14:10:55.000Z</time>
      </trkpt>
      <trkpt lat="48.22177" lon="6.65722">
        <ele>405</ele>
        <time>2026-09-03T14:10:56.000Z</time>
      </trkpt>
      <trkpt lat="48.22178" lon="6.65721">
        <ele>405</ele>
        <time>2026-09-03T14:10:57.000Z</time>
      </trkpt>
      <trkpt lat="48.2218" lon="6.65719">
        <ele>405</ele>
        <time>2026-09-03T14:10:58.000Z</time>
      </trkpt>
      <trkpt lat="48.22181" lon="6.65718">
        <ele>405</ele>
        <time>2026-09-03T14:10:59.000Z</time>
      </trkpt>
      <trkpt lat="48.22181" lon="6.65717">
        <ele>405</ele>
        <time>2026-09-03T14:11:00.000Z</time>
      </trkpt>
      <trkpt lat="48.22182" lon="6.65716">
        <ele>405.20001220703</ele>
        <time>2026-09-03T14:11:01.000Z</time>
      </trkpt>
      <trkpt lat="48.22182" lon="6.65715">
        <ele>405.20001220703</ele>
        <time>2026-09-03T14:11:02.000Z</time>
      </trkpt>
      <trkpt lat="48.22183" lon="6.65714">
        <ele>405.20001220703</ele>
        <time>2026-09-03T14:11:03.000Z</time>
      </trkpt>
      <trkpt lat="48.22184" lon="6.65713">
        <ele>405</ele>
        <time>2026-09-03T14:11:04.000Z</time>
      </trkpt>
      <trkpt lat="48.22185" lon="6.65713">
        <ele>405</ele>
        <time>2026-09-03T14:11:05.000Z</time>
      </trkpt>
      <trkpt lat="48.22185" lon="6.65712">
        <ele>405</ele>
        <time>2026-09-03T14:11:06.000Z</time>
      </trkpt>
      <trkpt lat="48.22186" lon="6.65712">
        <ele>405</ele>
        <time>2026-09-03T14:11:07.000Z</time>
      </trkpt>
      <trkpt lat="48.22187" lon="6.65711">
        <ele>405.20001220703</ele>
        <time>2026-09-03T14:11:08.000Z</time>
      </trkpt>
      <trkpt lat="48.22188" lon="6.6571">
        <ele>405.20001220703</ele>
        <time>2026-09-03T14:11:09.000Z</time>
      </trkpt>
      <trkpt lat="48.22189" lon="6.6571">
        <ele>405.20001220703</ele>
        <time>2026-09-03T14:11:10.000Z</time>
      </trkpt>
      <trkpt lat="48.2219" lon="6.6571">
        <ele>405.20001220703</ele>
        <time>2026-09-03T14:11:11.000Z</time>
      </trkpt>
      <trkpt lat="48.22191" lon="6.6571">
        <ele>405.20001220703</ele>
        <time>2026-09-03T14:11:12.000Z</time>
      </trkpt>
      <trkpt lat="48.22192" lon="6.65709">
        <ele>405.20001220703</ele>
        <time>2026-09-03T14:11:13.000Z</time>
      </trkpt>
      <trkpt lat="48.22192" lon="6.65709">
        <ele>405.20001220703</ele>
        <time>2026-09-03T14:11:14.000Z</time>
      </trkpt>
      <trkpt lat="48.22192" lon="6.65709">
        <ele>405.20001220703</ele>
        <time>2026-09-03T14:11:15.000Z</time>
      </trkpt>
      <trkpt lat="48.22193" lon="6.65709">
        <ele>405.20001220703</ele>
        <time>2026-09-03T14:11:16.000Z</time>
      </trkpt>
      <trkpt lat="48.22193" lon="6.65708">
        <ele>405.20001220703</ele>
        <time>2026-09-03T14:11:17.000Z</time>
      </trkpt>
      <trkpt lat="48.22194" lon="6.65707">
        <ele>405.20001220703</ele>
        <time>2026-09-03T14:11:18.000Z</time>
      </trkpt>
      <trkpt lat="48.22194" lon="6.65706">
        <ele>405.20001220703</ele>
        <time>2026-09-03T14:11:19.000Z</time>
      </trkpt>
      <trkpt lat="48.22194" lon="6.65706">
        <ele>405.20001220703</ele>
        <time>2026-09-03T14:11:20.000Z</time>
      </trkpt>
      <trkpt lat="48.22195" lon="6.65705">
        <ele>405.20001220703</ele>
        <time>2026-09-03T14:11:21.000Z</time>
      </trkpt>
      <trkpt lat="48.22196" lon="6.65703">
        <ele>405.20001220703</ele>
        <time>2026-09-03T14:11:22.000Z</time>
      </trkpt>
      <trkpt lat="48.22196" lon="6.65702">
        <ele>405.20001220703</ele>
        <time>2026-09-03T14:11:23.000Z</time>
      </trkpt>
      <trkpt lat="48.22196" lon="6.65701">
        <ele>405.20001220703</ele>
        <time>2026-09-03T14:11:24.000Z</time>
      </trkpt>
      <trkpt lat="48.22197" lon="6.657">
        <ele>405.20001220703</ele>
        <time>2026-09-03T14:11:25.000Z</time>
      </trkpt>
      <trkpt lat="48.22197" lon="6.65699">
        <ele>405.20001220703</ele>
        <time>2026-09-03T14:11:26.000Z</time>
      </trkpt>
      <trkpt lat="48.22198" lon="6.65698">
        <ele>405.20001220703</ele>
        <time>2026-09-03T14:11:27.000Z</time>
      </trkpt>
      <trkpt lat="48.22199" lon="6.65697">
        <ele>405.20001220703</ele>
        <time>2026-09-03T14:11:28.000Z</time>
      </trkpt>
      <trkpt lat="48.222" lon="6.65696">
        <ele>405.20001220703</ele>
        <time>2026-09-03T14:11:29.000Z</time>
      </trkpt>
      <trkpt lat="48.22201" lon="6.65695">
        <ele>405</ele>
        <time>2026-09-03T14:11:30.000Z</time>
      </trkpt>
      <trkpt lat="48.22202" lon="6.65694">
        <ele>405</ele>
        <time>2026-09-03T14:11:31.000Z</time>
      </trkpt>
      <trkpt lat="48.22203" lon="6.65694">
        <ele>405</ele>
        <time>2026-09-03T14:11:32.000Z</time>
      </trkpt>
      <trkpt lat="48.22204" lon="6.65693">
        <ele>404.79998779297</ele>
        <time>2026-09-03T14:11:33.000Z</time>
      </trkpt>
      <trkpt lat="48.22205" lon="6.65693">
        <ele>404.59997558594</ele>
        <time>2026-09-03T14:11:34.000Z</time>
      </trkpt>
      <trkpt lat="48.22206" lon="6.65692">
        <ele>404.40002441406</ele>
        <time>2026-09-03T14:11:35.000Z</time>
      </trkpt>
      <trkpt lat="48.22207" lon="6.65691">
        <ele>404.40002441406</ele>
        <time>2026-09-03T14:11:36.000Z</time>
      </trkpt>
      <trkpt lat="48.22208" lon="6.6569">
        <ele>404.40002441406</ele>
        <time>2026-09-03T14:11:37.000Z</time>
      </trkpt>
      <trkpt lat="48.2221" lon="6.6569">
        <ele>404.20001220703</ele>
        <time>2026-09-03T14:11:38.000Z</time>
      </trkpt>
      <trkpt lat="48.2221" lon="6.65689">
        <ele>404.20001220703</ele>
        <time>2026-09-03T14:11:39.000Z</time>
      </trkpt>
      <trkpt lat="48.22211" lon="6.65688">
        <ele>404</ele>
        <time>2026-09-03T14:11:40.000Z</time>
      </trkpt>
      <trkpt lat="48.22212" lon="6.65687">
        <ele>403.79998779297</ele>
        <time>2026-09-03T14:11:41.000Z</time>
      </trkpt>
      <trkpt lat="48.22212" lon="6.65687">
        <ele>403.79998779297</ele>
        <time>2026-09-03T14:11:42.000Z</time>
      </trkpt>
      <trkpt lat="48.22213" lon="6.65686">
        <ele>403.79998779297</ele>
        <time>2026-09-03T14:11:43.000Z</time>
      </trkpt>
      <trkpt lat="48.22213" lon="6.65685">
        <ele>403.79998779297</ele>
        <time>2026-09-03T14:11:44.000Z</time>
      </trkpt>
      <trkpt lat="48.22214" lon="6.65684">
        <ele>404.20001220703</ele>
        <time>2026-09-03T14:11:45.000Z</time>
      </trkpt>
      <trkpt lat="48.22214" lon="6.65684">
        <ele>404.20001220703</ele>
        <time>2026-09-03T14:11:46.000Z</time>
      </trkpt>
      <trkpt lat="48.22214" lon="6.65683">
        <ele>404.40002441406</ele>
        <time>2026-09-03T14:11:47.000Z</time>
      </trkpt>
      <trkpt lat="48.22215" lon="6.65682">
        <ele>404.59997558594</ele>
        <time>2026-09-03T14:11:48.000Z</time>
      </trkpt>
      <trkpt lat="48.22216" lon="6.65682">
        <ele>404.79998779297</ele>
        <time>2026-09-03T14:11:49.000Z</time>
      </trkpt>
      <trkpt lat="48.22216" lon="6.65682">
        <ele>404.79998779297</ele>
        <time>2026-09-03T14:11:50.000Z</time>
      </trkpt>
      <trkpt lat="48.22217" lon="6.65681">
        <ele>404.79998779297</ele>
        <time>2026-09-03T14:11:51.000Z</time>
      </trkpt>
      <trkpt lat="48.22217" lon="6.6568">
        <ele>404.59997558594</ele>
        <time>2026-09-03T14:11:52.000Z</time>
      </trkpt>
      <trkpt lat="48.22218" lon="6.6568">
        <ele>404.59997558594</ele>
        <time>2026-09-03T14:11:53.000Z</time>
      </trkpt>
      <trkpt lat="48.22218" lon="6.65679">
        <ele>404.59997558594</ele>
        <time>2026-09-03T14:11:54.000Z</time>
      </trkpt>
      <trkpt lat="48.22218" lon="6.65678">
        <ele>404.59997558594</ele>
        <time>2026-09-03T14:11:55.000Z</time>
      </trkpt>
      <trkpt lat="48.22218" lon="6.65678">
        <ele>404.59997558594</ele>
        <time>2026-09-03T14:11:56.000Z</time>
      </trkpt>
      <trkpt lat="48.22218" lon="6.65677">
        <ele>404.59997558594</ele>
        <time>2026-09-03T14:11:57.000Z</time>
      </trkpt>
      <trkpt lat="48.22218" lon="6.65677">
        <ele>404.79998779297</ele>
        <time>2026-09-03T14:11:58.000Z</time>
      </trkpt>
      <trkpt lat="48.22218" lon="6.65675">
        <ele>404.79998779297</ele>
        <time>2026-09-03T14:11:59.000Z</time>
      </trkpt>
      <trkpt lat="48.22218" lon="6.65674">
        <ele>405</ele>
        <time>2026-09-03T14:12:00.000Z</time>
      </trkpt>
      <trkpt lat="48.22218" lon="6.65673">
        <ele>405.20001220703</ele>
        <time>2026-09-03T14:12:01.000Z</time>
      </trkpt>
      <trkpt lat="48.22219" lon="6.65672">
        <ele>405.20001220703</ele>
        <time>2026-09-03T14:12:02.000Z</time>
      </trkpt>
      <trkpt lat="48.22219" lon="6.65671">
        <ele>405.40002441406</ele>
        <time>2026-09-03T14:12:03.000Z</time>
      </trkpt>
      <trkpt lat="48.22218" lon="6.65671">
        <ele>405.40002441406</ele>
        <time>2026-09-03T14:12:04.000Z</time>
      </trkpt>
      <trkpt lat="48.22219" lon="6.65669">
        <ele>405.79998779297</ele>
        <time>2026-09-03T14:12:05.000Z</time>
      </trkpt>
      <trkpt lat="48.22219" lon="6.65668">
        <ele>406</ele>
        <time>2026-09-03T14:12:06.000Z</time>
      </trkpt>
      <trkpt lat="48.22219" lon="6.65666">
        <ele>406.40002441406</ele>
        <time>2026-09-03T14:12:07.000Z</time>
      </trkpt>
      <trkpt lat="48.22219" lon="6.65665">
        <ele>406.59997558594</ele>
        <time>2026-09-03T14:12:08.000Z</time>
      </trkpt>
      <trkpt lat="48.22219" lon="6.65663">
        <ele>406.79998779297</ele>
        <time>2026-09-03T14:12:09.000Z</time>
      </trkpt>
      <trkpt lat="48.22219" lon="6.6566">
        <ele>407</ele>
        <time>2026-09-03T14:12:10.000Z</time>
      </trkpt>
      <trkpt lat="48.2222" lon="6.65658">
        <ele>407.20001220703</ele>
        <time>2026-09-03T14:12:11.000Z</time>
      </trkpt>
      <trkpt lat="48.2222" lon="6.65657">
        <ele>407.40002441406</ele>
        <time>2026-09-03T14:12:12.000Z</time>
      </trkpt>
      <trkpt lat="48.22219" lon="6.65656">
        <ele>407.59997558594</ele>
        <time>2026-09-03T14:12:13.000Z</time>
      </trkpt>
      <trkpt lat="48.22219" lon="6.65655">
        <ele>407.79998779297</ele>
        <time>2026-09-03T14:12:14.000Z</time>
      </trkpt>
      <trkpt lat="48.22218" lon="6.65655">
        <ele>407.79998779297</ele>
        <time>2026-09-03T14:12:15.000Z</time>
      </trkpt>
      <trkpt lat="48.22217" lon="6.65654">
        <ele>408</ele>
        <time>2026-09-03T14:12:16.000Z</time>
      </trkpt>
      <trkpt lat="48.22217" lon="6.65654">
        <ele>408</ele>
        <time>2026-09-03T14:12:17.000Z</time>
      </trkpt>
      <trkpt lat="48.22217" lon="6.65652">
        <ele>408.20001220703</ele>
        <time>2026-09-03T14:12:18.000Z</time>
      </trkpt>
      <trkpt lat="48.22216" lon="6.65651">
        <ele>408.20001220703</ele>
        <time>2026-09-03T14:12:19.000Z</time>
      </trkpt>
      <trkpt lat="48.22215" lon="6.65651">
        <ele>408.40002441406</ele>
        <time>2026-09-03T14:12:20.000Z</time>
      </trkpt>
      <trkpt lat="48.22214" lon="6.65651">
        <ele>408.59997558594</ele>
        <time>2026-09-03T14:12:21.000Z</time>
      </trkpt>
      <trkpt lat="48.22213" lon="6.6565">
        <ele>408.59997558594</ele>
        <time>2026-09-03T14:12:22.000Z</time>
      </trkpt>
      <trkpt lat="48.22212" lon="6.65649">
        <ele>408.59997558594</ele>
        <time>2026-09-03T14:12:23.000Z</time>
      </trkpt>
      <trkpt lat="48.22212" lon="6.65649">
        <ele>408.59997558594</ele>
        <time>2026-09-03T14:12:24.000Z</time>
      </trkpt>
      <trkpt lat="48.22211" lon="6.65648">
        <ele>408.79998779297</ele>
        <time>2026-09-03T14:12:25.000Z</time>
      </trkpt>
      <trkpt lat="48.2221" lon="6.65648">
        <ele>408.79998779297</ele>
        <time>2026-09-03T14:12:26.000Z</time>
      </trkpt>
      <trkpt lat="48.22209" lon="6.65648">
        <ele>409</ele>
        <time>2026-09-03T14:12:27.000Z</time>
      </trkpt>
      <trkpt lat="48.22209" lon="6.65647">
        <ele>409.20001220703</ele>
        <time>2026-09-03T14:12:28.000Z</time>
      </trkpt>
      <trkpt lat="48.22208" lon="6.65646">
        <ele>409.20001220703</ele>
        <time>2026-09-03T14:12:29.000Z</time>
      </trkpt>
      <trkpt lat="48.22207" lon="6.65646">
        <ele>409.40002441406</ele>
        <time>2026-09-03T14:12:30.000Z</time>
      </trkpt>
      <trkpt lat="48.22207" lon="6.65645">
        <ele>409.40002441406</ele>
        <time>2026-09-03T14:12:31.000Z</time>
      </trkpt>
      <trkpt lat="48.22207" lon="6.65645">
        <ele>409.40002441406</ele>
        <time>2026-09-03T14:12:32.000Z</time>
      </trkpt>
      <trkpt lat="48.22206" lon="6.65645">
        <ele>409.40002441406</ele>
        <time>2026-09-03T14:12:33.000Z</time>
      </trkpt>
      <trkpt lat="48.22205" lon="6.65645">
        <ele>409.40002441406</ele>
        <time>2026-09-03T14:12:34.000Z</time>
      </trkpt>
      <trkpt lat="48.22204" lon="6.65644">
        <ele>409.20001220703</ele>
        <time>2026-09-03T14:12:35.000Z</time>
      </trkpt>
      <trkpt lat="48.22203" lon="6.65643">
        <ele>409.20001220703</ele>
        <time>2026-09-03T14:12:36.000Z</time>
      </trkpt>
      <trkpt lat="48.22203" lon="6.65643">
        <ele>409.20001220703</ele>
        <time>2026-09-03T14:12:37.000Z</time>
      </trkpt>
      <trkpt lat="48.22203" lon="6.65642">
        <ele>409</ele>
        <time>2026-09-03T14:12:38.000Z</time>
      </trkpt>
      <trkpt lat="48.22202" lon="6.65642">
        <ele>409</ele>
        <time>2026-09-03T14:12:39.000Z</time>
      </trkpt>
      <trkpt lat="48.22201" lon="6.65641">
        <ele>409</ele>
        <time>2026-09-03T14:12:40.000Z</time>
      </trkpt>
      <trkpt lat="48.22201" lon="6.6564">
        <ele>409</ele>
        <time>2026-09-03T14:12:41.000Z</time>
      </trkpt>
      <trkpt lat="48.222" lon="6.65639">
        <ele>409.20001220703</ele>
        <time>2026-09-03T14:12:42.000Z</time>
      </trkpt>
      <trkpt lat="48.22199" lon="6.65639">
        <ele>409.20001220703</ele>
        <time>2026-09-03T14:12:43.000Z</time>
      </trkpt>
      <trkpt lat="48.22198" lon="6.65638">
        <ele>409.40002441406</ele>
        <time>2026-09-03T14:12:44.000Z</time>
      </trkpt>
      <trkpt lat="48.22198" lon="6.65638">
        <ele>409.40002441406</ele>
        <time>2026-09-03T14:12:45.000Z</time>
      </trkpt>
      <trkpt lat="48.22197" lon="6.65637">
        <ele>409.59997558594</ele>
        <time>2026-09-03T14:12:46.000Z</time>
      </trkpt>
      <trkpt lat="48.22196" lon="6.65637">
        <ele>409.59997558594</ele>
        <time>2026-09-03T14:12:47.000Z</time>
      </trkpt>
      <trkpt lat="48.22194" lon="6.65636">
        <ele>409.79998779297</ele>
        <time>2026-09-03T14:12:48.000Z</time>
      </trkpt>
      <trkpt lat="48.22194" lon="6.65636">
        <ele>409.79998779297</ele>
        <time>2026-09-03T14:12:49.000Z</time>
      </trkpt>
      <trkpt lat="48.22193" lon="6.65635">
        <ele>409.79998779297</ele>
        <time>2026-09-03T14:12:50.000Z</time>
      </trkpt>
      <trkpt lat="48.22192" lon="6.65635">
        <ele>409.79998779297</ele>
        <time>2026-09-03T14:12:51.000Z</time>
      </trkpt>
      <trkpt lat="48.22191" lon="6.65634">
        <ele>409.79998779297</ele>
        <time>2026-09-03T14:12:52.000Z</time>
      </trkpt>
      <trkpt lat="48.2219" lon="6.65634">
        <ele>410</ele>
        <time>2026-09-03T14:12:53.000Z</time>
      </trkpt>
      <trkpt lat="48.22189" lon="6.65633">
        <ele>410</ele>
        <time>2026-09-03T14:12:54.000Z</time>
      </trkpt>
      <trkpt lat="48.22187" lon="6.65633">
        <ele>410.20001220703</ele>
        <time>2026-09-03T14:12:55.000Z</time>
      </trkpt>
      <trkpt lat="48.22186" lon="6.65632">
        <ele>410.20001220703</ele>
        <time>2026-09-03T14:12:56.000Z</time>
      </trkpt>
      <trkpt lat="48.22184" lon="6.65632">
        <ele>410.40002441406</ele>
        <time>2026-09-03T14:12:57.000Z</time>
      </trkpt>
      <trkpt lat="48.22183" lon="6.65632">
        <ele>410.40002441406</ele>
        <time>2026-09-03T14:12:58.000Z</time>
      </trkpt>
      <trkpt lat="48.22183" lon="6.65632">
        <ele>410.40002441406</ele>
        <time>2026-09-03T14:12:59.000Z</time>
      </trkpt>
      <trkpt lat="48.22181" lon="6.65632">
        <ele>410.40002441406</ele>
        <time>2026-09-03T14:13:00.000Z</time>
      </trkpt>
      <trkpt lat="48.2218" lon="6.65632">
        <ele>410.59997558594</ele>
        <time>2026-09-03T14:13:01.000Z</time>
      </trkpt>
      <trkpt lat="48.22179" lon="6.65631">
        <ele>410.59997558594</ele>
        <time>2026-09-03T14:13:02.000Z</time>
      </trkpt>
      <trkpt lat="48.22179" lon="6.65632">
        <ele>410.59997558594</ele>
        <time>2026-09-03T14:13:03.000Z</time>
      </trkpt>
      <trkpt lat="48.22178" lon="6.65632">
        <ele>410.59997558594</ele>
        <time>2026-09-03T14:13:04.000Z</time>
      </trkpt>
      <trkpt lat="48.22177" lon="6.65633">
        <ele>410.59997558594</ele>
        <time>2026-09-03T14:13:05.000Z</time>
      </trkpt>
      <trkpt lat="48.22176" lon="6.65633">
        <ele>410.59997558594</ele>
        <time>2026-09-03T14:13:06.000Z</time>
      </trkpt>
      <trkpt lat="48.22175" lon="6.65633">
        <ele>410.40002441406</ele>
        <time>2026-09-03T14:13:07.000Z</time>
      </trkpt>
      <trkpt lat="48.22174" lon="6.65633">
        <ele>410.40002441406</ele>
        <time>2026-09-03T14:13:08.000Z</time>
      </trkpt>
      <trkpt lat="48.22173" lon="6.65633">
        <ele>410.59997558594</ele>
        <time>2026-09-03T14:13:09.000Z</time>
      </trkpt>
      <trkpt lat="48.22172" lon="6.65632">
        <ele>410.59997558594</ele>
        <time>2026-09-03T14:13:10.000Z</time>
      </trkpt>
      <trkpt lat="48.2217" lon="6.65632">
        <ele>410.79998779297</ele>
        <time>2026-09-03T14:13:11.000Z</time>
      </trkpt>
      <trkpt lat="48.22169" lon="6.65632">
        <ele>410.79998779297</ele>
        <time>2026-09-03T14:13:12.000Z</time>
      </trkpt>
      <trkpt lat="48.22167" lon="6.65631">
        <ele>411</ele>
        <time>2026-09-03T14:13:13.000Z</time>
      </trkpt>
      <trkpt lat="48.22166" lon="6.65631">
        <ele>411</ele>
        <time>2026-09-03T14:13:14.000Z</time>
      </trkpt>
      <trkpt lat="48.22165" lon="6.65631">
        <ele>411.20001220703</ele>
        <time>2026-09-03T14:13:15.000Z</time>
      </trkpt>
      <trkpt lat="48.22165" lon="6.65631">
        <ele>411.20001220703</ele>
        <time>2026-09-03T14:13:16.000Z</time>
      </trkpt>
      <trkpt lat="48.22164" lon="6.65631">
        <ele>411.20001220703</ele>
        <time>2026-09-03T14:13:17.000Z</time>
      </trkpt>
      <trkpt lat="48.22162" lon="6.6563">
        <ele>411.20001220703</ele>
        <time>2026-09-03T14:13:18.000Z</time>
      </trkpt>
      <trkpt lat="48.22161" lon="6.6563">
        <ele>411.20001220703</ele>
        <time>2026-09-03T14:13:19.000Z</time>
      </trkpt>
      <trkpt lat="48.2216" lon="6.6563">
        <ele>411.20001220703</ele>
        <time>2026-09-03T14:13:20.000Z</time>
      </trkpt>
      <trkpt lat="48.22159" lon="6.65629">
        <ele>411.20001220703</ele>
        <time>2026-09-03T14:13:21.000Z</time>
      </trkpt>
      <trkpt lat="48.22158" lon="6.65629">
        <ele>411.20001220703</ele>
        <time>2026-09-03T14:13:22.000Z</time>
      </trkpt>
      <trkpt lat="48.22158" lon="6.65628">
        <ele>411</ele>
        <time>2026-09-03T14:13:23.000Z</time>
      </trkpt>
      <trkpt lat="48.22157" lon="6.65628">
        <ele>411</ele>
        <time>2026-09-03T14:13:24.000Z</time>
      </trkpt>
      <trkpt lat="48.22156" lon="6.65628">
        <ele>411</ele>
        <time>2026-09-03T14:13:25.000Z</time>
      </trkpt>
      <trkpt lat="48.22155" lon="6.65628">
        <ele>411.20001220703</ele>
        <time>2026-09-03T14:13:26.000Z</time>
      </trkpt>
      <trkpt lat="48.22153" lon="6.65628">
        <ele>411.40002441406</ele>
        <time>2026-09-03T14:13:27.000Z</time>
      </trkpt>
      <trkpt lat="48.22153" lon="6.65629">
        <ele>411.59997558594</ele>
        <time>2026-09-03T14:13:28.000Z</time>
      </trkpt>
      <trkpt lat="48.22151" lon="6.65629">
        <ele>411.79998779297</ele>
        <time>2026-09-03T14:13:29.000Z</time>
      </trkpt>
      <trkpt lat="48.2215" lon="6.65629">
        <ele>412</ele>
        <time>2026-09-03T14:13:30.000Z</time>
      </trkpt>
      <trkpt lat="48.22149" lon="6.65629">
        <ele>411.79998779297</ele>
        <time>2026-09-03T14:13:31.000Z</time>
      </trkpt>
      <trkpt lat="48.22149" lon="6.65629">
        <ele>411.59997558594</ele>
        <time>2026-09-03T14:13:32.000Z</time>
      </trkpt>
      <trkpt lat="48.22148" lon="6.65629">
        <ele>411.59997558594</ele>
        <time>2026-09-03T14:13:33.000Z</time>
      </trkpt>
      <trkpt lat="48.22147" lon="6.65628">
        <ele>411.59997558594</ele>
        <time>2026-09-03T14:13:34.000Z</time>
      </trkpt>
      <trkpt lat="48.22146" lon="6.65628">
        <ele>411.59997558594</ele>
        <time>2026-09-03T14:13:35.000Z</time>
      </trkpt>
      <trkpt lat="48.22146" lon="6.65627">
        <ele>411.79998779297</ele>
        <time>2026-09-03T14:13:36.000Z</time>
      </trkpt>
      <trkpt lat="48.22146" lon="6.65627">
        <ele>411.79998779297</ele>
        <time>2026-09-03T14:13:37.000Z</time>
      </trkpt>
      <trkpt lat="48.22146" lon="6.65627">
        <ele>412</ele>
        <time>2026-09-03T14:13:38.000Z</time>
      </trkpt>
      <trkpt lat="48.22145" lon="6.65627">
        <ele>412</ele>
        <time>2026-09-03T14:13:39.000Z</time>
      </trkpt>
      <trkpt lat="48.22145" lon="6.65627">
        <ele>412</ele>
        <time>2026-09-03T14:13:40.000Z</time>
      </trkpt>
      <trkpt lat="48.22144" lon="6.65627">
        <ele>412.20001220703</ele>
        <time>2026-09-03T14:13:41.000Z</time>
      </trkpt>
      <trkpt lat="48.22143" lon="6.65627">
        <ele>412.20001220703</ele>
        <time>2026-09-03T14:13:42.000Z</time>
      </trkpt>
      <trkpt lat="48.22143" lon="6.65627">
        <ele>412.20001220703</ele>
        <time>2026-09-03T14:13:43.000Z</time>
      </trkpt>
      <trkpt lat="48.22143" lon="6.65627">
        <ele>412.20001220703</ele>
        <time>2026-09-03T14:13:44.000Z</time>
      </trkpt>
      <trkpt lat="48.22142" lon="6.65628">
        <ele>412.20001220703</ele>
        <time>2026-09-03T14:13:45.000Z</time>
      </trkpt>
      <trkpt lat="48.22141" lon="6.65629">
        <ele>412.20001220703</ele>
        <time>2026-09-03T14:13:46.000Z</time>
      </trkpt>
      <trkpt lat="48.22141" lon="6.65629">
        <ele>412.20001220703</ele>
        <time>2026-09-03T14:13:47.000Z</time>
      </trkpt>
      <trkpt lat="48.22139" lon="6.65629">
        <ele>412.20001220703</ele>
        <time>2026-09-03T14:13:48.000Z</time>
      </trkpt>
      <trkpt lat="48.22138" lon="6.65628">
        <ele>412.20001220703</ele>
        <time>2026-09-03T14:13:49.000Z</time>
      </trkpt>
      <trkpt lat="48.22137" lon="6.65628">
        <ele>412.20001220703</ele>
        <time>2026-09-03T14:13:50.000Z</time>
      </trkpt>
      <trkpt lat="48.22137" lon="6.65627">
        <ele>412.40002441406</ele>
        <time>2026-09-03T14:13:51.000Z</time>
      </trkpt>
      <trkpt lat="48.22136" lon="6.65627">
        <ele>412.40002441406</ele>
        <time>2026-09-03T14:13:52.000Z</time>
      </trkpt>
      <trkpt lat="48.22135" lon="6.65626">
        <ele>412.59997558594</ele>
        <time>2026-09-03T14:13:53.000Z</time>
      </trkpt>
      <trkpt lat="48.22135" lon="6.65625">
        <ele>412.59997558594</ele>
        <time>2026-09-03T14:13:54.000Z</time>
      </trkpt>
      <trkpt lat="48.22134" lon="6.65624">
        <ele>412.79998779297</ele>
        <time>2026-09-03T14:13:55.000Z</time>
      </trkpt>
      <trkpt lat="48.22133" lon="6.65624">
        <ele>412.79998779297</ele>
        <time>2026-09-03T14:13:56.000Z</time>
      </trkpt>
      <trkpt lat="48.22133" lon="6.65624">
        <ele>412.79998779297</ele>
        <time>2026-09-03T14:13:57.000Z</time>
      </trkpt>
      <trkpt lat="48.22132" lon="6.65624">
        <ele>413</ele>
        <time>2026-09-03T14:13:58.000Z</time>
      </trkpt>
      <trkpt lat="48.22131" lon="6.65624">
        <ele>412.79998779297</ele>
        <time>2026-09-03T14:13:59.000Z</time>
      </trkpt>
      <trkpt lat="48.22131" lon="6.65625">
        <ele>412.79998779297</ele>
        <time>2026-09-03T14:14:00.000Z</time>
      </trkpt>
      <trkpt lat="48.22131" lon="6.65625">
        <ele>412.79998779297</ele>
        <time>2026-09-03T14:14:01.000Z</time>
      </trkpt>
      <trkpt lat="48.2213" lon="6.65624">
        <ele>412.79998779297</ele>
        <time>2026-09-03T14:14:02.000Z</time>
      </trkpt>
      <trkpt lat="48.22129" lon="6.65624">
        <ele>412.59997558594</ele>
        <time>2026-09-03T14:14:03.000Z</time>
      </trkpt>
      <trkpt lat="48.22128" lon="6.65623">
        <ele>412.79998779297</ele>
        <time>2026-09-03T14:14:04.000Z</time>
      </trkpt>
      <trkpt lat="48.22127" lon="6.65623">
        <ele>413</ele>
        <time>2026-09-03T14:14:05.000Z</time>
      </trkpt>
      <trkpt lat="48.22126" lon="6.65622">
        <ele>413.20001220703</ele>
        <time>2026-09-03T14:14:06.000Z</time>
      </trkpt>
      <trkpt lat="48.22125" lon="6.65621">
        <ele>413.20001220703</ele>
        <time>2026-09-03T14:14:07.000Z</time>
      </trkpt>
      <trkpt lat="48.22124" lon="6.6562">
        <ele>413.40002441406</ele>
        <time>2026-09-03T14:14:08.000Z</time>
      </trkpt>
      <trkpt lat="48.22122" lon="6.6562">
        <ele>413.40002441406</ele>
        <time>2026-09-03T14:14:09.000Z</time>
      </trkpt>
      <trkpt lat="48.22121" lon="6.65618">
        <ele>413.40002441406</ele>
        <time>2026-09-03T14:14:10.000Z</time>
      </trkpt>
      <trkpt lat="48.22121" lon="6.65618">
        <ele>413.40002441406</ele>
        <time>2026-09-03T14:14:11.000Z</time>
      </trkpt>
      <trkpt lat="48.22119" lon="6.65618">
        <ele>413.40002441406</ele>
        <time>2026-09-03T14:14:12.000Z</time>
      </trkpt>
      <trkpt lat="48.22118" lon="6.65618">
        <ele>413.40002441406</ele>
        <time>2026-09-03T14:14:13.000Z</time>
      </trkpt>
      <trkpt lat="48.22117" lon="6.65618">
        <ele>413.59997558594</ele>
        <time>2026-09-03T14:14:14.000Z</time>
      </trkpt>
      <trkpt lat="48.22117" lon="6.65618">
        <ele>413.59997558594</ele>
        <time>2026-09-03T14:14:15.000Z</time>
      </trkpt>
      <trkpt lat="48.22116" lon="6.65618">
        <ele>413.59997558594</ele>
        <time>2026-09-03T14:14:16.000Z</time>
      </trkpt>
      <trkpt lat="48.22115" lon="6.65619">
        <ele>413.59997558594</ele>
        <time>2026-09-03T14:14:17.000Z</time>
      </trkpt>
      <trkpt lat="48.22114" lon="6.65619">
        <ele>413.59997558594</ele>
        <time>2026-09-03T14:14:18.000Z</time>
      </trkpt>
      <trkpt lat="48.22114" lon="6.65619">
        <ele>413.59997558594</ele>
        <time>2026-09-03T14:14:19.000Z</time>
      </trkpt>
      <trkpt lat="48.22114" lon="6.6562">
        <ele>413.79998779297</ele>
        <time>2026-09-03T14:14:20.000Z</time>
      </trkpt>
      <trkpt lat="48.22114" lon="6.6562">
        <ele>413.79998779297</ele>
        <time>2026-09-03T14:14:21.000Z</time>
      </trkpt>
      <trkpt lat="48.22114" lon="6.65621">
        <ele>414</ele>
        <time>2026-09-03T14:14:22.000Z</time>
      </trkpt>
      <trkpt lat="48.22113" lon="6.65621">
        <ele>414.20001220703</ele>
        <time>2026-09-03T14:14:23.000Z</time>
      </trkpt>
      <trkpt lat="48.22112" lon="6.65621">
        <ele>414.20001220703</ele>
        <time>2026-09-03T14:14:24.000Z</time>
      </trkpt>
      <trkpt lat="48.22111" lon="6.65622">
        <ele>414.20001220703</ele>
        <time>2026-09-03T14:14:25.000Z</time>
      </trkpt>
      <trkpt lat="48.2211" lon="6.65622">
        <ele>414.20001220703</ele>
        <time>2026-09-03T14:14:26.000Z</time>
      </trkpt>
      <trkpt lat="48.22109" lon="6.65623">
        <ele>414.20001220703</ele>
        <time>2026-09-03T14:14:27.000Z</time>
      </trkpt>
      <trkpt lat="48.22108" lon="6.65623">
        <ele>414.40002441406</ele>
        <time>2026-09-03T14:14:28.000Z</time>
      </trkpt>
      <trkpt lat="48.22107" lon="6.65624">
        <ele>414.40002441406</ele>
        <time>2026-09-03T14:14:29.000Z</time>
      </trkpt>
      <trkpt lat="48.22107" lon="6.65624">
        <ele>414.40002441406</ele>
        <time>2026-09-03T14:14:30.000Z</time>
      </trkpt>
      <trkpt lat="48.22105" lon="6.65624">
        <ele>414.40002441406</ele>
        <time>2026-09-03T14:14:31.000Z</time>
      </trkpt>
      <trkpt lat="48.22104" lon="6.65624">
        <ele>414.59997558594</ele>
        <time>2026-09-03T14:14:32.000Z</time>
      </trkpt>
      <trkpt lat="48.22103" lon="6.65624">
        <ele>414.59997558594</ele>
        <time>2026-09-03T14:14:33.000Z</time>
      </trkpt>
      <trkpt lat="48.22102" lon="6.65623">
        <ele>414.59997558594</ele>
        <time>2026-09-03T14:14:34.000Z</time>
      </trkpt>
      <trkpt lat="48.22101" lon="6.65623">
        <ele>414.59997558594</ele>
        <time>2026-09-03T14:14:35.000Z</time>
      </trkpt>
      <trkpt lat="48.221" lon="6.65622">
        <ele>414.59997558594</ele>
        <time>2026-09-03T14:14:36.000Z</time>
      </trkpt>
      <trkpt lat="48.22099" lon="6.65622">
        <ele>414.59997558594</ele>
        <time>2026-09-03T14:14:37.000Z</time>
      </trkpt>
      <trkpt lat="48.22099" lon="6.65623">
        <ele>414.59997558594</ele>
        <time>2026-09-03T14:14:38.000Z</time>
      </trkpt>
      <trkpt lat="48.22099" lon="6.65623">
        <ele>414.59997558594</ele>
        <time>2026-09-03T14:14:39.000Z</time>
      </trkpt>
      <trkpt lat="48.22098" lon="6.65623">
        <ele>414.59997558594</ele>
        <time>2026-09-03T14:14:40.000Z</time>
      </trkpt>
      <trkpt lat="48.22098" lon="6.65623">
        <ele>414.59997558594</ele>
        <time>2026-09-03T14:14:41.000Z</time>
      </trkpt>
      <trkpt lat="48.22097" lon="6.65622">
        <ele>414.59997558594</ele>
        <time>2026-09-03T14:14:42.000Z</time>
      </trkpt>
      <trkpt lat="48.22097" lon="6.65622">
        <ele>414.59997558594</ele>
        <time>2026-09-03T14:14:43.000Z</time>
      </trkpt>
      <trkpt lat="48.22096" lon="6.65622">
        <ele>414.59997558594</ele>
        <time>2026-09-03T14:14:44.000Z</time>
      </trkpt>
      <trkpt lat="48.22096" lon="6.65622">
        <ele>414.59997558594</ele>
        <time>2026-09-03T14:14:45.000Z</time>
      </trkpt>
      <trkpt lat="48.22096" lon="6.65622">
        <ele>414.59997558594</ele>
        <time>2026-09-03T14:14:46.000Z</time>
      </trkpt>
      <trkpt lat="48.22095" lon="6.65623">
        <ele>414.59997558594</ele>
        <time>2026-09-03T14:14:47.000Z</time>
      </trkpt>
      <trkpt lat="48.22094" lon="6.65623">
        <ele>414.59997558594</ele>
        <time>2026-09-03T14:14:48.000Z</time>
      </trkpt>
      <trkpt lat="48.22094" lon="6.65624">
        <ele>414.59997558594</ele>
        <time>2026-09-03T14:14:49.000Z</time>
      </trkpt>
      <trkpt lat="48.22094" lon="6.65624">
        <ele>414.59997558594</ele>
        <time>2026-09-03T14:14:50.000Z</time>
      </trkpt>
      <trkpt lat="48.22094" lon="6.65626">
        <ele>414.59997558594</ele>
        <time>2026-09-03T14:14:51.000Z</time>
      </trkpt>
      <trkpt lat="48.22093" lon="6.65626">
        <ele>414.59997558594</ele>
        <time>2026-09-03T14:14:52.000Z</time>
      </trkpt>
      <trkpt lat="48.22092" lon="6.65627">
        <ele>414.40002441406</ele>
        <time>2026-09-03T14:14:53.000Z</time>
      </trkpt>
      <trkpt lat="48.2209" lon="6.65627">
        <ele>414.40002441406</ele>
        <time>2026-09-03T14:14:54.000Z</time>
      </trkpt>
      <trkpt lat="48.2209" lon="6.65627">
        <ele>414.40002441406</ele>
        <time>2026-09-03T14:14:55.000Z</time>
      </trkpt>
      <trkpt lat="48.22089" lon="6.65628">
        <ele>414.40002441406</ele>
        <time>2026-09-03T14:14:56.000Z</time>
      </trkpt>
      <trkpt lat="48.22088" lon="6.65628">
        <ele>414.40002441406</ele>
        <time>2026-09-03T14:14:57.000Z</time>
      </trkpt>
      <trkpt lat="48.22087" lon="6.65628">
        <ele>414.40002441406</ele>
        <time>2026-09-03T14:14:58.000Z</time>
      </trkpt>
      <trkpt lat="48.22085" lon="6.65629">
        <ele>414.40002441406</ele>
        <time>2026-09-03T14:14:59.000Z</time>
      </trkpt>
      <trkpt lat="48.22085" lon="6.6563">
        <ele>414.40002441406</ele>
        <time>2026-09-03T14:15:00.000Z</time>
      </trkpt>
      <trkpt lat="48.22084" lon="6.6563">
        <ele>414.59997558594</ele>
        <time>2026-09-03T14:15:01.000Z</time>
      </trkpt>
      <trkpt lat="48.22084" lon="6.65631">
        <ele>414.79998779297</ele>
        <time>2026-09-03T14:15:02.000Z</time>
      </trkpt>
      <trkpt lat="48.22083" lon="6.65632">
        <ele>414.79998779297</ele>
        <time>2026-09-03T14:15:03.000Z</time>
      </trkpt>
      <trkpt lat="48.22082" lon="6.65632">
        <ele>414.79998779297</ele>
        <time>2026-09-03T14:15:04.000Z</time>
      </trkpt>
      <trkpt lat="48.22082" lon="6.65633">
        <ele>414.79998779297</ele>
        <time>2026-09-03T14:15:05.000Z</time>
      </trkpt>
      <trkpt lat="48.22082" lon="6.65634">
        <ele>414.79998779297</ele>
        <time>2026-09-03T14:15:06.000Z</time>
      </trkpt>
      <trkpt lat="48.22082" lon="6.65634">
        <ele>414.79998779297</ele>
        <time>2026-09-03T14:15:07.000Z</time>
      </trkpt>
      <trkpt lat="48.22081" lon="6.65635">
        <ele>414.79998779297</ele>
        <time>2026-09-03T14:15:08.000Z</time>
      </trkpt>
      <trkpt lat="48.22081" lon="6.65637">
        <ele>414.79998779297</ele>
        <time>2026-09-03T14:15:09.000Z</time>
      </trkpt>
      <trkpt lat="48.2208" lon="6.65638">
        <ele>415</ele>
        <time>2026-09-03T14:15:10.000Z</time>
      </trkpt>
      <trkpt lat="48.2208" lon="6.65638">
        <ele>415</ele>
        <time>2026-09-03T14:15:11.000Z</time>
      </trkpt>
      <trkpt lat="48.22079" lon="6.65639">
        <ele>415</ele>
        <time>2026-09-03T14:15:12.000Z</time>
      </trkpt>
      <trkpt lat="48.22079" lon="6.6564">
        <ele>415.20001220703</ele>
        <time>2026-09-03T14:15:13.000Z</time>
      </trkpt>
      <trkpt lat="48.22078" lon="6.65642">
        <ele>415.20001220703</ele>
        <time>2026-09-03T14:15:14.000Z</time>
      </trkpt>
      <trkpt lat="48.22077" lon="6.65643">
        <ele>415.20001220703</ele>
        <time>2026-09-03T14:15:15.000Z</time>
      </trkpt>
      <trkpt lat="48.22076" lon="6.65644">
        <ele>415.20001220703</ele>
        <time>2026-09-03T14:15:16.000Z</time>
      </trkpt>
      <trkpt lat="48.22075" lon="6.65645">
        <ele>415.20001220703</ele>
        <time>2026-09-03T14:15:17.000Z</time>
      </trkpt>
      <trkpt lat="48.22074" lon="6.65646">
        <ele>415.20001220703</ele>
        <time>2026-09-03T14:15:18.000Z</time>
      </trkpt>
      <trkpt lat="48.22073" lon="6.65648">
        <ele>415.20001220703</ele>
        <time>2026-09-03T14:15:19.000Z</time>
      </trkpt>
      <trkpt lat="48.22073" lon="6.6565">
        <ele>415.20001220703</ele>
        <time>2026-09-03T14:15:20.000Z</time>
      </trkpt>
      <trkpt lat="48.22071" lon="6.65652">
        <ele>415.20001220703</ele>
        <time>2026-09-03T14:15:21.000Z</time>
      </trkpt>
      <trkpt lat="48.22071" lon="6.65653">
        <ele>415.20001220703</ele>
        <time>2026-09-03T14:15:22.000Z</time>
      </trkpt>
      <trkpt lat="48.2207" lon="6.65654">
        <ele>415.20001220703</ele>
        <time>2026-09-03T14:15:23.000Z</time>
      </trkpt>
      <trkpt lat="48.22069" lon="6.65655">
        <ele>415.40002441406</ele>
        <time>2026-09-03T14:15:24.000Z</time>
      </trkpt>
      <trkpt lat="48.22068" lon="6.65656">
        <ele>415.40002441406</ele>
        <time>2026-09-03T14:15:25.000Z</time>
      </trkpt>
      <trkpt lat="48.22067" lon="6.65658">
        <ele>415.40002441406</ele>
        <time>2026-09-03T14:15:26.000Z</time>
      </trkpt>
      <trkpt lat="48.22066" lon="6.65659">
        <ele>415.40002441406</ele>
        <time>2026-09-03T14:15:27.000Z</time>
      </trkpt>
      <trkpt lat="48.22066" lon="6.65661">
        <ele>415.40002441406</ele>
        <time>2026-09-03T14:15:28.000Z</time>
      </trkpt>
      <trkpt lat="48.22066" lon="6.65662">
        <ele>415.59997558594</ele>
        <time>2026-09-03T14:15:29.000Z</time>
      </trkpt>
      <trkpt lat="48.22065" lon="6.65662">
        <ele>415.59997558594</ele>
        <time>2026-09-03T14:15:30.000Z</time>
      </trkpt>
      <trkpt lat="48.22064" lon="6.65663">
        <ele>415.59997558594</ele>
        <time>2026-09-03T14:15:31.000Z</time>
      </trkpt>
      <trkpt lat="48.22063" lon="6.65664">
        <ele>415.59997558594</ele>
        <time>2026-09-03T14:15:32.000Z</time>
      </trkpt>
      <trkpt lat="48.22063" lon="6.65666">
        <ele>415.79998779297</ele>
        <time>2026-09-03T14:15:33.000Z</time>
      </trkpt>
      <trkpt lat="48.22062" lon="6.65667">
        <ele>415.79998779297</ele>
        <time>2026-09-03T14:15:34.000Z</time>
      </trkpt>
      <trkpt lat="48.22061" lon="6.65668">
        <ele>415.79998779297</ele>
        <time>2026-09-03T14:15:35.000Z</time>
      </trkpt>
      <trkpt lat="48.22061" lon="6.65667">
        <ele>415.79998779297</ele>
        <time>2026-09-03T14:15:36.000Z</time>
      </trkpt>
      <trkpt lat="48.22061" lon="6.65666">
        <ele>415.79998779297</ele>
        <time>2026-09-03T14:15:37.000Z</time>
      </trkpt>
      <trkpt lat="48.22061" lon="6.65667">
        <ele>415.79998779297</ele>
        <time>2026-09-03T14:15:38.000Z</time>
      </trkpt>
      <trkpt lat="48.2206" lon="6.65668">
        <ele>415.79998779297</ele>
        <time>2026-09-03T14:15:39.000Z</time>
      </trkpt>
      <trkpt lat="48.22059" lon="6.65669">
        <ele>415.79998779297</ele>
        <time>2026-09-03T14:15:40.000Z</time>
      </trkpt>
      <trkpt lat="48.22057" lon="6.6567">
        <ele>415.79998779297</ele>
        <time>2026-09-03T14:15:41.000Z</time>
      </trkpt>
      <trkpt lat="48.22056" lon="6.65671">
        <ele>415.79998779297</ele>
        <time>2026-09-03T14:15:42.000Z</time>
      </trkpt>
      <trkpt lat="48.22055" lon="6.65671">
        <ele>416</ele>
        <time>2026-09-03T14:15:43.000Z</time>
      </trkpt>
      <trkpt lat="48.22054" lon="6.65672">
        <ele>416</ele>
        <time>2026-09-03T14:15:44.000Z</time>
      </trkpt>
      <trkpt lat="48.22054" lon="6.65673">
        <ele>416.20001220703</ele>
        <time>2026-09-03T14:15:45.000Z</time>
      </trkpt>
      <trkpt lat="48.22053" lon="6.65673">
        <ele>416.20001220703</ele>
        <time>2026-09-03T14:15:46.000Z</time>
      </trkpt>
      <trkpt lat="48.22052" lon="6.65674">
        <ele>416.20001220703</ele>
        <time>2026-09-03T14:15:47.000Z</time>
      </trkpt>
      <trkpt lat="48.22052" lon="6.65676">
        <ele>416.40002441406</ele>
        <time>2026-09-03T14:15:48.000Z</time>
      </trkpt>
      <trkpt lat="48.22051" lon="6.65676">
        <ele>416.40002441406</ele>
        <time>2026-09-03T14:15:49.000Z</time>
      </trkpt>
      <trkpt lat="48.2205" lon="6.65677">
        <ele>416.59997558594</ele>
        <time>2026-09-03T14:15:50.000Z</time>
      </trkpt>
      <trkpt lat="48.22049" lon="6.65678">
        <ele>416.59997558594</ele>
        <time>2026-09-03T14:15:51.000Z</time>
      </trkpt>
      <trkpt lat="48.22048" lon="6.65679">
        <ele>416.59997558594</ele>
        <time>2026-09-03T14:15:52.000Z</time>
      </trkpt>
      <trkpt lat="48.22047" lon="6.65679">
        <ele>416.79998779297</ele>
        <time>2026-09-03T14:15:53.000Z</time>
      </trkpt>
      <trkpt lat="48.22046" lon="6.6568">
        <ele>416.79998779297</ele>
        <time>2026-09-03T14:15:54.000Z</time>
      </trkpt>
      <trkpt lat="48.22045" lon="6.65681">
        <ele>416.79998779297</ele>
        <time>2026-09-03T14:15:55.000Z</time>
      </trkpt>
      <trkpt lat="48.22044" lon="6.65682">
        <ele>417</ele>
        <time>2026-09-03T14:15:56.000Z</time>
      </trkpt>
      <trkpt lat="48.22044" lon="6.65683">
        <ele>416.79998779297</ele>
        <time>2026-09-03T14:15:57.000Z</time>
      </trkpt>
      <trkpt lat="48.22043" lon="6.65684">
        <ele>416.79998779297</ele>
        <time>2026-09-03T14:15:58.000Z</time>
      </trkpt>
      <trkpt lat="48.22042" lon="6.65686">
        <ele>416.79998779297</ele>
        <time>2026-09-03T14:15:59.000Z</time>
      </trkpt>
      <trkpt lat="48.22042" lon="6.65687">
        <ele>417</ele>
        <time>2026-09-03T14:16:00.000Z</time>
      </trkpt>
      <trkpt lat="48.22041" lon="6.65688">
        <ele>417</ele>
        <time>2026-09-03T14:16:01.000Z</time>
      </trkpt>
      <trkpt lat="48.2204" lon="6.6569">
        <ele>417.20001220703</ele>
        <time>2026-09-03T14:16:02.000Z</time>
      </trkpt>
      <trkpt lat="48.22039" lon="6.65691">
        <ele>417.20001220703</ele>
        <time>2026-09-03T14:16:03.000Z</time>
      </trkpt>
      <trkpt lat="48.22039" lon="6.65692">
        <ele>417.40002441406</ele>
        <time>2026-09-03T14:16:04.000Z</time>
      </trkpt>
      <trkpt lat="48.22038" lon="6.65693">
        <ele>417.40002441406</ele>
        <time>2026-09-03T14:16:05.000Z</time>
      </trkpt>
      <trkpt lat="48.22037" lon="6.65695">
        <ele>417.40002441406</ele>
        <time>2026-09-03T14:16:06.000Z</time>
      </trkpt>
      <trkpt lat="48.22036" lon="6.65695">
        <ele>417.59997558594</ele>
        <time>2026-09-03T14:16:07.000Z</time>
      </trkpt>
      <trkpt lat="48.22036" lon="6.65697">
        <ele>417.59997558594</ele>
        <time>2026-09-03T14:16:08.000Z</time>
      </trkpt>
      <trkpt lat="48.22035" lon="6.65698">
        <ele>417.59997558594</ele>
        <time>2026-09-03T14:16:09.000Z</time>
      </trkpt>
      <trkpt lat="48.22035" lon="6.657">
        <ele>417.59997558594</ele>
        <time>2026-09-03T14:16:10.000Z</time>
      </trkpt>
      <trkpt lat="48.22034" lon="6.65701">
        <ele>417.59997558594</ele>
        <time>2026-09-03T14:16:11.000Z</time>
      </trkpt>
      <trkpt lat="48.22034" lon="6.65702">
        <ele>417.59997558594</ele>
        <time>2026-09-03T14:16:12.000Z</time>
      </trkpt>
      <trkpt lat="48.22033" lon="6.65703">
        <ele>417.59997558594</ele>
        <time>2026-09-03T14:16:13.000Z</time>
      </trkpt>
      <trkpt lat="48.22033" lon="6.65704">
        <ele>417.79998779297</ele>
        <time>2026-09-03T14:16:14.000Z</time>
      </trkpt>
      <trkpt lat="48.22032" lon="6.65705">
        <ele>418</ele>
        <time>2026-09-03T14:16:15.000Z</time>
      </trkpt>
      <trkpt lat="48.22031" lon="6.65707">
        <ele>418</ele>
        <time>2026-09-03T14:16:16.000Z</time>
      </trkpt>
      <trkpt lat="48.22031" lon="6.65708">
        <ele>418</ele>
        <time>2026-09-03T14:16:17.000Z</time>
      </trkpt>
      <trkpt lat="48.2203" lon="6.65709">
        <ele>418</ele>
        <time>2026-09-03T14:16:18.000Z</time>
      </trkpt>
      <trkpt lat="48.2203" lon="6.65709">
        <ele>417.79998779297</ele>
        <time>2026-09-03T14:16:19.000Z</time>
      </trkpt>
      <trkpt lat="48.22029" lon="6.6571">
        <ele>417.79998779297</ele>
        <time>2026-09-03T14:16:20.000Z</time>
      </trkpt>
      <trkpt lat="48.22028" lon="6.65711">
        <ele>417.79998779297</ele>
        <time>2026-09-03T14:16:21.000Z</time>
      </trkpt>
      <trkpt lat="48.22028" lon="6.65711">
        <ele>417.79998779297</ele>
        <time>2026-09-03T14:16:22.000Z</time>
      </trkpt>
      <trkpt lat="48.22027" lon="6.65712">
        <ele>417.79998779297</ele>
        <time>2026-09-03T14:16:23.000Z</time>
      </trkpt>
      <trkpt lat="48.22026" lon="6.65713">
        <ele>417.59997558594</ele>
        <time>2026-09-03T14:16:24.000Z</time>
      </trkpt>
      <trkpt lat="48.22025" lon="6.65714">
        <ele>417.59997558594</ele>
        <time>2026-09-03T14:16:25.000Z</time>
      </trkpt>
      <trkpt lat="48.22024" lon="6.65715">
        <ele>417.59997558594</ele>
        <time>2026-09-03T14:16:26.000Z</time>
      </trkpt>
      <trkpt lat="48.22024" lon="6.65717">
        <ele>417.59997558594</ele>
        <time>2026-09-03T14:16:27.000Z</time>
      </trkpt>
      <trkpt lat="48.22023" lon="6.65719">
        <ele>417.59997558594</ele>
        <time>2026-09-03T14:16:28.000Z</time>
      </trkpt>
      <trkpt lat="48.22023" lon="6.6572">
        <ele>417.79998779297</ele>
        <time>2026-09-03T14:16:29.000Z</time>
      </trkpt>
      <trkpt lat="48.22022" lon="6.65721">
        <ele>418</ele>
        <time>2026-09-03T14:16:30.000Z</time>
      </trkpt>
      <trkpt lat="48.22021" lon="6.65723">
        <ele>418.20001220703</ele>
        <time>2026-09-03T14:16:31.000Z</time>
      </trkpt>
      <trkpt lat="48.22021" lon="6.65724">
        <ele>418.40002441406</ele>
        <time>2026-09-03T14:16:32.000Z</time>
      </trkpt>
      <trkpt lat="48.22019" lon="6.65726">
        <ele>418.40002441406</ele>
        <time>2026-09-03T14:16:33.000Z</time>
      </trkpt>
      <trkpt lat="48.22019" lon="6.65728">
        <ele>418.20001220703</ele>
        <time>2026-09-03T14:16:34.000Z</time>
      </trkpt>
      <trkpt lat="48.22018" lon="6.65729">
        <ele>418.20001220703</ele>
        <time>2026-09-03T14:16:35.000Z</time>
      </trkpt>
      <trkpt lat="48.22017" lon="6.6573">
        <ele>418.20001220703</ele>
        <time>2026-09-03T14:16:36.000Z</time>
      </trkpt>
      <trkpt lat="48.22016" lon="6.65732">
        <ele>418.40002441406</ele>
        <time>2026-09-03T14:16:37.000Z</time>
      </trkpt>
      <trkpt lat="48.22015" lon="6.65734">
        <ele>418.40002441406</ele>
        <time>2026-09-03T14:16:38.000Z</time>
      </trkpt>
      <trkpt lat="48.22014" lon="6.65735">
        <ele>418.40002441406</ele>
        <time>2026-09-03T14:16:39.000Z</time>
      </trkpt>
      <trkpt lat="48.22013" lon="6.65736">
        <ele>418.40002441406</ele>
        <time>2026-09-03T14:16:40.000Z</time>
      </trkpt>
      <trkpt lat="48.22013" lon="6.65737">
        <ele>418.59997558594</ele>
        <time>2026-09-03T14:16:41.000Z</time>
      </trkpt>
      <trkpt lat="48.22012" lon="6.65737">
        <ele>418.59997558594</ele>
        <time>2026-09-03T14:16:42.000Z</time>
      </trkpt>
      <trkpt lat="48.22011" lon="6.65738">
        <ele>418.59997558594</ele>
        <time>2026-09-03T14:16:43.000Z</time>
      </trkpt>
      <trkpt lat="48.2201" lon="6.65739">
        <ele>418.59997558594</ele>
        <time>2026-09-03T14:16:44.000Z</time>
      </trkpt>
      <trkpt lat="48.22009" lon="6.6574">
        <ele>418.59997558594</ele>
        <time>2026-09-03T14:16:45.000Z</time>
      </trkpt>
      <trkpt lat="48.22008" lon="6.65741">
        <ele>418.79998779297</ele>
        <time>2026-09-03T14:16:46.000Z</time>
      </trkpt>
      <trkpt lat="48.22007" lon="6.65741">
        <ele>418.59997558594</ele>
        <time>2026-09-03T14:16:47.000Z</time>
      </trkpt>
      <trkpt lat="48.22006" lon="6.65742">
        <ele>418.79998779297</ele>
        <time>2026-09-03T14:16:48.000Z</time>
      </trkpt>
      <trkpt lat="48.22006" lon="6.65743">
        <ele>418.79998779297</ele>
        <time>2026-09-03T14:16:49.000Z</time>
      </trkpt>
      <trkpt lat="48.22005" lon="6.65744">
        <ele>418.79998779297</ele>
        <time>2026-09-03T14:16:50.000Z</time>
      </trkpt>
      <trkpt lat="48.22004" lon="6.65745">
        <ele>418.79998779297</ele>
        <time>2026-09-03T14:16:51.000Z</time>
      </trkpt>
      <trkpt lat="48.22003" lon="6.65746">
        <ele>418.79998779297</ele>
        <time>2026-09-03T14:16:52.000Z</time>
      </trkpt>
      <trkpt lat="48.22002" lon="6.65747">
        <ele>418.79998779297</ele>
        <time>2026-09-03T14:16:53.000Z</time>
      </trkpt>
      <trkpt lat="48.22002" lon="6.65748">
        <ele>418.79998779297</ele>
        <time>2026-09-03T14:16:54.000Z</time>
      </trkpt>
      <trkpt lat="48.22001" lon="6.65749">
        <ele>418.79998779297</ele>
        <time>2026-09-03T14:16:55.000Z</time>
      </trkpt>
      <trkpt lat="48.22" lon="6.6575">
        <ele>418.79998779297</ele>
        <time>2026-09-03T14:16:56.000Z</time>
      </trkpt>
      <trkpt lat="48.21999" lon="6.65752">
        <ele>418.79998779297</ele>
        <time>2026-09-03T14:16:57.000Z</time>
      </trkpt>
      <trkpt lat="48.21998" lon="6.65753">
        <ele>418.79998779297</ele>
        <time>2026-09-03T14:16:58.000Z</time>
      </trkpt>
      <trkpt lat="48.21997" lon="6.65754">
        <ele>418.79998779297</ele>
        <time>2026-09-03T14:16:59.000Z</time>
      </trkpt>
      <trkpt lat="48.21996" lon="6.65756">
        <ele>419</ele>
        <time>2026-09-03T14:17:00.000Z</time>
      </trkpt>
      <trkpt lat="48.21995" lon="6.65757">
        <ele>419</ele>
        <time>2026-09-03T14:17:01.000Z</time>
      </trkpt>
      <trkpt lat="48.21994" lon="6.65759">
        <ele>419</ele>
        <time>2026-09-03T14:17:02.000Z</time>
      </trkpt>
      <trkpt lat="48.21993" lon="6.6576">
        <ele>419.20001220703</ele>
        <time>2026-09-03T14:17:03.000Z</time>
      </trkpt>
      <trkpt lat="48.21992" lon="6.65761">
        <ele>419.20001220703</ele>
        <time>2026-09-03T14:17:04.000Z</time>
      </trkpt>
      <trkpt lat="48.21991" lon="6.65762">
        <ele>419.20001220703</ele>
        <time>2026-09-03T14:17:05.000Z</time>
      </trkpt>
      <trkpt lat="48.21989" lon="6.65763">
        <ele>419.20001220703</ele>
        <time>2026-09-03T14:17:06.000Z</time>
      </trkpt>
      <trkpt lat="48.21989" lon="6.65764">
        <ele>419.20001220703</ele>
        <time>2026-09-03T14:17:07.000Z</time>
      </trkpt>
      <trkpt lat="48.21988" lon="6.65766">
        <ele>419.20001220703</ele>
        <time>2026-09-03T14:17:08.000Z</time>
      </trkpt>
      <trkpt lat="48.21988" lon="6.65767">
        <ele>419.20001220703</ele>
        <time>2026-09-03T14:17:09.000Z</time>
      </trkpt>
      <trkpt lat="48.21987" lon="6.65768">
        <ele>419.40002441406</ele>
        <time>2026-09-03T14:17:10.000Z</time>
      </trkpt>
      <trkpt lat="48.21986" lon="6.65769">
        <ele>419.40002441406</ele>
        <time>2026-09-03T14:17:11.000Z</time>
      </trkpt>
      <trkpt lat="48.21985" lon="6.6577">
        <ele>419.40002441406</ele>
        <time>2026-09-03T14:17:12.000Z</time>
      </trkpt>
      <trkpt lat="48.21985" lon="6.6577">
        <ele>419.20001220703</ele>
        <time>2026-09-03T14:17:13.000Z</time>
      </trkpt>
      <trkpt lat="48.21985" lon="6.65772">
        <ele>419.20001220703</ele>
        <time>2026-09-03T14:17:14.000Z</time>
      </trkpt>
      <trkpt lat="48.21984" lon="6.65773">
        <ele>419.20001220703</ele>
        <time>2026-09-03T14:17:15.000Z</time>
      </trkpt>
      <trkpt lat="48.21983" lon="6.65774">
        <ele>419</ele>
        <time>2026-09-03T14:17:16.000Z</time>
      </trkpt>
      <trkpt lat="48.21982" lon="6.65774">
        <ele>419</ele>
        <time>2026-09-03T14:17:17.000Z</time>
      </trkpt>
      <trkpt lat="48.21981" lon="6.65776">
        <ele>419</ele>
        <time>2026-09-03T14:17:18.000Z</time>
      </trkpt>
      <trkpt lat="48.2198" lon="6.65777">
        <ele>419</ele>
        <time>2026-09-03T14:17:19.000Z</time>
      </trkpt>
      <trkpt lat="48.21979" lon="6.65778">
        <ele>419</ele>
        <time>2026-09-03T14:17:20.000Z</time>
      </trkpt>
      <trkpt lat="48.21978" lon="6.65779">
        <ele>419</ele>
        <time>2026-09-03T14:17:21.000Z</time>
      </trkpt>
      <trkpt lat="48.21977" lon="6.6578">
        <ele>419.20001220703</ele>
        <time>2026-09-03T14:17:22.000Z</time>
      </trkpt>
      <trkpt lat="48.21976" lon="6.65781">
        <ele>419.20001220703</ele>
        <time>2026-09-03T14:17:23.000Z</time>
      </trkpt>
      <trkpt lat="48.21975" lon="6.65783">
        <ele>419.20001220703</ele>
        <time>2026-09-03T14:17:24.000Z</time>
      </trkpt>
      <trkpt lat="48.21974" lon="6.65783">
        <ele>419.20001220703</ele>
        <time>2026-09-03T14:17:25.000Z</time>
      </trkpt>
      <trkpt lat="48.21974" lon="6.65785">
        <ele>419.20001220703</ele>
        <time>2026-09-03T14:17:26.000Z</time>
      </trkpt>
      <trkpt lat="48.21973" lon="6.65786">
        <ele>419.20001220703</ele>
        <time>2026-09-03T14:17:27.000Z</time>
      </trkpt>
      <trkpt lat="48.21973" lon="6.65787">
        <ele>419.20001220703</ele>
        <time>2026-09-03T14:17:28.000Z</time>
      </trkpt>
      <trkpt lat="48.21973" lon="6.65789">
        <ele>419.20001220703</ele>
        <time>2026-09-03T14:17:29.000Z</time>
      </trkpt>
      <trkpt lat="48.21972" lon="6.6579">
        <ele>419.20001220703</ele>
        <time>2026-09-03T14:17:30.000Z</time>
      </trkpt>
      <trkpt lat="48.21971" lon="6.65791">
        <ele>419.20001220703</ele>
        <time>2026-09-03T14:17:31.000Z</time>
      </trkpt>
      <trkpt lat="48.21971" lon="6.65792">
        <ele>419.40002441406</ele>
        <time>2026-09-03T14:17:32.000Z</time>
      </trkpt>
      <trkpt lat="48.2197" lon="6.65793">
        <ele>419.40002441406</ele>
        <time>2026-09-03T14:17:33.000Z</time>
      </trkpt>
      <trkpt lat="48.21969" lon="6.65795">
        <ele>419.40002441406</ele>
        <time>2026-09-03T14:17:34.000Z</time>
      </trkpt>
      <trkpt lat="48.21969" lon="6.65796">
        <ele>419.40002441406</ele>
        <time>2026-09-03T14:17:35.000Z</time>
      </trkpt>
      <trkpt lat="48.21968" lon="6.65796">
        <ele>419.40002441406</ele>
        <time>2026-09-03T14:17:36.000Z</time>
      </trkpt>
      <trkpt lat="48.21967" lon="6.65797">
        <ele>419.40002441406</ele>
        <time>2026-09-03T14:17:37.000Z</time>
      </trkpt>
      <trkpt lat="48.21966" lon="6.65798">
        <ele>419.40002441406</ele>
        <time>2026-09-03T14:17:38.000Z</time>
      </trkpt>
      <trkpt lat="48.21965" lon="6.658">
        <ele>419.40002441406</ele>
        <time>2026-09-03T14:17:39.000Z</time>
      </trkpt>
      <trkpt lat="48.21964" lon="6.65801">
        <ele>419.59997558594</ele>
        <time>2026-09-03T14:17:40.000Z</time>
      </trkpt>
      <trkpt lat="48.21963" lon="6.65802">
        <ele>419.59997558594</ele>
        <time>2026-09-03T14:17:41.000Z</time>
      </trkpt>
      <trkpt lat="48.21962" lon="6.65802">
        <ele>419.59997558594</ele>
        <time>2026-09-03T14:17:42.000Z</time>
      </trkpt>
      <trkpt lat="48.21961" lon="6.65803">
        <ele>419.59997558594</ele>
        <time>2026-09-03T14:17:43.000Z</time>
      </trkpt>
      <trkpt lat="48.2196" lon="6.65804">
        <ele>419.59997558594</ele>
        <time>2026-09-03T14:17:44.000Z</time>
      </trkpt>
      <trkpt lat="48.21959" lon="6.65805">
        <ele>419.59997558594</ele>
        <time>2026-09-03T14:17:45.000Z</time>
      </trkpt>
      <trkpt lat="48.21958" lon="6.65806">
        <ele>419.40002441406</ele>
        <time>2026-09-03T14:17:46.000Z</time>
      </trkpt>
      <trkpt lat="48.21958" lon="6.65807">
        <ele>419.59997558594</ele>
        <time>2026-09-03T14:17:47.000Z</time>
      </trkpt>
      <trkpt lat="48.21957" lon="6.65808">
        <ele>419.59997558594</ele>
        <time>2026-09-03T14:17:48.000Z</time>
      </trkpt>
      <trkpt lat="48.21956" lon="6.65809">
        <ele>419.79998779297</ele>
        <time>2026-09-03T14:17:49.000Z</time>
      </trkpt>
      <trkpt lat="48.21956" lon="6.65809">
        <ele>419.79998779297</ele>
        <time>2026-09-03T14:17:50.000Z</time>
      </trkpt>
      <trkpt lat="48.21956" lon="6.6581">
        <ele>420</ele>
        <time>2026-09-03T14:17:51.000Z</time>
      </trkpt>
      <trkpt lat="48.21956" lon="6.65811">
        <ele>420</ele>
        <time>2026-09-03T14:17:52.000Z</time>
      </trkpt>
      <trkpt lat="48.21956" lon="6.65812">
        <ele>420</ele>
        <time>2026-09-03T14:17:53.000Z</time>
      </trkpt>
      <trkpt lat="48.21955" lon="6.65813">
        <ele>420</ele>
        <time>2026-09-03T14:17:54.000Z</time>
      </trkpt>
      <trkpt lat="48.21954" lon="6.65814">
        <ele>419.79998779297</ele>
        <time>2026-09-03T14:17:55.000Z</time>
      </trkpt>
      <trkpt lat="48.21953" lon="6.65815">
        <ele>419.79998779297</ele>
        <time>2026-09-03T14:17:56.000Z</time>
      </trkpt>
      <trkpt lat="48.21952" lon="6.65815">
        <ele>419.79998779297</ele>
        <time>2026-09-03T14:17:57.000Z</time>
      </trkpt>
      <trkpt lat="48.21952" lon="6.65816">
        <ele>419.79998779297</ele>
        <time>2026-09-03T14:17:58.000Z</time>
      </trkpt>
      <trkpt lat="48.21951" lon="6.65818">
        <ele>419.79998779297</ele>
        <time>2026-09-03T14:17:59.000Z</time>
      </trkpt>
      <trkpt lat="48.2195" lon="6.65819">
        <ele>420</ele>
        <time>2026-09-03T14:18:00.000Z</time>
      </trkpt>
      <trkpt lat="48.2195" lon="6.6582">
        <ele>420</ele>
        <time>2026-09-03T14:18:01.000Z</time>
      </trkpt>
      <trkpt lat="48.21949" lon="6.65821">
        <ele>420</ele>
        <time>2026-09-03T14:18:02.000Z</time>
      </trkpt>
      <trkpt lat="48.21948" lon="6.65822">
        <ele>420</ele>
        <time>2026-09-03T14:18:03.000Z</time>
      </trkpt>
      <trkpt lat="48.21947" lon="6.65824">
        <ele>419.79998779297</ele>
        <time>2026-09-03T14:18:04.000Z</time>
      </trkpt>
      <trkpt lat="48.21946" lon="6.65825">
        <ele>419.79998779297</ele>
        <time>2026-09-03T14:18:05.000Z</time>
      </trkpt>
      <trkpt lat="48.21946" lon="6.65826">
        <ele>420</ele>
        <time>2026-09-03T14:18:06.000Z</time>
      </trkpt>
      <trkpt lat="48.21945" lon="6.65827">
        <ele>420</ele>
        <time>2026-09-03T14:18:07.000Z</time>
      </trkpt>
      <trkpt lat="48.21944" lon="6.65827">
        <ele>420</ele>
        <time>2026-09-03T14:18:08.000Z</time>
      </trkpt>
      <trkpt lat="48.21943" lon="6.65828">
        <ele>420</ele>
        <time>2026-09-03T14:18:09.000Z</time>
      </trkpt>
      <trkpt lat="48.21942" lon="6.65829">
        <ele>420</ele>
        <time>2026-09-03T14:18:10.000Z</time>
      </trkpt>
      <trkpt lat="48.21941" lon="6.65831">
        <ele>420</ele>
        <time>2026-09-03T14:18:11.000Z</time>
      </trkpt>
      <trkpt lat="48.2194" lon="6.65832">
        <ele>420</ele>
        <time>2026-09-03T14:18:12.000Z</time>
      </trkpt>
      <trkpt lat="48.2194" lon="6.65833">
        <ele>420</ele>
        <time>2026-09-03T14:18:13.000Z</time>
      </trkpt>
      <trkpt lat="48.21939" lon="6.65834">
        <ele>420</ele>
        <time>2026-09-03T14:18:14.000Z</time>
      </trkpt>
      <trkpt lat="48.21938" lon="6.65835">
        <ele>420.20001220703</ele>
        <time>2026-09-03T14:18:15.000Z</time>
      </trkpt>
      <trkpt lat="48.21937" lon="6.65835">
        <ele>420.20001220703</ele>
        <time>2026-09-03T14:18:16.000Z</time>
      </trkpt>
      <trkpt lat="48.21936" lon="6.65836">
        <ele>420.40002441406</ele>
        <time>2026-09-03T14:18:17.000Z</time>
      </trkpt>
      <trkpt lat="48.21936" lon="6.65837">
        <ele>420.40002441406</ele>
        <time>2026-09-03T14:18:18.000Z</time>
      </trkpt>
      <trkpt lat="48.21935" lon="6.65838">
        <ele>420.59997558594</ele>
        <time>2026-09-03T14:18:19.000Z</time>
      </trkpt>
      <trkpt lat="48.21934" lon="6.65839">
        <ele>420.59997558594</ele>
        <time>2026-09-03T14:18:20.000Z</time>
      </trkpt>
      <trkpt lat="48.21933" lon="6.6584">
        <ele>420.59997558594</ele>
        <time>2026-09-03T14:18:21.000Z</time>
      </trkpt>
      <trkpt lat="48.21933" lon="6.65841">
        <ele>420.79998779297</ele>
        <time>2026-09-03T14:18:22.000Z</time>
      </trkpt>
      <trkpt lat="48.21932" lon="6.65842">
        <ele>420.79998779297</ele>
        <time>2026-09-03T14:18:23.000Z</time>
      </trkpt>
      <trkpt lat="48.21931" lon="6.65843">
        <ele>420.79998779297</ele>
        <time>2026-09-03T14:18:24.000Z</time>
      </trkpt>
      <trkpt lat="48.2193" lon="6.65844">
        <ele>420.79998779297</ele>
        <time>2026-09-03T14:18:25.000Z</time>
      </trkpt>
      <trkpt lat="48.21929" lon="6.65845">
        <ele>420.79998779297</ele>
        <time>2026-09-03T14:18:26.000Z</time>
      </trkpt>
      <trkpt lat="48.21929" lon="6.65847">
        <ele>420.79998779297</ele>
        <time>2026-09-03T14:18:27.000Z</time>
      </trkpt>
      <trkpt lat="48.21929" lon="6.65848">
        <ele>420.79998779297</ele>
        <time>2026-09-03T14:18:28.000Z</time>
      </trkpt>
      <trkpt lat="48.21928" lon="6.65849">
        <ele>421</ele>
        <time>2026-09-03T14:18:29.000Z</time>
      </trkpt>
      <trkpt lat="48.21927" lon="6.6585">
        <ele>421</ele>
        <time>2026-09-03T14:18:30.000Z</time>
      </trkpt>
      <trkpt lat="48.21926" lon="6.65852">
        <ele>421</ele>
        <time>2026-09-03T14:18:31.000Z</time>
      </trkpt>
      <trkpt lat="48.21926" lon="6.65853">
        <ele>421</ele>
        <time>2026-09-03T14:18:32.000Z</time>
      </trkpt>
      <trkpt lat="48.21926" lon="6.65854">
        <ele>421</ele>
        <time>2026-09-03T14:18:33.000Z</time>
      </trkpt>
      <trkpt lat="48.21925" lon="6.65855">
        <ele>421</ele>
        <time>2026-09-03T14:18:34.000Z</time>
      </trkpt>
      <trkpt lat="48.21925" lon="6.65856">
        <ele>421</ele>
        <time>2026-09-03T14:18:35.000Z</time>
      </trkpt>
      <trkpt lat="48.21925" lon="6.65857">
        <ele>421</ele>
        <time>2026-09-03T14:18:36.000Z</time>
      </trkpt>
      <trkpt lat="48.21924" lon="6.65859">
        <ele>421</ele>
        <time>2026-09-03T14:18:37.000Z</time>
      </trkpt>
      <trkpt lat="48.21923" lon="6.6586">
        <ele>421.20001220703</ele>
        <time>2026-09-03T14:18:38.000Z</time>
      </trkpt>
      <trkpt lat="48.21922" lon="6.65861">
        <ele>421.20001220703</ele>
        <time>2026-09-03T14:18:39.000Z</time>
      </trkpt>
      <trkpt lat="48.21921" lon="6.65862">
        <ele>421.20001220703</ele>
        <time>2026-09-03T14:18:40.000Z</time>
      </trkpt>
      <trkpt lat="48.21921" lon="6.65863">
        <ele>421.20001220703</ele>
        <time>2026-09-03T14:18:41.000Z</time>
      </trkpt>
      <trkpt lat="48.2192" lon="6.65864">
        <ele>421.20001220703</ele>
        <time>2026-09-03T14:18:42.000Z</time>
      </trkpt>
      <trkpt lat="48.21919" lon="6.65865">
        <ele>421.20001220703</ele>
        <time>2026-09-03T14:18:43.000Z</time>
      </trkpt>
      <trkpt lat="48.21918" lon="6.65867">
        <ele>421.20001220703</ele>
        <time>2026-09-03T14:18:44.000Z</time>
      </trkpt>
      <trkpt lat="48.21917" lon="6.65867">
        <ele>421.20001220703</ele>
        <time>2026-09-03T14:18:45.000Z</time>
      </trkpt>
      <trkpt lat="48.21917" lon="6.65866">
        <ele>421.40002441406</ele>
        <time>2026-09-03T14:18:46.000Z</time>
      </trkpt>
      <trkpt lat="48.21916" lon="6.65867">
        <ele>421.40002441406</ele>
        <time>2026-09-03T14:18:47.000Z</time>
      </trkpt>
      <trkpt lat="48.21916" lon="6.65865">
        <ele>421.59997558594</ele>
        <time>2026-09-03T14:18:48.000Z</time>
      </trkpt>
      <trkpt lat="48.21916" lon="6.65864">
        <ele>421.59997558594</ele>
        <time>2026-09-03T14:18:49.000Z</time>
      </trkpt>
      <trkpt lat="48.21917" lon="6.65863">
        <ele>421.40002441406</ele>
        <time>2026-09-03T14:18:50.000Z</time>
      </trkpt>
      <trkpt lat="48.21917" lon="6.65863">
        <ele>421.40002441406</ele>
        <time>2026-09-03T14:18:51.000Z</time>
      </trkpt>
      <trkpt lat="48.21917" lon="6.65862">
        <ele>421.20001220703</ele>
        <time>2026-09-03T14:18:52.000Z</time>
      </trkpt>
      <trkpt lat="48.21917" lon="6.65862">
        <ele>421.20001220703</ele>
        <time>2026-09-03T14:18:53.000Z</time>
      </trkpt>
      <trkpt lat="48.21917" lon="6.65861">
        <ele>421.20001220703</ele>
        <time>2026-09-03T14:18:54.000Z</time>
      </trkpt>
      <trkpt lat="48.21917" lon="6.65861">
        <ele>421.20001220703</ele>
        <time>2026-09-03T14:18:55.000Z</time>
      </trkpt>
      <trkpt lat="48.21917" lon="6.65861">
        <ele>421.40002441406</ele>
        <time>2026-09-03T14:18:56.000Z</time>
      </trkpt>
      <trkpt lat="48.21917" lon="6.65861">
        <ele>421.40002441406</ele>
        <time>2026-09-03T14:18:57.000Z</time>
      </trkpt>
      <trkpt lat="48.21917" lon="6.65861">
        <ele>421.40002441406</ele>
        <time>2026-09-03T14:18:58.000Z</time>
      </trkpt>
      <trkpt lat="48.21917" lon="6.65861">
        <ele>421.20001220703</ele>
        <time>2026-09-03T14:18:59.000Z</time>
      </trkpt>
      <trkpt lat="48.21917" lon="6.65861">
        <ele>421.20001220703</ele>
        <time>2026-09-03T14:19:00.000Z</time>
      </trkpt>
      <trkpt lat="48.21917" lon="6.65861">
        <ele>421.20001220703</ele>
        <time>2026-09-03T14:19:01.000Z</time>
      </trkpt>
      <trkpt lat="48.21917" lon="6.65861">
        <ele>421.20001220703</ele>
        <time>2026-09-03T14:19:02.000Z</time>
      </trkpt>
      <trkpt lat="48.21917" lon="6.65861">
        <ele>421.20001220703</ele>
        <time>2026-09-03T14:19:03.000Z</time>
      </trkpt>
      <trkpt lat="48.21917" lon="6.65861">
        <ele>421</ele>
        <time>2026-09-03T14:19:04.000Z</time>
      </trkpt>
      <trkpt lat="48.21917" lon="6.65861">
        <ele>421</ele>
        <time>2026-09-03T14:19:05.000Z</time>
      </trkpt>
      <trkpt lat="48.21917" lon="6.65862">
        <ele>421</ele>
        <time>2026-09-03T14:19:06.000Z</time>
      </trkpt>
      <trkpt lat="48.21917" lon="6.65861">
        <ele>420.79998779297</ele>
        <time>2026-09-03T14:19:07.000Z</time>
      </trkpt>
      <trkpt lat="48.21917" lon="6.65861">
        <ele>420.79998779297</ele>
        <time>2026-09-03T14:19:08.000Z</time>
      </trkpt>
      <trkpt lat="48.21917" lon="6.65861">
        <ele>420.79998779297</ele>
        <time>2026-09-03T14:19:09.000Z</time>
      </trkpt>
      <trkpt lat="48.21917" lon="6.65861">
        <ele>420.59997558594</ele>
        <time>2026-09-03T14:19:10.000Z</time>
      </trkpt>
      <trkpt lat="48.21917" lon="6.65861">
        <ele>420.59997558594</ele>
        <time>2026-09-03T14:19:11.000Z</time>
      </trkpt>
      <trkpt lat="48.21917" lon="6.65861">
        <ele>420.59997558594</ele>
        <time>2026-09-03T14:19:12.000Z</time>
      </trkpt>
      <trkpt lat="48.21917" lon="6.65861">
        <ele>420.40002441406</ele>
        <time>2026-09-03T14:19:13.000Z</time>
      </trkpt>
      <trkpt lat="48.21917" lon="6.65861">
        <ele>420.59997558594</ele>
        <time>2026-09-03T14:19:14.000Z</time>
      </trkpt>
      <trkpt lat="48.21917" lon="6.65861">
        <ele>420.59997558594</ele>
        <time>2026-09-03T14:19:15.000Z</time>
      </trkpt>
      <trkpt lat="48.21917" lon="6.65861">
        <ele>420.40002441406</ele>
        <time>2026-09-03T14:19:16.000Z</time>
      </trkpt>
      <trkpt lat="48.21917" lon="6.65861">
        <ele>420.59997558594</ele>
        <time>2026-09-03T14:19:17.000Z</time>
      </trkpt>
      <trkpt lat="48.21917" lon="6.65861">
        <ele>420.59997558594</ele>
        <time>2026-09-03T14:19:18.000Z</time>
      </trkpt>
      <trkpt lat="48.21917" lon="6.65861">
        <ele>420.40002441406</ele>
        <time>2026-09-03T14:19:19.000Z</time>
      </trkpt>
      <trkpt lat="48.21916" lon="6.65863">
        <ele>420.40002441406</ele>
        <time>2026-09-03T14:19:20.000Z</time>
      </trkpt>
      <trkpt lat="48.21916" lon="6.65863">
        <ele>420.59997558594</ele>
        <time>2026-09-03T14:19:21.000Z</time>
      </trkpt>
      <trkpt lat="48.21916" lon="6.65863">
        <ele>420.40002441406</ele>
        <time>2026-09-03T14:19:22.000Z</time>
      </trkpt>
      <trkpt lat="48.21916" lon="6.65863">
        <ele>420.40002441406</ele>
        <time>2026-09-03T14:19:23.000Z</time>
      </trkpt>
      <trkpt lat="48.21916" lon="6.65863">
        <ele>420.59997558594</ele>
        <time>2026-09-03T14:19:24.000Z</time>
      </trkpt>
      <trkpt lat="48.21916" lon="6.65863">
        <ele>420.59997558594</ele>
        <time>2026-09-03T14:19:25.000Z</time>
      </trkpt>
      <trkpt lat="48.21916" lon="6.65863">
        <ele>420.40002441406</ele>
        <time>2026-09-03T14:19:26.000Z</time>
      </trkpt>
      <trkpt lat="48.21916" lon="6.65863">
        <ele>420.40002441406</ele>
        <time>2026-09-03T14:19:27.000Z</time>
      </trkpt>
      <trkpt lat="48.21916" lon="6.65863">
        <ele>420.40002441406</ele>
        <time>2026-09-03T14:19:28.000Z</time>
      </trkpt>
      <trkpt lat="48.21916" lon="6.65863">
        <ele>420.40002441406</ele>
        <time>2026-09-03T14:19:29.000Z</time>
      </trkpt>
      <trkpt lat="48.21916" lon="6.65864">
        <ele>420.40002441406</ele>
        <time>2026-09-03T14:19:30.000Z</time>
      </trkpt>
      <trkpt lat="48.21916" lon="6.65866">
        <ele>420.40002441406</ele>
        <time>2026-09-03T14:19:31.000Z</time>
      </trkpt>
      <trkpt lat="48.21916" lon="6.65866">
        <ele>420.40002441406</ele>
        <time>2026-09-03T14:19:32.000Z</time>
      </trkpt>
      <trkpt lat="48.21915" lon="6.65867">
        <ele>420.59997558594</ele>
        <time>2026-09-03T14:19:33.000Z</time>
      </trkpt>
      <trkpt lat="48.21915" lon="6.65867">
        <ele>420.59997558594</ele>
        <time>2026-09-03T14:19:34.000Z</time>
      </trkpt>
      <trkpt lat="48.21914" lon="6.65867">
        <ele>420.59997558594</ele>
        <time>2026-09-03T14:19:35.000Z</time>
      </trkpt>
      <trkpt lat="48.21913" lon="6.65867">
        <ele>420.59997558594</ele>
        <time>2026-09-03T14:19:36.000Z</time>
      </trkpt>
      <trkpt lat="48.21913" lon="6.65866">
        <ele>420.40002441406</ele>
        <time>2026-09-03T14:19:37.000Z</time>
      </trkpt>
      <trkpt lat="48.21912" lon="6.65867">
        <ele>420.40002441406</ele>
        <time>2026-09-03T14:19:38.000Z</time>
      </trkpt>
      <trkpt lat="48.21912" lon="6.65868">
        <ele>420.40002441406</ele>
        <time>2026-09-03T14:19:39.000Z</time>
      </trkpt>
      <trkpt lat="48.21912" lon="6.65869">
        <ele>420.59997558594</ele>
        <time>2026-09-03T14:19:40.000Z</time>
      </trkpt>
      <trkpt lat="48.21913" lon="6.6587">
        <ele>420.59997558594</ele>
        <time>2026-09-03T14:19:41.000Z</time>
      </trkpt>
      <trkpt lat="48.21912" lon="6.65871">
        <ele>420.59997558594</ele>
        <time>2026-09-03T14:19:42.000Z</time>
      </trkpt>
      <trkpt lat="48.21912" lon="6.65872">
        <ele>420.79998779297</ele>
        <time>2026-09-03T14:19:43.000Z</time>
      </trkpt>
      <trkpt lat="48.21912" lon="6.65874">
        <ele>420.79998779297</ele>
        <time>2026-09-03T14:19:44.000Z</time>
      </trkpt>
      <trkpt lat="48.21911" lon="6.65875">
        <ele>420.79998779297</ele>
        <time>2026-09-03T14:19:45.000Z</time>
      </trkpt>
      <trkpt lat="48.21911" lon="6.65877">
        <ele>420.79998779297</ele>
        <time>2026-09-03T14:19:46.000Z</time>
      </trkpt>
      <trkpt lat="48.2191" lon="6.65878">
        <ele>421</ele>
        <time>2026-09-03T14:19:47.000Z</time>
      </trkpt>
      <trkpt lat="48.2191" lon="6.65879">
        <ele>421</ele>
        <time>2026-09-03T14:19:48.000Z</time>
      </trkpt>
      <trkpt lat="48.21909" lon="6.65879">
        <ele>421</ele>
        <time>2026-09-03T14:19:49.000Z</time>
      </trkpt>
      <trkpt lat="48.21908" lon="6.65881">
        <ele>421</ele>
        <time>2026-09-03T14:19:50.000Z</time>
      </trkpt>
      <trkpt lat="48.21907" lon="6.65882">
        <ele>421</ele>
        <time>2026-09-03T14:19:51.000Z</time>
      </trkpt>
      <trkpt lat="48.21907" lon="6.65882">
        <ele>421</ele>
        <time>2026-09-03T14:19:52.000Z</time>
      </trkpt>
      <trkpt lat="48.21907" lon="6.65882">
        <ele>421</ele>
        <time>2026-09-03T14:19:53.000Z</time>
      </trkpt>
      <trkpt lat="48.21907" lon="6.65882">
        <ele>421</ele>
        <time>2026-09-03T14:19:54.000Z</time>
      </trkpt>
      <trkpt lat="48.21907" lon="6.65882">
        <ele>421</ele>
        <time>2026-09-03T14:19:55.000Z</time>
      </trkpt>
      <trkpt lat="48.21907" lon="6.65882">
        <ele>421</ele>
        <time>2026-09-03T14:19:56.000Z</time>
      </trkpt>
      <trkpt lat="48.21907" lon="6.65882">
        <ele>421.20001220703</ele>
        <time>2026-09-03T14:19:57.000Z</time>
      </trkpt>
      <trkpt lat="48.21907" lon="6.65882">
        <ele>421.20001220703</ele>
        <time>2026-09-03T14:19:58.000Z</time>
      </trkpt>
      <trkpt lat="48.21907" lon="6.65882">
        <ele>421.20001220703</ele>
        <time>2026-09-03T14:19:59.000Z</time>
      </trkpt>
      <trkpt lat="48.21907" lon="6.65882">
        <ele>421</ele>
        <time>2026-09-03T14:20:00.000Z</time>
      </trkpt>
      <trkpt lat="48.21907" lon="6.65882">
        <ele>421</ele>
        <time>2026-09-03T14:20:01.000Z</time>
      </trkpt>
      <trkpt lat="48.21907" lon="6.65882">
        <ele>421</ele>
        <time>2026-09-03T14:20:02.000Z</time>
      </trkpt>
      <trkpt lat="48.21907" lon="6.65882">
        <ele>421</ele>
        <time>2026-09-03T14:20:03.000Z</time>
      </trkpt>
      <trkpt lat="48.21907" lon="6.65882">
        <ele>421</ele>
        <time>2026-09-03T14:20:04.000Z</time>
      </trkpt>
      <trkpt lat="48.21907" lon="6.65882">
        <ele>421</ele>
        <time>2026-09-03T14:20:05.000Z</time>
      </trkpt>
      <trkpt lat="48.21907" lon="6.65882">
        <ele>421</ele>
        <time>2026-09-03T14:20:06.000Z</time>
      </trkpt>
      <trkpt lat="48.21907" lon="6.65882">
        <ele>421</ele>
        <time>2026-09-03T14:20:07.000Z</time>
      </trkpt>
      <trkpt lat="48.21907" lon="6.65882">
        <ele>421</ele>
        <time>2026-09-03T14:20:08.000Z</time>
      </trkpt>
      <trkpt lat="48.21907" lon="6.65882">
        <ele>421</ele>
        <time>2026-09-03T14:20:09.000Z</time>
      </trkpt>
      <trkpt lat="48.21907" lon="6.65882">
        <ele>421</ele>
        <time>2026-09-03T14:20:10.000Z</time>
      </trkpt>
      <trkpt lat="48.21907" lon="6.65882">
        <ele>421.20001220703</ele>
        <time>2026-09-03T14:20:11.000Z</time>
      </trkpt>
      <trkpt lat="48.21907" lon="6.65882">
        <ele>421.20001220703</ele>
        <time>2026-09-03T14:20:12.000Z</time>
      </trkpt>
      <trkpt lat="48.21907" lon="6.65882">
        <ele>421.40002441406</ele>
        <time>2026-09-03T14:20:13.000Z</time>
      </trkpt>
      <trkpt lat="48.21907" lon="6.65882">
        <ele>421.40002441406</ele>
        <time>2026-09-03T14:20:14.000Z</time>
      </trkpt>
      <trkpt lat="48.21907" lon="6.65882">
        <ele>421.40002441406</ele>
        <time>2026-09-03T14:20:15.000Z</time>
      </trkpt>
      <trkpt lat="48.21907" lon="6.65882">
        <ele>421.40002441406</ele>
        <time>2026-09-03T14:20:16.000Z</time>
      </trkpt>
      <trkpt lat="48.21907" lon="6.65882">
        <ele>421.40002441406</ele>
        <time>2026-09-03T14:20:17.000Z</time>
      </trkpt>
      <trkpt lat="48.21906" lon="6.65883">
        <ele>421.20001220703</ele>
        <time>2026-09-03T14:20:18.000Z</time>
      </trkpt>
      <trkpt lat="48.21906" lon="6.65883">
        <ele>421.20001220703</ele>
        <time>2026-09-03T14:20:19.000Z</time>
      </trkpt>
      <trkpt lat="48.21906" lon="6.65883">
        <ele>421.20001220703</ele>
        <time>2026-09-03T14:20:20.000Z</time>
      </trkpt>
      <trkpt lat="48.21906" lon="6.65883">
        <ele>421</ele>
        <time>2026-09-03T14:20:21.000Z</time>
      </trkpt>
      <trkpt lat="48.21905" lon="6.65885">
        <ele>421</ele>
        <time>2026-09-03T14:20:22.000Z</time>
      </trkpt>
      <trkpt lat="48.21904" lon="6.65886">
        <ele>421</ele>
        <time>2026-09-03T14:20:23.000Z</time>
      </trkpt>
      <trkpt lat="48.21903" lon="6.65887">
        <ele>421</ele>
        <time>2026-09-03T14:20:24.000Z</time>
      </trkpt>
      <trkpt lat="48.21903" lon="6.65888">
        <ele>420.79998779297</ele>
        <time>2026-09-03T14:20:25.000Z</time>
      </trkpt>
      <trkpt lat="48.21903" lon="6.65888">
        <ele>421</ele>
        <time>2026-09-03T14:20:26.000Z</time>
      </trkpt>
      <trkpt lat="48.21903" lon="6.65889">
        <ele>421.20001220703</ele>
        <time>2026-09-03T14:20:27.000Z</time>
      </trkpt>
      <trkpt lat="48.21903" lon="6.6589">
        <ele>421.20001220703</ele>
        <time>2026-09-03T14:20:28.000Z</time>
      </trkpt>
      <trkpt lat="48.21903" lon="6.6589">
        <ele>421.40002441406</ele>
        <time>2026-09-03T14:20:29.000Z</time>
      </trkpt>
      <trkpt lat="48.21903" lon="6.6589">
        <ele>421.59997558594</ele>
        <time>2026-09-03T14:20:30.000Z</time>
      </trkpt>
      <trkpt lat="48.21903" lon="6.65891">
        <ele>421.59997558594</ele>
        <time>2026-09-03T14:20:31.000Z</time>
      </trkpt>
      <trkpt lat="48.21903" lon="6.65891">
        <ele>421.79998779297</ele>
        <time>2026-09-03T14:20:32.000Z</time>
      </trkpt>
      <trkpt lat="48.21903" lon="6.65891">
        <ele>421.79998779297</ele>
        <time>2026-09-03T14:20:33.000Z</time>
      </trkpt>
      <trkpt lat="48.21903" lon="6.65891">
        <ele>421.79998779297</ele>
        <time>2026-09-03T14:20:34.000Z</time>
      </trkpt>
      <trkpt lat="48.21903" lon="6.65891">
        <ele>421.79998779297</ele>
        <time>2026-09-03T14:20:35.000Z</time>
      </trkpt>
      <trkpt lat="48.21903" lon="6.65891">
        <ele>421.79998779297</ele>
        <time>2026-09-03T14:20:36.000Z</time>
      </trkpt>
      <trkpt lat="48.21903" lon="6.65891">
        <ele>421.79998779297</ele>
        <time>2026-09-03T14:20:37.000Z</time>
      </trkpt>
      <trkpt lat="48.21903" lon="6.65891">
        <ele>421.79998779297</ele>
        <time>2026-09-03T14:20:38.000Z</time>
      </trkpt>
      <trkpt lat="48.21903" lon="6.65891">
        <ele>421.79998779297</ele>
        <time>2026-09-03T14:20:39.000Z</time>
      </trkpt>
      <trkpt lat="48.21903" lon="6.65891">
        <ele>421.79998779297</ele>
        <time>2026-09-03T14:20:40.000Z</time>
      </trkpt>
      <trkpt lat="48.21903" lon="6.65891">
        <ele>421.79998779297</ele>
        <time>2026-09-03T14:20:41.000Z</time>
      </trkpt>
      <trkpt lat="48.21903" lon="6.65891">
        <ele>421.79998779297</ele>
        <time>2026-09-03T14:20:42.000Z</time>
      </trkpt>
      <trkpt lat="48.21903" lon="6.65891">
        <ele>421.79998779297</ele>
        <time>2026-09-03T14:20:43.000Z</time>
      </trkpt>
      <trkpt lat="48.21903" lon="6.65891">
        <ele>421.79998779297</ele>
        <time>2026-09-03T14:20:44.000Z</time>
      </trkpt>
      <trkpt lat="48.21903" lon="6.65891">
        <ele>421.79998779297</ele>
        <time>2026-09-03T14:20:45.000Z</time>
      </trkpt>
      <trkpt lat="48.21903" lon="6.65891">
        <ele>421.79998779297</ele>
        <time>2026-09-03T14:20:46.000Z</time>
      </trkpt>
      <trkpt lat="48.21903" lon="6.65891">
        <ele>421.59997558594</ele>
        <time>2026-09-03T14:20:47.000Z</time>
      </trkpt>
      <trkpt lat="48.21903" lon="6.65891">
        <ele>421.59997558594</ele>
        <time>2026-09-03T14:20:48.000Z</time>
      </trkpt>
      <trkpt lat="48.21903" lon="6.65891">
        <ele>421.59997558594</ele>
        <time>2026-09-03T14:20:49.000Z</time>
      </trkpt>
      <trkpt lat="48.21903" lon="6.65891">
        <ele>421.79998779297</ele>
        <time>2026-09-03T14:20:50.000Z</time>
      </trkpt>
      <trkpt lat="48.21903" lon="6.65891">
        <ele>421.79998779297</ele>
        <time>2026-09-03T14:20:51.000Z</time>
      </trkpt>
      <trkpt lat="48.21903" lon="6.65891">
        <ele>421.79998779297</ele>
        <time>2026-09-03T14:20:52.000Z</time>
      </trkpt>
      <trkpt lat="48.21903" lon="6.65891">
        <ele>421.79998779297</ele>
        <time>2026-09-03T14:20:53.000Z</time>
      </trkpt>
      <trkpt lat="48.21903" lon="6.65891">
        <ele>421.59997558594</ele>
        <time>2026-09-03T14:20:54.000Z</time>
      </trkpt>
      <trkpt lat="48.21903" lon="6.65891">
        <ele>421.59997558594</ele>
        <time>2026-09-03T14:20:55.000Z</time>
      </trkpt>
      <trkpt lat="48.21903" lon="6.65891">
        <ele>421.59997558594</ele>
        <time>2026-09-03T14:20:56.000Z</time>
      </trkpt>
      <trkpt lat="48.21903" lon="6.65891">
        <ele>421.59997558594</ele>
        <time>2026-09-03T14:20:57.000Z</time>
      </trkpt>
      <trkpt lat="48.21903" lon="6.65891">
        <ele>421.59997558594</ele>
        <time>2026-09-03T14:20:58.000Z</time>
      </trkpt>
      <trkpt lat="48.21903" lon="6.65891">
        <ele>421.59997558594</ele>
        <time>2026-09-03T14:20:59.000Z</time>
      </trkpt>
      <trkpt lat="48.21903" lon="6.65891">
        <ele>421.59997558594</ele>
        <time>2026-09-03T14:21:00.000Z</time>
      </trkpt>
      <trkpt lat="48.21903" lon="6.65891">
        <ele>421.59997558594</ele>
        <time>2026-09-03T14:21:01.000Z</time>
      </trkpt>
      <trkpt lat="48.21903" lon="6.65891">
        <ele>421.59997558594</ele>
        <time>2026-09-03T14:21:02.000Z</time>
      </trkpt>
      <trkpt lat="48.21903" lon="6.65891">
        <ele>421.59997558594</ele>
        <time>2026-09-03T14:21:03.000Z</time>
      </trkpt>
      <trkpt lat="48.21903" lon="6.65891">
        <ele>421.40002441406</ele>
        <time>2026-09-03T14:21:04.000Z</time>
      </trkpt>
      <trkpt lat="48.21903" lon="6.65891">
        <ele>421.40002441406</ele>
        <time>2026-09-03T14:21:05.000Z</time>
      </trkpt>
      <trkpt lat="48.21903" lon="6.65891">
        <ele>421.40002441406</ele>
        <time>2026-09-03T14:21:06.000Z</time>
      </trkpt>
      <trkpt lat="48.21903" lon="6.65891">
        <ele>421.40002441406</ele>
        <time>2026-09-03T14:21:07.000Z</time>
      </trkpt>
      <trkpt lat="48.21903" lon="6.65891">
        <ele>421.40002441406</ele>
        <time>2026-09-03T14:21:08.000Z</time>
      </trkpt>
      <trkpt lat="48.21903" lon="6.65891">
        <ele>421.40002441406</ele>
        <time>2026-09-03T14:21:09.000Z</time>
      </trkpt>
      <trkpt lat="48.21903" lon="6.65891">
        <ele>421.59997558594</ele>
        <time>2026-09-03T14:21:10.000Z</time>
      </trkpt>
      <trkpt lat="48.21903" lon="6.65891">
        <ele>421.59997558594</ele>
        <time>2026-09-03T14:21:11.000Z</time>
      </trkpt>
      <trkpt lat="48.21903" lon="6.65891">
        <ele>421.59997558594</ele>
        <time>2026-09-03T14:21:12.000Z</time>
      </trkpt>
      <trkpt lat="48.21903" lon="6.65891">
        <ele>421.59997558594</ele>
        <time>2026-09-03T14:21:13.000Z</time>
      </trkpt>
      <trkpt lat="48.21903" lon="6.65891">
        <ele>421.59997558594</ele>
        <time>2026-09-03T14:21:14.000Z</time>
      </trkpt>
      <trkpt lat="48.21903" lon="6.65891">
        <ele>421.59997558594</ele>
        <time>2026-09-03T14:21:15.000Z</time>
      </trkpt>
      <trkpt lat="48.21903" lon="6.65891">
        <ele>421.59997558594</ele>
        <time>2026-09-03T14:21:16.000Z</time>
      </trkpt>
      <trkpt lat="48.21903" lon="6.65891">
        <ele>421.59997558594</ele>
        <time>2026-09-03T14:21:17.000Z</time>
      </trkpt>
      <trkpt lat="48.21903" lon="6.65891">
        <ele>421.59997558594</ele>
        <time>2026-09-03T14:21:18.000Z</time>
      </trkpt>
      <trkpt lat="48.21903" lon="6.65891">
        <ele>421.59997558594</ele>
        <time>2026-09-03T14:21:19.000Z</time>
      </trkpt>
      <trkpt lat="48.21903" lon="6.65891">
        <ele>421.59997558594</ele>
        <time>2026-09-03T14:21:20.000Z</time>
      </trkpt>
      <trkpt lat="48.21903" lon="6.65891">
        <ele>421.59997558594</ele>
        <time>2026-09-03T14:21:21.000Z</time>
      </trkpt>
      <trkpt lat="48.21903" lon="6.65891">
        <ele>421.40002441406</ele>
        <time>2026-09-03T14:21:22.000Z</time>
      </trkpt>
      <trkpt lat="48.21903" lon="6.65891">
        <ele>421.40002441406</ele>
        <time>2026-09-03T14:21:23.000Z</time>
      </trkpt>
      <trkpt lat="48.21903" lon="6.65891">
        <ele>421.59997558594</ele>
        <time>2026-09-03T14:21:24.000Z</time>
      </trkpt>
      <trkpt lat="48.21903" lon="6.65891">
        <ele>421.79998779297</ele>
        <time>2026-09-03T14:21:25.000Z</time>
      </trkpt>
      <trkpt lat="48.21903" lon="6.65891">
        <ele>422</ele>
        <time>2026-09-03T14:21:26.000Z</time>
      </trkpt>
      <trkpt lat="48.21903" lon="6.65891">
        <ele>422.20001220703</ele>
        <time>2026-09-03T14:21:27.000Z</time>
      </trkpt>
      <trkpt lat="48.21903" lon="6.65891">
        <ele>422.40002441406</ele>
        <time>2026-09-03T14:21:28.000Z</time>
      </trkpt>
      <trkpt lat="48.21903" lon="6.65891">
        <ele>422.40002441406</ele>
        <time>2026-09-03T14:21:29.000Z</time>
      </trkpt>
      <trkpt lat="48.21903" lon="6.65891">
        <ele>422.40002441406</ele>
        <time>2026-09-03T14:21:30.000Z</time>
      </trkpt>
      <trkpt lat="48.21903" lon="6.65891">
        <ele>422.40002441406</ele>
        <time>2026-09-03T14:21:31.000Z</time>
      </trkpt>
      <trkpt lat="48.21903" lon="6.65891">
        <ele>422.20001220703</ele>
        <time>2026-09-03T14:21:32.000Z</time>
      </trkpt>
      <trkpt lat="48.21903" lon="6.65891">
        <ele>422.20001220703</ele>
        <time>2026-09-03T14:21:33.000Z</time>
      </trkpt>
      <trkpt lat="48.21903" lon="6.65891">
        <ele>422.20001220703</ele>
        <time>2026-09-03T14:21:34.000Z</time>
      </trkpt>
      <trkpt lat="48.21903" lon="6.65891">
        <ele>422.20001220703</ele>
        <time>2026-09-03T14:21:35.000Z</time>
      </trkpt>
      <trkpt lat="48.21903" lon="6.65891">
        <ele>422.20001220703</ele>
        <time>2026-09-03T14:21:36.000Z</time>
      </trkpt>
      <trkpt lat="48.21903" lon="6.65891">
        <ele>422.40002441406</ele>
        <time>2026-09-03T14:21:37.000Z</time>
      </trkpt>
      <trkpt lat="48.21903" lon="6.65891">
        <ele>422.40002441406</ele>
        <time>2026-09-03T14:21:38.000Z</time>
      </trkpt>
      <trkpt lat="48.21903" lon="6.65891">
        <ele>422.40002441406</ele>
        <time>2026-09-03T14:21:39.000Z</time>
      </trkpt>
      <trkpt lat="48.21903" lon="6.65891">
        <ele>422.40002441406</ele>
        <time>2026-09-03T14:21:40.000Z</time>
      </trkpt>
      <trkpt lat="48.21903" lon="6.65891">
        <ele>422.40002441406</ele>
        <time>2026-09-03T14:21:41.000Z</time>
      </trkpt>
      <trkpt lat="48.21903" lon="6.65891">
        <ele>422.40002441406</ele>
        <time>2026-09-03T14:21:42.000Z</time>
      </trkpt>
      <trkpt lat="48.21903" lon="6.65891">
        <ele>422.40002441406</ele>
        <time>2026-09-03T14:21:43.000Z</time>
      </trkpt>
      <trkpt lat="48.21903" lon="6.65891">
        <ele>422.20001220703</ele>
        <time>2026-09-03T14:21:44.000Z</time>
      </trkpt>
      <trkpt lat="48.21903" lon="6.65891">
        <ele>422.20001220703</ele>
        <time>2026-09-03T14:21:45.000Z</time>
      </trkpt>
      <trkpt lat="48.21902" lon="6.65889">
        <ele>422.20001220703</ele>
        <time>2026-09-03T14:21:46.000Z</time>
      </trkpt>
      <trkpt lat="48.21902" lon="6.65889">
        <ele>422.40002441406</ele>
        <time>2026-09-03T14:21:47.000Z</time>
      </trkpt>
      <trkpt lat="48.21902" lon="6.65889">
        <ele>422.40002441406</ele>
        <time>2026-09-03T14:21:48.000Z</time>
      </trkpt>
      <trkpt lat="48.21902" lon="6.65889">
        <ele>422.40002441406</ele>
        <time>2026-09-03T14:21:49.000Z</time>
      </trkpt>
      <trkpt lat="48.21902" lon="6.65889">
        <ele>422.40002441406</ele>
        <time>2026-09-03T14:21:50.000Z</time>
      </trkpt>
      <trkpt lat="48.21902" lon="6.65889">
        <ele>422.40002441406</ele>
        <time>2026-09-03T14:21:51.000Z</time>
      </trkpt>
      <trkpt lat="48.21902" lon="6.65889">
        <ele>422.59997558594</ele>
        <time>2026-09-03T14:21:52.000Z</time>
      </trkpt>
      <trkpt lat="48.21902" lon="6.65889">
        <ele>422.59997558594</ele>
        <time>2026-09-03T14:21:53.000Z</time>
      </trkpt>
      <trkpt lat="48.21902" lon="6.65889">
        <ele>422.59997558594</ele>
        <time>2026-09-03T14:21:54.000Z</time>
      </trkpt>
      <trkpt lat="48.21902" lon="6.65889">
        <ele>422.40002441406</ele>
        <time>2026-09-03T14:21:55.000Z</time>
      </trkpt>
      <trkpt lat="48.21902" lon="6.65889">
        <ele>422.20001220703</ele>
        <time>2026-09-03T14:21:56.000Z</time>
      </trkpt>
      <trkpt lat="48.21902" lon="6.65888">
        <ele>422</ele>
        <time>2026-09-03T14:21:57.000Z</time>
      </trkpt>
      <trkpt lat="48.21901" lon="6.65886">
        <ele>421.79998779297</ele>
        <time>2026-09-03T14:21:58.000Z</time>
      </trkpt>
      <trkpt lat="48.219" lon="6.65885">
        <ele>421.59997558594</ele>
        <time>2026-09-03T14:21:59.000Z</time>
      </trkpt>
      <trkpt lat="48.219" lon="6.65886">
        <ele>421.40002441406</ele>
        <time>2026-09-03T14:22:00.000Z</time>
      </trkpt>
      <trkpt lat="48.21899" lon="6.65885">
        <ele>421.40002441406</ele>
        <time>2026-09-03T14:22:01.000Z</time>
      </trkpt>
      <trkpt lat="48.21899" lon="6.65884">
        <ele>421.59997558594</ele>
        <time>2026-09-03T14:22:02.000Z</time>
      </trkpt>
      <trkpt lat="48.21899" lon="6.65884">
        <ele>422</ele>
        <time>2026-09-03T14:22:03.000Z</time>
      </trkpt>
      <trkpt lat="48.21899" lon="6.65883">
        <ele>422.20001220703</ele>
        <time>2026-09-03T14:22:04.000Z</time>
      </trkpt>
      <trkpt lat="48.21899" lon="6.65882">
        <ele>422.40002441406</ele>
        <time>2026-09-03T14:22:05.000Z</time>
      </trkpt>
      <trkpt lat="48.21899" lon="6.65881">
        <ele>422.59997558594</ele>
        <time>2026-09-03T14:22:06.000Z</time>
      </trkpt>
      <trkpt lat="48.21899" lon="6.65881">
        <ele>422.59997558594</ele>
        <time>2026-09-03T14:22:07.000Z</time>
      </trkpt>
      <trkpt lat="48.21898" lon="6.6588">
        <ele>422.59997558594</ele>
        <time>2026-09-03T14:22:08.000Z</time>
      </trkpt>
      <trkpt lat="48.21898" lon="6.6588">
        <ele>422.59997558594</ele>
        <time>2026-09-03T14:22:09.000Z</time>
      </trkpt>
      <trkpt lat="48.21898" lon="6.6588">
        <ele>422.40002441406</ele>
        <time>2026-09-03T14:22:10.000Z</time>
      </trkpt>
      <trkpt lat="48.21898" lon="6.6588">
        <ele>422.40002441406</ele>
        <time>2026-09-03T14:22:11.000Z</time>
      </trkpt>
      <trkpt lat="48.21898" lon="6.6588">
        <ele>422.20001220703</ele>
        <time>2026-09-03T14:22:12.000Z</time>
      </trkpt>
      <trkpt lat="48.21898" lon="6.6588">
        <ele>422</ele>
        <time>2026-09-03T14:22:13.000Z</time>
      </trkpt>
      <trkpt lat="48.21898" lon="6.6588">
        <ele>421.79998779297</ele>
        <time>2026-09-03T14:22:14.000Z</time>
      </trkpt>
      <trkpt lat="48.21898" lon="6.6588">
        <ele>421.59997558594</ele>
        <time>2026-09-03T14:22:15.000Z</time>
      </trkpt>
      <trkpt lat="48.21898" lon="6.6588">
        <ele>421.40002441406</ele>
        <time>2026-09-03T14:22:16.000Z</time>
      </trkpt>
      <trkpt lat="48.21898" lon="6.6588">
        <ele>421.40002441406</ele>
        <time>2026-09-03T14:22:17.000Z</time>
      </trkpt>
      <trkpt lat="48.21898" lon="6.6588">
        <ele>421.59997558594</ele>
        <time>2026-09-03T14:22:18.000Z</time>
      </trkpt>
      <trkpt lat="48.21898" lon="6.6588">
        <ele>421.59997558594</ele>
        <time>2026-09-03T14:22:19.000Z</time>
      </trkpt>
      <trkpt lat="48.21898" lon="6.6588">
        <ele>421.59997558594</ele>
        <time>2026-09-03T14:22:20.000Z</time>
      </trkpt>
      <trkpt lat="48.21898" lon="6.6588">
        <ele>421.59997558594</ele>
        <time>2026-09-03T14:22:21.000Z</time>
      </trkpt>
      <trkpt lat="48.21898" lon="6.6588">
        <ele>421.59997558594</ele>
        <time>2026-09-03T14:22:22.000Z</time>
      </trkpt>
      <trkpt lat="48.21898" lon="6.6588">
        <ele>421.59997558594</ele>
        <time>2026-09-03T14:22:23.000Z</time>
      </trkpt>
      <trkpt lat="48.21898" lon="6.6588">
        <ele>421.59997558594</ele>
        <time>2026-09-03T14:22:24.000Z</time>
      </trkpt>
      <trkpt lat="48.21898" lon="6.6588">
        <ele>421.59997558594</ele>
        <time>2026-09-03T14:22:25.000Z</time>
      </trkpt>
      <trkpt lat="48.21898" lon="6.6588">
        <ele>421.59997558594</ele>
        <time>2026-09-03T14:22:26.000Z</time>
      </trkpt>
      <trkpt lat="48.21898" lon="6.6588">
        <ele>421.79998779297</ele>
        <time>2026-09-03T14:22:27.000Z</time>
      </trkpt>
      <trkpt lat="48.21898" lon="6.6588">
        <ele>422</ele>
        <time>2026-09-03T14:22:28.000Z</time>
      </trkpt>
      <trkpt lat="48.21898" lon="6.6588">
        <ele>422.20001220703</ele>
        <time>2026-09-03T14:22:29.000Z</time>
      </trkpt>
      <trkpt lat="48.21898" lon="6.6588">
        <ele>422.40002441406</ele>
        <time>2026-09-03T14:22:30.000Z</time>
      </trkpt>
      <trkpt lat="48.21898" lon="6.6588">
        <ele>422.40002441406</ele>
        <time>2026-09-03T14:22:31.000Z</time>
      </trkpt>
      <trkpt lat="48.21898" lon="6.6588">
        <ele>422.40002441406</ele>
        <time>2026-09-03T14:22:32.000Z</time>
      </trkpt>
      <trkpt lat="48.21898" lon="6.6588">
        <ele>422.40002441406</ele>
        <time>2026-09-03T14:22:33.000Z</time>
      </trkpt>
      <trkpt lat="48.21899" lon="6.6588">
        <ele>422.40002441406</ele>
        <time>2026-09-03T14:22:34.000Z</time>
      </trkpt>
      <trkpt lat="48.21899" lon="6.6588">
        <ele>422.40002441406</ele>
        <time>2026-09-03T14:22:35.000Z</time>
      </trkpt>
      <trkpt lat="48.219" lon="6.6588">
        <ele>422.40002441406</ele>
        <time>2026-09-03T14:22:36.000Z</time>
      </trkpt>
      <trkpt lat="48.21898" lon="6.6588">
        <ele>422.20001220703</ele>
        <time>2026-09-03T14:22:37.000Z</time>
      </trkpt>
      <trkpt lat="48.21898" lon="6.6588">
        <ele>422.20001220703</ele>
        <time>2026-09-03T14:22:38.000Z</time>
      </trkpt>
      <trkpt lat="48.21898" lon="6.6588">
        <ele>422.20001220703</ele>
        <time>2026-09-03T14:22:39.000Z</time>
      </trkpt>
      <trkpt lat="48.21898" lon="6.6588">
        <ele>422</ele>
        <time>2026-09-03T14:22:40.000Z</time>
      </trkpt>
      <trkpt lat="48.21898" lon="6.6588">
        <ele>422</ele>
        <time>2026-09-03T14:22:41.000Z</time>
      </trkpt>
      <trkpt lat="48.21898" lon="6.6588">
        <ele>422</ele>
        <time>2026-09-03T14:22:42.000Z</time>
      </trkpt>
      <trkpt lat="48.21898" lon="6.6588">
        <ele>422</ele>
        <time>2026-09-03T14:22:43.000Z</time>
      </trkpt>
      <trkpt lat="48.21898" lon="6.6588">
        <ele>422.20001220703</ele>
        <time>2026-09-03T14:22:44.000Z</time>
      </trkpt>
      <trkpt lat="48.21898" lon="6.6588">
        <ele>422.20001220703</ele>
        <time>2026-09-03T14:22:45.000Z</time>
      </trkpt>
      <trkpt lat="48.21898" lon="6.6588">
        <ele>422.20001220703</ele>
        <time>2026-09-03T14:22:46.000Z</time>
      </trkpt>
      <trkpt lat="48.21898" lon="6.6588">
        <ele>422.20001220703</ele>
        <time>2026-09-03T14:22:47.000Z</time>
      </trkpt>
      <trkpt lat="48.21898" lon="6.6588">
        <ele>422.20001220703</ele>
        <time>2026-09-03T14:22:48.000Z</time>
      </trkpt>
      <trkpt lat="48.21898" lon="6.6588">
        <ele>422.20001220703</ele>
        <time>2026-09-03T14:22:49.000Z</time>
      </trkpt>
      <trkpt lat="48.21898" lon="6.6588">
        <ele>422.20001220703</ele>
        <time>2026-09-03T14:22:50.000Z</time>
      </trkpt>
      <trkpt lat="48.21898" lon="6.6588">
        <ele>422.20001220703</ele>
        <time>2026-09-03T14:22:51.000Z</time>
      </trkpt>
      <trkpt lat="48.21898" lon="6.6588">
        <ele>422.20001220703</ele>
        <time>2026-09-03T14:22:52.000Z</time>
      </trkpt>
      <trkpt lat="48.21898" lon="6.6588">
        <ele>422.20001220703</ele>
        <time>2026-09-03T14:22:53.000Z</time>
      </trkpt>
      <trkpt lat="48.21898" lon="6.6588">
        <ele>422.20001220703</ele>
        <time>2026-09-03T14:22:54.000Z</time>
      </trkpt>
      <trkpt lat="48.21898" lon="6.6588">
        <ele>422.20001220703</ele>
        <time>2026-09-03T14:22:55.000Z</time>
      </trkpt>
      <trkpt lat="48.21898" lon="6.6588">
        <ele>422.20001220703</ele>
        <time>2026-09-03T14:22:56.000Z</time>
      </trkpt>
      <trkpt lat="48.21898" lon="6.6588">
        <ele>422.20001220703</ele>
        <time>2026-09-03T14:22:57.000Z</time>
      </trkpt>
      <trkpt lat="48.21898" lon="6.6588">
        <ele>422.20001220703</ele>
        <time>2026-09-03T14:22:58.000Z</time>
      </trkpt>
      <trkpt lat="48.21898" lon="6.6588">
        <ele>422.20001220703</ele>
        <time>2026-09-03T14:22:59.000Z</time>
      </trkpt>
      <trkpt lat="48.21898" lon="6.6588">
        <ele>422.20001220703</ele>
        <time>2026-09-03T14:23:00.000Z</time>
      </trkpt>
      <trkpt lat="48.21898" lon="6.6588">
        <ele>422.20001220703</ele>
        <time>2026-09-03T14:23:01.000Z</time>
      </trkpt>
      <trkpt lat="48.21898" lon="6.6588">
        <ele>422.20001220703</ele>
        <time>2026-09-03T14:23:02.000Z</time>
      </trkpt>
      <trkpt lat="48.21898" lon="6.6588">
        <ele>422.20001220703</ele>
        <time>2026-09-03T14:23:03.000Z</time>
      </trkpt>
      <trkpt lat="48.21898" lon="6.6588">
        <ele>422.20001220703</ele>
        <time>2026-09-03T14:23:04.000Z</time>
      </trkpt>
      <trkpt lat="48.21898" lon="6.6588">
        <ele>422.20001220703</ele>
        <time>2026-09-03T14:23:05.000Z</time>
      </trkpt>
      <trkpt lat="48.21898" lon="6.6588">
        <ele>422.20001220703</ele>
        <time>2026-09-03T14:23:06.000Z</time>
      </trkpt>
      <trkpt lat="48.21898" lon="6.6588">
        <ele>422.20001220703</ele>
        <time>2026-09-03T14:23:07.000Z</time>
      </trkpt>
      <trkpt lat="48.21898" lon="6.6588">
        <ele>422.20001220703</ele>
        <time>2026-09-03T14:23:08.000Z</time>
      </trkpt>
      <trkpt lat="48.21898" lon="6.6588">
        <ele>422</ele>
        <time>2026-09-03T14:23:09.000Z</time>
      </trkpt>
      <trkpt lat="48.21898" lon="6.6588">
        <ele>422</ele>
        <time>2026-09-03T14:23:10.000Z</time>
      </trkpt>
      <trkpt lat="48.21898" lon="6.6588">
        <ele>421.79998779297</ele>
        <time>2026-09-03T14:23:11.000Z</time>
      </trkpt>
      <trkpt lat="48.21898" lon="6.6588">
        <ele>421.79998779297</ele>
        <time>2026-09-03T14:23:12.000Z</time>
      </trkpt>
      <trkpt lat="48.21898" lon="6.6588">
        <ele>421.59997558594</ele>
        <time>2026-09-03T14:23:13.000Z</time>
      </trkpt>
      <trkpt lat="48.21898" lon="6.6588">
        <ele>421.40002441406</ele>
        <time>2026-09-03T14:23:14.000Z</time>
      </trkpt>
      <trkpt lat="48.21898" lon="6.6588">
        <ele>421.40002441406</ele>
        <time>2026-09-03T14:23:15.000Z</time>
      </trkpt>
      <trkpt lat="48.21898" lon="6.6588">
        <ele>421.40002441406</ele>
        <time>2026-09-03T14:23:16.000Z</time>
      </trkpt>
      <trkpt lat="48.21898" lon="6.6588">
        <ele>421.20001220703</ele>
        <time>2026-09-03T14:23:17.000Z</time>
      </trkpt>
      <trkpt lat="48.21898" lon="6.6588">
        <ele>421.20001220703</ele>
        <time>2026-09-03T14:23:18.000Z</time>
      </trkpt>
      <trkpt lat="48.21898" lon="6.6588">
        <ele>421.40002441406</ele>
        <time>2026-09-03T14:23:19.000Z</time>
      </trkpt>
      <trkpt lat="48.21898" lon="6.6588">
        <ele>421.40002441406</ele>
        <time>2026-09-03T14:23:20.000Z</time>
      </trkpt>
      <trkpt lat="48.21898" lon="6.6588">
        <ele>421.40002441406</ele>
        <time>2026-09-03T14:23:21.000Z</time>
      </trkpt>
      <trkpt lat="48.21898" lon="6.6588">
        <ele>421.59997558594</ele>
        <time>2026-09-03T14:23:22.000Z</time>
      </trkpt>
      <trkpt lat="48.219" lon="6.65881">
        <ele>421.59997558594</ele>
        <time>2026-09-03T14:23:23.000Z</time>
      </trkpt>
      <trkpt lat="48.219" lon="6.65882">
        <ele>421.59997558594</ele>
        <time>2026-09-03T14:23:24.000Z</time>
      </trkpt>
      <trkpt lat="48.219" lon="6.65882">
        <ele>421.59997558594</ele>
        <time>2026-09-03T14:23:25.000Z</time>
      </trkpt>
      <trkpt lat="48.219" lon="6.65882">
        <ele>421.59997558594</ele>
        <time>2026-09-03T14:23:26.000Z</time>
      </trkpt>
      <trkpt lat="48.219" lon="6.65882">
        <ele>421.59997558594</ele>
        <time>2026-09-03T14:23:27.000Z</time>
      </trkpt>
      <trkpt lat="48.219" lon="6.65882">
        <ele>421.59997558594</ele>
        <time>2026-09-03T14:23:28.000Z</time>
      </trkpt>
      <trkpt lat="48.219" lon="6.65882">
        <ele>421.59997558594</ele>
        <time>2026-09-03T14:23:29.000Z</time>
      </trkpt>
      <trkpt lat="48.219" lon="6.65882">
        <ele>421.59997558594</ele>
        <time>2026-09-03T14:23:30.000Z</time>
      </trkpt>
      <trkpt lat="48.219" lon="6.65882">
        <ele>421.59997558594</ele>
        <time>2026-09-03T14:23:31.000Z</time>
      </trkpt>
      <trkpt lat="48.219" lon="6.65882">
        <ele>421.59997558594</ele>
        <time>2026-09-03T14:23:32.000Z</time>
      </trkpt>
      <trkpt lat="48.219" lon="6.65882">
        <ele>421.59997558594</ele>
        <time>2026-09-03T14:23:33.000Z</time>
      </trkpt>
      <trkpt lat="48.219" lon="6.65882">
        <ele>421.40002441406</ele>
        <time>2026-09-03T14:23:34.000Z</time>
      </trkpt>
      <trkpt lat="48.219" lon="6.65882">
        <ele>421.40002441406</ele>
        <time>2026-09-03T14:23:35.000Z</time>
      </trkpt>
      <trkpt lat="48.219" lon="6.65882">
        <ele>421.40002441406</ele>
        <time>2026-09-03T14:23:36.000Z</time>
      </trkpt>
      <trkpt lat="48.219" lon="6.65883">
        <ele>421.40002441406</ele>
        <time>2026-09-03T14:23:37.000Z</time>
      </trkpt>
      <trkpt lat="48.219" lon="6.65882">
        <ele>421.40002441406</ele>
        <time>2026-09-03T14:23:38.000Z</time>
      </trkpt>
      <trkpt lat="48.219" lon="6.65882">
        <ele>421.59997558594</ele>
        <time>2026-09-03T14:23:39.000Z</time>
      </trkpt>
      <trkpt lat="48.219" lon="6.65882">
        <ele>421.79998779297</ele>
        <time>2026-09-03T14:23:40.000Z</time>
      </trkpt>
      <trkpt lat="48.219" lon="6.65882">
        <ele>421.79998779297</ele>
        <time>2026-09-03T14:23:41.000Z</time>
      </trkpt>
      <trkpt lat="48.219" lon="6.65882">
        <ele>421.79998779297</ele>
        <time>2026-09-03T14:23:42.000Z</time>
      </trkpt>
      <trkpt lat="48.219" lon="6.65882">
        <ele>421.79998779297</ele>
        <time>2026-09-03T14:23:43.000Z</time>
      </trkpt>
      <trkpt lat="48.219" lon="6.65882">
        <ele>421.79998779297</ele>
        <time>2026-09-03T14:23:44.000Z</time>
      </trkpt>
      <trkpt lat="48.219" lon="6.65882">
        <ele>421.59997558594</ele>
        <time>2026-09-03T14:23:45.000Z</time>
      </trkpt>
      <trkpt lat="48.219" lon="6.65882">
        <ele>421.59997558594</ele>
        <time>2026-09-03T14:23:46.000Z</time>
      </trkpt>
      <trkpt lat="48.219" lon="6.65882">
        <ele>421.40002441406</ele>
        <time>2026-09-03T14:23:47.000Z</time>
      </trkpt>
      <trkpt lat="48.219" lon="6.65882">
        <ele>421.40002441406</ele>
        <time>2026-09-03T14:23:48.000Z</time>
      </trkpt>
      <trkpt lat="48.219" lon="6.65882">
        <ele>421.40002441406</ele>
        <time>2026-09-03T14:23:49.000Z</time>
      </trkpt>
      <trkpt lat="48.219" lon="6.65882">
        <ele>421.40002441406</ele>
        <time>2026-09-03T14:23:50.000Z</time>
      </trkpt>
      <trkpt lat="48.219" lon="6.65882">
        <ele>421.40002441406</ele>
        <time>2026-09-03T14:23:51.000Z</time>
      </trkpt>
      <trkpt lat="48.219" lon="6.65882">
        <ele>421.40002441406</ele>
        <time>2026-09-03T14:23:52.000Z</time>
      </trkpt>
      <trkpt lat="48.219" lon="6.65882">
        <ele>421.40002441406</ele>
        <time>2026-09-03T14:23:53.000Z</time>
      </trkpt>
      <trkpt lat="48.219" lon="6.65882">
        <ele>421.59997558594</ele>
        <time>2026-09-03T14:23:54.000Z</time>
      </trkpt>
      <trkpt lat="48.219" lon="6.65882">
        <ele>421.59997558594</ele>
        <time>2026-09-03T14:23:55.000Z</time>
      </trkpt>
      <trkpt lat="48.219" lon="6.65882">
        <ele>421.59997558594</ele>
        <time>2026-09-03T14:23:56.000Z</time>
      </trkpt>
      <trkpt lat="48.219" lon="6.65882">
        <ele>421.59997558594</ele>
        <time>2026-09-03T14:23:57.000Z</time>
      </trkpt>
      <trkpt lat="48.219" lon="6.65882">
        <ele>421.59997558594</ele>
        <time>2026-09-03T14:23:58.000Z</time>
      </trkpt>
      <trkpt lat="48.219" lon="6.65882">
        <ele>421.59997558594</ele>
        <time>2026-09-03T14:23:59.000Z</time>
      </trkpt>
      <trkpt lat="48.219" lon="6.65882">
        <ele>421.59997558594</ele>
        <time>2026-09-03T14:24:00.000Z</time>
      </trkpt>
      <trkpt lat="48.219" lon="6.65882">
        <ele>421.40002441406</ele>
        <time>2026-09-03T14:24:01.000Z</time>
      </trkpt>
      <trkpt lat="48.219" lon="6.65882">
        <ele>421.40002441406</ele>
        <time>2026-09-03T14:24:02.000Z</time>
      </trkpt>
      <trkpt lat="48.219" lon="6.65882">
        <ele>421.40002441406</ele>
        <time>2026-09-03T14:24:03.000Z</time>
      </trkpt>
      <trkpt lat="48.219" lon="6.65882">
        <ele>421.40002441406</ele>
        <time>2026-09-03T14:24:04.000Z</time>
      </trkpt>
      <trkpt lat="48.219" lon="6.65882">
        <ele>421.40002441406</ele>
        <time>2026-09-03T14:24:05.000Z</time>
      </trkpt>
      <trkpt lat="48.219" lon="6.65882">
        <ele>421.40002441406</ele>
        <time>2026-09-03T14:24:06.000Z</time>
      </trkpt>
      <trkpt lat="48.219" lon="6.65882">
        <ele>421.40002441406</ele>
        <time>2026-09-03T14:24:07.000Z</time>
      </trkpt>
      <trkpt lat="48.219" lon="6.65882">
        <ele>421.40002441406</ele>
        <time>2026-09-03T14:24:08.000Z</time>
      </trkpt>
      <trkpt lat="48.219" lon="6.65882">
        <ele>421.40002441406</ele>
        <time>2026-09-03T14:24:09.000Z</time>
      </trkpt>
      <trkpt lat="48.219" lon="6.65882">
        <ele>421.40002441406</ele>
        <time>2026-09-03T14:24:10.000Z</time>
      </trkpt>
      <trkpt lat="48.219" lon="6.65882">
        <ele>421.40002441406</ele>
        <time>2026-09-03T14:24:11.000Z</time>
      </trkpt>
      <trkpt lat="48.219" lon="6.65882">
        <ele>421.40002441406</ele>
        <time>2026-09-03T14:24:12.000Z</time>
      </trkpt>
      <trkpt lat="48.219" lon="6.65882">
        <ele>421.40002441406</ele>
        <time>2026-09-03T14:24:13.000Z</time>
      </trkpt>
      <trkpt lat="48.219" lon="6.65882">
        <ele>421.40002441406</ele>
        <time>2026-09-03T14:24:14.000Z</time>
      </trkpt>
      <trkpt lat="48.219" lon="6.65882">
        <ele>421.40002441406</ele>
        <time>2026-09-03T14:24:15.000Z</time>
      </trkpt>
      <trkpt lat="48.219" lon="6.65882">
        <ele>421.40002441406</ele>
        <time>2026-09-03T14:24:16.000Z</time>
      </trkpt>
      <trkpt lat="48.219" lon="6.65882">
        <ele>421.59997558594</ele>
        <time>2026-09-03T14:24:17.000Z</time>
      </trkpt>
      <trkpt lat="48.219" lon="6.65882">
        <ele>421.59997558594</ele>
        <time>2026-09-03T14:24:18.000Z</time>
      </trkpt>
      <trkpt lat="48.219" lon="6.65882">
        <ele>421.40002441406</ele>
        <time>2026-09-03T14:24:19.000Z</time>
      </trkpt>
      <trkpt lat="48.219" lon="6.65882">
        <ele>421.40002441406</ele>
        <time>2026-09-03T14:24:20.000Z</time>
      </trkpt>
      <trkpt lat="48.219" lon="6.65882">
        <ele>421.40002441406</ele>
        <time>2026-09-03T14:24:21.000Z</time>
      </trkpt>
      <trkpt lat="48.219" lon="6.65882">
        <ele>421.40002441406</ele>
        <time>2026-09-03T14:24:22.000Z</time>
      </trkpt>
      <trkpt lat="48.219" lon="6.65882">
        <ele>421.40002441406</ele>
        <time>2026-09-03T14:24:23.000Z</time>
      </trkpt>
      <trkpt lat="48.219" lon="6.65882">
        <ele>421.40002441406</ele>
        <time>2026-09-03T14:24:24.000Z</time>
      </trkpt>
      <trkpt lat="48.219" lon="6.65882">
        <ele>421.59997558594</ele>
        <time>2026-09-03T14:24:25.000Z</time>
      </trkpt>
      <trkpt lat="48.219" lon="6.65882">
        <ele>421.59997558594</ele>
        <time>2026-09-03T14:24:26.000Z</time>
      </trkpt>
      <trkpt lat="48.219" lon="6.65882">
        <ele>421.59997558594</ele>
        <time>2026-09-03T14:24:27.000Z</time>
      </trkpt>
      <trkpt lat="48.219" lon="6.65882">
        <ele>421.79998779297</ele>
        <time>2026-09-03T14:24:28.000Z</time>
      </trkpt>
      <trkpt lat="48.219" lon="6.65882">
        <ele>421.79998779297</ele>
        <time>2026-09-03T14:24:29.000Z</time>
      </trkpt>
      <trkpt lat="48.219" lon="6.65882">
        <ele>421.79998779297</ele>
        <time>2026-09-03T14:24:30.000Z</time>
      </trkpt>
      <trkpt lat="48.219" lon="6.65882">
        <ele>421.79998779297</ele>
        <time>2026-09-03T14:24:31.000Z</time>
      </trkpt>
      <trkpt lat="48.219" lon="6.65882">
        <ele>421.79998779297</ele>
        <time>2026-09-03T14:24:32.000Z</time>
      </trkpt>
      <trkpt lat="48.219" lon="6.65882">
        <ele>421.79998779297</ele>
        <time>2026-09-03T14:24:33.000Z</time>
      </trkpt>
      <trkpt lat="48.219" lon="6.65882">
        <ele>421.79998779297</ele>
        <time>2026-09-03T14:24:34.000Z</time>
      </trkpt>
      <trkpt lat="48.219" lon="6.65882">
        <ele>421.79998779297</ele>
        <time>2026-09-03T14:24:35.000Z</time>
      </trkpt>
      <trkpt lat="48.219" lon="6.65882">
        <ele>421.79998779297</ele>
        <time>2026-09-03T14:24:36.000Z</time>
      </trkpt>
      <trkpt lat="48.219" lon="6.65882">
        <ele>421.79998779297</ele>
        <time>2026-09-03T14:24:37.000Z</time>
      </trkpt>
      <trkpt lat="48.219" lon="6.65882">
        <ele>421.59997558594</ele>
        <time>2026-09-03T14:24:38.000Z</time>
      </trkpt>
      <trkpt lat="48.219" lon="6.65882">
        <ele>421.59997558594</ele>
        <time>2026-09-03T14:24:39.000Z</time>
      </trkpt>
      <trkpt lat="48.219" lon="6.65882">
        <ele>421.59997558594</ele>
        <time>2026-09-03T14:24:40.000Z</time>
      </trkpt>
      <trkpt lat="48.219" lon="6.65882">
        <ele>421.59997558594</ele>
        <time>2026-09-03T14:24:41.000Z</time>
      </trkpt>
      <trkpt lat="48.219" lon="6.65882">
        <ele>421.59997558594</ele>
        <time>2026-09-03T14:24:42.000Z</time>
      </trkpt>
      <trkpt lat="48.219" lon="6.65882">
        <ele>421.59997558594</ele>
        <time>2026-09-03T14:24:43.000Z</time>
      </trkpt>
      <trkpt lat="48.219" lon="6.65882">
        <ele>421.59997558594</ele>
        <time>2026-09-03T14:24:44.000Z</time>
      </trkpt>
      <trkpt lat="48.219" lon="6.65882">
        <ele>421.79998779297</ele>
        <time>2026-09-03T14:24:45.000Z</time>
      </trkpt>
      <trkpt lat="48.219" lon="6.65882">
        <ele>421.79998779297</ele>
        <time>2026-09-03T14:24:46.000Z</time>
      </trkpt>
      <trkpt lat="48.219" lon="6.65882">
        <ele>421.79998779297</ele>
        <time>2026-09-03T14:24:47.000Z</time>
      </trkpt>
      <trkpt lat="48.219" lon="6.65882">
        <ele>421.79998779297</ele>
        <time>2026-09-03T14:24:48.000Z</time>
      </trkpt>
      <trkpt lat="48.21899" lon="6.65882">
        <ele>422</ele>
        <time>2026-09-03T14:24:49.000Z</time>
      </trkpt>
      <trkpt lat="48.21898" lon="6.65883">
        <ele>422</ele>
        <time>2026-09-03T14:24:50.000Z</time>
      </trkpt>
      <trkpt lat="48.21898" lon="6.65883">
        <ele>422.20001220703</ele>
        <time>2026-09-03T14:24:51.000Z</time>
      </trkpt>
      <trkpt lat="48.21898" lon="6.65883">
        <ele>422.20001220703</ele>
        <time>2026-09-03T14:24:52.000Z</time>
      </trkpt>
      <trkpt lat="48.21898" lon="6.65883">
        <ele>422.20001220703</ele>
        <time>2026-09-03T14:24:53.000Z</time>
      </trkpt>
      <trkpt lat="48.21898" lon="6.65883">
        <ele>422</ele>
        <time>2026-09-03T14:24:54.000Z</time>
      </trkpt>
      <trkpt lat="48.21898" lon="6.65883">
        <ele>422</ele>
        <time>2026-09-03T14:24:55.000Z</time>
      </trkpt>
      <trkpt lat="48.21898" lon="6.65883">
        <ele>421.79998779297</ele>
        <time>2026-09-03T14:24:56.000Z</time>
      </trkpt>
      <trkpt lat="48.21898" lon="6.65883">
        <ele>421.79998779297</ele>
        <time>2026-09-03T14:24:57.000Z</time>
      </trkpt>
      <trkpt lat="48.21898" lon="6.65883">
        <ele>421.79998779297</ele>
        <time>2026-09-03T14:24:58.000Z</time>
      </trkpt>
      <trkpt lat="48.21898" lon="6.65883">
        <ele>421.79998779297</ele>
        <time>2026-09-03T14:24:59.000Z</time>
      </trkpt>
      <trkpt lat="48.21898" lon="6.65883">
        <ele>421.79998779297</ele>
        <time>2026-09-03T14:25:00.000Z</time>
      </trkpt>
      <trkpt lat="48.21898" lon="6.65883">
        <ele>421.79998779297</ele>
        <time>2026-09-03T14:25:01.000Z</time>
      </trkpt>
      <trkpt lat="48.21898" lon="6.65883">
        <ele>421.79998779297</ele>
        <time>2026-09-03T14:25:02.000Z</time>
      </trkpt>
      <trkpt lat="48.21898" lon="6.65883">
        <ele>421.79998779297</ele>
        <time>2026-09-03T14:25:03.000Z</time>
      </trkpt>
      <trkpt lat="48.21898" lon="6.65883">
        <ele>421.79998779297</ele>
        <time>2026-09-03T14:25:04.000Z</time>
      </trkpt>
      <trkpt lat="48.21898" lon="6.65883">
        <ele>421.79998779297</ele>
        <time>2026-09-03T14:25:05.000Z</time>
      </trkpt>
      <trkpt lat="48.21898" lon="6.65883">
        <ele>421.79998779297</ele>
        <time>2026-09-03T14:25:06.000Z</time>
      </trkpt>
      <trkpt lat="48.21898" lon="6.65883">
        <ele>421.79998779297</ele>
        <time>2026-09-03T14:25:07.000Z</time>
      </trkpt>
      <trkpt lat="48.21898" lon="6.65883">
        <ele>421.79998779297</ele>
        <time>2026-09-03T14:25:08.000Z</time>
      </trkpt>
      <trkpt lat="48.21898" lon="6.65883">
        <ele>421.79998779297</ele>
        <time>2026-09-03T14:25:09.000Z</time>
      </trkpt>
      <trkpt lat="48.21898" lon="6.65883">
        <ele>421.79998779297</ele>
        <time>2026-09-03T14:25:10.000Z</time>
      </trkpt>
      <trkpt lat="48.21898" lon="6.65883">
        <ele>421.79998779297</ele>
        <time>2026-09-03T14:25:11.000Z</time>
      </trkpt>
      <trkpt lat="48.21898" lon="6.65883">
        <ele>421.79998779297</ele>
        <time>2026-09-03T14:25:12.000Z</time>
      </trkpt>
      <trkpt lat="48.21898" lon="6.65883">
        <ele>421.59997558594</ele>
        <time>2026-09-03T14:25:13.000Z</time>
      </trkpt>
      <trkpt lat="48.21898" lon="6.65883">
        <ele>421.59997558594</ele>
        <time>2026-09-03T14:25:14.000Z</time>
      </trkpt>
      <trkpt lat="48.21898" lon="6.65883">
        <ele>421.59997558594</ele>
        <time>2026-09-03T14:25:15.000Z</time>
      </trkpt>
      <trkpt lat="48.21898" lon="6.65883">
        <ele>421.79998779297</ele>
        <time>2026-09-03T14:25:16.000Z</time>
      </trkpt>
      <trkpt lat="48.21898" lon="6.65883">
        <ele>421.79998779297</ele>
        <time>2026-09-03T14:25:17.000Z</time>
      </trkpt>
      <trkpt lat="48.21898" lon="6.65883">
        <ele>421.79998779297</ele>
        <time>2026-09-03T14:25:18.000Z</time>
      </trkpt>
      <trkpt lat="48.21898" lon="6.65883">
        <ele>421.59997558594</ele>
        <time>2026-09-03T14:25:19.000Z</time>
      </trkpt>
      <trkpt lat="48.21898" lon="6.65883">
        <ele>421.59997558594</ele>
        <time>2026-09-03T14:25:20.000Z</time>
      </trkpt>
      <trkpt lat="48.21898" lon="6.65883">
        <ele>421.59997558594</ele>
        <time>2026-09-03T14:25:21.000Z</time>
      </trkpt>
      <trkpt lat="48.21898" lon="6.65883">
        <ele>421.40002441406</ele>
        <time>2026-09-03T14:25:22.000Z</time>
      </trkpt>
      <trkpt lat="48.21898" lon="6.65883">
        <ele>421.20001220703</ele>
        <time>2026-09-03T14:25:23.000Z</time>
      </trkpt>
      <trkpt lat="48.21898" lon="6.65883">
        <ele>421.20001220703</ele>
        <time>2026-09-03T14:25:24.000Z</time>
      </trkpt>
      <trkpt lat="48.21898" lon="6.65883">
        <ele>421.40002441406</ele>
        <time>2026-09-03T14:25:25.000Z</time>
      </trkpt>
      <trkpt lat="48.21898" lon="6.65883">
        <ele>421.40002441406</ele>
        <time>2026-09-03T14:25:26.000Z</time>
      </trkpt>
      <trkpt lat="48.21898" lon="6.65883">
        <ele>421.59997558594</ele>
        <time>2026-09-03T14:25:27.000Z</time>
      </trkpt>
      <trkpt lat="48.21898" lon="6.65883">
        <ele>421.59997558594</ele>
        <time>2026-09-03T14:25:28.000Z</time>
      </trkpt>
      <trkpt lat="48.21898" lon="6.65883">
        <ele>421.79998779297</ele>
        <time>2026-09-03T14:25:29.000Z</time>
      </trkpt>
      <trkpt lat="48.21898" lon="6.65883">
        <ele>421.79998779297</ele>
        <time>2026-09-03T14:25:30.000Z</time>
      </trkpt>
      <trkpt lat="48.21898" lon="6.65883">
        <ele>421.79998779297</ele>
        <time>2026-09-03T14:25:31.000Z</time>
      </trkpt>
      <trkpt lat="48.21898" lon="6.65883">
        <ele>421.79998779297</ele>
        <time>2026-09-03T14:25:32.000Z</time>
      </trkpt>
      <trkpt lat="48.21898" lon="6.65883">
        <ele>421.59997558594</ele>
        <time>2026-09-03T14:25:33.000Z</time>
      </trkpt>
      <trkpt lat="48.21898" lon="6.65883">
        <ele>421.59997558594</ele>
        <time>2026-09-03T14:25:34.000Z</time>
      </trkpt>
      <trkpt lat="48.21898" lon="6.65883">
        <ele>421.59997558594</ele>
        <time>2026-09-03T14:25:35.000Z</time>
      </trkpt>
      <trkpt lat="48.21898" lon="6.65883">
        <ele>421.59997558594</ele>
        <time>2026-09-03T14:25:36.000Z</time>
      </trkpt>
      <trkpt lat="48.21898" lon="6.65883">
        <ele>421.59997558594</ele>
        <time>2026-09-03T14:25:37.000Z</time>
      </trkpt>
      <trkpt lat="48.21898" lon="6.65883">
        <ele>421.59997558594</ele>
        <time>2026-09-03T14:25:38.000Z</time>
      </trkpt>
      <trkpt lat="48.21898" lon="6.65883">
        <ele>421.59997558594</ele>
        <time>2026-09-03T14:25:39.000Z</time>
      </trkpt>
      <trkpt lat="48.21898" lon="6.65883">
        <ele>421.59997558594</ele>
        <time>2026-09-03T14:25:40.000Z</time>
      </trkpt>
      <trkpt lat="48.21898" lon="6.65883">
        <ele>421.59997558594</ele>
        <time>2026-09-03T14:25:41.000Z</time>
      </trkpt>
      <trkpt lat="48.21898" lon="6.65883">
        <ele>421.59997558594</ele>
        <time>2026-09-03T14:25:42.000Z</time>
      </trkpt>
      <trkpt lat="48.21898" lon="6.65883">
        <ele>421.59997558594</ele>
        <time>2026-09-03T14:25:43.000Z</time>
      </trkpt>
      <trkpt lat="48.21898" lon="6.65883">
        <ele>421.59997558594</ele>
        <time>2026-09-03T14:25:44.000Z</time>
      </trkpt>
      <trkpt lat="48.21898" lon="6.65883">
        <ele>421.40002441406</ele>
        <time>2026-09-03T14:25:45.000Z</time>
      </trkpt>
      <trkpt lat="48.21898" lon="6.65883">
        <ele>421.40002441406</ele>
        <time>2026-09-03T14:25:46.000Z</time>
      </trkpt>
      <trkpt lat="48.21898" lon="6.65883">
        <ele>421.20001220703</ele>
        <time>2026-09-03T14:25:47.000Z</time>
      </trkpt>
      <trkpt lat="48.21898" lon="6.65883">
        <ele>421.20001220703</ele>
        <time>2026-09-03T14:25:48.000Z</time>
      </trkpt>
      <trkpt lat="48.21898" lon="6.65883">
        <ele>421.20001220703</ele>
        <time>2026-09-03T14:25:49.000Z</time>
      </trkpt>
      <trkpt lat="48.21898" lon="6.65883">
        <ele>421.20001220703</ele>
        <time>2026-09-03T14:25:50.000Z</time>
      </trkpt>
      <trkpt lat="48.21898" lon="6.65883">
        <ele>421.20001220703</ele>
        <time>2026-09-03T14:25:51.000Z</time>
      </trkpt>
      <trkpt lat="48.21898" lon="6.65883">
        <ele>421.40002441406</ele>
        <time>2026-09-03T14:25:52.000Z</time>
      </trkpt>
      <trkpt lat="48.21898" lon="6.65883">
        <ele>421.59997558594</ele>
        <time>2026-09-03T14:25:53.000Z</time>
      </trkpt>
      <trkpt lat="48.21898" lon="6.65883">
        <ele>421.79998779297</ele>
        <time>2026-09-03T14:25:54.000Z</time>
      </trkpt>
      <trkpt lat="48.21898" lon="6.65883">
        <ele>422</ele>
        <time>2026-09-03T14:25:55.000Z</time>
      </trkpt>
      <trkpt lat="48.21898" lon="6.65883">
        <ele>422</ele>
        <time>2026-09-03T14:25:56.000Z</time>
      </trkpt>
      <trkpt lat="48.21898" lon="6.65883">
        <ele>422.20001220703</ele>
        <time>2026-09-03T14:25:57.000Z</time>
      </trkpt>
      <trkpt lat="48.21898" lon="6.65883">
        <ele>422.20001220703</ele>
        <time>2026-09-03T14:25:58.000Z</time>
      </trkpt>
      <trkpt lat="48.21898" lon="6.65883">
        <ele>422</ele>
        <time>2026-09-03T14:25:59.000Z</time>
      </trkpt>
      <trkpt lat="48.21898" lon="6.65883">
        <ele>422</ele>
        <time>2026-09-03T14:26:00.000Z</time>
      </trkpt>
      <trkpt lat="48.21898" lon="6.65883">
        <ele>422</ele>
        <time>2026-09-03T14:26:01.000Z</time>
      </trkpt>
      <trkpt lat="48.21898" lon="6.65883">
        <ele>422</ele>
        <time>2026-09-03T14:26:02.000Z</time>
      </trkpt>
      <trkpt lat="48.21898" lon="6.65883">
        <ele>422</ele>
        <time>2026-09-03T14:26:03.000Z</time>
      </trkpt>
      <trkpt lat="48.21899" lon="6.65884">
        <ele>422</ele>
        <time>2026-09-03T14:26:04.000Z</time>
      </trkpt>
      <trkpt lat="48.21899" lon="6.65884">
        <ele>421.79998779297</ele>
        <time>2026-09-03T14:26:05.000Z</time>
      </trkpt>
      <trkpt lat="48.219" lon="6.65884">
        <ele>421.79998779297</ele>
        <time>2026-09-03T14:26:06.000Z</time>
      </trkpt>
      <trkpt lat="48.219" lon="6.65884">
        <ele>421.79998779297</ele>
        <time>2026-09-03T14:26:07.000Z</time>
      </trkpt>
      <trkpt lat="48.219" lon="6.65884">
        <ele>421.79998779297</ele>
        <time>2026-09-03T14:26:08.000Z</time>
      </trkpt>
      <trkpt lat="48.219" lon="6.65884">
        <ele>421.79998779297</ele>
        <time>2026-09-03T14:26:09.000Z</time>
      </trkpt>
      <trkpt lat="48.219" lon="6.65884">
        <ele>422</ele>
        <time>2026-09-03T14:26:10.000Z</time>
      </trkpt>
      <trkpt lat="48.219" lon="6.65884">
        <ele>422</ele>
        <time>2026-09-03T14:26:11.000Z</time>
      </trkpt>
      <trkpt lat="48.219" lon="6.65884">
        <ele>422</ele>
        <time>2026-09-03T14:26:12.000Z</time>
      </trkpt>
      <trkpt lat="48.219" lon="6.65884">
        <ele>422</ele>
        <time>2026-09-03T14:26:13.000Z</time>
      </trkpt>
      <trkpt lat="48.219" lon="6.65884">
        <ele>422</ele>
        <time>2026-09-03T14:26:14.000Z</time>
      </trkpt>
      <trkpt lat="48.219" lon="6.65884">
        <ele>422</ele>
        <time>2026-09-03T14:26:15.000Z</time>
      </trkpt>
      <trkpt lat="48.219" lon="6.65884">
        <ele>422</ele>
        <time>2026-09-03T14:26:16.000Z</time>
      </trkpt>
      <trkpt lat="48.219" lon="6.65884">
        <ele>422</ele>
        <time>2026-09-03T14:26:17.000Z</time>
      </trkpt>
      <trkpt lat="48.219" lon="6.65884">
        <ele>422</ele>
        <time>2026-09-03T14:26:18.000Z</time>
      </trkpt>
      <trkpt lat="48.219" lon="6.65884">
        <ele>422</ele>
        <time>2026-09-03T14:26:19.000Z</time>
      </trkpt>
      <trkpt lat="48.219" lon="6.65884">
        <ele>422</ele>
        <time>2026-09-03T14:26:20.000Z</time>
      </trkpt>
      <trkpt lat="48.219" lon="6.65884">
        <ele>422</ele>
        <time>2026-09-03T14:26:21.000Z</time>
      </trkpt>
      <trkpt lat="48.219" lon="6.65884">
        <ele>422</ele>
        <time>2026-09-03T14:26:22.000Z</time>
      </trkpt>
      <trkpt lat="48.219" lon="6.65884">
        <ele>422</ele>
        <time>2026-09-03T14:26:23.000Z</time>
      </trkpt>
      <trkpt lat="48.219" lon="6.65884">
        <ele>422</ele>
        <time>2026-09-03T14:26:24.000Z</time>
      </trkpt>
      <trkpt lat="48.21901" lon="6.65886">
        <ele>422</ele>
        <time>2026-09-03T14:26:25.000Z</time>
      </trkpt>
      <trkpt lat="48.219" lon="6.65887">
        <ele>422</ele>
        <time>2026-09-03T14:26:26.000Z</time>
      </trkpt>
      <trkpt lat="48.219" lon="6.65887">
        <ele>422</ele>
        <time>2026-09-03T14:26:27.000Z</time>
      </trkpt>
      <trkpt lat="48.21899" lon="6.65888">
        <ele>422</ele>
        <time>2026-09-03T14:26:28.000Z</time>
      </trkpt>
      <trkpt lat="48.21898" lon="6.65889">
        <ele>421.79998779297</ele>
        <time>2026-09-03T14:26:29.000Z</time>
      </trkpt>
      <trkpt lat="48.21898" lon="6.65889">
        <ele>421.79998779297</ele>
        <time>2026-09-03T14:26:30.000Z</time>
      </trkpt>
      <trkpt lat="48.21897" lon="6.6589">
        <ele>421.79998779297</ele>
        <time>2026-09-03T14:26:31.000Z</time>
      </trkpt>
      <trkpt lat="48.21896" lon="6.65892">
        <ele>421.79998779297</ele>
        <time>2026-09-03T14:26:32.000Z</time>
      </trkpt>
      <trkpt lat="48.21896" lon="6.65892">
        <ele>421.79998779297</ele>
        <time>2026-09-03T14:26:33.000Z</time>
      </trkpt>
      <trkpt lat="48.21895" lon="6.65893">
        <ele>422</ele>
        <time>2026-09-03T14:26:34.000Z</time>
      </trkpt>
      <trkpt lat="48.21894" lon="6.65894">
        <ele>422</ele>
        <time>2026-09-03T14:26:35.000Z</time>
      </trkpt>
      <trkpt lat="48.21894" lon="6.65896">
        <ele>422.20001220703</ele>
        <time>2026-09-03T14:26:36.000Z</time>
      </trkpt>
      <trkpt lat="48.21893" lon="6.65897">
        <ele>422.20001220703</ele>
        <time>2026-09-03T14:26:37.000Z</time>
      </trkpt>
      <trkpt lat="48.21892" lon="6.65898">
        <ele>422.20001220703</ele>
        <time>2026-09-03T14:26:38.000Z</time>
      </trkpt>
      <trkpt lat="48.21891" lon="6.65899">
        <ele>422.40002441406</ele>
        <time>2026-09-03T14:26:39.000Z</time>
      </trkpt>
      <trkpt lat="48.21891" lon="6.659">
        <ele>422.40002441406</ele>
        <time>2026-09-03T14:26:40.000Z</time>
      </trkpt>
      <trkpt lat="48.2189" lon="6.65902">
        <ele>422.40002441406</ele>
        <time>2026-09-03T14:26:41.000Z</time>
      </trkpt>
      <trkpt lat="48.21889" lon="6.65903">
        <ele>422.40002441406</ele>
        <time>2026-09-03T14:26:42.000Z</time>
      </trkpt>
      <trkpt lat="48.21888" lon="6.65904">
        <ele>422.40002441406</ele>
        <time>2026-09-03T14:26:43.000Z</time>
      </trkpt>
      <trkpt lat="48.21887" lon="6.65905">
        <ele>422.59997558594</ele>
        <time>2026-09-03T14:26:44.000Z</time>
      </trkpt>
      <trkpt lat="48.21887" lon="6.65906">
        <ele>422.59997558594</ele>
        <time>2026-09-03T14:26:45.000Z</time>
      </trkpt>
      <trkpt lat="48.21885" lon="6.65908">
        <ele>422.59997558594</ele>
        <time>2026-09-03T14:26:46.000Z</time>
      </trkpt>
      <trkpt lat="48.21885" lon="6.65909">
        <ele>422.79998779297</ele>
        <time>2026-09-03T14:26:47.000Z</time>
      </trkpt>
      <trkpt lat="48.21884" lon="6.6591">
        <ele>422.79998779297</ele>
        <time>2026-09-03T14:26:48.000Z</time>
      </trkpt>
      <trkpt lat="48.21883" lon="6.6591">
        <ele>423</ele>
        <time>2026-09-03T14:26:49.000Z</time>
      </trkpt>
      <trkpt lat="48.21882" lon="6.65911">
        <ele>423</ele>
        <time>2026-09-03T14:26:50.000Z</time>
      </trkpt>
      <trkpt lat="48.21881" lon="6.65912">
        <ele>423</ele>
        <time>2026-09-03T14:26:51.000Z</time>
      </trkpt>
      <trkpt lat="48.2188" lon="6.65912">
        <ele>423</ele>
        <time>2026-09-03T14:26:52.000Z</time>
      </trkpt>
      <trkpt lat="48.21879" lon="6.65913">
        <ele>423</ele>
        <time>2026-09-03T14:26:53.000Z</time>
      </trkpt>
      <trkpt lat="48.21878" lon="6.65914">
        <ele>423</ele>
        <time>2026-09-03T14:26:54.000Z</time>
      </trkpt>
      <trkpt lat="48.21878" lon="6.65914">
        <ele>423.20001220703</ele>
        <time>2026-09-03T14:26:55.000Z</time>
      </trkpt>
      <trkpt lat="48.21877" lon="6.65915">
        <ele>423.20001220703</ele>
        <time>2026-09-03T14:26:56.000Z</time>
      </trkpt>
      <trkpt lat="48.21876" lon="6.65916">
        <ele>423.20001220703</ele>
        <time>2026-09-03T14:26:57.000Z</time>
      </trkpt>
      <trkpt lat="48.21875" lon="6.65917">
        <ele>423.40002441406</ele>
        <time>2026-09-03T14:26:58.000Z</time>
      </trkpt>
      <trkpt lat="48.21874" lon="6.65919">
        <ele>423.40002441406</ele>
        <time>2026-09-03T14:26:59.000Z</time>
      </trkpt>
      <trkpt lat="48.21874" lon="6.6592">
        <ele>423.40002441406</ele>
        <time>2026-09-03T14:27:00.000Z</time>
      </trkpt>
      <trkpt lat="48.21874" lon="6.6592">
        <ele>423.59997558594</ele>
        <time>2026-09-03T14:27:01.000Z</time>
      </trkpt>
      <trkpt lat="48.21873" lon="6.65921">
        <ele>423.59997558594</ele>
        <time>2026-09-03T14:27:02.000Z</time>
      </trkpt>
      <trkpt lat="48.21873" lon="6.65923">
        <ele>423.79998779297</ele>
        <time>2026-09-03T14:27:03.000Z</time>
      </trkpt>
      <trkpt lat="48.21872" lon="6.65925">
        <ele>423.79998779297</ele>
        <time>2026-09-03T14:27:04.000Z</time>
      </trkpt>
      <trkpt lat="48.21871" lon="6.65926">
        <ele>423.79998779297</ele>
        <time>2026-09-03T14:27:05.000Z</time>
      </trkpt>
      <trkpt lat="48.2187" lon="6.65927">
        <ele>423.79998779297</ele>
        <time>2026-09-03T14:27:06.000Z</time>
      </trkpt>
      <trkpt lat="48.2187" lon="6.65928">
        <ele>424</ele>
        <time>2026-09-03T14:27:07.000Z</time>
      </trkpt>
      <trkpt lat="48.2187" lon="6.65929">
        <ele>424</ele>
        <time>2026-09-03T14:27:08.000Z</time>
      </trkpt>
      <trkpt lat="48.2187" lon="6.65929">
        <ele>424</ele>
        <time>2026-09-03T14:27:09.000Z</time>
      </trkpt>
      <trkpt lat="48.2187" lon="6.65929">
        <ele>424</ele>
        <time>2026-09-03T14:27:10.000Z</time>
      </trkpt>
      <trkpt lat="48.2187" lon="6.65929">
        <ele>424</ele>
        <time>2026-09-03T14:27:11.000Z</time>
      </trkpt>
      <trkpt lat="48.2187" lon="6.65929">
        <ele>424</ele>
        <time>2026-09-03T14:27:12.000Z</time>
      </trkpt>
      <trkpt lat="48.2187" lon="6.65929">
        <ele>424</ele>
        <time>2026-09-03T14:27:13.000Z</time>
      </trkpt>
      <trkpt lat="48.2187" lon="6.65929">
        <ele>424</ele>
        <time>2026-09-03T14:27:14.000Z</time>
      </trkpt>
      <trkpt lat="48.2187" lon="6.65929">
        <ele>423.79998779297</ele>
        <time>2026-09-03T14:27:15.000Z</time>
      </trkpt>
      <trkpt lat="48.2187" lon="6.6593">
        <ele>423.79998779297</ele>
        <time>2026-09-03T14:27:16.000Z</time>
      </trkpt>
      <trkpt lat="48.21869" lon="6.65931">
        <ele>423.79998779297</ele>
        <time>2026-09-03T14:27:17.000Z</time>
      </trkpt>
      <trkpt lat="48.21868" lon="6.65931">
        <ele>423.79998779297</ele>
        <time>2026-09-03T14:27:18.000Z</time>
      </trkpt>
      <trkpt lat="48.21867" lon="6.65933">
        <ele>423.79998779297</ele>
        <time>2026-09-03T14:27:19.000Z</time>
      </trkpt>
      <trkpt lat="48.21867" lon="6.65934">
        <ele>424</ele>
        <time>2026-09-03T14:27:20.000Z</time>
      </trkpt>
      <trkpt lat="48.21867" lon="6.65935">
        <ele>424.20001220703</ele>
        <time>2026-09-03T14:27:21.000Z</time>
      </trkpt>
      <trkpt lat="48.21866" lon="6.65936">
        <ele>424.20001220703</ele>
        <time>2026-09-03T14:27:22.000Z</time>
      </trkpt>
      <trkpt lat="48.21866" lon="6.65938">
        <ele>424.40002441406</ele>
        <time>2026-09-03T14:27:23.000Z</time>
      </trkpt>
      <trkpt lat="48.21865" lon="6.65939">
        <ele>424.40002441406</ele>
        <time>2026-09-03T14:27:24.000Z</time>
      </trkpt>
      <trkpt lat="48.21863" lon="6.65941">
        <ele>424.40002441406</ele>
        <time>2026-09-03T14:27:25.000Z</time>
      </trkpt>
      <trkpt lat="48.21862" lon="6.65943">
        <ele>424.40002441406</ele>
        <time>2026-09-03T14:27:26.000Z</time>
      </trkpt>
      <trkpt lat="48.21861" lon="6.65945">
        <ele>424.59997558594</ele>
        <time>2026-09-03T14:27:27.000Z</time>
      </trkpt>
      <trkpt lat="48.2186" lon="6.65946">
        <ele>424.59997558594</ele>
        <time>2026-09-03T14:27:28.000Z</time>
      </trkpt>
      <trkpt lat="48.2186" lon="6.65947">
        <ele>424.59997558594</ele>
        <time>2026-09-03T14:27:29.000Z</time>
      </trkpt>
      <trkpt lat="48.21859" lon="6.65947">
        <ele>424.79998779297</ele>
        <time>2026-09-03T14:27:30.000Z</time>
      </trkpt>
      <trkpt lat="48.21858" lon="6.65949">
        <ele>424.79998779297</ele>
        <time>2026-09-03T14:27:31.000Z</time>
      </trkpt>
      <trkpt lat="48.21857" lon="6.6595">
        <ele>424.79998779297</ele>
        <time>2026-09-03T14:27:32.000Z</time>
      </trkpt>
      <trkpt lat="48.21857" lon="6.65951">
        <ele>425</ele>
        <time>2026-09-03T14:27:33.000Z</time>
      </trkpt>
      <trkpt lat="48.21856" lon="6.65953">
        <ele>425</ele>
        <time>2026-09-03T14:27:34.000Z</time>
      </trkpt>
      <trkpt lat="48.21855" lon="6.65953">
        <ele>425</ele>
        <time>2026-09-03T14:27:35.000Z</time>
      </trkpt>
      <trkpt lat="48.21854" lon="6.65954">
        <ele>425</ele>
        <time>2026-09-03T14:27:36.000Z</time>
      </trkpt>
      <trkpt lat="48.21853" lon="6.65955">
        <ele>425</ele>
        <time>2026-09-03T14:27:37.000Z</time>
      </trkpt>
      <trkpt lat="48.21852" lon="6.65956">
        <ele>425.20001220703</ele>
        <time>2026-09-03T14:27:38.000Z</time>
      </trkpt>
      <trkpt lat="48.21852" lon="6.65957">
        <ele>425.20001220703</ele>
        <time>2026-09-03T14:27:39.000Z</time>
      </trkpt>
      <trkpt lat="48.2185" lon="6.65958">
        <ele>425.20001220703</ele>
        <time>2026-09-03T14:27:40.000Z</time>
      </trkpt>
      <trkpt lat="48.21849" lon="6.65959">
        <ele>425.40002441406</ele>
        <time>2026-09-03T14:27:41.000Z</time>
      </trkpt>
      <trkpt lat="48.21848" lon="6.6596">
        <ele>425.40002441406</ele>
        <time>2026-09-03T14:27:42.000Z</time>
      </trkpt>
      <trkpt lat="48.21847" lon="6.65961">
        <ele>425.40002441406</ele>
        <time>2026-09-03T14:27:43.000Z</time>
      </trkpt>
      <trkpt lat="48.21846" lon="6.65962">
        <ele>425.59997558594</ele>
        <time>2026-09-03T14:27:44.000Z</time>
      </trkpt>
      <trkpt lat="48.21845" lon="6.65964">
        <ele>425.59997558594</ele>
        <time>2026-09-03T14:27:45.000Z</time>
      </trkpt>
      <trkpt lat="48.21845" lon="6.65966">
        <ele>425.59997558594</ele>
        <time>2026-09-03T14:27:46.000Z</time>
      </trkpt>
      <trkpt lat="48.21844" lon="6.65966">
        <ele>425.59997558594</ele>
        <time>2026-09-03T14:27:47.000Z</time>
      </trkpt>
      <trkpt lat="48.21843" lon="6.65968">
        <ele>425.59997558594</ele>
        <time>2026-09-03T14:27:48.000Z</time>
      </trkpt>
      <trkpt lat="48.21842" lon="6.65969">
        <ele>425.59997558594</ele>
        <time>2026-09-03T14:27:49.000Z</time>
      </trkpt>
      <trkpt lat="48.21841" lon="6.6597">
        <ele>425.79998779297</ele>
        <time>2026-09-03T14:27:50.000Z</time>
      </trkpt>
      <trkpt lat="48.2184" lon="6.65971">
        <ele>425.79998779297</ele>
        <time>2026-09-03T14:27:51.000Z</time>
      </trkpt>
      <trkpt lat="48.21839" lon="6.65973">
        <ele>426</ele>
        <time>2026-09-03T14:27:52.000Z</time>
      </trkpt>
      <trkpt lat="48.21839" lon="6.65974">
        <ele>426.20001220703</ele>
        <time>2026-09-03T14:27:53.000Z</time>
      </trkpt>
      <trkpt lat="48.21838" lon="6.65975">
        <ele>426.20001220703</ele>
        <time>2026-09-03T14:27:54.000Z</time>
      </trkpt>
      <trkpt lat="48.21837" lon="6.65977">
        <ele>426.40002441406</ele>
        <time>2026-09-03T14:27:55.000Z</time>
      </trkpt>
      <trkpt lat="48.21836" lon="6.65979">
        <ele>426.40002441406</ele>
        <time>2026-09-03T14:27:56.000Z</time>
      </trkpt>
      <trkpt lat="48.21836" lon="6.65979">
        <ele>426.59997558594</ele>
        <time>2026-09-03T14:27:57.000Z</time>
      </trkpt>
      <trkpt lat="48.21835" lon="6.65981">
        <ele>426.59997558594</ele>
        <time>2026-09-03T14:27:58.000Z</time>
      </trkpt>
      <trkpt lat="48.21834" lon="6.65982">
        <ele>426.79998779297</ele>
        <time>2026-09-03T14:27:59.000Z</time>
      </trkpt>
      <trkpt lat="48.21833" lon="6.65983">
        <ele>427</ele>
        <time>2026-09-03T14:28:00.000Z</time>
      </trkpt>
      <trkpt lat="48.21832" lon="6.65984">
        <ele>427.20001220703</ele>
        <time>2026-09-03T14:28:01.000Z</time>
      </trkpt>
      <trkpt lat="48.21831" lon="6.65985">
        <ele>427.40002441406</ele>
        <time>2026-09-03T14:28:02.000Z</time>
      </trkpt>
      <trkpt lat="48.2183" lon="6.65987">
        <ele>427.79998779297</ele>
        <time>2026-09-03T14:28:03.000Z</time>
      </trkpt>
      <trkpt lat="48.21829" lon="6.65988">
        <ele>427.79998779297</ele>
        <time>2026-09-03T14:28:04.000Z</time>
      </trkpt>
      <trkpt lat="48.21828" lon="6.65989">
        <ele>428</ele>
        <time>2026-09-03T14:28:05.000Z</time>
      </trkpt>
      <trkpt lat="48.21827" lon="6.6599">
        <ele>428.20001220703</ele>
        <time>2026-09-03T14:28:06.000Z</time>
      </trkpt>
      <trkpt lat="48.21826" lon="6.65991">
        <ele>428.20001220703</ele>
        <time>2026-09-03T14:28:07.000Z</time>
      </trkpt>
      <trkpt lat="48.21826" lon="6.65992">
        <ele>428.40002441406</ele>
        <time>2026-09-03T14:28:08.000Z</time>
      </trkpt>
      <trkpt lat="48.21825" lon="6.65994">
        <ele>428.40002441406</ele>
        <time>2026-09-03T14:28:09.000Z</time>
      </trkpt>
      <trkpt lat="48.21824" lon="6.65994">
        <ele>428.59997558594</ele>
        <time>2026-09-03T14:28:10.000Z</time>
      </trkpt>
      <trkpt lat="48.21823" lon="6.65995">
        <ele>428.59997558594</ele>
        <time>2026-09-03T14:28:11.000Z</time>
      </trkpt>
      <trkpt lat="48.21822" lon="6.65997">
        <ele>428.79998779297</ele>
        <time>2026-09-03T14:28:12.000Z</time>
      </trkpt>
      <trkpt lat="48.21821" lon="6.65998">
        <ele>428.79998779297</ele>
        <time>2026-09-03T14:28:13.000Z</time>
      </trkpt>
      <trkpt lat="48.2182" lon="6.65999">
        <ele>428.79998779297</ele>
        <time>2026-09-03T14:28:14.000Z</time>
      </trkpt>
      <trkpt lat="48.21819" lon="6.66">
        <ele>429</ele>
        <time>2026-09-03T14:28:15.000Z</time>
      </trkpt>
      <trkpt lat="48.21818" lon="6.66001">
        <ele>429</ele>
        <time>2026-09-03T14:28:16.000Z</time>
      </trkpt>
      <trkpt lat="48.21817" lon="6.66002">
        <ele>429.20001220703</ele>
        <time>2026-09-03T14:28:17.000Z</time>
      </trkpt>
      <trkpt lat="48.21816" lon="6.66004">
        <ele>429.20001220703</ele>
        <time>2026-09-03T14:28:18.000Z</time>
      </trkpt>
      <trkpt lat="48.21816" lon="6.66005">
        <ele>429.40002441406</ele>
        <time>2026-09-03T14:28:19.000Z</time>
      </trkpt>
      <trkpt lat="48.21815" lon="6.66006">
        <ele>429.40002441406</ele>
        <time>2026-09-03T14:28:20.000Z</time>
      </trkpt>
      <trkpt lat="48.21814" lon="6.66007">
        <ele>429.59997558594</ele>
        <time>2026-09-03T14:28:21.000Z</time>
      </trkpt>
      <trkpt lat="48.21813" lon="6.66009">
        <ele>429.59997558594</ele>
        <time>2026-09-03T14:28:22.000Z</time>
      </trkpt>
      <trkpt lat="48.21812" lon="6.6601">
        <ele>429.59997558594</ele>
        <time>2026-09-03T14:28:23.000Z</time>
      </trkpt>
      <trkpt lat="48.21811" lon="6.66011">
        <ele>429.59997558594</ele>
        <time>2026-09-03T14:28:24.000Z</time>
      </trkpt>
      <trkpt lat="48.2181" lon="6.66012">
        <ele>429.79998779297</ele>
        <time>2026-09-03T14:28:25.000Z</time>
      </trkpt>
      <trkpt lat="48.21809" lon="6.66013">
        <ele>429.79998779297</ele>
        <time>2026-09-03T14:28:26.000Z</time>
      </trkpt>
      <trkpt lat="48.21808" lon="6.66014">
        <ele>430</ele>
        <time>2026-09-03T14:28:27.000Z</time>
      </trkpt>
      <trkpt lat="48.21807" lon="6.66015">
        <ele>430</ele>
        <time>2026-09-03T14:28:28.000Z</time>
      </trkpt>
      <trkpt lat="48.21806" lon="6.66017">
        <ele>430.20001220703</ele>
        <time>2026-09-03T14:28:29.000Z</time>
      </trkpt>
      <trkpt lat="48.21805" lon="6.66018">
        <ele>430.20001220703</ele>
        <time>2026-09-03T14:28:30.000Z</time>
      </trkpt>
      <trkpt lat="48.21805" lon="6.6602">
        <ele>430.20001220703</ele>
        <time>2026-09-03T14:28:31.000Z</time>
      </trkpt>
      <trkpt lat="48.21804" lon="6.6602">
        <ele>430.20001220703</ele>
        <time>2026-09-03T14:28:32.000Z</time>
      </trkpt>
      <trkpt lat="48.21803" lon="6.66021">
        <ele>430.40002441406</ele>
        <time>2026-09-03T14:28:33.000Z</time>
      </trkpt>
      <trkpt lat="48.21803" lon="6.66022">
        <ele>430.40002441406</ele>
        <time>2026-09-03T14:28:34.000Z</time>
      </trkpt>
      <trkpt lat="48.21802" lon="6.66023">
        <ele>430.59997558594</ele>
        <time>2026-09-03T14:28:35.000Z</time>
      </trkpt>
      <trkpt lat="48.21801" lon="6.66024">
        <ele>430.59997558594</ele>
        <time>2026-09-03T14:28:36.000Z</time>
      </trkpt>
      <trkpt lat="48.21801" lon="6.66025">
        <ele>430.79998779297</ele>
        <time>2026-09-03T14:28:37.000Z</time>
      </trkpt>
      <trkpt lat="48.218" lon="6.66026">
        <ele>431</ele>
        <time>2026-09-03T14:28:38.000Z</time>
      </trkpt>
      <trkpt lat="48.21799" lon="6.66027">
        <ele>431</ele>
        <time>2026-09-03T14:28:39.000Z</time>
      </trkpt>
      <trkpt lat="48.21799" lon="6.66028">
        <ele>431.20001220703</ele>
        <time>2026-09-03T14:28:40.000Z</time>
      </trkpt>
      <trkpt lat="48.21798" lon="6.66029">
        <ele>431.20001220703</ele>
        <time>2026-09-03T14:28:41.000Z</time>
      </trkpt>
      <trkpt lat="48.21798" lon="6.6603">
        <ele>431.40002441406</ele>
        <time>2026-09-03T14:28:42.000Z</time>
      </trkpt>
      <trkpt lat="48.21797" lon="6.66031">
        <ele>431.40002441406</ele>
        <time>2026-09-03T14:28:43.000Z</time>
      </trkpt>
      <trkpt lat="48.21796" lon="6.66032">
        <ele>431.40002441406</ele>
        <time>2026-09-03T14:28:44.000Z</time>
      </trkpt>
      <trkpt lat="48.21796" lon="6.66033">
        <ele>431.59997558594</ele>
        <time>2026-09-03T14:28:45.000Z</time>
      </trkpt>
      <trkpt lat="48.21794" lon="6.66034">
        <ele>431.59997558594</ele>
        <time>2026-09-03T14:28:46.000Z</time>
      </trkpt>
      <trkpt lat="48.21794" lon="6.66035">
        <ele>431.79998779297</ele>
        <time>2026-09-03T14:28:47.000Z</time>
      </trkpt>
      <trkpt lat="48.21793" lon="6.66036">
        <ele>431.79998779297</ele>
        <time>2026-09-03T14:28:48.000Z</time>
      </trkpt>
      <trkpt lat="48.21793" lon="6.66037">
        <ele>432</ele>
        <time>2026-09-03T14:28:49.000Z</time>
      </trkpt>
      <trkpt lat="48.21792" lon="6.66037">
        <ele>432.20001220703</ele>
        <time>2026-09-03T14:28:50.000Z</time>
      </trkpt>
      <trkpt lat="48.21792" lon="6.66039">
        <ele>432.20001220703</ele>
        <time>2026-09-03T14:28:51.000Z</time>
      </trkpt>
      <trkpt lat="48.21791" lon="6.6604">
        <ele>432.40002441406</ele>
        <time>2026-09-03T14:28:52.000Z</time>
      </trkpt>
      <trkpt lat="48.21791" lon="6.66041">
        <ele>432.59997558594</ele>
        <time>2026-09-03T14:28:53.000Z</time>
      </trkpt>
      <trkpt lat="48.2179" lon="6.66042">
        <ele>432.79998779297</ele>
        <time>2026-09-03T14:28:54.000Z</time>
      </trkpt>
      <trkpt lat="48.21789" lon="6.66043">
        <ele>432.79998779297</ele>
        <time>2026-09-03T14:28:55.000Z</time>
      </trkpt>
      <trkpt lat="48.21789" lon="6.66044">
        <ele>433</ele>
        <time>2026-09-03T14:28:56.000Z</time>
      </trkpt>
      <trkpt lat="48.21789" lon="6.66042">
        <ele>433</ele>
        <time>2026-09-03T14:28:57.000Z</time>
      </trkpt>
      <trkpt lat="48.21789" lon="6.66042">
        <ele>432.79998779297</ele>
        <time>2026-09-03T14:28:58.000Z</time>
      </trkpt>
      <trkpt lat="48.21788" lon="6.66042">
        <ele>432.79998779297</ele>
        <time>2026-09-03T14:28:59.000Z</time>
      </trkpt>
      <trkpt lat="48.21787" lon="6.66044">
        <ele>432.79998779297</ele>
        <time>2026-09-03T14:29:00.000Z</time>
      </trkpt>
      <trkpt lat="48.21786" lon="6.66045">
        <ele>432.59997558594</ele>
        <time>2026-09-03T14:29:01.000Z</time>
      </trkpt>
      <trkpt lat="48.21785" lon="6.66046">
        <ele>432.79998779297</ele>
        <time>2026-09-03T14:29:02.000Z</time>
      </trkpt>
      <trkpt lat="48.21785" lon="6.66047">
        <ele>433</ele>
        <time>2026-09-03T14:29:03.000Z</time>
      </trkpt>
      <trkpt lat="48.21784" lon="6.66048">
        <ele>433.20001220703</ele>
        <time>2026-09-03T14:29:04.000Z</time>
      </trkpt>
      <trkpt lat="48.21783" lon="6.6605">
        <ele>433.40002441406</ele>
        <time>2026-09-03T14:29:05.000Z</time>
      </trkpt>
      <trkpt lat="48.21782" lon="6.66051">
        <ele>433.59997558594</ele>
        <time>2026-09-03T14:29:06.000Z</time>
      </trkpt>
      <trkpt lat="48.2178" lon="6.66052">
        <ele>433.79998779297</ele>
        <time>2026-09-03T14:29:07.000Z</time>
      </trkpt>
      <trkpt lat="48.21779" lon="6.66054">
        <ele>434</ele>
        <time>2026-09-03T14:29:08.000Z</time>
      </trkpt>
      <trkpt lat="48.21777" lon="6.66055">
        <ele>434.20001220703</ele>
        <time>2026-09-03T14:29:09.000Z</time>
      </trkpt>
      <trkpt lat="48.21776" lon="6.66056">
        <ele>434.20001220703</ele>
        <time>2026-09-03T14:29:10.000Z</time>
      </trkpt>
      <trkpt lat="48.21775" lon="6.66056">
        <ele>434.40002441406</ele>
        <time>2026-09-03T14:29:11.000Z</time>
      </trkpt>
      <trkpt lat="48.21773" lon="6.66057">
        <ele>434.40002441406</ele>
        <time>2026-09-03T14:29:12.000Z</time>
      </trkpt>
      <trkpt lat="48.21772" lon="6.66057">
        <ele>434.59997558594</ele>
        <time>2026-09-03T14:29:13.000Z</time>
      </trkpt>
      <trkpt lat="48.21771" lon="6.66059">
        <ele>434.59997558594</ele>
        <time>2026-09-03T14:29:14.000Z</time>
      </trkpt>
      <trkpt lat="48.2177" lon="6.66059">
        <ele>434.79998779297</ele>
        <time>2026-09-03T14:29:15.000Z</time>
      </trkpt>
      <trkpt lat="48.21768" lon="6.66059">
        <ele>434.79998779297</ele>
        <time>2026-09-03T14:29:16.000Z</time>
      </trkpt>
      <trkpt lat="48.21767" lon="6.66059">
        <ele>435</ele>
        <time>2026-09-03T14:29:17.000Z</time>
      </trkpt>
      <trkpt lat="48.21765" lon="6.66058">
        <ele>435</ele>
        <time>2026-09-03T14:29:18.000Z</time>
      </trkpt>
      <trkpt lat="48.21764" lon="6.66058">
        <ele>435.20001220703</ele>
        <time>2026-09-03T14:29:19.000Z</time>
      </trkpt>
      <trkpt lat="48.21763" lon="6.66058">
        <ele>435.40002441406</ele>
        <time>2026-09-03T14:29:20.000Z</time>
      </trkpt>
      <trkpt lat="48.21762" lon="6.66057">
        <ele>435.40002441406</ele>
        <time>2026-09-03T14:29:21.000Z</time>
      </trkpt>
      <trkpt lat="48.21761" lon="6.66057">
        <ele>435.59997558594</ele>
        <time>2026-09-03T14:29:22.000Z</time>
      </trkpt>
      <trkpt lat="48.21759" lon="6.66056">
        <ele>435.59997558594</ele>
        <time>2026-09-03T14:29:23.000Z</time>
      </trkpt>
      <trkpt lat="48.21758" lon="6.66057">
        <ele>435.79998779297</ele>
        <time>2026-09-03T14:29:24.000Z</time>
      </trkpt>
      <trkpt lat="48.21757" lon="6.66057">
        <ele>435.79998779297</ele>
        <time>2026-09-03T14:29:25.000Z</time>
      </trkpt>
      <trkpt lat="48.21756" lon="6.66056">
        <ele>436</ele>
        <time>2026-09-03T14:29:26.000Z</time>
      </trkpt>
      <trkpt lat="48.21755" lon="6.66055">
        <ele>436.20001220703</ele>
        <time>2026-09-03T14:29:27.000Z</time>
      </trkpt>
      <trkpt lat="48.21754" lon="6.66055">
        <ele>436.20001220703</ele>
        <time>2026-09-03T14:29:28.000Z</time>
      </trkpt>
      <trkpt lat="48.21753" lon="6.66056">
        <ele>436.40002441406</ele>
        <time>2026-09-03T14:29:29.000Z</time>
      </trkpt>
      <trkpt lat="48.21752" lon="6.66056">
        <ele>436.59997558594</ele>
        <time>2026-09-03T14:29:30.000Z</time>
      </trkpt>
      <trkpt lat="48.2175" lon="6.66056">
        <ele>436.59997558594</ele>
        <time>2026-09-03T14:29:31.000Z</time>
      </trkpt>
      <trkpt lat="48.21749" lon="6.66056">
        <ele>436.59997558594</ele>
        <time>2026-09-03T14:29:32.000Z</time>
      </trkpt>
      <trkpt lat="48.21748" lon="6.66057">
        <ele>436.79998779297</ele>
        <time>2026-09-03T14:29:33.000Z</time>
      </trkpt>
      <trkpt lat="48.21747" lon="6.66057">
        <ele>436.79998779297</ele>
        <time>2026-09-03T14:29:34.000Z</time>
      </trkpt>
      <trkpt lat="48.21745" lon="6.66058">
        <ele>437</ele>
        <time>2026-09-03T14:29:35.000Z</time>
      </trkpt>
      <trkpt lat="48.21745" lon="6.66058">
        <ele>437</ele>
        <time>2026-09-03T14:29:36.000Z</time>
      </trkpt>
      <trkpt lat="48.21744" lon="6.66058">
        <ele>437</ele>
        <time>2026-09-03T14:29:37.000Z</time>
      </trkpt>
      <trkpt lat="48.21743" lon="6.66059">
        <ele>437</ele>
        <time>2026-09-03T14:29:38.000Z</time>
      </trkpt>
      <trkpt lat="48.21742" lon="6.66059">
        <ele>437.20001220703</ele>
        <time>2026-09-03T14:29:39.000Z</time>
      </trkpt>
      <trkpt lat="48.21741" lon="6.6606">
        <ele>437.20001220703</ele>
        <time>2026-09-03T14:29:40.000Z</time>
      </trkpt>
      <trkpt lat="48.2174" lon="6.6606">
        <ele>437.40002441406</ele>
        <time>2026-09-03T14:29:41.000Z</time>
      </trkpt>
      <trkpt lat="48.21739" lon="6.6606">
        <ele>437.40002441406</ele>
        <time>2026-09-03T14:29:42.000Z</time>
      </trkpt>
      <trkpt lat="48.21738" lon="6.6606">
        <ele>437.59997558594</ele>
        <time>2026-09-03T14:29:43.000Z</time>
      </trkpt>
      <trkpt lat="48.21738" lon="6.6606">
        <ele>437.59997558594</ele>
        <time>2026-09-03T14:29:44.000Z</time>
      </trkpt>
      <trkpt lat="48.21737" lon="6.66061">
        <ele>437.79998779297</ele>
        <time>2026-09-03T14:29:45.000Z</time>
      </trkpt>
      <trkpt lat="48.21736" lon="6.66061">
        <ele>437.79998779297</ele>
        <time>2026-09-03T14:29:46.000Z</time>
      </trkpt>
      <trkpt lat="48.21735" lon="6.66061">
        <ele>437.79998779297</ele>
        <time>2026-09-03T14:29:47.000Z</time>
      </trkpt>
      <trkpt lat="48.21733" lon="6.66062">
        <ele>438</ele>
        <time>2026-09-03T14:29:48.000Z</time>
      </trkpt>
      <trkpt lat="48.21732" lon="6.66062">
        <ele>438</ele>
        <time>2026-09-03T14:29:49.000Z</time>
      </trkpt>
      <trkpt lat="48.21731" lon="6.66062">
        <ele>438</ele>
        <time>2026-09-03T14:29:50.000Z</time>
      </trkpt>
      <trkpt lat="48.2173" lon="6.66061">
        <ele>438</ele>
        <time>2026-09-03T14:29:51.000Z</time>
      </trkpt>
      <trkpt lat="48.2173" lon="6.66062">
        <ele>438</ele>
        <time>2026-09-03T14:29:52.000Z</time>
      </trkpt>
      <trkpt lat="48.21728" lon="6.66062">
        <ele>438.20001220703</ele>
        <time>2026-09-03T14:29:53.000Z</time>
      </trkpt>
      <trkpt lat="48.21727" lon="6.66063">
        <ele>438.40002441406</ele>
        <time>2026-09-03T14:29:54.000Z</time>
      </trkpt>
      <trkpt lat="48.21726" lon="6.66064">
        <ele>438.40002441406</ele>
        <time>2026-09-03T14:29:55.000Z</time>
      </trkpt>
      <trkpt lat="48.21725" lon="6.66064">
        <ele>438.59997558594</ele>
        <time>2026-09-03T14:29:56.000Z</time>
      </trkpt>
      <trkpt lat="48.21723" lon="6.66064">
        <ele>438.59997558594</ele>
        <time>2026-09-03T14:29:57.000Z</time>
      </trkpt>
      <trkpt lat="48.21722" lon="6.66064">
        <ele>438.59997558594</ele>
        <time>2026-09-03T14:29:58.000Z</time>
      </trkpt>
      <trkpt lat="48.2172" lon="6.66064">
        <ele>438.59997558594</ele>
        <time>2026-09-03T14:29:59.000Z</time>
      </trkpt>
      <trkpt lat="48.21719" lon="6.66064">
        <ele>438.59997558594</ele>
        <time>2026-09-03T14:30:00.000Z</time>
      </trkpt>
      <trkpt lat="48.21718" lon="6.66065">
        <ele>438.59997558594</ele>
        <time>2026-09-03T14:30:01.000Z</time>
      </trkpt>
      <trkpt lat="48.21717" lon="6.66064">
        <ele>438.59997558594</ele>
        <time>2026-09-03T14:30:02.000Z</time>
      </trkpt>
      <trkpt lat="48.21716" lon="6.66064">
        <ele>438.59997558594</ele>
        <time>2026-09-03T14:30:03.000Z</time>
      </trkpt>
      <trkpt lat="48.21714" lon="6.66065">
        <ele>438.79998779297</ele>
        <time>2026-09-03T14:30:04.000Z</time>
      </trkpt>
      <trkpt lat="48.21713" lon="6.66065">
        <ele>438.79998779297</ele>
        <time>2026-09-03T14:30:05.000Z</time>
      </trkpt>
      <trkpt lat="48.21711" lon="6.66065">
        <ele>438.79998779297</ele>
        <time>2026-09-03T14:30:06.000Z</time>
      </trkpt>
      <trkpt lat="48.2171" lon="6.66065">
        <ele>439</ele>
        <time>2026-09-03T14:30:07.000Z</time>
      </trkpt>
      <trkpt lat="48.21709" lon="6.66065">
        <ele>439</ele>
        <time>2026-09-03T14:30:08.000Z</time>
      </trkpt>
      <trkpt lat="48.21708" lon="6.66064">
        <ele>439</ele>
        <time>2026-09-03T14:30:09.000Z</time>
      </trkpt>
      <trkpt lat="48.21706" lon="6.66064">
        <ele>439</ele>
        <time>2026-09-03T14:30:10.000Z</time>
      </trkpt>
      <trkpt lat="48.21705" lon="6.66064">
        <ele>438.79998779297</ele>
        <time>2026-09-03T14:30:11.000Z</time>
      </trkpt>
      <trkpt lat="48.21704" lon="6.66064">
        <ele>438.79998779297</ele>
        <time>2026-09-03T14:30:12.000Z</time>
      </trkpt>
      <trkpt lat="48.21703" lon="6.66064">
        <ele>438.79998779297</ele>
        <time>2026-09-03T14:30:13.000Z</time>
      </trkpt>
      <trkpt lat="48.21702" lon="6.66064">
        <ele>438.79998779297</ele>
        <time>2026-09-03T14:30:14.000Z</time>
      </trkpt>
      <trkpt lat="48.21701" lon="6.66063">
        <ele>439</ele>
        <time>2026-09-03T14:30:15.000Z</time>
      </trkpt>
      <trkpt lat="48.217" lon="6.66063">
        <ele>439</ele>
        <time>2026-09-03T14:30:16.000Z</time>
      </trkpt>
      <trkpt lat="48.21699" lon="6.66063">
        <ele>439.20001220703</ele>
        <time>2026-09-03T14:30:17.000Z</time>
      </trkpt>
      <trkpt lat="48.21697" lon="6.66062">
        <ele>439.20001220703</ele>
        <time>2026-09-03T14:30:18.000Z</time>
      </trkpt>
      <trkpt lat="48.21696" lon="6.66062">
        <ele>439</ele>
        <time>2026-09-03T14:30:19.000Z</time>
      </trkpt>
      <trkpt lat="48.21695" lon="6.66062">
        <ele>439</ele>
        <time>2026-09-03T14:30:20.000Z</time>
      </trkpt>
      <trkpt lat="48.21694" lon="6.66062">
        <ele>439</ele>
        <time>2026-09-03T14:30:21.000Z</time>
      </trkpt>
      <trkpt lat="48.21693" lon="6.66062">
        <ele>439</ele>
        <time>2026-09-03T14:30:22.000Z</time>
      </trkpt>
      <trkpt lat="48.21691" lon="6.66062">
        <ele>439</ele>
        <time>2026-09-03T14:30:23.000Z</time>
      </trkpt>
      <trkpt lat="48.2169" lon="6.66062">
        <ele>439.20001220703</ele>
        <time>2026-09-03T14:30:24.000Z</time>
      </trkpt>
      <trkpt lat="48.2169" lon="6.66063">
        <ele>439.20001220703</ele>
        <time>2026-09-03T14:30:25.000Z</time>
      </trkpt>
      <trkpt lat="48.21689" lon="6.66063">
        <ele>439.20001220703</ele>
        <time>2026-09-03T14:30:26.000Z</time>
      </trkpt>
      <trkpt lat="48.21687" lon="6.66063">
        <ele>439.20001220703</ele>
        <time>2026-09-03T14:30:27.000Z</time>
      </trkpt>
      <trkpt lat="48.21686" lon="6.66063">
        <ele>439.20001220703</ele>
        <time>2026-09-03T14:30:28.000Z</time>
      </trkpt>
      <trkpt lat="48.21685" lon="6.66063">
        <ele>439.20001220703</ele>
        <time>2026-09-03T14:30:29.000Z</time>
      </trkpt>
      <trkpt lat="48.21684" lon="6.66062">
        <ele>439.20001220703</ele>
        <time>2026-09-03T14:30:30.000Z</time>
      </trkpt>
      <trkpt lat="48.21683" lon="6.66061">
        <ele>439.40002441406</ele>
        <time>2026-09-03T14:30:31.000Z</time>
      </trkpt>
      <trkpt lat="48.21681" lon="6.6606">
        <ele>439.59997558594</ele>
        <time>2026-09-03T14:30:32.000Z</time>
      </trkpt>
      <trkpt lat="48.2168" lon="6.66059">
        <ele>439.59997558594</ele>
        <time>2026-09-03T14:30:33.000Z</time>
      </trkpt>
      <trkpt lat="48.21679" lon="6.66057">
        <ele>439.59997558594</ele>
        <time>2026-09-03T14:30:34.000Z</time>
      </trkpt>
      <trkpt lat="48.21678" lon="6.66057">
        <ele>439.59997558594</ele>
        <time>2026-09-03T14:30:35.000Z</time>
      </trkpt>
      <trkpt lat="48.21678" lon="6.66056">
        <ele>439.59997558594</ele>
        <time>2026-09-03T14:30:36.000Z</time>
      </trkpt>
      <trkpt lat="48.21676" lon="6.66055">
        <ele>439.40002441406</ele>
        <time>2026-09-03T14:30:37.000Z</time>
      </trkpt>
      <trkpt lat="48.21675" lon="6.66054">
        <ele>439.40002441406</ele>
        <time>2026-09-03T14:30:38.000Z</time>
      </trkpt>
      <trkpt lat="48.21674" lon="6.66053">
        <ele>439.20001220703</ele>
        <time>2026-09-03T14:30:39.000Z</time>
      </trkpt>
      <trkpt lat="48.21673" lon="6.66053">
        <ele>439.20001220703</ele>
        <time>2026-09-03T14:30:40.000Z</time>
      </trkpt>
      <trkpt lat="48.21672" lon="6.66052">
        <ele>439.40002441406</ele>
        <time>2026-09-03T14:30:41.000Z</time>
      </trkpt>
      <trkpt lat="48.21671" lon="6.66052">
        <ele>439.40002441406</ele>
        <time>2026-09-03T14:30:42.000Z</time>
      </trkpt>
      <trkpt lat="48.2167" lon="6.66051">
        <ele>439.40002441406</ele>
        <time>2026-09-03T14:30:43.000Z</time>
      </trkpt>
      <trkpt lat="48.21669" lon="6.66051">
        <ele>439.40002441406</ele>
        <time>2026-09-03T14:30:44.000Z</time>
      </trkpt>
      <trkpt lat="48.21668" lon="6.66051">
        <ele>439.40002441406</ele>
        <time>2026-09-03T14:30:45.000Z</time>
      </trkpt>
      <trkpt lat="48.21667" lon="6.66051">
        <ele>439.40002441406</ele>
        <time>2026-09-03T14:30:46.000Z</time>
      </trkpt>
      <trkpt lat="48.21666" lon="6.66051">
        <ele>439.40002441406</ele>
        <time>2026-09-03T14:30:47.000Z</time>
      </trkpt>
      <trkpt lat="48.21665" lon="6.66051">
        <ele>439.59997558594</ele>
        <time>2026-09-03T14:30:48.000Z</time>
      </trkpt>
      <trkpt lat="48.21664" lon="6.6605">
        <ele>439.59997558594</ele>
        <time>2026-09-03T14:30:49.000Z</time>
      </trkpt>
      <trkpt lat="48.21663" lon="6.6605">
        <ele>439.59997558594</ele>
        <time>2026-09-03T14:30:50.000Z</time>
      </trkpt>
      <trkpt lat="48.21662" lon="6.66049">
        <ele>439.59997558594</ele>
        <time>2026-09-03T14:30:51.000Z</time>
      </trkpt>
      <trkpt lat="48.21662" lon="6.66049">
        <ele>439.59997558594</ele>
        <time>2026-09-03T14:30:52.000Z</time>
      </trkpt>
      <trkpt lat="48.21661" lon="6.66049">
        <ele>439.79998779297</ele>
        <time>2026-09-03T14:30:53.000Z</time>
      </trkpt>
      <trkpt lat="48.2166" lon="6.66049">
        <ele>439.79998779297</ele>
        <time>2026-09-03T14:30:54.000Z</time>
      </trkpt>
      <trkpt lat="48.21659" lon="6.66048">
        <ele>440</ele>
        <time>2026-09-03T14:30:55.000Z</time>
      </trkpt>
      <trkpt lat="48.21657" lon="6.66048">
        <ele>440</ele>
        <time>2026-09-03T14:30:56.000Z</time>
      </trkpt>
      <trkpt lat="48.21656" lon="6.66047">
        <ele>440</ele>
        <time>2026-09-03T14:30:57.000Z</time>
      </trkpt>
      <trkpt lat="48.21655" lon="6.66047">
        <ele>440.20001220703</ele>
        <time>2026-09-03T14:30:58.000Z</time>
      </trkpt>
      <trkpt lat="48.21654" lon="6.66046">
        <ele>440.20001220703</ele>
        <time>2026-09-03T14:30:59.000Z</time>
      </trkpt>
      <trkpt lat="48.21653" lon="6.66046">
        <ele>440.40002441406</ele>
        <time>2026-09-03T14:31:00.000Z</time>
      </trkpt>
      <trkpt lat="48.21651" lon="6.66045">
        <ele>440.59997558594</ele>
        <time>2026-09-03T14:31:01.000Z</time>
      </trkpt>
      <trkpt lat="48.2165" lon="6.66044">
        <ele>440.59997558594</ele>
        <time>2026-09-03T14:31:02.000Z</time>
      </trkpt>
      <trkpt lat="48.21648" lon="6.66043">
        <ele>440.59997558594</ele>
        <time>2026-09-03T14:31:03.000Z</time>
      </trkpt>
      <trkpt lat="48.21647" lon="6.66042">
        <ele>440.59997558594</ele>
        <time>2026-09-03T14:31:04.000Z</time>
      </trkpt>
      <trkpt lat="48.21646" lon="6.66042">
        <ele>440.59997558594</ele>
        <time>2026-09-03T14:31:05.000Z</time>
      </trkpt>
      <trkpt lat="48.21645" lon="6.66041">
        <ele>440.59997558594</ele>
        <time>2026-09-03T14:31:06.000Z</time>
      </trkpt>
      <trkpt lat="48.21644" lon="6.66041">
        <ele>440.59997558594</ele>
        <time>2026-09-03T14:31:07.000Z</time>
      </trkpt>
      <trkpt lat="48.21643" lon="6.66041">
        <ele>440.79998779297</ele>
        <time>2026-09-03T14:31:08.000Z</time>
      </trkpt>
      <trkpt lat="48.21642" lon="6.6604">
        <ele>440.79998779297</ele>
        <time>2026-09-03T14:31:09.000Z</time>
      </trkpt>
      <trkpt lat="48.21641" lon="6.6604">
        <ele>441</ele>
        <time>2026-09-03T14:31:10.000Z</time>
      </trkpt>
      <trkpt lat="48.2164" lon="6.6604">
        <ele>441.40002441406</ele>
        <time>2026-09-03T14:31:11.000Z</time>
      </trkpt>
      <trkpt lat="48.21639" lon="6.6604">
        <ele>441.59997558594</ele>
        <time>2026-09-03T14:31:12.000Z</time>
      </trkpt>
      <trkpt lat="48.21639" lon="6.6604">
        <ele>441.59997558594</ele>
        <time>2026-09-03T14:31:13.000Z</time>
      </trkpt>
      <trkpt lat="48.21638" lon="6.66039">
        <ele>441.79998779297</ele>
        <time>2026-09-03T14:31:14.000Z</time>
      </trkpt>
      <trkpt lat="48.21637" lon="6.66039">
        <ele>442</ele>
        <time>2026-09-03T14:31:15.000Z</time>
      </trkpt>
      <trkpt lat="48.21636" lon="6.66039">
        <ele>442</ele>
        <time>2026-09-03T14:31:16.000Z</time>
      </trkpt>
      <trkpt lat="48.21636" lon="6.66038">
        <ele>442</ele>
        <time>2026-09-03T14:31:17.000Z</time>
      </trkpt>
      <trkpt lat="48.21635" lon="6.66038">
        <ele>442.20001220703</ele>
        <time>2026-09-03T14:31:18.000Z</time>
      </trkpt>
      <trkpt lat="48.21634" lon="6.66037">
        <ele>442.20001220703</ele>
        <time>2026-09-03T14:31:19.000Z</time>
      </trkpt>
      <trkpt lat="48.21633" lon="6.66037">
        <ele>442.40002441406</ele>
        <time>2026-09-03T14:31:20.000Z</time>
      </trkpt>
      <trkpt lat="48.21632" lon="6.66037">
        <ele>442.40002441406</ele>
        <time>2026-09-03T14:31:21.000Z</time>
      </trkpt>
      <trkpt lat="48.21632" lon="6.66037">
        <ele>442.40002441406</ele>
        <time>2026-09-03T14:31:22.000Z</time>
      </trkpt>
      <trkpt lat="48.21631" lon="6.66037">
        <ele>442.59997558594</ele>
        <time>2026-09-03T14:31:23.000Z</time>
      </trkpt>
      <trkpt lat="48.2163" lon="6.66036">
        <ele>442.59997558594</ele>
        <time>2026-09-03T14:31:24.000Z</time>
      </trkpt>
      <trkpt lat="48.21629" lon="6.66036">
        <ele>443</ele>
        <time>2026-09-03T14:31:25.000Z</time>
      </trkpt>
      <trkpt lat="48.21629" lon="6.66036">
        <ele>443.20001220703</ele>
        <time>2026-09-03T14:31:26.000Z</time>
      </trkpt>
      <trkpt lat="48.21627" lon="6.66036">
        <ele>443.59997558594</ele>
        <time>2026-09-03T14:31:27.000Z</time>
      </trkpt>
      <trkpt lat="48.21625" lon="6.66035">
        <ele>443.79998779297</ele>
        <time>2026-09-03T14:31:28.000Z</time>
      </trkpt>
      <trkpt lat="48.21625" lon="6.66035">
        <ele>444</ele>
        <time>2026-09-03T14:31:29.000Z</time>
      </trkpt>
      <trkpt lat="48.21623" lon="6.66034">
        <ele>444.20001220703</ele>
        <time>2026-09-03T14:31:30.000Z</time>
      </trkpt>
      <trkpt lat="48.21621" lon="6.66034">
        <ele>444.40002441406</ele>
        <time>2026-09-03T14:31:31.000Z</time>
      </trkpt>
      <trkpt lat="48.21621" lon="6.66033">
        <ele>444.59997558594</ele>
        <time>2026-09-03T14:31:32.000Z</time>
      </trkpt>
      <trkpt lat="48.2162" lon="6.66033">
        <ele>444.79998779297</ele>
        <time>2026-09-03T14:31:33.000Z</time>
      </trkpt>
      <trkpt lat="48.21619" lon="6.66034">
        <ele>444.79998779297</ele>
        <time>2026-09-03T14:31:34.000Z</time>
      </trkpt>
      <trkpt lat="48.21618" lon="6.66034">
        <ele>445</ele>
        <time>2026-09-03T14:31:35.000Z</time>
      </trkpt>
      <trkpt lat="48.21618" lon="6.66033">
        <ele>445.20001220703</ele>
        <time>2026-09-03T14:31:36.000Z</time>
      </trkpt>
      <trkpt lat="48.21617" lon="6.66033">
        <ele>445.20001220703</ele>
        <time>2026-09-03T14:31:37.000Z</time>
      </trkpt>
      <trkpt lat="48.21616" lon="6.66033">
        <ele>445.40002441406</ele>
        <time>2026-09-03T14:31:38.000Z</time>
      </trkpt>
      <trkpt lat="48.21615" lon="6.66032">
        <ele>445.59997558594</ele>
        <time>2026-09-03T14:31:39.000Z</time>
      </trkpt>
      <trkpt lat="48.21614" lon="6.66032">
        <ele>445.59997558594</ele>
        <time>2026-09-03T14:31:40.000Z</time>
      </trkpt>
      <trkpt lat="48.21613" lon="6.66033">
        <ele>445.79998779297</ele>
        <time>2026-09-03T14:31:41.000Z</time>
      </trkpt>
      <trkpt lat="48.21612" lon="6.66033">
        <ele>446</ele>
        <time>2026-09-03T14:31:42.000Z</time>
      </trkpt>
      <trkpt lat="48.2161" lon="6.66034">
        <ele>446.20001220703</ele>
        <time>2026-09-03T14:31:43.000Z</time>
      </trkpt>
      <trkpt lat="48.21609" lon="6.66034">
        <ele>446.40002441406</ele>
        <time>2026-09-03T14:31:44.000Z</time>
      </trkpt>
      <trkpt lat="48.21608" lon="6.66034">
        <ele>446.40002441406</ele>
        <time>2026-09-03T14:31:45.000Z</time>
      </trkpt>
      <trkpt lat="48.21607" lon="6.66034">
        <ele>446.59997558594</ele>
        <time>2026-09-03T14:31:46.000Z</time>
      </trkpt>
      <trkpt lat="48.21606" lon="6.66035">
        <ele>446.79998779297</ele>
        <time>2026-09-03T14:31:47.000Z</time>
      </trkpt>
      <trkpt lat="48.21605" lon="6.66035">
        <ele>446.79998779297</ele>
        <time>2026-09-03T14:31:48.000Z</time>
      </trkpt>
      <trkpt lat="48.21604" lon="6.66035">
        <ele>447</ele>
        <time>2026-09-03T14:31:49.000Z</time>
      </trkpt>
      <trkpt lat="48.21603" lon="6.66035">
        <ele>447.20001220703</ele>
        <time>2026-09-03T14:31:50.000Z</time>
      </trkpt>
      <trkpt lat="48.21602" lon="6.66035">
        <ele>447.20001220703</ele>
        <time>2026-09-03T14:31:51.000Z</time>
      </trkpt>
      <trkpt lat="48.21601" lon="6.66035">
        <ele>447.20001220703</ele>
        <time>2026-09-03T14:31:52.000Z</time>
      </trkpt>
      <trkpt lat="48.21601" lon="6.66035">
        <ele>447.40002441406</ele>
        <time>2026-09-03T14:31:53.000Z</time>
      </trkpt>
      <trkpt lat="48.216" lon="6.66036">
        <ele>447.40002441406</ele>
        <time>2026-09-03T14:31:54.000Z</time>
      </trkpt>
      <trkpt lat="48.216" lon="6.66035">
        <ele>447.59997558594</ele>
        <time>2026-09-03T14:31:55.000Z</time>
      </trkpt>
      <trkpt lat="48.21599" lon="6.66035">
        <ele>447.59997558594</ele>
        <time>2026-09-03T14:31:56.000Z</time>
      </trkpt>
      <trkpt lat="48.21598" lon="6.66035">
        <ele>447.79998779297</ele>
        <time>2026-09-03T14:31:57.000Z</time>
      </trkpt>
      <trkpt lat="48.21597" lon="6.66035">
        <ele>448</ele>
        <time>2026-09-03T14:31:58.000Z</time>
      </trkpt>
      <trkpt lat="48.21596" lon="6.66034">
        <ele>448</ele>
        <time>2026-09-03T14:31:59.000Z</time>
      </trkpt>
      <trkpt lat="48.21595" lon="6.66033">
        <ele>448.20001220703</ele>
        <time>2026-09-03T14:32:00.000Z</time>
      </trkpt>
      <trkpt lat="48.21595" lon="6.66032">
        <ele>448.40002441406</ele>
        <time>2026-09-03T14:32:01.000Z</time>
      </trkpt>
      <trkpt lat="48.21594" lon="6.66032">
        <ele>448.40002441406</ele>
        <time>2026-09-03T14:32:02.000Z</time>
      </trkpt>
      <trkpt lat="48.21595" lon="6.66033">
        <ele>448.40002441406</ele>
        <time>2026-09-03T14:32:03.000Z</time>
      </trkpt>
      <trkpt lat="48.21595" lon="6.66034">
        <ele>448.40002441406</ele>
        <time>2026-09-03T14:32:04.000Z</time>
      </trkpt>
      <trkpt lat="48.21596" lon="6.66034">
        <ele>448.59997558594</ele>
        <time>2026-09-03T14:32:05.000Z</time>
      </trkpt>
      <trkpt lat="48.21596" lon="6.66035">
        <ele>448.59997558594</ele>
        <time>2026-09-03T14:32:06.000Z</time>
      </trkpt>
      <trkpt lat="48.21596" lon="6.66035">
        <ele>448.79998779297</ele>
        <time>2026-09-03T14:32:07.000Z</time>
      </trkpt>
      <trkpt lat="48.21596" lon="6.66034">
        <ele>448.79998779297</ele>
        <time>2026-09-03T14:32:08.000Z</time>
      </trkpt>
      <trkpt lat="48.21595" lon="6.66032">
        <ele>449</ele>
        <time>2026-09-03T14:32:09.000Z</time>
      </trkpt>
      <trkpt lat="48.21595" lon="6.66032">
        <ele>449</ele>
        <time>2026-09-03T14:32:10.000Z</time>
      </trkpt>
      <trkpt lat="48.21595" lon="6.66032">
        <ele>449</ele>
        <time>2026-09-03T14:32:11.000Z</time>
      </trkpt>
      <trkpt lat="48.21595" lon="6.66032">
        <ele>449</ele>
        <time>2026-09-03T14:32:12.000Z</time>
      </trkpt>
      <trkpt lat="48.21595" lon="6.66032">
        <ele>449</ele>
        <time>2026-09-03T14:32:13.000Z</time>
      </trkpt>
      <trkpt lat="48.21595" lon="6.66032">
        <ele>448.79998779297</ele>
        <time>2026-09-03T14:32:14.000Z</time>
      </trkpt>
      <trkpt lat="48.21595" lon="6.66032">
        <ele>448.79998779297</ele>
        <time>2026-09-03T14:32:15.000Z</time>
      </trkpt>
      <trkpt lat="48.21594" lon="6.66032">
        <ele>448.79998779297</ele>
        <time>2026-09-03T14:32:16.000Z</time>
      </trkpt>
      <trkpt lat="48.21594" lon="6.66033">
        <ele>448.59997558594</ele>
        <time>2026-09-03T14:32:17.000Z</time>
      </trkpt>
      <trkpt lat="48.21594" lon="6.66033">
        <ele>448.59997558594</ele>
        <time>2026-09-03T14:32:18.000Z</time>
      </trkpt>
      <trkpt lat="48.21593" lon="6.66033">
        <ele>448.79998779297</ele>
        <time>2026-09-03T14:32:19.000Z</time>
      </trkpt>
      <trkpt lat="48.21591" lon="6.66034">
        <ele>448.79998779297</ele>
        <time>2026-09-03T14:32:20.000Z</time>
      </trkpt>
      <trkpt lat="48.2159" lon="6.66034">
        <ele>448.79998779297</ele>
        <time>2026-09-03T14:32:21.000Z</time>
      </trkpt>
      <trkpt lat="48.21588" lon="6.66033">
        <ele>449</ele>
        <time>2026-09-03T14:32:22.000Z</time>
      </trkpt>
      <trkpt lat="48.21587" lon="6.66033">
        <ele>449</ele>
        <time>2026-09-03T14:32:23.000Z</time>
      </trkpt>
      <trkpt lat="48.21585" lon="6.66032">
        <ele>449</ele>
        <time>2026-09-03T14:32:24.000Z</time>
      </trkpt>
      <trkpt lat="48.21584" lon="6.66033">
        <ele>449.20001220703</ele>
        <time>2026-09-03T14:32:25.000Z</time>
      </trkpt>
      <trkpt lat="48.21583" lon="6.66033">
        <ele>449.20001220703</ele>
        <time>2026-09-03T14:32:26.000Z</time>
      </trkpt>
      <trkpt lat="48.21582" lon="6.66033">
        <ele>449.20001220703</ele>
        <time>2026-09-03T14:32:27.000Z</time>
      </trkpt>
      <trkpt lat="48.2158" lon="6.66032">
        <ele>449.40002441406</ele>
        <time>2026-09-03T14:32:28.000Z</time>
      </trkpt>
      <trkpt lat="48.2158" lon="6.66032">
        <ele>449.59997558594</ele>
        <time>2026-09-03T14:32:29.000Z</time>
      </trkpt>
      <trkpt lat="48.21579" lon="6.66031">
        <ele>449.59997558594</ele>
        <time>2026-09-03T14:32:30.000Z</time>
      </trkpt>
      <trkpt lat="48.21577" lon="6.66031">
        <ele>449.79998779297</ele>
        <time>2026-09-03T14:32:31.000Z</time>
      </trkpt>
      <trkpt lat="48.21576" lon="6.66031">
        <ele>449.79998779297</ele>
        <time>2026-09-03T14:32:32.000Z</time>
      </trkpt>
      <trkpt lat="48.21575" lon="6.66031">
        <ele>450</ele>
        <time>2026-09-03T14:32:33.000Z</time>
      </trkpt>
      <trkpt lat="48.21574" lon="6.66031">
        <ele>450</ele>
        <time>2026-09-03T14:32:34.000Z</time>
      </trkpt>
      <trkpt lat="48.21573" lon="6.66031">
        <ele>450.20001220703</ele>
        <time>2026-09-03T14:32:35.000Z</time>
      </trkpt>
      <trkpt lat="48.21572" lon="6.66031">
        <ele>450.20001220703</ele>
        <time>2026-09-03T14:32:36.000Z</time>
      </trkpt>
      <trkpt lat="48.21571" lon="6.66031">
        <ele>450.20001220703</ele>
        <time>2026-09-03T14:32:37.000Z</time>
      </trkpt>
      <trkpt lat="48.2157" lon="6.66031">
        <ele>450.40002441406</ele>
        <time>2026-09-03T14:32:38.000Z</time>
      </trkpt>
      <trkpt lat="48.2157" lon="6.66031">
        <ele>450.40002441406</ele>
        <time>2026-09-03T14:32:39.000Z</time>
      </trkpt>
      <trkpt lat="48.21569" lon="6.66032">
        <ele>450.40002441406</ele>
        <time>2026-09-03T14:32:40.000Z</time>
      </trkpt>
      <trkpt lat="48.21567" lon="6.66032">
        <ele>450.40002441406</ele>
        <time>2026-09-03T14:32:41.000Z</time>
      </trkpt>
      <trkpt lat="48.21567" lon="6.66033">
        <ele>450.59997558594</ele>
        <time>2026-09-03T14:32:42.000Z</time>
      </trkpt>
      <trkpt lat="48.21566" lon="6.66033">
        <ele>450.59997558594</ele>
        <time>2026-09-03T14:32:43.000Z</time>
      </trkpt>
      <trkpt lat="48.21565" lon="6.66033">
        <ele>450.59997558594</ele>
        <time>2026-09-03T14:32:44.000Z</time>
      </trkpt>
      <trkpt lat="48.21564" lon="6.66033">
        <ele>450.79998779297</ele>
        <time>2026-09-03T14:32:45.000Z</time>
      </trkpt>
      <trkpt lat="48.21563" lon="6.66034">
        <ele>450.79998779297</ele>
        <time>2026-09-03T14:32:46.000Z</time>
      </trkpt>
      <trkpt lat="48.21562" lon="6.66034">
        <ele>451</ele>
        <time>2026-09-03T14:32:47.000Z</time>
      </trkpt>
      <trkpt lat="48.21561" lon="6.66034">
        <ele>451.20001220703</ele>
        <time>2026-09-03T14:32:48.000Z</time>
      </trkpt>
      <trkpt lat="48.2156" lon="6.66035">
        <ele>451.20001220703</ele>
        <time>2026-09-03T14:32:49.000Z</time>
      </trkpt>
      <trkpt lat="48.21559" lon="6.66035">
        <ele>451.20001220703</ele>
        <time>2026-09-03T14:32:50.000Z</time>
      </trkpt>
      <trkpt lat="48.21558" lon="6.66035">
        <ele>451.20001220703</ele>
        <time>2026-09-03T14:32:51.000Z</time>
      </trkpt>
      <trkpt lat="48.21557" lon="6.66035">
        <ele>451.20001220703</ele>
        <time>2026-09-03T14:32:52.000Z</time>
      </trkpt>
      <trkpt lat="48.21555" lon="6.66035">
        <ele>451.40002441406</ele>
        <time>2026-09-03T14:32:53.000Z</time>
      </trkpt>
      <trkpt lat="48.21554" lon="6.66035">
        <ele>451.40002441406</ele>
        <time>2026-09-03T14:32:54.000Z</time>
      </trkpt>
      <trkpt lat="48.21552" lon="6.66035">
        <ele>451.40002441406</ele>
        <time>2026-09-03T14:32:55.000Z</time>
      </trkpt>
      <trkpt lat="48.21551" lon="6.66035">
        <ele>451.59997558594</ele>
        <time>2026-09-03T14:32:56.000Z</time>
      </trkpt>
      <trkpt lat="48.2155" lon="6.66034">
        <ele>451.59997558594</ele>
        <time>2026-09-03T14:32:57.000Z</time>
      </trkpt>
      <trkpt lat="48.21549" lon="6.66035">
        <ele>451.79998779297</ele>
        <time>2026-09-03T14:32:58.000Z</time>
      </trkpt>
      <trkpt lat="48.21547" lon="6.66034">
        <ele>451.79998779297</ele>
        <time>2026-09-03T14:32:59.000Z</time>
      </trkpt>
      <trkpt lat="48.21546" lon="6.66034">
        <ele>452</ele>
        <time>2026-09-03T14:33:00.000Z</time>
      </trkpt>
      <trkpt lat="48.21545" lon="6.66035">
        <ele>452</ele>
        <time>2026-09-03T14:33:01.000Z</time>
      </trkpt>
      <trkpt lat="48.21545" lon="6.66034">
        <ele>452.20001220703</ele>
        <time>2026-09-03T14:33:02.000Z</time>
      </trkpt>
      <trkpt lat="48.21544" lon="6.66034">
        <ele>452.20001220703</ele>
        <time>2026-09-03T14:33:03.000Z</time>
      </trkpt>
      <trkpt lat="48.21543" lon="6.66034">
        <ele>452.40002441406</ele>
        <time>2026-09-03T14:33:04.000Z</time>
      </trkpt>
      <trkpt lat="48.21542" lon="6.66034">
        <ele>452.40002441406</ele>
        <time>2026-09-03T14:33:05.000Z</time>
      </trkpt>
      <trkpt lat="48.2154" lon="6.66034">
        <ele>452.59997558594</ele>
        <time>2026-09-03T14:33:06.000Z</time>
      </trkpt>
      <trkpt lat="48.2154" lon="6.66033">
        <ele>452.59997558594</ele>
        <time>2026-09-03T14:33:07.000Z</time>
      </trkpt>
      <trkpt lat="48.21539" lon="6.66033">
        <ele>452.79998779297</ele>
        <time>2026-09-03T14:33:08.000Z</time>
      </trkpt>
      <trkpt lat="48.21538" lon="6.66033">
        <ele>452.79998779297</ele>
        <time>2026-09-03T14:33:09.000Z</time>
      </trkpt>
      <trkpt lat="48.21537" lon="6.66033">
        <ele>453</ele>
        <time>2026-09-03T14:33:10.000Z</time>
      </trkpt>
      <trkpt lat="48.21536" lon="6.66033">
        <ele>453</ele>
        <time>2026-09-03T14:33:11.000Z</time>
      </trkpt>
      <trkpt lat="48.21535" lon="6.66033">
        <ele>453</ele>
        <time>2026-09-03T14:33:12.000Z</time>
      </trkpt>
      <trkpt lat="48.21534" lon="6.66033">
        <ele>453</ele>
        <time>2026-09-03T14:33:13.000Z</time>
      </trkpt>
      <trkpt lat="48.21533" lon="6.66033">
        <ele>453</ele>
        <time>2026-09-03T14:33:14.000Z</time>
      </trkpt>
      <trkpt lat="48.21532" lon="6.66033">
        <ele>453</ele>
        <time>2026-09-03T14:33:15.000Z</time>
      </trkpt>
      <trkpt lat="48.21531" lon="6.66033">
        <ele>453</ele>
        <time>2026-09-03T14:33:16.000Z</time>
      </trkpt>
      <trkpt lat="48.2153" lon="6.66033">
        <ele>453.20001220703</ele>
        <time>2026-09-03T14:33:17.000Z</time>
      </trkpt>
      <trkpt lat="48.21528" lon="6.66033">
        <ele>453.20001220703</ele>
        <time>2026-09-03T14:33:18.000Z</time>
      </trkpt>
      <trkpt lat="48.21527" lon="6.66033">
        <ele>453.40002441406</ele>
        <time>2026-09-03T14:33:19.000Z</time>
      </trkpt>
      <trkpt lat="48.21526" lon="6.66033">
        <ele>453.40002441406</ele>
        <time>2026-09-03T14:33:20.000Z</time>
      </trkpt>
      <trkpt lat="48.21525" lon="6.66032">
        <ele>453.59997558594</ele>
        <time>2026-09-03T14:33:21.000Z</time>
      </trkpt>
      <trkpt lat="48.21523" lon="6.66032">
        <ele>453.59997558594</ele>
        <time>2026-09-03T14:33:22.000Z</time>
      </trkpt>
      <trkpt lat="48.21522" lon="6.66032">
        <ele>453.79998779297</ele>
        <time>2026-09-03T14:33:23.000Z</time>
      </trkpt>
      <trkpt lat="48.21521" lon="6.66032">
        <ele>453.79998779297</ele>
        <time>2026-09-03T14:33:24.000Z</time>
      </trkpt>
      <trkpt lat="48.2152" lon="6.66032">
        <ele>453.79998779297</ele>
        <time>2026-09-03T14:33:25.000Z</time>
      </trkpt>
      <trkpt lat="48.21518" lon="6.66032">
        <ele>454</ele>
        <time>2026-09-03T14:33:26.000Z</time>
      </trkpt>
      <trkpt lat="48.21517" lon="6.66032">
        <ele>454</ele>
        <time>2026-09-03T14:33:27.000Z</time>
      </trkpt>
      <trkpt lat="48.21516" lon="6.66031">
        <ele>454</ele>
        <time>2026-09-03T14:33:28.000Z</time>
      </trkpt>
      <trkpt lat="48.21516" lon="6.66031">
        <ele>454.20001220703</ele>
        <time>2026-09-03T14:33:29.000Z</time>
      </trkpt>
      <trkpt lat="48.21514" lon="6.66031">
        <ele>454.20001220703</ele>
        <time>2026-09-03T14:33:30.000Z</time>
      </trkpt>
      <trkpt lat="48.21513" lon="6.6603">
        <ele>454.40002441406</ele>
        <time>2026-09-03T14:33:31.000Z</time>
      </trkpt>
      <trkpt lat="48.21512" lon="6.66029">
        <ele>454.59997558594</ele>
        <time>2026-09-03T14:33:32.000Z</time>
      </trkpt>
      <trkpt lat="48.21511" lon="6.66029">
        <ele>454.79998779297</ele>
        <time>2026-09-03T14:33:33.000Z</time>
      </trkpt>
      <trkpt lat="48.2151" lon="6.66028">
        <ele>454.79998779297</ele>
        <time>2026-09-03T14:33:34.000Z</time>
      </trkpt>
      <trkpt lat="48.21508" lon="6.66028">
        <ele>455</ele>
        <time>2026-09-03T14:33:35.000Z</time>
      </trkpt>
      <trkpt lat="48.21507" lon="6.66028">
        <ele>455.20001220703</ele>
        <time>2026-09-03T14:33:36.000Z</time>
      </trkpt>
      <trkpt lat="48.21506" lon="6.66028">
        <ele>455.20001220703</ele>
        <time>2026-09-03T14:33:37.000Z</time>
      </trkpt>
      <trkpt lat="48.21505" lon="6.66028">
        <ele>455.40002441406</ele>
        <time>2026-09-03T14:33:38.000Z</time>
      </trkpt>
      <trkpt lat="48.21504" lon="6.66027">
        <ele>455.40002441406</ele>
        <time>2026-09-03T14:33:39.000Z</time>
      </trkpt>
      <trkpt lat="48.21502" lon="6.66027">
        <ele>455.40002441406</ele>
        <time>2026-09-03T14:33:40.000Z</time>
      </trkpt>
      <trkpt lat="48.21501" lon="6.66027">
        <ele>455.59997558594</ele>
        <time>2026-09-03T14:33:41.000Z</time>
      </trkpt>
      <trkpt lat="48.215" lon="6.66027">
        <ele>455.40002441406</ele>
        <time>2026-09-03T14:33:42.000Z</time>
      </trkpt>
      <trkpt lat="48.215" lon="6.66026">
        <ele>455.40002441406</ele>
        <time>2026-09-03T14:33:43.000Z</time>
      </trkpt>
      <trkpt lat="48.21499" lon="6.66026">
        <ele>455.59997558594</ele>
        <time>2026-09-03T14:33:44.000Z</time>
      </trkpt>
      <trkpt lat="48.21498" lon="6.66027">
        <ele>455.59997558594</ele>
        <time>2026-09-03T14:33:45.000Z</time>
      </trkpt>
      <trkpt lat="48.21497" lon="6.66027">
        <ele>455.59997558594</ele>
        <time>2026-09-03T14:33:46.000Z</time>
      </trkpt>
      <trkpt lat="48.21497" lon="6.66026">
        <ele>455.79998779297</ele>
        <time>2026-09-03T14:33:47.000Z</time>
      </trkpt>
      <trkpt lat="48.21495" lon="6.66025">
        <ele>455.79998779297</ele>
        <time>2026-09-03T14:33:48.000Z</time>
      </trkpt>
      <trkpt lat="48.21495" lon="6.66025">
        <ele>455.79998779297</ele>
        <time>2026-09-03T14:33:49.000Z</time>
      </trkpt>
      <trkpt lat="48.21494" lon="6.66025">
        <ele>455.79998779297</ele>
        <time>2026-09-03T14:33:50.000Z</time>
      </trkpt>
      <trkpt lat="48.21494" lon="6.66025">
        <ele>455.79998779297</ele>
        <time>2026-09-03T14:33:51.000Z</time>
      </trkpt>
      <trkpt lat="48.21493" lon="6.66026">
        <ele>455.79998779297</ele>
        <time>2026-09-03T14:33:52.000Z</time>
      </trkpt>
      <trkpt lat="48.21493" lon="6.66026">
        <ele>455.79998779297</ele>
        <time>2026-09-03T14:33:53.000Z</time>
      </trkpt>
      <trkpt lat="48.21491" lon="6.66026">
        <ele>456</ele>
        <time>2026-09-03T14:33:54.000Z</time>
      </trkpt>
      <trkpt lat="48.2149" lon="6.66027">
        <ele>456</ele>
        <time>2026-09-03T14:33:55.000Z</time>
      </trkpt>
      <trkpt lat="48.21489" lon="6.66027">
        <ele>456.20001220703</ele>
        <time>2026-09-03T14:33:56.000Z</time>
      </trkpt>
      <trkpt lat="48.21488" lon="6.66027">
        <ele>456.20001220703</ele>
        <time>2026-09-03T14:33:57.000Z</time>
      </trkpt>
      <trkpt lat="48.21487" lon="6.66028">
        <ele>456.20001220703</ele>
        <time>2026-09-03T14:33:58.000Z</time>
      </trkpt>
      <trkpt lat="48.21486" lon="6.66028">
        <ele>456.20001220703</ele>
        <time>2026-09-03T14:33:59.000Z</time>
      </trkpt>
      <trkpt lat="48.21485" lon="6.66028">
        <ele>456.40002441406</ele>
        <time>2026-09-03T14:34:00.000Z</time>
      </trkpt>
      <trkpt lat="48.21484" lon="6.66029">
        <ele>456.40002441406</ele>
        <time>2026-09-03T14:34:01.000Z</time>
      </trkpt>
      <trkpt lat="48.21483" lon="6.66029">
        <ele>456.40002441406</ele>
        <time>2026-09-03T14:34:02.000Z</time>
      </trkpt>
      <trkpt lat="48.21482" lon="6.66029">
        <ele>456.40002441406</ele>
        <time>2026-09-03T14:34:03.000Z</time>
      </trkpt>
      <trkpt lat="48.2148" lon="6.66029">
        <ele>456.59997558594</ele>
        <time>2026-09-03T14:34:04.000Z</time>
      </trkpt>
      <trkpt lat="48.21479" lon="6.6603">
        <ele>456.59997558594</ele>
        <time>2026-09-03T14:34:05.000Z</time>
      </trkpt>
      <trkpt lat="48.21478" lon="6.6603">
        <ele>456.59997558594</ele>
        <time>2026-09-03T14:34:06.000Z</time>
      </trkpt>
      <trkpt lat="48.21477" lon="6.66031">
        <ele>456.79998779297</ele>
        <time>2026-09-03T14:34:07.000Z</time>
      </trkpt>
      <trkpt lat="48.21476" lon="6.66032">
        <ele>456.79998779297</ele>
        <time>2026-09-03T14:34:08.000Z</time>
      </trkpt>
      <trkpt lat="48.21475" lon="6.66032">
        <ele>456.79998779297</ele>
        <time>2026-09-03T14:34:09.000Z</time>
      </trkpt>
      <trkpt lat="48.21474" lon="6.66033">
        <ele>457</ele>
        <time>2026-09-03T14:34:10.000Z</time>
      </trkpt>
      <trkpt lat="48.21473" lon="6.66033">
        <ele>457</ele>
        <time>2026-09-03T14:34:11.000Z</time>
      </trkpt>
      <trkpt lat="48.21472" lon="6.66033">
        <ele>457</ele>
        <time>2026-09-03T14:34:12.000Z</time>
      </trkpt>
      <trkpt lat="48.21471" lon="6.66033">
        <ele>457.20001220703</ele>
        <time>2026-09-03T14:34:13.000Z</time>
      </trkpt>
      <trkpt lat="48.2147" lon="6.66033">
        <ele>457.20001220703</ele>
        <time>2026-09-03T14:34:14.000Z</time>
      </trkpt>
      <trkpt lat="48.21469" lon="6.66034">
        <ele>457.40002441406</ele>
        <time>2026-09-03T14:34:15.000Z</time>
      </trkpt>
      <trkpt lat="48.21468" lon="6.66034">
        <ele>457.40002441406</ele>
        <time>2026-09-03T14:34:16.000Z</time>
      </trkpt>
      <trkpt lat="48.21467" lon="6.66034">
        <ele>457.40002441406</ele>
        <time>2026-09-03T14:34:17.000Z</time>
      </trkpt>
      <trkpt lat="48.21465" lon="6.66034">
        <ele>457.40002441406</ele>
        <time>2026-09-03T14:34:18.000Z</time>
      </trkpt>
      <trkpt lat="48.21464" lon="6.66034">
        <ele>457.40002441406</ele>
        <time>2026-09-03T14:34:19.000Z</time>
      </trkpt>
      <trkpt lat="48.21462" lon="6.66034">
        <ele>457.59997558594</ele>
        <time>2026-09-03T14:34:20.000Z</time>
      </trkpt>
      <trkpt lat="48.21461" lon="6.66034">
        <ele>457.59997558594</ele>
        <time>2026-09-03T14:34:21.000Z</time>
      </trkpt>
      <trkpt lat="48.21459" lon="6.66034">
        <ele>457.59997558594</ele>
        <time>2026-09-03T14:34:22.000Z</time>
      </trkpt>
      <trkpt lat="48.21458" lon="6.66034">
        <ele>457.59997558594</ele>
        <time>2026-09-03T14:34:23.000Z</time>
      </trkpt>
      <trkpt lat="48.21457" lon="6.66033">
        <ele>457.59997558594</ele>
        <time>2026-09-03T14:34:24.000Z</time>
      </trkpt>
      <trkpt lat="48.21457" lon="6.66033">
        <ele>457.59997558594</ele>
        <time>2026-09-03T14:34:25.000Z</time>
      </trkpt>
      <trkpt lat="48.21457" lon="6.66033">
        <ele>457.59997558594</ele>
        <time>2026-09-03T14:34:26.000Z</time>
      </trkpt>
      <trkpt lat="48.21457" lon="6.66033">
        <ele>457.59997558594</ele>
        <time>2026-09-03T14:34:27.000Z</time>
      </trkpt>
      <trkpt lat="48.21457" lon="6.66033">
        <ele>457.59997558594</ele>
        <time>2026-09-03T14:34:28.000Z</time>
      </trkpt>
      <trkpt lat="48.21456" lon="6.66032">
        <ele>457.59997558594</ele>
        <time>2026-09-03T14:34:29.000Z</time>
      </trkpt>
      <trkpt lat="48.21456" lon="6.66032">
        <ele>457.79998779297</ele>
        <time>2026-09-03T14:34:30.000Z</time>
      </trkpt>
      <trkpt lat="48.21456" lon="6.66033">
        <ele>457.79998779297</ele>
        <time>2026-09-03T14:34:31.000Z</time>
      </trkpt>
      <trkpt lat="48.21456" lon="6.66033">
        <ele>457.79998779297</ele>
        <time>2026-09-03T14:34:32.000Z</time>
      </trkpt>
      <trkpt lat="48.21456" lon="6.66033">
        <ele>457.79998779297</ele>
        <time>2026-09-03T14:34:33.000Z</time>
      </trkpt>
      <trkpt lat="48.21456" lon="6.66033">
        <ele>457.79998779297</ele>
        <time>2026-09-03T14:34:34.000Z</time>
      </trkpt>
      <trkpt lat="48.21456" lon="6.66034">
        <ele>457.79998779297</ele>
        <time>2026-09-03T14:34:35.000Z</time>
      </trkpt>
      <trkpt lat="48.21456" lon="6.66034">
        <ele>457.79998779297</ele>
        <time>2026-09-03T14:34:36.000Z</time>
      </trkpt>
      <trkpt lat="48.21455" lon="6.66035">
        <ele>457.79998779297</ele>
        <time>2026-09-03T14:34:37.000Z</time>
      </trkpt>
      <trkpt lat="48.21455" lon="6.66035">
        <ele>457.79998779297</ele>
        <time>2026-09-03T14:34:38.000Z</time>
      </trkpt>
      <trkpt lat="48.21454" lon="6.66035">
        <ele>458</ele>
        <time>2026-09-03T14:34:39.000Z</time>
      </trkpt>
      <trkpt lat="48.21453" lon="6.66035">
        <ele>458</ele>
        <time>2026-09-03T14:34:40.000Z</time>
      </trkpt>
      <trkpt lat="48.21452" lon="6.66035">
        <ele>458.20001220703</ele>
        <time>2026-09-03T14:34:41.000Z</time>
      </trkpt>
      <trkpt lat="48.21451" lon="6.66035">
        <ele>458.40002441406</ele>
        <time>2026-09-03T14:34:42.000Z</time>
      </trkpt>
      <trkpt lat="48.21449" lon="6.66035">
        <ele>458.40002441406</ele>
        <time>2026-09-03T14:34:43.000Z</time>
      </trkpt>
      <trkpt lat="48.21448" lon="6.66035">
        <ele>458.40002441406</ele>
        <time>2026-09-03T14:34:44.000Z</time>
      </trkpt>
      <trkpt lat="48.21447" lon="6.66035">
        <ele>458.40002441406</ele>
        <time>2026-09-03T14:34:45.000Z</time>
      </trkpt>
      <trkpt lat="48.21446" lon="6.66035">
        <ele>458.40002441406</ele>
        <time>2026-09-03T14:34:46.000Z</time>
      </trkpt>
      <trkpt lat="48.21445" lon="6.66035">
        <ele>458.40002441406</ele>
        <time>2026-09-03T14:34:47.000Z</time>
      </trkpt>
      <trkpt lat="48.21443" lon="6.66034">
        <ele>458.40002441406</ele>
        <time>2026-09-03T14:34:48.000Z</time>
      </trkpt>
      <trkpt lat="48.21442" lon="6.66035">
        <ele>458.59997558594</ele>
        <time>2026-09-03T14:34:49.000Z</time>
      </trkpt>
      <trkpt lat="48.2144" lon="6.66035">
        <ele>458.59997558594</ele>
        <time>2026-09-03T14:34:50.000Z</time>
      </trkpt>
      <trkpt lat="48.21439" lon="6.66035">
        <ele>458.59997558594</ele>
        <time>2026-09-03T14:34:51.000Z</time>
      </trkpt>
      <trkpt lat="48.21438" lon="6.66035">
        <ele>458.40002441406</ele>
        <time>2026-09-03T14:34:52.000Z</time>
      </trkpt>
      <trkpt lat="48.21437" lon="6.66036">
        <ele>458.40002441406</ele>
        <time>2026-09-03T14:34:53.000Z</time>
      </trkpt>
      <trkpt lat="48.21435" lon="6.66036">
        <ele>458.40002441406</ele>
        <time>2026-09-03T14:34:54.000Z</time>
      </trkpt>
      <trkpt lat="48.21434" lon="6.66035">
        <ele>458.40002441406</ele>
        <time>2026-09-03T14:34:55.000Z</time>
      </trkpt>
      <trkpt lat="48.21433" lon="6.66035">
        <ele>458.59997558594</ele>
        <time>2026-09-03T14:34:56.000Z</time>
      </trkpt>
      <trkpt lat="48.21432" lon="6.66035">
        <ele>458.79998779297</ele>
        <time>2026-09-03T14:34:57.000Z</time>
      </trkpt>
      <trkpt lat="48.21431" lon="6.66035">
        <ele>458.79998779297</ele>
        <time>2026-09-03T14:34:58.000Z</time>
      </trkpt>
      <trkpt lat="48.2143" lon="6.66036">
        <ele>458.79998779297</ele>
        <time>2026-09-03T14:34:59.000Z</time>
      </trkpt>
      <trkpt lat="48.21429" lon="6.66036">
        <ele>458.79998779297</ele>
        <time>2026-09-03T14:35:00.000Z</time>
      </trkpt>
      <trkpt lat="48.21428" lon="6.66036">
        <ele>458.79998779297</ele>
        <time>2026-09-03T14:35:01.000Z</time>
      </trkpt>
      <trkpt lat="48.21427" lon="6.66036">
        <ele>458.79998779297</ele>
        <time>2026-09-03T14:35:02.000Z</time>
      </trkpt>
      <trkpt lat="48.21427" lon="6.66036">
        <ele>458.59997558594</ele>
        <time>2026-09-03T14:35:03.000Z</time>
      </trkpt>
      <trkpt lat="48.21426" lon="6.66036">
        <ele>458.59997558594</ele>
        <time>2026-09-03T14:35:04.000Z</time>
      </trkpt>
      <trkpt lat="48.21425" lon="6.66035">
        <ele>458.59997558594</ele>
        <time>2026-09-03T14:35:05.000Z</time>
      </trkpt>
      <trkpt lat="48.21424" lon="6.66035">
        <ele>458.59997558594</ele>
        <time>2026-09-03T14:35:06.000Z</time>
      </trkpt>
      <trkpt lat="48.21423" lon="6.66035">
        <ele>458.59997558594</ele>
        <time>2026-09-03T14:35:07.000Z</time>
      </trkpt>
      <trkpt lat="48.21422" lon="6.66034">
        <ele>458.59997558594</ele>
        <time>2026-09-03T14:35:08.000Z</time>
      </trkpt>
      <trkpt lat="48.21421" lon="6.66034">
        <ele>458.59997558594</ele>
        <time>2026-09-03T14:35:09.000Z</time>
      </trkpt>
      <trkpt lat="48.21419" lon="6.66034">
        <ele>458.79998779297</ele>
        <time>2026-09-03T14:35:10.000Z</time>
      </trkpt>
      <trkpt lat="48.21418" lon="6.66033">
        <ele>458.79998779297</ele>
        <time>2026-09-03T14:35:11.000Z</time>
      </trkpt>
      <trkpt lat="48.21417" lon="6.66033">
        <ele>458.79998779297</ele>
        <time>2026-09-03T14:35:12.000Z</time>
      </trkpt>
      <trkpt lat="48.21416" lon="6.66032">
        <ele>458.79998779297</ele>
        <time>2026-09-03T14:35:13.000Z</time>
      </trkpt>
      <trkpt lat="48.21414" lon="6.66032">
        <ele>458.79998779297</ele>
        <time>2026-09-03T14:35:14.000Z</time>
      </trkpt>
      <trkpt lat="48.21413" lon="6.66032">
        <ele>458.79998779297</ele>
        <time>2026-09-03T14:35:15.000Z</time>
      </trkpt>
      <trkpt lat="48.21413" lon="6.66031">
        <ele>458.79998779297</ele>
        <time>2026-09-03T14:35:16.000Z</time>
      </trkpt>
      <trkpt lat="48.21412" lon="6.6603">
        <ele>458.79998779297</ele>
        <time>2026-09-03T14:35:17.000Z</time>
      </trkpt>
      <trkpt lat="48.21412" lon="6.66029">
        <ele>458.59997558594</ele>
        <time>2026-09-03T14:35:18.000Z</time>
      </trkpt>
      <trkpt lat="48.21411" lon="6.66028">
        <ele>458.59997558594</ele>
        <time>2026-09-03T14:35:19.000Z</time>
      </trkpt>
      <trkpt lat="48.2141" lon="6.66027">
        <ele>458.59997558594</ele>
        <time>2026-09-03T14:35:20.000Z</time>
      </trkpt>
      <trkpt lat="48.21409" lon="6.66026">
        <ele>458.79998779297</ele>
        <time>2026-09-03T14:35:21.000Z</time>
      </trkpt>
      <trkpt lat="48.21408" lon="6.66025">
        <ele>458.79998779297</ele>
        <time>2026-09-03T14:35:22.000Z</time>
      </trkpt>
      <trkpt lat="48.21408" lon="6.66024">
        <ele>458.79998779297</ele>
        <time>2026-09-03T14:35:23.000Z</time>
      </trkpt>
      <trkpt lat="48.21407" lon="6.66023">
        <ele>459</ele>
        <time>2026-09-03T14:35:24.000Z</time>
      </trkpt>
      <trkpt lat="48.21406" lon="6.66022">
        <ele>459</ele>
        <time>2026-09-03T14:35:25.000Z</time>
      </trkpt>
      <trkpt lat="48.21405" lon="6.66022">
        <ele>459</ele>
        <time>2026-09-03T14:35:26.000Z</time>
      </trkpt>
      <trkpt lat="48.21405" lon="6.66021">
        <ele>458.79998779297</ele>
        <time>2026-09-03T14:35:27.000Z</time>
      </trkpt>
      <trkpt lat="48.21404" lon="6.6602">
        <ele>458.79998779297</ele>
        <time>2026-09-03T14:35:28.000Z</time>
      </trkpt>
      <trkpt lat="48.21403" lon="6.6602">
        <ele>459</ele>
        <time>2026-09-03T14:35:29.000Z</time>
      </trkpt>
      <trkpt lat="48.21402" lon="6.66019">
        <ele>459</ele>
        <time>2026-09-03T14:35:30.000Z</time>
      </trkpt>
      <trkpt lat="48.21401" lon="6.66019">
        <ele>459</ele>
        <time>2026-09-03T14:35:31.000Z</time>
      </trkpt>
      <trkpt lat="48.214" lon="6.66018">
        <ele>459.20001220703</ele>
        <time>2026-09-03T14:35:32.000Z</time>
      </trkpt>
      <trkpt lat="48.21398" lon="6.66018">
        <ele>459.20001220703</ele>
        <time>2026-09-03T14:35:33.000Z</time>
      </trkpt>
      <trkpt lat="48.21398" lon="6.66017">
        <ele>459.20001220703</ele>
        <time>2026-09-03T14:35:34.000Z</time>
      </trkpt>
      <trkpt lat="48.21397" lon="6.66018">
        <ele>459.20001220703</ele>
        <time>2026-09-03T14:35:35.000Z</time>
      </trkpt>
      <trkpt lat="48.21396" lon="6.66018">
        <ele>459.20001220703</ele>
        <time>2026-09-03T14:35:36.000Z</time>
      </trkpt>
      <trkpt lat="48.21394" lon="6.66018">
        <ele>459.20001220703</ele>
        <time>2026-09-03T14:35:37.000Z</time>
      </trkpt>
      <trkpt lat="48.21394" lon="6.66018">
        <ele>459.20001220703</ele>
        <time>2026-09-03T14:35:38.000Z</time>
      </trkpt>
      <trkpt lat="48.21393" lon="6.66018">
        <ele>459.20001220703</ele>
        <time>2026-09-03T14:35:39.000Z</time>
      </trkpt>
      <trkpt lat="48.21394" lon="6.66017">
        <ele>459.40002441406</ele>
        <time>2026-09-03T14:35:40.000Z</time>
      </trkpt>
      <trkpt lat="48.21394" lon="6.66018">
        <ele>459.40002441406</ele>
        <time>2026-09-03T14:35:41.000Z</time>
      </trkpt>
      <trkpt lat="48.21394" lon="6.66018">
        <ele>459.40002441406</ele>
        <time>2026-09-03T14:35:42.000Z</time>
      </trkpt>
      <trkpt lat="48.21394" lon="6.66018">
        <ele>459.40002441406</ele>
        <time>2026-09-03T14:35:43.000Z</time>
      </trkpt>
      <trkpt lat="48.21394" lon="6.66018">
        <ele>459.40002441406</ele>
        <time>2026-09-03T14:35:44.000Z</time>
      </trkpt>
      <trkpt lat="48.21394" lon="6.66018">
        <ele>459.59997558594</ele>
        <time>2026-09-03T14:35:45.000Z</time>
      </trkpt>
      <trkpt lat="48.21394" lon="6.66018">
        <ele>459.59997558594</ele>
        <time>2026-09-03T14:35:46.000Z</time>
      </trkpt>
      <trkpt lat="48.21394" lon="6.66018">
        <ele>459.59997558594</ele>
        <time>2026-09-03T14:35:47.000Z</time>
      </trkpt>
      <trkpt lat="48.21393" lon="6.66019">
        <ele>459.59997558594</ele>
        <time>2026-09-03T14:35:48.000Z</time>
      </trkpt>
      <trkpt lat="48.21392" lon="6.6602">
        <ele>459.40002441406</ele>
        <time>2026-09-03T14:35:49.000Z</time>
      </trkpt>
      <trkpt lat="48.2139" lon="6.6602">
        <ele>459.40002441406</ele>
        <time>2026-09-03T14:35:50.000Z</time>
      </trkpt>
      <trkpt lat="48.21389" lon="6.66021">
        <ele>459.40002441406</ele>
        <time>2026-09-03T14:35:51.000Z</time>
      </trkpt>
      <trkpt lat="48.21388" lon="6.66022">
        <ele>459.59997558594</ele>
        <time>2026-09-03T14:35:52.000Z</time>
      </trkpt>
      <trkpt lat="48.21387" lon="6.66023">
        <ele>459.59997558594</ele>
        <time>2026-09-03T14:35:53.000Z</time>
      </trkpt>
      <trkpt lat="48.21385" lon="6.66023">
        <ele>459.79998779297</ele>
        <time>2026-09-03T14:35:54.000Z</time>
      </trkpt>
      <trkpt lat="48.21384" lon="6.66024">
        <ele>460</ele>
        <time>2026-09-03T14:35:55.000Z</time>
      </trkpt>
      <trkpt lat="48.21383" lon="6.66024">
        <ele>460</ele>
        <time>2026-09-03T14:35:56.000Z</time>
      </trkpt>
      <trkpt lat="48.21382" lon="6.66025">
        <ele>460.20001220703</ele>
        <time>2026-09-03T14:35:57.000Z</time>
      </trkpt>
      <trkpt lat="48.21381" lon="6.66025">
        <ele>460.20001220703</ele>
        <time>2026-09-03T14:35:58.000Z</time>
      </trkpt>
      <trkpt lat="48.21381" lon="6.66025">
        <ele>460.20001220703</ele>
        <time>2026-09-03T14:35:59.000Z</time>
      </trkpt>
      <trkpt lat="48.21381" lon="6.66026">
        <ele>460.20001220703</ele>
        <time>2026-09-03T14:36:00.000Z</time>
      </trkpt>
      <trkpt lat="48.21381" lon="6.66026">
        <ele>460.20001220703</ele>
        <time>2026-09-03T14:36:01.000Z</time>
      </trkpt>
      <trkpt lat="48.21381" lon="6.66026">
        <ele>460</ele>
        <time>2026-09-03T14:36:02.000Z</time>
      </trkpt>
      <trkpt lat="48.21381" lon="6.66026">
        <ele>460</ele>
        <time>2026-09-03T14:36:03.000Z</time>
      </trkpt>
      <trkpt lat="48.21381" lon="6.66027">
        <ele>460</ele>
        <time>2026-09-03T14:36:04.000Z</time>
      </trkpt>
      <trkpt lat="48.21381" lon="6.66027">
        <ele>460.20001220703</ele>
        <time>2026-09-03T14:36:05.000Z</time>
      </trkpt>
      <trkpt lat="48.21381" lon="6.66027">
        <ele>460.20001220703</ele>
        <time>2026-09-03T14:36:06.000Z</time>
      </trkpt>
      <trkpt lat="48.21381" lon="6.66027">
        <ele>460.20001220703</ele>
        <time>2026-09-03T14:36:07.000Z</time>
      </trkpt>
      <trkpt lat="48.21381" lon="6.66027">
        <ele>460.20001220703</ele>
        <time>2026-09-03T14:36:08.000Z</time>
      </trkpt>
      <trkpt lat="48.21381" lon="6.66027">
        <ele>460.20001220703</ele>
        <time>2026-09-03T14:36:09.000Z</time>
      </trkpt>
      <trkpt lat="48.2138" lon="6.66028">
        <ele>460</ele>
        <time>2026-09-03T14:36:10.000Z</time>
      </trkpt>
      <trkpt lat="48.21379" lon="6.66029">
        <ele>460</ele>
        <time>2026-09-03T14:36:11.000Z</time>
      </trkpt>
      <trkpt lat="48.21377" lon="6.6603">
        <ele>460.20001220703</ele>
        <time>2026-09-03T14:36:12.000Z</time>
      </trkpt>
      <trkpt lat="48.21376" lon="6.66031">
        <ele>460.20001220703</ele>
        <time>2026-09-03T14:36:13.000Z</time>
      </trkpt>
      <trkpt lat="48.21375" lon="6.66032">
        <ele>460.20001220703</ele>
        <time>2026-09-03T14:36:14.000Z</time>
      </trkpt>
      <trkpt lat="48.21375" lon="6.66032">
        <ele>460.40002441406</ele>
        <time>2026-09-03T14:36:15.000Z</time>
      </trkpt>
      <trkpt lat="48.21373" lon="6.66032">
        <ele>460.40002441406</ele>
        <time>2026-09-03T14:36:16.000Z</time>
      </trkpt>
      <trkpt lat="48.21373" lon="6.66033">
        <ele>460.59997558594</ele>
        <time>2026-09-03T14:36:17.000Z</time>
      </trkpt>
      <trkpt lat="48.21372" lon="6.66034">
        <ele>460.59997558594</ele>
        <time>2026-09-03T14:36:18.000Z</time>
      </trkpt>
      <trkpt lat="48.21371" lon="6.66034">
        <ele>460.59997558594</ele>
        <time>2026-09-03T14:36:19.000Z</time>
      </trkpt>
      <trkpt lat="48.2137" lon="6.66035">
        <ele>460.59997558594</ele>
        <time>2026-09-03T14:36:20.000Z</time>
      </trkpt>
      <trkpt lat="48.21369" lon="6.66035">
        <ele>460.79998779297</ele>
        <time>2026-09-03T14:36:21.000Z</time>
      </trkpt>
      <trkpt lat="48.21367" lon="6.66035">
        <ele>460.79998779297</ele>
        <time>2026-09-03T14:36:22.000Z</time>
      </trkpt>
      <trkpt lat="48.21366" lon="6.66036">
        <ele>460.79998779297</ele>
        <time>2026-09-03T14:36:23.000Z</time>
      </trkpt>
      <trkpt lat="48.21364" lon="6.66036">
        <ele>461</ele>
        <time>2026-09-03T14:36:24.000Z</time>
      </trkpt>
      <trkpt lat="48.21363" lon="6.66036">
        <ele>461</ele>
        <time>2026-09-03T14:36:25.000Z</time>
      </trkpt>
      <trkpt lat="48.21362" lon="6.66036">
        <ele>461</ele>
        <time>2026-09-03T14:36:26.000Z</time>
      </trkpt>
      <trkpt lat="48.2136" lon="6.66036">
        <ele>461.20001220703</ele>
        <time>2026-09-03T14:36:27.000Z</time>
      </trkpt>
      <trkpt lat="48.21359" lon="6.66037">
        <ele>461.20001220703</ele>
        <time>2026-09-03T14:36:28.000Z</time>
      </trkpt>
      <trkpt lat="48.21358" lon="6.66037">
        <ele>461.40002441406</ele>
        <time>2026-09-03T14:36:29.000Z</time>
      </trkpt>
      <trkpt lat="48.21357" lon="6.66037">
        <ele>461.40002441406</ele>
        <time>2026-09-03T14:36:30.000Z</time>
      </trkpt>
      <trkpt lat="48.21356" lon="6.66038">
        <ele>461.59997558594</ele>
        <time>2026-09-03T14:36:31.000Z</time>
      </trkpt>
      <trkpt lat="48.21355" lon="6.66038">
        <ele>461.59997558594</ele>
        <time>2026-09-03T14:36:32.000Z</time>
      </trkpt>
      <trkpt lat="48.21354" lon="6.66038">
        <ele>461.59997558594</ele>
        <time>2026-09-03T14:36:33.000Z</time>
      </trkpt>
      <trkpt lat="48.21353" lon="6.66038">
        <ele>461.59997558594</ele>
        <time>2026-09-03T14:36:34.000Z</time>
      </trkpt>
      <trkpt lat="48.21352" lon="6.66038">
        <ele>461.59997558594</ele>
        <time>2026-09-03T14:36:35.000Z</time>
      </trkpt>
      <trkpt lat="48.21351" lon="6.66039">
        <ele>461.59997558594</ele>
        <time>2026-09-03T14:36:36.000Z</time>
      </trkpt>
      <trkpt lat="48.21351" lon="6.66039">
        <ele>461.79998779297</ele>
        <time>2026-09-03T14:36:37.000Z</time>
      </trkpt>
      <trkpt lat="48.21349" lon="6.6604">
        <ele>461.79998779297</ele>
        <time>2026-09-03T14:36:38.000Z</time>
      </trkpt>
      <trkpt lat="48.21348" lon="6.6604">
        <ele>462</ele>
        <time>2026-09-03T14:36:39.000Z</time>
      </trkpt>
      <trkpt lat="48.21346" lon="6.66041">
        <ele>462</ele>
        <time>2026-09-03T14:36:40.000Z</time>
      </trkpt>
      <trkpt lat="48.21345" lon="6.66041">
        <ele>462.20001220703</ele>
        <time>2026-09-03T14:36:41.000Z</time>
      </trkpt>
      <trkpt lat="48.21345" lon="6.66041">
        <ele>462.20001220703</ele>
        <time>2026-09-03T14:36:42.000Z</time>
      </trkpt>
      <trkpt lat="48.21344" lon="6.66041">
        <ele>462.40002441406</ele>
        <time>2026-09-03T14:36:43.000Z</time>
      </trkpt>
      <trkpt lat="48.21343" lon="6.66042">
        <ele>462.40002441406</ele>
        <time>2026-09-03T14:36:44.000Z</time>
      </trkpt>
      <trkpt lat="48.21341" lon="6.66042">
        <ele>462.40002441406</ele>
        <time>2026-09-03T14:36:45.000Z</time>
      </trkpt>
      <trkpt lat="48.2134" lon="6.66043">
        <ele>462.59997558594</ele>
        <time>2026-09-03T14:36:46.000Z</time>
      </trkpt>
      <trkpt lat="48.21339" lon="6.66044">
        <ele>462.59997558594</ele>
        <time>2026-09-03T14:36:47.000Z</time>
      </trkpt>
      <trkpt lat="48.21338" lon="6.66044">
        <ele>462.79998779297</ele>
        <time>2026-09-03T14:36:48.000Z</time>
      </trkpt>
      <trkpt lat="48.21337" lon="6.66045">
        <ele>462.79998779297</ele>
        <time>2026-09-03T14:36:49.000Z</time>
      </trkpt>
      <trkpt lat="48.21336" lon="6.66046">
        <ele>463</ele>
        <time>2026-09-03T14:36:50.000Z</time>
      </trkpt>
      <trkpt lat="48.21335" lon="6.66046">
        <ele>463</ele>
        <time>2026-09-03T14:36:51.000Z</time>
      </trkpt>
      <trkpt lat="48.21334" lon="6.66046">
        <ele>463.20001220703</ele>
        <time>2026-09-03T14:36:52.000Z</time>
      </trkpt>
      <trkpt lat="48.21333" lon="6.66047">
        <ele>463.20001220703</ele>
        <time>2026-09-03T14:36:53.000Z</time>
      </trkpt>
      <trkpt lat="48.21332" lon="6.66047">
        <ele>463.40002441406</ele>
        <time>2026-09-03T14:36:54.000Z</time>
      </trkpt>
      <trkpt lat="48.21331" lon="6.66048">
        <ele>463.40002441406</ele>
        <time>2026-09-03T14:36:55.000Z</time>
      </trkpt>
      <trkpt lat="48.21331" lon="6.66048">
        <ele>463.40002441406</ele>
        <time>2026-09-03T14:36:56.000Z</time>
      </trkpt>
      <trkpt lat="48.2133" lon="6.66049">
        <ele>463.59997558594</ele>
        <time>2026-09-03T14:36:57.000Z</time>
      </trkpt>
      <trkpt lat="48.21329" lon="6.6605">
        <ele>463.59997558594</ele>
        <time>2026-09-03T14:36:58.000Z</time>
      </trkpt>
      <trkpt lat="48.21327" lon="6.66051">
        <ele>463.59997558594</ele>
        <time>2026-09-03T14:36:59.000Z</time>
      </trkpt>
      <trkpt lat="48.21327" lon="6.66051">
        <ele>463.59997558594</ele>
        <time>2026-09-03T14:37:00.000Z</time>
      </trkpt>
      <trkpt lat="48.21326" lon="6.66052">
        <ele>463.79998779297</ele>
        <time>2026-09-03T14:37:01.000Z</time>
      </trkpt>
      <trkpt lat="48.21324" lon="6.66052">
        <ele>463.79998779297</ele>
        <time>2026-09-03T14:37:02.000Z</time>
      </trkpt>
      <trkpt lat="48.21323" lon="6.66053">
        <ele>463.79998779297</ele>
        <time>2026-09-03T14:37:03.000Z</time>
      </trkpt>
      <trkpt lat="48.21322" lon="6.66053">
        <ele>464</ele>
        <time>2026-09-03T14:37:04.000Z</time>
      </trkpt>
      <trkpt lat="48.21321" lon="6.66053">
        <ele>464</ele>
        <time>2026-09-03T14:37:05.000Z</time>
      </trkpt>
      <trkpt lat="48.2132" lon="6.66053">
        <ele>464</ele>
        <time>2026-09-03T14:37:06.000Z</time>
      </trkpt>
      <trkpt lat="48.2132" lon="6.66053">
        <ele>464</ele>
        <time>2026-09-03T14:37:07.000Z</time>
      </trkpt>
      <trkpt lat="48.21319" lon="6.66053">
        <ele>464</ele>
        <time>2026-09-03T14:37:08.000Z</time>
      </trkpt>
      <trkpt lat="48.21318" lon="6.66054">
        <ele>464.20001220703</ele>
        <time>2026-09-03T14:37:09.000Z</time>
      </trkpt>
      <trkpt lat="48.21316" lon="6.66054">
        <ele>464.20001220703</ele>
        <time>2026-09-03T14:37:10.000Z</time>
      </trkpt>
      <trkpt lat="48.21315" lon="6.66054">
        <ele>464.20001220703</ele>
        <time>2026-09-03T14:37:11.000Z</time>
      </trkpt>
      <trkpt lat="48.21314" lon="6.66054">
        <ele>464.20001220703</ele>
        <time>2026-09-03T14:37:12.000Z</time>
      </trkpt>
      <trkpt lat="48.21313" lon="6.66055">
        <ele>464.20001220703</ele>
        <time>2026-09-03T14:37:13.000Z</time>
      </trkpt>
      <trkpt lat="48.21312" lon="6.66055">
        <ele>464</ele>
        <time>2026-09-03T14:37:14.000Z</time>
      </trkpt>
      <trkpt lat="48.21312" lon="6.66055">
        <ele>464</ele>
        <time>2026-09-03T14:37:15.000Z</time>
      </trkpt>
      <trkpt lat="48.2131" lon="6.66056">
        <ele>464</ele>
        <time>2026-09-03T14:37:16.000Z</time>
      </trkpt>
      <trkpt lat="48.21309" lon="6.66056">
        <ele>464</ele>
        <time>2026-09-03T14:37:17.000Z</time>
      </trkpt>
      <trkpt lat="48.21308" lon="6.66057">
        <ele>464</ele>
        <time>2026-09-03T14:37:18.000Z</time>
      </trkpt>
      <trkpt lat="48.21306" lon="6.66058">
        <ele>464.20001220703</ele>
        <time>2026-09-03T14:37:19.000Z</time>
      </trkpt>
      <trkpt lat="48.21306" lon="6.66059">
        <ele>464.40002441406</ele>
        <time>2026-09-03T14:37:20.000Z</time>
      </trkpt>
      <trkpt lat="48.21304" lon="6.66059">
        <ele>464.59997558594</ele>
        <time>2026-09-03T14:37:21.000Z</time>
      </trkpt>
      <trkpt lat="48.21303" lon="6.6606">
        <ele>464.59997558594</ele>
        <time>2026-09-03T14:37:22.000Z</time>
      </trkpt>
      <trkpt lat="48.21302" lon="6.66061">
        <ele>464.59997558594</ele>
        <time>2026-09-03T14:37:23.000Z</time>
      </trkpt>
      <trkpt lat="48.21301" lon="6.66061">
        <ele>464.59997558594</ele>
        <time>2026-09-03T14:37:24.000Z</time>
      </trkpt>
      <trkpt lat="48.213" lon="6.66062">
        <ele>464.59997558594</ele>
        <time>2026-09-03T14:37:25.000Z</time>
      </trkpt>
      <trkpt lat="48.21299" lon="6.66063">
        <ele>464.59997558594</ele>
        <time>2026-09-03T14:37:26.000Z</time>
      </trkpt>
      <trkpt lat="48.21298" lon="6.66064">
        <ele>464.59997558594</ele>
        <time>2026-09-03T14:37:27.000Z</time>
      </trkpt>
      <trkpt lat="48.21298" lon="6.66065">
        <ele>464.79998779297</ele>
        <time>2026-09-03T14:37:28.000Z</time>
      </trkpt>
      <trkpt lat="48.21297" lon="6.66066">
        <ele>464.79998779297</ele>
        <time>2026-09-03T14:37:29.000Z</time>
      </trkpt>
      <trkpt lat="48.21296" lon="6.66067">
        <ele>464.79998779297</ele>
        <time>2026-09-03T14:37:30.000Z</time>
      </trkpt>
      <trkpt lat="48.21295" lon="6.66068">
        <ele>464.79998779297</ele>
        <time>2026-09-03T14:37:31.000Z</time>
      </trkpt>
      <trkpt lat="48.21294" lon="6.66068">
        <ele>464.79998779297</ele>
        <time>2026-09-03T14:37:32.000Z</time>
      </trkpt>
      <trkpt lat="48.21294" lon="6.66069">
        <ele>464.79998779297</ele>
        <time>2026-09-03T14:37:33.000Z</time>
      </trkpt>
      <trkpt lat="48.21293" lon="6.6607">
        <ele>464.79998779297</ele>
        <time>2026-09-03T14:37:34.000Z</time>
      </trkpt>
      <trkpt lat="48.21292" lon="6.6607">
        <ele>464.79998779297</ele>
        <time>2026-09-03T14:37:35.000Z</time>
      </trkpt>
      <trkpt lat="48.21291" lon="6.66072">
        <ele>464.79998779297</ele>
        <time>2026-09-03T14:37:36.000Z</time>
      </trkpt>
      <trkpt lat="48.2129" lon="6.66073">
        <ele>464.79998779297</ele>
        <time>2026-09-03T14:37:37.000Z</time>
      </trkpt>
      <trkpt lat="48.21289" lon="6.66073">
        <ele>465</ele>
        <time>2026-09-03T14:37:38.000Z</time>
      </trkpt>
      <trkpt lat="48.21288" lon="6.66074">
        <ele>465</ele>
        <time>2026-09-03T14:37:39.000Z</time>
      </trkpt>
      <trkpt lat="48.21286" lon="6.66075">
        <ele>465.20001220703</ele>
        <time>2026-09-03T14:37:40.000Z</time>
      </trkpt>
      <trkpt lat="48.21285" lon="6.66076">
        <ele>465.20001220703</ele>
        <time>2026-09-03T14:37:41.000Z</time>
      </trkpt>
      <trkpt lat="48.21283" lon="6.66077">
        <ele>465.20001220703</ele>
        <time>2026-09-03T14:37:42.000Z</time>
      </trkpt>
      <trkpt lat="48.21282" lon="6.66077">
        <ele>465.20001220703</ele>
        <time>2026-09-03T14:37:43.000Z</time>
      </trkpt>
      <trkpt lat="48.2128" lon="6.66077">
        <ele>465</ele>
        <time>2026-09-03T14:37:44.000Z</time>
      </trkpt>
      <trkpt lat="48.21279" lon="6.66076">
        <ele>465</ele>
        <time>2026-09-03T14:37:45.000Z</time>
      </trkpt>
      <trkpt lat="48.21278" lon="6.66076">
        <ele>465</ele>
        <time>2026-09-03T14:37:46.000Z</time>
      </trkpt>
      <trkpt lat="48.21277" lon="6.66076">
        <ele>465</ele>
        <time>2026-09-03T14:37:47.000Z</time>
      </trkpt>
      <trkpt lat="48.21276" lon="6.66076">
        <ele>465.20001220703</ele>
        <time>2026-09-03T14:37:48.000Z</time>
      </trkpt>
      <trkpt lat="48.21275" lon="6.66075">
        <ele>465.20001220703</ele>
        <time>2026-09-03T14:37:49.000Z</time>
      </trkpt>
      <trkpt lat="48.21274" lon="6.66075">
        <ele>465.40002441406</ele>
        <time>2026-09-03T14:37:50.000Z</time>
      </trkpt>
      <trkpt lat="48.21273" lon="6.66075">
        <ele>465.40002441406</ele>
        <time>2026-09-03T14:37:51.000Z</time>
      </trkpt>
      <trkpt lat="48.21272" lon="6.66074">
        <ele>465.40002441406</ele>
        <time>2026-09-03T14:37:52.000Z</time>
      </trkpt>
      <trkpt lat="48.2127" lon="6.66074">
        <ele>465.40002441406</ele>
        <time>2026-09-03T14:37:53.000Z</time>
      </trkpt>
      <trkpt lat="48.21269" lon="6.66074">
        <ele>465.59997558594</ele>
        <time>2026-09-03T14:37:54.000Z</time>
      </trkpt>
      <trkpt lat="48.21269" lon="6.66074">
        <ele>465.59997558594</ele>
        <time>2026-09-03T14:37:55.000Z</time>
      </trkpt>
      <trkpt lat="48.21269" lon="6.66074">
        <ele>465.79998779297</ele>
        <time>2026-09-03T14:37:56.000Z</time>
      </trkpt>
      <trkpt lat="48.21268" lon="6.66075">
        <ele>465.79998779297</ele>
        <time>2026-09-03T14:37:57.000Z</time>
      </trkpt>
      <trkpt lat="48.21267" lon="6.66075">
        <ele>466</ele>
        <time>2026-09-03T14:37:58.000Z</time>
      </trkpt>
      <trkpt lat="48.21266" lon="6.66076">
        <ele>466</ele>
        <time>2026-09-03T14:37:59.000Z</time>
      </trkpt>
      <trkpt lat="48.21266" lon="6.66076">
        <ele>466</ele>
        <time>2026-09-03T14:38:00.000Z</time>
      </trkpt>
      <trkpt lat="48.21265" lon="6.66076">
        <ele>466.20001220703</ele>
        <time>2026-09-03T14:38:01.000Z</time>
      </trkpt>
      <trkpt lat="48.21264" lon="6.66077">
        <ele>466.20001220703</ele>
        <time>2026-09-03T14:38:02.000Z</time>
      </trkpt>
      <trkpt lat="48.21263" lon="6.66078">
        <ele>466.40002441406</ele>
        <time>2026-09-03T14:38:03.000Z</time>
      </trkpt>
      <trkpt lat="48.21262" lon="6.66078">
        <ele>466.40002441406</ele>
        <time>2026-09-03T14:38:04.000Z</time>
      </trkpt>
      <trkpt lat="48.21261" lon="6.66078">
        <ele>466.40002441406</ele>
        <time>2026-09-03T14:38:05.000Z</time>
      </trkpt>
      <trkpt lat="48.2126" lon="6.66079">
        <ele>466.40002441406</ele>
        <time>2026-09-03T14:38:06.000Z</time>
      </trkpt>
      <trkpt lat="48.21258" lon="6.66079">
        <ele>466.40002441406</ele>
        <time>2026-09-03T14:38:07.000Z</time>
      </trkpt>
      <trkpt lat="48.21257" lon="6.6608">
        <ele>466.40002441406</ele>
        <time>2026-09-03T14:38:08.000Z</time>
      </trkpt>
      <trkpt lat="48.21256" lon="6.6608">
        <ele>466.40002441406</ele>
        <time>2026-09-03T14:38:09.000Z</time>
      </trkpt>
      <trkpt lat="48.21255" lon="6.66081">
        <ele>466.40002441406</ele>
        <time>2026-09-03T14:38:10.000Z</time>
      </trkpt>
      <trkpt lat="48.21254" lon="6.66082">
        <ele>466.40002441406</ele>
        <time>2026-09-03T14:38:11.000Z</time>
      </trkpt>
      <trkpt lat="48.21253" lon="6.66082">
        <ele>466.40002441406</ele>
        <time>2026-09-03T14:38:12.000Z</time>
      </trkpt>
      <trkpt lat="48.21253" lon="6.66083">
        <ele>466.40002441406</ele>
        <time>2026-09-03T14:38:13.000Z</time>
      </trkpt>
      <trkpt lat="48.21252" lon="6.66084">
        <ele>466.20001220703</ele>
        <time>2026-09-03T14:38:14.000Z</time>
      </trkpt>
      <trkpt lat="48.21251" lon="6.66085">
        <ele>466.20001220703</ele>
        <time>2026-09-03T14:38:15.000Z</time>
      </trkpt>
      <trkpt lat="48.21251" lon="6.66086">
        <ele>466.20001220703</ele>
        <time>2026-09-03T14:38:16.000Z</time>
      </trkpt>
      <trkpt lat="48.21249" lon="6.66086">
        <ele>466.20001220703</ele>
        <time>2026-09-03T14:38:17.000Z</time>
      </trkpt>
      <trkpt lat="48.21248" lon="6.66087">
        <ele>466.20001220703</ele>
        <time>2026-09-03T14:38:18.000Z</time>
      </trkpt>
      <trkpt lat="48.21247" lon="6.66088">
        <ele>466.20001220703</ele>
        <time>2026-09-03T14:38:19.000Z</time>
      </trkpt>
      <trkpt lat="48.21245" lon="6.66088">
        <ele>466.20001220703</ele>
        <time>2026-09-03T14:38:20.000Z</time>
      </trkpt>
      <trkpt lat="48.21244" lon="6.66088">
        <ele>466</ele>
        <time>2026-09-03T14:38:21.000Z</time>
      </trkpt>
      <trkpt lat="48.21243" lon="6.66088">
        <ele>465.79998779297</ele>
        <time>2026-09-03T14:38:22.000Z</time>
      </trkpt>
      <trkpt lat="48.21242" lon="6.66088">
        <ele>465.59997558594</ele>
        <time>2026-09-03T14:38:23.000Z</time>
      </trkpt>
      <trkpt lat="48.21241" lon="6.66088">
        <ele>465.59997558594</ele>
        <time>2026-09-03T14:38:24.000Z</time>
      </trkpt>
      <trkpt lat="48.2124" lon="6.66088">
        <ele>465.40002441406</ele>
        <time>2026-09-03T14:38:25.000Z</time>
      </trkpt>
      <trkpt lat="48.21239" lon="6.66088">
        <ele>465.40002441406</ele>
        <time>2026-09-03T14:38:26.000Z</time>
      </trkpt>
      <trkpt lat="48.21238" lon="6.66088">
        <ele>465.20001220703</ele>
        <time>2026-09-03T14:38:27.000Z</time>
      </trkpt>
      <trkpt lat="48.21237" lon="6.66088">
        <ele>465.20001220703</ele>
        <time>2026-09-03T14:38:28.000Z</time>
      </trkpt>
      <trkpt lat="48.21237" lon="6.66088">
        <ele>465</ele>
        <time>2026-09-03T14:38:29.000Z</time>
      </trkpt>
      <trkpt lat="48.21236" lon="6.66088">
        <ele>464.79998779297</ele>
        <time>2026-09-03T14:38:30.000Z</time>
      </trkpt>
      <trkpt lat="48.21235" lon="6.66088">
        <ele>464.59997558594</ele>
        <time>2026-09-03T14:38:31.000Z</time>
      </trkpt>
      <trkpt lat="48.21234" lon="6.66088">
        <ele>464.40002441406</ele>
        <time>2026-09-03T14:38:32.000Z</time>
      </trkpt>
      <trkpt lat="48.21233" lon="6.66087">
        <ele>464.20001220703</ele>
        <time>2026-09-03T14:38:33.000Z</time>
      </trkpt>
      <trkpt lat="48.21232" lon="6.66087">
        <ele>464</ele>
        <time>2026-09-03T14:38:34.000Z</time>
      </trkpt>
      <trkpt lat="48.21231" lon="6.66087">
        <ele>463.79998779297</ele>
        <time>2026-09-03T14:38:35.000Z</time>
      </trkpt>
      <trkpt lat="48.2123" lon="6.66087">
        <ele>463.79998779297</ele>
        <time>2026-09-03T14:38:36.000Z</time>
      </trkpt>
      <trkpt lat="48.21229" lon="6.66087">
        <ele>463.59997558594</ele>
        <time>2026-09-03T14:38:37.000Z</time>
      </trkpt>
      <trkpt lat="48.21229" lon="6.66086">
        <ele>463.40002441406</ele>
        <time>2026-09-03T14:38:38.000Z</time>
      </trkpt>
      <trkpt lat="48.21228" lon="6.66086">
        <ele>463.20001220703</ele>
        <time>2026-09-03T14:38:39.000Z</time>
      </trkpt>
      <trkpt lat="48.21227" lon="6.66086">
        <ele>463</ele>
        <time>2026-09-03T14:38:40.000Z</time>
      </trkpt>
      <trkpt lat="48.21226" lon="6.66086">
        <ele>463</ele>
        <time>2026-09-03T14:38:41.000Z</time>
      </trkpt>
      <trkpt lat="48.21226" lon="6.66087">
        <ele>462.59997558594</ele>
        <time>2026-09-03T14:38:42.000Z</time>
      </trkpt>
      <trkpt lat="48.21228" lon="6.66087">
        <ele>462.40002441406</ele>
        <time>2026-09-03T14:38:43.000Z</time>
      </trkpt>
      <trkpt lat="48.21228" lon="6.66089">
        <ele>462.20001220703</ele>
        <time>2026-09-03T14:38:44.000Z</time>
      </trkpt>
      <trkpt lat="48.21227" lon="6.6609">
        <ele>462</ele>
        <time>2026-09-03T14:38:45.000Z</time>
      </trkpt>
      <trkpt lat="48.21226" lon="6.66091">
        <ele>461.79998779297</ele>
        <time>2026-09-03T14:38:46.000Z</time>
      </trkpt>
      <trkpt lat="48.21225" lon="6.66091">
        <ele>461.79998779297</ele>
        <time>2026-09-03T14:38:47.000Z</time>
      </trkpt>
      <trkpt lat="48.21224" lon="6.66091">
        <ele>461.59997558594</ele>
        <time>2026-09-03T14:38:48.000Z</time>
      </trkpt>
      <trkpt lat="48.21224" lon="6.66091">
        <ele>461.40002441406</ele>
        <time>2026-09-03T14:38:49.000Z</time>
      </trkpt>
      <trkpt lat="48.21223" lon="6.66091">
        <ele>461</ele>
        <time>2026-09-03T14:38:50.000Z</time>
      </trkpt>
      <trkpt lat="48.21223" lon="6.66092">
        <ele>460.79998779297</ele>
        <time>2026-09-03T14:38:51.000Z</time>
      </trkpt>
      <trkpt lat="48.21223" lon="6.66093">
        <ele>460.40002441406</ele>
        <time>2026-09-03T14:38:52.000Z</time>
      </trkpt>
      <trkpt lat="48.21222" lon="6.66093">
        <ele>460.20001220703</ele>
        <time>2026-09-03T14:38:53.000Z</time>
      </trkpt>
      <trkpt lat="48.21222" lon="6.66093">
        <ele>459.79998779297</ele>
        <time>2026-09-03T14:38:54.000Z</time>
      </trkpt>
      <trkpt lat="48.21222" lon="6.66093">
        <ele>459.59997558594</ele>
        <time>2026-09-03T14:38:55.000Z</time>
      </trkpt>
      <trkpt lat="48.21221" lon="6.66094">
        <ele>459.40002441406</ele>
        <time>2026-09-03T14:38:56.000Z</time>
      </trkpt>
      <trkpt lat="48.2122" lon="6.66094">
        <ele>459.20001220703</ele>
        <time>2026-09-03T14:38:57.000Z</time>
      </trkpt>
      <trkpt lat="48.2122" lon="6.66095">
        <ele>459</ele>
        <time>2026-09-03T14:38:58.000Z</time>
      </trkpt>
      <trkpt lat="48.21219" lon="6.66095">
        <ele>458.59997558594</ele>
        <time>2026-09-03T14:38:59.000Z</time>
      </trkpt>
      <trkpt lat="48.21218" lon="6.66096">
        <ele>458.40002441406</ele>
        <time>2026-09-03T14:39:00.000Z</time>
      </trkpt>
      <trkpt lat="48.21217" lon="6.66096">
        <ele>458</ele>
        <time>2026-09-03T14:39:01.000Z</time>
      </trkpt>
      <trkpt lat="48.21218" lon="6.66095">
        <ele>457.79998779297</ele>
        <time>2026-09-03T14:39:02.000Z</time>
      </trkpt>
      <trkpt lat="48.21219" lon="6.66094">
        <ele>457.59997558594</ele>
        <time>2026-09-03T14:39:03.000Z</time>
      </trkpt>
      <trkpt lat="48.21219" lon="6.66094">
        <ele>457.40002441406</ele>
        <time>2026-09-03T14:39:04.000Z</time>
      </trkpt>
      <trkpt lat="48.21219" lon="6.66094">
        <ele>457.40002441406</ele>
        <time>2026-09-03T14:39:05.000Z</time>
      </trkpt>
      <trkpt lat="48.21219" lon="6.66094">
        <ele>457.40002441406</ele>
        <time>2026-09-03T14:39:06.000Z</time>
      </trkpt>
      <trkpt lat="48.21219" lon="6.66094">
        <ele>457.40002441406</ele>
        <time>2026-09-03T14:39:07.000Z</time>
      </trkpt>
      <trkpt lat="48.21219" lon="6.66094">
        <ele>457.40002441406</ele>
        <time>2026-09-03T14:39:08.000Z</time>
      </trkpt>
      <trkpt lat="48.21219" lon="6.66094">
        <ele>457.59997558594</ele>
        <time>2026-09-03T14:39:09.000Z</time>
      </trkpt>
      <trkpt lat="48.21219" lon="6.66094">
        <ele>457.59997558594</ele>
        <time>2026-09-03T14:39:10.000Z</time>
      </trkpt>
      <trkpt lat="48.21219" lon="6.66094">
        <ele>457.59997558594</ele>
        <time>2026-09-03T14:39:11.000Z</time>
      </trkpt>
      <trkpt lat="48.21219" lon="6.66094">
        <ele>457.79998779297</ele>
        <time>2026-09-03T14:39:12.000Z</time>
      </trkpt>
      <trkpt lat="48.21219" lon="6.66094">
        <ele>457.59997558594</ele>
        <time>2026-09-03T14:39:13.000Z</time>
      </trkpt>
      <trkpt lat="48.21219" lon="6.66094">
        <ele>457.59997558594</ele>
        <time>2026-09-03T14:39:14.000Z</time>
      </trkpt>
      <trkpt lat="48.21219" lon="6.66094">
        <ele>457.40002441406</ele>
        <time>2026-09-03T14:39:15.000Z</time>
      </trkpt>
      <trkpt lat="48.21219" lon="6.66094">
        <ele>457.40002441406</ele>
        <time>2026-09-03T14:39:16.000Z</time>
      </trkpt>
      <trkpt lat="48.21219" lon="6.66094">
        <ele>457.40002441406</ele>
        <time>2026-09-03T14:39:17.000Z</time>
      </trkpt>
      <trkpt lat="48.21219" lon="6.66094">
        <ele>457.40002441406</ele>
        <time>2026-09-03T14:39:18.000Z</time>
      </trkpt>
      <trkpt lat="48.21219" lon="6.66094">
        <ele>457.40002441406</ele>
        <time>2026-09-03T14:39:19.000Z</time>
      </trkpt>
      <trkpt lat="48.21218" lon="6.66095">
        <ele>457.59997558594</ele>
        <time>2026-09-03T14:39:20.000Z</time>
      </trkpt>
      <trkpt lat="48.21217" lon="6.66095">
        <ele>457.59997558594</ele>
        <time>2026-09-03T14:39:21.000Z</time>
      </trkpt>
      <trkpt lat="48.21217" lon="6.66095">
        <ele>457.79998779297</ele>
        <time>2026-09-03T14:39:22.000Z</time>
      </trkpt>
      <trkpt lat="48.21216" lon="6.66095">
        <ele>457.79998779297</ele>
        <time>2026-09-03T14:39:23.000Z</time>
      </trkpt>
      <trkpt lat="48.21215" lon="6.66095">
        <ele>457.59997558594</ele>
        <time>2026-09-03T14:39:24.000Z</time>
      </trkpt>
      <trkpt lat="48.21215" lon="6.66094">
        <ele>457.59997558594</ele>
        <time>2026-09-03T14:39:25.000Z</time>
      </trkpt>
      <trkpt lat="48.21214" lon="6.66094">
        <ele>457.40002441406</ele>
        <time>2026-09-03T14:39:26.000Z</time>
      </trkpt>
      <trkpt lat="48.21213" lon="6.66094">
        <ele>457.20001220703</ele>
        <time>2026-09-03T14:39:27.000Z</time>
      </trkpt>
      <trkpt lat="48.21213" lon="6.66093">
        <ele>457</ele>
        <time>2026-09-03T14:39:28.000Z</time>
      </trkpt>
      <trkpt lat="48.21213" lon="6.66092">
        <ele>456.79998779297</ele>
        <time>2026-09-03T14:39:29.000Z</time>
      </trkpt>
      <trkpt lat="48.21213" lon="6.66091">
        <ele>456.79998779297</ele>
        <time>2026-09-03T14:39:30.000Z</time>
      </trkpt>
      <trkpt lat="48.21213" lon="6.66091">
        <ele>456.59997558594</ele>
        <time>2026-09-03T14:39:31.000Z</time>
      </trkpt>
      <trkpt lat="48.21212" lon="6.66091">
        <ele>456.59997558594</ele>
        <time>2026-09-03T14:39:32.000Z</time>
      </trkpt>
      <trkpt lat="48.21212" lon="6.66091">
        <ele>456.59997558594</ele>
        <time>2026-09-03T14:39:33.000Z</time>
      </trkpt>
      <trkpt lat="48.21212" lon="6.66091">
        <ele>456.59997558594</ele>
        <time>2026-09-03T14:39:34.000Z</time>
      </trkpt>
      <trkpt lat="48.21212" lon="6.66091">
        <ele>456.79998779297</ele>
        <time>2026-09-03T14:39:35.000Z</time>
      </trkpt>
      <trkpt lat="48.21212" lon="6.66091">
        <ele>456.79998779297</ele>
        <time>2026-09-03T14:39:36.000Z</time>
      </trkpt>
      <trkpt lat="48.21212" lon="6.66091">
        <ele>456.79998779297</ele>
        <time>2026-09-03T14:39:37.000Z</time>
      </trkpt>
      <trkpt lat="48.21212" lon="6.66091">
        <ele>456.59997558594</ele>
        <time>2026-09-03T14:39:38.000Z</time>
      </trkpt>
      <trkpt lat="48.21211" lon="6.66092">
        <ele>456.59997558594</ele>
        <time>2026-09-03T14:39:39.000Z</time>
      </trkpt>
      <trkpt lat="48.21211" lon="6.66093">
        <ele>456.59997558594</ele>
        <time>2026-09-03T14:39:40.000Z</time>
      </trkpt>
      <trkpt lat="48.21211" lon="6.66093">
        <ele>456.59997558594</ele>
        <time>2026-09-03T14:39:41.000Z</time>
      </trkpt>
      <trkpt lat="48.21211" lon="6.66093">
        <ele>456.40002441406</ele>
        <time>2026-09-03T14:39:42.000Z</time>
      </trkpt>
      <trkpt lat="48.21211" lon="6.66093">
        <ele>456.40002441406</ele>
        <time>2026-09-03T14:39:43.000Z</time>
      </trkpt>
      <trkpt lat="48.2121" lon="6.66092">
        <ele>456.40002441406</ele>
        <time>2026-09-03T14:39:44.000Z</time>
      </trkpt>
      <trkpt lat="48.21209" lon="6.66093">
        <ele>456.20001220703</ele>
        <time>2026-09-03T14:39:45.000Z</time>
      </trkpt>
      <trkpt lat="48.21208" lon="6.66093">
        <ele>456</ele>
        <time>2026-09-03T14:39:46.000Z</time>
      </trkpt>
      <trkpt lat="48.21207" lon="6.66093">
        <ele>455.59997558594</ele>
        <time>2026-09-03T14:39:47.000Z</time>
      </trkpt>
      <trkpt lat="48.21206" lon="6.66092">
        <ele>455.40002441406</ele>
        <time>2026-09-03T14:39:48.000Z</time>
      </trkpt>
      <trkpt lat="48.21206" lon="6.66092">
        <ele>455.20001220703</ele>
        <time>2026-09-03T14:39:49.000Z</time>
      </trkpt>
      <trkpt lat="48.21205" lon="6.66092">
        <ele>455</ele>
        <time>2026-09-03T14:39:50.000Z</time>
      </trkpt>
      <trkpt lat="48.21205" lon="6.66091">
        <ele>454.79998779297</ele>
        <time>2026-09-03T14:39:51.000Z</time>
      </trkpt>
      <trkpt lat="48.21204" lon="6.66091">
        <ele>454.59997558594</ele>
        <time>2026-09-03T14:39:52.000Z</time>
      </trkpt>
      <trkpt lat="48.21203" lon="6.66091">
        <ele>454.40002441406</ele>
        <time>2026-09-03T14:39:53.000Z</time>
      </trkpt>
      <trkpt lat="48.21203" lon="6.66091">
        <ele>454.20001220703</ele>
        <time>2026-09-03T14:39:54.000Z</time>
      </trkpt>
      <trkpt lat="48.21202" lon="6.66091">
        <ele>454.20001220703</ele>
        <time>2026-09-03T14:39:55.000Z</time>
      </trkpt>
      <trkpt lat="48.21201" lon="6.6609">
        <ele>454</ele>
        <time>2026-09-03T14:39:56.000Z</time>
      </trkpt>
      <trkpt lat="48.21201" lon="6.66091">
        <ele>454</ele>
        <time>2026-09-03T14:39:57.000Z</time>
      </trkpt>
      <trkpt lat="48.212" lon="6.6609">
        <ele>453.79998779297</ele>
        <time>2026-09-03T14:39:58.000Z</time>
      </trkpt>
      <trkpt lat="48.21199" lon="6.6609">
        <ele>453.59997558594</ele>
        <time>2026-09-03T14:39:59.000Z</time>
      </trkpt>
      <trkpt lat="48.21198" lon="6.66089">
        <ele>453.40002441406</ele>
        <time>2026-09-03T14:40:00.000Z</time>
      </trkpt>
      <trkpt lat="48.21197" lon="6.66089">
        <ele>453.20001220703</ele>
        <time>2026-09-03T14:40:01.000Z</time>
      </trkpt>
      <trkpt lat="48.21196" lon="6.66089">
        <ele>453</ele>
        <time>2026-09-03T14:40:02.000Z</time>
      </trkpt>
      <trkpt lat="48.21195" lon="6.66088">
        <ele>453</ele>
        <time>2026-09-03T14:40:03.000Z</time>
      </trkpt>
      <trkpt lat="48.21195" lon="6.66088">
        <ele>452.79998779297</ele>
        <time>2026-09-03T14:40:04.000Z</time>
      </trkpt>
      <trkpt lat="48.21193" lon="6.66087">
        <ele>452.59997558594</ele>
        <time>2026-09-03T14:40:05.000Z</time>
      </trkpt>
      <trkpt lat="48.21192" lon="6.66086">
        <ele>452.40002441406</ele>
        <time>2026-09-03T14:40:06.000Z</time>
      </trkpt>
      <trkpt lat="48.21191" lon="6.66086">
        <ele>452.20001220703</ele>
        <time>2026-09-03T14:40:07.000Z</time>
      </trkpt>
      <trkpt lat="48.2119" lon="6.66085">
        <ele>452</ele>
        <time>2026-09-03T14:40:08.000Z</time>
      </trkpt>
      <trkpt lat="48.21189" lon="6.66084">
        <ele>451.79998779297</ele>
        <time>2026-09-03T14:40:09.000Z</time>
      </trkpt>
      <trkpt lat="48.21188" lon="6.66083">
        <ele>451.59997558594</ele>
        <time>2026-09-03T14:40:10.000Z</time>
      </trkpt>
      <trkpt lat="48.21187" lon="6.66082">
        <ele>451.40002441406</ele>
        <time>2026-09-03T14:40:11.000Z</time>
      </trkpt>
      <trkpt lat="48.21187" lon="6.6608">
        <ele>451.20001220703</ele>
        <time>2026-09-03T14:40:12.000Z</time>
      </trkpt>
      <trkpt lat="48.21186" lon="6.66079">
        <ele>451</ele>
        <time>2026-09-03T14:40:13.000Z</time>
      </trkpt>
      <trkpt lat="48.21186" lon="6.66078">
        <ele>451</ele>
        <time>2026-09-03T14:40:14.000Z</time>
      </trkpt>
      <trkpt lat="48.21185" lon="6.66078">
        <ele>450.79998779297</ele>
        <time>2026-09-03T14:40:15.000Z</time>
      </trkpt>
      <trkpt lat="48.21184" lon="6.66077">
        <ele>450.79998779297</ele>
        <time>2026-09-03T14:40:16.000Z</time>
      </trkpt>
      <trkpt lat="48.21183" lon="6.66076">
        <ele>450.59997558594</ele>
        <time>2026-09-03T14:40:17.000Z</time>
      </trkpt>
      <trkpt lat="48.21183" lon="6.66075">
        <ele>450.59997558594</ele>
        <time>2026-09-03T14:40:18.000Z</time>
      </trkpt>
      <trkpt lat="48.21182" lon="6.66074">
        <ele>450.40002441406</ele>
        <time>2026-09-03T14:40:19.000Z</time>
      </trkpt>
      <trkpt lat="48.21182" lon="6.66073">
        <ele>450.20001220703</ele>
        <time>2026-09-03T14:40:20.000Z</time>
      </trkpt>
      <trkpt lat="48.21181" lon="6.66072">
        <ele>450</ele>
        <time>2026-09-03T14:40:21.000Z</time>
      </trkpt>
      <trkpt lat="48.21181" lon="6.66072">
        <ele>449.79998779297</ele>
        <time>2026-09-03T14:40:22.000Z</time>
      </trkpt>
      <trkpt lat="48.2118" lon="6.66071">
        <ele>449.79998779297</ele>
        <time>2026-09-03T14:40:23.000Z</time>
      </trkpt>
      <trkpt lat="48.2118" lon="6.66069">
        <ele>449.59997558594</ele>
        <time>2026-09-03T14:40:24.000Z</time>
      </trkpt>
      <trkpt lat="48.21179" lon="6.66068">
        <ele>449.40002441406</ele>
        <time>2026-09-03T14:40:25.000Z</time>
      </trkpt>
      <trkpt lat="48.21178" lon="6.66067">
        <ele>449.40002441406</ele>
        <time>2026-09-03T14:40:26.000Z</time>
      </trkpt>
      <trkpt lat="48.21178" lon="6.66067">
        <ele>449.20001220703</ele>
        <time>2026-09-03T14:40:27.000Z</time>
      </trkpt>
      <trkpt lat="48.21177" lon="6.66066">
        <ele>449</ele>
        <time>2026-09-03T14:40:28.000Z</time>
      </trkpt>
      <trkpt lat="48.21177" lon="6.66065">
        <ele>449</ele>
        <time>2026-09-03T14:40:29.000Z</time>
      </trkpt>
      <trkpt lat="48.21176" lon="6.66064">
        <ele>448.79998779297</ele>
        <time>2026-09-03T14:40:30.000Z</time>
      </trkpt>
      <trkpt lat="48.21175" lon="6.66063">
        <ele>448.79998779297</ele>
        <time>2026-09-03T14:40:31.000Z</time>
      </trkpt>
      <trkpt lat="48.21175" lon="6.66062">
        <ele>448.59997558594</ele>
        <time>2026-09-03T14:40:32.000Z</time>
      </trkpt>
      <trkpt lat="48.21174" lon="6.66061">
        <ele>448.59997558594</ele>
        <time>2026-09-03T14:40:33.000Z</time>
      </trkpt>
      <trkpt lat="48.21173" lon="6.6606">
        <ele>448.40002441406</ele>
        <time>2026-09-03T14:40:34.000Z</time>
      </trkpt>
      <trkpt lat="48.21172" lon="6.66059">
        <ele>448.40002441406</ele>
        <time>2026-09-03T14:40:35.000Z</time>
      </trkpt>
      <trkpt lat="48.21172" lon="6.66059">
        <ele>448.40002441406</ele>
        <time>2026-09-03T14:40:36.000Z</time>
      </trkpt>
      <trkpt lat="48.21171" lon="6.66058">
        <ele>448.20001220703</ele>
        <time>2026-09-03T14:40:37.000Z</time>
      </trkpt>
      <trkpt lat="48.21171" lon="6.66058">
        <ele>448.20001220703</ele>
        <time>2026-09-03T14:40:38.000Z</time>
      </trkpt>
      <trkpt lat="48.2117" lon="6.66058">
        <ele>448.20001220703</ele>
        <time>2026-09-03T14:40:39.000Z</time>
      </trkpt>
      <trkpt lat="48.21168" lon="6.66057">
        <ele>448.20001220703</ele>
        <time>2026-09-03T14:40:40.000Z</time>
      </trkpt>
      <trkpt lat="48.21167" lon="6.66057">
        <ele>448.20001220703</ele>
        <time>2026-09-03T14:40:41.000Z</time>
      </trkpt>
      <trkpt lat="48.21166" lon="6.66056">
        <ele>448</ele>
        <time>2026-09-03T14:40:42.000Z</time>
      </trkpt>
      <trkpt lat="48.21165" lon="6.66056">
        <ele>448</ele>
        <time>2026-09-03T14:40:43.000Z</time>
      </trkpt>
      <trkpt lat="48.21165" lon="6.66056">
        <ele>448</ele>
        <time>2026-09-03T14:40:44.000Z</time>
      </trkpt>
      <trkpt lat="48.21164" lon="6.66056">
        <ele>448</ele>
        <time>2026-09-03T14:40:45.000Z</time>
      </trkpt>
      <trkpt lat="48.21163" lon="6.66056">
        <ele>448</ele>
        <time>2026-09-03T14:40:46.000Z</time>
      </trkpt>
      <trkpt lat="48.21161" lon="6.66056">
        <ele>448</ele>
        <time>2026-09-03T14:40:47.000Z</time>
      </trkpt>
      <trkpt lat="48.2116" lon="6.66056">
        <ele>448</ele>
        <time>2026-09-03T14:40:48.000Z</time>
      </trkpt>
      <trkpt lat="48.21159" lon="6.66056">
        <ele>448.20001220703</ele>
        <time>2026-09-03T14:40:49.000Z</time>
      </trkpt>
      <trkpt lat="48.21158" lon="6.66056">
        <ele>448.20001220703</ele>
        <time>2026-09-03T14:40:50.000Z</time>
      </trkpt>
      <trkpt lat="48.21156" lon="6.66056">
        <ele>448.40002441406</ele>
        <time>2026-09-03T14:40:51.000Z</time>
      </trkpt>
      <trkpt lat="48.21155" lon="6.66055">
        <ele>448.40002441406</ele>
        <time>2026-09-03T14:40:52.000Z</time>
      </trkpt>
      <trkpt lat="48.21154" lon="6.66054">
        <ele>448.59997558594</ele>
        <time>2026-09-03T14:40:53.000Z</time>
      </trkpt>
      <trkpt lat="48.21154" lon="6.66053">
        <ele>448.59997558594</ele>
        <time>2026-09-03T14:40:54.000Z</time>
      </trkpt>
      <trkpt lat="48.21154" lon="6.66052">
        <ele>448.59997558594</ele>
        <time>2026-09-03T14:40:55.000Z</time>
      </trkpt>
      <trkpt lat="48.21155" lon="6.66052">
        <ele>448.59997558594</ele>
        <time>2026-09-03T14:40:56.000Z</time>
      </trkpt>
      <trkpt lat="48.21155" lon="6.66053">
        <ele>448.59997558594</ele>
        <time>2026-09-03T14:40:57.000Z</time>
      </trkpt>
      <trkpt lat="48.21156" lon="6.66053">
        <ele>448.59997558594</ele>
        <time>2026-09-03T14:40:58.000Z</time>
      </trkpt>
      <trkpt lat="48.21156" lon="6.66054">
        <ele>448.59997558594</ele>
        <time>2026-09-03T14:40:59.000Z</time>
      </trkpt>
      <trkpt lat="48.21157" lon="6.66055">
        <ele>448.40002441406</ele>
        <time>2026-09-03T14:41:00.000Z</time>
      </trkpt>
      <trkpt lat="48.21157" lon="6.66055">
        <ele>448.40002441406</ele>
        <time>2026-09-03T14:41:01.000Z</time>
      </trkpt>
      <trkpt lat="48.21157" lon="6.66055">
        <ele>448.20001220703</ele>
        <time>2026-09-03T14:41:02.000Z</time>
      </trkpt>
      <trkpt lat="48.21157" lon="6.66054">
        <ele>447.79998779297</ele>
        <time>2026-09-03T14:41:03.000Z</time>
      </trkpt>
      <trkpt lat="48.21157" lon="6.66054">
        <ele>447.79998779297</ele>
        <time>2026-09-03T14:41:04.000Z</time>
      </trkpt>
      <trkpt lat="48.21157" lon="6.66053">
        <ele>447.59997558594</ele>
        <time>2026-09-03T14:41:05.000Z</time>
      </trkpt>
      <trkpt lat="48.21157" lon="6.66052">
        <ele>447.59997558594</ele>
        <time>2026-09-03T14:41:06.000Z</time>
      </trkpt>
      <trkpt lat="48.21158" lon="6.66051">
        <ele>447.79998779297</ele>
        <time>2026-09-03T14:41:07.000Z</time>
      </trkpt>
      <trkpt lat="48.21157" lon="6.66052">
        <ele>448</ele>
        <time>2026-09-03T14:41:08.000Z</time>
      </trkpt>
      <trkpt lat="48.21157" lon="6.66052">
        <ele>448.20001220703</ele>
        <time>2026-09-03T14:41:09.000Z</time>
      </trkpt>
      <trkpt lat="48.21157" lon="6.66053">
        <ele>448.40002441406</ele>
        <time>2026-09-03T14:41:10.000Z</time>
      </trkpt>
      <trkpt lat="48.21157" lon="6.66053">
        <ele>448.59997558594</ele>
        <time>2026-09-03T14:41:11.000Z</time>
      </trkpt>
      <trkpt lat="48.21156" lon="6.66054">
        <ele>448.59997558594</ele>
        <time>2026-09-03T14:41:12.000Z</time>
      </trkpt>
      <trkpt lat="48.21156" lon="6.66054">
        <ele>448.59997558594</ele>
        <time>2026-09-03T14:41:13.000Z</time>
      </trkpt>
      <trkpt lat="48.21156" lon="6.66054">
        <ele>448.59997558594</ele>
        <time>2026-09-03T14:41:14.000Z</time>
      </trkpt>
      <trkpt lat="48.21156" lon="6.66054">
        <ele>448.40002441406</ele>
        <time>2026-09-03T14:41:15.000Z</time>
      </trkpt>
      <trkpt lat="48.21156" lon="6.66054">
        <ele>448.40002441406</ele>
        <time>2026-09-03T14:41:16.000Z</time>
      </trkpt>
      <trkpt lat="48.21156" lon="6.66055">
        <ele>448.40002441406</ele>
        <time>2026-09-03T14:41:17.000Z</time>
      </trkpt>
      <trkpt lat="48.21155" lon="6.66055">
        <ele>448.40002441406</ele>
        <time>2026-09-03T14:41:18.000Z</time>
      </trkpt>
      <trkpt lat="48.21155" lon="6.66054">
        <ele>448.40002441406</ele>
        <time>2026-09-03T14:41:19.000Z</time>
      </trkpt>
      <trkpt lat="48.21154" lon="6.66054">
        <ele>448.40002441406</ele>
        <time>2026-09-03T14:41:20.000Z</time>
      </trkpt>
      <trkpt lat="48.21153" lon="6.66054">
        <ele>448.59997558594</ele>
        <time>2026-09-03T14:41:21.000Z</time>
      </trkpt>
      <trkpt lat="48.21153" lon="6.66053">
        <ele>448.59997558594</ele>
        <time>2026-09-03T14:41:22.000Z</time>
      </trkpt>
      <trkpt lat="48.21152" lon="6.66053">
        <ele>448.59997558594</ele>
        <time>2026-09-03T14:41:23.000Z</time>
      </trkpt>
      <trkpt lat="48.21152" lon="6.66052">
        <ele>448.59997558594</ele>
        <time>2026-09-03T14:41:24.000Z</time>
      </trkpt>
      <trkpt lat="48.21152" lon="6.66052">
        <ele>448.59997558594</ele>
        <time>2026-09-03T14:41:25.000Z</time>
      </trkpt>
      <trkpt lat="48.21152" lon="6.66052">
        <ele>448.59997558594</ele>
        <time>2026-09-03T14:41:26.000Z</time>
      </trkpt>
      <trkpt lat="48.21152" lon="6.66052">
        <ele>448.59997558594</ele>
        <time>2026-09-03T14:41:27.000Z</time>
      </trkpt>
      <trkpt lat="48.21152" lon="6.66052">
        <ele>448.59997558594</ele>
        <time>2026-09-03T14:41:28.000Z</time>
      </trkpt>
      <trkpt lat="48.21152" lon="6.66052">
        <ele>448.59997558594</ele>
        <time>2026-09-03T14:41:29.000Z</time>
      </trkpt>
      <trkpt lat="48.21152" lon="6.66052">
        <ele>448.79998779297</ele>
        <time>2026-09-03T14:41:30.000Z</time>
      </trkpt>
      <trkpt lat="48.21152" lon="6.66052">
        <ele>448.79998779297</ele>
        <time>2026-09-03T14:41:31.000Z</time>
      </trkpt>
      <trkpt lat="48.21152" lon="6.66052">
        <ele>448.79998779297</ele>
        <time>2026-09-03T14:41:32.000Z</time>
      </trkpt>
      <trkpt lat="48.21151" lon="6.66053">
        <ele>448.59997558594</ele>
        <time>2026-09-03T14:41:33.000Z</time>
      </trkpt>
      <trkpt lat="48.21151" lon="6.66054">
        <ele>448.79998779297</ele>
        <time>2026-09-03T14:41:34.000Z</time>
      </trkpt>
      <trkpt lat="48.21151" lon="6.66055">
        <ele>448.79998779297</ele>
        <time>2026-09-03T14:41:35.000Z</time>
      </trkpt>
      <trkpt lat="48.2115" lon="6.66055">
        <ele>448.79998779297</ele>
        <time>2026-09-03T14:41:36.000Z</time>
      </trkpt>
      <trkpt lat="48.2115" lon="6.66055">
        <ele>448.79998779297</ele>
        <time>2026-09-03T14:41:37.000Z</time>
      </trkpt>
      <trkpt lat="48.21149" lon="6.66055">
        <ele>448.59997558594</ele>
        <time>2026-09-03T14:41:38.000Z</time>
      </trkpt>
      <trkpt lat="48.21149" lon="6.66056">
        <ele>448.59997558594</ele>
        <time>2026-09-03T14:41:39.000Z</time>
      </trkpt>
      <trkpt lat="48.2115" lon="6.66056">
        <ele>448.40002441406</ele>
        <time>2026-09-03T14:41:40.000Z</time>
      </trkpt>
      <trkpt lat="48.21149" lon="6.66056">
        <ele>448.40002441406</ele>
        <time>2026-09-03T14:41:41.000Z</time>
      </trkpt>
      <trkpt lat="48.21148" lon="6.66055">
        <ele>448.59997558594</ele>
        <time>2026-09-03T14:41:42.000Z</time>
      </trkpt>
      <trkpt lat="48.21148" lon="6.66054">
        <ele>448.79998779297</ele>
        <time>2026-09-03T14:41:43.000Z</time>
      </trkpt>
      <trkpt lat="48.21147" lon="6.66054">
        <ele>449</ele>
        <time>2026-09-03T14:41:44.000Z</time>
      </trkpt>
      <trkpt lat="48.21146" lon="6.66054">
        <ele>449.20001220703</ele>
        <time>2026-09-03T14:41:45.000Z</time>
      </trkpt>
      <trkpt lat="48.21146" lon="6.66055">
        <ele>449.40002441406</ele>
        <time>2026-09-03T14:41:46.000Z</time>
      </trkpt>
      <trkpt lat="48.21145" lon="6.66055">
        <ele>449.59997558594</ele>
        <time>2026-09-03T14:41:47.000Z</time>
      </trkpt>
      <trkpt lat="48.21145" lon="6.66054">
        <ele>449.79998779297</ele>
        <time>2026-09-03T14:41:48.000Z</time>
      </trkpt>
      <trkpt lat="48.21145" lon="6.66055">
        <ele>450</ele>
        <time>2026-09-03T14:41:49.000Z</time>
      </trkpt>
      <trkpt lat="48.21144" lon="6.66056">
        <ele>450</ele>
        <time>2026-09-03T14:41:50.000Z</time>
      </trkpt>
      <trkpt lat="48.21144" lon="6.66056">
        <ele>449.79998779297</ele>
        <time>2026-09-03T14:41:51.000Z</time>
      </trkpt>
      <trkpt lat="48.21144" lon="6.66057">
        <ele>449.79998779297</ele>
        <time>2026-09-03T14:41:52.000Z</time>
      </trkpt>
      <trkpt lat="48.21143" lon="6.66059">
        <ele>449.79998779297</ele>
        <time>2026-09-03T14:41:53.000Z</time>
      </trkpt>
      <trkpt lat="48.21143" lon="6.6606">
        <ele>449.79998779297</ele>
        <time>2026-09-03T14:41:54.000Z</time>
      </trkpt>
      <trkpt lat="48.21143" lon="6.66061">
        <ele>449.79998779297</ele>
        <time>2026-09-03T14:41:55.000Z</time>
      </trkpt>
      <trkpt lat="48.21143" lon="6.66062">
        <ele>450</ele>
        <time>2026-09-03T14:41:56.000Z</time>
      </trkpt>
      <trkpt lat="48.21142" lon="6.66063">
        <ele>450</ele>
        <time>2026-09-03T14:41:57.000Z</time>
      </trkpt>
      <trkpt lat="48.21142" lon="6.66064">
        <ele>450.20001220703</ele>
        <time>2026-09-03T14:41:58.000Z</time>
      </trkpt>
      <trkpt lat="48.21141" lon="6.66065">
        <ele>450.40002441406</ele>
        <time>2026-09-03T14:41:59.000Z</time>
      </trkpt>
      <trkpt lat="48.21141" lon="6.66065">
        <ele>450.40002441406</ele>
        <time>2026-09-03T14:42:00.000Z</time>
      </trkpt>
      <trkpt lat="48.2114" lon="6.66066">
        <ele>450.40002441406</ele>
        <time>2026-09-03T14:42:01.000Z</time>
      </trkpt>
      <trkpt lat="48.21139" lon="6.66066">
        <ele>450.40002441406</ele>
        <time>2026-09-03T14:42:02.000Z</time>
      </trkpt>
      <trkpt lat="48.21139" lon="6.66067">
        <ele>450.59997558594</ele>
        <time>2026-09-03T14:42:03.000Z</time>
      </trkpt>
      <trkpt lat="48.21138" lon="6.66068">
        <ele>450.59997558594</ele>
        <time>2026-09-03T14:42:04.000Z</time>
      </trkpt>
      <trkpt lat="48.21137" lon="6.66068">
        <ele>450.59997558594</ele>
        <time>2026-09-03T14:42:05.000Z</time>
      </trkpt>
      <trkpt lat="48.21136" lon="6.66069">
        <ele>450.79998779297</ele>
        <time>2026-09-03T14:42:06.000Z</time>
      </trkpt>
      <trkpt lat="48.21135" lon="6.6607">
        <ele>450.79998779297</ele>
        <time>2026-09-03T14:42:07.000Z</time>
      </trkpt>
      <trkpt lat="48.21135" lon="6.66071">
        <ele>451</ele>
        <time>2026-09-03T14:42:08.000Z</time>
      </trkpt>
      <trkpt lat="48.21134" lon="6.66071">
        <ele>451.20001220703</ele>
        <time>2026-09-03T14:42:09.000Z</time>
      </trkpt>
      <trkpt lat="48.21133" lon="6.66072">
        <ele>451.20001220703</ele>
        <time>2026-09-03T14:42:10.000Z</time>
      </trkpt>
      <trkpt lat="48.21132" lon="6.66074">
        <ele>451.40002441406</ele>
        <time>2026-09-03T14:42:11.000Z</time>
      </trkpt>
      <trkpt lat="48.21131" lon="6.66074">
        <ele>451.40002441406</ele>
        <time>2026-09-03T14:42:12.000Z</time>
      </trkpt>
      <trkpt lat="48.2113" lon="6.66075">
        <ele>451.59997558594</ele>
        <time>2026-09-03T14:42:13.000Z</time>
      </trkpt>
      <trkpt lat="48.21129" lon="6.66077">
        <ele>451.59997558594</ele>
        <time>2026-09-03T14:42:14.000Z</time>
      </trkpt>
      <trkpt lat="48.21129" lon="6.66078">
        <ele>451.79998779297</ele>
        <time>2026-09-03T14:42:15.000Z</time>
      </trkpt>
      <trkpt lat="48.21128" lon="6.66079">
        <ele>451.79998779297</ele>
        <time>2026-09-03T14:42:16.000Z</time>
      </trkpt>
      <trkpt lat="48.21128" lon="6.66079">
        <ele>451.79998779297</ele>
        <time>2026-09-03T14:42:17.000Z</time>
      </trkpt>
      <trkpt lat="48.21127" lon="6.6608">
        <ele>452</ele>
        <time>2026-09-03T14:42:18.000Z</time>
      </trkpt>
      <trkpt lat="48.21126" lon="6.66081">
        <ele>452</ele>
        <time>2026-09-03T14:42:19.000Z</time>
      </trkpt>
      <trkpt lat="48.21125" lon="6.66082">
        <ele>452</ele>
        <time>2026-09-03T14:42:20.000Z</time>
      </trkpt>
      <trkpt lat="48.21125" lon="6.66083">
        <ele>452.20001220703</ele>
        <time>2026-09-03T14:42:21.000Z</time>
      </trkpt>
      <trkpt lat="48.21124" lon="6.66084">
        <ele>452.20001220703</ele>
        <time>2026-09-03T14:42:22.000Z</time>
      </trkpt>
      <trkpt lat="48.21123" lon="6.66085">
        <ele>452.40002441406</ele>
        <time>2026-09-03T14:42:23.000Z</time>
      </trkpt>
      <trkpt lat="48.21122" lon="6.66085">
        <ele>452.40002441406</ele>
        <time>2026-09-03T14:42:24.000Z</time>
      </trkpt>
      <trkpt lat="48.21122" lon="6.66086">
        <ele>452.40002441406</ele>
        <time>2026-09-03T14:42:25.000Z</time>
      </trkpt>
      <trkpt lat="48.21121" lon="6.66087">
        <ele>452.59997558594</ele>
        <time>2026-09-03T14:42:26.000Z</time>
      </trkpt>
      <trkpt lat="48.2112" lon="6.66088">
        <ele>452.59997558594</ele>
        <time>2026-09-03T14:42:27.000Z</time>
      </trkpt>
      <trkpt lat="48.2112" lon="6.66089">
        <ele>452.79998779297</ele>
        <time>2026-09-03T14:42:28.000Z</time>
      </trkpt>
      <trkpt lat="48.21119" lon="6.6609">
        <ele>452.79998779297</ele>
        <time>2026-09-03T14:42:29.000Z</time>
      </trkpt>
      <trkpt lat="48.21118" lon="6.66092">
        <ele>453</ele>
        <time>2026-09-03T14:42:30.000Z</time>
      </trkpt>
      <trkpt lat="48.21116" lon="6.66093">
        <ele>453</ele>
        <time>2026-09-03T14:42:31.000Z</time>
      </trkpt>
      <trkpt lat="48.21116" lon="6.66094">
        <ele>453.20001220703</ele>
        <time>2026-09-03T14:42:32.000Z</time>
      </trkpt>
      <trkpt lat="48.21115" lon="6.66095">
        <ele>453.20001220703</ele>
        <time>2026-09-03T14:42:33.000Z</time>
      </trkpt>
      <trkpt lat="48.21114" lon="6.66097">
        <ele>453.20001220703</ele>
        <time>2026-09-03T14:42:34.000Z</time>
      </trkpt>
      <trkpt lat="48.21113" lon="6.66098">
        <ele>453.40002441406</ele>
        <time>2026-09-03T14:42:35.000Z</time>
      </trkpt>
      <trkpt lat="48.21113" lon="6.66099">
        <ele>453.40002441406</ele>
        <time>2026-09-03T14:42:36.000Z</time>
      </trkpt>
      <trkpt lat="48.21112" lon="6.661">
        <ele>453.40002441406</ele>
        <time>2026-09-03T14:42:37.000Z</time>
      </trkpt>
      <trkpt lat="48.21112" lon="6.66101">
        <ele>453.59997558594</ele>
        <time>2026-09-03T14:42:38.000Z</time>
      </trkpt>
      <trkpt lat="48.21112" lon="6.66101">
        <ele>453.59997558594</ele>
        <time>2026-09-03T14:42:39.000Z</time>
      </trkpt>
      <trkpt lat="48.21112" lon="6.66101">
        <ele>453.59997558594</ele>
        <time>2026-09-03T14:42:40.000Z</time>
      </trkpt>
      <trkpt lat="48.21112" lon="6.66101">
        <ele>453.59997558594</ele>
        <time>2026-09-03T14:42:41.000Z</time>
      </trkpt>
      <trkpt lat="48.21112" lon="6.66101">
        <ele>453.59997558594</ele>
        <time>2026-09-03T14:42:42.000Z</time>
      </trkpt>
      <trkpt lat="48.21112" lon="6.66101">
        <ele>453.79998779297</ele>
        <time>2026-09-03T14:42:43.000Z</time>
      </trkpt>
      <trkpt lat="48.21112" lon="6.66101">
        <ele>453.79998779297</ele>
        <time>2026-09-03T14:42:44.000Z</time>
      </trkpt>
      <trkpt lat="48.21112" lon="6.66101">
        <ele>453.79998779297</ele>
        <time>2026-09-03T14:42:45.000Z</time>
      </trkpt>
      <trkpt lat="48.21112" lon="6.66101">
        <ele>454</ele>
        <time>2026-09-03T14:42:46.000Z</time>
      </trkpt>
      <trkpt lat="48.21112" lon="6.66102">
        <ele>454</ele>
        <time>2026-09-03T14:42:47.000Z</time>
      </trkpt>
      <trkpt lat="48.21111" lon="6.66103">
        <ele>454</ele>
        <time>2026-09-03T14:42:48.000Z</time>
      </trkpt>
      <trkpt lat="48.2111" lon="6.66104">
        <ele>454</ele>
        <time>2026-09-03T14:42:49.000Z</time>
      </trkpt>
      <trkpt lat="48.21109" lon="6.66104">
        <ele>454</ele>
        <time>2026-09-03T14:42:50.000Z</time>
      </trkpt>
      <trkpt lat="48.21109" lon="6.66104">
        <ele>454</ele>
        <time>2026-09-03T14:42:51.000Z</time>
      </trkpt>
      <trkpt lat="48.21108" lon="6.66103">
        <ele>454</ele>
        <time>2026-09-03T14:42:52.000Z</time>
      </trkpt>
      <trkpt lat="48.21108" lon="6.66104">
        <ele>454</ele>
        <time>2026-09-03T14:42:53.000Z</time>
      </trkpt>
      <trkpt lat="48.21108" lon="6.66104">
        <ele>454.20001220703</ele>
        <time>2026-09-03T14:42:54.000Z</time>
      </trkpt>
      <trkpt lat="48.21108" lon="6.66104">
        <ele>454.20001220703</ele>
        <time>2026-09-03T14:42:55.000Z</time>
      </trkpt>
      <trkpt lat="48.21108" lon="6.66104">
        <ele>454.20001220703</ele>
        <time>2026-09-03T14:42:56.000Z</time>
      </trkpt>
      <trkpt lat="48.21108" lon="6.66104">
        <ele>454.20001220703</ele>
        <time>2026-09-03T14:42:57.000Z</time>
      </trkpt>
      <trkpt lat="48.21108" lon="6.66104">
        <ele>454.20001220703</ele>
        <time>2026-09-03T14:42:58.000Z</time>
      </trkpt>
      <trkpt lat="48.21108" lon="6.66104">
        <ele>454.20001220703</ele>
        <time>2026-09-03T14:42:59.000Z</time>
      </trkpt>
      <trkpt lat="48.21108" lon="6.66104">
        <ele>454.20001220703</ele>
        <time>2026-09-03T14:43:00.000Z</time>
      </trkpt>
      <trkpt lat="48.21108" lon="6.66104">
        <ele>454.20001220703</ele>
        <time>2026-09-03T14:43:01.000Z</time>
      </trkpt>
      <trkpt lat="48.21108" lon="6.66104">
        <ele>454.20001220703</ele>
        <time>2026-09-03T14:43:02.000Z</time>
      </trkpt>
      <trkpt lat="48.21108" lon="6.66104">
        <ele>454.20001220703</ele>
        <time>2026-09-03T14:43:03.000Z</time>
      </trkpt>
      <trkpt lat="48.21108" lon="6.66103">
        <ele>454.20001220703</ele>
        <time>2026-09-03T14:43:04.000Z</time>
      </trkpt>
      <trkpt lat="48.21108" lon="6.66103">
        <ele>454.40002441406</ele>
        <time>2026-09-03T14:43:05.000Z</time>
      </trkpt>
      <trkpt lat="48.21109" lon="6.66103">
        <ele>454.20001220703</ele>
        <time>2026-09-03T14:43:06.000Z</time>
      </trkpt>
      <trkpt lat="48.21109" lon="6.66102">
        <ele>454.20001220703</ele>
        <time>2026-09-03T14:43:07.000Z</time>
      </trkpt>
      <trkpt lat="48.2111" lon="6.66101">
        <ele>454</ele>
        <time>2026-09-03T14:43:08.000Z</time>
      </trkpt>
      <trkpt lat="48.2111" lon="6.66101">
        <ele>453.79998779297</ele>
        <time>2026-09-03T14:43:09.000Z</time>
      </trkpt>
      <trkpt lat="48.2111" lon="6.661">
        <ele>453.59997558594</ele>
        <time>2026-09-03T14:43:10.000Z</time>
      </trkpt>
      <trkpt lat="48.2111" lon="6.661">
        <ele>453.59997558594</ele>
        <time>2026-09-03T14:43:11.000Z</time>
      </trkpt>
      <trkpt lat="48.2111" lon="6.661">
        <ele>453.40002441406</ele>
        <time>2026-09-03T14:43:12.000Z</time>
      </trkpt>
      <trkpt lat="48.2111" lon="6.661">
        <ele>453.40002441406</ele>
        <time>2026-09-03T14:43:13.000Z</time>
      </trkpt>
      <trkpt lat="48.2111" lon="6.661">
        <ele>453.40002441406</ele>
        <time>2026-09-03T14:43:14.000Z</time>
      </trkpt>
      <trkpt lat="48.2111" lon="6.661">
        <ele>453.40002441406</ele>
        <time>2026-09-03T14:43:15.000Z</time>
      </trkpt>
      <trkpt lat="48.2111" lon="6.661">
        <ele>453.40002441406</ele>
        <time>2026-09-03T14:43:16.000Z</time>
      </trkpt>
      <trkpt lat="48.2111" lon="6.661">
        <ele>453.40002441406</ele>
        <time>2026-09-03T14:43:17.000Z</time>
      </trkpt>
      <trkpt lat="48.2111" lon="6.661">
        <ele>453.59997558594</ele>
        <time>2026-09-03T14:43:18.000Z</time>
      </trkpt>
      <trkpt lat="48.2111" lon="6.661">
        <ele>453.59997558594</ele>
        <time>2026-09-03T14:43:19.000Z</time>
      </trkpt>
      <trkpt lat="48.2111" lon="6.661">
        <ele>453.59997558594</ele>
        <time>2026-09-03T14:43:20.000Z</time>
      </trkpt>
      <trkpt lat="48.2111" lon="6.661">
        <ele>453.59997558594</ele>
        <time>2026-09-03T14:43:21.000Z</time>
      </trkpt>
      <trkpt lat="48.2111" lon="6.661">
        <ele>453.59997558594</ele>
        <time>2026-09-03T14:43:22.000Z</time>
      </trkpt>
      <trkpt lat="48.2111" lon="6.661">
        <ele>453.59997558594</ele>
        <time>2026-09-03T14:43:23.000Z</time>
      </trkpt>
      <trkpt lat="48.2111" lon="6.661">
        <ele>453.59997558594</ele>
        <time>2026-09-03T14:43:24.000Z</time>
      </trkpt>
      <trkpt lat="48.2111" lon="6.661">
        <ele>453.59997558594</ele>
        <time>2026-09-03T14:43:25.000Z</time>
      </trkpt>
      <trkpt lat="48.2111" lon="6.661">
        <ele>453.59997558594</ele>
        <time>2026-09-03T14:43:26.000Z</time>
      </trkpt>
      <trkpt lat="48.2111" lon="6.661">
        <ele>453.59997558594</ele>
        <time>2026-09-03T14:43:27.000Z</time>
      </trkpt>
      <trkpt lat="48.2111" lon="6.661">
        <ele>453.59997558594</ele>
        <time>2026-09-03T14:43:28.000Z</time>
      </trkpt>
      <trkpt lat="48.2111" lon="6.661">
        <ele>453.59997558594</ele>
        <time>2026-09-03T14:43:29.000Z</time>
      </trkpt>
      <trkpt lat="48.2111" lon="6.661">
        <ele>453.59997558594</ele>
        <time>2026-09-03T14:43:30.000Z</time>
      </trkpt>
      <trkpt lat="48.2111" lon="6.661">
        <ele>453.59997558594</ele>
        <time>2026-09-03T14:43:31.000Z</time>
      </trkpt>
      <trkpt lat="48.2111" lon="6.661">
        <ele>453.59997558594</ele>
        <time>2026-09-03T14:43:32.000Z</time>
      </trkpt>
      <trkpt lat="48.2111" lon="6.661">
        <ele>453.59997558594</ele>
        <time>2026-09-03T14:43:33.000Z</time>
      </trkpt>
      <trkpt lat="48.2111" lon="6.661">
        <ele>453.40002441406</ele>
        <time>2026-09-03T14:43:34.000Z</time>
      </trkpt>
      <trkpt lat="48.2111" lon="6.661">
        <ele>453.40002441406</ele>
        <time>2026-09-03T14:43:35.000Z</time>
      </trkpt>
      <trkpt lat="48.21109" lon="6.66101">
        <ele>453.59997558594</ele>
        <time>2026-09-03T14:43:36.000Z</time>
      </trkpt>
      <trkpt lat="48.21108" lon="6.66103">
        <ele>453.59997558594</ele>
        <time>2026-09-03T14:43:37.000Z</time>
      </trkpt>
      <trkpt lat="48.21107" lon="6.66105">
        <ele>453.79998779297</ele>
        <time>2026-09-03T14:43:38.000Z</time>
      </trkpt>
      <trkpt lat="48.21106" lon="6.66106">
        <ele>454</ele>
        <time>2026-09-03T14:43:39.000Z</time>
      </trkpt>
      <trkpt lat="48.21106" lon="6.66106">
        <ele>454</ele>
        <time>2026-09-03T14:43:40.000Z</time>
      </trkpt>
      <trkpt lat="48.21106" lon="6.66107">
        <ele>454</ele>
        <time>2026-09-03T14:43:41.000Z</time>
      </trkpt>
      <trkpt lat="48.21105" lon="6.66108">
        <ele>454</ele>
        <time>2026-09-03T14:43:42.000Z</time>
      </trkpt>
      <trkpt lat="48.21104" lon="6.66109">
        <ele>454.20001220703</ele>
        <time>2026-09-03T14:43:43.000Z</time>
      </trkpt>
      <trkpt lat="48.21104" lon="6.66109">
        <ele>454.40002441406</ele>
        <time>2026-09-03T14:43:44.000Z</time>
      </trkpt>
      <trkpt lat="48.21104" lon="6.6611">
        <ele>454.59997558594</ele>
        <time>2026-09-03T14:43:45.000Z</time>
      </trkpt>
      <trkpt lat="48.21103" lon="6.66111">
        <ele>455</ele>
        <time>2026-09-03T14:43:46.000Z</time>
      </trkpt>
      <trkpt lat="48.21103" lon="6.66111">
        <ele>455.20001220703</ele>
        <time>2026-09-03T14:43:47.000Z</time>
      </trkpt>
      <trkpt lat="48.21102" lon="6.66112">
        <ele>455.20001220703</ele>
        <time>2026-09-03T14:43:48.000Z</time>
      </trkpt>
      <trkpt lat="48.21102" lon="6.66113">
        <ele>455.40002441406</ele>
        <time>2026-09-03T14:43:49.000Z</time>
      </trkpt>
      <trkpt lat="48.21102" lon="6.66114">
        <ele>455.40002441406</ele>
        <time>2026-09-03T14:43:50.000Z</time>
      </trkpt>
      <trkpt lat="48.21102" lon="6.66115">
        <ele>455.40002441406</ele>
        <time>2026-09-03T14:43:51.000Z</time>
      </trkpt>
      <trkpt lat="48.21102" lon="6.66116">
        <ele>455.40002441406</ele>
        <time>2026-09-03T14:43:52.000Z</time>
      </trkpt>
      <trkpt lat="48.21102" lon="6.66116">
        <ele>455.59997558594</ele>
        <time>2026-09-03T14:43:53.000Z</time>
      </trkpt>
      <trkpt lat="48.21102" lon="6.66118">
        <ele>455.59997558594</ele>
        <time>2026-09-03T14:43:54.000Z</time>
      </trkpt>
      <trkpt lat="48.21102" lon="6.66118">
        <ele>455.59997558594</ele>
        <time>2026-09-03T14:43:55.000Z</time>
      </trkpt>
      <trkpt lat="48.21102" lon="6.66119">
        <ele>455.79998779297</ele>
        <time>2026-09-03T14:43:56.000Z</time>
      </trkpt>
      <trkpt lat="48.21102" lon="6.6612">
        <ele>455.79998779297</ele>
        <time>2026-09-03T14:43:57.000Z</time>
      </trkpt>
      <trkpt lat="48.21102" lon="6.66122">
        <ele>455.79998779297</ele>
        <time>2026-09-03T14:43:58.000Z</time>
      </trkpt>
      <trkpt lat="48.21103" lon="6.66124">
        <ele>455.79998779297</ele>
        <time>2026-09-03T14:43:59.000Z</time>
      </trkpt>
      <trkpt lat="48.21102" lon="6.66125">
        <ele>455.79998779297</ele>
        <time>2026-09-03T14:44:00.000Z</time>
      </trkpt>
      <trkpt lat="48.21102" lon="6.66127">
        <ele>455.79998779297</ele>
        <time>2026-09-03T14:44:01.000Z</time>
      </trkpt>
      <trkpt lat="48.21101" lon="6.66129">
        <ele>455.59997558594</ele>
        <time>2026-09-03T14:44:02.000Z</time>
      </trkpt>
      <trkpt lat="48.21101" lon="6.66129">
        <ele>455.59997558594</ele>
        <time>2026-09-03T14:44:03.000Z</time>
      </trkpt>
      <trkpt lat="48.21101" lon="6.6613">
        <ele>455.59997558594</ele>
        <time>2026-09-03T14:44:04.000Z</time>
      </trkpt>
      <trkpt lat="48.21101" lon="6.66131">
        <ele>455.59997558594</ele>
        <time>2026-09-03T14:44:05.000Z</time>
      </trkpt>
      <trkpt lat="48.211" lon="6.66133">
        <ele>455.59997558594</ele>
        <time>2026-09-03T14:44:06.000Z</time>
      </trkpt>
      <trkpt lat="48.211" lon="6.66134">
        <ele>455.79998779297</ele>
        <time>2026-09-03T14:44:07.000Z</time>
      </trkpt>
      <trkpt lat="48.21099" lon="6.66135">
        <ele>455.79998779297</ele>
        <time>2026-09-03T14:44:08.000Z</time>
      </trkpt>
      <trkpt lat="48.21098" lon="6.66136">
        <ele>456</ele>
        <time>2026-09-03T14:44:09.000Z</time>
      </trkpt>
      <trkpt lat="48.21098" lon="6.66136">
        <ele>456</ele>
        <time>2026-09-03T14:44:10.000Z</time>
      </trkpt>
      <trkpt lat="48.21097" lon="6.66138">
        <ele>456.20001220703</ele>
        <time>2026-09-03T14:44:11.000Z</time>
      </trkpt>
      <trkpt lat="48.21096" lon="6.66139">
        <ele>456.20001220703</ele>
        <time>2026-09-03T14:44:12.000Z</time>
      </trkpt>
      <trkpt lat="48.21095" lon="6.6614">
        <ele>456.20001220703</ele>
        <time>2026-09-03T14:44:13.000Z</time>
      </trkpt>
      <trkpt lat="48.21095" lon="6.66141">
        <ele>456.20001220703</ele>
        <time>2026-09-03T14:44:14.000Z</time>
      </trkpt>
      <trkpt lat="48.21093" lon="6.66142">
        <ele>456.40002441406</ele>
        <time>2026-09-03T14:44:15.000Z</time>
      </trkpt>
      <trkpt lat="48.21092" lon="6.66142">
        <ele>456.59997558594</ele>
        <time>2026-09-03T14:44:16.000Z</time>
      </trkpt>
      <trkpt lat="48.21091" lon="6.66143">
        <ele>456.79998779297</ele>
        <time>2026-09-03T14:44:17.000Z</time>
      </trkpt>
      <trkpt lat="48.2109" lon="6.66144">
        <ele>456.79998779297</ele>
        <time>2026-09-03T14:44:18.000Z</time>
      </trkpt>
      <trkpt lat="48.21088" lon="6.66144">
        <ele>457</ele>
        <time>2026-09-03T14:44:19.000Z</time>
      </trkpt>
      <trkpt lat="48.21087" lon="6.66144">
        <ele>457</ele>
        <time>2026-09-03T14:44:20.000Z</time>
      </trkpt>
      <trkpt lat="48.21086" lon="6.66144">
        <ele>457.20001220703</ele>
        <time>2026-09-03T14:44:21.000Z</time>
      </trkpt>
      <trkpt lat="48.21085" lon="6.66144">
        <ele>457.20001220703</ele>
        <time>2026-09-03T14:44:22.000Z</time>
      </trkpt>
      <trkpt lat="48.21084" lon="6.66145">
        <ele>457.40002441406</ele>
        <time>2026-09-03T14:44:23.000Z</time>
      </trkpt>
      <trkpt lat="48.21083" lon="6.66145">
        <ele>457.59997558594</ele>
        <time>2026-09-03T14:44:24.000Z</time>
      </trkpt>
      <trkpt lat="48.21082" lon="6.66145">
        <ele>457.79998779297</ele>
        <time>2026-09-03T14:44:25.000Z</time>
      </trkpt>
      <trkpt lat="48.21082" lon="6.66146">
        <ele>457.79998779297</ele>
        <time>2026-09-03T14:44:26.000Z</time>
      </trkpt>
      <trkpt lat="48.21081" lon="6.66147">
        <ele>458</ele>
        <time>2026-09-03T14:44:27.000Z</time>
      </trkpt>
      <trkpt lat="48.21081" lon="6.66147">
        <ele>458</ele>
        <time>2026-09-03T14:44:28.000Z</time>
      </trkpt>
      <trkpt lat="48.2108" lon="6.66148">
        <ele>458</ele>
        <time>2026-09-03T14:44:29.000Z</time>
      </trkpt>
      <trkpt lat="48.21079" lon="6.66148">
        <ele>458.20001220703</ele>
        <time>2026-09-03T14:44:30.000Z</time>
      </trkpt>
      <trkpt lat="48.21078" lon="6.66148">
        <ele>458.20001220703</ele>
        <time>2026-09-03T14:44:31.000Z</time>
      </trkpt>
      <trkpt lat="48.21077" lon="6.66149">
        <ele>458</ele>
        <time>2026-09-03T14:44:32.000Z</time>
      </trkpt>
      <trkpt lat="48.21076" lon="6.6615">
        <ele>458</ele>
        <time>2026-09-03T14:44:33.000Z</time>
      </trkpt>
      <trkpt lat="48.21075" lon="6.6615">
        <ele>458.20001220703</ele>
        <time>2026-09-03T14:44:34.000Z</time>
      </trkpt>
      <trkpt lat="48.21075" lon="6.6615">
        <ele>458.40002441406</ele>
        <time>2026-09-03T14:44:35.000Z</time>
      </trkpt>
      <trkpt lat="48.21074" lon="6.6615">
        <ele>458.40002441406</ele>
        <time>2026-09-03T14:44:36.000Z</time>
      </trkpt>
      <trkpt lat="48.21073" lon="6.6615">
        <ele>458.40002441406</ele>
        <time>2026-09-03T14:44:37.000Z</time>
      </trkpt>
      <trkpt lat="48.21072" lon="6.66151">
        <ele>458.59997558594</ele>
        <time>2026-09-03T14:44:38.000Z</time>
      </trkpt>
      <trkpt lat="48.21071" lon="6.66151">
        <ele>458.59997558594</ele>
        <time>2026-09-03T14:44:39.000Z</time>
      </trkpt>
      <trkpt lat="48.21069" lon="6.66151">
        <ele>458.79998779297</ele>
        <time>2026-09-03T14:44:40.000Z</time>
      </trkpt>
      <trkpt lat="48.21068" lon="6.66151">
        <ele>459</ele>
        <time>2026-09-03T14:44:41.000Z</time>
      </trkpt>
      <trkpt lat="48.21067" lon="6.66152">
        <ele>459.20001220703</ele>
        <time>2026-09-03T14:44:42.000Z</time>
      </trkpt>
      <trkpt lat="48.21065" lon="6.66153">
        <ele>459.40002441406</ele>
        <time>2026-09-03T14:44:43.000Z</time>
      </trkpt>
      <trkpt lat="48.21064" lon="6.66153">
        <ele>459.59997558594</ele>
        <time>2026-09-03T14:44:44.000Z</time>
      </trkpt>
      <trkpt lat="48.21064" lon="6.66154">
        <ele>459.79998779297</ele>
        <time>2026-09-03T14:44:45.000Z</time>
      </trkpt>
      <trkpt lat="48.21064" lon="6.66154">
        <ele>459.79998779297</ele>
        <time>2026-09-03T14:44:46.000Z</time>
      </trkpt>
      <trkpt lat="48.21064" lon="6.66154">
        <ele>460</ele>
        <time>2026-09-03T14:44:47.000Z</time>
      </trkpt>
      <trkpt lat="48.21063" lon="6.66155">
        <ele>460</ele>
        <time>2026-09-03T14:44:48.000Z</time>
      </trkpt>
      <trkpt lat="48.21063" lon="6.66155">
        <ele>460</ele>
        <time>2026-09-03T14:44:49.000Z</time>
      </trkpt>
      <trkpt lat="48.21063" lon="6.66156">
        <ele>460</ele>
        <time>2026-09-03T14:44:50.000Z</time>
      </trkpt>
      <trkpt lat="48.21062" lon="6.66157">
        <ele>460</ele>
        <time>2026-09-03T14:44:51.000Z</time>
      </trkpt>
      <trkpt lat="48.21061" lon="6.66157">
        <ele>460.20001220703</ele>
        <time>2026-09-03T14:44:52.000Z</time>
      </trkpt>
      <trkpt lat="48.2106" lon="6.66157">
        <ele>460.20001220703</ele>
        <time>2026-09-03T14:44:53.000Z</time>
      </trkpt>
      <trkpt lat="48.21059" lon="6.66158">
        <ele>460.40002441406</ele>
        <time>2026-09-03T14:44:54.000Z</time>
      </trkpt>
      <trkpt lat="48.21058" lon="6.66158">
        <ele>460.40002441406</ele>
        <time>2026-09-03T14:44:55.000Z</time>
      </trkpt>
      <trkpt lat="48.21057" lon="6.66158">
        <ele>460.59997558594</ele>
        <time>2026-09-03T14:44:56.000Z</time>
      </trkpt>
      <trkpt lat="48.21056" lon="6.66158">
        <ele>460.79998779297</ele>
        <time>2026-09-03T14:44:57.000Z</time>
      </trkpt>
      <trkpt lat="48.21056" lon="6.66159">
        <ele>460.79998779297</ele>
        <time>2026-09-03T14:44:58.000Z</time>
      </trkpt>
      <trkpt lat="48.21055" lon="6.66159">
        <ele>461</ele>
        <time>2026-09-03T14:44:59.000Z</time>
      </trkpt>
      <trkpt lat="48.21055" lon="6.6616">
        <ele>461</ele>
        <time>2026-09-03T14:45:00.000Z</time>
      </trkpt>
      <trkpt lat="48.21054" lon="6.66161">
        <ele>461.20001220703</ele>
        <time>2026-09-03T14:45:01.000Z</time>
      </trkpt>
      <trkpt lat="48.21053" lon="6.66161">
        <ele>461.20001220703</ele>
        <time>2026-09-03T14:45:02.000Z</time>
      </trkpt>
      <trkpt lat="48.21052" lon="6.66162">
        <ele>461.20001220703</ele>
        <time>2026-09-03T14:45:03.000Z</time>
      </trkpt>
      <trkpt lat="48.21052" lon="6.66162">
        <ele>461.40002441406</ele>
        <time>2026-09-03T14:45:04.000Z</time>
      </trkpt>
      <trkpt lat="48.21051" lon="6.66162">
        <ele>461.40002441406</ele>
        <time>2026-09-03T14:45:05.000Z</time>
      </trkpt>
      <trkpt lat="48.2105" lon="6.66163">
        <ele>461.59997558594</ele>
        <time>2026-09-03T14:45:06.000Z</time>
      </trkpt>
      <trkpt lat="48.2105" lon="6.66164">
        <ele>461.79998779297</ele>
        <time>2026-09-03T14:45:07.000Z</time>
      </trkpt>
      <trkpt lat="48.2105" lon="6.66163">
        <ele>461.79998779297</ele>
        <time>2026-09-03T14:45:08.000Z</time>
      </trkpt>
      <trkpt lat="48.21049" lon="6.66164">
        <ele>462</ele>
        <time>2026-09-03T14:45:09.000Z</time>
      </trkpt>
      <trkpt lat="48.21048" lon="6.66165">
        <ele>462</ele>
        <time>2026-09-03T14:45:10.000Z</time>
      </trkpt>
      <trkpt lat="48.21048" lon="6.66165">
        <ele>462</ele>
        <time>2026-09-03T14:45:11.000Z</time>
      </trkpt>
      <trkpt lat="48.21047" lon="6.66166">
        <ele>462.20001220703</ele>
        <time>2026-09-03T14:45:12.000Z</time>
      </trkpt>
      <trkpt lat="48.21046" lon="6.66166">
        <ele>462.20001220703</ele>
        <time>2026-09-03T14:45:13.000Z</time>
      </trkpt>
      <trkpt lat="48.21045" lon="6.66166">
        <ele>462.20001220703</ele>
        <time>2026-09-03T14:45:14.000Z</time>
      </trkpt>
      <trkpt lat="48.21045" lon="6.66166">
        <ele>462.40002441406</ele>
        <time>2026-09-03T14:45:15.000Z</time>
      </trkpt>
      <trkpt lat="48.21045" lon="6.66166">
        <ele>462.40002441406</ele>
        <time>2026-09-03T14:45:16.000Z</time>
      </trkpt>
      <trkpt lat="48.21045" lon="6.66166">
        <ele>462.59997558594</ele>
        <time>2026-09-03T14:45:17.000Z</time>
      </trkpt>
      <trkpt lat="48.21045" lon="6.66167">
        <ele>462.79998779297</ele>
        <time>2026-09-03T14:45:18.000Z</time>
      </trkpt>
      <trkpt lat="48.21046" lon="6.66167">
        <ele>463</ele>
        <time>2026-09-03T14:45:19.000Z</time>
      </trkpt>
      <trkpt lat="48.21046" lon="6.66168">
        <ele>463</ele>
        <time>2026-09-03T14:45:20.000Z</time>
      </trkpt>
      <trkpt lat="48.21045" lon="6.66168">
        <ele>463.20001220703</ele>
        <time>2026-09-03T14:45:21.000Z</time>
      </trkpt>
      <trkpt lat="48.21045" lon="6.66168">
        <ele>463.20001220703</ele>
        <time>2026-09-03T14:45:22.000Z</time>
      </trkpt>
      <trkpt lat="48.21045" lon="6.66168">
        <ele>463.20001220703</ele>
        <time>2026-09-03T14:45:23.000Z</time>
      </trkpt>
      <trkpt lat="48.21044" lon="6.66169">
        <ele>463.20001220703</ele>
        <time>2026-09-03T14:45:24.000Z</time>
      </trkpt>
      <trkpt lat="48.21044" lon="6.66169">
        <ele>463.20001220703</ele>
        <time>2026-09-03T14:45:25.000Z</time>
      </trkpt>
      <trkpt lat="48.21044" lon="6.66169">
        <ele>463.20001220703</ele>
        <time>2026-09-03T14:45:26.000Z</time>
      </trkpt>
      <trkpt lat="48.21044" lon="6.66169">
        <ele>463.40002441406</ele>
        <time>2026-09-03T14:45:27.000Z</time>
      </trkpt>
      <trkpt lat="48.21044" lon="6.66169">
        <ele>463.40002441406</ele>
        <time>2026-09-03T14:45:28.000Z</time>
      </trkpt>
      <trkpt lat="48.21044" lon="6.6617">
        <ele>463.20001220703</ele>
        <time>2026-09-03T14:45:29.000Z</time>
      </trkpt>
      <trkpt lat="48.21044" lon="6.66171">
        <ele>463.20001220703</ele>
        <time>2026-09-03T14:45:30.000Z</time>
      </trkpt>
      <trkpt lat="48.21044" lon="6.66171">
        <ele>463.20001220703</ele>
        <time>2026-09-03T14:45:31.000Z</time>
      </trkpt>
      <trkpt lat="48.21044" lon="6.66171">
        <ele>463.20001220703</ele>
        <time>2026-09-03T14:45:32.000Z</time>
      </trkpt>
      <trkpt lat="48.21044" lon="6.66171">
        <ele>463.40002441406</ele>
        <time>2026-09-03T14:45:33.000Z</time>
      </trkpt>
      <trkpt lat="48.21044" lon="6.66171">
        <ele>463.40002441406</ele>
        <time>2026-09-03T14:45:34.000Z</time>
      </trkpt>
      <trkpt lat="48.21044" lon="6.66171">
        <ele>463.40002441406</ele>
        <time>2026-09-03T14:45:35.000Z</time>
      </trkpt>
      <trkpt lat="48.21044" lon="6.66171">
        <ele>463.40002441406</ele>
        <time>2026-09-03T14:45:36.000Z</time>
      </trkpt>
      <trkpt lat="48.21044" lon="6.66171">
        <ele>463.40002441406</ele>
        <time>2026-09-03T14:45:37.000Z</time>
      </trkpt>
      <trkpt lat="48.21044" lon="6.66171">
        <ele>463.40002441406</ele>
        <time>2026-09-03T14:45:38.000Z</time>
      </trkpt>
      <trkpt lat="48.21044" lon="6.66171">
        <ele>463.40002441406</ele>
        <time>2026-09-03T14:45:39.000Z</time>
      </trkpt>
      <trkpt lat="48.21044" lon="6.66171">
        <ele>463.40002441406</ele>
        <time>2026-09-03T14:45:40.000Z</time>
      </trkpt>
      <trkpt lat="48.21044" lon="6.66171">
        <ele>463.40002441406</ele>
        <time>2026-09-03T14:45:41.000Z</time>
      </trkpt>
      <trkpt lat="48.21045" lon="6.66172">
        <ele>463.40002441406</ele>
        <time>2026-09-03T14:45:42.000Z</time>
      </trkpt>
      <trkpt lat="48.21046" lon="6.66172">
        <ele>463.40002441406</ele>
        <time>2026-09-03T14:45:43.000Z</time>
      </trkpt>
      <trkpt lat="48.21046" lon="6.66172">
        <ele>463.40002441406</ele>
        <time>2026-09-03T14:45:44.000Z</time>
      </trkpt>
      <trkpt lat="48.21046" lon="6.66173">
        <ele>463.40002441406</ele>
        <time>2026-09-03T14:45:45.000Z</time>
      </trkpt>
      <trkpt lat="48.21047" lon="6.66174">
        <ele>463.40002441406</ele>
        <time>2026-09-03T14:45:46.000Z</time>
      </trkpt>
      <trkpt lat="48.21047" lon="6.66174">
        <ele>463.40002441406</ele>
        <time>2026-09-03T14:45:47.000Z</time>
      </trkpt>
      <trkpt lat="48.21047" lon="6.66175">
        <ele>463.40002441406</ele>
        <time>2026-09-03T14:45:48.000Z</time>
      </trkpt>
      <trkpt lat="48.21047" lon="6.66175">
        <ele>463.40002441406</ele>
        <time>2026-09-03T14:45:49.000Z</time>
      </trkpt>
      <trkpt lat="48.21047" lon="6.66175">
        <ele>463.40002441406</ele>
        <time>2026-09-03T14:45:50.000Z</time>
      </trkpt>
      <trkpt lat="48.21048" lon="6.66176">
        <ele>463.40002441406</ele>
        <time>2026-09-03T14:45:51.000Z</time>
      </trkpt>
      <trkpt lat="48.21048" lon="6.66177">
        <ele>463.40002441406</ele>
        <time>2026-09-03T14:45:52.000Z</time>
      </trkpt>
      <trkpt lat="48.21048" lon="6.66177">
        <ele>463.20001220703</ele>
        <time>2026-09-03T14:45:53.000Z</time>
      </trkpt>
      <trkpt lat="48.21048" lon="6.66178">
        <ele>463.20001220703</ele>
        <time>2026-09-03T14:45:54.000Z</time>
      </trkpt>
      <trkpt lat="48.21048" lon="6.66178">
        <ele>463</ele>
        <time>2026-09-03T14:45:55.000Z</time>
      </trkpt>
      <trkpt lat="48.21048" lon="6.66179">
        <ele>463</ele>
        <time>2026-09-03T14:45:56.000Z</time>
      </trkpt>
      <trkpt lat="48.21048" lon="6.6618">
        <ele>463</ele>
        <time>2026-09-03T14:45:57.000Z</time>
      </trkpt>
      <trkpt lat="48.21048" lon="6.66182">
        <ele>463</ele>
        <time>2026-09-03T14:45:58.000Z</time>
      </trkpt>
      <trkpt lat="48.21048" lon="6.66182">
        <ele>463</ele>
        <time>2026-09-03T14:45:59.000Z</time>
      </trkpt>
      <trkpt lat="48.21047" lon="6.66182">
        <ele>463</ele>
        <time>2026-09-03T14:46:00.000Z</time>
      </trkpt>
      <trkpt lat="48.21047" lon="6.66183">
        <ele>463</ele>
        <time>2026-09-03T14:46:01.000Z</time>
      </trkpt>
      <trkpt lat="48.21047" lon="6.66183">
        <ele>463</ele>
        <time>2026-09-03T14:46:02.000Z</time>
      </trkpt>
      <trkpt lat="48.21047" lon="6.66184">
        <ele>463</ele>
        <time>2026-09-03T14:46:03.000Z</time>
      </trkpt>
      <trkpt lat="48.21047" lon="6.66184">
        <ele>463</ele>
        <time>2026-09-03T14:46:04.000Z</time>
      </trkpt>
      <trkpt lat="48.21046" lon="6.66185">
        <ele>463</ele>
        <time>2026-09-03T14:46:05.000Z</time>
      </trkpt>
      <trkpt lat="48.21045" lon="6.66186">
        <ele>463.20001220703</ele>
        <time>2026-09-03T14:46:06.000Z</time>
      </trkpt>
      <trkpt lat="48.21045" lon="6.66187">
        <ele>463.20001220703</ele>
        <time>2026-09-03T14:46:07.000Z</time>
      </trkpt>
      <trkpt lat="48.21043" lon="6.66188">
        <ele>463.40002441406</ele>
        <time>2026-09-03T14:46:08.000Z</time>
      </trkpt>
      <trkpt lat="48.21043" lon="6.66188">
        <ele>463.40002441406</ele>
        <time>2026-09-03T14:46:09.000Z</time>
      </trkpt>
      <trkpt lat="48.21041" lon="6.66188">
        <ele>463.59997558594</ele>
        <time>2026-09-03T14:46:10.000Z</time>
      </trkpt>
      <trkpt lat="48.2104" lon="6.66189">
        <ele>463.59997558594</ele>
        <time>2026-09-03T14:46:11.000Z</time>
      </trkpt>
      <trkpt lat="48.2104" lon="6.66188">
        <ele>463.79998779297</ele>
        <time>2026-09-03T14:46:12.000Z</time>
      </trkpt>
      <trkpt lat="48.21038" lon="6.66188">
        <ele>463.79998779297</ele>
        <time>2026-09-03T14:46:13.000Z</time>
      </trkpt>
      <trkpt lat="48.21038" lon="6.66188">
        <ele>464</ele>
        <time>2026-09-03T14:46:14.000Z</time>
      </trkpt>
      <trkpt lat="48.21037" lon="6.66188">
        <ele>464</ele>
        <time>2026-09-03T14:46:15.000Z</time>
      </trkpt>
      <trkpt lat="48.21036" lon="6.66188">
        <ele>464.20001220703</ele>
        <time>2026-09-03T14:46:16.000Z</time>
      </trkpt>
      <trkpt lat="48.21035" lon="6.66187">
        <ele>464.40002441406</ele>
        <time>2026-09-03T14:46:17.000Z</time>
      </trkpt>
      <trkpt lat="48.21034" lon="6.66188">
        <ele>464.40002441406</ele>
        <time>2026-09-03T14:46:18.000Z</time>
      </trkpt>
      <trkpt lat="48.21033" lon="6.66188">
        <ele>464.59997558594</ele>
        <time>2026-09-03T14:46:19.000Z</time>
      </trkpt>
      <trkpt lat="48.21033" lon="6.66189">
        <ele>464.79998779297</ele>
        <time>2026-09-03T14:46:20.000Z</time>
      </trkpt>
      <trkpt lat="48.21032" lon="6.66189">
        <ele>464.79998779297</ele>
        <time>2026-09-03T14:46:21.000Z</time>
      </trkpt>
      <trkpt lat="48.21031" lon="6.6619">
        <ele>465</ele>
        <time>2026-09-03T14:46:22.000Z</time>
      </trkpt>
      <trkpt lat="48.21031" lon="6.6619">
        <ele>465</ele>
        <time>2026-09-03T14:46:23.000Z</time>
      </trkpt>
      <trkpt lat="48.2103" lon="6.6619">
        <ele>465.20001220703</ele>
        <time>2026-09-03T14:46:24.000Z</time>
      </trkpt>
      <trkpt lat="48.21028" lon="6.66191">
        <ele>465.40002441406</ele>
        <time>2026-09-03T14:46:25.000Z</time>
      </trkpt>
      <trkpt lat="48.21028" lon="6.66191">
        <ele>465.59997558594</ele>
        <time>2026-09-03T14:46:26.000Z</time>
      </trkpt>
      <trkpt lat="48.21027" lon="6.66191">
        <ele>465.79998779297</ele>
        <time>2026-09-03T14:46:27.000Z</time>
      </trkpt>
      <trkpt lat="48.21026" lon="6.66191">
        <ele>465.79998779297</ele>
        <time>2026-09-03T14:46:28.000Z</time>
      </trkpt>
      <trkpt lat="48.21025" lon="6.66192">
        <ele>466</ele>
        <time>2026-09-03T14:46:29.000Z</time>
      </trkpt>
      <trkpt lat="48.21024" lon="6.66192">
        <ele>466.20001220703</ele>
        <time>2026-09-03T14:46:30.000Z</time>
      </trkpt>
      <trkpt lat="48.21024" lon="6.66192">
        <ele>466.40002441406</ele>
        <time>2026-09-03T14:46:31.000Z</time>
      </trkpt>
      <trkpt lat="48.21023" lon="6.66193">
        <ele>466.59997558594</ele>
        <time>2026-09-03T14:46:32.000Z</time>
      </trkpt>
      <trkpt lat="48.21023" lon="6.66193">
        <ele>466.79998779297</ele>
        <time>2026-09-03T14:46:33.000Z</time>
      </trkpt>
      <trkpt lat="48.21022" lon="6.66193">
        <ele>466.79998779297</ele>
        <time>2026-09-03T14:46:34.000Z</time>
      </trkpt>
      <trkpt lat="48.21022" lon="6.66194">
        <ele>467</ele>
        <time>2026-09-03T14:46:35.000Z</time>
      </trkpt>
      <trkpt lat="48.21021" lon="6.66195">
        <ele>467</ele>
        <time>2026-09-03T14:46:36.000Z</time>
      </trkpt>
      <trkpt lat="48.21021" lon="6.66196">
        <ele>467</ele>
        <time>2026-09-03T14:46:37.000Z</time>
      </trkpt>
      <trkpt lat="48.21021" lon="6.66197">
        <ele>467.20001220703</ele>
        <time>2026-09-03T14:46:38.000Z</time>
      </trkpt>
      <trkpt lat="48.21021" lon="6.66198">
        <ele>467.20001220703</ele>
        <time>2026-09-03T14:46:39.000Z</time>
      </trkpt>
      <trkpt lat="48.2102" lon="6.66199">
        <ele>467.40002441406</ele>
        <time>2026-09-03T14:46:40.000Z</time>
      </trkpt>
      <trkpt lat="48.21019" lon="6.66199">
        <ele>467.59997558594</ele>
        <time>2026-09-03T14:46:41.000Z</time>
      </trkpt>
      <trkpt lat="48.21019" lon="6.662">
        <ele>467.59997558594</ele>
        <time>2026-09-03T14:46:42.000Z</time>
      </trkpt>
      <trkpt lat="48.21017" lon="6.662">
        <ele>467.59997558594</ele>
        <time>2026-09-03T14:46:43.000Z</time>
      </trkpt>
      <trkpt lat="48.21017" lon="6.66201">
        <ele>467.59997558594</ele>
        <time>2026-09-03T14:46:44.000Z</time>
      </trkpt>
      <trkpt lat="48.21017" lon="6.66202">
        <ele>467.59997558594</ele>
        <time>2026-09-03T14:46:45.000Z</time>
      </trkpt>
      <trkpt lat="48.21016" lon="6.66202">
        <ele>467.79998779297</ele>
        <time>2026-09-03T14:46:46.000Z</time>
      </trkpt>
      <trkpt lat="48.21015" lon="6.66202">
        <ele>467.79998779297</ele>
        <time>2026-09-03T14:46:47.000Z</time>
      </trkpt>
      <trkpt lat="48.21014" lon="6.66202">
        <ele>468</ele>
        <time>2026-09-03T14:46:48.000Z</time>
      </trkpt>
      <trkpt lat="48.21014" lon="6.66203">
        <ele>468</ele>
        <time>2026-09-03T14:46:49.000Z</time>
      </trkpt>
      <trkpt lat="48.21013" lon="6.66204">
        <ele>468.20001220703</ele>
        <time>2026-09-03T14:46:50.000Z</time>
      </trkpt>
      <trkpt lat="48.21012" lon="6.66205">
        <ele>468.40002441406</ele>
        <time>2026-09-03T14:46:51.000Z</time>
      </trkpt>
      <trkpt lat="48.21011" lon="6.66205">
        <ele>468.59997558594</ele>
        <time>2026-09-03T14:46:52.000Z</time>
      </trkpt>
      <trkpt lat="48.21011" lon="6.66205">
        <ele>468.79998779297</ele>
        <time>2026-09-03T14:46:53.000Z</time>
      </trkpt>
      <trkpt lat="48.2101" lon="6.66206">
        <ele>469</ele>
        <time>2026-09-03T14:46:54.000Z</time>
      </trkpt>
      <trkpt lat="48.2101" lon="6.66207">
        <ele>469.20001220703</ele>
        <time>2026-09-03T14:46:55.000Z</time>
      </trkpt>
      <trkpt lat="48.21009" lon="6.66208">
        <ele>469.20001220703</ele>
        <time>2026-09-03T14:46:56.000Z</time>
      </trkpt>
      <trkpt lat="48.21009" lon="6.66208">
        <ele>469.40002441406</ele>
        <time>2026-09-03T14:46:57.000Z</time>
      </trkpt>
      <trkpt lat="48.21009" lon="6.66209">
        <ele>469.40002441406</ele>
        <time>2026-09-03T14:46:58.000Z</time>
      </trkpt>
      <trkpt lat="48.21008" lon="6.6621">
        <ele>469.59997558594</ele>
        <time>2026-09-03T14:46:59.000Z</time>
      </trkpt>
      <trkpt lat="48.21008" lon="6.6621">
        <ele>469.59997558594</ele>
        <time>2026-09-03T14:47:00.000Z</time>
      </trkpt>
      <trkpt lat="48.21007" lon="6.66211">
        <ele>469.79998779297</ele>
        <time>2026-09-03T14:47:01.000Z</time>
      </trkpt>
      <trkpt lat="48.21007" lon="6.66213">
        <ele>469.79998779297</ele>
        <time>2026-09-03T14:47:02.000Z</time>
      </trkpt>
      <trkpt lat="48.21008" lon="6.66212">
        <ele>470</ele>
        <time>2026-09-03T14:47:03.000Z</time>
      </trkpt>
      <trkpt lat="48.21008" lon="6.66211">
        <ele>470.20001220703</ele>
        <time>2026-09-03T14:47:04.000Z</time>
      </trkpt>
      <trkpt lat="48.21008" lon="6.66212">
        <ele>470.20001220703</ele>
        <time>2026-09-03T14:47:05.000Z</time>
      </trkpt>
      <trkpt lat="48.21008" lon="6.66212">
        <ele>470.20001220703</ele>
        <time>2026-09-03T14:47:06.000Z</time>
      </trkpt>
      <trkpt lat="48.21008" lon="6.66211">
        <ele>470.20001220703</ele>
        <time>2026-09-03T14:47:07.000Z</time>
      </trkpt>
      <trkpt lat="48.21008" lon="6.66211">
        <ele>470.20001220703</ele>
        <time>2026-09-03T14:47:08.000Z</time>
      </trkpt>
      <trkpt lat="48.21008" lon="6.66211">
        <ele>470.20001220703</ele>
        <time>2026-09-03T14:47:09.000Z</time>
      </trkpt>
      <trkpt lat="48.21008" lon="6.66211">
        <ele>470</ele>
        <time>2026-09-03T14:47:10.000Z</time>
      </trkpt>
      <trkpt lat="48.21008" lon="6.66211">
        <ele>470</ele>
        <time>2026-09-03T14:47:11.000Z</time>
      </trkpt>
      <trkpt lat="48.21008" lon="6.66211">
        <ele>470</ele>
        <time>2026-09-03T14:47:12.000Z</time>
      </trkpt>
      <trkpt lat="48.21008" lon="6.66211">
        <ele>470</ele>
        <time>2026-09-03T14:47:13.000Z</time>
      </trkpt>
      <trkpt lat="48.21008" lon="6.66211">
        <ele>470</ele>
        <time>2026-09-03T14:47:14.000Z</time>
      </trkpt>
      <trkpt lat="48.21008" lon="6.66211">
        <ele>470</ele>
        <time>2026-09-03T14:47:15.000Z</time>
      </trkpt>
      <trkpt lat="48.21008" lon="6.66211">
        <ele>470</ele>
        <time>2026-09-03T14:47:16.000Z</time>
      </trkpt>
      <trkpt lat="48.21008" lon="6.66211">
        <ele>470.20001220703</ele>
        <time>2026-09-03T14:47:17.000Z</time>
      </trkpt>
      <trkpt lat="48.21008" lon="6.66211">
        <ele>470.20001220703</ele>
        <time>2026-09-03T14:47:18.000Z</time>
      </trkpt>
      <trkpt lat="48.21008" lon="6.66211">
        <ele>470.20001220703</ele>
        <time>2026-09-03T14:47:19.000Z</time>
      </trkpt>
      <trkpt lat="48.21008" lon="6.66211">
        <ele>470.20001220703</ele>
        <time>2026-09-03T14:47:20.000Z</time>
      </trkpt>
      <trkpt lat="48.21008" lon="6.66212">
        <ele>470.20001220703</ele>
        <time>2026-09-03T14:47:21.000Z</time>
      </trkpt>
      <trkpt lat="48.21007" lon="6.66213">
        <ele>470.20001220703</ele>
        <time>2026-09-03T14:47:22.000Z</time>
      </trkpt>
      <trkpt lat="48.21007" lon="6.66213">
        <ele>470.20001220703</ele>
        <time>2026-09-03T14:47:23.000Z</time>
      </trkpt>
      <trkpt lat="48.21006" lon="6.66215">
        <ele>470.40002441406</ele>
        <time>2026-09-03T14:47:24.000Z</time>
      </trkpt>
      <trkpt lat="48.21005" lon="6.66215">
        <ele>470.40002441406</ele>
        <time>2026-09-03T14:47:25.000Z</time>
      </trkpt>
      <trkpt lat="48.21005" lon="6.66216">
        <ele>470.59997558594</ele>
        <time>2026-09-03T14:47:26.000Z</time>
      </trkpt>
      <trkpt lat="48.21005" lon="6.66218">
        <ele>470.79998779297</ele>
        <time>2026-09-03T14:47:27.000Z</time>
      </trkpt>
      <trkpt lat="48.21004" lon="6.66219">
        <ele>471</ele>
        <time>2026-09-03T14:47:28.000Z</time>
      </trkpt>
      <trkpt lat="48.21004" lon="6.6622">
        <ele>471.20001220703</ele>
        <time>2026-09-03T14:47:29.000Z</time>
      </trkpt>
      <trkpt lat="48.21004" lon="6.66219">
        <ele>471.20001220703</ele>
        <time>2026-09-03T14:47:30.000Z</time>
      </trkpt>
      <trkpt lat="48.21003" lon="6.66219">
        <ele>471.40002441406</ele>
        <time>2026-09-03T14:47:31.000Z</time>
      </trkpt>
      <trkpt lat="48.21003" lon="6.6622">
        <ele>471.40002441406</ele>
        <time>2026-09-03T14:47:32.000Z</time>
      </trkpt>
      <trkpt lat="48.21003" lon="6.6622">
        <ele>471.59997558594</ele>
        <time>2026-09-03T14:47:33.000Z</time>
      </trkpt>
      <trkpt lat="48.21003" lon="6.66221">
        <ele>471.59997558594</ele>
        <time>2026-09-03T14:47:34.000Z</time>
      </trkpt>
      <trkpt lat="48.21003" lon="6.66222">
        <ele>471.59997558594</ele>
        <time>2026-09-03T14:47:35.000Z</time>
      </trkpt>
      <trkpt lat="48.21003" lon="6.66223">
        <ele>471.40002441406</ele>
        <time>2026-09-03T14:47:36.000Z</time>
      </trkpt>
      <trkpt lat="48.21002" lon="6.66224">
        <ele>471.40002441406</ele>
        <time>2026-09-03T14:47:37.000Z</time>
      </trkpt>
      <trkpt lat="48.21003" lon="6.66224">
        <ele>471.40002441406</ele>
        <time>2026-09-03T14:47:38.000Z</time>
      </trkpt>
      <trkpt lat="48.21002" lon="6.66225">
        <ele>471.40002441406</ele>
        <time>2026-09-03T14:47:39.000Z</time>
      </trkpt>
      <trkpt lat="48.21003" lon="6.66225">
        <ele>471.59997558594</ele>
        <time>2026-09-03T14:47:40.000Z</time>
      </trkpt>
      <trkpt lat="48.21002" lon="6.66226">
        <ele>471.79998779297</ele>
        <time>2026-09-03T14:47:41.000Z</time>
      </trkpt>
      <trkpt lat="48.21002" lon="6.66227">
        <ele>472.20001220703</ele>
        <time>2026-09-03T14:47:42.000Z</time>
      </trkpt>
      <trkpt lat="48.21001" lon="6.66228">
        <ele>472.40002441406</ele>
        <time>2026-09-03T14:47:43.000Z</time>
      </trkpt>
      <trkpt lat="48.21001" lon="6.66229">
        <ele>472.59997558594</ele>
        <time>2026-09-03T14:47:44.000Z</time>
      </trkpt>
      <trkpt lat="48.21001" lon="6.6623">
        <ele>472.79998779297</ele>
        <time>2026-09-03T14:47:45.000Z</time>
      </trkpt>
      <trkpt lat="48.21" lon="6.66232">
        <ele>472.79998779297</ele>
        <time>2026-09-03T14:47:46.000Z</time>
      </trkpt>
      <trkpt lat="48.21" lon="6.66232">
        <ele>472.79998779297</ele>
        <time>2026-09-03T14:47:47.000Z</time>
      </trkpt>
      <trkpt lat="48.21" lon="6.66234">
        <ele>473</ele>
        <time>2026-09-03T14:47:48.000Z</time>
      </trkpt>
      <trkpt lat="48.20999" lon="6.66235">
        <ele>473.20001220703</ele>
        <time>2026-09-03T14:47:49.000Z</time>
      </trkpt>
      <trkpt lat="48.20998" lon="6.66236">
        <ele>473.20001220703</ele>
        <time>2026-09-03T14:47:50.000Z</time>
      </trkpt>
      <trkpt lat="48.20998" lon="6.66238">
        <ele>473.59997558594</ele>
        <time>2026-09-03T14:47:51.000Z</time>
      </trkpt>
      <trkpt lat="48.20997" lon="6.66239">
        <ele>473.59997558594</ele>
        <time>2026-09-03T14:47:52.000Z</time>
      </trkpt>
      <trkpt lat="48.20997" lon="6.66238">
        <ele>473.59997558594</ele>
        <time>2026-09-03T14:47:53.000Z</time>
      </trkpt>
      <trkpt lat="48.20996" lon="6.6624">
        <ele>473.59997558594</ele>
        <time>2026-09-03T14:47:54.000Z</time>
      </trkpt>
      <trkpt lat="48.20996" lon="6.66241">
        <ele>473.79998779297</ele>
        <time>2026-09-03T14:47:55.000Z</time>
      </trkpt>
      <trkpt lat="48.20996" lon="6.66242">
        <ele>474</ele>
        <time>2026-09-03T14:47:56.000Z</time>
      </trkpt>
      <trkpt lat="48.20996" lon="6.66243">
        <ele>474.20001220703</ele>
        <time>2026-09-03T14:47:57.000Z</time>
      </trkpt>
      <trkpt lat="48.20996" lon="6.66244">
        <ele>474.40002441406</ele>
        <time>2026-09-03T14:47:58.000Z</time>
      </trkpt>
      <trkpt lat="48.20996" lon="6.66245">
        <ele>474.59997558594</ele>
        <time>2026-09-03T14:47:59.000Z</time>
      </trkpt>
      <trkpt lat="48.20996" lon="6.66246">
        <ele>474.79998779297</ele>
        <time>2026-09-03T14:48:00.000Z</time>
      </trkpt>
      <trkpt lat="48.20996" lon="6.66246">
        <ele>474.79998779297</ele>
        <time>2026-09-03T14:48:01.000Z</time>
      </trkpt>
      <trkpt lat="48.20996" lon="6.66246">
        <ele>475</ele>
        <time>2026-09-03T14:48:02.000Z</time>
      </trkpt>
      <trkpt lat="48.20996" lon="6.66246">
        <ele>475</ele>
        <time>2026-09-03T14:48:03.000Z</time>
      </trkpt>
      <trkpt lat="48.20996" lon="6.66248">
        <ele>475.20001220703</ele>
        <time>2026-09-03T14:48:04.000Z</time>
      </trkpt>
      <trkpt lat="48.20995" lon="6.66249">
        <ele>475.20001220703</ele>
        <time>2026-09-03T14:48:05.000Z</time>
      </trkpt>
      <trkpt lat="48.20995" lon="6.6625">
        <ele>475.20001220703</ele>
        <time>2026-09-03T14:48:06.000Z</time>
      </trkpt>
      <trkpt lat="48.20995" lon="6.66252">
        <ele>475.40002441406</ele>
        <time>2026-09-03T14:48:07.000Z</time>
      </trkpt>
      <trkpt lat="48.20995" lon="6.66253">
        <ele>475.40002441406</ele>
        <time>2026-09-03T14:48:08.000Z</time>
      </trkpt>
      <trkpt lat="48.20994" lon="6.66255">
        <ele>475.40002441406</ele>
        <time>2026-09-03T14:48:09.000Z</time>
      </trkpt>
      <trkpt lat="48.20994" lon="6.66255">
        <ele>475.59997558594</ele>
        <time>2026-09-03T14:48:10.000Z</time>
      </trkpt>
      <trkpt lat="48.20993" lon="6.66257">
        <ele>475.59997558594</ele>
        <time>2026-09-03T14:48:11.000Z</time>
      </trkpt>
      <trkpt lat="48.20993" lon="6.66258">
        <ele>475.59997558594</ele>
        <time>2026-09-03T14:48:12.000Z</time>
      </trkpt>
      <trkpt lat="48.20992" lon="6.66259">
        <ele>475.79998779297</ele>
        <time>2026-09-03T14:48:13.000Z</time>
      </trkpt>
      <trkpt lat="48.20992" lon="6.66261">
        <ele>475.79998779297</ele>
        <time>2026-09-03T14:48:14.000Z</time>
      </trkpt>
      <trkpt lat="48.20991" lon="6.66261">
        <ele>476</ele>
        <time>2026-09-03T14:48:15.000Z</time>
      </trkpt>
      <trkpt lat="48.20992" lon="6.66261">
        <ele>476.20001220703</ele>
        <time>2026-09-03T14:48:16.000Z</time>
      </trkpt>
      <trkpt lat="48.20993" lon="6.6626">
        <ele>476.40002441406</ele>
        <time>2026-09-03T14:48:17.000Z</time>
      </trkpt>
      <trkpt lat="48.20993" lon="6.66261">
        <ele>476.40002441406</ele>
        <time>2026-09-03T14:48:18.000Z</time>
      </trkpt>
      <trkpt lat="48.20993" lon="6.66263">
        <ele>476.40002441406</ele>
        <time>2026-09-03T14:48:19.000Z</time>
      </trkpt>
      <trkpt lat="48.20992" lon="6.66262">
        <ele>476.59997558594</ele>
        <time>2026-09-03T14:48:20.000Z</time>
      </trkpt>
      <trkpt lat="48.20991" lon="6.66263">
        <ele>476.59997558594</ele>
        <time>2026-09-03T14:48:21.000Z</time>
      </trkpt>
      <trkpt lat="48.20991" lon="6.66265">
        <ele>476.59997558594</ele>
        <time>2026-09-03T14:48:22.000Z</time>
      </trkpt>
      <trkpt lat="48.2099" lon="6.66266">
        <ele>476.79998779297</ele>
        <time>2026-09-03T14:48:23.000Z</time>
      </trkpt>
      <trkpt lat="48.2099" lon="6.66266">
        <ele>476.79998779297</ele>
        <time>2026-09-03T14:48:24.000Z</time>
      </trkpt>
      <trkpt lat="48.20989" lon="6.66267">
        <ele>477</ele>
        <time>2026-09-03T14:48:25.000Z</time>
      </trkpt>
      <trkpt lat="48.20988" lon="6.66268">
        <ele>477.20001220703</ele>
        <time>2026-09-03T14:48:26.000Z</time>
      </trkpt>
      <trkpt lat="48.20987" lon="6.66268">
        <ele>477.40002441406</ele>
        <time>2026-09-03T14:48:27.000Z</time>
      </trkpt>
      <trkpt lat="48.20986" lon="6.66269">
        <ele>477.40002441406</ele>
        <time>2026-09-03T14:48:28.000Z</time>
      </trkpt>
      <trkpt lat="48.20986" lon="6.66269">
        <ele>477.59997558594</ele>
        <time>2026-09-03T14:48:29.000Z</time>
      </trkpt>
      <trkpt lat="48.20985" lon="6.6627">
        <ele>477.59997558594</ele>
        <time>2026-09-03T14:48:30.000Z</time>
      </trkpt>
      <trkpt lat="48.20985" lon="6.66271">
        <ele>477.79998779297</ele>
        <time>2026-09-03T14:48:31.000Z</time>
      </trkpt>
      <trkpt lat="48.20985" lon="6.66273">
        <ele>478</ele>
        <time>2026-09-03T14:48:32.000Z</time>
      </trkpt>
      <trkpt lat="48.20984" lon="6.66274">
        <ele>478</ele>
        <time>2026-09-03T14:48:33.000Z</time>
      </trkpt>
      <trkpt lat="48.20984" lon="6.66275">
        <ele>478.20001220703</ele>
        <time>2026-09-03T14:48:34.000Z</time>
      </trkpt>
      <trkpt lat="48.20984" lon="6.66277">
        <ele>478.40002441406</ele>
        <time>2026-09-03T14:48:35.000Z</time>
      </trkpt>
      <trkpt lat="48.20983" lon="6.66278">
        <ele>478.40002441406</ele>
        <time>2026-09-03T14:48:36.000Z</time>
      </trkpt>
      <trkpt lat="48.20982" lon="6.66278">
        <ele>478.40002441406</ele>
        <time>2026-09-03T14:48:37.000Z</time>
      </trkpt>
      <trkpt lat="48.20981" lon="6.66279">
        <ele>478.59997558594</ele>
        <time>2026-09-03T14:48:38.000Z</time>
      </trkpt>
      <trkpt lat="48.2098" lon="6.6628">
        <ele>478.59997558594</ele>
        <time>2026-09-03T14:48:39.000Z</time>
      </trkpt>
      <trkpt lat="48.2098" lon="6.66281">
        <ele>478.79998779297</ele>
        <time>2026-09-03T14:48:40.000Z</time>
      </trkpt>
      <trkpt lat="48.20979" lon="6.66282">
        <ele>478.79998779297</ele>
        <time>2026-09-03T14:48:41.000Z</time>
      </trkpt>
      <trkpt lat="48.20979" lon="6.66282">
        <ele>479</ele>
        <time>2026-09-03T14:48:42.000Z</time>
      </trkpt>
      <trkpt lat="48.20978" lon="6.66282">
        <ele>479.20001220703</ele>
        <time>2026-09-03T14:48:43.000Z</time>
      </trkpt>
      <trkpt lat="48.20977" lon="6.66283">
        <ele>479.20001220703</ele>
        <time>2026-09-03T14:48:44.000Z</time>
      </trkpt>
      <trkpt lat="48.20977" lon="6.66283">
        <ele>479.40002441406</ele>
        <time>2026-09-03T14:48:45.000Z</time>
      </trkpt>
      <trkpt lat="48.20976" lon="6.66285">
        <ele>479.59997558594</ele>
        <time>2026-09-03T14:48:46.000Z</time>
      </trkpt>
      <trkpt lat="48.20976" lon="6.66286">
        <ele>479.79998779297</ele>
        <time>2026-09-03T14:48:47.000Z</time>
      </trkpt>
      <trkpt lat="48.20975" lon="6.66286">
        <ele>479.79998779297</ele>
        <time>2026-09-03T14:48:48.000Z</time>
      </trkpt>
      <trkpt lat="48.20974" lon="6.66286">
        <ele>480</ele>
        <time>2026-09-03T14:48:49.000Z</time>
      </trkpt>
      <trkpt lat="48.20973" lon="6.66287">
        <ele>480</ele>
        <time>2026-09-03T14:48:50.000Z</time>
      </trkpt>
      <trkpt lat="48.20972" lon="6.66288">
        <ele>480.20001220703</ele>
        <time>2026-09-03T14:48:51.000Z</time>
      </trkpt>
      <trkpt lat="48.20972" lon="6.66289">
        <ele>480.40002441406</ele>
        <time>2026-09-03T14:48:52.000Z</time>
      </trkpt>
      <trkpt lat="48.20972" lon="6.66289">
        <ele>480.40002441406</ele>
        <time>2026-09-03T14:48:53.000Z</time>
      </trkpt>
      <trkpt lat="48.20971" lon="6.66289">
        <ele>480.59997558594</ele>
        <time>2026-09-03T14:48:54.000Z</time>
      </trkpt>
      <trkpt lat="48.20971" lon="6.6629">
        <ele>480.79998779297</ele>
        <time>2026-09-03T14:48:55.000Z</time>
      </trkpt>
      <trkpt lat="48.20971" lon="6.66291">
        <ele>481</ele>
        <time>2026-09-03T14:48:56.000Z</time>
      </trkpt>
      <trkpt lat="48.20971" lon="6.66291">
        <ele>481</ele>
        <time>2026-09-03T14:48:57.000Z</time>
      </trkpt>
      <trkpt lat="48.2097" lon="6.66292">
        <ele>481.20001220703</ele>
        <time>2026-09-03T14:48:58.000Z</time>
      </trkpt>
      <trkpt lat="48.2097" lon="6.66293">
        <ele>481.40002441406</ele>
        <time>2026-09-03T14:48:59.000Z</time>
      </trkpt>
      <trkpt lat="48.20969" lon="6.66294">
        <ele>481.59997558594</ele>
        <time>2026-09-03T14:49:00.000Z</time>
      </trkpt>
      <trkpt lat="48.20969" lon="6.66295">
        <ele>481.79998779297</ele>
        <time>2026-09-03T14:49:01.000Z</time>
      </trkpt>
      <trkpt lat="48.20968" lon="6.66295">
        <ele>482</ele>
        <time>2026-09-03T14:49:02.000Z</time>
      </trkpt>
      <trkpt lat="48.20968" lon="6.66295">
        <ele>482.20001220703</ele>
        <time>2026-09-03T14:49:03.000Z</time>
      </trkpt>
      <trkpt lat="48.20968" lon="6.66295">
        <ele>482.20001220703</ele>
        <time>2026-09-03T14:49:04.000Z</time>
      </trkpt>
      <trkpt lat="48.20968" lon="6.66296">
        <ele>482.40002441406</ele>
        <time>2026-09-03T14:49:05.000Z</time>
      </trkpt>
      <trkpt lat="48.20967" lon="6.66297">
        <ele>482.59997558594</ele>
        <time>2026-09-03T14:49:06.000Z</time>
      </trkpt>
      <trkpt lat="48.20967" lon="6.66298">
        <ele>482.79998779297</ele>
        <time>2026-09-03T14:49:07.000Z</time>
      </trkpt>
      <trkpt lat="48.20966" lon="6.66298">
        <ele>482.79998779297</ele>
        <time>2026-09-03T14:49:08.000Z</time>
      </trkpt>
      <trkpt lat="48.20966" lon="6.66299">
        <ele>483</ele>
        <time>2026-09-03T14:49:09.000Z</time>
      </trkpt>
      <trkpt lat="48.20966" lon="6.663">
        <ele>483</ele>
        <time>2026-09-03T14:49:10.000Z</time>
      </trkpt>
      <trkpt lat="48.20966" lon="6.66301">
        <ele>483</ele>
        <time>2026-09-03T14:49:11.000Z</time>
      </trkpt>
      <trkpt lat="48.20966" lon="6.66302">
        <ele>483</ele>
        <time>2026-09-03T14:49:12.000Z</time>
      </trkpt>
      <trkpt lat="48.20965" lon="6.66302">
        <ele>483.20001220703</ele>
        <time>2026-09-03T14:49:13.000Z</time>
      </trkpt>
      <trkpt lat="48.20965" lon="6.66302">
        <ele>483.40002441406</ele>
        <time>2026-09-03T14:49:14.000Z</time>
      </trkpt>
      <trkpt lat="48.20964" lon="6.66303">
        <ele>483.79998779297</ele>
        <time>2026-09-03T14:49:15.000Z</time>
      </trkpt>
      <trkpt lat="48.20964" lon="6.66303">
        <ele>484</ele>
        <time>2026-09-03T14:49:16.000Z</time>
      </trkpt>
      <trkpt lat="48.20963" lon="6.66304">
        <ele>484.20001220703</ele>
        <time>2026-09-03T14:49:17.000Z</time>
      </trkpt>
      <trkpt lat="48.20963" lon="6.66305">
        <ele>484.20001220703</ele>
        <time>2026-09-03T14:49:18.000Z</time>
      </trkpt>
      <trkpt lat="48.20963" lon="6.66304">
        <ele>484.40002441406</ele>
        <time>2026-09-03T14:49:19.000Z</time>
      </trkpt>
      <trkpt lat="48.20963" lon="6.66304">
        <ele>484.40002441406</ele>
        <time>2026-09-03T14:49:20.000Z</time>
      </trkpt>
      <trkpt lat="48.20963" lon="6.66305">
        <ele>484.40002441406</ele>
        <time>2026-09-03T14:49:21.000Z</time>
      </trkpt>
      <trkpt lat="48.20962" lon="6.66305">
        <ele>484.59997558594</ele>
        <time>2026-09-03T14:49:22.000Z</time>
      </trkpt>
      <trkpt lat="48.20962" lon="6.66304">
        <ele>484.79998779297</ele>
        <time>2026-09-03T14:49:23.000Z</time>
      </trkpt>
      <trkpt lat="48.20962" lon="6.66304">
        <ele>485</ele>
        <time>2026-09-03T14:49:24.000Z</time>
      </trkpt>
      <trkpt lat="48.20962" lon="6.66304">
        <ele>485.20001220703</ele>
        <time>2026-09-03T14:49:25.000Z</time>
      </trkpt>
      <trkpt lat="48.20963" lon="6.66304">
        <ele>485.40002441406</ele>
        <time>2026-09-03T14:49:26.000Z</time>
      </trkpt>
      <trkpt lat="48.20963" lon="6.66304">
        <ele>485.40002441406</ele>
        <time>2026-09-03T14:49:27.000Z</time>
      </trkpt>
      <trkpt lat="48.20963" lon="6.66303">
        <ele>485.59997558594</ele>
        <time>2026-09-03T14:49:28.000Z</time>
      </trkpt>
      <trkpt lat="48.20963" lon="6.66304">
        <ele>485.59997558594</ele>
        <time>2026-09-03T14:49:29.000Z</time>
      </trkpt>
      <trkpt lat="48.20963" lon="6.66304">
        <ele>485.59997558594</ele>
        <time>2026-09-03T14:49:30.000Z</time>
      </trkpt>
      <trkpt lat="48.20963" lon="6.66304">
        <ele>485.79998779297</ele>
        <time>2026-09-03T14:49:31.000Z</time>
      </trkpt>
      <trkpt lat="48.20963" lon="6.66305">
        <ele>485.79998779297</ele>
        <time>2026-09-03T14:49:32.000Z</time>
      </trkpt>
      <trkpt lat="48.20963" lon="6.66307">
        <ele>486</ele>
        <time>2026-09-03T14:49:33.000Z</time>
      </trkpt>
      <trkpt lat="48.20963" lon="6.66308">
        <ele>486</ele>
        <time>2026-09-03T14:49:34.000Z</time>
      </trkpt>
      <trkpt lat="48.20963" lon="6.66308">
        <ele>486</ele>
        <time>2026-09-03T14:49:35.000Z</time>
      </trkpt>
      <trkpt lat="48.20963" lon="6.6631">
        <ele>486.20001220703</ele>
        <time>2026-09-03T14:49:36.000Z</time>
      </trkpt>
      <trkpt lat="48.20963" lon="6.66311">
        <ele>486.20001220703</ele>
        <time>2026-09-03T14:49:37.000Z</time>
      </trkpt>
      <trkpt lat="48.20963" lon="6.66312">
        <ele>486.40002441406</ele>
        <time>2026-09-03T14:49:38.000Z</time>
      </trkpt>
      <trkpt lat="48.20962" lon="6.66314">
        <ele>486.40002441406</ele>
        <time>2026-09-03T14:49:39.000Z</time>
      </trkpt>
      <trkpt lat="48.20962" lon="6.66315">
        <ele>486.59997558594</ele>
        <time>2026-09-03T14:49:40.000Z</time>
      </trkpt>
      <trkpt lat="48.20962" lon="6.66316">
        <ele>486.59997558594</ele>
        <time>2026-09-03T14:49:41.000Z</time>
      </trkpt>
      <trkpt lat="48.20962" lon="6.66317">
        <ele>486.79998779297</ele>
        <time>2026-09-03T14:49:42.000Z</time>
      </trkpt>
      <trkpt lat="48.20961" lon="6.66318">
        <ele>487</ele>
        <time>2026-09-03T14:49:43.000Z</time>
      </trkpt>
      <trkpt lat="48.20961" lon="6.66319">
        <ele>487</ele>
        <time>2026-09-03T14:49:44.000Z</time>
      </trkpt>
      <trkpt lat="48.20961" lon="6.66319">
        <ele>487.20001220703</ele>
        <time>2026-09-03T14:49:45.000Z</time>
      </trkpt>
      <trkpt lat="48.20961" lon="6.66319">
        <ele>487.20001220703</ele>
        <time>2026-09-03T14:49:46.000Z</time>
      </trkpt>
      <trkpt lat="48.20961" lon="6.66319">
        <ele>487.40002441406</ele>
        <time>2026-09-03T14:49:47.000Z</time>
      </trkpt>
      <trkpt lat="48.20961" lon="6.66319">
        <ele>487.40002441406</ele>
        <time>2026-09-03T14:49:48.000Z</time>
      </trkpt>
      <trkpt lat="48.20961" lon="6.66319">
        <ele>487.59997558594</ele>
        <time>2026-09-03T14:49:49.000Z</time>
      </trkpt>
      <trkpt lat="48.20961" lon="6.66319">
        <ele>487.59997558594</ele>
        <time>2026-09-03T14:49:50.000Z</time>
      </trkpt>
      <trkpt lat="48.20961" lon="6.66319">
        <ele>487.79998779297</ele>
        <time>2026-09-03T14:49:51.000Z</time>
      </trkpt>
      <trkpt lat="48.20961" lon="6.6632">
        <ele>488</ele>
        <time>2026-09-03T14:49:52.000Z</time>
      </trkpt>
      <trkpt lat="48.2096" lon="6.6632">
        <ele>488</ele>
        <time>2026-09-03T14:49:53.000Z</time>
      </trkpt>
      <trkpt lat="48.2096" lon="6.6632">
        <ele>488.20001220703</ele>
        <time>2026-09-03T14:49:54.000Z</time>
      </trkpt>
      <trkpt lat="48.2096" lon="6.66321">
        <ele>488.40002441406</ele>
        <time>2026-09-03T14:49:55.000Z</time>
      </trkpt>
      <trkpt lat="48.2096" lon="6.66321">
        <ele>488.59997558594</ele>
        <time>2026-09-03T14:49:56.000Z</time>
      </trkpt>
      <trkpt lat="48.20959" lon="6.66321">
        <ele>488.79998779297</ele>
        <time>2026-09-03T14:49:57.000Z</time>
      </trkpt>
      <trkpt lat="48.20959" lon="6.66321">
        <ele>489</ele>
        <time>2026-09-03T14:49:58.000Z</time>
      </trkpt>
      <trkpt lat="48.2096" lon="6.66321">
        <ele>489.20001220703</ele>
        <time>2026-09-03T14:49:59.000Z</time>
      </trkpt>
      <trkpt lat="48.2096" lon="6.66321">
        <ele>489.40002441406</ele>
        <time>2026-09-03T14:50:00.000Z</time>
      </trkpt>
      <trkpt lat="48.2096" lon="6.6632">
        <ele>489.40002441406</ele>
        <time>2026-09-03T14:50:01.000Z</time>
      </trkpt>
      <trkpt lat="48.2096" lon="6.66321">
        <ele>489.40002441406</ele>
        <time>2026-09-03T14:50:02.000Z</time>
      </trkpt>
      <trkpt lat="48.2096" lon="6.66321">
        <ele>489.40002441406</ele>
        <time>2026-09-03T14:50:03.000Z</time>
      </trkpt>
      <trkpt lat="48.2096" lon="6.66321">
        <ele>489.40002441406</ele>
        <time>2026-09-03T14:50:04.000Z</time>
      </trkpt>
      <trkpt lat="48.2096" lon="6.66321">
        <ele>489.40002441406</ele>
        <time>2026-09-03T14:50:05.000Z</time>
      </trkpt>
      <trkpt lat="48.2096" lon="6.66321">
        <ele>489.40002441406</ele>
        <time>2026-09-03T14:50:06.000Z</time>
      </trkpt>
      <trkpt lat="48.2096" lon="6.66321">
        <ele>489.40002441406</ele>
        <time>2026-09-03T14:50:07.000Z</time>
      </trkpt>
      <trkpt lat="48.2096" lon="6.66321">
        <ele>489.40002441406</ele>
        <time>2026-09-03T14:50:08.000Z</time>
      </trkpt>
      <trkpt lat="48.2096" lon="6.66321">
        <ele>489.40002441406</ele>
        <time>2026-09-03T14:50:09.000Z</time>
      </trkpt>
      <trkpt lat="48.2096" lon="6.66321">
        <ele>489.40002441406</ele>
        <time>2026-09-03T14:50:10.000Z</time>
      </trkpt>
      <trkpt lat="48.20959" lon="6.66323">
        <ele>489.40002441406</ele>
        <time>2026-09-03T14:50:11.000Z</time>
      </trkpt>
      <trkpt lat="48.20959" lon="6.66323">
        <ele>489.40002441406</ele>
        <time>2026-09-03T14:50:12.000Z</time>
      </trkpt>
      <trkpt lat="48.20959" lon="6.66324">
        <ele>489.40002441406</ele>
        <time>2026-09-03T14:50:13.000Z</time>
      </trkpt>
      <trkpt lat="48.20957" lon="6.66325">
        <ele>489.40002441406</ele>
        <time>2026-09-03T14:50:14.000Z</time>
      </trkpt>
      <trkpt lat="48.20957" lon="6.66326">
        <ele>489.40002441406</ele>
        <time>2026-09-03T14:50:15.000Z</time>
      </trkpt>
      <trkpt lat="48.20957" lon="6.66326">
        <ele>489.59997558594</ele>
        <time>2026-09-03T14:50:16.000Z</time>
      </trkpt>
      <trkpt lat="48.20957" lon="6.66327">
        <ele>489.79998779297</ele>
        <time>2026-09-03T14:50:17.000Z</time>
      </trkpt>
      <trkpt lat="48.20957" lon="6.66327">
        <ele>489.79998779297</ele>
        <time>2026-09-03T14:50:18.000Z</time>
      </trkpt>
      <trkpt lat="48.20956" lon="6.66328">
        <ele>490</ele>
        <time>2026-09-03T14:50:19.000Z</time>
      </trkpt>
      <trkpt lat="48.20955" lon="6.66329">
        <ele>490.20001220703</ele>
        <time>2026-09-03T14:50:20.000Z</time>
      </trkpt>
      <trkpt lat="48.20954" lon="6.66329">
        <ele>490.40002441406</ele>
        <time>2026-09-03T14:50:21.000Z</time>
      </trkpt>
      <trkpt lat="48.20954" lon="6.66329">
        <ele>490.59997558594</ele>
        <time>2026-09-03T14:50:22.000Z</time>
      </trkpt>
      <trkpt lat="48.20954" lon="6.6633">
        <ele>490.79998779297</ele>
        <time>2026-09-03T14:50:23.000Z</time>
      </trkpt>
      <trkpt lat="48.20953" lon="6.6633">
        <ele>490.79998779297</ele>
        <time>2026-09-03T14:50:24.000Z</time>
      </trkpt>
      <trkpt lat="48.20953" lon="6.6633">
        <ele>491</ele>
        <time>2026-09-03T14:50:25.000Z</time>
      </trkpt>
      <trkpt lat="48.20952" lon="6.66331">
        <ele>491.20001220703</ele>
        <time>2026-09-03T14:50:26.000Z</time>
      </trkpt>
      <trkpt lat="48.20952" lon="6.66331">
        <ele>491.20001220703</ele>
        <time>2026-09-03T14:50:27.000Z</time>
      </trkpt>
      <trkpt lat="48.20951" lon="6.66333">
        <ele>491.40002441406</ele>
        <time>2026-09-03T14:50:28.000Z</time>
      </trkpt>
      <trkpt lat="48.20951" lon="6.66333">
        <ele>491.59997558594</ele>
        <time>2026-09-03T14:50:29.000Z</time>
      </trkpt>
      <trkpt lat="48.2095" lon="6.66333">
        <ele>491.79998779297</ele>
        <time>2026-09-03T14:50:30.000Z</time>
      </trkpt>
      <trkpt lat="48.2095" lon="6.66333">
        <ele>491.79998779297</ele>
        <time>2026-09-03T14:50:31.000Z</time>
      </trkpt>
      <trkpt lat="48.2095" lon="6.66333">
        <ele>491.79998779297</ele>
        <time>2026-09-03T14:50:32.000Z</time>
      </trkpt>
      <trkpt lat="48.2095" lon="6.66333">
        <ele>491.79998779297</ele>
        <time>2026-09-03T14:50:33.000Z</time>
      </trkpt>
      <trkpt lat="48.2095" lon="6.66333">
        <ele>491.79998779297</ele>
        <time>2026-09-03T14:50:34.000Z</time>
      </trkpt>
      <trkpt lat="48.2095" lon="6.66333">
        <ele>492</ele>
        <time>2026-09-03T14:50:35.000Z</time>
      </trkpt>
      <trkpt lat="48.20949" lon="6.66333">
        <ele>492.20001220703</ele>
        <time>2026-09-03T14:50:36.000Z</time>
      </trkpt>
      <trkpt lat="48.20948" lon="6.66333">
        <ele>492.20001220703</ele>
        <time>2026-09-03T14:50:37.000Z</time>
      </trkpt>
      <trkpt lat="48.20948" lon="6.66333">
        <ele>492.40002441406</ele>
        <time>2026-09-03T14:50:38.000Z</time>
      </trkpt>
      <trkpt lat="48.20948" lon="6.66333">
        <ele>492.79998779297</ele>
        <time>2026-09-03T14:50:39.000Z</time>
      </trkpt>
      <trkpt lat="48.20947" lon="6.66332">
        <ele>493</ele>
        <time>2026-09-03T14:50:40.000Z</time>
      </trkpt>
      <trkpt lat="48.20947" lon="6.66331">
        <ele>493</ele>
        <time>2026-09-03T14:50:41.000Z</time>
      </trkpt>
      <trkpt lat="48.20946" lon="6.6633">
        <ele>493.20001220703</ele>
        <time>2026-09-03T14:50:42.000Z</time>
      </trkpt>
      <trkpt lat="48.20946" lon="6.66329">
        <ele>493.40002441406</ele>
        <time>2026-09-03T14:50:43.000Z</time>
      </trkpt>
      <trkpt lat="48.20945" lon="6.66329">
        <ele>493.40002441406</ele>
        <time>2026-09-03T14:50:44.000Z</time>
      </trkpt>
      <trkpt lat="48.20945" lon="6.66328">
        <ele>493.59997558594</ele>
        <time>2026-09-03T14:50:45.000Z</time>
      </trkpt>
      <trkpt lat="48.20944" lon="6.66327">
        <ele>493.59997558594</ele>
        <time>2026-09-03T14:50:46.000Z</time>
      </trkpt>
      <trkpt lat="48.20944" lon="6.66325">
        <ele>493.59997558594</ele>
        <time>2026-09-03T14:50:47.000Z</time>
      </trkpt>
      <trkpt lat="48.20944" lon="6.66325">
        <ele>493.59997558594</ele>
        <time>2026-09-03T14:50:48.000Z</time>
      </trkpt>
      <trkpt lat="48.20943" lon="6.66324">
        <ele>493.59997558594</ele>
        <time>2026-09-03T14:50:49.000Z</time>
      </trkpt>
      <trkpt lat="48.20943" lon="6.66324">
        <ele>493.59997558594</ele>
        <time>2026-09-03T14:50:50.000Z</time>
      </trkpt>
      <trkpt lat="48.20943" lon="6.66325">
        <ele>493.40002441406</ele>
        <time>2026-09-03T14:50:51.000Z</time>
      </trkpt>
      <trkpt lat="48.20943" lon="6.66325">
        <ele>493.59997558594</ele>
        <time>2026-09-03T14:50:52.000Z</time>
      </trkpt>
      <trkpt lat="48.20943" lon="6.66325">
        <ele>493.79998779297</ele>
        <time>2026-09-03T14:50:53.000Z</time>
      </trkpt>
      <trkpt lat="48.20943" lon="6.66325">
        <ele>494</ele>
        <time>2026-09-03T14:50:54.000Z</time>
      </trkpt>
      <trkpt lat="48.20943" lon="6.66325">
        <ele>494.40002441406</ele>
        <time>2026-09-03T14:50:55.000Z</time>
      </trkpt>
      <trkpt lat="48.20943" lon="6.66325">
        <ele>494.40002441406</ele>
        <time>2026-09-03T14:50:56.000Z</time>
      </trkpt>
      <trkpt lat="48.20942" lon="6.66326">
        <ele>494.59997558594</ele>
        <time>2026-09-03T14:50:57.000Z</time>
      </trkpt>
      <trkpt lat="48.20942" lon="6.66327">
        <ele>494.79998779297</ele>
        <time>2026-09-03T14:50:58.000Z</time>
      </trkpt>
      <trkpt lat="48.20942" lon="6.66327">
        <ele>494.79998779297</ele>
        <time>2026-09-03T14:50:59.000Z</time>
      </trkpt>
      <trkpt lat="48.20941" lon="6.66328">
        <ele>495</ele>
        <time>2026-09-03T14:51:00.000Z</time>
      </trkpt>
      <trkpt lat="48.20941" lon="6.66329">
        <ele>495.20001220703</ele>
        <time>2026-09-03T14:51:01.000Z</time>
      </trkpt>
      <trkpt lat="48.2094" lon="6.6633">
        <ele>495.20001220703</ele>
        <time>2026-09-03T14:51:02.000Z</time>
      </trkpt>
      <trkpt lat="48.2094" lon="6.6633">
        <ele>495.40002441406</ele>
        <time>2026-09-03T14:51:03.000Z</time>
      </trkpt>
      <trkpt lat="48.20939" lon="6.66331">
        <ele>495.40002441406</ele>
        <time>2026-09-03T14:51:04.000Z</time>
      </trkpt>
      <trkpt lat="48.20939" lon="6.66332">
        <ele>495.59997558594</ele>
        <time>2026-09-03T14:51:05.000Z</time>
      </trkpt>
      <trkpt lat="48.20938" lon="6.66332">
        <ele>495.79998779297</ele>
        <time>2026-09-03T14:51:06.000Z</time>
      </trkpt>
      <trkpt lat="48.20937" lon="6.66333">
        <ele>496</ele>
        <time>2026-09-03T14:51:07.000Z</time>
      </trkpt>
      <trkpt lat="48.20938" lon="6.66332">
        <ele>496.20001220703</ele>
        <time>2026-09-03T14:51:08.000Z</time>
      </trkpt>
      <trkpt lat="48.20938" lon="6.66333">
        <ele>496.20001220703</ele>
        <time>2026-09-03T14:51:09.000Z</time>
      </trkpt>
      <trkpt lat="48.20937" lon="6.66334">
        <ele>496.40002441406</ele>
        <time>2026-09-03T14:51:10.000Z</time>
      </trkpt>
      <trkpt lat="48.20937" lon="6.66334">
        <ele>496.59997558594</ele>
        <time>2026-09-03T14:51:11.000Z</time>
      </trkpt>
      <trkpt lat="48.20937" lon="6.66334">
        <ele>496.59997558594</ele>
        <time>2026-09-03T14:51:12.000Z</time>
      </trkpt>
      <trkpt lat="48.20936" lon="6.66335">
        <ele>496.79998779297</ele>
        <time>2026-09-03T14:51:13.000Z</time>
      </trkpt>
      <trkpt lat="48.20936" lon="6.66336">
        <ele>496.79998779297</ele>
        <time>2026-09-03T14:51:14.000Z</time>
      </trkpt>
      <trkpt lat="48.20936" lon="6.66337">
        <ele>497</ele>
        <time>2026-09-03T14:51:15.000Z</time>
      </trkpt>
      <trkpt lat="48.20935" lon="6.66338">
        <ele>497</ele>
        <time>2026-09-03T14:51:16.000Z</time>
      </trkpt>
      <trkpt lat="48.20935" lon="6.66339">
        <ele>497.20001220703</ele>
        <time>2026-09-03T14:51:17.000Z</time>
      </trkpt>
      <trkpt lat="48.20935" lon="6.6634">
        <ele>497.40002441406</ele>
        <time>2026-09-03T14:51:18.000Z</time>
      </trkpt>
      <trkpt lat="48.20935" lon="6.6634">
        <ele>497.59997558594</ele>
        <time>2026-09-03T14:51:19.000Z</time>
      </trkpt>
      <trkpt lat="48.20935" lon="6.66341">
        <ele>497.59997558594</ele>
        <time>2026-09-03T14:51:20.000Z</time>
      </trkpt>
      <trkpt lat="48.20935" lon="6.66341">
        <ele>497.79998779297</ele>
        <time>2026-09-03T14:51:21.000Z</time>
      </trkpt>
      <trkpt lat="48.20935" lon="6.66341">
        <ele>498</ele>
        <time>2026-09-03T14:51:22.000Z</time>
      </trkpt>
      <trkpt lat="48.20935" lon="6.66341">
        <ele>498</ele>
        <time>2026-09-03T14:51:23.000Z</time>
      </trkpt>
      <trkpt lat="48.20936" lon="6.6634">
        <ele>498</ele>
        <time>2026-09-03T14:51:24.000Z</time>
      </trkpt>
      <trkpt lat="48.20937" lon="6.66339">
        <ele>498</ele>
        <time>2026-09-03T14:51:25.000Z</time>
      </trkpt>
      <trkpt lat="48.20937" lon="6.6634">
        <ele>498</ele>
        <time>2026-09-03T14:51:26.000Z</time>
      </trkpt>
      <trkpt lat="48.20936" lon="6.66341">
        <ele>498</ele>
        <time>2026-09-03T14:51:27.000Z</time>
      </trkpt>
      <trkpt lat="48.20936" lon="6.66342">
        <ele>498</ele>
        <time>2026-09-03T14:51:28.000Z</time>
      </trkpt>
      <trkpt lat="48.20935" lon="6.66343">
        <ele>497.79998779297</ele>
        <time>2026-09-03T14:51:29.000Z</time>
      </trkpt>
      <trkpt lat="48.20935" lon="6.66343">
        <ele>497.79998779297</ele>
        <time>2026-09-03T14:51:30.000Z</time>
      </trkpt>
      <trkpt lat="48.20934" lon="6.66344">
        <ele>497.79998779297</ele>
        <time>2026-09-03T14:51:31.000Z</time>
      </trkpt>
      <trkpt lat="48.20933" lon="6.66345">
        <ele>497.79998779297</ele>
        <time>2026-09-03T14:51:32.000Z</time>
      </trkpt>
      <trkpt lat="48.20933" lon="6.66346">
        <ele>498</ele>
        <time>2026-09-03T14:51:33.000Z</time>
      </trkpt>
      <trkpt lat="48.20933" lon="6.66347">
        <ele>498.20001220703</ele>
        <time>2026-09-03T14:51:34.000Z</time>
      </trkpt>
      <trkpt lat="48.20933" lon="6.66347">
        <ele>498.20001220703</ele>
        <time>2026-09-03T14:51:35.000Z</time>
      </trkpt>
      <trkpt lat="48.20932" lon="6.66348">
        <ele>498.40002441406</ele>
        <time>2026-09-03T14:51:36.000Z</time>
      </trkpt>
      <trkpt lat="48.20932" lon="6.66348">
        <ele>498.59997558594</ele>
        <time>2026-09-03T14:51:37.000Z</time>
      </trkpt>
      <trkpt lat="48.20932" lon="6.66348">
        <ele>498.59997558594</ele>
        <time>2026-09-03T14:51:38.000Z</time>
      </trkpt>
      <trkpt lat="48.20932" lon="6.66347">
        <ele>498.79998779297</ele>
        <time>2026-09-03T14:51:39.000Z</time>
      </trkpt>
      <trkpt lat="48.20932" lon="6.66347">
        <ele>498.79998779297</ele>
        <time>2026-09-03T14:51:40.000Z</time>
      </trkpt>
      <trkpt lat="48.20932" lon="6.66347">
        <ele>499</ele>
        <time>2026-09-03T14:51:41.000Z</time>
      </trkpt>
      <trkpt lat="48.20932" lon="6.66347">
        <ele>499</ele>
        <time>2026-09-03T14:51:42.000Z</time>
      </trkpt>
      <trkpt lat="48.20932" lon="6.66347">
        <ele>499</ele>
        <time>2026-09-03T14:51:43.000Z</time>
      </trkpt>
      <trkpt lat="48.20932" lon="6.66347">
        <ele>499</ele>
        <time>2026-09-03T14:51:44.000Z</time>
      </trkpt>
      <trkpt lat="48.20932" lon="6.66347">
        <ele>498.79998779297</ele>
        <time>2026-09-03T14:51:45.000Z</time>
      </trkpt>
      <trkpt lat="48.20932" lon="6.66347">
        <ele>498.79998779297</ele>
        <time>2026-09-03T14:51:46.000Z</time>
      </trkpt>
      <trkpt lat="48.20931" lon="6.66349">
        <ele>498.79998779297</ele>
        <time>2026-09-03T14:51:47.000Z</time>
      </trkpt>
      <trkpt lat="48.20931" lon="6.66351">
        <ele>498.59997558594</ele>
        <time>2026-09-03T14:51:48.000Z</time>
      </trkpt>
      <trkpt lat="48.2093" lon="6.66352">
        <ele>498.79998779297</ele>
        <time>2026-09-03T14:51:49.000Z</time>
      </trkpt>
      <trkpt lat="48.20929" lon="6.66353">
        <ele>498.79998779297</ele>
        <time>2026-09-03T14:51:50.000Z</time>
      </trkpt>
      <trkpt lat="48.20928" lon="6.66354">
        <ele>499</ele>
        <time>2026-09-03T14:51:51.000Z</time>
      </trkpt>
      <trkpt lat="48.20927" lon="6.66355">
        <ele>499</ele>
        <time>2026-09-03T14:51:52.000Z</time>
      </trkpt>
      <trkpt lat="48.20926" lon="6.66355">
        <ele>499.20001220703</ele>
        <time>2026-09-03T14:51:53.000Z</time>
      </trkpt>
      <trkpt lat="48.20925" lon="6.66356">
        <ele>499.20001220703</ele>
        <time>2026-09-03T14:51:54.000Z</time>
      </trkpt>
      <trkpt lat="48.20925" lon="6.66356">
        <ele>499.40002441406</ele>
        <time>2026-09-03T14:51:55.000Z</time>
      </trkpt>
      <trkpt lat="48.20924" lon="6.66356">
        <ele>499.40002441406</ele>
        <time>2026-09-03T14:51:56.000Z</time>
      </trkpt>
      <trkpt lat="48.20924" lon="6.66358">
        <ele>499.59997558594</ele>
        <time>2026-09-03T14:51:57.000Z</time>
      </trkpt>
      <trkpt lat="48.20923" lon="6.66358">
        <ele>499.79998779297</ele>
        <time>2026-09-03T14:51:58.000Z</time>
      </trkpt>
      <trkpt lat="48.20923" lon="6.66359">
        <ele>500</ele>
        <time>2026-09-03T14:51:59.000Z</time>
      </trkpt>
      <trkpt lat="48.20923" lon="6.6636">
        <ele>500.20001220703</ele>
        <time>2026-09-03T14:52:00.000Z</time>
      </trkpt>
      <trkpt lat="48.20924" lon="6.6636">
        <ele>500.20001220703</ele>
        <time>2026-09-03T14:52:01.000Z</time>
      </trkpt>
      <trkpt lat="48.20923" lon="6.6636">
        <ele>500.20001220703</ele>
        <time>2026-09-03T14:52:02.000Z</time>
      </trkpt>
      <trkpt lat="48.20923" lon="6.66361">
        <ele>500.20001220703</ele>
        <time>2026-09-03T14:52:03.000Z</time>
      </trkpt>
      <trkpt lat="48.20923" lon="6.66362">
        <ele>500.20001220703</ele>
        <time>2026-09-03T14:52:04.000Z</time>
      </trkpt>
      <trkpt lat="48.20923" lon="6.66363">
        <ele>500.20001220703</ele>
        <time>2026-09-03T14:52:05.000Z</time>
      </trkpt>
      <trkpt lat="48.20922" lon="6.66364">
        <ele>500.20001220703</ele>
        <time>2026-09-03T14:52:06.000Z</time>
      </trkpt>
      <trkpt lat="48.20922" lon="6.66364">
        <ele>500.20001220703</ele>
        <time>2026-09-03T14:52:07.000Z</time>
      </trkpt>
      <trkpt lat="48.20922" lon="6.66365">
        <ele>500</ele>
        <time>2026-09-03T14:52:08.000Z</time>
      </trkpt>
      <trkpt lat="48.20922" lon="6.66365">
        <ele>500.20001220703</ele>
        <time>2026-09-03T14:52:09.000Z</time>
      </trkpt>
      <trkpt lat="48.20921" lon="6.66366">
        <ele>500.20001220703</ele>
        <time>2026-09-03T14:52:10.000Z</time>
      </trkpt>
      <trkpt lat="48.2092" lon="6.66368">
        <ele>500.20001220703</ele>
        <time>2026-09-03T14:52:11.000Z</time>
      </trkpt>
      <trkpt lat="48.2092" lon="6.66368">
        <ele>500.20001220703</ele>
        <time>2026-09-03T14:52:12.000Z</time>
      </trkpt>
      <trkpt lat="48.20919" lon="6.66368">
        <ele>500.40002441406</ele>
        <time>2026-09-03T14:52:13.000Z</time>
      </trkpt>
      <trkpt lat="48.20919" lon="6.66369">
        <ele>500.40002441406</ele>
        <time>2026-09-03T14:52:14.000Z</time>
      </trkpt>
      <trkpt lat="48.20918" lon="6.6637">
        <ele>500.59997558594</ele>
        <time>2026-09-03T14:52:15.000Z</time>
      </trkpt>
      <trkpt lat="48.20917" lon="6.66371">
        <ele>500.59997558594</ele>
        <time>2026-09-03T14:52:16.000Z</time>
      </trkpt>
      <trkpt lat="48.20917" lon="6.66372">
        <ele>500.79998779297</ele>
        <time>2026-09-03T14:52:17.000Z</time>
      </trkpt>
      <trkpt lat="48.20916" lon="6.66372">
        <ele>501</ele>
        <time>2026-09-03T14:52:18.000Z</time>
      </trkpt>
      <trkpt lat="48.20915" lon="6.66372">
        <ele>501.20001220703</ele>
        <time>2026-09-03T14:52:19.000Z</time>
      </trkpt>
      <trkpt lat="48.20915" lon="6.66372">
        <ele>501.40002441406</ele>
        <time>2026-09-03T14:52:20.000Z</time>
      </trkpt>
      <trkpt lat="48.20914" lon="6.66372">
        <ele>501.59997558594</ele>
        <time>2026-09-03T14:52:21.000Z</time>
      </trkpt>
      <trkpt lat="48.20914" lon="6.66373">
        <ele>501.59997558594</ele>
        <time>2026-09-03T14:52:22.000Z</time>
      </trkpt>
      <trkpt lat="48.20913" lon="6.66374">
        <ele>501.79998779297</ele>
        <time>2026-09-03T14:52:23.000Z</time>
      </trkpt>
      <trkpt lat="48.20913" lon="6.66374">
        <ele>502</ele>
        <time>2026-09-03T14:52:24.000Z</time>
      </trkpt>
      <trkpt lat="48.20913" lon="6.66374">
        <ele>502.20001220703</ele>
        <time>2026-09-03T14:52:25.000Z</time>
      </trkpt>
      <trkpt lat="48.20913" lon="6.66374">
        <ele>502.40002441406</ele>
        <time>2026-09-03T14:52:26.000Z</time>
      </trkpt>
      <trkpt lat="48.20913" lon="6.66375">
        <ele>502.40002441406</ele>
        <time>2026-09-03T14:52:27.000Z</time>
      </trkpt>
      <trkpt lat="48.20913" lon="6.66375">
        <ele>502.59997558594</ele>
        <time>2026-09-03T14:52:28.000Z</time>
      </trkpt>
      <trkpt lat="48.20912" lon="6.66375">
        <ele>502.59997558594</ele>
        <time>2026-09-03T14:52:29.000Z</time>
      </trkpt>
      <trkpt lat="48.20912" lon="6.66375">
        <ele>502.59997558594</ele>
        <time>2026-09-03T14:52:30.000Z</time>
      </trkpt>
      <trkpt lat="48.20911" lon="6.66377">
        <ele>502.59997558594</ele>
        <time>2026-09-03T14:52:31.000Z</time>
      </trkpt>
      <trkpt lat="48.20911" lon="6.66377">
        <ele>502.59997558594</ele>
        <time>2026-09-03T14:52:32.000Z</time>
      </trkpt>
      <trkpt lat="48.2091" lon="6.66378">
        <ele>502.79998779297</ele>
        <time>2026-09-03T14:52:33.000Z</time>
      </trkpt>
      <trkpt lat="48.2091" lon="6.66378">
        <ele>502.79998779297</ele>
        <time>2026-09-03T14:52:34.000Z</time>
      </trkpt>
      <trkpt lat="48.20909" lon="6.66378">
        <ele>502.79998779297</ele>
        <time>2026-09-03T14:52:35.000Z</time>
      </trkpt>
      <trkpt lat="48.20908" lon="6.66379">
        <ele>503</ele>
        <time>2026-09-03T14:52:36.000Z</time>
      </trkpt>
      <trkpt lat="48.20908" lon="6.66378">
        <ele>503</ele>
        <time>2026-09-03T14:52:37.000Z</time>
      </trkpt>
      <trkpt lat="48.20908" lon="6.66378">
        <ele>503.20001220703</ele>
        <time>2026-09-03T14:52:38.000Z</time>
      </trkpt>
      <trkpt lat="48.20908" lon="6.66379">
        <ele>503.40002441406</ele>
        <time>2026-09-03T14:52:39.000Z</time>
      </trkpt>
      <trkpt lat="48.20907" lon="6.66379">
        <ele>503.40002441406</ele>
        <time>2026-09-03T14:52:40.000Z</time>
      </trkpt>
      <trkpt lat="48.20907" lon="6.66379">
        <ele>503.40002441406</ele>
        <time>2026-09-03T14:52:41.000Z</time>
      </trkpt>
      <trkpt lat="48.20907" lon="6.66379">
        <ele>503.40002441406</ele>
        <time>2026-09-03T14:52:42.000Z</time>
      </trkpt>
      <trkpt lat="48.20907" lon="6.66379">
        <ele>503.40002441406</ele>
        <time>2026-09-03T14:52:43.000Z</time>
      </trkpt>
      <trkpt lat="48.20907" lon="6.66379">
        <ele>503.40002441406</ele>
        <time>2026-09-03T14:52:44.000Z</time>
      </trkpt>
      <trkpt lat="48.20907" lon="6.6638">
        <ele>503.20001220703</ele>
        <time>2026-09-03T14:52:45.000Z</time>
      </trkpt>
      <trkpt lat="48.20907" lon="6.66381">
        <ele>503.40002441406</ele>
        <time>2026-09-03T14:52:46.000Z</time>
      </trkpt>
      <trkpt lat="48.20907" lon="6.66382">
        <ele>503.40002441406</ele>
        <time>2026-09-03T14:52:47.000Z</time>
      </trkpt>
      <trkpt lat="48.20906" lon="6.66383">
        <ele>503.59997558594</ele>
        <time>2026-09-03T14:52:48.000Z</time>
      </trkpt>
      <trkpt lat="48.20906" lon="6.66384">
        <ele>503.59997558594</ele>
        <time>2026-09-03T14:52:49.000Z</time>
      </trkpt>
      <trkpt lat="48.20906" lon="6.66385">
        <ele>503.79998779297</ele>
        <time>2026-09-03T14:52:50.000Z</time>
      </trkpt>
      <trkpt lat="48.20905" lon="6.66386">
        <ele>503.59997558594</ele>
        <time>2026-09-03T14:52:51.000Z</time>
      </trkpt>
      <trkpt lat="48.20905" lon="6.66387">
        <ele>503.59997558594</ele>
        <time>2026-09-03T14:52:52.000Z</time>
      </trkpt>
      <trkpt lat="48.20904" lon="6.66388">
        <ele>503.59997558594</ele>
        <time>2026-09-03T14:52:53.000Z</time>
      </trkpt>
      <trkpt lat="48.20903" lon="6.66388">
        <ele>503.59997558594</ele>
        <time>2026-09-03T14:52:54.000Z</time>
      </trkpt>
      <trkpt lat="48.20903" lon="6.66389">
        <ele>503.59997558594</ele>
        <time>2026-09-03T14:52:55.000Z</time>
      </trkpt>
      <trkpt lat="48.20902" lon="6.66389">
        <ele>503.79998779297</ele>
        <time>2026-09-03T14:52:56.000Z</time>
      </trkpt>
      <trkpt lat="48.20902" lon="6.6639">
        <ele>504</ele>
        <time>2026-09-03T14:52:57.000Z</time>
      </trkpt>
      <trkpt lat="48.20902" lon="6.66391">
        <ele>504.20001220703</ele>
        <time>2026-09-03T14:52:58.000Z</time>
      </trkpt>
      <trkpt lat="48.20902" lon="6.66391">
        <ele>504.59997558594</ele>
        <time>2026-09-03T14:52:59.000Z</time>
      </trkpt>
      <trkpt lat="48.20901" lon="6.66393">
        <ele>504.59997558594</ele>
        <time>2026-09-03T14:53:00.000Z</time>
      </trkpt>
      <trkpt lat="48.20901" lon="6.66394">
        <ele>504.79998779297</ele>
        <time>2026-09-03T14:53:01.000Z</time>
      </trkpt>
      <trkpt lat="48.209" lon="6.66394">
        <ele>504.79998779297</ele>
        <time>2026-09-03T14:53:02.000Z</time>
      </trkpt>
      <trkpt lat="48.20899" lon="6.66394">
        <ele>505</ele>
        <time>2026-09-03T14:53:03.000Z</time>
      </trkpt>
      <trkpt lat="48.20899" lon="6.66395">
        <ele>505</ele>
        <time>2026-09-03T14:53:04.000Z</time>
      </trkpt>
      <trkpt lat="48.20898" lon="6.66396">
        <ele>505.20001220703</ele>
        <time>2026-09-03T14:53:05.000Z</time>
      </trkpt>
      <trkpt lat="48.20897" lon="6.66396">
        <ele>505.40002441406</ele>
        <time>2026-09-03T14:53:06.000Z</time>
      </trkpt>
      <trkpt lat="48.20897" lon="6.66396">
        <ele>505.40002441406</ele>
        <time>2026-09-03T14:53:07.000Z</time>
      </trkpt>
      <trkpt lat="48.20896" lon="6.66397">
        <ele>505.59997558594</ele>
        <time>2026-09-03T14:53:08.000Z</time>
      </trkpt>
      <trkpt lat="48.20895" lon="6.66397">
        <ele>505.79998779297</ele>
        <time>2026-09-03T14:53:09.000Z</time>
      </trkpt>
      <trkpt lat="48.20894" lon="6.66397">
        <ele>506</ele>
        <time>2026-09-03T14:53:10.000Z</time>
      </trkpt>
      <trkpt lat="48.20894" lon="6.66396">
        <ele>506.20001220703</ele>
        <time>2026-09-03T14:53:11.000Z</time>
      </trkpt>
      <trkpt lat="48.20894" lon="6.66396">
        <ele>506.40002441406</ele>
        <time>2026-09-03T14:53:12.000Z</time>
      </trkpt>
      <trkpt lat="48.20893" lon="6.66396">
        <ele>506.59997558594</ele>
        <time>2026-09-03T14:53:13.000Z</time>
      </trkpt>
      <trkpt lat="48.20893" lon="6.66395">
        <ele>506.79998779297</ele>
        <time>2026-09-03T14:53:14.000Z</time>
      </trkpt>
      <trkpt lat="48.20892" lon="6.66396">
        <ele>507</ele>
        <time>2026-09-03T14:53:15.000Z</time>
      </trkpt>
      <trkpt lat="48.20892" lon="6.66396">
        <ele>507.20001220703</ele>
        <time>2026-09-03T14:53:16.000Z</time>
      </trkpt>
      <trkpt lat="48.20892" lon="6.66397">
        <ele>507.40002441406</ele>
        <time>2026-09-03T14:53:17.000Z</time>
      </trkpt>
      <trkpt lat="48.20893" lon="6.66397">
        <ele>507.59997558594</ele>
        <time>2026-09-03T14:53:18.000Z</time>
      </trkpt>
      <trkpt lat="48.20892" lon="6.66398">
        <ele>507.59997558594</ele>
        <time>2026-09-03T14:53:19.000Z</time>
      </trkpt>
      <trkpt lat="48.20892" lon="6.66398">
        <ele>507.59997558594</ele>
        <time>2026-09-03T14:53:20.000Z</time>
      </trkpt>
      <trkpt lat="48.20892" lon="6.66399">
        <ele>507.59997558594</ele>
        <time>2026-09-03T14:53:21.000Z</time>
      </trkpt>
      <trkpt lat="48.20892" lon="6.664">
        <ele>507.59997558594</ele>
        <time>2026-09-03T14:53:22.000Z</time>
      </trkpt>
      <trkpt lat="48.20891" lon="6.66402">
        <ele>507.59997558594</ele>
        <time>2026-09-03T14:53:23.000Z</time>
      </trkpt>
      <trkpt lat="48.2089" lon="6.66402">
        <ele>507.79998779297</ele>
        <time>2026-09-03T14:53:24.000Z</time>
      </trkpt>
      <trkpt lat="48.20891" lon="6.66402">
        <ele>507.79998779297</ele>
        <time>2026-09-03T14:53:25.000Z</time>
      </trkpt>
      <trkpt lat="48.20891" lon="6.66402">
        <ele>507.79998779297</ele>
        <time>2026-09-03T14:53:26.000Z</time>
      </trkpt>
      <trkpt lat="48.20891" lon="6.66402">
        <ele>507.79998779297</ele>
        <time>2026-09-03T14:53:27.000Z</time>
      </trkpt>
      <trkpt lat="48.20891" lon="6.66402">
        <ele>507.79998779297</ele>
        <time>2026-09-03T14:53:28.000Z</time>
      </trkpt>
      <trkpt lat="48.20891" lon="6.66402">
        <ele>508</ele>
        <time>2026-09-03T14:53:29.000Z</time>
      </trkpt>
      <trkpt lat="48.20891" lon="6.66402">
        <ele>508</ele>
        <time>2026-09-03T14:53:30.000Z</time>
      </trkpt>
      <trkpt lat="48.20891" lon="6.66402">
        <ele>508</ele>
        <time>2026-09-03T14:53:31.000Z</time>
      </trkpt>
      <trkpt lat="48.20891" lon="6.66402">
        <ele>508</ele>
        <time>2026-09-03T14:53:32.000Z</time>
      </trkpt>
      <trkpt lat="48.20891" lon="6.66402">
        <ele>508</ele>
        <time>2026-09-03T14:53:33.000Z</time>
      </trkpt>
      <trkpt lat="48.20891" lon="6.66402">
        <ele>508</ele>
        <time>2026-09-03T14:53:34.000Z</time>
      </trkpt>
      <trkpt lat="48.20891" lon="6.66402">
        <ele>508</ele>
        <time>2026-09-03T14:53:35.000Z</time>
      </trkpt>
      <trkpt lat="48.20891" lon="6.66402">
        <ele>508</ele>
        <time>2026-09-03T14:53:36.000Z</time>
      </trkpt>
      <trkpt lat="48.20891" lon="6.66402">
        <ele>508</ele>
        <time>2026-09-03T14:53:37.000Z</time>
      </trkpt>
      <trkpt lat="48.20891" lon="6.66402">
        <ele>507.79998779297</ele>
        <time>2026-09-03T14:53:38.000Z</time>
      </trkpt>
      <trkpt lat="48.20891" lon="6.66402">
        <ele>507.59997558594</ele>
        <time>2026-09-03T14:53:39.000Z</time>
      </trkpt>
      <trkpt lat="48.20891" lon="6.66402">
        <ele>507.59997558594</ele>
        <time>2026-09-03T14:53:40.000Z</time>
      </trkpt>
      <trkpt lat="48.20891" lon="6.66402">
        <ele>507.59997558594</ele>
        <time>2026-09-03T14:53:41.000Z</time>
      </trkpt>
      <trkpt lat="48.20891" lon="6.66402">
        <ele>507.79998779297</ele>
        <time>2026-09-03T14:53:42.000Z</time>
      </trkpt>
      <trkpt lat="48.20891" lon="6.66402">
        <ele>507.79998779297</ele>
        <time>2026-09-03T14:53:43.000Z</time>
      </trkpt>
      <trkpt lat="48.20891" lon="6.66402">
        <ele>508</ele>
        <time>2026-09-03T14:53:44.000Z</time>
      </trkpt>
      <trkpt lat="48.20891" lon="6.66402">
        <ele>508</ele>
        <time>2026-09-03T14:53:45.000Z</time>
      </trkpt>
      <trkpt lat="48.20891" lon="6.66402">
        <ele>508</ele>
        <time>2026-09-03T14:53:46.000Z</time>
      </trkpt>
      <trkpt lat="48.20891" lon="6.66401">
        <ele>508.20001220703</ele>
        <time>2026-09-03T14:53:47.000Z</time>
      </trkpt>
      <trkpt lat="48.20891" lon="6.66402">
        <ele>508.20001220703</ele>
        <time>2026-09-03T14:53:48.000Z</time>
      </trkpt>
      <trkpt lat="48.2089" lon="6.66403">
        <ele>508.20001220703</ele>
        <time>2026-09-03T14:53:49.000Z</time>
      </trkpt>
      <trkpt lat="48.2089" lon="6.66404">
        <ele>508.20001220703</ele>
        <time>2026-09-03T14:53:50.000Z</time>
      </trkpt>
      <trkpt lat="48.2089" lon="6.66405">
        <ele>508.20001220703</ele>
        <time>2026-09-03T14:53:51.000Z</time>
      </trkpt>
      <trkpt lat="48.20889" lon="6.66406">
        <ele>508.40002441406</ele>
        <time>2026-09-03T14:53:52.000Z</time>
      </trkpt>
      <trkpt lat="48.20889" lon="6.66408">
        <ele>508.59997558594</ele>
        <time>2026-09-03T14:53:53.000Z</time>
      </trkpt>
      <trkpt lat="48.20889" lon="6.66409">
        <ele>508.79998779297</ele>
        <time>2026-09-03T14:53:54.000Z</time>
      </trkpt>
      <trkpt lat="48.20889" lon="6.66409">
        <ele>508.79998779297</ele>
        <time>2026-09-03T14:53:55.000Z</time>
      </trkpt>
      <trkpt lat="48.20889" lon="6.6641">
        <ele>509</ele>
        <time>2026-09-03T14:53:56.000Z</time>
      </trkpt>
      <trkpt lat="48.20888" lon="6.66411">
        <ele>509</ele>
        <time>2026-09-03T14:53:57.000Z</time>
      </trkpt>
      <trkpt lat="48.20888" lon="6.66412">
        <ele>509.20001220703</ele>
        <time>2026-09-03T14:53:58.000Z</time>
      </trkpt>
      <trkpt lat="48.20887" lon="6.66413">
        <ele>509.20001220703</ele>
        <time>2026-09-03T14:53:59.000Z</time>
      </trkpt>
      <trkpt lat="48.20886" lon="6.66414">
        <ele>509.20001220703</ele>
        <time>2026-09-03T14:54:00.000Z</time>
      </trkpt>
      <trkpt lat="48.20886" lon="6.66415">
        <ele>509.40002441406</ele>
        <time>2026-09-03T14:54:01.000Z</time>
      </trkpt>
      <trkpt lat="48.20885" lon="6.66417">
        <ele>509.40002441406</ele>
        <time>2026-09-03T14:54:02.000Z</time>
      </trkpt>
      <trkpt lat="48.20885" lon="6.66418">
        <ele>509.59997558594</ele>
        <time>2026-09-03T14:54:03.000Z</time>
      </trkpt>
      <trkpt lat="48.20884" lon="6.66419">
        <ele>509.59997558594</ele>
        <time>2026-09-03T14:54:04.000Z</time>
      </trkpt>
      <trkpt lat="48.20884" lon="6.6642">
        <ele>509.59997558594</ele>
        <time>2026-09-03T14:54:05.000Z</time>
      </trkpt>
      <trkpt lat="48.20884" lon="6.66422">
        <ele>509.79998779297</ele>
        <time>2026-09-03T14:54:06.000Z</time>
      </trkpt>
      <trkpt lat="48.20883" lon="6.66423">
        <ele>509.79998779297</ele>
        <time>2026-09-03T14:54:07.000Z</time>
      </trkpt>
      <trkpt lat="48.20883" lon="6.66424">
        <ele>510</ele>
        <time>2026-09-03T14:54:08.000Z</time>
      </trkpt>
      <trkpt lat="48.20883" lon="6.66425">
        <ele>510.20001220703</ele>
        <time>2026-09-03T14:54:09.000Z</time>
      </trkpt>
      <trkpt lat="48.20882" lon="6.66426">
        <ele>510.20001220703</ele>
        <time>2026-09-03T14:54:10.000Z</time>
      </trkpt>
      <trkpt lat="48.20881" lon="6.66427">
        <ele>510.40002441406</ele>
        <time>2026-09-03T14:54:11.000Z</time>
      </trkpt>
      <trkpt lat="48.2088" lon="6.66428">
        <ele>510.59997558594</ele>
        <time>2026-09-03T14:54:12.000Z</time>
      </trkpt>
      <trkpt lat="48.2088" lon="6.6643">
        <ele>510.59997558594</ele>
        <time>2026-09-03T14:54:13.000Z</time>
      </trkpt>
      <trkpt lat="48.20879" lon="6.66431">
        <ele>510.79998779297</ele>
        <time>2026-09-03T14:54:14.000Z</time>
      </trkpt>
      <trkpt lat="48.20879" lon="6.66432">
        <ele>511</ele>
        <time>2026-09-03T14:54:15.000Z</time>
      </trkpt>
      <trkpt lat="48.20878" lon="6.66434">
        <ele>511</ele>
        <time>2026-09-03T14:54:16.000Z</time>
      </trkpt>
      <trkpt lat="48.20878" lon="6.66434">
        <ele>511</ele>
        <time>2026-09-03T14:54:17.000Z</time>
      </trkpt>
      <trkpt lat="48.20877" lon="6.66435">
        <ele>511</ele>
        <time>2026-09-03T14:54:18.000Z</time>
      </trkpt>
      <trkpt lat="48.20877" lon="6.66437">
        <ele>511.20001220703</ele>
        <time>2026-09-03T14:54:19.000Z</time>
      </trkpt>
      <trkpt lat="48.20876" lon="6.66438">
        <ele>511.20001220703</ele>
        <time>2026-09-03T14:54:20.000Z</time>
      </trkpt>
      <trkpt lat="48.20876" lon="6.66439">
        <ele>511.40002441406</ele>
        <time>2026-09-03T14:54:21.000Z</time>
      </trkpt>
      <trkpt lat="48.20875" lon="6.66441">
        <ele>511.40002441406</ele>
        <time>2026-09-03T14:54:22.000Z</time>
      </trkpt>
      <trkpt lat="48.20874" lon="6.66442">
        <ele>511.59997558594</ele>
        <time>2026-09-03T14:54:23.000Z</time>
      </trkpt>
      <trkpt lat="48.20873" lon="6.66442">
        <ele>511.59997558594</ele>
        <time>2026-09-03T14:54:24.000Z</time>
      </trkpt>
      <trkpt lat="48.20873" lon="6.66443">
        <ele>511.59997558594</ele>
        <time>2026-09-03T14:54:25.000Z</time>
      </trkpt>
      <trkpt lat="48.20872" lon="6.66445">
        <ele>511.79998779297</ele>
        <time>2026-09-03T14:54:26.000Z</time>
      </trkpt>
      <trkpt lat="48.20872" lon="6.66445">
        <ele>511.79998779297</ele>
        <time>2026-09-03T14:54:27.000Z</time>
      </trkpt>
      <trkpt lat="48.20872" lon="6.66446">
        <ele>512</ele>
        <time>2026-09-03T14:54:28.000Z</time>
      </trkpt>
      <trkpt lat="48.20871" lon="6.66447">
        <ele>512</ele>
        <time>2026-09-03T14:54:29.000Z</time>
      </trkpt>
      <trkpt lat="48.2087" lon="6.66449">
        <ele>512.20001220703</ele>
        <time>2026-09-03T14:54:30.000Z</time>
      </trkpt>
      <trkpt lat="48.2087" lon="6.6645">
        <ele>512.20001220703</ele>
        <time>2026-09-03T14:54:31.000Z</time>
      </trkpt>
      <trkpt lat="48.2087" lon="6.6645">
        <ele>512.40002441406</ele>
        <time>2026-09-03T14:54:32.000Z</time>
      </trkpt>
      <trkpt lat="48.20869" lon="6.66451">
        <ele>512.40002441406</ele>
        <time>2026-09-03T14:54:33.000Z</time>
      </trkpt>
      <trkpt lat="48.20869" lon="6.66451">
        <ele>512.59997558594</ele>
        <time>2026-09-03T14:54:34.000Z</time>
      </trkpt>
      <trkpt lat="48.20869" lon="6.66452">
        <ele>512.79998779297</ele>
        <time>2026-09-03T14:54:35.000Z</time>
      </trkpt>
      <trkpt lat="48.20868" lon="6.66453">
        <ele>513</ele>
        <time>2026-09-03T14:54:36.000Z</time>
      </trkpt>
      <trkpt lat="48.20867" lon="6.66453">
        <ele>513.20001220703</ele>
        <time>2026-09-03T14:54:37.000Z</time>
      </trkpt>
      <trkpt lat="48.20867" lon="6.66453">
        <ele>513.40002441406</ele>
        <time>2026-09-03T14:54:38.000Z</time>
      </trkpt>
      <trkpt lat="48.20866" lon="6.66455">
        <ele>513.59997558594</ele>
        <time>2026-09-03T14:54:39.000Z</time>
      </trkpt>
      <trkpt lat="48.20865" lon="6.66455">
        <ele>513.59997558594</ele>
        <time>2026-09-03T14:54:40.000Z</time>
      </trkpt>
      <trkpt lat="48.20864" lon="6.66456">
        <ele>513.79998779297</ele>
        <time>2026-09-03T14:54:41.000Z</time>
      </trkpt>
      <trkpt lat="48.20863" lon="6.66457">
        <ele>513.79998779297</ele>
        <time>2026-09-03T14:54:42.000Z</time>
      </trkpt>
      <trkpt lat="48.20863" lon="6.66458">
        <ele>514</ele>
        <time>2026-09-03T14:54:43.000Z</time>
      </trkpt>
      <trkpt lat="48.20862" lon="6.66459">
        <ele>514.20001220703</ele>
        <time>2026-09-03T14:54:44.000Z</time>
      </trkpt>
      <trkpt lat="48.20861" lon="6.6646">
        <ele>514.40002441406</ele>
        <time>2026-09-03T14:54:45.000Z</time>
      </trkpt>
      <trkpt lat="48.20861" lon="6.6646">
        <ele>514.59997558594</ele>
        <time>2026-09-03T14:54:46.000Z</time>
      </trkpt>
      <trkpt lat="48.20861" lon="6.66461">
        <ele>514.79998779297</ele>
        <time>2026-09-03T14:54:47.000Z</time>
      </trkpt>
      <trkpt lat="48.2086" lon="6.66463">
        <ele>514.79998779297</ele>
        <time>2026-09-03T14:54:48.000Z</time>
      </trkpt>
      <trkpt lat="48.20859" lon="6.66463">
        <ele>514.79998779297</ele>
        <time>2026-09-03T14:54:49.000Z</time>
      </trkpt>
      <trkpt lat="48.20859" lon="6.66464">
        <ele>515</ele>
        <time>2026-09-03T14:54:50.000Z</time>
      </trkpt>
      <trkpt lat="48.20858" lon="6.66466">
        <ele>515.20001220703</ele>
        <time>2026-09-03T14:54:51.000Z</time>
      </trkpt>
      <trkpt lat="48.20858" lon="6.66467">
        <ele>515.40002441406</ele>
        <time>2026-09-03T14:54:52.000Z</time>
      </trkpt>
      <trkpt lat="48.20858" lon="6.66467">
        <ele>515.59997558594</ele>
        <time>2026-09-03T14:54:53.000Z</time>
      </trkpt>
      <trkpt lat="48.20857" lon="6.66468">
        <ele>515.79998779297</ele>
        <time>2026-09-03T14:54:54.000Z</time>
      </trkpt>
      <trkpt lat="48.20857" lon="6.66468">
        <ele>515.79998779297</ele>
        <time>2026-09-03T14:54:55.000Z</time>
      </trkpt>
      <trkpt lat="48.20857" lon="6.66469">
        <ele>516</ele>
        <time>2026-09-03T14:54:56.000Z</time>
      </trkpt>
      <trkpt lat="48.20856" lon="6.66469">
        <ele>516.20001220703</ele>
        <time>2026-09-03T14:54:57.000Z</time>
      </trkpt>
      <trkpt lat="48.20856" lon="6.6647">
        <ele>516.40002441406</ele>
        <time>2026-09-03T14:54:58.000Z</time>
      </trkpt>
      <trkpt lat="48.20855" lon="6.6647">
        <ele>516.59997558594</ele>
        <time>2026-09-03T14:54:59.000Z</time>
      </trkpt>
      <trkpt lat="48.20854" lon="6.66472">
        <ele>516.79998779297</ele>
        <time>2026-09-03T14:55:00.000Z</time>
      </trkpt>
      <trkpt lat="48.20854" lon="6.66472">
        <ele>517</ele>
        <time>2026-09-03T14:55:01.000Z</time>
      </trkpt>
      <trkpt lat="48.20853" lon="6.66473">
        <ele>517.20001220703</ele>
        <time>2026-09-03T14:55:02.000Z</time>
      </trkpt>
      <trkpt lat="48.20853" lon="6.66475">
        <ele>517.40002441406</ele>
        <time>2026-09-03T14:55:03.000Z</time>
      </trkpt>
      <trkpt lat="48.20852" lon="6.66475">
        <ele>517.40002441406</ele>
        <time>2026-09-03T14:55:04.000Z</time>
      </trkpt>
      <trkpt lat="48.20851" lon="6.66476">
        <ele>517.59997558594</ele>
        <time>2026-09-03T14:55:05.000Z</time>
      </trkpt>
      <trkpt lat="48.20851" lon="6.66477">
        <ele>517.79998779297</ele>
        <time>2026-09-03T14:55:06.000Z</time>
      </trkpt>
      <trkpt lat="48.20851" lon="6.66477">
        <ele>517.79998779297</ele>
        <time>2026-09-03T14:55:07.000Z</time>
      </trkpt>
      <trkpt lat="48.2085" lon="6.66478">
        <ele>518</ele>
        <time>2026-09-03T14:55:08.000Z</time>
      </trkpt>
      <trkpt lat="48.2085" lon="6.66478">
        <ele>518.20001220703</ele>
        <time>2026-09-03T14:55:09.000Z</time>
      </trkpt>
      <trkpt lat="48.20849" lon="6.66479">
        <ele>518.40002441406</ele>
        <time>2026-09-03T14:55:10.000Z</time>
      </trkpt>
      <trkpt lat="48.20849" lon="6.66479">
        <ele>518.59997558594</ele>
        <time>2026-09-03T14:55:11.000Z</time>
      </trkpt>
      <trkpt lat="48.20848" lon="6.66479">
        <ele>518.79998779297</ele>
        <time>2026-09-03T14:55:12.000Z</time>
      </trkpt>
      <trkpt lat="48.20848" lon="6.6648">
        <ele>519</ele>
        <time>2026-09-03T14:55:13.000Z</time>
      </trkpt>
      <trkpt lat="48.20848" lon="6.6648">
        <ele>519.20001220703</ele>
        <time>2026-09-03T14:55:14.000Z</time>
      </trkpt>
      <trkpt lat="48.20848" lon="6.66481">
        <ele>519.20001220703</ele>
        <time>2026-09-03T14:55:15.000Z</time>
      </trkpt>
      <trkpt lat="48.20847" lon="6.66481">
        <ele>519.40002441406</ele>
        <time>2026-09-03T14:55:16.000Z</time>
      </trkpt>
      <trkpt lat="48.20847" lon="6.66482">
        <ele>519.59997558594</ele>
        <time>2026-09-03T14:55:17.000Z</time>
      </trkpt>
      <trkpt lat="48.20846" lon="6.66482">
        <ele>519.79998779297</ele>
        <time>2026-09-03T14:55:18.000Z</time>
      </trkpt>
      <trkpt lat="48.20846" lon="6.66482">
        <ele>519.79998779297</ele>
        <time>2026-09-03T14:55:19.000Z</time>
      </trkpt>
      <trkpt lat="48.20845" lon="6.66483">
        <ele>520</ele>
        <time>2026-09-03T14:55:20.000Z</time>
      </trkpt>
      <trkpt lat="48.20844" lon="6.66484">
        <ele>520.20001220703</ele>
        <time>2026-09-03T14:55:21.000Z</time>
      </trkpt>
      <trkpt lat="48.20844" lon="6.66484">
        <ele>520.40002441406</ele>
        <time>2026-09-03T14:55:22.000Z</time>
      </trkpt>
      <trkpt lat="48.20844" lon="6.66484">
        <ele>520.40002441406</ele>
        <time>2026-09-03T14:55:23.000Z</time>
      </trkpt>
      <trkpt lat="48.20843" lon="6.66486">
        <ele>520.59997558594</ele>
        <time>2026-09-03T14:55:24.000Z</time>
      </trkpt>
      <trkpt lat="48.20843" lon="6.66486">
        <ele>520.59997558594</ele>
        <time>2026-09-03T14:55:25.000Z</time>
      </trkpt>
      <trkpt lat="48.20842" lon="6.66487">
        <ele>520.59997558594</ele>
        <time>2026-09-03T14:55:26.000Z</time>
      </trkpt>
      <trkpt lat="48.20842" lon="6.66487">
        <ele>520.79998779297</ele>
        <time>2026-09-03T14:55:27.000Z</time>
      </trkpt>
      <trkpt lat="48.20842" lon="6.66488">
        <ele>520.79998779297</ele>
        <time>2026-09-03T14:55:28.000Z</time>
      </trkpt>
      <trkpt lat="48.20841" lon="6.66488">
        <ele>521</ele>
        <time>2026-09-03T14:55:29.000Z</time>
      </trkpt>
      <trkpt lat="48.20841" lon="6.66489">
        <ele>521.20001220703</ele>
        <time>2026-09-03T14:55:30.000Z</time>
      </trkpt>
      <trkpt lat="48.2084" lon="6.66489">
        <ele>521.40002441406</ele>
        <time>2026-09-03T14:55:31.000Z</time>
      </trkpt>
      <trkpt lat="48.2084" lon="6.66491">
        <ele>521.59997558594</ele>
        <time>2026-09-03T14:55:32.000Z</time>
      </trkpt>
      <trkpt lat="48.20839" lon="6.66491">
        <ele>521.59997558594</ele>
        <time>2026-09-03T14:55:33.000Z</time>
      </trkpt>
      <trkpt lat="48.20838" lon="6.66492">
        <ele>521.79998779297</ele>
        <time>2026-09-03T14:55:34.000Z</time>
      </trkpt>
      <trkpt lat="48.20837" lon="6.66493">
        <ele>522</ele>
        <time>2026-09-03T14:55:35.000Z</time>
      </trkpt>
      <trkpt lat="48.20836" lon="6.66494">
        <ele>522</ele>
        <time>2026-09-03T14:55:36.000Z</time>
      </trkpt>
      <trkpt lat="48.20835" lon="6.66496">
        <ele>522.20001220703</ele>
        <time>2026-09-03T14:55:37.000Z</time>
      </trkpt>
      <trkpt lat="48.20834" lon="6.66497">
        <ele>522.40002441406</ele>
        <time>2026-09-03T14:55:38.000Z</time>
      </trkpt>
      <trkpt lat="48.20833" lon="6.66498">
        <ele>522.40002441406</ele>
        <time>2026-09-03T14:55:39.000Z</time>
      </trkpt>
      <trkpt lat="48.20832" lon="6.66499">
        <ele>522.40002441406</ele>
        <time>2026-09-03T14:55:40.000Z</time>
      </trkpt>
      <trkpt lat="48.20832" lon="6.665">
        <ele>522.59997558594</ele>
        <time>2026-09-03T14:55:41.000Z</time>
      </trkpt>
      <trkpt lat="48.20831" lon="6.665">
        <ele>522.59997558594</ele>
        <time>2026-09-03T14:55:42.000Z</time>
      </trkpt>
      <trkpt lat="48.20831" lon="6.66501">
        <ele>522.79998779297</ele>
        <time>2026-09-03T14:55:43.000Z</time>
      </trkpt>
      <trkpt lat="48.2083" lon="6.66502">
        <ele>523</ele>
        <time>2026-09-03T14:55:44.000Z</time>
      </trkpt>
      <trkpt lat="48.2083" lon="6.66503">
        <ele>523.20001220703</ele>
        <time>2026-09-03T14:55:45.000Z</time>
      </trkpt>
      <trkpt lat="48.2083" lon="6.66503">
        <ele>523.40002441406</ele>
        <time>2026-09-03T14:55:46.000Z</time>
      </trkpt>
      <trkpt lat="48.20829" lon="6.66503">
        <ele>523.40002441406</ele>
        <time>2026-09-03T14:55:47.000Z</time>
      </trkpt>
      <trkpt lat="48.20829" lon="6.66504">
        <ele>523.59997558594</ele>
        <time>2026-09-03T14:55:48.000Z</time>
      </trkpt>
      <trkpt lat="48.20829" lon="6.66504">
        <ele>523.59997558594</ele>
        <time>2026-09-03T14:55:49.000Z</time>
      </trkpt>
      <trkpt lat="48.20829" lon="6.66505">
        <ele>523.79998779297</ele>
        <time>2026-09-03T14:55:50.000Z</time>
      </trkpt>
      <trkpt lat="48.20828" lon="6.66505">
        <ele>523.79998779297</ele>
        <time>2026-09-03T14:55:51.000Z</time>
      </trkpt>
      <trkpt lat="48.20828" lon="6.66506">
        <ele>524</ele>
        <time>2026-09-03T14:55:52.000Z</time>
      </trkpt>
      <trkpt lat="48.20829" lon="6.66505">
        <ele>524.19995117188</ele>
        <time>2026-09-03T14:55:53.000Z</time>
      </trkpt>
      <trkpt lat="48.20829" lon="6.66505">
        <ele>524.40002441406</ele>
        <time>2026-09-03T14:55:54.000Z</time>
      </trkpt>
      <trkpt lat="48.20829" lon="6.66505">
        <ele>524.40002441406</ele>
        <time>2026-09-03T14:55:55.000Z</time>
      </trkpt>
      <trkpt lat="48.20829" lon="6.66506">
        <ele>524.40002441406</ele>
        <time>2026-09-03T14:55:56.000Z</time>
      </trkpt>
      <trkpt lat="48.20829" lon="6.66507">
        <ele>524.40002441406</ele>
        <time>2026-09-03T14:55:57.000Z</time>
      </trkpt>
      <trkpt lat="48.20829" lon="6.66507">
        <ele>524.40002441406</ele>
        <time>2026-09-03T14:55:58.000Z</time>
      </trkpt>
      <trkpt lat="48.20828" lon="6.66508">
        <ele>524.59997558594</ele>
        <time>2026-09-03T14:55:59.000Z</time>
      </trkpt>
      <trkpt lat="48.20828" lon="6.66509">
        <ele>524.59997558594</ele>
        <time>2026-09-03T14:56:00.000Z</time>
      </trkpt>
      <trkpt lat="48.20827" lon="6.6651">
        <ele>524.59997558594</ele>
        <time>2026-09-03T14:56:01.000Z</time>
      </trkpt>
      <trkpt lat="48.20826" lon="6.66511">
        <ele>524.59997558594</ele>
        <time>2026-09-03T14:56:02.000Z</time>
      </trkpt>
      <trkpt lat="48.20825" lon="6.66512">
        <ele>524.80004882812</ele>
        <time>2026-09-03T14:56:03.000Z</time>
      </trkpt>
      <trkpt lat="48.20824" lon="6.66512">
        <ele>525</ele>
        <time>2026-09-03T14:56:04.000Z</time>
      </trkpt>
      <trkpt lat="48.20824" lon="6.66513">
        <ele>525.19995117188</ele>
        <time>2026-09-03T14:56:05.000Z</time>
      </trkpt>
      <trkpt lat="48.20823" lon="6.66514">
        <ele>525.19995117188</ele>
        <time>2026-09-03T14:56:06.000Z</time>
      </trkpt>
      <trkpt lat="48.20823" lon="6.66515">
        <ele>525.40002441406</ele>
        <time>2026-09-03T14:56:07.000Z</time>
      </trkpt>
      <trkpt lat="48.20822" lon="6.66515">
        <ele>525.59997558594</ele>
        <time>2026-09-03T14:56:08.000Z</time>
      </trkpt>
      <trkpt lat="48.20822" lon="6.66515">
        <ele>525.80004882812</ele>
        <time>2026-09-03T14:56:09.000Z</time>
      </trkpt>
      <trkpt lat="48.20821" lon="6.66515">
        <ele>526</ele>
        <time>2026-09-03T14:56:10.000Z</time>
      </trkpt>
      <trkpt lat="48.20821" lon="6.66516">
        <ele>526</ele>
        <time>2026-09-03T14:56:11.000Z</time>
      </trkpt>
      <trkpt lat="48.2082" lon="6.66516">
        <ele>526.19995117188</ele>
        <time>2026-09-03T14:56:12.000Z</time>
      </trkpt>
      <trkpt lat="48.2082" lon="6.66516">
        <ele>526.19995117188</ele>
        <time>2026-09-03T14:56:13.000Z</time>
      </trkpt>
      <trkpt lat="48.20819" lon="6.66516">
        <ele>526.19995117188</ele>
        <time>2026-09-03T14:56:14.000Z</time>
      </trkpt>
      <trkpt lat="48.20818" lon="6.66517">
        <ele>526.40002441406</ele>
        <time>2026-09-03T14:56:15.000Z</time>
      </trkpt>
      <trkpt lat="48.20818" lon="6.66516">
        <ele>526.40002441406</ele>
        <time>2026-09-03T14:56:16.000Z</time>
      </trkpt>
      <trkpt lat="48.20817" lon="6.66515">
        <ele>526.59997558594</ele>
        <time>2026-09-03T14:56:17.000Z</time>
      </trkpt>
      <trkpt lat="48.20817" lon="6.66516">
        <ele>526.59997558594</ele>
        <time>2026-09-03T14:56:18.000Z</time>
      </trkpt>
      <trkpt lat="48.20816" lon="6.66516">
        <ele>526.80004882812</ele>
        <time>2026-09-03T14:56:19.000Z</time>
      </trkpt>
      <trkpt lat="48.20816" lon="6.66517">
        <ele>527</ele>
        <time>2026-09-03T14:56:20.000Z</time>
      </trkpt>
      <trkpt lat="48.20816" lon="6.66518">
        <ele>527.19995117188</ele>
        <time>2026-09-03T14:56:21.000Z</time>
      </trkpt>
      <trkpt lat="48.20816" lon="6.66518">
        <ele>527.40002441406</ele>
        <time>2026-09-03T14:56:22.000Z</time>
      </trkpt>
      <trkpt lat="48.20815" lon="6.66518">
        <ele>527.40002441406</ele>
        <time>2026-09-03T14:56:23.000Z</time>
      </trkpt>
      <trkpt lat="48.20815" lon="6.66518">
        <ele>527.59997558594</ele>
        <time>2026-09-03T14:56:24.000Z</time>
      </trkpt>
      <trkpt lat="48.20815" lon="6.66519">
        <ele>527.80004882812</ele>
        <time>2026-09-03T14:56:25.000Z</time>
      </trkpt>
      <trkpt lat="48.20814" lon="6.6652">
        <ele>527.80004882812</ele>
        <time>2026-09-03T14:56:26.000Z</time>
      </trkpt>
      <trkpt lat="48.20814" lon="6.66521">
        <ele>528</ele>
        <time>2026-09-03T14:56:27.000Z</time>
      </trkpt>
      <trkpt lat="48.20814" lon="6.66521">
        <ele>528.19995117188</ele>
        <time>2026-09-03T14:56:28.000Z</time>
      </trkpt>
      <trkpt lat="48.20813" lon="6.66522">
        <ele>528.40002441406</ele>
        <time>2026-09-03T14:56:29.000Z</time>
      </trkpt>
      <trkpt lat="48.20812" lon="6.66522">
        <ele>528.59997558594</ele>
        <time>2026-09-03T14:56:30.000Z</time>
      </trkpt>
      <trkpt lat="48.20812" lon="6.66521">
        <ele>528.80004882812</ele>
        <time>2026-09-03T14:56:31.000Z</time>
      </trkpt>
      <trkpt lat="48.20812" lon="6.6652">
        <ele>529</ele>
        <time>2026-09-03T14:56:32.000Z</time>
      </trkpt>
      <trkpt lat="48.20811" lon="6.6652">
        <ele>529</ele>
        <time>2026-09-03T14:56:33.000Z</time>
      </trkpt>
      <trkpt lat="48.20811" lon="6.6652">
        <ele>529</ele>
        <time>2026-09-03T14:56:34.000Z</time>
      </trkpt>
      <trkpt lat="48.20811" lon="6.6652">
        <ele>528.80004882812</ele>
        <time>2026-09-03T14:56:35.000Z</time>
      </trkpt>
      <trkpt lat="48.20811" lon="6.6652">
        <ele>528.80004882812</ele>
        <time>2026-09-03T14:56:36.000Z</time>
      </trkpt>
      <trkpt lat="48.20811" lon="6.6652">
        <ele>528.80004882812</ele>
        <time>2026-09-03T14:56:37.000Z</time>
      </trkpt>
      <trkpt lat="48.20811" lon="6.6652">
        <ele>528.59997558594</ele>
        <time>2026-09-03T14:56:38.000Z</time>
      </trkpt>
      <trkpt lat="48.20811" lon="6.6652">
        <ele>528.59997558594</ele>
        <time>2026-09-03T14:56:39.000Z</time>
      </trkpt>
      <trkpt lat="48.2081" lon="6.66521">
        <ele>528.40002441406</ele>
        <time>2026-09-03T14:56:40.000Z</time>
      </trkpt>
      <trkpt lat="48.20809" lon="6.66522">
        <ele>528.40002441406</ele>
        <time>2026-09-03T14:56:41.000Z</time>
      </trkpt>
      <trkpt lat="48.20809" lon="6.66522">
        <ele>528.40002441406</ele>
        <time>2026-09-03T14:56:42.000Z</time>
      </trkpt>
      <trkpt lat="48.20809" lon="6.66523">
        <ele>528.40002441406</ele>
        <time>2026-09-03T14:56:43.000Z</time>
      </trkpt>
      <trkpt lat="48.20808" lon="6.66523">
        <ele>528.59997558594</ele>
        <time>2026-09-03T14:56:44.000Z</time>
      </trkpt>
      <trkpt lat="48.20807" lon="6.66523">
        <ele>528.80004882812</ele>
        <time>2026-09-03T14:56:45.000Z</time>
      </trkpt>
      <trkpt lat="48.20807" lon="6.66523">
        <ele>529</ele>
        <time>2026-09-03T14:56:46.000Z</time>
      </trkpt>
      <trkpt lat="48.20807" lon="6.66523">
        <ele>529.19995117188</ele>
        <time>2026-09-03T14:56:47.000Z</time>
      </trkpt>
      <trkpt lat="48.20807" lon="6.66523">
        <ele>529.40002441406</ele>
        <time>2026-09-03T14:56:48.000Z</time>
      </trkpt>
      <trkpt lat="48.20807" lon="6.66523">
        <ele>529.40002441406</ele>
        <time>2026-09-03T14:56:49.000Z</time>
      </trkpt>
      <trkpt lat="48.20807" lon="6.66523">
        <ele>529.40002441406</ele>
        <time>2026-09-03T14:56:50.000Z</time>
      </trkpt>
      <trkpt lat="48.20807" lon="6.66523">
        <ele>529.40002441406</ele>
        <time>2026-09-03T14:56:51.000Z</time>
      </trkpt>
      <trkpt lat="48.20807" lon="6.66523">
        <ele>529.19995117188</ele>
        <time>2026-09-03T14:56:52.000Z</time>
      </trkpt>
      <trkpt lat="48.20807" lon="6.66523">
        <ele>529.19995117188</ele>
        <time>2026-09-03T14:56:53.000Z</time>
      </trkpt>
      <trkpt lat="48.20807" lon="6.66523">
        <ele>529.19995117188</ele>
        <time>2026-09-03T14:56:54.000Z</time>
      </trkpt>
      <trkpt lat="48.20807" lon="6.66523">
        <ele>529</ele>
        <time>2026-09-03T14:56:55.000Z</time>
      </trkpt>
      <trkpt lat="48.20807" lon="6.66523">
        <ele>529</ele>
        <time>2026-09-03T14:56:56.000Z</time>
      </trkpt>
      <trkpt lat="48.20807" lon="6.66523">
        <ele>528.80004882812</ele>
        <time>2026-09-03T14:56:57.000Z</time>
      </trkpt>
      <trkpt lat="48.20807" lon="6.66523">
        <ele>528.80004882812</ele>
        <time>2026-09-03T14:56:58.000Z</time>
      </trkpt>
      <trkpt lat="48.20807" lon="6.66523">
        <ele>528.59997558594</ele>
        <time>2026-09-03T14:56:59.000Z</time>
      </trkpt>
      <trkpt lat="48.20807" lon="6.66523">
        <ele>528.59997558594</ele>
        <time>2026-09-03T14:57:00.000Z</time>
      </trkpt>
      <trkpt lat="48.20807" lon="6.66523">
        <ele>528.80004882812</ele>
        <time>2026-09-03T14:57:01.000Z</time>
      </trkpt>
      <trkpt lat="48.20807" lon="6.66523">
        <ele>529</ele>
        <time>2026-09-03T14:57:02.000Z</time>
      </trkpt>
      <trkpt lat="48.20807" lon="6.66523">
        <ele>529</ele>
        <time>2026-09-03T14:57:03.000Z</time>
      </trkpt>
      <trkpt lat="48.20807" lon="6.66523">
        <ele>529.19995117188</ele>
        <time>2026-09-03T14:57:04.000Z</time>
      </trkpt>
      <trkpt lat="48.20807" lon="6.66523">
        <ele>529.19995117188</ele>
        <time>2026-09-03T14:57:05.000Z</time>
      </trkpt>
      <trkpt lat="48.20807" lon="6.66523">
        <ele>529.19995117188</ele>
        <time>2026-09-03T14:57:06.000Z</time>
      </trkpt>
      <trkpt lat="48.20807" lon="6.66523">
        <ele>529.19995117188</ele>
        <time>2026-09-03T14:57:07.000Z</time>
      </trkpt>
      <trkpt lat="48.20807" lon="6.66523">
        <ele>529</ele>
        <time>2026-09-03T14:57:08.000Z</time>
      </trkpt>
      <trkpt lat="48.20807" lon="6.66523">
        <ele>529</ele>
        <time>2026-09-03T14:57:09.000Z</time>
      </trkpt>
      <trkpt lat="48.20806" lon="6.66524">
        <ele>529</ele>
        <time>2026-09-03T14:57:10.000Z</time>
      </trkpt>
      <trkpt lat="48.20806" lon="6.66523">
        <ele>529</ele>
        <time>2026-09-03T14:57:11.000Z</time>
      </trkpt>
      <trkpt lat="48.20805" lon="6.66523">
        <ele>529</ele>
        <time>2026-09-03T14:57:12.000Z</time>
      </trkpt>
      <trkpt lat="48.20807" lon="6.66523">
        <ele>528.80004882812</ele>
        <time>2026-09-03T14:57:13.000Z</time>
      </trkpt>
      <trkpt lat="48.20807" lon="6.66523">
        <ele>528.80004882812</ele>
        <time>2026-09-03T14:57:14.000Z</time>
      </trkpt>
      <trkpt lat="48.20807" lon="6.66523">
        <ele>528.80004882812</ele>
        <time>2026-09-03T14:57:15.000Z</time>
      </trkpt>
      <trkpt lat="48.20807" lon="6.66523">
        <ele>528.80004882812</ele>
        <time>2026-09-03T14:57:16.000Z</time>
      </trkpt>
      <trkpt lat="48.20807" lon="6.66523">
        <ele>528.80004882812</ele>
        <time>2026-09-03T14:57:17.000Z</time>
      </trkpt>
      <trkpt lat="48.20807" lon="6.66523">
        <ele>528.80004882812</ele>
        <time>2026-09-03T14:57:18.000Z</time>
      </trkpt>
      <trkpt lat="48.20807" lon="6.66523">
        <ele>529</ele>
        <time>2026-09-03T14:57:19.000Z</time>
      </trkpt>
      <trkpt lat="48.20807" lon="6.66523">
        <ele>529</ele>
        <time>2026-09-03T14:57:20.000Z</time>
      </trkpt>
      <trkpt lat="48.20807" lon="6.66523">
        <ele>529</ele>
        <time>2026-09-03T14:57:21.000Z</time>
      </trkpt>
      <trkpt lat="48.20807" lon="6.66523">
        <ele>529</ele>
        <time>2026-09-03T14:57:22.000Z</time>
      </trkpt>
      <trkpt lat="48.20807" lon="6.66523">
        <ele>529</ele>
        <time>2026-09-03T14:57:23.000Z</time>
      </trkpt>
      <trkpt lat="48.20807" lon="6.66523">
        <ele>528.80004882812</ele>
        <time>2026-09-03T14:57:24.000Z</time>
      </trkpt>
      <trkpt lat="48.20807" lon="6.66523">
        <ele>528.80004882812</ele>
        <time>2026-09-03T14:57:25.000Z</time>
      </trkpt>
      <trkpt lat="48.20807" lon="6.66523">
        <ele>528.80004882812</ele>
        <time>2026-09-03T14:57:26.000Z</time>
      </trkpt>
      <trkpt lat="48.20807" lon="6.66523">
        <ele>528.80004882812</ele>
        <time>2026-09-03T14:57:27.000Z</time>
      </trkpt>
      <trkpt lat="48.20807" lon="6.66523">
        <ele>528.80004882812</ele>
        <time>2026-09-03T14:57:28.000Z</time>
      </trkpt>
      <trkpt lat="48.20807" lon="6.66523">
        <ele>528.80004882812</ele>
        <time>2026-09-03T14:57:29.000Z</time>
      </trkpt>
      <trkpt lat="48.20807" lon="6.66523">
        <ele>528.80004882812</ele>
        <time>2026-09-03T14:57:30.000Z</time>
      </trkpt>
      <trkpt lat="48.20805" lon="6.66523">
        <ele>528.80004882812</ele>
        <time>2026-09-03T14:57:31.000Z</time>
      </trkpt>
      <trkpt lat="48.20805" lon="6.66523">
        <ele>528.59997558594</ele>
        <time>2026-09-03T14:57:32.000Z</time>
      </trkpt>
      <trkpt lat="48.20805" lon="6.66523">
        <ele>528.59997558594</ele>
        <time>2026-09-03T14:57:33.000Z</time>
      </trkpt>
      <trkpt lat="48.20805" lon="6.66523">
        <ele>528.80004882812</ele>
        <time>2026-09-03T14:57:34.000Z</time>
      </trkpt>
      <trkpt lat="48.20805" lon="6.66523">
        <ele>528.80004882812</ele>
        <time>2026-09-03T14:57:35.000Z</time>
      </trkpt>
      <trkpt lat="48.20805" lon="6.66523">
        <ele>529</ele>
        <time>2026-09-03T14:57:36.000Z</time>
      </trkpt>
      <trkpt lat="48.20805" lon="6.66523">
        <ele>529.19995117188</ele>
        <time>2026-09-03T14:57:37.000Z</time>
      </trkpt>
      <trkpt lat="48.20805" lon="6.66523">
        <ele>529.19995117188</ele>
        <time>2026-09-03T14:57:38.000Z</time>
      </trkpt>
      <trkpt lat="48.20805" lon="6.66523">
        <ele>529.19995117188</ele>
        <time>2026-09-03T14:57:39.000Z</time>
      </trkpt>
      <trkpt lat="48.20805" lon="6.66523">
        <ele>529.19995117188</ele>
        <time>2026-09-03T14:57:40.000Z</time>
      </trkpt>
      <trkpt lat="48.20805" lon="6.66523">
        <ele>529.19995117188</ele>
        <time>2026-09-03T14:57:41.000Z</time>
      </trkpt>
      <trkpt lat="48.20805" lon="6.66523">
        <ele>529.19995117188</ele>
        <time>2026-09-03T14:57:42.000Z</time>
      </trkpt>
      <trkpt lat="48.20805" lon="6.66523">
        <ele>529</ele>
        <time>2026-09-03T14:57:43.000Z</time>
      </trkpt>
      <trkpt lat="48.20806" lon="6.66523">
        <ele>529</ele>
        <time>2026-09-03T14:57:44.000Z</time>
      </trkpt>
      <trkpt lat="48.20806" lon="6.66522">
        <ele>529.19995117188</ele>
        <time>2026-09-03T14:57:45.000Z</time>
      </trkpt>
      <trkpt lat="48.20807" lon="6.66522">
        <ele>529.40002441406</ele>
        <time>2026-09-03T14:57:46.000Z</time>
      </trkpt>
      <trkpt lat="48.20807" lon="6.66522">
        <ele>529.40002441406</ele>
        <time>2026-09-03T14:57:47.000Z</time>
      </trkpt>
      <trkpt lat="48.20808" lon="6.66521">
        <ele>529.59997558594</ele>
        <time>2026-09-03T14:57:48.000Z</time>
      </trkpt>
      <trkpt lat="48.20808" lon="6.66521">
        <ele>529.59997558594</ele>
        <time>2026-09-03T14:57:49.000Z</time>
      </trkpt>
      <trkpt lat="48.20808" lon="6.66521">
        <ele>529.19995117188</ele>
        <time>2026-09-03T14:57:50.000Z</time>
      </trkpt>
      <trkpt lat="48.20808" lon="6.66521">
        <ele>529</ele>
        <time>2026-09-03T14:57:51.000Z</time>
      </trkpt>
      <trkpt lat="48.20808" lon="6.66521">
        <ele>528.80004882812</ele>
        <time>2026-09-03T14:57:52.000Z</time>
      </trkpt>
      <trkpt lat="48.20808" lon="6.66521">
        <ele>528.80004882812</ele>
        <time>2026-09-03T14:57:53.000Z</time>
      </trkpt>
      <trkpt lat="48.20808" lon="6.66521">
        <ele>528.80004882812</ele>
        <time>2026-09-03T14:57:54.000Z</time>
      </trkpt>
      <trkpt lat="48.20808" lon="6.66521">
        <ele>528.80004882812</ele>
        <time>2026-09-03T14:57:55.000Z</time>
      </trkpt>
      <trkpt lat="48.20808" lon="6.66521">
        <ele>528.80004882812</ele>
        <time>2026-09-03T14:57:56.000Z</time>
      </trkpt>
      <trkpt lat="48.20808" lon="6.66521">
        <ele>529</ele>
        <time>2026-09-03T14:57:57.000Z</time>
      </trkpt>
      <trkpt lat="48.20808" lon="6.66521">
        <ele>529</ele>
        <time>2026-09-03T14:57:58.000Z</time>
      </trkpt>
      <trkpt lat="48.20808" lon="6.66521">
        <ele>529.19995117188</ele>
        <time>2026-09-03T14:57:59.000Z</time>
      </trkpt>
      <trkpt lat="48.20808" lon="6.66521">
        <ele>529.40002441406</ele>
        <time>2026-09-03T14:58:00.000Z</time>
      </trkpt>
      <trkpt lat="48.20808" lon="6.66521">
        <ele>529.59997558594</ele>
        <time>2026-09-03T14:58:01.000Z</time>
      </trkpt>
      <trkpt lat="48.20808" lon="6.66521">
        <ele>529.59997558594</ele>
        <time>2026-09-03T14:58:02.000Z</time>
      </trkpt>
      <trkpt lat="48.20808" lon="6.66521">
        <ele>529.59997558594</ele>
        <time>2026-09-03T14:58:03.000Z</time>
      </trkpt>
      <trkpt lat="48.20808" lon="6.66521">
        <ele>529.59997558594</ele>
        <time>2026-09-03T14:58:04.000Z</time>
      </trkpt>
      <trkpt lat="48.20808" lon="6.66521">
        <ele>529.59997558594</ele>
        <time>2026-09-03T14:58:05.000Z</time>
      </trkpt>
      <trkpt lat="48.20808" lon="6.66521">
        <ele>529.40002441406</ele>
        <time>2026-09-03T14:58:06.000Z</time>
      </trkpt>
      <trkpt lat="48.20808" lon="6.66521">
        <ele>529.40002441406</ele>
        <time>2026-09-03T14:58:07.000Z</time>
      </trkpt>
      <trkpt lat="48.20808" lon="6.66521">
        <ele>529.40002441406</ele>
        <time>2026-09-03T14:58:08.000Z</time>
      </trkpt>
      <trkpt lat="48.20808" lon="6.66521">
        <ele>529.59997558594</ele>
        <time>2026-09-03T14:58:09.000Z</time>
      </trkpt>
      <trkpt lat="48.20808" lon="6.66521">
        <ele>529.59997558594</ele>
        <time>2026-09-03T14:58:10.000Z</time>
      </trkpt>
      <trkpt lat="48.20808" lon="6.66521">
        <ele>529.59997558594</ele>
        <time>2026-09-03T14:58:11.000Z</time>
      </trkpt>
      <trkpt lat="48.20808" lon="6.66521">
        <ele>529.80004882812</ele>
        <time>2026-09-03T14:58:12.000Z</time>
      </trkpt>
      <trkpt lat="48.20808" lon="6.66521">
        <ele>529.80004882812</ele>
        <time>2026-09-03T14:58:13.000Z</time>
      </trkpt>
      <trkpt lat="48.20808" lon="6.66521">
        <ele>529.59997558594</ele>
        <time>2026-09-03T14:58:14.000Z</time>
      </trkpt>
      <trkpt lat="48.20808" lon="6.66521">
        <ele>529.59997558594</ele>
        <time>2026-09-03T14:58:15.000Z</time>
      </trkpt>
      <trkpt lat="48.20808" lon="6.66521">
        <ele>529.59997558594</ele>
        <time>2026-09-03T14:58:16.000Z</time>
      </trkpt>
      <trkpt lat="48.20808" lon="6.66521">
        <ele>529.59997558594</ele>
        <time>2026-09-03T14:58:17.000Z</time>
      </trkpt>
      <trkpt lat="48.20808" lon="6.66521">
        <ele>529.59997558594</ele>
        <time>2026-09-03T14:58:18.000Z</time>
      </trkpt>
      <trkpt lat="48.20808" lon="6.66521">
        <ele>529.80004882812</ele>
        <time>2026-09-03T14:58:19.000Z</time>
      </trkpt>
      <trkpt lat="48.20808" lon="6.66521">
        <ele>529.80004882812</ele>
        <time>2026-09-03T14:58:20.000Z</time>
      </trkpt>
      <trkpt lat="48.20808" lon="6.66521">
        <ele>529.80004882812</ele>
        <time>2026-09-03T14:58:21.000Z</time>
      </trkpt>
      <trkpt lat="48.20808" lon="6.66521">
        <ele>529.80004882812</ele>
        <time>2026-09-03T14:58:22.000Z</time>
      </trkpt>
      <trkpt lat="48.20808" lon="6.66521">
        <ele>529.80004882812</ele>
        <time>2026-09-03T14:58:23.000Z</time>
      </trkpt>
      <trkpt lat="48.20808" lon="6.66521">
        <ele>529.59997558594</ele>
        <time>2026-09-03T14:58:24.000Z</time>
      </trkpt>
      <trkpt lat="48.20808" lon="6.66521">
        <ele>529.40002441406</ele>
        <time>2026-09-03T14:58:25.000Z</time>
      </trkpt>
      <trkpt lat="48.20808" lon="6.66521">
        <ele>529.19995117188</ele>
        <time>2026-09-03T14:58:26.000Z</time>
      </trkpt>
      <trkpt lat="48.20808" lon="6.66522">
        <ele>529</ele>
        <time>2026-09-03T14:58:27.000Z</time>
      </trkpt>
      <trkpt lat="48.20808" lon="6.66523">
        <ele>529.19995117188</ele>
        <time>2026-09-03T14:58:28.000Z</time>
      </trkpt>
      <trkpt lat="48.20808" lon="6.66523">
        <ele>529.40002441406</ele>
        <time>2026-09-03T14:58:29.000Z</time>
      </trkpt>
      <trkpt lat="48.20807" lon="6.66524">
        <ele>529.80004882812</ele>
        <time>2026-09-03T14:58:30.000Z</time>
      </trkpt>
      <trkpt lat="48.20807" lon="6.66524">
        <ele>530</ele>
        <time>2026-09-03T14:58:31.000Z</time>
      </trkpt>
      <trkpt lat="48.20807" lon="6.66524">
        <ele>530</ele>
        <time>2026-09-03T14:58:32.000Z</time>
      </trkpt>
      <trkpt lat="48.20806" lon="6.66524">
        <ele>530</ele>
        <time>2026-09-03T14:58:33.000Z</time>
      </trkpt>
      <trkpt lat="48.20805" lon="6.66524">
        <ele>530</ele>
        <time>2026-09-03T14:58:34.000Z</time>
      </trkpt>
      <trkpt lat="48.20804" lon="6.66525">
        <ele>530</ele>
        <time>2026-09-03T14:58:35.000Z</time>
      </trkpt>
      <trkpt lat="48.20803" lon="6.66525">
        <ele>530</ele>
        <time>2026-09-03T14:58:36.000Z</time>
      </trkpt>
      <trkpt lat="48.20802" lon="6.66525">
        <ele>530.19995117188</ele>
        <time>2026-09-03T14:58:37.000Z</time>
      </trkpt>
      <trkpt lat="48.20801" lon="6.66526">
        <ele>530.19995117188</ele>
        <time>2026-09-03T14:58:38.000Z</time>
      </trkpt>
      <trkpt lat="48.20801" lon="6.66526">
        <ele>530.40002441406</ele>
        <time>2026-09-03T14:58:39.000Z</time>
      </trkpt>
      <trkpt lat="48.208" lon="6.66526">
        <ele>530.40002441406</ele>
        <time>2026-09-03T14:58:40.000Z</time>
      </trkpt>
      <trkpt lat="48.208" lon="6.66526">
        <ele>530.59997558594</ele>
        <time>2026-09-03T14:58:41.000Z</time>
      </trkpt>
      <trkpt lat="48.20799" lon="6.66526">
        <ele>530.59997558594</ele>
        <time>2026-09-03T14:58:42.000Z</time>
      </trkpt>
      <trkpt lat="48.20799" lon="6.66526">
        <ele>530.59997558594</ele>
        <time>2026-09-03T14:58:43.000Z</time>
      </trkpt>
      <trkpt lat="48.20799" lon="6.66526">
        <ele>530.80004882812</ele>
        <time>2026-09-03T14:58:44.000Z</time>
      </trkpt>
      <trkpt lat="48.20799" lon="6.66526">
        <ele>530.80004882812</ele>
        <time>2026-09-03T14:58:45.000Z</time>
      </trkpt>
      <trkpt lat="48.20799" lon="6.66526">
        <ele>530.80004882812</ele>
        <time>2026-09-03T14:58:46.000Z</time>
      </trkpt>
      <trkpt lat="48.20799" lon="6.66526">
        <ele>531</ele>
        <time>2026-09-03T14:58:47.000Z</time>
      </trkpt>
      <trkpt lat="48.20798" lon="6.66526">
        <ele>531</ele>
        <time>2026-09-03T14:58:48.000Z</time>
      </trkpt>
      <trkpt lat="48.20798" lon="6.66527">
        <ele>531</ele>
        <time>2026-09-03T14:58:49.000Z</time>
      </trkpt>
      <trkpt lat="48.20797" lon="6.66527">
        <ele>531.19995117188</ele>
        <time>2026-09-03T14:58:50.000Z</time>
      </trkpt>
      <trkpt lat="48.20796" lon="6.66526">
        <ele>531.40002441406</ele>
        <time>2026-09-03T14:58:51.000Z</time>
      </trkpt>
      <trkpt lat="48.20796" lon="6.66527">
        <ele>531.80004882812</ele>
        <time>2026-09-03T14:58:52.000Z</time>
      </trkpt>
      <trkpt lat="48.20795" lon="6.66527">
        <ele>532</ele>
        <time>2026-09-03T14:58:53.000Z</time>
      </trkpt>
      <trkpt lat="48.20794" lon="6.66528">
        <ele>532.19995117188</ele>
        <time>2026-09-03T14:58:54.000Z</time>
      </trkpt>
      <trkpt lat="48.20792" lon="6.66528">
        <ele>532.40002441406</ele>
        <time>2026-09-03T14:58:55.000Z</time>
      </trkpt>
      <trkpt lat="48.20791" lon="6.66528">
        <ele>532.40002441406</ele>
        <time>2026-09-03T14:58:56.000Z</time>
      </trkpt>
      <trkpt lat="48.2079" lon="6.66528">
        <ele>532.40002441406</ele>
        <time>2026-09-03T14:58:57.000Z</time>
      </trkpt>
      <trkpt lat="48.20789" lon="6.66528">
        <ele>532.40002441406</ele>
        <time>2026-09-03T14:58:58.000Z</time>
      </trkpt>
      <trkpt lat="48.20788" lon="6.66528">
        <ele>532.40002441406</ele>
        <time>2026-09-03T14:58:59.000Z</time>
      </trkpt>
      <trkpt lat="48.20787" lon="6.66528">
        <ele>532.59997558594</ele>
        <time>2026-09-03T14:59:00.000Z</time>
      </trkpt>
      <trkpt lat="48.20786" lon="6.66528">
        <ele>532.80004882812</ele>
        <time>2026-09-03T14:59:01.000Z</time>
      </trkpt>
      <trkpt lat="48.20784" lon="6.66528">
        <ele>533</ele>
        <time>2026-09-03T14:59:02.000Z</time>
      </trkpt>
      <trkpt lat="48.20783" lon="6.66528">
        <ele>533.19995117188</ele>
        <time>2026-09-03T14:59:03.000Z</time>
      </trkpt>
      <trkpt lat="48.20782" lon="6.66528">
        <ele>533.40002441406</ele>
        <time>2026-09-03T14:59:04.000Z</time>
      </trkpt>
      <trkpt lat="48.20781" lon="6.66529">
        <ele>533.59997558594</ele>
        <time>2026-09-03T14:59:05.000Z</time>
      </trkpt>
      <trkpt lat="48.20781" lon="6.66529">
        <ele>533.59997558594</ele>
        <time>2026-09-03T14:59:06.000Z</time>
      </trkpt>
      <trkpt lat="48.20779" lon="6.66529">
        <ele>533.59997558594</ele>
        <time>2026-09-03T14:59:07.000Z</time>
      </trkpt>
      <trkpt lat="48.20779" lon="6.66529">
        <ele>533.59997558594</ele>
        <time>2026-09-03T14:59:08.000Z</time>
      </trkpt>
      <trkpt lat="48.20778" lon="6.66529">
        <ele>533.59997558594</ele>
        <time>2026-09-03T14:59:09.000Z</time>
      </trkpt>
      <trkpt lat="48.20777" lon="6.66529">
        <ele>533.59997558594</ele>
        <time>2026-09-03T14:59:10.000Z</time>
      </trkpt>
      <trkpt lat="48.20776" lon="6.66529">
        <ele>533.40002441406</ele>
        <time>2026-09-03T14:59:11.000Z</time>
      </trkpt>
      <trkpt lat="48.20775" lon="6.66529">
        <ele>533.40002441406</ele>
        <time>2026-09-03T14:59:12.000Z</time>
      </trkpt>
      <trkpt lat="48.20775" lon="6.66528">
        <ele>533.40002441406</ele>
        <time>2026-09-03T14:59:13.000Z</time>
      </trkpt>
      <trkpt lat="48.20774" lon="6.66528">
        <ele>533.40002441406</ele>
        <time>2026-09-03T14:59:14.000Z</time>
      </trkpt>
      <trkpt lat="48.20773" lon="6.66528">
        <ele>533.80004882812</ele>
        <time>2026-09-03T14:59:15.000Z</time>
      </trkpt>
      <trkpt lat="48.20772" lon="6.66529">
        <ele>534.40002441406</ele>
        <time>2026-09-03T14:59:16.000Z</time>
      </trkpt>
      <trkpt lat="48.20771" lon="6.66529">
        <ele>534.80004882812</ele>
        <time>2026-09-03T14:59:17.000Z</time>
      </trkpt>
      <trkpt lat="48.2077" lon="6.66528">
        <ele>535</ele>
        <time>2026-09-03T14:59:18.000Z</time>
      </trkpt>
      <trkpt lat="48.20769" lon="6.66528">
        <ele>535</ele>
        <time>2026-09-03T14:59:19.000Z</time>
      </trkpt>
      <trkpt lat="48.20769" lon="6.66528">
        <ele>535.19995117188</ele>
        <time>2026-09-03T14:59:20.000Z</time>
      </trkpt>
      <trkpt lat="48.20767" lon="6.66528">
        <ele>535.19995117188</ele>
        <time>2026-09-03T14:59:21.000Z</time>
      </trkpt>
      <trkpt lat="48.20767" lon="6.66528">
        <ele>535.19995117188</ele>
        <time>2026-09-03T14:59:22.000Z</time>
      </trkpt>
      <trkpt lat="48.20766" lon="6.66528">
        <ele>535.19995117188</ele>
        <time>2026-09-03T14:59:23.000Z</time>
      </trkpt>
      <trkpt lat="48.20765" lon="6.66527">
        <ele>535.19995117188</ele>
        <time>2026-09-03T14:59:24.000Z</time>
      </trkpt>
      <trkpt lat="48.20763" lon="6.66527">
        <ele>535.40002441406</ele>
        <time>2026-09-03T14:59:25.000Z</time>
      </trkpt>
      <trkpt lat="48.20762" lon="6.66527">
        <ele>535.40002441406</ele>
        <time>2026-09-03T14:59:26.000Z</time>
      </trkpt>
      <trkpt lat="48.20761" lon="6.66526">
        <ele>535.59997558594</ele>
        <time>2026-09-03T14:59:27.000Z</time>
      </trkpt>
      <trkpt lat="48.2076" lon="6.66526">
        <ele>535.59997558594</ele>
        <time>2026-09-03T14:59:28.000Z</time>
      </trkpt>
      <trkpt lat="48.2076" lon="6.66525">
        <ele>535.80004882812</ele>
        <time>2026-09-03T14:59:29.000Z</time>
      </trkpt>
      <trkpt lat="48.20759" lon="6.66525">
        <ele>535.80004882812</ele>
        <time>2026-09-03T14:59:30.000Z</time>
      </trkpt>
      <trkpt lat="48.20759" lon="6.66525">
        <ele>535.80004882812</ele>
        <time>2026-09-03T14:59:31.000Z</time>
      </trkpt>
      <trkpt lat="48.20759" lon="6.66525">
        <ele>536</ele>
        <time>2026-09-03T14:59:32.000Z</time>
      </trkpt>
      <trkpt lat="48.2076" lon="6.66525">
        <ele>536</ele>
        <time>2026-09-03T14:59:33.000Z</time>
      </trkpt>
      <trkpt lat="48.20759" lon="6.66525">
        <ele>535.80004882812</ele>
        <time>2026-09-03T14:59:34.000Z</time>
      </trkpt>
      <trkpt lat="48.20759" lon="6.66525">
        <ele>535.80004882812</ele>
        <time>2026-09-03T14:59:35.000Z</time>
      </trkpt>
      <trkpt lat="48.20759" lon="6.66525">
        <ele>535.80004882812</ele>
        <time>2026-09-03T14:59:36.000Z</time>
      </trkpt>
      <trkpt lat="48.20759" lon="6.66525">
        <ele>536</ele>
        <time>2026-09-03T14:59:37.000Z</time>
      </trkpt>
      <trkpt lat="48.20759" lon="6.66525">
        <ele>536</ele>
        <time>2026-09-03T14:59:38.000Z</time>
      </trkpt>
      <trkpt lat="48.20758" lon="6.66525">
        <ele>536.19995117188</ele>
        <time>2026-09-03T14:59:39.000Z</time>
      </trkpt>
      <trkpt lat="48.20757" lon="6.66524">
        <ele>536</ele>
        <time>2026-09-03T14:59:40.000Z</time>
      </trkpt>
      <trkpt lat="48.20757" lon="6.66524">
        <ele>536</ele>
        <time>2026-09-03T14:59:41.000Z</time>
      </trkpt>
      <trkpt lat="48.20756" lon="6.66524">
        <ele>535.80004882812</ele>
        <time>2026-09-03T14:59:42.000Z</time>
      </trkpt>
      <trkpt lat="48.20756" lon="6.66524">
        <ele>535.59997558594</ele>
        <time>2026-09-03T14:59:43.000Z</time>
      </trkpt>
      <trkpt lat="48.20755" lon="6.66524">
        <ele>535.59997558594</ele>
        <time>2026-09-03T14:59:44.000Z</time>
      </trkpt>
      <trkpt lat="48.20754" lon="6.66524">
        <ele>535.80004882812</ele>
        <time>2026-09-03T14:59:45.000Z</time>
      </trkpt>
      <trkpt lat="48.20753" lon="6.66524">
        <ele>536.19995117188</ele>
        <time>2026-09-03T14:59:46.000Z</time>
      </trkpt>
      <trkpt lat="48.20752" lon="6.66524">
        <ele>536.80004882812</ele>
        <time>2026-09-03T14:59:47.000Z</time>
      </trkpt>
      <trkpt lat="48.20752" lon="6.66524">
        <ele>537.19995117188</ele>
        <time>2026-09-03T14:59:48.000Z</time>
      </trkpt>
      <trkpt lat="48.20751" lon="6.66524">
        <ele>537.40002441406</ele>
        <time>2026-09-03T14:59:49.000Z</time>
      </trkpt>
      <trkpt lat="48.20749" lon="6.66524">
        <ele>537.59997558594</ele>
        <time>2026-09-03T14:59:50.000Z</time>
      </trkpt>
      <trkpt lat="48.20748" lon="6.66524">
        <ele>537.59997558594</ele>
        <time>2026-09-03T14:59:51.000Z</time>
      </trkpt>
      <trkpt lat="48.20747" lon="6.66524">
        <ele>537.80004882812</ele>
        <time>2026-09-03T14:59:52.000Z</time>
      </trkpt>
      <trkpt lat="48.20746" lon="6.66524">
        <ele>537.80004882812</ele>
        <time>2026-09-03T14:59:53.000Z</time>
      </trkpt>
      <trkpt lat="48.20745" lon="6.66524">
        <ele>538</ele>
        <time>2026-09-03T14:59:54.000Z</time>
      </trkpt>
      <trkpt lat="48.20744" lon="6.66524">
        <ele>538.19995117188</ele>
        <time>2026-09-03T14:59:55.000Z</time>
      </trkpt>
      <trkpt lat="48.20743" lon="6.66524">
        <ele>538.19995117188</ele>
        <time>2026-09-03T14:59:56.000Z</time>
      </trkpt>
      <trkpt lat="48.20742" lon="6.66523">
        <ele>538.40002441406</ele>
        <time>2026-09-03T14:59:57.000Z</time>
      </trkpt>
      <trkpt lat="48.20741" lon="6.66523">
        <ele>538.59997558594</ele>
        <time>2026-09-03T14:59:58.000Z</time>
      </trkpt>
      <trkpt lat="48.2074" lon="6.66523">
        <ele>538.59997558594</ele>
        <time>2026-09-03T14:59:59.000Z</time>
      </trkpt>
      <trkpt lat="48.20739" lon="6.66523">
        <ele>538.80004882812</ele>
        <time>2026-09-03T15:00:00.000Z</time>
      </trkpt>
      <trkpt lat="48.20738" lon="6.66523">
        <ele>538.80004882812</ele>
        <time>2026-09-03T15:00:01.000Z</time>
      </trkpt>
      <trkpt lat="48.20737" lon="6.66522">
        <ele>538.80004882812</ele>
        <time>2026-09-03T15:00:02.000Z</time>
      </trkpt>
      <trkpt lat="48.20737" lon="6.66522">
        <ele>539</ele>
        <time>2026-09-03T15:00:03.000Z</time>
      </trkpt>
      <trkpt lat="48.20736" lon="6.66521">
        <ele>539.19995117188</ele>
        <time>2026-09-03T15:00:04.000Z</time>
      </trkpt>
      <trkpt lat="48.20735" lon="6.66521">
        <ele>539.19995117188</ele>
        <time>2026-09-03T15:00:05.000Z</time>
      </trkpt>
      <trkpt lat="48.20735" lon="6.66521">
        <ele>539.40002441406</ele>
        <time>2026-09-03T15:00:06.000Z</time>
      </trkpt>
      <trkpt lat="48.20734" lon="6.66521">
        <ele>539.59997558594</ele>
        <time>2026-09-03T15:00:07.000Z</time>
      </trkpt>
      <trkpt lat="48.20733" lon="6.66521">
        <ele>539.80004882812</ele>
        <time>2026-09-03T15:00:08.000Z</time>
      </trkpt>
      <trkpt lat="48.20732" lon="6.66521">
        <ele>539.80004882812</ele>
        <time>2026-09-03T15:00:09.000Z</time>
      </trkpt>
      <trkpt lat="48.20731" lon="6.66522">
        <ele>540</ele>
        <time>2026-09-03T15:00:10.000Z</time>
      </trkpt>
      <trkpt lat="48.2073" lon="6.66521">
        <ele>540</ele>
        <time>2026-09-03T15:00:11.000Z</time>
      </trkpt>
      <trkpt lat="48.20729" lon="6.66521">
        <ele>540.19995117188</ele>
        <time>2026-09-03T15:00:12.000Z</time>
      </trkpt>
      <trkpt lat="48.20728" lon="6.66521">
        <ele>540.19995117188</ele>
        <time>2026-09-03T15:00:13.000Z</time>
      </trkpt>
      <trkpt lat="48.20727" lon="6.66521">
        <ele>540.40002441406</ele>
        <time>2026-09-03T15:00:14.000Z</time>
      </trkpt>
      <trkpt lat="48.20726" lon="6.6652">
        <ele>540.40002441406</ele>
        <time>2026-09-03T15:00:15.000Z</time>
      </trkpt>
      <trkpt lat="48.20725" lon="6.6652">
        <ele>540.59997558594</ele>
        <time>2026-09-03T15:00:16.000Z</time>
      </trkpt>
      <trkpt lat="48.20724" lon="6.6652">
        <ele>540.80004882812</ele>
        <time>2026-09-03T15:00:17.000Z</time>
      </trkpt>
      <trkpt lat="48.20724" lon="6.66519">
        <ele>541</ele>
        <time>2026-09-03T15:00:18.000Z</time>
      </trkpt>
      <trkpt lat="48.20723" lon="6.66519">
        <ele>541.19995117188</ele>
        <time>2026-09-03T15:00:19.000Z</time>
      </trkpt>
      <trkpt lat="48.20722" lon="6.66519">
        <ele>541.40002441406</ele>
        <time>2026-09-03T15:00:20.000Z</time>
      </trkpt>
      <trkpt lat="48.20721" lon="6.66519">
        <ele>541.40002441406</ele>
        <time>2026-09-03T15:00:21.000Z</time>
      </trkpt>
      <trkpt lat="48.20721" lon="6.66518">
        <ele>541.59997558594</ele>
        <time>2026-09-03T15:00:22.000Z</time>
      </trkpt>
      <trkpt lat="48.2072" lon="6.66518">
        <ele>541.59997558594</ele>
        <time>2026-09-03T15:00:23.000Z</time>
      </trkpt>
      <trkpt lat="48.20719" lon="6.66518">
        <ele>541.80004882812</ele>
        <time>2026-09-03T15:00:24.000Z</time>
      </trkpt>
      <trkpt lat="48.20718" lon="6.66518">
        <ele>542</ele>
        <time>2026-09-03T15:00:25.000Z</time>
      </trkpt>
      <trkpt lat="48.20717" lon="6.66518">
        <ele>542</ele>
        <time>2026-09-03T15:00:26.000Z</time>
      </trkpt>
      <trkpt lat="48.20716" lon="6.66518">
        <ele>542.19995117188</ele>
        <time>2026-09-03T15:00:27.000Z</time>
      </trkpt>
      <trkpt lat="48.20716" lon="6.66518">
        <ele>542.40002441406</ele>
        <time>2026-09-03T15:00:28.000Z</time>
      </trkpt>
      <trkpt lat="48.20714" lon="6.66519">
        <ele>542.59997558594</ele>
        <time>2026-09-03T15:00:29.000Z</time>
      </trkpt>
      <trkpt lat="48.20713" lon="6.66519">
        <ele>542.80004882812</ele>
        <time>2026-09-03T15:00:30.000Z</time>
      </trkpt>
      <trkpt lat="48.20713" lon="6.66519">
        <ele>543</ele>
        <time>2026-09-03T15:00:31.000Z</time>
      </trkpt>
      <trkpt lat="48.20712" lon="6.6652">
        <ele>543.19995117188</ele>
        <time>2026-09-03T15:00:32.000Z</time>
      </trkpt>
      <trkpt lat="48.20711" lon="6.6652">
        <ele>543.40002441406</ele>
        <time>2026-09-03T15:00:33.000Z</time>
      </trkpt>
      <trkpt lat="48.2071" lon="6.66519">
        <ele>543.59997558594</ele>
        <time>2026-09-03T15:00:34.000Z</time>
      </trkpt>
      <trkpt lat="48.20709" lon="6.6652">
        <ele>543.80004882812</ele>
        <time>2026-09-03T15:00:35.000Z</time>
      </trkpt>
      <trkpt lat="48.20708" lon="6.66521">
        <ele>544</ele>
        <time>2026-09-03T15:00:36.000Z</time>
      </trkpt>
      <trkpt lat="48.20707" lon="6.66521">
        <ele>544.19995117188</ele>
        <time>2026-09-03T15:00:37.000Z</time>
      </trkpt>
      <trkpt lat="48.20707" lon="6.66521">
        <ele>544.40002441406</ele>
        <time>2026-09-03T15:00:38.000Z</time>
      </trkpt>
      <trkpt lat="48.20706" lon="6.66521">
        <ele>544.40002441406</ele>
        <time>2026-09-03T15:00:39.000Z</time>
      </trkpt>
      <trkpt lat="48.20706" lon="6.66521">
        <ele>544.59997558594</ele>
        <time>2026-09-03T15:00:40.000Z</time>
      </trkpt>
      <trkpt lat="48.20706" lon="6.66521">
        <ele>544.59997558594</ele>
        <time>2026-09-03T15:00:41.000Z</time>
      </trkpt>
      <trkpt lat="48.20705" lon="6.6652">
        <ele>544.80004882812</ele>
        <time>2026-09-03T15:00:42.000Z</time>
      </trkpt>
      <trkpt lat="48.20704" lon="6.66519">
        <ele>544.80004882812</ele>
        <time>2026-09-03T15:00:43.000Z</time>
      </trkpt>
      <trkpt lat="48.20704" lon="6.66519">
        <ele>544.80004882812</ele>
        <time>2026-09-03T15:00:44.000Z</time>
      </trkpt>
      <trkpt lat="48.20703" lon="6.66518">
        <ele>545</ele>
        <time>2026-09-03T15:00:45.000Z</time>
      </trkpt>
      <trkpt lat="48.20701" lon="6.66516">
        <ele>545</ele>
        <time>2026-09-03T15:00:46.000Z</time>
      </trkpt>
      <trkpt lat="48.207" lon="6.66516">
        <ele>545</ele>
        <time>2026-09-03T15:00:47.000Z</time>
      </trkpt>
      <trkpt lat="48.207" lon="6.66515">
        <ele>545</ele>
        <time>2026-09-03T15:00:48.000Z</time>
      </trkpt>
      <trkpt lat="48.20699" lon="6.66514">
        <ele>545.19995117188</ele>
        <time>2026-09-03T15:00:49.000Z</time>
      </trkpt>
      <trkpt lat="48.20698" lon="6.66513">
        <ele>545.19995117188</ele>
        <time>2026-09-03T15:00:50.000Z</time>
      </trkpt>
      <trkpt lat="48.20697" lon="6.66512">
        <ele>545.40002441406</ele>
        <time>2026-09-03T15:00:51.000Z</time>
      </trkpt>
      <trkpt lat="48.20697" lon="6.66512">
        <ele>545.40002441406</ele>
        <time>2026-09-03T15:00:52.000Z</time>
      </trkpt>
      <trkpt lat="48.20696" lon="6.66511">
        <ele>545.59997558594</ele>
        <time>2026-09-03T15:00:53.000Z</time>
      </trkpt>
      <trkpt lat="48.20696" lon="6.66511">
        <ele>545.59997558594</ele>
        <time>2026-09-03T15:00:54.000Z</time>
      </trkpt>
      <trkpt lat="48.20696" lon="6.6651">
        <ele>545.80004882812</ele>
        <time>2026-09-03T15:00:55.000Z</time>
      </trkpt>
      <trkpt lat="48.20694" lon="6.66509">
        <ele>546</ele>
        <time>2026-09-03T15:00:56.000Z</time>
      </trkpt>
      <trkpt lat="48.20693" lon="6.66509">
        <ele>546.19995117188</ele>
        <time>2026-09-03T15:00:57.000Z</time>
      </trkpt>
      <trkpt lat="48.20693" lon="6.66508">
        <ele>546.40002441406</ele>
        <time>2026-09-03T15:00:58.000Z</time>
      </trkpt>
      <trkpt lat="48.20692" lon="6.66508">
        <ele>546.59997558594</ele>
        <time>2026-09-03T15:00:59.000Z</time>
      </trkpt>
      <trkpt lat="48.20692" lon="6.66508">
        <ele>546.59997558594</ele>
        <time>2026-09-03T15:01:00.000Z</time>
      </trkpt>
      <trkpt lat="48.20692" lon="6.66508">
        <ele>546.80004882812</ele>
        <time>2026-09-03T15:01:01.000Z</time>
      </trkpt>
      <trkpt lat="48.20692" lon="6.66508">
        <ele>546.80004882812</ele>
        <time>2026-09-03T15:01:02.000Z</time>
      </trkpt>
      <trkpt lat="48.20692" lon="6.66508">
        <ele>547</ele>
        <time>2026-09-03T15:01:03.000Z</time>
      </trkpt>
      <trkpt lat="48.20692" lon="6.66508">
        <ele>547</ele>
        <time>2026-09-03T15:01:04.000Z</time>
      </trkpt>
      <trkpt lat="48.20692" lon="6.66508">
        <ele>547</ele>
        <time>2026-09-03T15:01:05.000Z</time>
      </trkpt>
      <trkpt lat="48.20692" lon="6.66508">
        <ele>547</ele>
        <time>2026-09-03T15:01:06.000Z</time>
      </trkpt>
      <trkpt lat="48.20692" lon="6.66508">
        <ele>547</ele>
        <time>2026-09-03T15:01:07.000Z</time>
      </trkpt>
      <trkpt lat="48.20692" lon="6.66508">
        <ele>546.80004882812</ele>
        <time>2026-09-03T15:01:08.000Z</time>
      </trkpt>
      <trkpt lat="48.20692" lon="6.66508">
        <ele>546.80004882812</ele>
        <time>2026-09-03T15:01:09.000Z</time>
      </trkpt>
      <trkpt lat="48.20692" lon="6.66508">
        <ele>546.80004882812</ele>
        <time>2026-09-03T15:01:10.000Z</time>
      </trkpt>
      <trkpt lat="48.20692" lon="6.66508">
        <ele>546.80004882812</ele>
        <time>2026-09-03T15:01:11.000Z</time>
      </trkpt>
      <trkpt lat="48.20692" lon="6.66508">
        <ele>546.80004882812</ele>
        <time>2026-09-03T15:01:12.000Z</time>
      </trkpt>
      <trkpt lat="48.20691" lon="6.66508">
        <ele>546.80004882812</ele>
        <time>2026-09-03T15:01:13.000Z</time>
      </trkpt>
      <trkpt lat="48.2069" lon="6.66507">
        <ele>547</ele>
        <time>2026-09-03T15:01:14.000Z</time>
      </trkpt>
      <trkpt lat="48.2069" lon="6.66506">
        <ele>547</ele>
        <time>2026-09-03T15:01:15.000Z</time>
      </trkpt>
      <trkpt lat="48.20689" lon="6.66505">
        <ele>547.19995117188</ele>
        <time>2026-09-03T15:01:16.000Z</time>
      </trkpt>
      <trkpt lat="48.20689" lon="6.66505">
        <ele>547.19995117188</ele>
        <time>2026-09-03T15:01:17.000Z</time>
      </trkpt>
      <trkpt lat="48.20688" lon="6.66505">
        <ele>547.40002441406</ele>
        <time>2026-09-03T15:01:18.000Z</time>
      </trkpt>
      <trkpt lat="48.20687" lon="6.66505">
        <ele>547.40002441406</ele>
        <time>2026-09-03T15:01:19.000Z</time>
      </trkpt>
      <trkpt lat="48.20687" lon="6.66504">
        <ele>547.59997558594</ele>
        <time>2026-09-03T15:01:20.000Z</time>
      </trkpt>
      <trkpt lat="48.20686" lon="6.66504">
        <ele>547.59997558594</ele>
        <time>2026-09-03T15:01:21.000Z</time>
      </trkpt>
      <trkpt lat="48.20685" lon="6.66503">
        <ele>547.80004882812</ele>
        <time>2026-09-03T15:01:22.000Z</time>
      </trkpt>
      <trkpt lat="48.20684" lon="6.66503">
        <ele>548</ele>
        <time>2026-09-03T15:01:23.000Z</time>
      </trkpt>
      <trkpt lat="48.20683" lon="6.66502">
        <ele>548.19995117188</ele>
        <time>2026-09-03T15:01:24.000Z</time>
      </trkpt>
      <trkpt lat="48.20683" lon="6.66501">
        <ele>548.40002441406</ele>
        <time>2026-09-03T15:01:25.000Z</time>
      </trkpt>
      <trkpt lat="48.20682" lon="6.66501">
        <ele>548.40002441406</ele>
        <time>2026-09-03T15:01:26.000Z</time>
      </trkpt>
      <trkpt lat="48.20681" lon="6.665">
        <ele>548.59997558594</ele>
        <time>2026-09-03T15:01:27.000Z</time>
      </trkpt>
      <trkpt lat="48.20681" lon="6.66499">
        <ele>548.80004882812</ele>
        <time>2026-09-03T15:01:28.000Z</time>
      </trkpt>
      <trkpt lat="48.2068" lon="6.66498">
        <ele>549</ele>
        <time>2026-09-03T15:01:29.000Z</time>
      </trkpt>
      <trkpt lat="48.2068" lon="6.66498">
        <ele>549</ele>
        <time>2026-09-03T15:01:30.000Z</time>
      </trkpt>
      <trkpt lat="48.20679" lon="6.66498">
        <ele>549.19995117188</ele>
        <time>2026-09-03T15:01:31.000Z</time>
      </trkpt>
      <trkpt lat="48.20678" lon="6.66497">
        <ele>549.19995117188</ele>
        <time>2026-09-03T15:01:32.000Z</time>
      </trkpt>
      <trkpt lat="48.20678" lon="6.66497">
        <ele>549.40002441406</ele>
        <time>2026-09-03T15:01:33.000Z</time>
      </trkpt>
      <trkpt lat="48.20677" lon="6.66497">
        <ele>549.40002441406</ele>
        <time>2026-09-03T15:01:34.000Z</time>
      </trkpt>
      <trkpt lat="48.20676" lon="6.66496">
        <ele>549.59997558594</ele>
        <time>2026-09-03T15:01:35.000Z</time>
      </trkpt>
      <trkpt lat="48.20675" lon="6.66495">
        <ele>549.80004882812</ele>
        <time>2026-09-03T15:01:36.000Z</time>
      </trkpt>
      <trkpt lat="48.20674" lon="6.66494">
        <ele>550</ele>
        <time>2026-09-03T15:01:37.000Z</time>
      </trkpt>
      <trkpt lat="48.20673" lon="6.66494">
        <ele>550</ele>
        <time>2026-09-03T15:01:38.000Z</time>
      </trkpt>
      <trkpt lat="48.20672" lon="6.66493">
        <ele>550.19995117188</ele>
        <time>2026-09-03T15:01:39.000Z</time>
      </trkpt>
      <trkpt lat="48.20672" lon="6.66494">
        <ele>550.40002441406</ele>
        <time>2026-09-03T15:01:40.000Z</time>
      </trkpt>
      <trkpt lat="48.20671" lon="6.66493">
        <ele>550.40002441406</ele>
        <time>2026-09-03T15:01:41.000Z</time>
      </trkpt>
      <trkpt lat="48.20671" lon="6.66493">
        <ele>550.59997558594</ele>
        <time>2026-09-03T15:01:42.000Z</time>
      </trkpt>
      <trkpt lat="48.2067" lon="6.66492">
        <ele>550.80004882812</ele>
        <time>2026-09-03T15:01:43.000Z</time>
      </trkpt>
      <trkpt lat="48.20669" lon="6.66492">
        <ele>551</ele>
        <time>2026-09-03T15:01:44.000Z</time>
      </trkpt>
      <trkpt lat="48.20669" lon="6.66491">
        <ele>551.19995117188</ele>
        <time>2026-09-03T15:01:45.000Z</time>
      </trkpt>
      <trkpt lat="48.20668" lon="6.6649">
        <ele>551.19995117188</ele>
        <time>2026-09-03T15:01:46.000Z</time>
      </trkpt>
      <trkpt lat="48.20667" lon="6.66489">
        <ele>551.40002441406</ele>
        <time>2026-09-03T15:01:47.000Z</time>
      </trkpt>
      <trkpt lat="48.20667" lon="6.66489">
        <ele>551.40002441406</ele>
        <time>2026-09-03T15:01:48.000Z</time>
      </trkpt>
      <trkpt lat="48.20666" lon="6.66488">
        <ele>551.59997558594</ele>
        <time>2026-09-03T15:01:49.000Z</time>
      </trkpt>
      <trkpt lat="48.20665" lon="6.66487">
        <ele>551.80004882812</ele>
        <time>2026-09-03T15:01:50.000Z</time>
      </trkpt>
      <trkpt lat="48.20665" lon="6.66487">
        <ele>552</ele>
        <time>2026-09-03T15:01:51.000Z</time>
      </trkpt>
      <trkpt lat="48.20664" lon="6.66486">
        <ele>552.19995117188</ele>
        <time>2026-09-03T15:01:52.000Z</time>
      </trkpt>
      <trkpt lat="48.20663" lon="6.66486">
        <ele>552.40002441406</ele>
        <time>2026-09-03T15:01:53.000Z</time>
      </trkpt>
      <trkpt lat="48.20662" lon="6.66485">
        <ele>552.59997558594</ele>
        <time>2026-09-03T15:01:54.000Z</time>
      </trkpt>
      <trkpt lat="48.20662" lon="6.66485">
        <ele>552.59997558594</ele>
        <time>2026-09-03T15:01:55.000Z</time>
      </trkpt>
      <trkpt lat="48.20661" lon="6.66484">
        <ele>552.80004882812</ele>
        <time>2026-09-03T15:01:56.000Z</time>
      </trkpt>
      <trkpt lat="48.2066" lon="6.66483">
        <ele>552.80004882812</ele>
        <time>2026-09-03T15:01:57.000Z</time>
      </trkpt>
      <trkpt lat="48.2066" lon="6.66483">
        <ele>553</ele>
        <time>2026-09-03T15:01:58.000Z</time>
      </trkpt>
      <trkpt lat="48.20659" lon="6.66482">
        <ele>553.19995117188</ele>
        <time>2026-09-03T15:01:59.000Z</time>
      </trkpt>
      <trkpt lat="48.20659" lon="6.66481">
        <ele>553.40002441406</ele>
        <time>2026-09-03T15:02:00.000Z</time>
      </trkpt>
      <trkpt lat="48.20659" lon="6.66481">
        <ele>553.59997558594</ele>
        <time>2026-09-03T15:02:01.000Z</time>
      </trkpt>
      <trkpt lat="48.20657" lon="6.6648">
        <ele>553.59997558594</ele>
        <time>2026-09-03T15:02:02.000Z</time>
      </trkpt>
      <trkpt lat="48.20657" lon="6.66479">
        <ele>553.80004882812</ele>
        <time>2026-09-03T15:02:03.000Z</time>
      </trkpt>
      <trkpt lat="48.20657" lon="6.66479">
        <ele>553.80004882812</ele>
        <time>2026-09-03T15:02:04.000Z</time>
      </trkpt>
      <trkpt lat="48.20656" lon="6.66478">
        <ele>554</ele>
        <time>2026-09-03T15:02:05.000Z</time>
      </trkpt>
      <trkpt lat="48.20655" lon="6.66477">
        <ele>554.19995117188</ele>
        <time>2026-09-03T15:02:06.000Z</time>
      </trkpt>
      <trkpt lat="48.20655" lon="6.66477">
        <ele>554.40002441406</ele>
        <time>2026-09-03T15:02:07.000Z</time>
      </trkpt>
      <trkpt lat="48.20654" lon="6.66476">
        <ele>554.59997558594</ele>
        <time>2026-09-03T15:02:08.000Z</time>
      </trkpt>
      <trkpt lat="48.20653" lon="6.66475">
        <ele>554.80004882812</ele>
        <time>2026-09-03T15:02:09.000Z</time>
      </trkpt>
      <trkpt lat="48.20653" lon="6.66474">
        <ele>555</ele>
        <time>2026-09-03T15:02:10.000Z</time>
      </trkpt>
      <trkpt lat="48.20652" lon="6.66473">
        <ele>555.19995117188</ele>
        <time>2026-09-03T15:02:11.000Z</time>
      </trkpt>
      <trkpt lat="48.20652" lon="6.66473">
        <ele>555.19995117188</ele>
        <time>2026-09-03T15:02:12.000Z</time>
      </trkpt>
      <trkpt lat="48.20651" lon="6.66473">
        <ele>555.40002441406</ele>
        <time>2026-09-03T15:02:13.000Z</time>
      </trkpt>
      <trkpt lat="48.20651" lon="6.66472">
        <ele>555.40002441406</ele>
        <time>2026-09-03T15:02:14.000Z</time>
      </trkpt>
      <trkpt lat="48.2065" lon="6.66471">
        <ele>555.59997558594</ele>
        <time>2026-09-03T15:02:15.000Z</time>
      </trkpt>
      <trkpt lat="48.20649" lon="6.66471">
        <ele>555.59997558594</ele>
        <time>2026-09-03T15:02:16.000Z</time>
      </trkpt>
      <trkpt lat="48.20648" lon="6.6647">
        <ele>555.80004882812</ele>
        <time>2026-09-03T15:02:17.000Z</time>
      </trkpt>
      <trkpt lat="48.20647" lon="6.66469">
        <ele>556</ele>
        <time>2026-09-03T15:02:18.000Z</time>
      </trkpt>
      <trkpt lat="48.20646" lon="6.66469">
        <ele>556.19995117188</ele>
        <time>2026-09-03T15:02:19.000Z</time>
      </trkpt>
      <trkpt lat="48.20645" lon="6.66467">
        <ele>556.40002441406</ele>
        <time>2026-09-03T15:02:20.000Z</time>
      </trkpt>
      <trkpt lat="48.20644" lon="6.66467">
        <ele>556.59997558594</ele>
        <time>2026-09-03T15:02:21.000Z</time>
      </trkpt>
      <trkpt lat="48.20644" lon="6.66467">
        <ele>556.59997558594</ele>
        <time>2026-09-03T15:02:22.000Z</time>
      </trkpt>
      <trkpt lat="48.20643" lon="6.66467">
        <ele>556.80004882812</ele>
        <time>2026-09-03T15:02:23.000Z</time>
      </trkpt>
      <trkpt lat="48.20642" lon="6.66466">
        <ele>557</ele>
        <time>2026-09-03T15:02:24.000Z</time>
      </trkpt>
      <trkpt lat="48.20642" lon="6.66466">
        <ele>557</ele>
        <time>2026-09-03T15:02:25.000Z</time>
      </trkpt>
      <trkpt lat="48.20642" lon="6.66465">
        <ele>557.19995117188</ele>
        <time>2026-09-03T15:02:26.000Z</time>
      </trkpt>
      <trkpt lat="48.20641" lon="6.66465">
        <ele>557.40002441406</ele>
        <time>2026-09-03T15:02:27.000Z</time>
      </trkpt>
      <trkpt lat="48.2064" lon="6.66464">
        <ele>557.59997558594</ele>
        <time>2026-09-03T15:02:28.000Z</time>
      </trkpt>
      <trkpt lat="48.20641" lon="6.66464">
        <ele>557.80004882812</ele>
        <time>2026-09-03T15:02:29.000Z</time>
      </trkpt>
      <trkpt lat="48.2064" lon="6.66463">
        <ele>558</ele>
        <time>2026-09-03T15:02:30.000Z</time>
      </trkpt>
      <trkpt lat="48.20639" lon="6.66462">
        <ele>558.19995117188</ele>
        <time>2026-09-03T15:02:31.000Z</time>
      </trkpt>
      <trkpt lat="48.20639" lon="6.66461">
        <ele>558.19995117188</ele>
        <time>2026-09-03T15:02:32.000Z</time>
      </trkpt>
      <trkpt lat="48.20639" lon="6.6646">
        <ele>558.40002441406</ele>
        <time>2026-09-03T15:02:33.000Z</time>
      </trkpt>
      <trkpt lat="48.20637" lon="6.6646">
        <ele>558.59997558594</ele>
        <time>2026-09-03T15:02:34.000Z</time>
      </trkpt>
      <trkpt lat="48.20636" lon="6.66459">
        <ele>558.59997558594</ele>
        <time>2026-09-03T15:02:35.000Z</time>
      </trkpt>
      <trkpt lat="48.20636" lon="6.66458">
        <ele>558.80004882812</ele>
        <time>2026-09-03T15:02:36.000Z</time>
      </trkpt>
      <trkpt lat="48.20634" lon="6.66457">
        <ele>558.80004882812</ele>
        <time>2026-09-03T15:02:37.000Z</time>
      </trkpt>
      <trkpt lat="48.20634" lon="6.66456">
        <ele>559</ele>
        <time>2026-09-03T15:02:38.000Z</time>
      </trkpt>
      <trkpt lat="48.20633" lon="6.66455">
        <ele>559</ele>
        <time>2026-09-03T15:02:39.000Z</time>
      </trkpt>
      <trkpt lat="48.20632" lon="6.66455">
        <ele>559.19995117188</ele>
        <time>2026-09-03T15:02:40.000Z</time>
      </trkpt>
      <trkpt lat="48.20632" lon="6.66454">
        <ele>559.40002441406</ele>
        <time>2026-09-03T15:02:41.000Z</time>
      </trkpt>
      <trkpt lat="48.20631" lon="6.66455">
        <ele>559.40002441406</ele>
        <time>2026-09-03T15:02:42.000Z</time>
      </trkpt>
      <trkpt lat="48.20631" lon="6.66454">
        <ele>559.59997558594</ele>
        <time>2026-09-03T15:02:43.000Z</time>
      </trkpt>
      <trkpt lat="48.2063" lon="6.66454">
        <ele>559.59997558594</ele>
        <time>2026-09-03T15:02:44.000Z</time>
      </trkpt>
      <trkpt lat="48.2063" lon="6.66454">
        <ele>559.59997558594</ele>
        <time>2026-09-03T15:02:45.000Z</time>
      </trkpt>
      <trkpt lat="48.20629" lon="6.66453">
        <ele>559.80004882812</ele>
        <time>2026-09-03T15:02:46.000Z</time>
      </trkpt>
      <trkpt lat="48.20628" lon="6.66453">
        <ele>560</ele>
        <time>2026-09-03T15:02:47.000Z</time>
      </trkpt>
      <trkpt lat="48.20628" lon="6.66452">
        <ele>560.19995117188</ele>
        <time>2026-09-03T15:02:48.000Z</time>
      </trkpt>
      <trkpt lat="48.20627" lon="6.66452">
        <ele>560.19995117188</ele>
        <time>2026-09-03T15:02:49.000Z</time>
      </trkpt>
      <trkpt lat="48.20627" lon="6.66451">
        <ele>560.40002441406</ele>
        <time>2026-09-03T15:02:50.000Z</time>
      </trkpt>
      <trkpt lat="48.20626" lon="6.6645">
        <ele>560.59997558594</ele>
        <time>2026-09-03T15:02:51.000Z</time>
      </trkpt>
      <trkpt lat="48.20626" lon="6.66449">
        <ele>560.59997558594</ele>
        <time>2026-09-03T15:02:52.000Z</time>
      </trkpt>
      <trkpt lat="48.20625" lon="6.66449">
        <ele>560.80004882812</ele>
        <time>2026-09-03T15:02:53.000Z</time>
      </trkpt>
      <trkpt lat="48.20625" lon="6.66448">
        <ele>561</ele>
        <time>2026-09-03T15:02:54.000Z</time>
      </trkpt>
      <trkpt lat="48.20624" lon="6.66448">
        <ele>561.19995117188</ele>
        <time>2026-09-03T15:02:55.000Z</time>
      </trkpt>
      <trkpt lat="48.20623" lon="6.66447">
        <ele>561.19995117188</ele>
        <time>2026-09-03T15:02:56.000Z</time>
      </trkpt>
      <trkpt lat="48.20623" lon="6.66446">
        <ele>561.40002441406</ele>
        <time>2026-09-03T15:02:57.000Z</time>
      </trkpt>
      <trkpt lat="48.20622" lon="6.66445">
        <ele>561.40002441406</ele>
        <time>2026-09-03T15:02:58.000Z</time>
      </trkpt>
      <trkpt lat="48.20622" lon="6.66444">
        <ele>561.40002441406</ele>
        <time>2026-09-03T15:02:59.000Z</time>
      </trkpt>
      <trkpt lat="48.20622" lon="6.66443">
        <ele>561.40002441406</ele>
        <time>2026-09-03T15:03:00.000Z</time>
      </trkpt>
      <trkpt lat="48.20621" lon="6.66443">
        <ele>561.40002441406</ele>
        <time>2026-09-03T15:03:01.000Z</time>
      </trkpt>
      <trkpt lat="48.20621" lon="6.66442">
        <ele>561.59997558594</ele>
        <time>2026-09-03T15:03:02.000Z</time>
      </trkpt>
      <trkpt lat="48.2062" lon="6.66442">
        <ele>561.59997558594</ele>
        <time>2026-09-03T15:03:03.000Z</time>
      </trkpt>
      <trkpt lat="48.20619" lon="6.66441">
        <ele>561.80004882812</ele>
        <time>2026-09-03T15:03:04.000Z</time>
      </trkpt>
      <trkpt lat="48.20619" lon="6.6644">
        <ele>562</ele>
        <time>2026-09-03T15:03:05.000Z</time>
      </trkpt>
      <trkpt lat="48.20618" lon="6.66439">
        <ele>562.19995117188</ele>
        <time>2026-09-03T15:03:06.000Z</time>
      </trkpt>
      <trkpt lat="48.20618" lon="6.66438">
        <ele>562.40002441406</ele>
        <time>2026-09-03T15:03:07.000Z</time>
      </trkpt>
      <trkpt lat="48.20617" lon="6.66437">
        <ele>562.40002441406</ele>
        <time>2026-09-03T15:03:08.000Z</time>
      </trkpt>
      <trkpt lat="48.20617" lon="6.66437">
        <ele>562.59997558594</ele>
        <time>2026-09-03T15:03:09.000Z</time>
      </trkpt>
      <trkpt lat="48.20616" lon="6.66436">
        <ele>562.59997558594</ele>
        <time>2026-09-03T15:03:10.000Z</time>
      </trkpt>
      <trkpt lat="48.20616" lon="6.66435">
        <ele>562.80004882812</ele>
        <time>2026-09-03T15:03:11.000Z</time>
      </trkpt>
      <trkpt lat="48.20615" lon="6.66433">
        <ele>562.80004882812</ele>
        <time>2026-09-03T15:03:12.000Z</time>
      </trkpt>
      <trkpt lat="48.20615" lon="6.66433">
        <ele>563</ele>
        <time>2026-09-03T15:03:13.000Z</time>
      </trkpt>
      <trkpt lat="48.20614" lon="6.66432">
        <ele>563.19995117188</ele>
        <time>2026-09-03T15:03:14.000Z</time>
      </trkpt>
      <trkpt lat="48.20614" lon="6.66431">
        <ele>563.40002441406</ele>
        <time>2026-09-03T15:03:15.000Z</time>
      </trkpt>
      <trkpt lat="48.20613" lon="6.6643">
        <ele>563.40002441406</ele>
        <time>2026-09-03T15:03:16.000Z</time>
      </trkpt>
      <trkpt lat="48.20613" lon="6.66429">
        <ele>563.40002441406</ele>
        <time>2026-09-03T15:03:17.000Z</time>
      </trkpt>
      <trkpt lat="48.20612" lon="6.66429">
        <ele>563.59997558594</ele>
        <time>2026-09-03T15:03:18.000Z</time>
      </trkpt>
      <trkpt lat="48.20612" lon="6.66428">
        <ele>563.59997558594</ele>
        <time>2026-09-03T15:03:19.000Z</time>
      </trkpt>
      <trkpt lat="48.20611" lon="6.66427">
        <ele>563.80004882812</ele>
        <time>2026-09-03T15:03:20.000Z</time>
      </trkpt>
      <trkpt lat="48.20611" lon="6.66426">
        <ele>563.80004882812</ele>
        <time>2026-09-03T15:03:21.000Z</time>
      </trkpt>
      <trkpt lat="48.2061" lon="6.66426">
        <ele>564</ele>
        <time>2026-09-03T15:03:22.000Z</time>
      </trkpt>
      <trkpt lat="48.2061" lon="6.66425">
        <ele>564</ele>
        <time>2026-09-03T15:03:23.000Z</time>
      </trkpt>
      <trkpt lat="48.20609" lon="6.66424">
        <ele>564.19995117188</ele>
        <time>2026-09-03T15:03:24.000Z</time>
      </trkpt>
      <trkpt lat="48.20609" lon="6.66423">
        <ele>564.19995117188</ele>
        <time>2026-09-03T15:03:25.000Z</time>
      </trkpt>
      <trkpt lat="48.20608" lon="6.66422">
        <ele>564.40002441406</ele>
        <time>2026-09-03T15:03:26.000Z</time>
      </trkpt>
      <trkpt lat="48.20608" lon="6.66422">
        <ele>564.40002441406</ele>
        <time>2026-09-03T15:03:27.000Z</time>
      </trkpt>
      <trkpt lat="48.20608" lon="6.66422">
        <ele>564.40002441406</ele>
        <time>2026-09-03T15:03:28.000Z</time>
      </trkpt>
      <trkpt lat="48.20607" lon="6.66421">
        <ele>564.59997558594</ele>
        <time>2026-09-03T15:03:29.000Z</time>
      </trkpt>
      <trkpt lat="48.20606" lon="6.6642">
        <ele>564.59997558594</ele>
        <time>2026-09-03T15:03:30.000Z</time>
      </trkpt>
      <trkpt lat="48.20606" lon="6.66419">
        <ele>564.80004882812</ele>
        <time>2026-09-03T15:03:31.000Z</time>
      </trkpt>
      <trkpt lat="48.20605" lon="6.66419">
        <ele>565</ele>
        <time>2026-09-03T15:03:32.000Z</time>
      </trkpt>
      <trkpt lat="48.20604" lon="6.66418">
        <ele>565.19995117188</ele>
        <time>2026-09-03T15:03:33.000Z</time>
      </trkpt>
      <trkpt lat="48.20604" lon="6.66417">
        <ele>565.40002441406</ele>
        <time>2026-09-03T15:03:34.000Z</time>
      </trkpt>
      <trkpt lat="48.20603" lon="6.66417">
        <ele>565.40002441406</ele>
        <time>2026-09-03T15:03:35.000Z</time>
      </trkpt>
      <trkpt lat="48.20602" lon="6.66416">
        <ele>565.59997558594</ele>
        <time>2026-09-03T15:03:36.000Z</time>
      </trkpt>
      <trkpt lat="48.20602" lon="6.66416">
        <ele>565.59997558594</ele>
        <time>2026-09-03T15:03:37.000Z</time>
      </trkpt>
      <trkpt lat="48.20601" lon="6.66415">
        <ele>565.80004882812</ele>
        <time>2026-09-03T15:03:38.000Z</time>
      </trkpt>
      <trkpt lat="48.20601" lon="6.66414">
        <ele>566</ele>
        <time>2026-09-03T15:03:39.000Z</time>
      </trkpt>
      <trkpt lat="48.206" lon="6.66414">
        <ele>566.19995117188</ele>
        <time>2026-09-03T15:03:40.000Z</time>
      </trkpt>
      <trkpt lat="48.206" lon="6.66413">
        <ele>566.19995117188</ele>
        <time>2026-09-03T15:03:41.000Z</time>
      </trkpt>
      <trkpt lat="48.20599" lon="6.66412">
        <ele>566.40002441406</ele>
        <time>2026-09-03T15:03:42.000Z</time>
      </trkpt>
      <trkpt lat="48.20599" lon="6.66411">
        <ele>566.59997558594</ele>
        <time>2026-09-03T15:03:43.000Z</time>
      </trkpt>
      <trkpt lat="48.20598" lon="6.6641">
        <ele>566.80004882812</ele>
        <time>2026-09-03T15:03:44.000Z</time>
      </trkpt>
      <trkpt lat="48.20597" lon="6.66409">
        <ele>567</ele>
        <time>2026-09-03T15:03:45.000Z</time>
      </trkpt>
      <trkpt lat="48.20597" lon="6.66408">
        <ele>567</ele>
        <time>2026-09-03T15:03:46.000Z</time>
      </trkpt>
      <trkpt lat="48.20597" lon="6.66408">
        <ele>567.19995117188</ele>
        <time>2026-09-03T15:03:47.000Z</time>
      </trkpt>
      <trkpt lat="48.20596" lon="6.66407">
        <ele>567.19995117188</ele>
        <time>2026-09-03T15:03:48.000Z</time>
      </trkpt>
      <trkpt lat="48.20596" lon="6.66407">
        <ele>567.40002441406</ele>
        <time>2026-09-03T15:03:49.000Z</time>
      </trkpt>
      <trkpt lat="48.20596" lon="6.66406">
        <ele>567.40002441406</ele>
        <time>2026-09-03T15:03:50.000Z</time>
      </trkpt>
      <trkpt lat="48.20595" lon="6.66405">
        <ele>567.40002441406</ele>
        <time>2026-09-03T15:03:51.000Z</time>
      </trkpt>
      <trkpt lat="48.20594" lon="6.66404">
        <ele>567.59997558594</ele>
        <time>2026-09-03T15:03:52.000Z</time>
      </trkpt>
      <trkpt lat="48.20594" lon="6.66403">
        <ele>567.59997558594</ele>
        <time>2026-09-03T15:03:53.000Z</time>
      </trkpt>
      <trkpt lat="48.20593" lon="6.66402">
        <ele>567.80004882812</ele>
        <time>2026-09-03T15:03:54.000Z</time>
      </trkpt>
      <trkpt lat="48.20594" lon="6.66402">
        <ele>567.80004882812</ele>
        <time>2026-09-03T15:03:55.000Z</time>
      </trkpt>
      <trkpt lat="48.20594" lon="6.66403">
        <ele>567.80004882812</ele>
        <time>2026-09-03T15:03:56.000Z</time>
      </trkpt>
      <trkpt lat="48.20594" lon="6.66402">
        <ele>568</ele>
        <time>2026-09-03T15:03:57.000Z</time>
      </trkpt>
      <trkpt lat="48.20594" lon="6.66402">
        <ele>568</ele>
        <time>2026-09-03T15:03:58.000Z</time>
      </trkpt>
      <trkpt lat="48.20593" lon="6.66402">
        <ele>568</ele>
        <time>2026-09-03T15:03:59.000Z</time>
      </trkpt>
      <trkpt lat="48.20593" lon="6.66402">
        <ele>568</ele>
        <time>2026-09-03T15:04:00.000Z</time>
      </trkpt>
      <trkpt lat="48.20593" lon="6.66402">
        <ele>568</ele>
        <time>2026-09-03T15:04:01.000Z</time>
      </trkpt>
      <trkpt lat="48.20593" lon="6.66402">
        <ele>567.80004882812</ele>
        <time>2026-09-03T15:04:02.000Z</time>
      </trkpt>
      <trkpt lat="48.20593" lon="6.66402">
        <ele>567.80004882812</ele>
        <time>2026-09-03T15:04:03.000Z</time>
      </trkpt>
      <trkpt lat="48.20593" lon="6.66402">
        <ele>567.80004882812</ele>
        <time>2026-09-03T15:04:04.000Z</time>
      </trkpt>
      <trkpt lat="48.20593" lon="6.66402">
        <ele>567.80004882812</ele>
        <time>2026-09-03T15:04:05.000Z</time>
      </trkpt>
      <trkpt lat="48.20593" lon="6.66402">
        <ele>568</ele>
        <time>2026-09-03T15:04:06.000Z</time>
      </trkpt>
      <trkpt lat="48.20593" lon="6.66402">
        <ele>568</ele>
        <time>2026-09-03T15:04:07.000Z</time>
      </trkpt>
      <trkpt lat="48.20592" lon="6.664">
        <ele>568</ele>
        <time>2026-09-03T15:04:08.000Z</time>
      </trkpt>
      <trkpt lat="48.20591" lon="6.66399">
        <ele>568</ele>
        <time>2026-09-03T15:04:09.000Z</time>
      </trkpt>
      <trkpt lat="48.20591" lon="6.66398">
        <ele>568.19995117188</ele>
        <time>2026-09-03T15:04:10.000Z</time>
      </trkpt>
      <trkpt lat="48.20591" lon="6.66397">
        <ele>568.40002441406</ele>
        <time>2026-09-03T15:04:11.000Z</time>
      </trkpt>
      <trkpt lat="48.2059" lon="6.66395">
        <ele>568.59997558594</ele>
        <time>2026-09-03T15:04:12.000Z</time>
      </trkpt>
      <trkpt lat="48.20589" lon="6.66394">
        <ele>568.80004882812</ele>
        <time>2026-09-03T15:04:13.000Z</time>
      </trkpt>
      <trkpt lat="48.20589" lon="6.66393">
        <ele>569</ele>
        <time>2026-09-03T15:04:14.000Z</time>
      </trkpt>
      <trkpt lat="48.20588" lon="6.66391">
        <ele>569.19995117188</ele>
        <time>2026-09-03T15:04:15.000Z</time>
      </trkpt>
      <trkpt lat="48.20588" lon="6.6639">
        <ele>569.40002441406</ele>
        <time>2026-09-03T15:04:16.000Z</time>
      </trkpt>
      <trkpt lat="48.20588" lon="6.66389">
        <ele>569.40002441406</ele>
        <time>2026-09-03T15:04:17.000Z</time>
      </trkpt>
      <trkpt lat="48.20587" lon="6.66387">
        <ele>569.59997558594</ele>
        <time>2026-09-03T15:04:18.000Z</time>
      </trkpt>
      <trkpt lat="48.20587" lon="6.66386">
        <ele>569.80004882812</ele>
        <time>2026-09-03T15:04:19.000Z</time>
      </trkpt>
      <trkpt lat="48.20586" lon="6.66386">
        <ele>570</ele>
        <time>2026-09-03T15:04:20.000Z</time>
      </trkpt>
      <trkpt lat="48.20586" lon="6.66385">
        <ele>570</ele>
        <time>2026-09-03T15:04:21.000Z</time>
      </trkpt>
      <trkpt lat="48.20585" lon="6.66384">
        <ele>570.19995117188</ele>
        <time>2026-09-03T15:04:22.000Z</time>
      </trkpt>
      <trkpt lat="48.20584" lon="6.66383">
        <ele>570.19995117188</ele>
        <time>2026-09-03T15:04:23.000Z</time>
      </trkpt>
      <trkpt lat="48.20584" lon="6.66382">
        <ele>570.19995117188</ele>
        <time>2026-09-03T15:04:24.000Z</time>
      </trkpt>
      <trkpt lat="48.20583" lon="6.66382">
        <ele>570.19995117188</ele>
        <time>2026-09-03T15:04:25.000Z</time>
      </trkpt>
      <trkpt lat="48.20583" lon="6.66381">
        <ele>570.40002441406</ele>
        <time>2026-09-03T15:04:26.000Z</time>
      </trkpt>
      <trkpt lat="48.20582" lon="6.6638">
        <ele>570.59997558594</ele>
        <time>2026-09-03T15:04:27.000Z</time>
      </trkpt>
      <trkpt lat="48.20582" lon="6.66379">
        <ele>570.80004882812</ele>
        <time>2026-09-03T15:04:28.000Z</time>
      </trkpt>
      <trkpt lat="48.20581" lon="6.66379">
        <ele>571</ele>
        <time>2026-09-03T15:04:29.000Z</time>
      </trkpt>
      <trkpt lat="48.2058" lon="6.66378">
        <ele>571.19995117188</ele>
        <time>2026-09-03T15:04:30.000Z</time>
      </trkpt>
      <trkpt lat="48.2058" lon="6.66377">
        <ele>571.19995117188</ele>
        <time>2026-09-03T15:04:31.000Z</time>
      </trkpt>
      <trkpt lat="48.20579" lon="6.66376">
        <ele>571.40002441406</ele>
        <time>2026-09-03T15:04:32.000Z</time>
      </trkpt>
      <trkpt lat="48.20578" lon="6.66375">
        <ele>571.59997558594</ele>
        <time>2026-09-03T15:04:33.000Z</time>
      </trkpt>
      <trkpt lat="48.20578" lon="6.66374">
        <ele>571.80004882812</ele>
        <time>2026-09-03T15:04:34.000Z</time>
      </trkpt>
      <trkpt lat="48.20577" lon="6.66373">
        <ele>572</ele>
        <time>2026-09-03T15:04:35.000Z</time>
      </trkpt>
      <trkpt lat="48.20577" lon="6.66372">
        <ele>572.19995117188</ele>
        <time>2026-09-03T15:04:36.000Z</time>
      </trkpt>
      <trkpt lat="48.20577" lon="6.66371">
        <ele>572.19995117188</ele>
        <time>2026-09-03T15:04:37.000Z</time>
      </trkpt>
      <trkpt lat="48.20576" lon="6.66371">
        <ele>572.40002441406</ele>
        <time>2026-09-03T15:04:38.000Z</time>
      </trkpt>
      <trkpt lat="48.20576" lon="6.66369">
        <ele>572.59997558594</ele>
        <time>2026-09-03T15:04:39.000Z</time>
      </trkpt>
      <trkpt lat="48.20575" lon="6.66369">
        <ele>572.80004882812</ele>
        <time>2026-09-03T15:04:40.000Z</time>
      </trkpt>
      <trkpt lat="48.20575" lon="6.66368">
        <ele>573</ele>
        <time>2026-09-03T15:04:41.000Z</time>
      </trkpt>
      <trkpt lat="48.20574" lon="6.66367">
        <ele>573</ele>
        <time>2026-09-03T15:04:42.000Z</time>
      </trkpt>
      <trkpt lat="48.20574" lon="6.66366">
        <ele>573.19995117188</ele>
        <time>2026-09-03T15:04:43.000Z</time>
      </trkpt>
      <trkpt lat="48.20573" lon="6.66366">
        <ele>573.40002441406</ele>
        <time>2026-09-03T15:04:44.000Z</time>
      </trkpt>
      <trkpt lat="48.20573" lon="6.66364">
        <ele>573.40002441406</ele>
        <time>2026-09-03T15:04:45.000Z</time>
      </trkpt>
      <trkpt lat="48.20573" lon="6.66363">
        <ele>573.40002441406</ele>
        <time>2026-09-03T15:04:46.000Z</time>
      </trkpt>
      <trkpt lat="48.20573" lon="6.66362">
        <ele>573.59997558594</ele>
        <time>2026-09-03T15:04:47.000Z</time>
      </trkpt>
      <trkpt lat="48.20572" lon="6.66361">
        <ele>573.59997558594</ele>
        <time>2026-09-03T15:04:48.000Z</time>
      </trkpt>
      <trkpt lat="48.20572" lon="6.6636">
        <ele>573.59997558594</ele>
        <time>2026-09-03T15:04:49.000Z</time>
      </trkpt>
      <trkpt lat="48.20571" lon="6.66359">
        <ele>573.80004882812</ele>
        <time>2026-09-03T15:04:50.000Z</time>
      </trkpt>
      <trkpt lat="48.20571" lon="6.66358">
        <ele>574</ele>
        <time>2026-09-03T15:04:51.000Z</time>
      </trkpt>
      <trkpt lat="48.2057" lon="6.66357">
        <ele>574</ele>
        <time>2026-09-03T15:04:52.000Z</time>
      </trkpt>
      <trkpt lat="48.2057" lon="6.66356">
        <ele>574.40002441406</ele>
        <time>2026-09-03T15:04:53.000Z</time>
      </trkpt>
      <trkpt lat="48.2057" lon="6.66355">
        <ele>574.40002441406</ele>
        <time>2026-09-03T15:04:54.000Z</time>
      </trkpt>
      <trkpt lat="48.20569" lon="6.66354">
        <ele>574.59997558594</ele>
        <time>2026-09-03T15:04:55.000Z</time>
      </trkpt>
      <trkpt lat="48.20569" lon="6.66353">
        <ele>574.80004882812</ele>
        <time>2026-09-03T15:04:56.000Z</time>
      </trkpt>
      <trkpt lat="48.20568" lon="6.66353">
        <ele>574.80004882812</ele>
        <time>2026-09-03T15:04:57.000Z</time>
      </trkpt>
      <trkpt lat="48.20568" lon="6.66352">
        <ele>575</ele>
        <time>2026-09-03T15:04:58.000Z</time>
      </trkpt>
      <trkpt lat="48.20567" lon="6.66351">
        <ele>575</ele>
        <time>2026-09-03T15:04:59.000Z</time>
      </trkpt>
      <trkpt lat="48.20566" lon="6.6635">
        <ele>575</ele>
        <time>2026-09-03T15:05:00.000Z</time>
      </trkpt>
      <trkpt lat="48.20566" lon="6.66349">
        <ele>575.19995117188</ele>
        <time>2026-09-03T15:05:01.000Z</time>
      </trkpt>
      <trkpt lat="48.20565" lon="6.66348">
        <ele>575.19995117188</ele>
        <time>2026-09-03T15:05:02.000Z</time>
      </trkpt>
      <trkpt lat="48.20565" lon="6.66347">
        <ele>575.40002441406</ele>
        <time>2026-09-03T15:05:03.000Z</time>
      </trkpt>
      <trkpt lat="48.20564" lon="6.66346">
        <ele>575.40002441406</ele>
        <time>2026-09-03T15:05:04.000Z</time>
      </trkpt>
      <trkpt lat="48.20564" lon="6.66344">
        <ele>575.59997558594</ele>
        <time>2026-09-03T15:05:05.000Z</time>
      </trkpt>
      <trkpt lat="48.20563" lon="6.66343">
        <ele>575.80004882812</ele>
        <time>2026-09-03T15:05:06.000Z</time>
      </trkpt>
      <trkpt lat="48.20562" lon="6.66342">
        <ele>575.80004882812</ele>
        <time>2026-09-03T15:05:07.000Z</time>
      </trkpt>
      <trkpt lat="48.20562" lon="6.66341">
        <ele>576</ele>
        <time>2026-09-03T15:05:08.000Z</time>
      </trkpt>
      <trkpt lat="48.20562" lon="6.6634">
        <ele>576</ele>
        <time>2026-09-03T15:05:09.000Z</time>
      </trkpt>
      <trkpt lat="48.20561" lon="6.66339">
        <ele>576.19995117188</ele>
        <time>2026-09-03T15:05:10.000Z</time>
      </trkpt>
      <trkpt lat="48.20561" lon="6.66338">
        <ele>576.40002441406</ele>
        <time>2026-09-03T15:05:11.000Z</time>
      </trkpt>
      <trkpt lat="48.2056" lon="6.66336">
        <ele>576.40002441406</ele>
        <time>2026-09-03T15:05:12.000Z</time>
      </trkpt>
      <trkpt lat="48.2056" lon="6.66335">
        <ele>576.59997558594</ele>
        <time>2026-09-03T15:05:13.000Z</time>
      </trkpt>
      <trkpt lat="48.2056" lon="6.66334">
        <ele>576.80004882812</ele>
        <time>2026-09-03T15:05:14.000Z</time>
      </trkpt>
      <trkpt lat="48.20559" lon="6.66333">
        <ele>576.80004882812</ele>
        <time>2026-09-03T15:05:15.000Z</time>
      </trkpt>
      <trkpt lat="48.20559" lon="6.66332">
        <ele>576.80004882812</ele>
        <time>2026-09-03T15:05:16.000Z</time>
      </trkpt>
      <trkpt lat="48.20558" lon="6.6633">
        <ele>577</ele>
        <time>2026-09-03T15:05:17.000Z</time>
      </trkpt>
      <trkpt lat="48.20558" lon="6.66329">
        <ele>577</ele>
        <time>2026-09-03T15:05:18.000Z</time>
      </trkpt>
      <trkpt lat="48.20558" lon="6.66328">
        <ele>577</ele>
        <time>2026-09-03T15:05:19.000Z</time>
      </trkpt>
      <trkpt lat="48.20558" lon="6.66327">
        <ele>577.19995117188</ele>
        <time>2026-09-03T15:05:20.000Z</time>
      </trkpt>
      <trkpt lat="48.20557" lon="6.66327">
        <ele>577.40002441406</ele>
        <time>2026-09-03T15:05:21.000Z</time>
      </trkpt>
      <trkpt lat="48.20556" lon="6.66326">
        <ele>577.59997558594</ele>
        <time>2026-09-03T15:05:22.000Z</time>
      </trkpt>
      <trkpt lat="48.20556" lon="6.66325">
        <ele>577.80004882812</ele>
        <time>2026-09-03T15:05:23.000Z</time>
      </trkpt>
      <trkpt lat="48.20555" lon="6.66324">
        <ele>578</ele>
        <time>2026-09-03T15:05:24.000Z</time>
      </trkpt>
      <trkpt lat="48.20555" lon="6.66323">
        <ele>578.19995117188</ele>
        <time>2026-09-03T15:05:25.000Z</time>
      </trkpt>
      <trkpt lat="48.20555" lon="6.66322">
        <ele>578.19995117188</ele>
        <time>2026-09-03T15:05:26.000Z</time>
      </trkpt>
      <trkpt lat="48.20555" lon="6.66321">
        <ele>578.19995117188</ele>
        <time>2026-09-03T15:05:27.000Z</time>
      </trkpt>
      <trkpt lat="48.20555" lon="6.66321">
        <ele>578.40002441406</ele>
        <time>2026-09-03T15:05:28.000Z</time>
      </trkpt>
      <trkpt lat="48.20554" lon="6.66319">
        <ele>578.40002441406</ele>
        <time>2026-09-03T15:05:29.000Z</time>
      </trkpt>
      <trkpt lat="48.20554" lon="6.66318">
        <ele>578.40002441406</ele>
        <time>2026-09-03T15:05:30.000Z</time>
      </trkpt>
      <trkpt lat="48.20553" lon="6.66317">
        <ele>578.40002441406</ele>
        <time>2026-09-03T15:05:31.000Z</time>
      </trkpt>
      <trkpt lat="48.20552" lon="6.66316">
        <ele>578.40002441406</ele>
        <time>2026-09-03T15:05:32.000Z</time>
      </trkpt>
      <trkpt lat="48.20552" lon="6.66315">
        <ele>578.40002441406</ele>
        <time>2026-09-03T15:05:33.000Z</time>
      </trkpt>
      <trkpt lat="48.20551" lon="6.66314">
        <ele>578.59997558594</ele>
        <time>2026-09-03T15:05:34.000Z</time>
      </trkpt>
      <trkpt lat="48.20551" lon="6.66313">
        <ele>578.59997558594</ele>
        <time>2026-09-03T15:05:35.000Z</time>
      </trkpt>
      <trkpt lat="48.2055" lon="6.66311">
        <ele>578.80004882812</ele>
        <time>2026-09-03T15:05:36.000Z</time>
      </trkpt>
      <trkpt lat="48.20549" lon="6.66311">
        <ele>578.80004882812</ele>
        <time>2026-09-03T15:05:37.000Z</time>
      </trkpt>
      <trkpt lat="48.20549" lon="6.6631">
        <ele>578.80004882812</ele>
        <time>2026-09-03T15:05:38.000Z</time>
      </trkpt>
      <trkpt lat="48.20549" lon="6.66309">
        <ele>579</ele>
        <time>2026-09-03T15:05:39.000Z</time>
      </trkpt>
      <trkpt lat="48.20548" lon="6.66307">
        <ele>579</ele>
        <time>2026-09-03T15:05:40.000Z</time>
      </trkpt>
      <trkpt lat="48.20548" lon="6.66306">
        <ele>579</ele>
        <time>2026-09-03T15:05:41.000Z</time>
      </trkpt>
      <trkpt lat="48.20547" lon="6.66305">
        <ele>579.19995117188</ele>
        <time>2026-09-03T15:05:42.000Z</time>
      </trkpt>
      <trkpt lat="48.20547" lon="6.66304">
        <ele>579.19995117188</ele>
        <time>2026-09-03T15:05:43.000Z</time>
      </trkpt>
      <trkpt lat="48.20547" lon="6.66302">
        <ele>579.19995117188</ele>
        <time>2026-09-03T15:05:44.000Z</time>
      </trkpt>
      <trkpt lat="48.20547" lon="6.66301">
        <ele>579.19995117188</ele>
        <time>2026-09-03T15:05:45.000Z</time>
      </trkpt>
      <trkpt lat="48.20546" lon="6.663">
        <ele>579.40002441406</ele>
        <time>2026-09-03T15:05:46.000Z</time>
      </trkpt>
      <trkpt lat="48.20546" lon="6.663">
        <ele>579.40002441406</ele>
        <time>2026-09-03T15:05:47.000Z</time>
      </trkpt>
      <trkpt lat="48.20546" lon="6.66299">
        <ele>579.40002441406</ele>
        <time>2026-09-03T15:05:48.000Z</time>
      </trkpt>
      <trkpt lat="48.20545" lon="6.66298">
        <ele>579.59997558594</ele>
        <time>2026-09-03T15:05:49.000Z</time>
      </trkpt>
      <trkpt lat="48.20544" lon="6.66297">
        <ele>579.59997558594</ele>
        <time>2026-09-03T15:05:50.000Z</time>
      </trkpt>
      <trkpt lat="48.20544" lon="6.66296">
        <ele>579.59997558594</ele>
        <time>2026-09-03T15:05:51.000Z</time>
      </trkpt>
      <trkpt lat="48.20543" lon="6.66295">
        <ele>579.59997558594</ele>
        <time>2026-09-03T15:05:52.000Z</time>
      </trkpt>
      <trkpt lat="48.20542" lon="6.66294">
        <ele>579.59997558594</ele>
        <time>2026-09-03T15:05:53.000Z</time>
      </trkpt>
      <trkpt lat="48.20542" lon="6.66293">
        <ele>579.40002441406</ele>
        <time>2026-09-03T15:05:54.000Z</time>
      </trkpt>
      <trkpt lat="48.20541" lon="6.66292">
        <ele>579.40002441406</ele>
        <time>2026-09-03T15:05:55.000Z</time>
      </trkpt>
      <trkpt lat="48.20541" lon="6.66291">
        <ele>579.40002441406</ele>
        <time>2026-09-03T15:05:56.000Z</time>
      </trkpt>
      <trkpt lat="48.2054" lon="6.66288">
        <ele>579.40002441406</ele>
        <time>2026-09-03T15:05:57.000Z</time>
      </trkpt>
      <trkpt lat="48.20539" lon="6.66287">
        <ele>579.59997558594</ele>
        <time>2026-09-03T15:05:58.000Z</time>
      </trkpt>
      <trkpt lat="48.20539" lon="6.66286">
        <ele>579.80004882812</ele>
        <time>2026-09-03T15:05:59.000Z</time>
      </trkpt>
      <trkpt lat="48.20538" lon="6.66285">
        <ele>580</ele>
        <time>2026-09-03T15:06:00.000Z</time>
      </trkpt>
      <trkpt lat="48.20538" lon="6.66284">
        <ele>580</ele>
        <time>2026-09-03T15:06:01.000Z</time>
      </trkpt>
      <trkpt lat="48.20538" lon="6.66282">
        <ele>580.19995117188</ele>
        <time>2026-09-03T15:06:02.000Z</time>
      </trkpt>
      <trkpt lat="48.20538" lon="6.66281">
        <ele>580.19995117188</ele>
        <time>2026-09-03T15:06:03.000Z</time>
      </trkpt>
      <trkpt lat="48.20537" lon="6.6628">
        <ele>580.19995117188</ele>
        <time>2026-09-03T15:06:04.000Z</time>
      </trkpt>
      <trkpt lat="48.20536" lon="6.66279">
        <ele>580.19995117188</ele>
        <time>2026-09-03T15:06:05.000Z</time>
      </trkpt>
      <trkpt lat="48.20536" lon="6.66278">
        <ele>580.19995117188</ele>
        <time>2026-09-03T15:06:06.000Z</time>
      </trkpt>
      <trkpt lat="48.20536" lon="6.66276">
        <ele>580.19995117188</ele>
        <time>2026-09-03T15:06:07.000Z</time>
      </trkpt>
      <trkpt lat="48.20535" lon="6.66275">
        <ele>580.40002441406</ele>
        <time>2026-09-03T15:06:08.000Z</time>
      </trkpt>
      <trkpt lat="48.20534" lon="6.66273">
        <ele>580.40002441406</ele>
        <time>2026-09-03T15:06:09.000Z</time>
      </trkpt>
      <trkpt lat="48.20533" lon="6.66272">
        <ele>580.40002441406</ele>
        <time>2026-09-03T15:06:10.000Z</time>
      </trkpt>
      <trkpt lat="48.20533" lon="6.66271">
        <ele>580.40002441406</ele>
        <time>2026-09-03T15:06:11.000Z</time>
      </trkpt>
      <trkpt lat="48.20532" lon="6.6627">
        <ele>580.59997558594</ele>
        <time>2026-09-03T15:06:12.000Z</time>
      </trkpt>
      <trkpt lat="48.20531" lon="6.66269">
        <ele>580.59997558594</ele>
        <time>2026-09-03T15:06:13.000Z</time>
      </trkpt>
      <trkpt lat="48.20531" lon="6.66268">
        <ele>580.80004882812</ele>
        <time>2026-09-03T15:06:14.000Z</time>
      </trkpt>
      <trkpt lat="48.2053" lon="6.66268">
        <ele>580.80004882812</ele>
        <time>2026-09-03T15:06:15.000Z</time>
      </trkpt>
      <trkpt lat="48.2053" lon="6.66269">
        <ele>580.80004882812</ele>
        <time>2026-09-03T15:06:16.000Z</time>
      </trkpt>
      <trkpt lat="48.2053" lon="6.66269">
        <ele>580.80004882812</ele>
        <time>2026-09-03T15:06:17.000Z</time>
      </trkpt>
      <trkpt lat="48.2053" lon="6.6627">
        <ele>580.80004882812</ele>
        <time>2026-09-03T15:06:18.000Z</time>
      </trkpt>
      <trkpt lat="48.2053" lon="6.6627">
        <ele>580.80004882812</ele>
        <time>2026-09-03T15:06:19.000Z</time>
      </trkpt>
      <trkpt lat="48.2053" lon="6.6627">
        <ele>580.80004882812</ele>
        <time>2026-09-03T15:06:20.000Z</time>
      </trkpt>
      <trkpt lat="48.20529" lon="6.6627">
        <ele>580.80004882812</ele>
        <time>2026-09-03T15:06:21.000Z</time>
      </trkpt>
      <trkpt lat="48.2053" lon="6.6627">
        <ele>580.80004882812</ele>
        <time>2026-09-03T15:06:22.000Z</time>
      </trkpt>
      <trkpt lat="48.2053" lon="6.6627">
        <ele>580.80004882812</ele>
        <time>2026-09-03T15:06:23.000Z</time>
      </trkpt>
      <trkpt lat="48.20531" lon="6.6627">
        <ele>580.59997558594</ele>
        <time>2026-09-03T15:06:24.000Z</time>
      </trkpt>
      <trkpt lat="48.20531" lon="6.6627">
        <ele>580.80004882812</ele>
        <time>2026-09-03T15:06:25.000Z</time>
      </trkpt>
      <trkpt lat="48.20531" lon="6.6627">
        <ele>580.80004882812</ele>
        <time>2026-09-03T15:06:26.000Z</time>
      </trkpt>
      <trkpt lat="48.20531" lon="6.6627">
        <ele>580.80004882812</ele>
        <time>2026-09-03T15:06:27.000Z</time>
      </trkpt>
      <trkpt lat="48.20531" lon="6.6627">
        <ele>580.80004882812</ele>
        <time>2026-09-03T15:06:28.000Z</time>
      </trkpt>
      <trkpt lat="48.20531" lon="6.6627">
        <ele>580.80004882812</ele>
        <time>2026-09-03T15:06:29.000Z</time>
      </trkpt>
      <trkpt lat="48.20531" lon="6.6627">
        <ele>580.80004882812</ele>
        <time>2026-09-03T15:06:30.000Z</time>
      </trkpt>
      <trkpt lat="48.20531" lon="6.6627">
        <ele>580.80004882812</ele>
        <time>2026-09-03T15:06:31.000Z</time>
      </trkpt>
      <trkpt lat="48.20531" lon="6.6627">
        <ele>580.80004882812</ele>
        <time>2026-09-03T15:06:32.000Z</time>
      </trkpt>
      <trkpt lat="48.20531" lon="6.6627">
        <ele>580.80004882812</ele>
        <time>2026-09-03T15:06:33.000Z</time>
      </trkpt>
      <trkpt lat="48.20531" lon="6.6627">
        <ele>580.80004882812</ele>
        <time>2026-09-03T15:06:34.000Z</time>
      </trkpt>
      <trkpt lat="48.20531" lon="6.6627">
        <ele>580.80004882812</ele>
        <time>2026-09-03T15:06:35.000Z</time>
      </trkpt>
      <trkpt lat="48.20531" lon="6.66271">
        <ele>580.80004882812</ele>
        <time>2026-09-03T15:06:36.000Z</time>
      </trkpt>
      <trkpt lat="48.20531" lon="6.66272">
        <ele>580.80004882812</ele>
        <time>2026-09-03T15:06:37.000Z</time>
      </trkpt>
      <trkpt lat="48.20531" lon="6.66272">
        <ele>580.80004882812</ele>
        <time>2026-09-03T15:06:38.000Z</time>
      </trkpt>
      <trkpt lat="48.20531" lon="6.66272">
        <ele>580.80004882812</ele>
        <time>2026-09-03T15:06:39.000Z</time>
      </trkpt>
      <trkpt lat="48.20531" lon="6.66273">
        <ele>580.80004882812</ele>
        <time>2026-09-03T15:06:40.000Z</time>
      </trkpt>
      <trkpt lat="48.20531" lon="6.66273">
        <ele>581</ele>
        <time>2026-09-03T15:06:41.000Z</time>
      </trkpt>
      <trkpt lat="48.20531" lon="6.66274">
        <ele>581</ele>
        <time>2026-09-03T15:06:42.000Z</time>
      </trkpt>
      <trkpt lat="48.20532" lon="6.66274">
        <ele>581</ele>
        <time>2026-09-03T15:06:43.000Z</time>
      </trkpt>
      <trkpt lat="48.20532" lon="6.66275">
        <ele>581</ele>
        <time>2026-09-03T15:06:44.000Z</time>
      </trkpt>
      <trkpt lat="48.20532" lon="6.66276">
        <ele>581</ele>
        <time>2026-09-03T15:06:45.000Z</time>
      </trkpt>
      <trkpt lat="48.20532" lon="6.66277">
        <ele>580.80004882812</ele>
        <time>2026-09-03T15:06:46.000Z</time>
      </trkpt>
      <trkpt lat="48.20532" lon="6.66278">
        <ele>580.80004882812</ele>
        <time>2026-09-03T15:06:47.000Z</time>
      </trkpt>
      <trkpt lat="48.20532" lon="6.66279">
        <ele>580.80004882812</ele>
        <time>2026-09-03T15:06:48.000Z</time>
      </trkpt>
      <trkpt lat="48.20531" lon="6.66281">
        <ele>580.80004882812</ele>
        <time>2026-09-03T15:06:49.000Z</time>
      </trkpt>
      <trkpt lat="48.20532" lon="6.66282">
        <ele>580.80004882812</ele>
        <time>2026-09-03T15:06:50.000Z</time>
      </trkpt>
      <trkpt lat="48.20532" lon="6.66283">
        <ele>581</ele>
        <time>2026-09-03T15:06:51.000Z</time>
      </trkpt>
      <trkpt lat="48.20532" lon="6.66282">
        <ele>581</ele>
        <time>2026-09-03T15:06:52.000Z</time>
      </trkpt>
      <trkpt lat="48.20532" lon="6.66281">
        <ele>581</ele>
        <time>2026-09-03T15:06:53.000Z</time>
      </trkpt>
      <trkpt lat="48.20532" lon="6.6628">
        <ele>581</ele>
        <time>2026-09-03T15:06:54.000Z</time>
      </trkpt>
      <trkpt lat="48.20532" lon="6.66279">
        <ele>581</ele>
        <time>2026-09-03T15:06:55.000Z</time>
      </trkpt>
      <trkpt lat="48.20532" lon="6.66279">
        <ele>580.80004882812</ele>
        <time>2026-09-03T15:06:56.000Z</time>
      </trkpt>
      <trkpt lat="48.20532" lon="6.66279">
        <ele>580.80004882812</ele>
        <time>2026-09-03T15:06:57.000Z</time>
      </trkpt>
      <trkpt lat="48.20532" lon="6.66279">
        <ele>580.80004882812</ele>
        <time>2026-09-03T15:06:58.000Z</time>
      </trkpt>
      <trkpt lat="48.20532" lon="6.66279">
        <ele>580.80004882812</ele>
        <time>2026-09-03T15:06:59.000Z</time>
      </trkpt>
      <trkpt lat="48.20532" lon="6.66279">
        <ele>580.80004882812</ele>
        <time>2026-09-03T15:07:00.000Z</time>
      </trkpt>
      <trkpt lat="48.20532" lon="6.66279">
        <ele>581</ele>
        <time>2026-09-03T15:07:01.000Z</time>
      </trkpt>
      <trkpt lat="48.20532" lon="6.66279">
        <ele>581</ele>
        <time>2026-09-03T15:07:02.000Z</time>
      </trkpt>
      <trkpt lat="48.20532" lon="6.66279">
        <ele>581</ele>
        <time>2026-09-03T15:07:03.000Z</time>
      </trkpt>
      <trkpt lat="48.20532" lon="6.66279">
        <ele>581</ele>
        <time>2026-09-03T15:07:04.000Z</time>
      </trkpt>
      <trkpt lat="48.20532" lon="6.66279">
        <ele>581</ele>
        <time>2026-09-03T15:07:05.000Z</time>
      </trkpt>
      <trkpt lat="48.20532" lon="6.66279">
        <ele>581</ele>
        <time>2026-09-03T15:07:06.000Z</time>
      </trkpt>
      <trkpt lat="48.20532" lon="6.66279">
        <ele>580.80004882812</ele>
        <time>2026-09-03T15:07:07.000Z</time>
      </trkpt>
      <trkpt lat="48.20532" lon="6.66279">
        <ele>580.80004882812</ele>
        <time>2026-09-03T15:07:08.000Z</time>
      </trkpt>
      <trkpt lat="48.20532" lon="6.66279">
        <ele>581</ele>
        <time>2026-09-03T15:07:09.000Z</time>
      </trkpt>
      <trkpt lat="48.20532" lon="6.66279">
        <ele>581</ele>
        <time>2026-09-03T15:07:10.000Z</time>
      </trkpt>
      <trkpt lat="48.20532" lon="6.66279">
        <ele>581</ele>
        <time>2026-09-03T15:07:11.000Z</time>
      </trkpt>
      <trkpt lat="48.20532" lon="6.66279">
        <ele>581</ele>
        <time>2026-09-03T15:07:12.000Z</time>
      </trkpt>
      <trkpt lat="48.20532" lon="6.66279">
        <ele>581</ele>
        <time>2026-09-03T15:07:13.000Z</time>
      </trkpt>
      <trkpt lat="48.20532" lon="6.66279">
        <ele>580.80004882812</ele>
        <time>2026-09-03T15:07:14.000Z</time>
      </trkpt>
      <trkpt lat="48.20532" lon="6.66279">
        <ele>580.80004882812</ele>
        <time>2026-09-03T15:07:15.000Z</time>
      </trkpt>
      <trkpt lat="48.20532" lon="6.66279">
        <ele>580.80004882812</ele>
        <time>2026-09-03T15:07:16.000Z</time>
      </trkpt>
      <trkpt lat="48.20532" lon="6.66279">
        <ele>580.80004882812</ele>
        <time>2026-09-03T15:07:17.000Z</time>
      </trkpt>
      <trkpt lat="48.20532" lon="6.66279">
        <ele>580.80004882812</ele>
        <time>2026-09-03T15:07:18.000Z</time>
      </trkpt>
      <trkpt lat="48.20532" lon="6.66279">
        <ele>580.80004882812</ele>
        <time>2026-09-03T15:07:19.000Z</time>
      </trkpt>
      <trkpt lat="48.20532" lon="6.66279">
        <ele>580.80004882812</ele>
        <time>2026-09-03T15:07:20.000Z</time>
      </trkpt>
      <trkpt lat="48.20531" lon="6.6628">
        <ele>580.80004882812</ele>
        <time>2026-09-03T15:07:21.000Z</time>
      </trkpt>
      <trkpt lat="48.20531" lon="6.6628">
        <ele>581</ele>
        <time>2026-09-03T15:07:22.000Z</time>
      </trkpt>
      <trkpt lat="48.20531" lon="6.6628">
        <ele>581</ele>
        <time>2026-09-03T15:07:23.000Z</time>
      </trkpt>
      <trkpt lat="48.20531" lon="6.6628">
        <ele>581</ele>
        <time>2026-09-03T15:07:24.000Z</time>
      </trkpt>
      <trkpt lat="48.20531" lon="6.66281">
        <ele>581</ele>
        <time>2026-09-03T15:07:25.000Z</time>
      </trkpt>
      <trkpt lat="48.20532" lon="6.66284">
        <ele>581</ele>
        <time>2026-09-03T15:07:26.000Z</time>
      </trkpt>
      <trkpt lat="48.20531" lon="6.66284">
        <ele>581</ele>
        <time>2026-09-03T15:07:27.000Z</time>
      </trkpt>
      <trkpt lat="48.20531" lon="6.66285">
        <ele>581</ele>
        <time>2026-09-03T15:07:28.000Z</time>
      </trkpt>
      <trkpt lat="48.20531" lon="6.66286">
        <ele>581</ele>
        <time>2026-09-03T15:07:29.000Z</time>
      </trkpt>
      <trkpt lat="48.20531" lon="6.66286">
        <ele>581</ele>
        <time>2026-09-03T15:07:30.000Z</time>
      </trkpt>
      <trkpt lat="48.20531" lon="6.66286">
        <ele>581</ele>
        <time>2026-09-03T15:07:31.000Z</time>
      </trkpt>
      <trkpt lat="48.20531" lon="6.66287">
        <ele>581</ele>
        <time>2026-09-03T15:07:32.000Z</time>
      </trkpt>
      <trkpt lat="48.20531" lon="6.66287">
        <ele>581</ele>
        <time>2026-09-03T15:07:33.000Z</time>
      </trkpt>
      <trkpt lat="48.20531" lon="6.66287">
        <ele>581</ele>
        <time>2026-09-03T15:07:34.000Z</time>
      </trkpt>
      <trkpt lat="48.20531" lon="6.66287">
        <ele>581</ele>
        <time>2026-09-03T15:07:35.000Z</time>
      </trkpt>
      <trkpt lat="48.20531" lon="6.66287">
        <ele>581</ele>
        <time>2026-09-03T15:07:36.000Z</time>
      </trkpt>
      <trkpt lat="48.20531" lon="6.66287">
        <ele>581</ele>
        <time>2026-09-03T15:07:37.000Z</time>
      </trkpt>
      <trkpt lat="48.20531" lon="6.66287">
        <ele>581</ele>
        <time>2026-09-03T15:07:38.000Z</time>
      </trkpt>
      <trkpt lat="48.20531" lon="6.66287">
        <ele>581</ele>
        <time>2026-09-03T15:07:39.000Z</time>
      </trkpt>
      <trkpt lat="48.20531" lon="6.66287">
        <ele>581</ele>
        <time>2026-09-03T15:07:40.000Z</time>
      </trkpt>
      <trkpt lat="48.20531" lon="6.66287">
        <ele>581</ele>
        <time>2026-09-03T15:07:41.000Z</time>
      </trkpt>
      <trkpt lat="48.20531" lon="6.66287">
        <ele>581</ele>
        <time>2026-09-03T15:07:42.000Z</time>
      </trkpt>
      <trkpt lat="48.20531" lon="6.66288">
        <ele>581</ele>
        <time>2026-09-03T15:07:43.000Z</time>
      </trkpt>
      <trkpt lat="48.20531" lon="6.66289">
        <ele>581</ele>
        <time>2026-09-03T15:07:44.000Z</time>
      </trkpt>
      <trkpt lat="48.2053" lon="6.66291">
        <ele>581</ele>
        <time>2026-09-03T15:07:45.000Z</time>
      </trkpt>
      <trkpt lat="48.2053" lon="6.66292">
        <ele>581</ele>
        <time>2026-09-03T15:07:46.000Z</time>
      </trkpt>
      <trkpt lat="48.2053" lon="6.66293">
        <ele>581</ele>
        <time>2026-09-03T15:07:47.000Z</time>
      </trkpt>
      <trkpt lat="48.2053" lon="6.66295">
        <ele>581</ele>
        <time>2026-09-03T15:07:48.000Z</time>
      </trkpt>
      <trkpt lat="48.2053" lon="6.66296">
        <ele>581</ele>
        <time>2026-09-03T15:07:49.000Z</time>
      </trkpt>
      <trkpt lat="48.2053" lon="6.66298">
        <ele>580.80004882812</ele>
        <time>2026-09-03T15:07:50.000Z</time>
      </trkpt>
      <trkpt lat="48.20531" lon="6.66299">
        <ele>580.80004882812</ele>
        <time>2026-09-03T15:07:51.000Z</time>
      </trkpt>
      <trkpt lat="48.2053" lon="6.663">
        <ele>580.80004882812</ele>
        <time>2026-09-03T15:07:52.000Z</time>
      </trkpt>
      <trkpt lat="48.2053" lon="6.66301">
        <ele>580.80004882812</ele>
        <time>2026-09-03T15:07:53.000Z</time>
      </trkpt>
      <trkpt lat="48.2053" lon="6.66303">
        <ele>580.59997558594</ele>
        <time>2026-09-03T15:07:54.000Z</time>
      </trkpt>
      <trkpt lat="48.2053" lon="6.66305">
        <ele>580.59997558594</ele>
        <time>2026-09-03T15:07:55.000Z</time>
      </trkpt>
      <trkpt lat="48.2053" lon="6.66306">
        <ele>580.59997558594</ele>
        <time>2026-09-03T15:07:56.000Z</time>
      </trkpt>
      <trkpt lat="48.2053" lon="6.66307">
        <ele>580.80004882812</ele>
        <time>2026-09-03T15:07:57.000Z</time>
      </trkpt>
      <trkpt lat="48.2053" lon="6.66308">
        <ele>580.80004882812</ele>
        <time>2026-09-03T15:07:58.000Z</time>
      </trkpt>
      <trkpt lat="48.2053" lon="6.66309">
        <ele>580.80004882812</ele>
        <time>2026-09-03T15:07:59.000Z</time>
      </trkpt>
      <trkpt lat="48.2053" lon="6.66311">
        <ele>580.59997558594</ele>
        <time>2026-09-03T15:08:00.000Z</time>
      </trkpt>
      <trkpt lat="48.2053" lon="6.66313">
        <ele>580.59997558594</ele>
        <time>2026-09-03T15:08:01.000Z</time>
      </trkpt>
      <trkpt lat="48.2053" lon="6.66315">
        <ele>580.59997558594</ele>
        <time>2026-09-03T15:08:02.000Z</time>
      </trkpt>
      <trkpt lat="48.2053" lon="6.66315">
        <ele>580.59997558594</ele>
        <time>2026-09-03T15:08:03.000Z</time>
      </trkpt>
      <trkpt lat="48.2053" lon="6.66316">
        <ele>580.59997558594</ele>
        <time>2026-09-03T15:08:04.000Z</time>
      </trkpt>
      <trkpt lat="48.2053" lon="6.66317">
        <ele>580.59997558594</ele>
        <time>2026-09-03T15:08:05.000Z</time>
      </trkpt>
      <trkpt lat="48.2053" lon="6.66319">
        <ele>580.59997558594</ele>
        <time>2026-09-03T15:08:06.000Z</time>
      </trkpt>
      <trkpt lat="48.2053" lon="6.66321">
        <ele>580.59997558594</ele>
        <time>2026-09-03T15:08:07.000Z</time>
      </trkpt>
      <trkpt lat="48.20529" lon="6.66322">
        <ele>580.59997558594</ele>
        <time>2026-09-03T15:08:08.000Z</time>
      </trkpt>
      <trkpt lat="48.20529" lon="6.66324">
        <ele>580.59997558594</ele>
        <time>2026-09-03T15:08:09.000Z</time>
      </trkpt>
      <trkpt lat="48.20529" lon="6.66326">
        <ele>580.40002441406</ele>
        <time>2026-09-03T15:08:10.000Z</time>
      </trkpt>
      <trkpt lat="48.20529" lon="6.66327">
        <ele>580.40002441406</ele>
        <time>2026-09-03T15:08:11.000Z</time>
      </trkpt>
      <trkpt lat="48.20529" lon="6.66329">
        <ele>580.40002441406</ele>
        <time>2026-09-03T15:08:12.000Z</time>
      </trkpt>
      <trkpt lat="48.20529" lon="6.66331">
        <ele>580.40002441406</ele>
        <time>2026-09-03T15:08:13.000Z</time>
      </trkpt>
      <trkpt lat="48.20529" lon="6.66333">
        <ele>580.40002441406</ele>
        <time>2026-09-03T15:08:14.000Z</time>
      </trkpt>
      <trkpt lat="48.20529" lon="6.66334">
        <ele>580.40002441406</ele>
        <time>2026-09-03T15:08:15.000Z</time>
      </trkpt>
      <trkpt lat="48.20529" lon="6.66336">
        <ele>580.40002441406</ele>
        <time>2026-09-03T15:08:16.000Z</time>
      </trkpt>
      <trkpt lat="48.20528" lon="6.66337">
        <ele>580.40002441406</ele>
        <time>2026-09-03T15:08:17.000Z</time>
      </trkpt>
      <trkpt lat="48.20529" lon="6.6634">
        <ele>580.40002441406</ele>
        <time>2026-09-03T15:08:18.000Z</time>
      </trkpt>
      <trkpt lat="48.20528" lon="6.66342">
        <ele>580.19995117188</ele>
        <time>2026-09-03T15:08:19.000Z</time>
      </trkpt>
      <trkpt lat="48.20528" lon="6.66344">
        <ele>580.19995117188</ele>
        <time>2026-09-03T15:08:20.000Z</time>
      </trkpt>
      <trkpt lat="48.20528" lon="6.66346">
        <ele>580.19995117188</ele>
        <time>2026-09-03T15:08:21.000Z</time>
      </trkpt>
      <trkpt lat="48.20528" lon="6.66347">
        <ele>580.19995117188</ele>
        <time>2026-09-03T15:08:22.000Z</time>
      </trkpt>
      <trkpt lat="48.20528" lon="6.66348">
        <ele>580.40002441406</ele>
        <time>2026-09-03T15:08:23.000Z</time>
      </trkpt>
      <trkpt lat="48.20528" lon="6.6635">
        <ele>580.40002441406</ele>
        <time>2026-09-03T15:08:24.000Z</time>
      </trkpt>
      <trkpt lat="48.20528" lon="6.66351">
        <ele>580.19995117188</ele>
        <time>2026-09-03T15:08:25.000Z</time>
      </trkpt>
      <trkpt lat="48.20528" lon="6.66353">
        <ele>580.19995117188</ele>
        <time>2026-09-03T15:08:26.000Z</time>
      </trkpt>
      <trkpt lat="48.20528" lon="6.66354">
        <ele>580.19995117188</ele>
        <time>2026-09-03T15:08:27.000Z</time>
      </trkpt>
      <trkpt lat="48.20527" lon="6.66356">
        <ele>580</ele>
        <time>2026-09-03T15:08:28.000Z</time>
      </trkpt>
      <trkpt lat="48.20527" lon="6.66357">
        <ele>580</ele>
        <time>2026-09-03T15:08:29.000Z</time>
      </trkpt>
      <trkpt lat="48.20527" lon="6.66358">
        <ele>580</ele>
        <time>2026-09-03T15:08:30.000Z</time>
      </trkpt>
      <trkpt lat="48.20527" lon="6.6636">
        <ele>580</ele>
        <time>2026-09-03T15:08:31.000Z</time>
      </trkpt>
      <trkpt lat="48.20528" lon="6.66362">
        <ele>580</ele>
        <time>2026-09-03T15:08:32.000Z</time>
      </trkpt>
      <trkpt lat="48.20528" lon="6.66363">
        <ele>580</ele>
        <time>2026-09-03T15:08:33.000Z</time>
      </trkpt>
      <trkpt lat="48.20528" lon="6.66364">
        <ele>580</ele>
        <time>2026-09-03T15:08:34.000Z</time>
      </trkpt>
      <trkpt lat="48.20528" lon="6.66366">
        <ele>580</ele>
        <time>2026-09-03T15:08:35.000Z</time>
      </trkpt>
      <trkpt lat="48.20528" lon="6.66366">
        <ele>580</ele>
        <time>2026-09-03T15:08:36.000Z</time>
      </trkpt>
      <trkpt lat="48.20527" lon="6.66368">
        <ele>580</ele>
        <time>2026-09-03T15:08:37.000Z</time>
      </trkpt>
      <trkpt lat="48.20527" lon="6.66369">
        <ele>580</ele>
        <time>2026-09-03T15:08:38.000Z</time>
      </trkpt>
      <trkpt lat="48.20527" lon="6.66371">
        <ele>580</ele>
        <time>2026-09-03T15:08:39.000Z</time>
      </trkpt>
      <trkpt lat="48.20527" lon="6.66372">
        <ele>580</ele>
        <time>2026-09-03T15:08:40.000Z</time>
      </trkpt>
      <trkpt lat="48.20526" lon="6.66373">
        <ele>579.80004882812</ele>
        <time>2026-09-03T15:08:41.000Z</time>
      </trkpt>
      <trkpt lat="48.20526" lon="6.66375">
        <ele>579.80004882812</ele>
        <time>2026-09-03T15:08:42.000Z</time>
      </trkpt>
      <trkpt lat="48.20527" lon="6.66377">
        <ele>579.80004882812</ele>
        <time>2026-09-03T15:08:43.000Z</time>
      </trkpt>
      <trkpt lat="48.20527" lon="6.66379">
        <ele>579.80004882812</ele>
        <time>2026-09-03T15:08:44.000Z</time>
      </trkpt>
      <trkpt lat="48.20527" lon="6.66382">
        <ele>579.80004882812</ele>
        <time>2026-09-03T15:08:45.000Z</time>
      </trkpt>
      <trkpt lat="48.20527" lon="6.66384">
        <ele>579.80004882812</ele>
        <time>2026-09-03T15:08:46.000Z</time>
      </trkpt>
      <trkpt lat="48.20527" lon="6.66385">
        <ele>579.80004882812</ele>
        <time>2026-09-03T15:08:47.000Z</time>
      </trkpt>
      <trkpt lat="48.20527" lon="6.66386">
        <ele>579.80004882812</ele>
        <time>2026-09-03T15:08:48.000Z</time>
      </trkpt>
      <trkpt lat="48.20528" lon="6.66388">
        <ele>579.80004882812</ele>
        <time>2026-09-03T15:08:49.000Z</time>
      </trkpt>
      <trkpt lat="48.20528" lon="6.6639">
        <ele>579.80004882812</ele>
        <time>2026-09-03T15:08:50.000Z</time>
      </trkpt>
      <trkpt lat="48.20528" lon="6.66392">
        <ele>579.80004882812</ele>
        <time>2026-09-03T15:08:51.000Z</time>
      </trkpt>
      <trkpt lat="48.20528" lon="6.66394">
        <ele>579.59997558594</ele>
        <time>2026-09-03T15:08:52.000Z</time>
      </trkpt>
      <trkpt lat="48.20528" lon="6.66396">
        <ele>579.59997558594</ele>
        <time>2026-09-03T15:08:53.000Z</time>
      </trkpt>
      <trkpt lat="48.20527" lon="6.66397">
        <ele>579.59997558594</ele>
        <time>2026-09-03T15:08:54.000Z</time>
      </trkpt>
      <trkpt lat="48.20527" lon="6.66398">
        <ele>579.59997558594</ele>
        <time>2026-09-03T15:08:55.000Z</time>
      </trkpt>
      <trkpt lat="48.20527" lon="6.664">
        <ele>579.59997558594</ele>
        <time>2026-09-03T15:08:56.000Z</time>
      </trkpt>
      <trkpt lat="48.20527" lon="6.66402">
        <ele>579.59997558594</ele>
        <time>2026-09-03T15:08:57.000Z</time>
      </trkpt>
      <trkpt lat="48.20526" lon="6.66404">
        <ele>579.59997558594</ele>
        <time>2026-09-03T15:08:58.000Z</time>
      </trkpt>
      <trkpt lat="48.20526" lon="6.66405">
        <ele>579.59997558594</ele>
        <time>2026-09-03T15:08:59.000Z</time>
      </trkpt>
      <trkpt lat="48.20526" lon="6.66407">
        <ele>579.59997558594</ele>
        <time>2026-09-03T15:09:00.000Z</time>
      </trkpt>
      <trkpt lat="48.20526" lon="6.66408">
        <ele>579.40002441406</ele>
        <time>2026-09-03T15:09:01.000Z</time>
      </trkpt>
      <trkpt lat="48.20525" lon="6.66409">
        <ele>579.40002441406</ele>
        <time>2026-09-03T15:09:02.000Z</time>
      </trkpt>
      <trkpt lat="48.20525" lon="6.6641">
        <ele>579.40002441406</ele>
        <time>2026-09-03T15:09:03.000Z</time>
      </trkpt>
      <trkpt lat="48.20525" lon="6.66412">
        <ele>579.40002441406</ele>
        <time>2026-09-03T15:09:04.000Z</time>
      </trkpt>
      <trkpt lat="48.20525" lon="6.66414">
        <ele>579.40002441406</ele>
        <time>2026-09-03T15:09:05.000Z</time>
      </trkpt>
      <trkpt lat="48.20525" lon="6.66416">
        <ele>579.40002441406</ele>
        <time>2026-09-03T15:09:06.000Z</time>
      </trkpt>
      <trkpt lat="48.20525" lon="6.66417">
        <ele>579.40002441406</ele>
        <time>2026-09-03T15:09:07.000Z</time>
      </trkpt>
      <trkpt lat="48.20525" lon="6.66418">
        <ele>579.40002441406</ele>
        <time>2026-09-03T15:09:08.000Z</time>
      </trkpt>
      <trkpt lat="48.20525" lon="6.6642">
        <ele>579.40002441406</ele>
        <time>2026-09-03T15:09:09.000Z</time>
      </trkpt>
      <trkpt lat="48.20525" lon="6.66421">
        <ele>579.40002441406</ele>
        <time>2026-09-03T15:09:10.000Z</time>
      </trkpt>
      <trkpt lat="48.20525" lon="6.66423">
        <ele>579.40002441406</ele>
        <time>2026-09-03T15:09:11.000Z</time>
      </trkpt>
      <trkpt lat="48.20525" lon="6.66425">
        <ele>579.40002441406</ele>
        <time>2026-09-03T15:09:12.000Z</time>
      </trkpt>
      <trkpt lat="48.20526" lon="6.66427">
        <ele>579.40002441406</ele>
        <time>2026-09-03T15:09:13.000Z</time>
      </trkpt>
      <trkpt lat="48.20526" lon="6.66429">
        <ele>579.40002441406</ele>
        <time>2026-09-03T15:09:14.000Z</time>
      </trkpt>
      <trkpt lat="48.20527" lon="6.66431">
        <ele>579.40002441406</ele>
        <time>2026-09-03T15:09:15.000Z</time>
      </trkpt>
      <trkpt lat="48.20527" lon="6.66432">
        <ele>579.40002441406</ele>
        <time>2026-09-03T15:09:16.000Z</time>
      </trkpt>
      <trkpt lat="48.20527" lon="6.66433">
        <ele>579.40002441406</ele>
        <time>2026-09-03T15:09:17.000Z</time>
      </trkpt>
      <trkpt lat="48.20527" lon="6.66435">
        <ele>579.40002441406</ele>
        <time>2026-09-03T15:09:18.000Z</time>
      </trkpt>
      <trkpt lat="48.20527" lon="6.66436">
        <ele>579.40002441406</ele>
        <time>2026-09-03T15:09:19.000Z</time>
      </trkpt>
      <trkpt lat="48.20527" lon="6.66438">
        <ele>579.40002441406</ele>
        <time>2026-09-03T15:09:20.000Z</time>
      </trkpt>
      <trkpt lat="48.20527" lon="6.6644">
        <ele>579.19995117188</ele>
        <time>2026-09-03T15:09:21.000Z</time>
      </trkpt>
      <trkpt lat="48.20527" lon="6.66442">
        <ele>579.19995117188</ele>
        <time>2026-09-03T15:09:22.000Z</time>
      </trkpt>
      <trkpt lat="48.20527" lon="6.66444">
        <ele>579.19995117188</ele>
        <time>2026-09-03T15:09:23.000Z</time>
      </trkpt>
      <trkpt lat="48.20527" lon="6.66446">
        <ele>579.19995117188</ele>
        <time>2026-09-03T15:09:24.000Z</time>
      </trkpt>
      <trkpt lat="48.20527" lon="6.66448">
        <ele>579.19995117188</ele>
        <time>2026-09-03T15:09:25.000Z</time>
      </trkpt>
      <trkpt lat="48.20526" lon="6.6645">
        <ele>579.19995117188</ele>
        <time>2026-09-03T15:09:26.000Z</time>
      </trkpt>
      <trkpt lat="48.20527" lon="6.66453">
        <ele>579.19995117188</ele>
        <time>2026-09-03T15:09:27.000Z</time>
      </trkpt>
      <trkpt lat="48.20527" lon="6.66455">
        <ele>579.19995117188</ele>
        <time>2026-09-03T15:09:28.000Z</time>
      </trkpt>
      <trkpt lat="48.20527" lon="6.66456">
        <ele>579.19995117188</ele>
        <time>2026-09-03T15:09:29.000Z</time>
      </trkpt>
      <trkpt lat="48.20526" lon="6.66457">
        <ele>579.19995117188</ele>
        <time>2026-09-03T15:09:30.000Z</time>
      </trkpt>
      <trkpt lat="48.20526" lon="6.66458">
        <ele>579.19995117188</ele>
        <time>2026-09-03T15:09:31.000Z</time>
      </trkpt>
      <trkpt lat="48.20526" lon="6.6646">
        <ele>579.19995117188</ele>
        <time>2026-09-03T15:09:32.000Z</time>
      </trkpt>
      <trkpt lat="48.20525" lon="6.66462">
        <ele>579.19995117188</ele>
        <time>2026-09-03T15:09:33.000Z</time>
      </trkpt>
      <trkpt lat="48.20525" lon="6.66464">
        <ele>579.19995117188</ele>
        <time>2026-09-03T15:09:34.000Z</time>
      </trkpt>
      <trkpt lat="48.20525" lon="6.66465">
        <ele>579.19995117188</ele>
        <time>2026-09-03T15:09:35.000Z</time>
      </trkpt>
      <trkpt lat="48.20525" lon="6.66467">
        <ele>579.19995117188</ele>
        <time>2026-09-03T15:09:36.000Z</time>
      </trkpt>
      <trkpt lat="48.20525" lon="6.66468">
        <ele>579.19995117188</ele>
        <time>2026-09-03T15:09:37.000Z</time>
      </trkpt>
      <trkpt lat="48.20525" lon="6.6647">
        <ele>579.40002441406</ele>
        <time>2026-09-03T15:09:38.000Z</time>
      </trkpt>
      <trkpt lat="48.20525" lon="6.66472">
        <ele>579.40002441406</ele>
        <time>2026-09-03T15:09:39.000Z</time>
      </trkpt>
      <trkpt lat="48.20525" lon="6.66475">
        <ele>579.40002441406</ele>
        <time>2026-09-03T15:09:40.000Z</time>
      </trkpt>
      <trkpt lat="48.20525" lon="6.66477">
        <ele>579.40002441406</ele>
        <time>2026-09-03T15:09:41.000Z</time>
      </trkpt>
      <trkpt lat="48.20525" lon="6.66478">
        <ele>579.40002441406</ele>
        <time>2026-09-03T15:09:42.000Z</time>
      </trkpt>
      <trkpt lat="48.20525" lon="6.6648">
        <ele>579.40002441406</ele>
        <time>2026-09-03T15:09:43.000Z</time>
      </trkpt>
      <trkpt lat="48.20525" lon="6.66481">
        <ele>579.40002441406</ele>
        <time>2026-09-03T15:09:44.000Z</time>
      </trkpt>
      <trkpt lat="48.20525" lon="6.66482">
        <ele>579.19995117188</ele>
        <time>2026-09-03T15:09:45.000Z</time>
      </trkpt>
      <trkpt lat="48.20525" lon="6.66484">
        <ele>579.19995117188</ele>
        <time>2026-09-03T15:09:46.000Z</time>
      </trkpt>
      <trkpt lat="48.20525" lon="6.66486">
        <ele>579.19995117188</ele>
        <time>2026-09-03T15:09:47.000Z</time>
      </trkpt>
      <trkpt lat="48.20525" lon="6.66487">
        <ele>579.19995117188</ele>
        <time>2026-09-03T15:09:48.000Z</time>
      </trkpt>
      <trkpt lat="48.20525" lon="6.66489">
        <ele>579.19995117188</ele>
        <time>2026-09-03T15:09:49.000Z</time>
      </trkpt>
      <trkpt lat="48.20525" lon="6.6649">
        <ele>579.19995117188</ele>
        <time>2026-09-03T15:09:50.000Z</time>
      </trkpt>
      <trkpt lat="48.20525" lon="6.66491">
        <ele>579.19995117188</ele>
        <time>2026-09-03T15:09:51.000Z</time>
      </trkpt>
      <trkpt lat="48.20525" lon="6.66493">
        <ele>579.19995117188</ele>
        <time>2026-09-03T15:09:52.000Z</time>
      </trkpt>
      <trkpt lat="48.20525" lon="6.66495">
        <ele>579.19995117188</ele>
        <time>2026-09-03T15:09:53.000Z</time>
      </trkpt>
      <trkpt lat="48.20525" lon="6.66498">
        <ele>579.19995117188</ele>
        <time>2026-09-03T15:09:54.000Z</time>
      </trkpt>
      <trkpt lat="48.20525" lon="6.665">
        <ele>579</ele>
        <time>2026-09-03T15:09:55.000Z</time>
      </trkpt>
      <trkpt lat="48.20525" lon="6.66501">
        <ele>579</ele>
        <time>2026-09-03T15:09:56.000Z</time>
      </trkpt>
      <trkpt lat="48.20525" lon="6.66503">
        <ele>578.80004882812</ele>
        <time>2026-09-03T15:09:57.000Z</time>
      </trkpt>
      <trkpt lat="48.20525" lon="6.66504">
        <ele>578.80004882812</ele>
        <time>2026-09-03T15:09:58.000Z</time>
      </trkpt>
      <trkpt lat="48.20525" lon="6.66506">
        <ele>578.80004882812</ele>
        <time>2026-09-03T15:09:59.000Z</time>
      </trkpt>
      <trkpt lat="48.20525" lon="6.66508">
        <ele>579</ele>
        <time>2026-09-03T15:10:00.000Z</time>
      </trkpt>
      <trkpt lat="48.20525" lon="6.6651">
        <ele>579</ele>
        <time>2026-09-03T15:10:01.000Z</time>
      </trkpt>
      <trkpt lat="48.20525" lon="6.66512">
        <ele>579.19995117188</ele>
        <time>2026-09-03T15:10:02.000Z</time>
      </trkpt>
      <trkpt lat="48.20525" lon="6.66513">
        <ele>579.19995117188</ele>
        <time>2026-09-03T15:10:03.000Z</time>
      </trkpt>
      <trkpt lat="48.20524" lon="6.66515">
        <ele>579.19995117188</ele>
        <time>2026-09-03T15:10:04.000Z</time>
      </trkpt>
      <trkpt lat="48.20524" lon="6.66516">
        <ele>579.19995117188</ele>
        <time>2026-09-03T15:10:05.000Z</time>
      </trkpt>
      <trkpt lat="48.20524" lon="6.66518">
        <ele>579</ele>
        <time>2026-09-03T15:10:06.000Z</time>
      </trkpt>
      <trkpt lat="48.20524" lon="6.6652">
        <ele>579</ele>
        <time>2026-09-03T15:10:07.000Z</time>
      </trkpt>
      <trkpt lat="48.20524" lon="6.66522">
        <ele>579</ele>
        <time>2026-09-03T15:10:08.000Z</time>
      </trkpt>
      <trkpt lat="48.20524" lon="6.66524">
        <ele>579</ele>
        <time>2026-09-03T15:10:09.000Z</time>
      </trkpt>
      <trkpt lat="48.20524" lon="6.66525">
        <ele>579</ele>
        <time>2026-09-03T15:10:10.000Z</time>
      </trkpt>
      <trkpt lat="48.20524" lon="6.66527">
        <ele>579</ele>
        <time>2026-09-03T15:10:11.000Z</time>
      </trkpt>
      <trkpt lat="48.20524" lon="6.66528">
        <ele>579</ele>
        <time>2026-09-03T15:10:12.000Z</time>
      </trkpt>
      <trkpt lat="48.20524" lon="6.66529">
        <ele>579</ele>
        <time>2026-09-03T15:10:13.000Z</time>
      </trkpt>
      <trkpt lat="48.20524" lon="6.66532">
        <ele>579</ele>
        <time>2026-09-03T15:10:14.000Z</time>
      </trkpt>
      <trkpt lat="48.20523" lon="6.66534">
        <ele>579</ele>
        <time>2026-09-03T15:10:15.000Z</time>
      </trkpt>
      <trkpt lat="48.20523" lon="6.66536">
        <ele>579</ele>
        <time>2026-09-03T15:10:16.000Z</time>
      </trkpt>
      <trkpt lat="48.20523" lon="6.66537">
        <ele>579</ele>
        <time>2026-09-03T15:10:17.000Z</time>
      </trkpt>
      <trkpt lat="48.20522" lon="6.66538">
        <ele>579</ele>
        <time>2026-09-03T15:10:18.000Z</time>
      </trkpt>
      <trkpt lat="48.20522" lon="6.6654">
        <ele>579</ele>
        <time>2026-09-03T15:10:19.000Z</time>
      </trkpt>
      <trkpt lat="48.20522" lon="6.66541">
        <ele>579</ele>
        <time>2026-09-03T15:10:20.000Z</time>
      </trkpt>
      <trkpt lat="48.20523" lon="6.66542">
        <ele>579</ele>
        <time>2026-09-03T15:10:21.000Z</time>
      </trkpt>
      <trkpt lat="48.20523" lon="6.66544">
        <ele>579</ele>
        <time>2026-09-03T15:10:22.000Z</time>
      </trkpt>
      <trkpt lat="48.20523" lon="6.66546">
        <ele>579</ele>
        <time>2026-09-03T15:10:23.000Z</time>
      </trkpt>
      <trkpt lat="48.20523" lon="6.66548">
        <ele>578.80004882812</ele>
        <time>2026-09-03T15:10:24.000Z</time>
      </trkpt>
      <trkpt lat="48.20523" lon="6.66549">
        <ele>578.80004882812</ele>
        <time>2026-09-03T15:10:25.000Z</time>
      </trkpt>
      <trkpt lat="48.20523" lon="6.66551">
        <ele>578.80004882812</ele>
        <time>2026-09-03T15:10:26.000Z</time>
      </trkpt>
      <trkpt lat="48.20524" lon="6.66552">
        <ele>578.80004882812</ele>
        <time>2026-09-03T15:10:27.000Z</time>
      </trkpt>
      <trkpt lat="48.20524" lon="6.66554">
        <ele>578.59997558594</ele>
        <time>2026-09-03T15:10:28.000Z</time>
      </trkpt>
      <trkpt lat="48.20525" lon="6.66556">
        <ele>578.59997558594</ele>
        <time>2026-09-03T15:10:29.000Z</time>
      </trkpt>
      <trkpt lat="48.20525" lon="6.66557">
        <ele>578.59997558594</ele>
        <time>2026-09-03T15:10:30.000Z</time>
      </trkpt>
      <trkpt lat="48.20525" lon="6.66559">
        <ele>578.59997558594</ele>
        <time>2026-09-03T15:10:31.000Z</time>
      </trkpt>
      <trkpt lat="48.20525" lon="6.6656">
        <ele>578.80004882812</ele>
        <time>2026-09-03T15:10:32.000Z</time>
      </trkpt>
      <trkpt lat="48.20525" lon="6.66562">
        <ele>578.80004882812</ele>
        <time>2026-09-03T15:10:33.000Z</time>
      </trkpt>
      <trkpt lat="48.20525" lon="6.66563">
        <ele>578.80004882812</ele>
        <time>2026-09-03T15:10:34.000Z</time>
      </trkpt>
      <trkpt lat="48.20525" lon="6.66564">
        <ele>578.80004882812</ele>
        <time>2026-09-03T15:10:35.000Z</time>
      </trkpt>
      <trkpt lat="48.20525" lon="6.66565">
        <ele>578.80004882812</ele>
        <time>2026-09-03T15:10:36.000Z</time>
      </trkpt>
      <trkpt lat="48.20526" lon="6.66567">
        <ele>578.80004882812</ele>
        <time>2026-09-03T15:10:37.000Z</time>
      </trkpt>
      <trkpt lat="48.20526" lon="6.66569">
        <ele>578.80004882812</ele>
        <time>2026-09-03T15:10:38.000Z</time>
      </trkpt>
      <trkpt lat="48.20526" lon="6.6657">
        <ele>578.80004882812</ele>
        <time>2026-09-03T15:10:39.000Z</time>
      </trkpt>
      <trkpt lat="48.20527" lon="6.66573">
        <ele>578.59997558594</ele>
        <time>2026-09-03T15:10:40.000Z</time>
      </trkpt>
      <trkpt lat="48.20527" lon="6.66574">
        <ele>578.59997558594</ele>
        <time>2026-09-03T15:10:41.000Z</time>
      </trkpt>
      <trkpt lat="48.20526" lon="6.66575">
        <ele>578.59997558594</ele>
        <time>2026-09-03T15:10:42.000Z</time>
      </trkpt>
      <trkpt lat="48.20526" lon="6.66577">
        <ele>578.80004882812</ele>
        <time>2026-09-03T15:10:43.000Z</time>
      </trkpt>
      <trkpt lat="48.20526" lon="6.66579">
        <ele>578.80004882812</ele>
        <time>2026-09-03T15:10:44.000Z</time>
      </trkpt>
      <trkpt lat="48.20526" lon="6.66581">
        <ele>578.80004882812</ele>
        <time>2026-09-03T15:10:45.000Z</time>
      </trkpt>
      <trkpt lat="48.20525" lon="6.66582">
        <ele>578.80004882812</ele>
        <time>2026-09-03T15:10:46.000Z</time>
      </trkpt>
      <trkpt lat="48.20525" lon="6.66583">
        <ele>578.80004882812</ele>
        <time>2026-09-03T15:10:47.000Z</time>
      </trkpt>
      <trkpt lat="48.20525" lon="6.66585">
        <ele>578.80004882812</ele>
        <time>2026-09-03T15:10:48.000Z</time>
      </trkpt>
      <trkpt lat="48.20525" lon="6.66586">
        <ele>578.80004882812</ele>
        <time>2026-09-03T15:10:49.000Z</time>
      </trkpt>
      <trkpt lat="48.20525" lon="6.66588">
        <ele>578.80004882812</ele>
        <time>2026-09-03T15:10:50.000Z</time>
      </trkpt>
      <trkpt lat="48.20525" lon="6.6659">
        <ele>578.80004882812</ele>
        <time>2026-09-03T15:10:51.000Z</time>
      </trkpt>
      <trkpt lat="48.20525" lon="6.66591">
        <ele>578.80004882812</ele>
        <time>2026-09-03T15:10:52.000Z</time>
      </trkpt>
      <trkpt lat="48.20525" lon="6.66593">
        <ele>578.80004882812</ele>
        <time>2026-09-03T15:10:53.000Z</time>
      </trkpt>
      <trkpt lat="48.20525" lon="6.66594">
        <ele>578.80004882812</ele>
        <time>2026-09-03T15:10:54.000Z</time>
      </trkpt>
      <trkpt lat="48.20525" lon="6.66596">
        <ele>578.80004882812</ele>
        <time>2026-09-03T15:10:55.000Z</time>
      </trkpt>
      <trkpt lat="48.20524" lon="6.66598">
        <ele>578.80004882812</ele>
        <time>2026-09-03T15:10:56.000Z</time>
      </trkpt>
      <trkpt lat="48.20524" lon="6.666">
        <ele>578.59997558594</ele>
        <time>2026-09-03T15:10:57.000Z</time>
      </trkpt>
      <trkpt lat="48.20524" lon="6.66602">
        <ele>578.59997558594</ele>
        <time>2026-09-03T15:10:58.000Z</time>
      </trkpt>
      <trkpt lat="48.20523" lon="6.66603">
        <ele>578.59997558594</ele>
        <time>2026-09-03T15:10:59.000Z</time>
      </trkpt>
      <trkpt lat="48.20523" lon="6.66604">
        <ele>578.59997558594</ele>
        <time>2026-09-03T15:11:00.000Z</time>
      </trkpt>
      <trkpt lat="48.20523" lon="6.66606">
        <ele>578.59997558594</ele>
        <time>2026-09-03T15:11:01.000Z</time>
      </trkpt>
      <trkpt lat="48.20522" lon="6.66607">
        <ele>578.59997558594</ele>
        <time>2026-09-03T15:11:02.000Z</time>
      </trkpt>
      <trkpt lat="48.20522" lon="6.66609">
        <ele>578.59997558594</ele>
        <time>2026-09-03T15:11:03.000Z</time>
      </trkpt>
      <trkpt lat="48.20522" lon="6.6661">
        <ele>578.80004882812</ele>
        <time>2026-09-03T15:11:04.000Z</time>
      </trkpt>
      <trkpt lat="48.20521" lon="6.66612">
        <ele>578.59997558594</ele>
        <time>2026-09-03T15:11:05.000Z</time>
      </trkpt>
      <trkpt lat="48.20521" lon="6.66614">
        <ele>578.59997558594</ele>
        <time>2026-09-03T15:11:06.000Z</time>
      </trkpt>
      <trkpt lat="48.2052" lon="6.66614">
        <ele>578.40002441406</ele>
        <time>2026-09-03T15:11:07.000Z</time>
      </trkpt>
      <trkpt lat="48.2052" lon="6.66615">
        <ele>578.40002441406</ele>
        <time>2026-09-03T15:11:08.000Z</time>
      </trkpt>
      <trkpt lat="48.2052" lon="6.66617">
        <ele>578.40002441406</ele>
        <time>2026-09-03T15:11:09.000Z</time>
      </trkpt>
      <trkpt lat="48.20519" lon="6.66619">
        <ele>578.40002441406</ele>
        <time>2026-09-03T15:11:10.000Z</time>
      </trkpt>
      <trkpt lat="48.2052" lon="6.66621">
        <ele>578.40002441406</ele>
        <time>2026-09-03T15:11:11.000Z</time>
      </trkpt>
      <trkpt lat="48.20519" lon="6.66622">
        <ele>578.40002441406</ele>
        <time>2026-09-03T15:11:12.000Z</time>
      </trkpt>
      <trkpt lat="48.20518" lon="6.66624">
        <ele>578.40002441406</ele>
        <time>2026-09-03T15:11:13.000Z</time>
      </trkpt>
      <trkpt lat="48.20518" lon="6.66624">
        <ele>578.40002441406</ele>
        <time>2026-09-03T15:11:14.000Z</time>
      </trkpt>
      <trkpt lat="48.20518" lon="6.66625">
        <ele>578.40002441406</ele>
        <time>2026-09-03T15:11:15.000Z</time>
      </trkpt>
      <trkpt lat="48.20518" lon="6.66627">
        <ele>578.40002441406</ele>
        <time>2026-09-03T15:11:16.000Z</time>
      </trkpt>
      <trkpt lat="48.20517" lon="6.66629">
        <ele>578.40002441406</ele>
        <time>2026-09-03T15:11:17.000Z</time>
      </trkpt>
      <trkpt lat="48.20517" lon="6.66631">
        <ele>578.40002441406</ele>
        <time>2026-09-03T15:11:18.000Z</time>
      </trkpt>
      <trkpt lat="48.20517" lon="6.66633">
        <ele>578.19995117188</ele>
        <time>2026-09-03T15:11:19.000Z</time>
      </trkpt>
      <trkpt lat="48.20517" lon="6.66635">
        <ele>578.19995117188</ele>
        <time>2026-09-03T15:11:20.000Z</time>
      </trkpt>
      <trkpt lat="48.20517" lon="6.66636">
        <ele>578.19995117188</ele>
        <time>2026-09-03T15:11:21.000Z</time>
      </trkpt>
      <trkpt lat="48.20517" lon="6.66637">
        <ele>578</ele>
        <time>2026-09-03T15:11:22.000Z</time>
      </trkpt>
      <trkpt lat="48.20517" lon="6.66639">
        <ele>578</ele>
        <time>2026-09-03T15:11:23.000Z</time>
      </trkpt>
      <trkpt lat="48.20517" lon="6.66641">
        <ele>578</ele>
        <time>2026-09-03T15:11:24.000Z</time>
      </trkpt>
      <trkpt lat="48.20517" lon="6.66642">
        <ele>577.80004882812</ele>
        <time>2026-09-03T15:11:25.000Z</time>
      </trkpt>
      <trkpt lat="48.20517" lon="6.66643">
        <ele>577.59997558594</ele>
        <time>2026-09-03T15:11:26.000Z</time>
      </trkpt>
      <trkpt lat="48.20517" lon="6.66644">
        <ele>577.59997558594</ele>
        <time>2026-09-03T15:11:27.000Z</time>
      </trkpt>
      <trkpt lat="48.20517" lon="6.66645">
        <ele>577.40002441406</ele>
        <time>2026-09-03T15:11:28.000Z</time>
      </trkpt>
      <trkpt lat="48.20517" lon="6.66646">
        <ele>577.40002441406</ele>
        <time>2026-09-03T15:11:29.000Z</time>
      </trkpt>
      <trkpt lat="48.20516" lon="6.66645">
        <ele>577.40002441406</ele>
        <time>2026-09-03T15:11:30.000Z</time>
      </trkpt>
      <trkpt lat="48.20516" lon="6.66645">
        <ele>577.40002441406</ele>
        <time>2026-09-03T15:11:31.000Z</time>
      </trkpt>
      <trkpt lat="48.20516" lon="6.66645">
        <ele>577.40002441406</ele>
        <time>2026-09-03T15:11:32.000Z</time>
      </trkpt>
      <trkpt lat="48.20516" lon="6.66645">
        <ele>577.40002441406</ele>
        <time>2026-09-03T15:11:33.000Z</time>
      </trkpt>
      <trkpt lat="48.20516" lon="6.66645">
        <ele>577.40002441406</ele>
        <time>2026-09-03T15:11:34.000Z</time>
      </trkpt>
      <trkpt lat="48.20516" lon="6.66645">
        <ele>577.19995117188</ele>
        <time>2026-09-03T15:11:35.000Z</time>
      </trkpt>
      <trkpt lat="48.20516" lon="6.66645">
        <ele>577.19995117188</ele>
        <time>2026-09-03T15:11:36.000Z</time>
      </trkpt>
      <trkpt lat="48.20516" lon="6.66647">
        <ele>577.19995117188</ele>
        <time>2026-09-03T15:11:37.000Z</time>
      </trkpt>
      <trkpt lat="48.20516" lon="6.66648">
        <ele>577</ele>
        <time>2026-09-03T15:11:38.000Z</time>
      </trkpt>
      <trkpt lat="48.20516" lon="6.6665">
        <ele>577</ele>
        <time>2026-09-03T15:11:39.000Z</time>
      </trkpt>
      <trkpt lat="48.20516" lon="6.66651">
        <ele>577</ele>
        <time>2026-09-03T15:11:40.000Z</time>
      </trkpt>
      <trkpt lat="48.20516" lon="6.66653">
        <ele>577</ele>
        <time>2026-09-03T15:11:41.000Z</time>
      </trkpt>
      <trkpt lat="48.20517" lon="6.66655">
        <ele>576.80004882812</ele>
        <time>2026-09-03T15:11:42.000Z</time>
      </trkpt>
      <trkpt lat="48.20517" lon="6.66657">
        <ele>576.80004882812</ele>
        <time>2026-09-03T15:11:43.000Z</time>
      </trkpt>
      <trkpt lat="48.20517" lon="6.66658">
        <ele>576.80004882812</ele>
        <time>2026-09-03T15:11:44.000Z</time>
      </trkpt>
      <trkpt lat="48.20517" lon="6.66659">
        <ele>576.59997558594</ele>
        <time>2026-09-03T15:11:45.000Z</time>
      </trkpt>
      <trkpt lat="48.20518" lon="6.6666">
        <ele>576.40002441406</ele>
        <time>2026-09-03T15:11:46.000Z</time>
      </trkpt>
      <trkpt lat="48.20518" lon="6.66662">
        <ele>576.40002441406</ele>
        <time>2026-09-03T15:11:47.000Z</time>
      </trkpt>
      <trkpt lat="48.20518" lon="6.66663">
        <ele>576.19995117188</ele>
        <time>2026-09-03T15:11:48.000Z</time>
      </trkpt>
      <trkpt lat="48.20518" lon="6.66664">
        <ele>576.19995117188</ele>
        <time>2026-09-03T15:11:49.000Z</time>
      </trkpt>
      <trkpt lat="48.20518" lon="6.66666">
        <ele>576</ele>
        <time>2026-09-03T15:11:50.000Z</time>
      </trkpt>
      <trkpt lat="48.20518" lon="6.66667">
        <ele>575.80004882812</ele>
        <time>2026-09-03T15:11:51.000Z</time>
      </trkpt>
      <trkpt lat="48.20519" lon="6.66668">
        <ele>575.80004882812</ele>
        <time>2026-09-03T15:11:52.000Z</time>
      </trkpt>
      <trkpt lat="48.20519" lon="6.6667">
        <ele>575.59997558594</ele>
        <time>2026-09-03T15:11:53.000Z</time>
      </trkpt>
      <trkpt lat="48.20519" lon="6.66672">
        <ele>575.59997558594</ele>
        <time>2026-09-03T15:11:54.000Z</time>
      </trkpt>
      <trkpt lat="48.20519" lon="6.66674">
        <ele>575.40002441406</ele>
        <time>2026-09-03T15:11:55.000Z</time>
      </trkpt>
      <trkpt lat="48.20519" lon="6.66675">
        <ele>575.19995117188</ele>
        <time>2026-09-03T15:11:56.000Z</time>
      </trkpt>
      <trkpt lat="48.20519" lon="6.66677">
        <ele>575</ele>
        <time>2026-09-03T15:11:57.000Z</time>
      </trkpt>
      <trkpt lat="48.20519" lon="6.66679">
        <ele>574.80004882812</ele>
        <time>2026-09-03T15:11:58.000Z</time>
      </trkpt>
      <trkpt lat="48.20518" lon="6.6668">
        <ele>574.80004882812</ele>
        <time>2026-09-03T15:11:59.000Z</time>
      </trkpt>
      <trkpt lat="48.20518" lon="6.66682">
        <ele>574.59997558594</ele>
        <time>2026-09-03T15:12:00.000Z</time>
      </trkpt>
      <trkpt lat="48.20518" lon="6.66684">
        <ele>574.40002441406</ele>
        <time>2026-09-03T15:12:01.000Z</time>
      </trkpt>
      <trkpt lat="48.20518" lon="6.66685">
        <ele>574.40002441406</ele>
        <time>2026-09-03T15:12:02.000Z</time>
      </trkpt>
      <trkpt lat="48.20518" lon="6.66686">
        <ele>574.40002441406</ele>
        <time>2026-09-03T15:12:03.000Z</time>
      </trkpt>
      <trkpt lat="48.20518" lon="6.66688">
        <ele>574.19995117188</ele>
        <time>2026-09-03T15:12:04.000Z</time>
      </trkpt>
      <trkpt lat="48.20518" lon="6.66689">
        <ele>574</ele>
        <time>2026-09-03T15:12:05.000Z</time>
      </trkpt>
      <trkpt lat="48.20518" lon="6.66691">
        <ele>574</ele>
        <time>2026-09-03T15:12:06.000Z</time>
      </trkpt>
      <trkpt lat="48.20518" lon="6.66693">
        <ele>573.80004882812</ele>
        <time>2026-09-03T15:12:07.000Z</time>
      </trkpt>
      <trkpt lat="48.20518" lon="6.66695">
        <ele>573.59997558594</ele>
        <time>2026-09-03T15:12:08.000Z</time>
      </trkpt>
      <trkpt lat="48.20518" lon="6.66696">
        <ele>573.59997558594</ele>
        <time>2026-09-03T15:12:09.000Z</time>
      </trkpt>
      <trkpt lat="48.20517" lon="6.66697">
        <ele>573.59997558594</ele>
        <time>2026-09-03T15:12:10.000Z</time>
      </trkpt>
      <trkpt lat="48.20517" lon="6.66699">
        <ele>573.59997558594</ele>
        <time>2026-09-03T15:12:11.000Z</time>
      </trkpt>
      <trkpt lat="48.20517" lon="6.667">
        <ele>573.40002441406</ele>
        <time>2026-09-03T15:12:12.000Z</time>
      </trkpt>
      <trkpt lat="48.20517" lon="6.66703">
        <ele>573.40002441406</ele>
        <time>2026-09-03T15:12:13.000Z</time>
      </trkpt>
      <trkpt lat="48.20517" lon="6.66704">
        <ele>573.19995117188</ele>
        <time>2026-09-03T15:12:14.000Z</time>
      </trkpt>
      <trkpt lat="48.20517" lon="6.66706">
        <ele>573.19995117188</ele>
        <time>2026-09-03T15:12:15.000Z</time>
      </trkpt>
      <trkpt lat="48.20516" lon="6.66707">
        <ele>573</ele>
        <time>2026-09-03T15:12:16.000Z</time>
      </trkpt>
      <trkpt lat="48.20516" lon="6.66708">
        <ele>573</ele>
        <time>2026-09-03T15:12:17.000Z</time>
      </trkpt>
      <trkpt lat="48.20516" lon="6.6671">
        <ele>573</ele>
        <time>2026-09-03T15:12:18.000Z</time>
      </trkpt>
      <trkpt lat="48.20516" lon="6.66711">
        <ele>573</ele>
        <time>2026-09-03T15:12:19.000Z</time>
      </trkpt>
      <trkpt lat="48.20516" lon="6.66713">
        <ele>573</ele>
        <time>2026-09-03T15:12:20.000Z</time>
      </trkpt>
      <trkpt lat="48.20516" lon="6.66715">
        <ele>572.80004882812</ele>
        <time>2026-09-03T15:12:21.000Z</time>
      </trkpt>
      <trkpt lat="48.20516" lon="6.66716">
        <ele>572.80004882812</ele>
        <time>2026-09-03T15:12:22.000Z</time>
      </trkpt>
      <trkpt lat="48.20517" lon="6.66717">
        <ele>572.59997558594</ele>
        <time>2026-09-03T15:12:23.000Z</time>
      </trkpt>
      <trkpt lat="48.20516" lon="6.66718">
        <ele>572.59997558594</ele>
        <time>2026-09-03T15:12:24.000Z</time>
      </trkpt>
      <trkpt lat="48.20516" lon="6.66719">
        <ele>572.59997558594</ele>
        <time>2026-09-03T15:12:25.000Z</time>
      </trkpt>
      <trkpt lat="48.20516" lon="6.66721">
        <ele>572.59997558594</ele>
        <time>2026-09-03T15:12:26.000Z</time>
      </trkpt>
      <trkpt lat="48.20516" lon="6.66722">
        <ele>572.59997558594</ele>
        <time>2026-09-03T15:12:27.000Z</time>
      </trkpt>
      <trkpt lat="48.20516" lon="6.66724">
        <ele>572.59997558594</ele>
        <time>2026-09-03T15:12:28.000Z</time>
      </trkpt>
      <trkpt lat="48.20515" lon="6.66726">
        <ele>572.40002441406</ele>
        <time>2026-09-03T15:12:29.000Z</time>
      </trkpt>
      <trkpt lat="48.20515" lon="6.66728">
        <ele>572.40002441406</ele>
        <time>2026-09-03T15:12:30.000Z</time>
      </trkpt>
      <trkpt lat="48.20514" lon="6.66729">
        <ele>572.19995117188</ele>
        <time>2026-09-03T15:12:31.000Z</time>
      </trkpt>
      <trkpt lat="48.20514" lon="6.66731">
        <ele>572</ele>
        <time>2026-09-03T15:12:32.000Z</time>
      </trkpt>
      <trkpt lat="48.20514" lon="6.66733">
        <ele>572</ele>
        <time>2026-09-03T15:12:33.000Z</time>
      </trkpt>
      <trkpt lat="48.20514" lon="6.66734">
        <ele>571.80004882812</ele>
        <time>2026-09-03T15:12:34.000Z</time>
      </trkpt>
      <trkpt lat="48.20513" lon="6.66735">
        <ele>571.59997558594</ele>
        <time>2026-09-03T15:12:35.000Z</time>
      </trkpt>
      <trkpt lat="48.20513" lon="6.66736">
        <ele>571.59997558594</ele>
        <time>2026-09-03T15:12:36.000Z</time>
      </trkpt>
      <trkpt lat="48.20512" lon="6.66738">
        <ele>571.59997558594</ele>
        <time>2026-09-03T15:12:37.000Z</time>
      </trkpt>
      <trkpt lat="48.20512" lon="6.66739">
        <ele>571.59997558594</ele>
        <time>2026-09-03T15:12:38.000Z</time>
      </trkpt>
      <trkpt lat="48.20511" lon="6.66741">
        <ele>571.59997558594</ele>
        <time>2026-09-03T15:12:39.000Z</time>
      </trkpt>
      <trkpt lat="48.20511" lon="6.66743">
        <ele>571.40002441406</ele>
        <time>2026-09-03T15:12:40.000Z</time>
      </trkpt>
      <trkpt lat="48.2051" lon="6.66745">
        <ele>571.40002441406</ele>
        <time>2026-09-03T15:12:41.000Z</time>
      </trkpt>
      <trkpt lat="48.2051" lon="6.66746">
        <ele>571.19995117188</ele>
        <time>2026-09-03T15:12:42.000Z</time>
      </trkpt>
      <trkpt lat="48.20509" lon="6.66748">
        <ele>571</ele>
        <time>2026-09-03T15:12:43.000Z</time>
      </trkpt>
      <trkpt lat="48.20509" lon="6.66749">
        <ele>571</ele>
        <time>2026-09-03T15:12:44.000Z</time>
      </trkpt>
      <trkpt lat="48.20508" lon="6.66751">
        <ele>570.80004882812</ele>
        <time>2026-09-03T15:12:45.000Z</time>
      </trkpt>
      <trkpt lat="48.20508" lon="6.66752">
        <ele>570.80004882812</ele>
        <time>2026-09-03T15:12:46.000Z</time>
      </trkpt>
      <trkpt lat="48.20507" lon="6.66754">
        <ele>570.80004882812</ele>
        <time>2026-09-03T15:12:47.000Z</time>
      </trkpt>
      <trkpt lat="48.20506" lon="6.66755">
        <ele>570.59997558594</ele>
        <time>2026-09-03T15:12:48.000Z</time>
      </trkpt>
      <trkpt lat="48.20506" lon="6.66757">
        <ele>570.59997558594</ele>
        <time>2026-09-03T15:12:49.000Z</time>
      </trkpt>
      <trkpt lat="48.20505" lon="6.66758">
        <ele>570.40002441406</ele>
        <time>2026-09-03T15:12:50.000Z</time>
      </trkpt>
      <trkpt lat="48.20504" lon="6.6676">
        <ele>570.40002441406</ele>
        <time>2026-09-03T15:12:51.000Z</time>
      </trkpt>
      <trkpt lat="48.20504" lon="6.66762">
        <ele>570.40002441406</ele>
        <time>2026-09-03T15:12:52.000Z</time>
      </trkpt>
      <trkpt lat="48.20503" lon="6.66764">
        <ele>570.40002441406</ele>
        <time>2026-09-03T15:12:53.000Z</time>
      </trkpt>
      <trkpt lat="48.20503" lon="6.66765">
        <ele>570.40002441406</ele>
        <time>2026-09-03T15:12:54.000Z</time>
      </trkpt>
      <trkpt lat="48.20502" lon="6.66767">
        <ele>570.19995117188</ele>
        <time>2026-09-03T15:12:55.000Z</time>
      </trkpt>
      <trkpt lat="48.20502" lon="6.66767">
        <ele>570.19995117188</ele>
        <time>2026-09-03T15:12:56.000Z</time>
      </trkpt>
      <trkpt lat="48.20502" lon="6.66769">
        <ele>570.19995117188</ele>
        <time>2026-09-03T15:12:57.000Z</time>
      </trkpt>
      <trkpt lat="48.20501" lon="6.6677">
        <ele>570</ele>
        <time>2026-09-03T15:12:58.000Z</time>
      </trkpt>
      <trkpt lat="48.20501" lon="6.66772">
        <ele>570</ele>
        <time>2026-09-03T15:12:59.000Z</time>
      </trkpt>
      <trkpt lat="48.20501" lon="6.66773">
        <ele>570</ele>
        <time>2026-09-03T15:13:00.000Z</time>
      </trkpt>
      <trkpt lat="48.20501" lon="6.66775">
        <ele>569.80004882812</ele>
        <time>2026-09-03T15:13:01.000Z</time>
      </trkpt>
      <trkpt lat="48.20501" lon="6.66776">
        <ele>569.59997558594</ele>
        <time>2026-09-03T15:13:02.000Z</time>
      </trkpt>
      <trkpt lat="48.20501" lon="6.66777">
        <ele>569.59997558594</ele>
        <time>2026-09-03T15:13:03.000Z</time>
      </trkpt>
      <trkpt lat="48.20501" lon="6.66778">
        <ele>569.40002441406</ele>
        <time>2026-09-03T15:13:04.000Z</time>
      </trkpt>
      <trkpt lat="48.20501" lon="6.66779">
        <ele>569.19995117188</ele>
        <time>2026-09-03T15:13:05.000Z</time>
      </trkpt>
      <trkpt lat="48.205" lon="6.66781">
        <ele>569.19995117188</ele>
        <time>2026-09-03T15:13:06.000Z</time>
      </trkpt>
      <trkpt lat="48.205" lon="6.66783">
        <ele>569.19995117188</ele>
        <time>2026-09-03T15:13:07.000Z</time>
      </trkpt>
      <trkpt lat="48.20499" lon="6.66785">
        <ele>569.19995117188</ele>
        <time>2026-09-03T15:13:08.000Z</time>
      </trkpt>
      <trkpt lat="48.20499" lon="6.66786">
        <ele>569</ele>
        <time>2026-09-03T15:13:09.000Z</time>
      </trkpt>
      <trkpt lat="48.20499" lon="6.66787">
        <ele>569</ele>
        <time>2026-09-03T15:13:10.000Z</time>
      </trkpt>
      <trkpt lat="48.20499" lon="6.66789">
        <ele>569</ele>
        <time>2026-09-03T15:13:11.000Z</time>
      </trkpt>
      <trkpt lat="48.20498" lon="6.66791">
        <ele>569</ele>
        <time>2026-09-03T15:13:12.000Z</time>
      </trkpt>
      <trkpt lat="48.20498" lon="6.66794">
        <ele>568.80004882812</ele>
        <time>2026-09-03T15:13:13.000Z</time>
      </trkpt>
      <trkpt lat="48.20499" lon="6.66796">
        <ele>568.80004882812</ele>
        <time>2026-09-03T15:13:14.000Z</time>
      </trkpt>
      <trkpt lat="48.20499" lon="6.66798">
        <ele>568.59997558594</ele>
        <time>2026-09-03T15:13:15.000Z</time>
      </trkpt>
      <trkpt lat="48.20499" lon="6.668">
        <ele>568.59997558594</ele>
        <time>2026-09-03T15:13:16.000Z</time>
      </trkpt>
      <trkpt lat="48.20499" lon="6.66801">
        <ele>568.59997558594</ele>
        <time>2026-09-03T15:13:17.000Z</time>
      </trkpt>
      <trkpt lat="48.20499" lon="6.66803">
        <ele>568.59997558594</ele>
        <time>2026-09-03T15:13:18.000Z</time>
      </trkpt>
      <trkpt lat="48.20499" lon="6.66804">
        <ele>568.59997558594</ele>
        <time>2026-09-03T15:13:19.000Z</time>
      </trkpt>
      <trkpt lat="48.20499" lon="6.66806">
        <ele>568.40002441406</ele>
        <time>2026-09-03T15:13:20.000Z</time>
      </trkpt>
      <trkpt lat="48.20499" lon="6.66808">
        <ele>568.40002441406</ele>
        <time>2026-09-03T15:13:21.000Z</time>
      </trkpt>
      <trkpt lat="48.205" lon="6.6681">
        <ele>568.40002441406</ele>
        <time>2026-09-03T15:13:22.000Z</time>
      </trkpt>
      <trkpt lat="48.205" lon="6.66812">
        <ele>568.40002441406</ele>
        <time>2026-09-03T15:13:23.000Z</time>
      </trkpt>
      <trkpt lat="48.20499" lon="6.66814">
        <ele>568.40002441406</ele>
        <time>2026-09-03T15:13:24.000Z</time>
      </trkpt>
      <trkpt lat="48.20499" lon="6.66816">
        <ele>568.40002441406</ele>
        <time>2026-09-03T15:13:25.000Z</time>
      </trkpt>
      <trkpt lat="48.205" lon="6.66817">
        <ele>568.40002441406</ele>
        <time>2026-09-03T15:13:26.000Z</time>
      </trkpt>
      <trkpt lat="48.205" lon="6.66819">
        <ele>568.40002441406</ele>
        <time>2026-09-03T15:13:27.000Z</time>
      </trkpt>
      <trkpt lat="48.20499" lon="6.66821">
        <ele>568.40002441406</ele>
        <time>2026-09-03T15:13:28.000Z</time>
      </trkpt>
      <trkpt lat="48.20499" lon="6.66823">
        <ele>568.40002441406</ele>
        <time>2026-09-03T15:13:29.000Z</time>
      </trkpt>
      <trkpt lat="48.20499" lon="6.66824">
        <ele>568.40002441406</ele>
        <time>2026-09-03T15:13:30.000Z</time>
      </trkpt>
      <trkpt lat="48.20499" lon="6.66826">
        <ele>568.19995117188</ele>
        <time>2026-09-03T15:13:31.000Z</time>
      </trkpt>
      <trkpt lat="48.20499" lon="6.66827">
        <ele>568.19995117188</ele>
        <time>2026-09-03T15:13:32.000Z</time>
      </trkpt>
      <trkpt lat="48.20499" lon="6.66828">
        <ele>568.19995117188</ele>
        <time>2026-09-03T15:13:33.000Z</time>
      </trkpt>
      <trkpt lat="48.20499" lon="6.6683">
        <ele>568.19995117188</ele>
        <time>2026-09-03T15:13:34.000Z</time>
      </trkpt>
      <trkpt lat="48.20499" lon="6.66832">
        <ele>568.19995117188</ele>
        <time>2026-09-03T15:13:35.000Z</time>
      </trkpt>
      <trkpt lat="48.20499" lon="6.66834">
        <ele>568</ele>
        <time>2026-09-03T15:13:36.000Z</time>
      </trkpt>
      <trkpt lat="48.20499" lon="6.66835">
        <ele>568</ele>
        <time>2026-09-03T15:13:37.000Z</time>
      </trkpt>
      <trkpt lat="48.20499" lon="6.66836">
        <ele>568</ele>
        <time>2026-09-03T15:13:38.000Z</time>
      </trkpt>
      <trkpt lat="48.20499" lon="6.66838">
        <ele>568</ele>
        <time>2026-09-03T15:13:39.000Z</time>
      </trkpt>
      <trkpt lat="48.20499" lon="6.6684">
        <ele>568</ele>
        <time>2026-09-03T15:13:40.000Z</time>
      </trkpt>
      <trkpt lat="48.20499" lon="6.66841">
        <ele>568</ele>
        <time>2026-09-03T15:13:41.000Z</time>
      </trkpt>
      <trkpt lat="48.20498" lon="6.66843">
        <ele>567.80004882812</ele>
        <time>2026-09-03T15:13:42.000Z</time>
      </trkpt>
      <trkpt lat="48.20498" lon="6.66844">
        <ele>567.80004882812</ele>
        <time>2026-09-03T15:13:43.000Z</time>
      </trkpt>
      <trkpt lat="48.20498" lon="6.66846">
        <ele>567.80004882812</ele>
        <time>2026-09-03T15:13:44.000Z</time>
      </trkpt>
      <trkpt lat="48.20498" lon="6.66847">
        <ele>567.80004882812</ele>
        <time>2026-09-03T15:13:45.000Z</time>
      </trkpt>
      <trkpt lat="48.20499" lon="6.66849">
        <ele>567.80004882812</ele>
        <time>2026-09-03T15:13:46.000Z</time>
      </trkpt>
      <trkpt lat="48.20499" lon="6.66851">
        <ele>567.80004882812</ele>
        <time>2026-09-03T15:13:47.000Z</time>
      </trkpt>
      <trkpt lat="48.20499" lon="6.66853">
        <ele>567.80004882812</ele>
        <time>2026-09-03T15:13:48.000Z</time>
      </trkpt>
      <trkpt lat="48.20499" lon="6.66854">
        <ele>567.80004882812</ele>
        <time>2026-09-03T15:13:49.000Z</time>
      </trkpt>
      <trkpt lat="48.20499" lon="6.66856">
        <ele>567.59997558594</ele>
        <time>2026-09-03T15:13:50.000Z</time>
      </trkpt>
      <trkpt lat="48.20499" lon="6.66858">
        <ele>567.59997558594</ele>
        <time>2026-09-03T15:13:51.000Z</time>
      </trkpt>
      <trkpt lat="48.205" lon="6.66859">
        <ele>567.59997558594</ele>
        <time>2026-09-03T15:13:52.000Z</time>
      </trkpt>
      <trkpt lat="48.205" lon="6.6686">
        <ele>567.59997558594</ele>
        <time>2026-09-03T15:13:53.000Z</time>
      </trkpt>
      <trkpt lat="48.205" lon="6.66862">
        <ele>567.59997558594</ele>
        <time>2026-09-03T15:13:54.000Z</time>
      </trkpt>
      <trkpt lat="48.20501" lon="6.66864">
        <ele>567.40002441406</ele>
        <time>2026-09-03T15:13:55.000Z</time>
      </trkpt>
      <trkpt lat="48.20501" lon="6.66865">
        <ele>567.59997558594</ele>
        <time>2026-09-03T15:13:56.000Z</time>
      </trkpt>
      <trkpt lat="48.20501" lon="6.66866">
        <ele>567.40002441406</ele>
        <time>2026-09-03T15:13:57.000Z</time>
      </trkpt>
      <trkpt lat="48.20501" lon="6.66867">
        <ele>567.40002441406</ele>
        <time>2026-09-03T15:13:58.000Z</time>
      </trkpt>
      <trkpt lat="48.20502" lon="6.66869">
        <ele>567.40002441406</ele>
        <time>2026-09-03T15:13:59.000Z</time>
      </trkpt>
      <trkpt lat="48.20502" lon="6.66872">
        <ele>567.40002441406</ele>
        <time>2026-09-03T15:14:00.000Z</time>
      </trkpt>
      <trkpt lat="48.20502" lon="6.66873">
        <ele>567.19995117188</ele>
        <time>2026-09-03T15:14:01.000Z</time>
      </trkpt>
      <trkpt lat="48.20503" lon="6.66875">
        <ele>567</ele>
        <time>2026-09-03T15:14:02.000Z</time>
      </trkpt>
      <trkpt lat="48.20502" lon="6.66876">
        <ele>567</ele>
        <time>2026-09-03T15:14:03.000Z</time>
      </trkpt>
      <trkpt lat="48.20503" lon="6.66877">
        <ele>567</ele>
        <time>2026-09-03T15:14:04.000Z</time>
      </trkpt>
      <trkpt lat="48.20503" lon="6.66879">
        <ele>566.80004882812</ele>
        <time>2026-09-03T15:14:05.000Z</time>
      </trkpt>
      <trkpt lat="48.20503" lon="6.66881">
        <ele>566.80004882812</ele>
        <time>2026-09-03T15:14:06.000Z</time>
      </trkpt>
      <trkpt lat="48.20503" lon="6.66883">
        <ele>566.80004882812</ele>
        <time>2026-09-03T15:14:07.000Z</time>
      </trkpt>
      <trkpt lat="48.20503" lon="6.66885">
        <ele>566.80004882812</ele>
        <time>2026-09-03T15:14:08.000Z</time>
      </trkpt>
      <trkpt lat="48.20503" lon="6.66886">
        <ele>566.80004882812</ele>
        <time>2026-09-03T15:14:09.000Z</time>
      </trkpt>
      <trkpt lat="48.20503" lon="6.66887">
        <ele>566.80004882812</ele>
        <time>2026-09-03T15:14:10.000Z</time>
      </trkpt>
      <trkpt lat="48.20503" lon="6.66889">
        <ele>566.80004882812</ele>
        <time>2026-09-03T15:14:11.000Z</time>
      </trkpt>
      <trkpt lat="48.20502" lon="6.6689">
        <ele>566.80004882812</ele>
        <time>2026-09-03T15:14:12.000Z</time>
      </trkpt>
      <trkpt lat="48.20502" lon="6.66892">
        <ele>566.80004882812</ele>
        <time>2026-09-03T15:14:13.000Z</time>
      </trkpt>
      <trkpt lat="48.20503" lon="6.66894">
        <ele>566.59997558594</ele>
        <time>2026-09-03T15:14:14.000Z</time>
      </trkpt>
      <trkpt lat="48.20502" lon="6.66896">
        <ele>566.59997558594</ele>
        <time>2026-09-03T15:14:15.000Z</time>
      </trkpt>
      <trkpt lat="48.20502" lon="6.66897">
        <ele>566.59997558594</ele>
        <time>2026-09-03T15:14:16.000Z</time>
      </trkpt>
      <trkpt lat="48.20502" lon="6.66898">
        <ele>566.59997558594</ele>
        <time>2026-09-03T15:14:17.000Z</time>
      </trkpt>
      <trkpt lat="48.20503" lon="6.669">
        <ele>566.59997558594</ele>
        <time>2026-09-03T15:14:18.000Z</time>
      </trkpt>
      <trkpt lat="48.20503" lon="6.66901">
        <ele>566.59997558594</ele>
        <time>2026-09-03T15:14:19.000Z</time>
      </trkpt>
      <trkpt lat="48.20503" lon="6.66903">
        <ele>566.59997558594</ele>
        <time>2026-09-03T15:14:20.000Z</time>
      </trkpt>
      <trkpt lat="48.20503" lon="6.66904">
        <ele>566.59997558594</ele>
        <time>2026-09-03T15:14:21.000Z</time>
      </trkpt>
      <trkpt lat="48.20503" lon="6.66906">
        <ele>566.59997558594</ele>
        <time>2026-09-03T15:14:22.000Z</time>
      </trkpt>
      <trkpt lat="48.20503" lon="6.66908">
        <ele>566.59997558594</ele>
        <time>2026-09-03T15:14:23.000Z</time>
      </trkpt>
      <trkpt lat="48.20503" lon="6.66909">
        <ele>566.59997558594</ele>
        <time>2026-09-03T15:14:24.000Z</time>
      </trkpt>
      <trkpt lat="48.20503" lon="6.66911">
        <ele>566.59997558594</ele>
        <time>2026-09-03T15:14:25.000Z</time>
      </trkpt>
      <trkpt lat="48.20504" lon="6.66913">
        <ele>566.59997558594</ele>
        <time>2026-09-03T15:14:26.000Z</time>
      </trkpt>
      <trkpt lat="48.20504" lon="6.66915">
        <ele>566.40002441406</ele>
        <time>2026-09-03T15:14:27.000Z</time>
      </trkpt>
      <trkpt lat="48.20504" lon="6.66918">
        <ele>566.40002441406</ele>
        <time>2026-09-03T15:14:28.000Z</time>
      </trkpt>
      <trkpt lat="48.20504" lon="6.6692">
        <ele>566.40002441406</ele>
        <time>2026-09-03T15:14:29.000Z</time>
      </trkpt>
      <trkpt lat="48.20503" lon="6.66921">
        <ele>566.19995117188</ele>
        <time>2026-09-03T15:14:30.000Z</time>
      </trkpt>
      <trkpt lat="48.20503" lon="6.66923">
        <ele>566.19995117188</ele>
        <time>2026-09-03T15:14:31.000Z</time>
      </trkpt>
      <trkpt lat="48.20503" lon="6.66924">
        <ele>566.19995117188</ele>
        <time>2026-09-03T15:14:32.000Z</time>
      </trkpt>
      <trkpt lat="48.20503" lon="6.66926">
        <ele>566.40002441406</ele>
        <time>2026-09-03T15:14:33.000Z</time>
      </trkpt>
      <trkpt lat="48.20503" lon="6.66928">
        <ele>566.40002441406</ele>
        <time>2026-09-03T15:14:34.000Z</time>
      </trkpt>
      <trkpt lat="48.20503" lon="6.66929">
        <ele>566.40002441406</ele>
        <time>2026-09-03T15:14:35.000Z</time>
      </trkpt>
      <trkpt lat="48.20503" lon="6.66931">
        <ele>566.40002441406</ele>
        <time>2026-09-03T15:14:36.000Z</time>
      </trkpt>
      <trkpt lat="48.20503" lon="6.66932">
        <ele>566.59997558594</ele>
        <time>2026-09-03T15:14:37.000Z</time>
      </trkpt>
      <trkpt lat="48.20503" lon="6.66933">
        <ele>566.59997558594</ele>
        <time>2026-09-03T15:14:38.000Z</time>
      </trkpt>
      <trkpt lat="48.20502" lon="6.66934">
        <ele>566.59997558594</ele>
        <time>2026-09-03T15:14:39.000Z</time>
      </trkpt>
      <trkpt lat="48.20502" lon="6.66936">
        <ele>566.59997558594</ele>
        <time>2026-09-03T15:14:40.000Z</time>
      </trkpt>
      <trkpt lat="48.20502" lon="6.66937">
        <ele>566.59997558594</ele>
        <time>2026-09-03T15:14:41.000Z</time>
      </trkpt>
      <trkpt lat="48.20502" lon="6.66938">
        <ele>566.59997558594</ele>
        <time>2026-09-03T15:14:42.000Z</time>
      </trkpt>
      <trkpt lat="48.20502" lon="6.6694">
        <ele>566.59997558594</ele>
        <time>2026-09-03T15:14:43.000Z</time>
      </trkpt>
      <trkpt lat="48.20502" lon="6.66942">
        <ele>566.80004882812</ele>
        <time>2026-09-03T15:14:44.000Z</time>
      </trkpt>
      <trkpt lat="48.20502" lon="6.66944">
        <ele>566.80004882812</ele>
        <time>2026-09-03T15:14:45.000Z</time>
      </trkpt>
      <trkpt lat="48.20501" lon="6.66945">
        <ele>566.59997558594</ele>
        <time>2026-09-03T15:14:46.000Z</time>
      </trkpt>
      <trkpt lat="48.20501" lon="6.66946">
        <ele>566.59997558594</ele>
        <time>2026-09-03T15:14:47.000Z</time>
      </trkpt>
      <trkpt lat="48.20501" lon="6.66948">
        <ele>566.59997558594</ele>
        <time>2026-09-03T15:14:48.000Z</time>
      </trkpt>
      <trkpt lat="48.20501" lon="6.66949">
        <ele>566.59997558594</ele>
        <time>2026-09-03T15:14:49.000Z</time>
      </trkpt>
      <trkpt lat="48.205" lon="6.6695">
        <ele>566.40002441406</ele>
        <time>2026-09-03T15:14:50.000Z</time>
      </trkpt>
      <trkpt lat="48.205" lon="6.66953">
        <ele>566.40002441406</ele>
        <time>2026-09-03T15:14:51.000Z</time>
      </trkpt>
      <trkpt lat="48.20499" lon="6.66954">
        <ele>566.40002441406</ele>
        <time>2026-09-03T15:14:52.000Z</time>
      </trkpt>
      <trkpt lat="48.20499" lon="6.66956">
        <ele>566.19995117188</ele>
        <time>2026-09-03T15:14:53.000Z</time>
      </trkpt>
      <trkpt lat="48.20499" lon="6.66957">
        <ele>566.19995117188</ele>
        <time>2026-09-03T15:14:54.000Z</time>
      </trkpt>
      <trkpt lat="48.20499" lon="6.66958">
        <ele>566.19995117188</ele>
        <time>2026-09-03T15:14:55.000Z</time>
      </trkpt>
      <trkpt lat="48.20499" lon="6.6696">
        <ele>566</ele>
        <time>2026-09-03T15:14:56.000Z</time>
      </trkpt>
      <trkpt lat="48.20498" lon="6.66962">
        <ele>565.80004882812</ele>
        <time>2026-09-03T15:14:57.000Z</time>
      </trkpt>
      <trkpt lat="48.20498" lon="6.66963">
        <ele>565.80004882812</ele>
        <time>2026-09-03T15:14:58.000Z</time>
      </trkpt>
      <trkpt lat="48.20498" lon="6.66965">
        <ele>565.59997558594</ele>
        <time>2026-09-03T15:14:59.000Z</time>
      </trkpt>
      <trkpt lat="48.20499" lon="6.66967">
        <ele>565.59997558594</ele>
        <time>2026-09-03T15:15:00.000Z</time>
      </trkpt>
      <trkpt lat="48.20499" lon="6.66968">
        <ele>565.40002441406</ele>
        <time>2026-09-03T15:15:01.000Z</time>
      </trkpt>
      <trkpt lat="48.20499" lon="6.66969">
        <ele>565.40002441406</ele>
        <time>2026-09-03T15:15:02.000Z</time>
      </trkpt>
      <trkpt lat="48.20499" lon="6.6697">
        <ele>565.19995117188</ele>
        <time>2026-09-03T15:15:03.000Z</time>
      </trkpt>
      <trkpt lat="48.20499" lon="6.66972">
        <ele>565.19995117188</ele>
        <time>2026-09-03T15:15:04.000Z</time>
      </trkpt>
      <trkpt lat="48.205" lon="6.66973">
        <ele>565</ele>
        <time>2026-09-03T15:15:05.000Z</time>
      </trkpt>
      <trkpt lat="48.205" lon="6.66975">
        <ele>564.80004882812</ele>
        <time>2026-09-03T15:15:06.000Z</time>
      </trkpt>
      <trkpt lat="48.205" lon="6.66976">
        <ele>564.80004882812</ele>
        <time>2026-09-03T15:15:07.000Z</time>
      </trkpt>
      <trkpt lat="48.20501" lon="6.66977">
        <ele>564.59997558594</ele>
        <time>2026-09-03T15:15:08.000Z</time>
      </trkpt>
      <trkpt lat="48.20501" lon="6.66978">
        <ele>564.40002441406</ele>
        <time>2026-09-03T15:15:09.000Z</time>
      </trkpt>
      <trkpt lat="48.20502" lon="6.6698">
        <ele>564.19995117188</ele>
        <time>2026-09-03T15:15:10.000Z</time>
      </trkpt>
      <trkpt lat="48.20502" lon="6.66982">
        <ele>564</ele>
        <time>2026-09-03T15:15:11.000Z</time>
      </trkpt>
      <trkpt lat="48.20503" lon="6.66983">
        <ele>563.59997558594</ele>
        <time>2026-09-03T15:15:12.000Z</time>
      </trkpt>
      <trkpt lat="48.20503" lon="6.66985">
        <ele>563.40002441406</ele>
        <time>2026-09-03T15:15:13.000Z</time>
      </trkpt>
      <trkpt lat="48.20504" lon="6.66986">
        <ele>563.19995117188</ele>
        <time>2026-09-03T15:15:14.000Z</time>
      </trkpt>
      <trkpt lat="48.20504" lon="6.66988">
        <ele>563</ele>
        <time>2026-09-03T15:15:15.000Z</time>
      </trkpt>
      <trkpt lat="48.20505" lon="6.66989">
        <ele>562.80004882812</ele>
        <time>2026-09-03T15:15:16.000Z</time>
      </trkpt>
      <trkpt lat="48.20506" lon="6.66989">
        <ele>562.59997558594</ele>
        <time>2026-09-03T15:15:17.000Z</time>
      </trkpt>
      <trkpt lat="48.20506" lon="6.66989">
        <ele>562.59997558594</ele>
        <time>2026-09-03T15:15:18.000Z</time>
      </trkpt>
      <trkpt lat="48.20507" lon="6.66991">
        <ele>562.40002441406</ele>
        <time>2026-09-03T15:15:19.000Z</time>
      </trkpt>
      <trkpt lat="48.20508" lon="6.66991">
        <ele>562.19995117188</ele>
        <time>2026-09-03T15:15:20.000Z</time>
      </trkpt>
      <trkpt lat="48.20508" lon="6.66992">
        <ele>562</ele>
        <time>2026-09-03T15:15:21.000Z</time>
      </trkpt>
      <trkpt lat="48.20509" lon="6.66993">
        <ele>562</ele>
        <time>2026-09-03T15:15:22.000Z</time>
      </trkpt>
      <trkpt lat="48.20509" lon="6.66994">
        <ele>561.80004882812</ele>
        <time>2026-09-03T15:15:23.000Z</time>
      </trkpt>
      <trkpt lat="48.2051" lon="6.66994">
        <ele>561.59997558594</ele>
        <time>2026-09-03T15:15:24.000Z</time>
      </trkpt>
      <trkpt lat="48.2051" lon="6.66995">
        <ele>561.59997558594</ele>
        <time>2026-09-03T15:15:25.000Z</time>
      </trkpt>
      <trkpt lat="48.20511" lon="6.66995">
        <ele>561.40002441406</ele>
        <time>2026-09-03T15:15:26.000Z</time>
      </trkpt>
      <trkpt lat="48.20511" lon="6.66996">
        <ele>561.19995117188</ele>
        <time>2026-09-03T15:15:27.000Z</time>
      </trkpt>
      <trkpt lat="48.20512" lon="6.66997">
        <ele>561</ele>
        <time>2026-09-03T15:15:28.000Z</time>
      </trkpt>
      <trkpt lat="48.20512" lon="6.66997">
        <ele>560.80004882812</ele>
        <time>2026-09-03T15:15:29.000Z</time>
      </trkpt>
      <trkpt lat="48.20512" lon="6.66998">
        <ele>560.40002441406</ele>
        <time>2026-09-03T15:15:30.000Z</time>
      </trkpt>
      <trkpt lat="48.20512" lon="6.66998">
        <ele>560.19995117188</ele>
        <time>2026-09-03T15:15:31.000Z</time>
      </trkpt>
      <trkpt lat="48.20512" lon="6.66998">
        <ele>560</ele>
        <time>2026-09-03T15:15:32.000Z</time>
      </trkpt>
      <trkpt lat="48.20511" lon="6.66997">
        <ele>559.80004882812</ele>
        <time>2026-09-03T15:15:33.000Z</time>
      </trkpt>
      <trkpt lat="48.20511" lon="6.66997">
        <ele>559.59997558594</ele>
        <time>2026-09-03T15:15:34.000Z</time>
      </trkpt>
      <trkpt lat="48.2051" lon="6.66997">
        <ele>559.59997558594</ele>
        <time>2026-09-03T15:15:35.000Z</time>
      </trkpt>
      <trkpt lat="48.20509" lon="6.66997">
        <ele>559.59997558594</ele>
        <time>2026-09-03T15:15:36.000Z</time>
      </trkpt>
      <trkpt lat="48.20509" lon="6.66997">
        <ele>559.59997558594</ele>
        <time>2026-09-03T15:15:37.000Z</time>
      </trkpt>
      <trkpt lat="48.20509" lon="6.66997">
        <ele>559.59997558594</ele>
        <time>2026-09-03T15:15:38.000Z</time>
      </trkpt>
      <trkpt lat="48.20509" lon="6.66998">
        <ele>559.59997558594</ele>
        <time>2026-09-03T15:15:39.000Z</time>
      </trkpt>
      <trkpt lat="48.20509" lon="6.66998">
        <ele>559.80004882812</ele>
        <time>2026-09-03T15:15:40.000Z</time>
      </trkpt>
      <trkpt lat="48.20508" lon="6.66998">
        <ele>559.80004882812</ele>
        <time>2026-09-03T15:15:41.000Z</time>
      </trkpt>
      <trkpt lat="48.20507" lon="6.66997">
        <ele>560</ele>
        <time>2026-09-03T15:15:42.000Z</time>
      </trkpt>
      <trkpt lat="48.20507" lon="6.66996">
        <ele>560</ele>
        <time>2026-09-03T15:15:43.000Z</time>
      </trkpt>
      <trkpt lat="48.20506" lon="6.66996">
        <ele>560.19995117188</ele>
        <time>2026-09-03T15:15:44.000Z</time>
      </trkpt>
      <trkpt lat="48.20505" lon="6.66996">
        <ele>560.40002441406</ele>
        <time>2026-09-03T15:15:45.000Z</time>
      </trkpt>
      <trkpt lat="48.20505" lon="6.66996">
        <ele>560.59997558594</ele>
        <time>2026-09-03T15:15:46.000Z</time>
      </trkpt>
      <trkpt lat="48.20504" lon="6.66996">
        <ele>560.59997558594</ele>
        <time>2026-09-03T15:15:47.000Z</time>
      </trkpt>
      <trkpt lat="48.20504" lon="6.66995">
        <ele>560.80004882812</ele>
        <time>2026-09-03T15:15:48.000Z</time>
      </trkpt>
      <trkpt lat="48.20504" lon="6.66995">
        <ele>560.80004882812</ele>
        <time>2026-09-03T15:15:49.000Z</time>
      </trkpt>
      <trkpt lat="48.20504" lon="6.66995">
        <ele>560.80004882812</ele>
        <time>2026-09-03T15:15:50.000Z</time>
      </trkpt>
      <trkpt lat="48.20504" lon="6.66995">
        <ele>561</ele>
        <time>2026-09-03T15:15:51.000Z</time>
      </trkpt>
      <trkpt lat="48.20503" lon="6.66995">
        <ele>561</ele>
        <time>2026-09-03T15:15:52.000Z</time>
      </trkpt>
      <trkpt lat="48.20503" lon="6.66994">
        <ele>561</ele>
        <time>2026-09-03T15:15:53.000Z</time>
      </trkpt>
      <trkpt lat="48.20502" lon="6.66993">
        <ele>561.19995117188</ele>
        <time>2026-09-03T15:15:54.000Z</time>
      </trkpt>
      <trkpt lat="48.20502" lon="6.66993">
        <ele>561.40002441406</ele>
        <time>2026-09-03T15:15:55.000Z</time>
      </trkpt>
      <trkpt lat="48.20501" lon="6.66992">
        <ele>561.59997558594</ele>
        <time>2026-09-03T15:15:56.000Z</time>
      </trkpt>
      <trkpt lat="48.20502" lon="6.66993">
        <ele>561.59997558594</ele>
        <time>2026-09-03T15:15:57.000Z</time>
      </trkpt>
      <trkpt lat="48.20502" lon="6.66993">
        <ele>561.80004882812</ele>
        <time>2026-09-03T15:15:58.000Z</time>
      </trkpt>
      <trkpt lat="48.20503" lon="6.66993">
        <ele>561.80004882812</ele>
        <time>2026-09-03T15:15:59.000Z</time>
      </trkpt>
      <trkpt lat="48.20503" lon="6.66993">
        <ele>561.80004882812</ele>
        <time>2026-09-03T15:16:00.000Z</time>
      </trkpt>
      <trkpt lat="48.20504" lon="6.66992">
        <ele>561.80004882812</ele>
        <time>2026-09-03T15:16:01.000Z</time>
      </trkpt>
      <trkpt lat="48.20504" lon="6.66992">
        <ele>561.80004882812</ele>
        <time>2026-09-03T15:16:02.000Z</time>
      </trkpt>
      <trkpt lat="48.20504" lon="6.66992">
        <ele>561.59997558594</ele>
        <time>2026-09-03T15:16:03.000Z</time>
      </trkpt>
      <trkpt lat="48.20504" lon="6.66992">
        <ele>561.59997558594</ele>
        <time>2026-09-03T15:16:04.000Z</time>
      </trkpt>
      <trkpt lat="48.20504" lon="6.66992">
        <ele>561.59997558594</ele>
        <time>2026-09-03T15:16:05.000Z</time>
      </trkpt>
      <trkpt lat="48.20504" lon="6.66992">
        <ele>561.59997558594</ele>
        <time>2026-09-03T15:16:06.000Z</time>
      </trkpt>
      <trkpt lat="48.20504" lon="6.66992">
        <ele>561.59997558594</ele>
        <time>2026-09-03T15:16:07.000Z</time>
      </trkpt>
      <trkpt lat="48.20504" lon="6.66992">
        <ele>561.59997558594</ele>
        <time>2026-09-03T15:16:08.000Z</time>
      </trkpt>
      <trkpt lat="48.20504" lon="6.66992">
        <ele>561.80004882812</ele>
        <time>2026-09-03T15:16:09.000Z</time>
      </trkpt>
      <trkpt lat="48.20504" lon="6.66992">
        <ele>561.80004882812</ele>
        <time>2026-09-03T15:16:10.000Z</time>
      </trkpt>
      <trkpt lat="48.20504" lon="6.66992">
        <ele>561.80004882812</ele>
        <time>2026-09-03T15:16:11.000Z</time>
      </trkpt>
      <trkpt lat="48.20505" lon="6.66992">
        <ele>561.80004882812</ele>
        <time>2026-09-03T15:16:12.000Z</time>
      </trkpt>
      <trkpt lat="48.20505" lon="6.66991">
        <ele>561.80004882812</ele>
        <time>2026-09-03T15:16:13.000Z</time>
      </trkpt>
      <trkpt lat="48.20505" lon="6.66991">
        <ele>561.80004882812</ele>
        <time>2026-09-03T15:16:14.000Z</time>
      </trkpt>
      <trkpt lat="48.20505" lon="6.66991">
        <ele>561.59997558594</ele>
        <time>2026-09-03T15:16:15.000Z</time>
      </trkpt>
      <trkpt lat="48.20507" lon="6.66991">
        <ele>561.40002441406</ele>
        <time>2026-09-03T15:16:16.000Z</time>
      </trkpt>
      <trkpt lat="48.20508" lon="6.66992">
        <ele>561.40002441406</ele>
        <time>2026-09-03T15:16:17.000Z</time>
      </trkpt>
      <trkpt lat="48.20508" lon="6.66993">
        <ele>561.19995117188</ele>
        <time>2026-09-03T15:16:18.000Z</time>
      </trkpt>
      <trkpt lat="48.20509" lon="6.66993">
        <ele>561</ele>
        <time>2026-09-03T15:16:19.000Z</time>
      </trkpt>
      <trkpt lat="48.2051" lon="6.66994">
        <ele>560.80004882812</ele>
        <time>2026-09-03T15:16:20.000Z</time>
      </trkpt>
      <trkpt lat="48.2051" lon="6.66994">
        <ele>560.59997558594</ele>
        <time>2026-09-03T15:16:21.000Z</time>
      </trkpt>
      <trkpt lat="48.2051" lon="6.66995">
        <ele>560.40002441406</ele>
        <time>2026-09-03T15:16:22.000Z</time>
      </trkpt>
      <trkpt lat="48.2051" lon="6.66997">
        <ele>560.40002441406</ele>
        <time>2026-09-03T15:16:23.000Z</time>
      </trkpt>
      <trkpt lat="48.20511" lon="6.66997">
        <ele>560.19995117188</ele>
        <time>2026-09-03T15:16:24.000Z</time>
      </trkpt>
      <trkpt lat="48.20511" lon="6.66997">
        <ele>560</ele>
        <time>2026-09-03T15:16:25.000Z</time>
      </trkpt>
      <trkpt lat="48.20512" lon="6.66998">
        <ele>559.80004882812</ele>
        <time>2026-09-03T15:16:26.000Z</time>
      </trkpt>
      <trkpt lat="48.20513" lon="6.66998">
        <ele>559.59997558594</ele>
        <time>2026-09-03T15:16:27.000Z</time>
      </trkpt>
      <trkpt lat="48.20513" lon="6.66999">
        <ele>559.40002441406</ele>
        <time>2026-09-03T15:16:28.000Z</time>
      </trkpt>
      <trkpt lat="48.20515" lon="6.66999">
        <ele>559.19995117188</ele>
        <time>2026-09-03T15:16:29.000Z</time>
      </trkpt>
      <trkpt lat="48.20516" lon="6.67">
        <ele>559.19995117188</ele>
        <time>2026-09-03T15:16:30.000Z</time>
      </trkpt>
      <trkpt lat="48.20517" lon="6.67001">
        <ele>559</ele>
        <time>2026-09-03T15:16:31.000Z</time>
      </trkpt>
      <trkpt lat="48.20518" lon="6.67002">
        <ele>558.80004882812</ele>
        <time>2026-09-03T15:16:32.000Z</time>
      </trkpt>
      <trkpt lat="48.20518" lon="6.67002">
        <ele>558.59997558594</ele>
        <time>2026-09-03T15:16:33.000Z</time>
      </trkpt>
      <trkpt lat="48.20518" lon="6.67002">
        <ele>558.59997558594</ele>
        <time>2026-09-03T15:16:34.000Z</time>
      </trkpt>
      <trkpt lat="48.2052" lon="6.67002">
        <ele>558.40002441406</ele>
        <time>2026-09-03T15:16:35.000Z</time>
      </trkpt>
      <trkpt lat="48.2052" lon="6.67003">
        <ele>558.40002441406</ele>
        <time>2026-09-03T15:16:36.000Z</time>
      </trkpt>
      <trkpt lat="48.20521" lon="6.67003">
        <ele>558.19995117188</ele>
        <time>2026-09-03T15:16:37.000Z</time>
      </trkpt>
      <trkpt lat="48.20522" lon="6.67003">
        <ele>558</ele>
        <time>2026-09-03T15:16:38.000Z</time>
      </trkpt>
      <trkpt lat="48.20523" lon="6.67002">
        <ele>557.80004882812</ele>
        <time>2026-09-03T15:16:39.000Z</time>
      </trkpt>
      <trkpt lat="48.20523" lon="6.67002">
        <ele>557.59997558594</ele>
        <time>2026-09-03T15:16:40.000Z</time>
      </trkpt>
      <trkpt lat="48.20524" lon="6.67002">
        <ele>557.40002441406</ele>
        <time>2026-09-03T15:16:41.000Z</time>
      </trkpt>
      <trkpt lat="48.20525" lon="6.67002">
        <ele>557.19995117188</ele>
        <time>2026-09-03T15:16:42.000Z</time>
      </trkpt>
      <trkpt lat="48.20525" lon="6.67001">
        <ele>557.19995117188</ele>
        <time>2026-09-03T15:16:43.000Z</time>
      </trkpt>
      <trkpt lat="48.20527" lon="6.67001">
        <ele>557</ele>
        <time>2026-09-03T15:16:44.000Z</time>
      </trkpt>
      <trkpt lat="48.20528" lon="6.67">
        <ele>556.80004882812</ele>
        <time>2026-09-03T15:16:45.000Z</time>
      </trkpt>
      <trkpt lat="48.20529" lon="6.67">
        <ele>556.59997558594</ele>
        <time>2026-09-03T15:16:46.000Z</time>
      </trkpt>
      <trkpt lat="48.2053" lon="6.67">
        <ele>556.40002441406</ele>
        <time>2026-09-03T15:16:47.000Z</time>
      </trkpt>
      <trkpt lat="48.2053" lon="6.67">
        <ele>556.19995117188</ele>
        <time>2026-09-03T15:16:48.000Z</time>
      </trkpt>
      <trkpt lat="48.20532" lon="6.67">
        <ele>556</ele>
        <time>2026-09-03T15:16:49.000Z</time>
      </trkpt>
      <trkpt lat="48.20533" lon="6.66999">
        <ele>556</ele>
        <time>2026-09-03T15:16:50.000Z</time>
      </trkpt>
      <trkpt lat="48.20534" lon="6.66999">
        <ele>555.80004882812</ele>
        <time>2026-09-03T15:16:51.000Z</time>
      </trkpt>
      <trkpt lat="48.20535" lon="6.66998">
        <ele>555.59997558594</ele>
        <time>2026-09-03T15:16:52.000Z</time>
      </trkpt>
      <trkpt lat="48.20536" lon="6.66998">
        <ele>555.40002441406</ele>
        <time>2026-09-03T15:16:53.000Z</time>
      </trkpt>
      <trkpt lat="48.20537" lon="6.66998">
        <ele>555.19995117188</ele>
        <time>2026-09-03T15:16:54.000Z</time>
      </trkpt>
      <trkpt lat="48.20538" lon="6.66998">
        <ele>555</ele>
        <time>2026-09-03T15:16:55.000Z</time>
      </trkpt>
      <trkpt lat="48.20538" lon="6.66998">
        <ele>554.80004882812</ele>
        <time>2026-09-03T15:16:56.000Z</time>
      </trkpt>
      <trkpt lat="48.20539" lon="6.66997">
        <ele>554.59997558594</ele>
        <time>2026-09-03T15:16:57.000Z</time>
      </trkpt>
      <trkpt lat="48.2054" lon="6.66997">
        <ele>554.40002441406</ele>
        <time>2026-09-03T15:16:58.000Z</time>
      </trkpt>
      <trkpt lat="48.2054" lon="6.66996">
        <ele>554.19995117188</ele>
        <time>2026-09-03T15:16:59.000Z</time>
      </trkpt>
      <trkpt lat="48.20542" lon="6.66995">
        <ele>554</ele>
        <time>2026-09-03T15:17:00.000Z</time>
      </trkpt>
      <trkpt lat="48.20542" lon="6.66995">
        <ele>553.80004882812</ele>
        <time>2026-09-03T15:17:01.000Z</time>
      </trkpt>
      <trkpt lat="48.20544" lon="6.66995">
        <ele>553.59997558594</ele>
        <time>2026-09-03T15:17:02.000Z</time>
      </trkpt>
      <trkpt lat="48.20544" lon="6.66994">
        <ele>553.40002441406</ele>
        <time>2026-09-03T15:17:03.000Z</time>
      </trkpt>
      <trkpt lat="48.20545" lon="6.66994">
        <ele>553.19995117188</ele>
        <time>2026-09-03T15:17:04.000Z</time>
      </trkpt>
      <trkpt lat="48.20546" lon="6.66994">
        <ele>553</ele>
        <time>2026-09-03T15:17:05.000Z</time>
      </trkpt>
      <trkpt lat="48.20546" lon="6.66993">
        <ele>552.80004882812</ele>
        <time>2026-09-03T15:17:06.000Z</time>
      </trkpt>
      <trkpt lat="48.20547" lon="6.66993">
        <ele>552.80004882812</ele>
        <time>2026-09-03T15:17:07.000Z</time>
      </trkpt>
      <trkpt lat="48.20549" lon="6.66992">
        <ele>552.59997558594</ele>
        <time>2026-09-03T15:17:08.000Z</time>
      </trkpt>
      <trkpt lat="48.2055" lon="6.6699">
        <ele>552.40002441406</ele>
        <time>2026-09-03T15:17:09.000Z</time>
      </trkpt>
      <trkpt lat="48.20551" lon="6.66989">
        <ele>552</ele>
        <time>2026-09-03T15:17:10.000Z</time>
      </trkpt>
      <trkpt lat="48.20552" lon="6.66988">
        <ele>551.80004882812</ele>
        <time>2026-09-03T15:17:11.000Z</time>
      </trkpt>
      <trkpt lat="48.20552" lon="6.66987">
        <ele>551.40002441406</ele>
        <time>2026-09-03T15:17:12.000Z</time>
      </trkpt>
      <trkpt lat="48.20553" lon="6.66986">
        <ele>551.19995117188</ele>
        <time>2026-09-03T15:17:13.000Z</time>
      </trkpt>
      <trkpt lat="48.20554" lon="6.66985">
        <ele>551</ele>
        <time>2026-09-03T15:17:14.000Z</time>
      </trkpt>
      <trkpt lat="48.20554" lon="6.66983">
        <ele>551</ele>
        <time>2026-09-03T15:17:15.000Z</time>
      </trkpt>
      <trkpt lat="48.20555" lon="6.66982">
        <ele>551</ele>
        <time>2026-09-03T15:17:16.000Z</time>
      </trkpt>
      <trkpt lat="48.20555" lon="6.66981">
        <ele>550.80004882812</ele>
        <time>2026-09-03T15:17:17.000Z</time>
      </trkpt>
      <trkpt lat="48.20556" lon="6.6698">
        <ele>550.59997558594</ele>
        <time>2026-09-03T15:17:18.000Z</time>
      </trkpt>
      <trkpt lat="48.20557" lon="6.66979">
        <ele>550.40002441406</ele>
        <time>2026-09-03T15:17:19.000Z</time>
      </trkpt>
      <trkpt lat="48.20558" lon="6.66978">
        <ele>550.19995117188</ele>
        <time>2026-09-03T15:17:20.000Z</time>
      </trkpt>
      <trkpt lat="48.20558" lon="6.66977">
        <ele>550.19995117188</ele>
        <time>2026-09-03T15:17:21.000Z</time>
      </trkpt>
      <trkpt lat="48.20559" lon="6.66976">
        <ele>550</ele>
        <time>2026-09-03T15:17:22.000Z</time>
      </trkpt>
      <trkpt lat="48.2056" lon="6.66975">
        <ele>549.80004882812</ele>
        <time>2026-09-03T15:17:23.000Z</time>
      </trkpt>
      <trkpt lat="48.20561" lon="6.66973">
        <ele>549.59997558594</ele>
        <time>2026-09-03T15:17:24.000Z</time>
      </trkpt>
      <trkpt lat="48.20561" lon="6.66972">
        <ele>549.40002441406</ele>
        <time>2026-09-03T15:17:25.000Z</time>
      </trkpt>
      <trkpt lat="48.20562" lon="6.66971">
        <ele>549.19995117188</ele>
        <time>2026-09-03T15:17:26.000Z</time>
      </trkpt>
      <trkpt lat="48.20562" lon="6.6697">
        <ele>549</ele>
        <time>2026-09-03T15:17:27.000Z</time>
      </trkpt>
      <trkpt lat="48.20563" lon="6.66969">
        <ele>548.80004882812</ele>
        <time>2026-09-03T15:17:28.000Z</time>
      </trkpt>
      <trkpt lat="48.20563" lon="6.66967">
        <ele>548.59997558594</ele>
        <time>2026-09-03T15:17:29.000Z</time>
      </trkpt>
      <trkpt lat="48.20563" lon="6.66965">
        <ele>548.40002441406</ele>
        <time>2026-09-03T15:17:30.000Z</time>
      </trkpt>
      <trkpt lat="48.20564" lon="6.66964">
        <ele>548.19995117188</ele>
        <time>2026-09-03T15:17:31.000Z</time>
      </trkpt>
      <trkpt lat="48.20564" lon="6.66963">
        <ele>548</ele>
        <time>2026-09-03T15:17:32.000Z</time>
      </trkpt>
      <trkpt lat="48.20565" lon="6.66962">
        <ele>547.80004882812</ele>
        <time>2026-09-03T15:17:33.000Z</time>
      </trkpt>
      <trkpt lat="48.20565" lon="6.66961">
        <ele>547.59997558594</ele>
        <time>2026-09-03T15:17:34.000Z</time>
      </trkpt>
      <trkpt lat="48.20566" lon="6.6696">
        <ele>547.40002441406</ele>
        <time>2026-09-03T15:17:35.000Z</time>
      </trkpt>
      <trkpt lat="48.20567" lon="6.66959">
        <ele>547.19995117188</ele>
        <time>2026-09-03T15:17:36.000Z</time>
      </trkpt>
      <trkpt lat="48.20567" lon="6.66958">
        <ele>547</ele>
        <time>2026-09-03T15:17:37.000Z</time>
      </trkpt>
      <trkpt lat="48.20567" lon="6.66958">
        <ele>546.80004882812</ele>
        <time>2026-09-03T15:17:38.000Z</time>
      </trkpt>
      <trkpt lat="48.20568" lon="6.66956">
        <ele>546.59997558594</ele>
        <time>2026-09-03T15:17:39.000Z</time>
      </trkpt>
      <trkpt lat="48.20567" lon="6.66956">
        <ele>546.40002441406</ele>
        <time>2026-09-03T15:17:40.000Z</time>
      </trkpt>
      <trkpt lat="48.20568" lon="6.66955">
        <ele>546.40002441406</ele>
        <time>2026-09-03T15:17:41.000Z</time>
      </trkpt>
      <trkpt lat="48.20568" lon="6.66954">
        <ele>546.19995117188</ele>
        <time>2026-09-03T15:17:42.000Z</time>
      </trkpt>
      <trkpt lat="48.20568" lon="6.66952">
        <ele>546</ele>
        <time>2026-09-03T15:17:43.000Z</time>
      </trkpt>
      <trkpt lat="48.20568" lon="6.66951">
        <ele>545.80004882812</ele>
        <time>2026-09-03T15:17:44.000Z</time>
      </trkpt>
      <trkpt lat="48.20569" lon="6.6695">
        <ele>545.59997558594</ele>
        <time>2026-09-03T15:17:45.000Z</time>
      </trkpt>
      <trkpt lat="48.2057" lon="6.66948">
        <ele>545.40002441406</ele>
        <time>2026-09-03T15:17:46.000Z</time>
      </trkpt>
      <trkpt lat="48.2057" lon="6.66946">
        <ele>545.19995117188</ele>
        <time>2026-09-03T15:17:47.000Z</time>
      </trkpt>
      <trkpt lat="48.2057" lon="6.66944">
        <ele>545</ele>
        <time>2026-09-03T15:17:48.000Z</time>
      </trkpt>
      <trkpt lat="48.20571" lon="6.66943">
        <ele>544.80004882812</ele>
        <time>2026-09-03T15:17:49.000Z</time>
      </trkpt>
      <trkpt lat="48.20571" lon="6.66942">
        <ele>544.59997558594</ele>
        <time>2026-09-03T15:17:50.000Z</time>
      </trkpt>
      <trkpt lat="48.20571" lon="6.66942">
        <ele>544.40002441406</ele>
        <time>2026-09-03T15:17:51.000Z</time>
      </trkpt>
      <trkpt lat="48.20572" lon="6.6694">
        <ele>544.40002441406</ele>
        <time>2026-09-03T15:17:52.000Z</time>
      </trkpt>
      <trkpt lat="48.20572" lon="6.6694">
        <ele>544.19995117188</ele>
        <time>2026-09-03T15:17:53.000Z</time>
      </trkpt>
      <trkpt lat="48.20572" lon="6.6694">
        <ele>544</ele>
        <time>2026-09-03T15:17:54.000Z</time>
      </trkpt>
      <trkpt lat="48.20572" lon="6.66939">
        <ele>543.80004882812</ele>
        <time>2026-09-03T15:17:55.000Z</time>
      </trkpt>
      <trkpt lat="48.20573" lon="6.66937">
        <ele>543.59997558594</ele>
        <time>2026-09-03T15:17:56.000Z</time>
      </trkpt>
      <trkpt lat="48.20573" lon="6.66936">
        <ele>543.19995117188</ele>
        <time>2026-09-03T15:17:57.000Z</time>
      </trkpt>
      <trkpt lat="48.20573" lon="6.66934">
        <ele>543</ele>
        <time>2026-09-03T15:17:58.000Z</time>
      </trkpt>
      <trkpt lat="48.20573" lon="6.66933">
        <ele>542.80004882812</ele>
        <time>2026-09-03T15:17:59.000Z</time>
      </trkpt>
      <trkpt lat="48.20573" lon="6.66931">
        <ele>542.59997558594</ele>
        <time>2026-09-03T15:18:00.000Z</time>
      </trkpt>
      <trkpt lat="48.20573" lon="6.6693">
        <ele>542.59997558594</ele>
        <time>2026-09-03T15:18:01.000Z</time>
      </trkpt>
      <trkpt lat="48.20574" lon="6.66928">
        <ele>542.40002441406</ele>
        <time>2026-09-03T15:18:02.000Z</time>
      </trkpt>
      <trkpt lat="48.20574" lon="6.66927">
        <ele>542.40002441406</ele>
        <time>2026-09-03T15:18:03.000Z</time>
      </trkpt>
      <trkpt lat="48.20574" lon="6.66925">
        <ele>542.19995117188</ele>
        <time>2026-09-03T15:18:04.000Z</time>
      </trkpt>
      <trkpt lat="48.20574" lon="6.66923">
        <ele>542.19995117188</ele>
        <time>2026-09-03T15:18:05.000Z</time>
      </trkpt>
      <trkpt lat="48.20575" lon="6.66921">
        <ele>542</ele>
        <time>2026-09-03T15:18:06.000Z</time>
      </trkpt>
      <trkpt lat="48.20575" lon="6.6692">
        <ele>541.80004882812</ele>
        <time>2026-09-03T15:18:07.000Z</time>
      </trkpt>
      <trkpt lat="48.20575" lon="6.66919">
        <ele>541.59997558594</ele>
        <time>2026-09-03T15:18:08.000Z</time>
      </trkpt>
      <trkpt lat="48.20575" lon="6.66917">
        <ele>541.40002441406</ele>
        <time>2026-09-03T15:18:09.000Z</time>
      </trkpt>
      <trkpt lat="48.20575" lon="6.66916">
        <ele>541.19995117188</ele>
        <time>2026-09-03T15:18:10.000Z</time>
      </trkpt>
      <trkpt lat="48.20575" lon="6.66914">
        <ele>541.19995117188</ele>
        <time>2026-09-03T15:18:11.000Z</time>
      </trkpt>
      <trkpt lat="48.20576" lon="6.66913">
        <ele>541</ele>
        <time>2026-09-03T15:18:12.000Z</time>
      </trkpt>
      <trkpt lat="48.20576" lon="6.6691">
        <ele>540.80004882812</ele>
        <time>2026-09-03T15:18:13.000Z</time>
      </trkpt>
      <trkpt lat="48.20577" lon="6.66908">
        <ele>540.80004882812</ele>
        <time>2026-09-03T15:18:14.000Z</time>
      </trkpt>
      <trkpt lat="48.20577" lon="6.66906">
        <ele>540.59997558594</ele>
        <time>2026-09-03T15:18:15.000Z</time>
      </trkpt>
      <trkpt lat="48.20577" lon="6.66904">
        <ele>540.59997558594</ele>
        <time>2026-09-03T15:18:16.000Z</time>
      </trkpt>
      <trkpt lat="48.20577" lon="6.66902">
        <ele>540.40002441406</ele>
        <time>2026-09-03T15:18:17.000Z</time>
      </trkpt>
      <trkpt lat="48.20577" lon="6.66901">
        <ele>540.40002441406</ele>
        <time>2026-09-03T15:18:18.000Z</time>
      </trkpt>
      <trkpt lat="48.20578" lon="6.669">
        <ele>540.19995117188</ele>
        <time>2026-09-03T15:18:19.000Z</time>
      </trkpt>
      <trkpt lat="48.20578" lon="6.66899">
        <ele>540</ele>
        <time>2026-09-03T15:18:20.000Z</time>
      </trkpt>
      <trkpt lat="48.20578" lon="6.66898">
        <ele>539.80004882812</ele>
        <time>2026-09-03T15:18:21.000Z</time>
      </trkpt>
      <trkpt lat="48.20579" lon="6.66896">
        <ele>539.80004882812</ele>
        <time>2026-09-03T15:18:22.000Z</time>
      </trkpt>
      <trkpt lat="48.20579" lon="6.66894">
        <ele>539.59997558594</ele>
        <time>2026-09-03T15:18:23.000Z</time>
      </trkpt>
      <trkpt lat="48.20579" lon="6.66894">
        <ele>539.59997558594</ele>
        <time>2026-09-03T15:18:24.000Z</time>
      </trkpt>
      <trkpt lat="48.20579" lon="6.66893">
        <ele>539.40002441406</ele>
        <time>2026-09-03T15:18:25.000Z</time>
      </trkpt>
      <trkpt lat="48.2058" lon="6.66892">
        <ele>539.40002441406</ele>
        <time>2026-09-03T15:18:26.000Z</time>
      </trkpt>
      <trkpt lat="48.20581" lon="6.66891">
        <ele>539.19995117188</ele>
        <time>2026-09-03T15:18:27.000Z</time>
      </trkpt>
      <trkpt lat="48.20581" lon="6.66891">
        <ele>539</ele>
        <time>2026-09-03T15:18:28.000Z</time>
      </trkpt>
      <trkpt lat="48.20582" lon="6.6689">
        <ele>539</ele>
        <time>2026-09-03T15:18:29.000Z</time>
      </trkpt>
      <trkpt lat="48.20583" lon="6.6689">
        <ele>538.80004882812</ele>
        <time>2026-09-03T15:18:30.000Z</time>
      </trkpt>
      <trkpt lat="48.20583" lon="6.66889">
        <ele>538.59997558594</ele>
        <time>2026-09-03T15:18:31.000Z</time>
      </trkpt>
      <trkpt lat="48.20584" lon="6.66889">
        <ele>538.40002441406</ele>
        <time>2026-09-03T15:18:32.000Z</time>
      </trkpt>
      <trkpt lat="48.20585" lon="6.66888">
        <ele>538.19995117188</ele>
        <time>2026-09-03T15:18:33.000Z</time>
      </trkpt>
      <trkpt lat="48.20586" lon="6.66888">
        <ele>538</ele>
        <time>2026-09-03T15:18:34.000Z</time>
      </trkpt>
      <trkpt lat="48.20587" lon="6.66888">
        <ele>538</ele>
        <time>2026-09-03T15:18:35.000Z</time>
      </trkpt>
      <trkpt lat="48.20589" lon="6.66887">
        <ele>537.80004882812</ele>
        <time>2026-09-03T15:18:36.000Z</time>
      </trkpt>
      <trkpt lat="48.2059" lon="6.66886">
        <ele>537.59997558594</ele>
        <time>2026-09-03T15:18:37.000Z</time>
      </trkpt>
      <trkpt lat="48.20591" lon="6.66886">
        <ele>537.40002441406</ele>
        <time>2026-09-03T15:18:38.000Z</time>
      </trkpt>
      <trkpt lat="48.20592" lon="6.66885">
        <ele>537.19995117188</ele>
        <time>2026-09-03T15:18:39.000Z</time>
      </trkpt>
      <trkpt lat="48.20593" lon="6.66885">
        <ele>537</ele>
        <time>2026-09-03T15:18:40.000Z</time>
      </trkpt>
      <trkpt lat="48.20594" lon="6.66886">
        <ele>537</ele>
        <time>2026-09-03T15:18:41.000Z</time>
      </trkpt>
      <trkpt lat="48.20595" lon="6.66886">
        <ele>536.80004882812</ele>
        <time>2026-09-03T15:18:42.000Z</time>
      </trkpt>
      <trkpt lat="48.20596" lon="6.66886">
        <ele>536.40002441406</ele>
        <time>2026-09-03T15:18:43.000Z</time>
      </trkpt>
      <trkpt lat="48.20597" lon="6.66886">
        <ele>536.40002441406</ele>
        <time>2026-09-03T15:18:44.000Z</time>
      </trkpt>
      <trkpt lat="48.20599" lon="6.66886">
        <ele>536.19995117188</ele>
        <time>2026-09-03T15:18:45.000Z</time>
      </trkpt>
      <trkpt lat="48.20599" lon="6.66887">
        <ele>536</ele>
        <time>2026-09-03T15:18:46.000Z</time>
      </trkpt>
      <trkpt lat="48.206" lon="6.66888">
        <ele>535.80004882812</ele>
        <time>2026-09-03T15:18:47.000Z</time>
      </trkpt>
      <trkpt lat="48.20601" lon="6.66889">
        <ele>535.59997558594</ele>
        <time>2026-09-03T15:18:48.000Z</time>
      </trkpt>
      <trkpt lat="48.20603" lon="6.6689">
        <ele>535.59997558594</ele>
        <time>2026-09-03T15:18:49.000Z</time>
      </trkpt>
      <trkpt lat="48.20605" lon="6.66891">
        <ele>535.40002441406</ele>
        <time>2026-09-03T15:18:50.000Z</time>
      </trkpt>
      <trkpt lat="48.20607" lon="6.66892">
        <ele>535</ele>
        <time>2026-09-03T15:18:51.000Z</time>
      </trkpt>
      <trkpt lat="48.20608" lon="6.66894">
        <ele>535</ele>
        <time>2026-09-03T15:18:52.000Z</time>
      </trkpt>
      <trkpt lat="48.20609" lon="6.66895">
        <ele>534.80004882812</ele>
        <time>2026-09-03T15:18:53.000Z</time>
      </trkpt>
      <trkpt lat="48.2061" lon="6.66896">
        <ele>534.59997558594</ele>
        <time>2026-09-03T15:18:54.000Z</time>
      </trkpt>
      <trkpt lat="48.2061" lon="6.66896">
        <ele>534.40002441406</ele>
        <time>2026-09-03T15:18:55.000Z</time>
      </trkpt>
      <trkpt lat="48.20611" lon="6.66898">
        <ele>534.19995117188</ele>
        <time>2026-09-03T15:18:56.000Z</time>
      </trkpt>
      <trkpt lat="48.20612" lon="6.66899">
        <ele>534</ele>
        <time>2026-09-03T15:18:57.000Z</time>
      </trkpt>
      <trkpt lat="48.20612" lon="6.669">
        <ele>533.80004882812</ele>
        <time>2026-09-03T15:18:58.000Z</time>
      </trkpt>
      <trkpt lat="48.20612" lon="6.66901">
        <ele>533.59997558594</ele>
        <time>2026-09-03T15:18:59.000Z</time>
      </trkpt>
      <trkpt lat="48.20613" lon="6.66902">
        <ele>533.40002441406</ele>
        <time>2026-09-03T15:19:00.000Z</time>
      </trkpt>
      <trkpt lat="48.20614" lon="6.66903">
        <ele>533.19995117188</ele>
        <time>2026-09-03T15:19:01.000Z</time>
      </trkpt>
      <trkpt lat="48.20615" lon="6.66904">
        <ele>533</ele>
        <time>2026-09-03T15:19:02.000Z</time>
      </trkpt>
      <trkpt lat="48.20616" lon="6.66905">
        <ele>532.80004882812</ele>
        <time>2026-09-03T15:19:03.000Z</time>
      </trkpt>
      <trkpt lat="48.20616" lon="6.66907">
        <ele>532.59997558594</ele>
        <time>2026-09-03T15:19:04.000Z</time>
      </trkpt>
      <trkpt lat="48.20617" lon="6.66908">
        <ele>532.59997558594</ele>
        <time>2026-09-03T15:19:05.000Z</time>
      </trkpt>
      <trkpt lat="48.20617" lon="6.66909">
        <ele>532.40002441406</ele>
        <time>2026-09-03T15:19:06.000Z</time>
      </trkpt>
      <trkpt lat="48.20618" lon="6.6691">
        <ele>532.19995117188</ele>
        <time>2026-09-03T15:19:07.000Z</time>
      </trkpt>
      <trkpt lat="48.20618" lon="6.66911">
        <ele>532.19995117188</ele>
        <time>2026-09-03T15:19:08.000Z</time>
      </trkpt>
      <trkpt lat="48.20619" lon="6.66912">
        <ele>532</ele>
        <time>2026-09-03T15:19:09.000Z</time>
      </trkpt>
      <trkpt lat="48.2062" lon="6.66913">
        <ele>531.80004882812</ele>
        <time>2026-09-03T15:19:10.000Z</time>
      </trkpt>
      <trkpt lat="48.2062" lon="6.66914">
        <ele>531.59997558594</ele>
        <time>2026-09-03T15:19:11.000Z</time>
      </trkpt>
      <trkpt lat="48.20621" lon="6.66915">
        <ele>531.59997558594</ele>
        <time>2026-09-03T15:19:12.000Z</time>
      </trkpt>
      <trkpt lat="48.20622" lon="6.66916">
        <ele>531.40002441406</ele>
        <time>2026-09-03T15:19:13.000Z</time>
      </trkpt>
      <trkpt lat="48.20624" lon="6.66917">
        <ele>531.19995117188</ele>
        <time>2026-09-03T15:19:14.000Z</time>
      </trkpt>
      <trkpt lat="48.20625" lon="6.66919">
        <ele>531.19995117188</ele>
        <time>2026-09-03T15:19:15.000Z</time>
      </trkpt>
      <trkpt lat="48.20626" lon="6.6692">
        <ele>531.19995117188</ele>
        <time>2026-09-03T15:19:16.000Z</time>
      </trkpt>
      <trkpt lat="48.20627" lon="6.6692">
        <ele>531</ele>
        <time>2026-09-03T15:19:17.000Z</time>
      </trkpt>
      <trkpt lat="48.20628" lon="6.66921">
        <ele>530.80004882812</ele>
        <time>2026-09-03T15:19:18.000Z</time>
      </trkpt>
      <trkpt lat="48.20629" lon="6.66922">
        <ele>530.80004882812</ele>
        <time>2026-09-03T15:19:19.000Z</time>
      </trkpt>
      <trkpt lat="48.2063" lon="6.66922">
        <ele>530.59997558594</ele>
        <time>2026-09-03T15:19:20.000Z</time>
      </trkpt>
      <trkpt lat="48.2063" lon="6.66923">
        <ele>530.40002441406</ele>
        <time>2026-09-03T15:19:21.000Z</time>
      </trkpt>
      <trkpt lat="48.20631" lon="6.66924">
        <ele>530.40002441406</ele>
        <time>2026-09-03T15:19:22.000Z</time>
      </trkpt>
      <trkpt lat="48.20632" lon="6.66925">
        <ele>530.19995117188</ele>
        <time>2026-09-03T15:19:23.000Z</time>
      </trkpt>
      <trkpt lat="48.20632" lon="6.66926">
        <ele>530.19995117188</ele>
        <time>2026-09-03T15:19:24.000Z</time>
      </trkpt>
      <trkpt lat="48.20633" lon="6.66926">
        <ele>530</ele>
        <time>2026-09-03T15:19:25.000Z</time>
      </trkpt>
      <trkpt lat="48.20634" lon="6.66927">
        <ele>530</ele>
        <time>2026-09-03T15:19:26.000Z</time>
      </trkpt>
      <trkpt lat="48.20634" lon="6.66928">
        <ele>529.80004882812</ele>
        <time>2026-09-03T15:19:27.000Z</time>
      </trkpt>
      <trkpt lat="48.20635" lon="6.66928">
        <ele>529.80004882812</ele>
        <time>2026-09-03T15:19:28.000Z</time>
      </trkpt>
      <trkpt lat="48.20636" lon="6.66929">
        <ele>529.59997558594</ele>
        <time>2026-09-03T15:19:29.000Z</time>
      </trkpt>
      <trkpt lat="48.20636" lon="6.66931">
        <ele>529.59997558594</ele>
        <time>2026-09-03T15:19:30.000Z</time>
      </trkpt>
      <trkpt lat="48.20637" lon="6.66932">
        <ele>529.40002441406</ele>
        <time>2026-09-03T15:19:31.000Z</time>
      </trkpt>
      <trkpt lat="48.20637" lon="6.66933">
        <ele>529.19995117188</ele>
        <time>2026-09-03T15:19:32.000Z</time>
      </trkpt>
      <trkpt lat="48.20637" lon="6.66933">
        <ele>529.19995117188</ele>
        <time>2026-09-03T15:19:33.000Z</time>
      </trkpt>
      <trkpt lat="48.20637" lon="6.66934">
        <ele>529</ele>
        <time>2026-09-03T15:19:34.000Z</time>
      </trkpt>
      <trkpt lat="48.20638" lon="6.66935">
        <ele>528.80004882812</ele>
        <time>2026-09-03T15:19:35.000Z</time>
      </trkpt>
      <trkpt lat="48.20638" lon="6.66936">
        <ele>528.59997558594</ele>
        <time>2026-09-03T15:19:36.000Z</time>
      </trkpt>
      <trkpt lat="48.20639" lon="6.66937">
        <ele>528.40002441406</ele>
        <time>2026-09-03T15:19:37.000Z</time>
      </trkpt>
      <trkpt lat="48.20639" lon="6.66939">
        <ele>528.19995117188</ele>
        <time>2026-09-03T15:19:38.000Z</time>
      </trkpt>
      <trkpt lat="48.2064" lon="6.66939">
        <ele>528.19995117188</ele>
        <time>2026-09-03T15:19:39.000Z</time>
      </trkpt>
      <trkpt lat="48.2064" lon="6.6694">
        <ele>528</ele>
        <time>2026-09-03T15:19:40.000Z</time>
      </trkpt>
      <trkpt lat="48.20641" lon="6.66942">
        <ele>528</ele>
        <time>2026-09-03T15:19:41.000Z</time>
      </trkpt>
      <trkpt lat="48.20642" lon="6.66942">
        <ele>527.80004882812</ele>
        <time>2026-09-03T15:19:42.000Z</time>
      </trkpt>
      <trkpt lat="48.20642" lon="6.66943">
        <ele>527.59997558594</ele>
        <time>2026-09-03T15:19:43.000Z</time>
      </trkpt>
      <trkpt lat="48.20643" lon="6.66944">
        <ele>527.59997558594</ele>
        <time>2026-09-03T15:19:44.000Z</time>
      </trkpt>
      <trkpt lat="48.20644" lon="6.66945">
        <ele>527.40002441406</ele>
        <time>2026-09-03T15:19:45.000Z</time>
      </trkpt>
      <trkpt lat="48.20644" lon="6.66946">
        <ele>527.19995117188</ele>
        <time>2026-09-03T15:19:46.000Z</time>
      </trkpt>
      <trkpt lat="48.20645" lon="6.66947">
        <ele>527</ele>
        <time>2026-09-03T15:19:47.000Z</time>
      </trkpt>
      <trkpt lat="48.20646" lon="6.66948">
        <ele>526.80004882812</ele>
        <time>2026-09-03T15:19:48.000Z</time>
      </trkpt>
      <trkpt lat="48.20647" lon="6.66949">
        <ele>526.59997558594</ele>
        <time>2026-09-03T15:19:49.000Z</time>
      </trkpt>
      <trkpt lat="48.20648" lon="6.66949">
        <ele>526.40002441406</ele>
        <time>2026-09-03T15:19:50.000Z</time>
      </trkpt>
      <trkpt lat="48.20649" lon="6.6695">
        <ele>526.40002441406</ele>
        <time>2026-09-03T15:19:51.000Z</time>
      </trkpt>
      <trkpt lat="48.2065" lon="6.6695">
        <ele>526.19995117188</ele>
        <time>2026-09-03T15:19:52.000Z</time>
      </trkpt>
      <trkpt lat="48.20651" lon="6.66951">
        <ele>526.19995117188</ele>
        <time>2026-09-03T15:19:53.000Z</time>
      </trkpt>
      <trkpt lat="48.20652" lon="6.66952">
        <ele>526</ele>
        <time>2026-09-03T15:19:54.000Z</time>
      </trkpt>
      <trkpt lat="48.20653" lon="6.66953">
        <ele>525.80004882812</ele>
        <time>2026-09-03T15:19:55.000Z</time>
      </trkpt>
      <trkpt lat="48.20654" lon="6.66953">
        <ele>525.80004882812</ele>
        <time>2026-09-03T15:19:56.000Z</time>
      </trkpt>
      <trkpt lat="48.20655" lon="6.66955">
        <ele>525.59997558594</ele>
        <time>2026-09-03T15:19:57.000Z</time>
      </trkpt>
      <trkpt lat="48.20656" lon="6.66955">
        <ele>525.40002441406</ele>
        <time>2026-09-03T15:19:58.000Z</time>
      </trkpt>
      <trkpt lat="48.20657" lon="6.66956">
        <ele>525.19995117188</ele>
        <time>2026-09-03T15:19:59.000Z</time>
      </trkpt>
      <trkpt lat="48.20658" lon="6.66956">
        <ele>525</ele>
        <time>2026-09-03T15:20:00.000Z</time>
      </trkpt>
      <trkpt lat="48.20659" lon="6.66958">
        <ele>524.80004882812</ele>
        <time>2026-09-03T15:20:01.000Z</time>
      </trkpt>
      <trkpt lat="48.20659" lon="6.66958">
        <ele>524.80004882812</ele>
        <time>2026-09-03T15:20:02.000Z</time>
      </trkpt>
      <trkpt lat="48.2066" lon="6.6696">
        <ele>524.59997558594</ele>
        <time>2026-09-03T15:20:03.000Z</time>
      </trkpt>
      <trkpt lat="48.20661" lon="6.6696">
        <ele>524.40002441406</ele>
        <time>2026-09-03T15:20:04.000Z</time>
      </trkpt>
      <trkpt lat="48.20662" lon="6.66961">
        <ele>524.19995117188</ele>
        <time>2026-09-03T15:20:05.000Z</time>
      </trkpt>
      <trkpt lat="48.20663" lon="6.66962">
        <ele>524.19995117188</ele>
        <time>2026-09-03T15:20:06.000Z</time>
      </trkpt>
      <trkpt lat="48.20664" lon="6.66963">
        <ele>524</ele>
        <time>2026-09-03T15:20:07.000Z</time>
      </trkpt>
      <trkpt lat="48.20665" lon="6.66964">
        <ele>523.79998779297</ele>
        <time>2026-09-03T15:20:08.000Z</time>
      </trkpt>
      <trkpt lat="48.20665" lon="6.66964">
        <ele>523.79998779297</ele>
        <time>2026-09-03T15:20:09.000Z</time>
      </trkpt>
      <trkpt lat="48.20666" lon="6.66965">
        <ele>523.40002441406</ele>
        <time>2026-09-03T15:20:10.000Z</time>
      </trkpt>
      <trkpt lat="48.20667" lon="6.66966">
        <ele>523.20001220703</ele>
        <time>2026-09-03T15:20:11.000Z</time>
      </trkpt>
      <trkpt lat="48.20668" lon="6.66966">
        <ele>523</ele>
        <time>2026-09-03T15:20:12.000Z</time>
      </trkpt>
      <trkpt lat="48.20669" lon="6.66966">
        <ele>522.79998779297</ele>
        <time>2026-09-03T15:20:13.000Z</time>
      </trkpt>
      <trkpt lat="48.2067" lon="6.66967">
        <ele>522.59997558594</ele>
        <time>2026-09-03T15:20:14.000Z</time>
      </trkpt>
      <trkpt lat="48.2067" lon="6.66968">
        <ele>522.59997558594</ele>
        <time>2026-09-03T15:20:15.000Z</time>
      </trkpt>
      <trkpt lat="48.20672" lon="6.66968">
        <ele>522.40002441406</ele>
        <time>2026-09-03T15:20:16.000Z</time>
      </trkpt>
      <trkpt lat="48.20673" lon="6.66968">
        <ele>522.40002441406</ele>
        <time>2026-09-03T15:20:17.000Z</time>
      </trkpt>
      <trkpt lat="48.20674" lon="6.66969">
        <ele>522.20001220703</ele>
        <time>2026-09-03T15:20:18.000Z</time>
      </trkpt>
      <trkpt lat="48.20674" lon="6.6697">
        <ele>522</ele>
        <time>2026-09-03T15:20:19.000Z</time>
      </trkpt>
      <trkpt lat="48.20676" lon="6.6697">
        <ele>522</ele>
        <time>2026-09-03T15:20:20.000Z</time>
      </trkpt>
      <trkpt lat="48.20677" lon="6.66971">
        <ele>521.79998779297</ele>
        <time>2026-09-03T15:20:21.000Z</time>
      </trkpt>
      <trkpt lat="48.20677" lon="6.66972">
        <ele>521.40002441406</ele>
        <time>2026-09-03T15:20:22.000Z</time>
      </trkpt>
      <trkpt lat="48.20678" lon="6.66973">
        <ele>521</ele>
        <time>2026-09-03T15:20:23.000Z</time>
      </trkpt>
      <trkpt lat="48.20679" lon="6.66974">
        <ele>520.79998779297</ele>
        <time>2026-09-03T15:20:24.000Z</time>
      </trkpt>
      <trkpt lat="48.2068" lon="6.66974">
        <ele>520.59997558594</ele>
        <time>2026-09-03T15:20:25.000Z</time>
      </trkpt>
      <trkpt lat="48.20682" lon="6.66975">
        <ele>520.59997558594</ele>
        <time>2026-09-03T15:20:26.000Z</time>
      </trkpt>
      <trkpt lat="48.20682" lon="6.66976">
        <ele>520.59997558594</ele>
        <time>2026-09-03T15:20:27.000Z</time>
      </trkpt>
      <trkpt lat="48.20684" lon="6.66977">
        <ele>520.79998779297</ele>
        <time>2026-09-03T15:20:28.000Z</time>
      </trkpt>
      <trkpt lat="48.20685" lon="6.66978">
        <ele>520.79998779297</ele>
        <time>2026-09-03T15:20:29.000Z</time>
      </trkpt>
      <trkpt lat="48.20686" lon="6.66979">
        <ele>520.79998779297</ele>
        <time>2026-09-03T15:20:30.000Z</time>
      </trkpt>
      <trkpt lat="48.20687" lon="6.6698">
        <ele>520.79998779297</ele>
        <time>2026-09-03T15:20:31.000Z</time>
      </trkpt>
      <trkpt lat="48.20688" lon="6.66981">
        <ele>520.59997558594</ele>
        <time>2026-09-03T15:20:32.000Z</time>
      </trkpt>
      <trkpt lat="48.2069" lon="6.66981">
        <ele>520.40002441406</ele>
        <time>2026-09-03T15:20:33.000Z</time>
      </trkpt>
      <trkpt lat="48.20691" lon="6.66982">
        <ele>520.40002441406</ele>
        <time>2026-09-03T15:20:34.000Z</time>
      </trkpt>
      <trkpt lat="48.20692" lon="6.66982">
        <ele>520.20001220703</ele>
        <time>2026-09-03T15:20:35.000Z</time>
      </trkpt>
      <trkpt lat="48.20693" lon="6.66983">
        <ele>520</ele>
        <time>2026-09-03T15:20:36.000Z</time>
      </trkpt>
      <trkpt lat="48.20694" lon="6.66983">
        <ele>520</ele>
        <time>2026-09-03T15:20:37.000Z</time>
      </trkpt>
      <trkpt lat="48.20696" lon="6.66984">
        <ele>520</ele>
        <time>2026-09-03T15:20:38.000Z</time>
      </trkpt>
      <trkpt lat="48.20697" lon="6.66985">
        <ele>519.79998779297</ele>
        <time>2026-09-03T15:20:39.000Z</time>
      </trkpt>
      <trkpt lat="48.20698" lon="6.66985">
        <ele>519.79998779297</ele>
        <time>2026-09-03T15:20:40.000Z</time>
      </trkpt>
      <trkpt lat="48.20699" lon="6.66986">
        <ele>519.79998779297</ele>
        <time>2026-09-03T15:20:41.000Z</time>
      </trkpt>
      <trkpt lat="48.207" lon="6.66987">
        <ele>519.59997558594</ele>
        <time>2026-09-03T15:20:42.000Z</time>
      </trkpt>
      <trkpt lat="48.20701" lon="6.66987">
        <ele>519.59997558594</ele>
        <time>2026-09-03T15:20:43.000Z</time>
      </trkpt>
      <trkpt lat="48.20701" lon="6.66987">
        <ele>519.59997558594</ele>
        <time>2026-09-03T15:20:44.000Z</time>
      </trkpt>
      <trkpt lat="48.20701" lon="6.66987">
        <ele>519.59997558594</ele>
        <time>2026-09-03T15:20:45.000Z</time>
      </trkpt>
      <trkpt lat="48.20701" lon="6.66987">
        <ele>519.59997558594</ele>
        <time>2026-09-03T15:20:46.000Z</time>
      </trkpt>
      <trkpt lat="48.20701" lon="6.66987">
        <ele>519.59997558594</ele>
        <time>2026-09-03T15:20:47.000Z</time>
      </trkpt>
      <trkpt lat="48.20701" lon="6.66987">
        <ele>519.59997558594</ele>
        <time>2026-09-03T15:20:48.000Z</time>
      </trkpt>
      <trkpt lat="48.20701" lon="6.66987">
        <ele>519.59997558594</ele>
        <time>2026-09-03T15:20:49.000Z</time>
      </trkpt>
      <trkpt lat="48.20701" lon="6.66987">
        <ele>519.59997558594</ele>
        <time>2026-09-03T15:20:50.000Z</time>
      </trkpt>
      <trkpt lat="48.20701" lon="6.66987">
        <ele>519.59997558594</ele>
        <time>2026-09-03T15:20:51.000Z</time>
      </trkpt>
      <trkpt lat="48.20701" lon="6.66987">
        <ele>519.59997558594</ele>
        <time>2026-09-03T15:20:52.000Z</time>
      </trkpt>
      <trkpt lat="48.20701" lon="6.66987">
        <ele>519.59997558594</ele>
        <time>2026-09-03T15:20:53.000Z</time>
      </trkpt>
      <trkpt lat="48.20701" lon="6.66987">
        <ele>519.59997558594</ele>
        <time>2026-09-03T15:20:54.000Z</time>
      </trkpt>
      <trkpt lat="48.20701" lon="6.66987">
        <ele>519.59997558594</ele>
        <time>2026-09-03T15:20:55.000Z</time>
      </trkpt>
      <trkpt lat="48.20701" lon="6.66987">
        <ele>519.59997558594</ele>
        <time>2026-09-03T15:20:56.000Z</time>
      </trkpt>
      <trkpt lat="48.20701" lon="6.66987">
        <ele>519.40002441406</ele>
        <time>2026-09-03T15:20:57.000Z</time>
      </trkpt>
      <trkpt lat="48.20701" lon="6.66987">
        <ele>519.40002441406</ele>
        <time>2026-09-03T15:20:58.000Z</time>
      </trkpt>
      <trkpt lat="48.20701" lon="6.66987">
        <ele>519.40002441406</ele>
        <time>2026-09-03T15:20:59.000Z</time>
      </trkpt>
      <trkpt lat="48.20701" lon="6.66987">
        <ele>519.40002441406</ele>
        <time>2026-09-03T15:21:00.000Z</time>
      </trkpt>
      <trkpt lat="48.20701" lon="6.66987">
        <ele>519.40002441406</ele>
        <time>2026-09-03T15:21:01.000Z</time>
      </trkpt>
      <trkpt lat="48.20701" lon="6.66987">
        <ele>519.40002441406</ele>
        <time>2026-09-03T15:21:02.000Z</time>
      </trkpt>
      <trkpt lat="48.20701" lon="6.66987">
        <ele>519.40002441406</ele>
        <time>2026-09-03T15:21:03.000Z</time>
      </trkpt>
      <trkpt lat="48.207" lon="6.66987">
        <ele>519.40002441406</ele>
        <time>2026-09-03T15:21:04.000Z</time>
      </trkpt>
      <trkpt lat="48.207" lon="6.66987">
        <ele>519.20001220703</ele>
        <time>2026-09-03T15:21:05.000Z</time>
      </trkpt>
      <trkpt lat="48.207" lon="6.66986">
        <ele>519.20001220703</ele>
        <time>2026-09-03T15:21:06.000Z</time>
      </trkpt>
      <trkpt lat="48.207" lon="6.66986">
        <ele>519.20001220703</ele>
        <time>2026-09-03T15:21:07.000Z</time>
      </trkpt>
      <trkpt lat="48.20699" lon="6.66986">
        <ele>519.20001220703</ele>
        <time>2026-09-03T15:21:08.000Z</time>
      </trkpt>
      <trkpt lat="48.20699" lon="6.66986">
        <ele>519.40002441406</ele>
        <time>2026-09-03T15:21:09.000Z</time>
      </trkpt>
      <trkpt lat="48.20699" lon="6.66986">
        <ele>519.40002441406</ele>
        <time>2026-09-03T15:21:10.000Z</time>
      </trkpt>
      <trkpt lat="48.20699" lon="6.66986">
        <ele>519.40002441406</ele>
        <time>2026-09-03T15:21:11.000Z</time>
      </trkpt>
      <trkpt lat="48.20699" lon="6.66986">
        <ele>519.40002441406</ele>
        <time>2026-09-03T15:21:12.000Z</time>
      </trkpt>
      <trkpt lat="48.20699" lon="6.66986">
        <ele>519.40002441406</ele>
        <time>2026-09-03T15:21:13.000Z</time>
      </trkpt>
      <trkpt lat="48.20699" lon="6.66986">
        <ele>519.40002441406</ele>
        <time>2026-09-03T15:21:14.000Z</time>
      </trkpt>
      <trkpt lat="48.20698" lon="6.66986">
        <ele>519.40002441406</ele>
        <time>2026-09-03T15:21:15.000Z</time>
      </trkpt>
      <trkpt lat="48.20699" lon="6.66986">
        <ele>519.20001220703</ele>
        <time>2026-09-03T15:21:16.000Z</time>
      </trkpt>
      <trkpt lat="48.20699" lon="6.66987">
        <ele>519.20001220703</ele>
        <time>2026-09-03T15:21:17.000Z</time>
      </trkpt>
      <trkpt lat="48.20699" lon="6.66986">
        <ele>519.20001220703</ele>
        <time>2026-09-03T15:21:18.000Z</time>
      </trkpt>
      <trkpt lat="48.20699" lon="6.66986">
        <ele>519</ele>
        <time>2026-09-03T15:21:19.000Z</time>
      </trkpt>
      <trkpt lat="48.20699" lon="6.66987">
        <ele>519</ele>
        <time>2026-09-03T15:21:20.000Z</time>
      </trkpt>
      <trkpt lat="48.207" lon="6.66987">
        <ele>519</ele>
        <time>2026-09-03T15:21:21.000Z</time>
      </trkpt>
      <trkpt lat="48.207" lon="6.66988">
        <ele>519</ele>
        <time>2026-09-03T15:21:22.000Z</time>
      </trkpt>
      <trkpt lat="48.20701" lon="6.66989">
        <ele>519</ele>
        <time>2026-09-03T15:21:23.000Z</time>
      </trkpt>
      <trkpt lat="48.20702" lon="6.6699">
        <ele>519</ele>
        <time>2026-09-03T15:21:24.000Z</time>
      </trkpt>
      <trkpt lat="48.20703" lon="6.6699">
        <ele>519</ele>
        <time>2026-09-03T15:21:25.000Z</time>
      </trkpt>
      <trkpt lat="48.20704" lon="6.6699">
        <ele>518.79998779297</ele>
        <time>2026-09-03T15:21:26.000Z</time>
      </trkpt>
      <trkpt lat="48.20705" lon="6.66991">
        <ele>518.59997558594</ele>
        <time>2026-09-03T15:21:27.000Z</time>
      </trkpt>
      <trkpt lat="48.20706" lon="6.66991">
        <ele>518.20001220703</ele>
        <time>2026-09-03T15:21:28.000Z</time>
      </trkpt>
      <trkpt lat="48.20706" lon="6.66991">
        <ele>518</ele>
        <time>2026-09-03T15:21:29.000Z</time>
      </trkpt>
      <trkpt lat="48.20707" lon="6.66992">
        <ele>517.79998779297</ele>
        <time>2026-09-03T15:21:30.000Z</time>
      </trkpt>
      <trkpt lat="48.20708" lon="6.66992">
        <ele>517.79998779297</ele>
        <time>2026-09-03T15:21:31.000Z</time>
      </trkpt>
      <trkpt lat="48.20709" lon="6.66992">
        <ele>517.79998779297</ele>
        <time>2026-09-03T15:21:32.000Z</time>
      </trkpt>
      <trkpt lat="48.20709" lon="6.66993">
        <ele>517.59997558594</ele>
        <time>2026-09-03T15:21:33.000Z</time>
      </trkpt>
      <trkpt lat="48.2071" lon="6.66994">
        <ele>517.59997558594</ele>
        <time>2026-09-03T15:21:34.000Z</time>
      </trkpt>
      <trkpt lat="48.20711" lon="6.66995">
        <ele>517.40002441406</ele>
        <time>2026-09-03T15:21:35.000Z</time>
      </trkpt>
      <trkpt lat="48.20711" lon="6.66995">
        <ele>517.40002441406</ele>
        <time>2026-09-03T15:21:36.000Z</time>
      </trkpt>
      <trkpt lat="48.20713" lon="6.66995">
        <ele>517.20001220703</ele>
        <time>2026-09-03T15:21:37.000Z</time>
      </trkpt>
      <trkpt lat="48.20713" lon="6.66995">
        <ele>517.20001220703</ele>
        <time>2026-09-03T15:21:38.000Z</time>
      </trkpt>
      <trkpt lat="48.20714" lon="6.66996">
        <ele>517</ele>
        <time>2026-09-03T15:21:39.000Z</time>
      </trkpt>
      <trkpt lat="48.20714" lon="6.66996">
        <ele>517</ele>
        <time>2026-09-03T15:21:40.000Z</time>
      </trkpt>
      <trkpt lat="48.20715" lon="6.66996">
        <ele>516.79998779297</ele>
        <time>2026-09-03T15:21:41.000Z</time>
      </trkpt>
      <trkpt lat="48.20716" lon="6.66997">
        <ele>516.59997558594</ele>
        <time>2026-09-03T15:21:42.000Z</time>
      </trkpt>
      <trkpt lat="48.20717" lon="6.66997">
        <ele>516.40002441406</ele>
        <time>2026-09-03T15:21:43.000Z</time>
      </trkpt>
      <trkpt lat="48.20718" lon="6.66998">
        <ele>516.20001220703</ele>
        <time>2026-09-03T15:21:44.000Z</time>
      </trkpt>
      <trkpt lat="48.20719" lon="6.66999">
        <ele>516</ele>
        <time>2026-09-03T15:21:45.000Z</time>
      </trkpt>
      <trkpt lat="48.20719" lon="6.67">
        <ele>516</ele>
        <time>2026-09-03T15:21:46.000Z</time>
      </trkpt>
      <trkpt lat="48.2072" lon="6.67001">
        <ele>515.79998779297</ele>
        <time>2026-09-03T15:21:47.000Z</time>
      </trkpt>
      <trkpt lat="48.20721" lon="6.67002">
        <ele>515.59997558594</ele>
        <time>2026-09-03T15:21:48.000Z</time>
      </trkpt>
      <trkpt lat="48.20723" lon="6.67004">
        <ele>515.59997558594</ele>
        <time>2026-09-03T15:21:49.000Z</time>
      </trkpt>
      <trkpt lat="48.20723" lon="6.67004">
        <ele>515.40002441406</ele>
        <time>2026-09-03T15:21:50.000Z</time>
      </trkpt>
      <trkpt lat="48.20724" lon="6.67005">
        <ele>515.20001220703</ele>
        <time>2026-09-03T15:21:51.000Z</time>
      </trkpt>
      <trkpt lat="48.20724" lon="6.67006">
        <ele>515.20001220703</ele>
        <time>2026-09-03T15:21:52.000Z</time>
      </trkpt>
      <trkpt lat="48.20725" lon="6.67007">
        <ele>515</ele>
        <time>2026-09-03T15:21:53.000Z</time>
      </trkpt>
      <trkpt lat="48.20726" lon="6.67007">
        <ele>514.79998779297</ele>
        <time>2026-09-03T15:21:54.000Z</time>
      </trkpt>
      <trkpt lat="48.20727" lon="6.67007">
        <ele>514.79998779297</ele>
        <time>2026-09-03T15:21:55.000Z</time>
      </trkpt>
      <trkpt lat="48.20728" lon="6.67008">
        <ele>514.59997558594</ele>
        <time>2026-09-03T15:21:56.000Z</time>
      </trkpt>
      <trkpt lat="48.20729" lon="6.67009">
        <ele>514.59997558594</ele>
        <time>2026-09-03T15:21:57.000Z</time>
      </trkpt>
      <trkpt lat="48.2073" lon="6.6701">
        <ele>514.40002441406</ele>
        <time>2026-09-03T15:21:58.000Z</time>
      </trkpt>
      <trkpt lat="48.20731" lon="6.67011">
        <ele>514.40002441406</ele>
        <time>2026-09-03T15:21:59.000Z</time>
      </trkpt>
      <trkpt lat="48.20732" lon="6.67013">
        <ele>514.20001220703</ele>
        <time>2026-09-03T15:22:00.000Z</time>
      </trkpt>
      <trkpt lat="48.20733" lon="6.67014">
        <ele>514.20001220703</ele>
        <time>2026-09-03T15:22:01.000Z</time>
      </trkpt>
      <trkpt lat="48.20734" lon="6.67016">
        <ele>514</ele>
        <time>2026-09-03T15:22:02.000Z</time>
      </trkpt>
      <trkpt lat="48.20735" lon="6.67017">
        <ele>513.79998779297</ele>
        <time>2026-09-03T15:22:03.000Z</time>
      </trkpt>
      <trkpt lat="48.20736" lon="6.67019">
        <ele>513.79998779297</ele>
        <time>2026-09-03T15:22:04.000Z</time>
      </trkpt>
      <trkpt lat="48.20737" lon="6.67021">
        <ele>513.59997558594</ele>
        <time>2026-09-03T15:22:05.000Z</time>
      </trkpt>
      <trkpt lat="48.20738" lon="6.67023">
        <ele>513.40002441406</ele>
        <time>2026-09-03T15:22:06.000Z</time>
      </trkpt>
      <trkpt lat="48.20739" lon="6.67025">
        <ele>513.20001220703</ele>
        <time>2026-09-03T15:22:07.000Z</time>
      </trkpt>
      <trkpt lat="48.2074" lon="6.67027">
        <ele>513.20001220703</ele>
        <time>2026-09-03T15:22:08.000Z</time>
      </trkpt>
      <trkpt lat="48.2074" lon="6.67029">
        <ele>513</ele>
        <time>2026-09-03T15:22:09.000Z</time>
      </trkpt>
      <trkpt lat="48.20741" lon="6.6703">
        <ele>512.79998779297</ele>
        <time>2026-09-03T15:22:10.000Z</time>
      </trkpt>
      <trkpt lat="48.20742" lon="6.67031">
        <ele>512.79998779297</ele>
        <time>2026-09-03T15:22:11.000Z</time>
      </trkpt>
      <trkpt lat="48.20743" lon="6.67032">
        <ele>512.59997558594</ele>
        <time>2026-09-03T15:22:12.000Z</time>
      </trkpt>
      <trkpt lat="48.20743" lon="6.67034">
        <ele>512.40002441406</ele>
        <time>2026-09-03T15:22:13.000Z</time>
      </trkpt>
      <trkpt lat="48.20744" lon="6.67035">
        <ele>512.40002441406</ele>
        <time>2026-09-03T15:22:14.000Z</time>
      </trkpt>
      <trkpt lat="48.20745" lon="6.67036">
        <ele>512.20001220703</ele>
        <time>2026-09-03T15:22:15.000Z</time>
      </trkpt>
      <trkpt lat="48.20745" lon="6.67037">
        <ele>512</ele>
        <time>2026-09-03T15:22:16.000Z</time>
      </trkpt>
      <trkpt lat="48.20746" lon="6.67038">
        <ele>511.79998779297</ele>
        <time>2026-09-03T15:22:17.000Z</time>
      </trkpt>
      <trkpt lat="48.20747" lon="6.67039">
        <ele>511.59997558594</ele>
        <time>2026-09-03T15:22:18.000Z</time>
      </trkpt>
      <trkpt lat="48.20747" lon="6.6704">
        <ele>511.40002441406</ele>
        <time>2026-09-03T15:22:19.000Z</time>
      </trkpt>
      <trkpt lat="48.20748" lon="6.67042">
        <ele>511.20001220703</ele>
        <time>2026-09-03T15:22:20.000Z</time>
      </trkpt>
      <trkpt lat="48.20748" lon="6.67043">
        <ele>511.20001220703</ele>
        <time>2026-09-03T15:22:21.000Z</time>
      </trkpt>
      <trkpt lat="48.20748" lon="6.67044">
        <ele>511</ele>
        <time>2026-09-03T15:22:22.000Z</time>
      </trkpt>
      <trkpt lat="48.20749" lon="6.67045">
        <ele>510.79998779297</ele>
        <time>2026-09-03T15:22:23.000Z</time>
      </trkpt>
      <trkpt lat="48.20749" lon="6.67046">
        <ele>510.59997558594</ele>
        <time>2026-09-03T15:22:24.000Z</time>
      </trkpt>
      <trkpt lat="48.20749" lon="6.67048">
        <ele>510.59997558594</ele>
        <time>2026-09-03T15:22:25.000Z</time>
      </trkpt>
      <trkpt lat="48.2075" lon="6.67049">
        <ele>510.59997558594</ele>
        <time>2026-09-03T15:22:26.000Z</time>
      </trkpt>
      <trkpt lat="48.2075" lon="6.6705">
        <ele>510.40002441406</ele>
        <time>2026-09-03T15:22:27.000Z</time>
      </trkpt>
      <trkpt lat="48.2075" lon="6.67051">
        <ele>510.20001220703</ele>
        <time>2026-09-03T15:22:28.000Z</time>
      </trkpt>
      <trkpt lat="48.2075" lon="6.67053">
        <ele>510.20001220703</ele>
        <time>2026-09-03T15:22:29.000Z</time>
      </trkpt>
      <trkpt lat="48.20751" lon="6.67054">
        <ele>510</ele>
        <time>2026-09-03T15:22:30.000Z</time>
      </trkpt>
      <trkpt lat="48.20751" lon="6.67055">
        <ele>509.79998779297</ele>
        <time>2026-09-03T15:22:31.000Z</time>
      </trkpt>
      <trkpt lat="48.20751" lon="6.67057">
        <ele>509.79998779297</ele>
        <time>2026-09-03T15:22:32.000Z</time>
      </trkpt>
      <trkpt lat="48.20752" lon="6.67058">
        <ele>509.59997558594</ele>
        <time>2026-09-03T15:22:33.000Z</time>
      </trkpt>
      <trkpt lat="48.20751" lon="6.67059">
        <ele>509.59997558594</ele>
        <time>2026-09-03T15:22:34.000Z</time>
      </trkpt>
      <trkpt lat="48.20751" lon="6.6706">
        <ele>509.40002441406</ele>
        <time>2026-09-03T15:22:35.000Z</time>
      </trkpt>
      <trkpt lat="48.20751" lon="6.67062">
        <ele>509.40002441406</ele>
        <time>2026-09-03T15:22:36.000Z</time>
      </trkpt>
      <trkpt lat="48.20751" lon="6.67064">
        <ele>509.20001220703</ele>
        <time>2026-09-03T15:22:37.000Z</time>
      </trkpt>
      <trkpt lat="48.2075" lon="6.67066">
        <ele>509</ele>
        <time>2026-09-03T15:22:38.000Z</time>
      </trkpt>
      <trkpt lat="48.2075" lon="6.67067">
        <ele>508.79998779297</ele>
        <time>2026-09-03T15:22:39.000Z</time>
      </trkpt>
      <trkpt lat="48.2075" lon="6.67069">
        <ele>508.59997558594</ele>
        <time>2026-09-03T15:22:40.000Z</time>
      </trkpt>
      <trkpt lat="48.20749" lon="6.6707">
        <ele>508.40002441406</ele>
        <time>2026-09-03T15:22:41.000Z</time>
      </trkpt>
      <trkpt lat="48.20749" lon="6.67071">
        <ele>508.20001220703</ele>
        <time>2026-09-03T15:22:42.000Z</time>
      </trkpt>
      <trkpt lat="48.20749" lon="6.67073">
        <ele>508.20001220703</ele>
        <time>2026-09-03T15:22:43.000Z</time>
      </trkpt>
      <trkpt lat="48.20748" lon="6.67075">
        <ele>508</ele>
        <time>2026-09-03T15:22:44.000Z</time>
      </trkpt>
      <trkpt lat="48.20747" lon="6.67077">
        <ele>507.79998779297</ele>
        <time>2026-09-03T15:22:45.000Z</time>
      </trkpt>
      <trkpt lat="48.20746" lon="6.67079">
        <ele>507.79998779297</ele>
        <time>2026-09-03T15:22:46.000Z</time>
      </trkpt>
      <trkpt lat="48.20746" lon="6.67081">
        <ele>507.59997558594</ele>
        <time>2026-09-03T15:22:47.000Z</time>
      </trkpt>
      <trkpt lat="48.20745" lon="6.67082">
        <ele>507.59997558594</ele>
        <time>2026-09-03T15:22:48.000Z</time>
      </trkpt>
      <trkpt lat="48.20745" lon="6.67084">
        <ele>507.40002441406</ele>
        <time>2026-09-03T15:22:49.000Z</time>
      </trkpt>
      <trkpt lat="48.20744" lon="6.67086">
        <ele>507.40002441406</ele>
        <time>2026-09-03T15:22:50.000Z</time>
      </trkpt>
      <trkpt lat="48.20744" lon="6.67088">
        <ele>507.40002441406</ele>
        <time>2026-09-03T15:22:51.000Z</time>
      </trkpt>
      <trkpt lat="48.20743" lon="6.67089">
        <ele>507.40002441406</ele>
        <time>2026-09-03T15:22:52.000Z</time>
      </trkpt>
      <trkpt lat="48.20743" lon="6.67091">
        <ele>507.20001220703</ele>
        <time>2026-09-03T15:22:53.000Z</time>
      </trkpt>
      <trkpt lat="48.20742" lon="6.67093">
        <ele>507.20001220703</ele>
        <time>2026-09-03T15:22:54.000Z</time>
      </trkpt>
      <trkpt lat="48.20741" lon="6.67095">
        <ele>507</ele>
        <time>2026-09-03T15:22:55.000Z</time>
      </trkpt>
      <trkpt lat="48.20741" lon="6.67097">
        <ele>507</ele>
        <time>2026-09-03T15:22:56.000Z</time>
      </trkpt>
      <trkpt lat="48.2074" lon="6.67099">
        <ele>506.79998779297</ele>
        <time>2026-09-03T15:22:57.000Z</time>
      </trkpt>
      <trkpt lat="48.20739" lon="6.67101">
        <ele>506.79998779297</ele>
        <time>2026-09-03T15:22:58.000Z</time>
      </trkpt>
      <trkpt lat="48.20738" lon="6.67103">
        <ele>506.79998779297</ele>
        <time>2026-09-03T15:22:59.000Z</time>
      </trkpt>
      <trkpt lat="48.20738" lon="6.67104">
        <ele>506.59997558594</ele>
        <time>2026-09-03T15:23:00.000Z</time>
      </trkpt>
      <trkpt lat="48.20738" lon="6.67105">
        <ele>506.40002441406</ele>
        <time>2026-09-03T15:23:01.000Z</time>
      </trkpt>
      <trkpt lat="48.20737" lon="6.67106">
        <ele>506.40002441406</ele>
        <time>2026-09-03T15:23:02.000Z</time>
      </trkpt>
      <trkpt lat="48.20736" lon="6.67108">
        <ele>506.20001220703</ele>
        <time>2026-09-03T15:23:03.000Z</time>
      </trkpt>
      <trkpt lat="48.20736" lon="6.67109">
        <ele>506.20001220703</ele>
        <time>2026-09-03T15:23:04.000Z</time>
      </trkpt>
      <trkpt lat="48.20735" lon="6.67111">
        <ele>506.20001220703</ele>
        <time>2026-09-03T15:23:05.000Z</time>
      </trkpt>
      <trkpt lat="48.20734" lon="6.67112">
        <ele>506.20001220703</ele>
        <time>2026-09-03T15:23:06.000Z</time>
      </trkpt>
      <trkpt lat="48.20734" lon="6.67113">
        <ele>506</ele>
        <time>2026-09-03T15:23:07.000Z</time>
      </trkpt>
      <trkpt lat="48.20734" lon="6.67114">
        <ele>506</ele>
        <time>2026-09-03T15:23:08.000Z</time>
      </trkpt>
      <trkpt lat="48.20734" lon="6.67115">
        <ele>506</ele>
        <time>2026-09-03T15:23:09.000Z</time>
      </trkpt>
      <trkpt lat="48.20733" lon="6.67117">
        <ele>506</ele>
        <time>2026-09-03T15:23:10.000Z</time>
      </trkpt>
      <trkpt lat="48.20733" lon="6.67118">
        <ele>505.79998779297</ele>
        <time>2026-09-03T15:23:11.000Z</time>
      </trkpt>
      <trkpt lat="48.20732" lon="6.67121">
        <ele>505.79998779297</ele>
        <time>2026-09-03T15:23:12.000Z</time>
      </trkpt>
      <trkpt lat="48.20731" lon="6.67122">
        <ele>505.79998779297</ele>
        <time>2026-09-03T15:23:13.000Z</time>
      </trkpt>
      <trkpt lat="48.20731" lon="6.67123">
        <ele>505.59997558594</ele>
        <time>2026-09-03T15:23:14.000Z</time>
      </trkpt>
      <trkpt lat="48.2073" lon="6.67124">
        <ele>505.59997558594</ele>
        <time>2026-09-03T15:23:15.000Z</time>
      </trkpt>
      <trkpt lat="48.2073" lon="6.67123">
        <ele>505.40002441406</ele>
        <time>2026-09-03T15:23:16.000Z</time>
      </trkpt>
      <trkpt lat="48.2073" lon="6.67123">
        <ele>505.40002441406</ele>
        <time>2026-09-03T15:23:17.000Z</time>
      </trkpt>
      <trkpt lat="48.2073" lon="6.67124">
        <ele>505.20001220703</ele>
        <time>2026-09-03T15:23:18.000Z</time>
      </trkpt>
      <trkpt lat="48.20732" lon="6.67124">
        <ele>505.20001220703</ele>
        <time>2026-09-03T15:23:19.000Z</time>
      </trkpt>
      <trkpt lat="48.20732" lon="6.67125">
        <ele>505</ele>
        <time>2026-09-03T15:23:20.000Z</time>
      </trkpt>
      <trkpt lat="48.20732" lon="6.67126">
        <ele>505</ele>
        <time>2026-09-03T15:23:21.000Z</time>
      </trkpt>
      <trkpt lat="48.20732" lon="6.67127">
        <ele>505</ele>
        <time>2026-09-03T15:23:22.000Z</time>
      </trkpt>
      <trkpt lat="48.20732" lon="6.67127">
        <ele>505</ele>
        <time>2026-09-03T15:23:23.000Z</time>
      </trkpt>
      <trkpt lat="48.20732" lon="6.67127">
        <ele>505</ele>
        <time>2026-09-03T15:23:24.000Z</time>
      </trkpt>
      <trkpt lat="48.20732" lon="6.67128">
        <ele>505</ele>
        <time>2026-09-03T15:23:25.000Z</time>
      </trkpt>
      <trkpt lat="48.20732" lon="6.67128">
        <ele>505</ele>
        <time>2026-09-03T15:23:26.000Z</time>
      </trkpt>
      <trkpt lat="48.20732" lon="6.67128">
        <ele>505</ele>
        <time>2026-09-03T15:23:27.000Z</time>
      </trkpt>
      <trkpt lat="48.20732" lon="6.67128">
        <ele>505</ele>
        <time>2026-09-03T15:23:28.000Z</time>
      </trkpt>
      <trkpt lat="48.20731" lon="6.67129">
        <ele>505</ele>
        <time>2026-09-03T15:23:29.000Z</time>
      </trkpt>
      <trkpt lat="48.20731" lon="6.67129">
        <ele>504.79998779297</ele>
        <time>2026-09-03T15:23:30.000Z</time>
      </trkpt>
      <trkpt lat="48.20732" lon="6.67129">
        <ele>504.79998779297</ele>
        <time>2026-09-03T15:23:31.000Z</time>
      </trkpt>
      <trkpt lat="48.20732" lon="6.67129">
        <ele>504.59997558594</ele>
        <time>2026-09-03T15:23:32.000Z</time>
      </trkpt>
      <trkpt lat="48.20732" lon="6.67128">
        <ele>504.59997558594</ele>
        <time>2026-09-03T15:23:33.000Z</time>
      </trkpt>
      <trkpt lat="48.20732" lon="6.67128">
        <ele>504.40002441406</ele>
        <time>2026-09-03T15:23:34.000Z</time>
      </trkpt>
      <trkpt lat="48.20732" lon="6.67128">
        <ele>504.40002441406</ele>
        <time>2026-09-03T15:23:35.000Z</time>
      </trkpt>
      <trkpt lat="48.20732" lon="6.67128">
        <ele>504.20001220703</ele>
        <time>2026-09-03T15:23:36.000Z</time>
      </trkpt>
      <trkpt lat="48.20732" lon="6.67128">
        <ele>504.20001220703</ele>
        <time>2026-09-03T15:23:37.000Z</time>
      </trkpt>
      <trkpt lat="48.20732" lon="6.67128">
        <ele>504.20001220703</ele>
        <time>2026-09-03T15:23:38.000Z</time>
      </trkpt>
      <trkpt lat="48.20732" lon="6.67128">
        <ele>504.40002441406</ele>
        <time>2026-09-03T15:23:39.000Z</time>
      </trkpt>
      <trkpt lat="48.20732" lon="6.67128">
        <ele>504.40002441406</ele>
        <time>2026-09-03T15:23:40.000Z</time>
      </trkpt>
      <trkpt lat="48.20732" lon="6.67128">
        <ele>504.59997558594</ele>
        <time>2026-09-03T15:23:41.000Z</time>
      </trkpt>
      <trkpt lat="48.20731" lon="6.6713">
        <ele>504.59997558594</ele>
        <time>2026-09-03T15:23:42.000Z</time>
      </trkpt>
      <trkpt lat="48.20731" lon="6.67131">
        <ele>504.79998779297</ele>
        <time>2026-09-03T15:23:43.000Z</time>
      </trkpt>
      <trkpt lat="48.2073" lon="6.67132">
        <ele>505</ele>
        <time>2026-09-03T15:23:44.000Z</time>
      </trkpt>
      <trkpt lat="48.2073" lon="6.67131">
        <ele>505</ele>
        <time>2026-09-03T15:23:45.000Z</time>
      </trkpt>
      <trkpt lat="48.20729" lon="6.67132">
        <ele>505.20001220703</ele>
        <time>2026-09-03T15:23:46.000Z</time>
      </trkpt>
      <trkpt lat="48.20729" lon="6.67134">
        <ele>505</ele>
        <time>2026-09-03T15:23:47.000Z</time>
      </trkpt>
      <trkpt lat="48.20728" lon="6.67135">
        <ele>505</ele>
        <time>2026-09-03T15:23:48.000Z</time>
      </trkpt>
      <trkpt lat="48.20728" lon="6.67136">
        <ele>504.79998779297</ele>
        <time>2026-09-03T15:23:49.000Z</time>
      </trkpt>
      <trkpt lat="48.20728" lon="6.67137">
        <ele>504.79998779297</ele>
        <time>2026-09-03T15:23:50.000Z</time>
      </trkpt>
      <trkpt lat="48.20727" lon="6.67139">
        <ele>504.79998779297</ele>
        <time>2026-09-03T15:23:51.000Z</time>
      </trkpt>
      <trkpt lat="48.20727" lon="6.67141">
        <ele>504.79998779297</ele>
        <time>2026-09-03T15:23:52.000Z</time>
      </trkpt>
      <trkpt lat="48.20726" lon="6.67143">
        <ele>504.79998779297</ele>
        <time>2026-09-03T15:23:53.000Z</time>
      </trkpt>
      <trkpt lat="48.20726" lon="6.67144">
        <ele>504.59997558594</ele>
        <time>2026-09-03T15:23:54.000Z</time>
      </trkpt>
      <trkpt lat="48.20725" lon="6.67145">
        <ele>504.59997558594</ele>
        <time>2026-09-03T15:23:55.000Z</time>
      </trkpt>
      <trkpt lat="48.20724" lon="6.67146">
        <ele>504.59997558594</ele>
        <time>2026-09-03T15:23:56.000Z</time>
      </trkpt>
      <trkpt lat="48.20724" lon="6.67148">
        <ele>504.40002441406</ele>
        <time>2026-09-03T15:23:57.000Z</time>
      </trkpt>
      <trkpt lat="48.20724" lon="6.67149">
        <ele>504.20001220703</ele>
        <time>2026-09-03T15:23:58.000Z</time>
      </trkpt>
      <trkpt lat="48.20723" lon="6.6715">
        <ele>504.20001220703</ele>
        <time>2026-09-03T15:23:59.000Z</time>
      </trkpt>
      <trkpt lat="48.20724" lon="6.67152">
        <ele>504.20001220703</ele>
        <time>2026-09-03T15:24:00.000Z</time>
      </trkpt>
      <trkpt lat="48.20724" lon="6.67154">
        <ele>504</ele>
        <time>2026-09-03T15:24:01.000Z</time>
      </trkpt>
      <trkpt lat="48.20724" lon="6.67155">
        <ele>504</ele>
        <time>2026-09-03T15:24:02.000Z</time>
      </trkpt>
      <trkpt lat="48.20723" lon="6.67157">
        <ele>504</ele>
        <time>2026-09-03T15:24:03.000Z</time>
      </trkpt>
      <trkpt lat="48.20723" lon="6.67159">
        <ele>503.79998779297</ele>
        <time>2026-09-03T15:24:04.000Z</time>
      </trkpt>
      <trkpt lat="48.20723" lon="6.67161">
        <ele>503.79998779297</ele>
        <time>2026-09-03T15:24:05.000Z</time>
      </trkpt>
      <trkpt lat="48.20723" lon="6.67163">
        <ele>503.59997558594</ele>
        <time>2026-09-03T15:24:06.000Z</time>
      </trkpt>
      <trkpt lat="48.20722" lon="6.67165">
        <ele>503.59997558594</ele>
        <time>2026-09-03T15:24:07.000Z</time>
      </trkpt>
      <trkpt lat="48.20722" lon="6.67166">
        <ele>503.59997558594</ele>
        <time>2026-09-03T15:24:08.000Z</time>
      </trkpt>
      <trkpt lat="48.20721" lon="6.67167">
        <ele>503.40002441406</ele>
        <time>2026-09-03T15:24:09.000Z</time>
      </trkpt>
      <trkpt lat="48.20721" lon="6.67169">
        <ele>503.40002441406</ele>
        <time>2026-09-03T15:24:10.000Z</time>
      </trkpt>
      <trkpt lat="48.20721" lon="6.6717">
        <ele>503.40002441406</ele>
        <time>2026-09-03T15:24:11.000Z</time>
      </trkpt>
      <trkpt lat="48.2072" lon="6.67172">
        <ele>503.40002441406</ele>
        <time>2026-09-03T15:24:12.000Z</time>
      </trkpt>
      <trkpt lat="48.2072" lon="6.67174">
        <ele>503.20001220703</ele>
        <time>2026-09-03T15:24:13.000Z</time>
      </trkpt>
      <trkpt lat="48.20719" lon="6.67175">
        <ele>503.20001220703</ele>
        <time>2026-09-03T15:24:14.000Z</time>
      </trkpt>
      <trkpt lat="48.20719" lon="6.67177">
        <ele>503.20001220703</ele>
        <time>2026-09-03T15:24:15.000Z</time>
      </trkpt>
      <trkpt lat="48.20719" lon="6.67178">
        <ele>503</ele>
        <time>2026-09-03T15:24:16.000Z</time>
      </trkpt>
      <trkpt lat="48.20718" lon="6.6718">
        <ele>503</ele>
        <time>2026-09-03T15:24:17.000Z</time>
      </trkpt>
      <trkpt lat="48.20718" lon="6.67181">
        <ele>503</ele>
        <time>2026-09-03T15:24:18.000Z</time>
      </trkpt>
      <trkpt lat="48.20717" lon="6.67183">
        <ele>502.79998779297</ele>
        <time>2026-09-03T15:24:19.000Z</time>
      </trkpt>
      <trkpt lat="48.20716" lon="6.67184">
        <ele>502.79998779297</ele>
        <time>2026-09-03T15:24:20.000Z</time>
      </trkpt>
      <trkpt lat="48.20715" lon="6.67186">
        <ele>502.79998779297</ele>
        <time>2026-09-03T15:24:21.000Z</time>
      </trkpt>
      <trkpt lat="48.20715" lon="6.67187">
        <ele>502.79998779297</ele>
        <time>2026-09-03T15:24:22.000Z</time>
      </trkpt>
      <trkpt lat="48.20714" lon="6.67189">
        <ele>502.59997558594</ele>
        <time>2026-09-03T15:24:23.000Z</time>
      </trkpt>
      <trkpt lat="48.20713" lon="6.67188">
        <ele>502.59997558594</ele>
        <time>2026-09-03T15:24:24.000Z</time>
      </trkpt>
      <trkpt lat="48.20713" lon="6.67189">
        <ele>502.40002441406</ele>
        <time>2026-09-03T15:24:25.000Z</time>
      </trkpt>
      <trkpt lat="48.20712" lon="6.67192">
        <ele>502.40002441406</ele>
        <time>2026-09-03T15:24:26.000Z</time>
      </trkpt>
      <trkpt lat="48.20712" lon="6.67193">
        <ele>502.20001220703</ele>
        <time>2026-09-03T15:24:27.000Z</time>
      </trkpt>
      <trkpt lat="48.20712" lon="6.67194">
        <ele>502.20001220703</ele>
        <time>2026-09-03T15:24:28.000Z</time>
      </trkpt>
      <trkpt lat="48.20711" lon="6.67195">
        <ele>502.20001220703</ele>
        <time>2026-09-03T15:24:29.000Z</time>
      </trkpt>
      <trkpt lat="48.20711" lon="6.67197">
        <ele>502.40002441406</ele>
        <time>2026-09-03T15:24:30.000Z</time>
      </trkpt>
      <trkpt lat="48.2071" lon="6.67198">
        <ele>502.40002441406</ele>
        <time>2026-09-03T15:24:31.000Z</time>
      </trkpt>
      <trkpt lat="48.2071" lon="6.672">
        <ele>502.40002441406</ele>
        <time>2026-09-03T15:24:32.000Z</time>
      </trkpt>
      <trkpt lat="48.20709" lon="6.67201">
        <ele>502.20001220703</ele>
        <time>2026-09-03T15:24:33.000Z</time>
      </trkpt>
      <trkpt lat="48.20709" lon="6.67202">
        <ele>502.20001220703</ele>
        <time>2026-09-03T15:24:34.000Z</time>
      </trkpt>
      <trkpt lat="48.20708" lon="6.67203">
        <ele>502.20001220703</ele>
        <time>2026-09-03T15:24:35.000Z</time>
      </trkpt>
      <trkpt lat="48.20707" lon="6.67204">
        <ele>502.20001220703</ele>
        <time>2026-09-03T15:24:36.000Z</time>
      </trkpt>
      <trkpt lat="48.20707" lon="6.67206">
        <ele>502.20001220703</ele>
        <time>2026-09-03T15:24:37.000Z</time>
      </trkpt>
      <trkpt lat="48.20706" lon="6.67208">
        <ele>502.20001220703</ele>
        <time>2026-09-03T15:24:38.000Z</time>
      </trkpt>
      <trkpt lat="48.20705" lon="6.67209">
        <ele>502.20001220703</ele>
        <time>2026-09-03T15:24:39.000Z</time>
      </trkpt>
      <trkpt lat="48.20704" lon="6.67211">
        <ele>502</ele>
        <time>2026-09-03T15:24:40.000Z</time>
      </trkpt>
      <trkpt lat="48.20704" lon="6.67212">
        <ele>502</ele>
        <time>2026-09-03T15:24:41.000Z</time>
      </trkpt>
      <trkpt lat="48.20703" lon="6.67213">
        <ele>501.79998779297</ele>
        <time>2026-09-03T15:24:42.000Z</time>
      </trkpt>
      <trkpt lat="48.20702" lon="6.67215">
        <ele>501.79998779297</ele>
        <time>2026-09-03T15:24:43.000Z</time>
      </trkpt>
      <trkpt lat="48.20701" lon="6.67216">
        <ele>501.79998779297</ele>
        <time>2026-09-03T15:24:44.000Z</time>
      </trkpt>
      <trkpt lat="48.207" lon="6.67217">
        <ele>501.79998779297</ele>
        <time>2026-09-03T15:24:45.000Z</time>
      </trkpt>
      <trkpt lat="48.20699" lon="6.6722">
        <ele>501.79998779297</ele>
        <time>2026-09-03T15:24:46.000Z</time>
      </trkpt>
      <trkpt lat="48.20699" lon="6.67221">
        <ele>501.79998779297</ele>
        <time>2026-09-03T15:24:47.000Z</time>
      </trkpt>
      <trkpt lat="48.20698" lon="6.67222">
        <ele>501.59997558594</ele>
        <time>2026-09-03T15:24:48.000Z</time>
      </trkpt>
      <trkpt lat="48.20698" lon="6.67224">
        <ele>501.59997558594</ele>
        <time>2026-09-03T15:24:49.000Z</time>
      </trkpt>
      <trkpt lat="48.20697" lon="6.67225">
        <ele>501.40002441406</ele>
        <time>2026-09-03T15:24:50.000Z</time>
      </trkpt>
      <trkpt lat="48.20697" lon="6.67225">
        <ele>501.40002441406</ele>
        <time>2026-09-03T15:24:51.000Z</time>
      </trkpt>
      <trkpt lat="48.20695" lon="6.67226">
        <ele>501.40002441406</ele>
        <time>2026-09-03T15:24:52.000Z</time>
      </trkpt>
      <trkpt lat="48.20695" lon="6.67228">
        <ele>501.40002441406</ele>
        <time>2026-09-03T15:24:53.000Z</time>
      </trkpt>
      <trkpt lat="48.20694" lon="6.6723">
        <ele>501.40002441406</ele>
        <time>2026-09-03T15:24:54.000Z</time>
      </trkpt>
      <trkpt lat="48.20693" lon="6.67231">
        <ele>501.20001220703</ele>
        <time>2026-09-03T15:24:55.000Z</time>
      </trkpt>
      <trkpt lat="48.20692" lon="6.67233">
        <ele>501.20001220703</ele>
        <time>2026-09-03T15:24:56.000Z</time>
      </trkpt>
      <trkpt lat="48.20691" lon="6.67234">
        <ele>501.20001220703</ele>
        <time>2026-09-03T15:24:57.000Z</time>
      </trkpt>
      <trkpt lat="48.2069" lon="6.67235">
        <ele>501.20001220703</ele>
        <time>2026-09-03T15:24:58.000Z</time>
      </trkpt>
      <trkpt lat="48.20689" lon="6.67236">
        <ele>501.20001220703</ele>
        <time>2026-09-03T15:24:59.000Z</time>
      </trkpt>
      <trkpt lat="48.20688" lon="6.67238">
        <ele>501.20001220703</ele>
        <time>2026-09-03T15:25:00.000Z</time>
      </trkpt>
      <trkpt lat="48.20688" lon="6.6724">
        <ele>501</ele>
        <time>2026-09-03T15:25:01.000Z</time>
      </trkpt>
      <trkpt lat="48.20687" lon="6.67241">
        <ele>501</ele>
        <time>2026-09-03T15:25:02.000Z</time>
      </trkpt>
      <trkpt lat="48.20686" lon="6.67243">
        <ele>501</ele>
        <time>2026-09-03T15:25:03.000Z</time>
      </trkpt>
      <trkpt lat="48.20685" lon="6.67244">
        <ele>501</ele>
        <time>2026-09-03T15:25:04.000Z</time>
      </trkpt>
      <trkpt lat="48.20684" lon="6.67244">
        <ele>500.79998779297</ele>
        <time>2026-09-03T15:25:05.000Z</time>
      </trkpt>
      <trkpt lat="48.20683" lon="6.67245">
        <ele>500.79998779297</ele>
        <time>2026-09-03T15:25:06.000Z</time>
      </trkpt>
      <trkpt lat="48.20682" lon="6.67247">
        <ele>500.59997558594</ele>
        <time>2026-09-03T15:25:07.000Z</time>
      </trkpt>
      <trkpt lat="48.20681" lon="6.67248">
        <ele>500.59997558594</ele>
        <time>2026-09-03T15:25:08.000Z</time>
      </trkpt>
      <trkpt lat="48.2068" lon="6.6725">
        <ele>500.59997558594</ele>
        <time>2026-09-03T15:25:09.000Z</time>
      </trkpt>
      <trkpt lat="48.20678" lon="6.67251">
        <ele>500.59997558594</ele>
        <time>2026-09-03T15:25:10.000Z</time>
      </trkpt>
      <trkpt lat="48.20677" lon="6.67253">
        <ele>500.59997558594</ele>
        <time>2026-09-03T15:25:11.000Z</time>
      </trkpt>
      <trkpt lat="48.20676" lon="6.67254">
        <ele>500.59997558594</ele>
        <time>2026-09-03T15:25:12.000Z</time>
      </trkpt>
      <trkpt lat="48.20675" lon="6.67256">
        <ele>500.59997558594</ele>
        <time>2026-09-03T15:25:13.000Z</time>
      </trkpt>
      <trkpt lat="48.20674" lon="6.67257">
        <ele>500.59997558594</ele>
        <time>2026-09-03T15:25:14.000Z</time>
      </trkpt>
      <trkpt lat="48.20673" lon="6.67259">
        <ele>500.40002441406</ele>
        <time>2026-09-03T15:25:15.000Z</time>
      </trkpt>
      <trkpt lat="48.20672" lon="6.67259">
        <ele>500.40002441406</ele>
        <time>2026-09-03T15:25:16.000Z</time>
      </trkpt>
      <trkpt lat="48.20671" lon="6.6726">
        <ele>500.20001220703</ele>
        <time>2026-09-03T15:25:17.000Z</time>
      </trkpt>
      <trkpt lat="48.2067" lon="6.67261">
        <ele>500.20001220703</ele>
        <time>2026-09-03T15:25:18.000Z</time>
      </trkpt>
      <trkpt lat="48.20669" lon="6.67262">
        <ele>500.20001220703</ele>
        <time>2026-09-03T15:25:19.000Z</time>
      </trkpt>
      <trkpt lat="48.20668" lon="6.67263">
        <ele>500</ele>
        <time>2026-09-03T15:25:20.000Z</time>
      </trkpt>
      <trkpt lat="48.20667" lon="6.67264">
        <ele>500</ele>
        <time>2026-09-03T15:25:21.000Z</time>
      </trkpt>
      <trkpt lat="48.20666" lon="6.67265">
        <ele>500</ele>
        <time>2026-09-03T15:25:22.000Z</time>
      </trkpt>
      <trkpt lat="48.20665" lon="6.67265">
        <ele>500</ele>
        <time>2026-09-03T15:25:23.000Z</time>
      </trkpt>
      <trkpt lat="48.20664" lon="6.67266">
        <ele>500</ele>
        <time>2026-09-03T15:25:24.000Z</time>
      </trkpt>
      <trkpt lat="48.20663" lon="6.67267">
        <ele>499.79998779297</ele>
        <time>2026-09-03T15:25:25.000Z</time>
      </trkpt>
      <trkpt lat="48.20662" lon="6.67268">
        <ele>499.79998779297</ele>
        <time>2026-09-03T15:25:26.000Z</time>
      </trkpt>
      <trkpt lat="48.20661" lon="6.67269">
        <ele>499.79998779297</ele>
        <time>2026-09-03T15:25:27.000Z</time>
      </trkpt>
      <trkpt lat="48.2066" lon="6.6727">
        <ele>499.79998779297</ele>
        <time>2026-09-03T15:25:28.000Z</time>
      </trkpt>
      <trkpt lat="48.20659" lon="6.67272">
        <ele>499.59997558594</ele>
        <time>2026-09-03T15:25:29.000Z</time>
      </trkpt>
      <trkpt lat="48.20658" lon="6.67272">
        <ele>499.59997558594</ele>
        <time>2026-09-03T15:25:30.000Z</time>
      </trkpt>
      <trkpt lat="48.20657" lon="6.67272">
        <ele>499.59997558594</ele>
        <time>2026-09-03T15:25:31.000Z</time>
      </trkpt>
      <trkpt lat="48.20656" lon="6.67274">
        <ele>499.40002441406</ele>
        <time>2026-09-03T15:25:32.000Z</time>
      </trkpt>
      <trkpt lat="48.20656" lon="6.67275">
        <ele>499.40002441406</ele>
        <time>2026-09-03T15:25:33.000Z</time>
      </trkpt>
      <trkpt lat="48.20654" lon="6.67276">
        <ele>499.40002441406</ele>
        <time>2026-09-03T15:25:34.000Z</time>
      </trkpt>
      <trkpt lat="48.20654" lon="6.67278">
        <ele>499.40002441406</ele>
        <time>2026-09-03T15:25:35.000Z</time>
      </trkpt>
      <trkpt lat="48.20653" lon="6.67279">
        <ele>499.40002441406</ele>
        <time>2026-09-03T15:25:36.000Z</time>
      </trkpt>
      <trkpt lat="48.20652" lon="6.6728">
        <ele>499.20001220703</ele>
        <time>2026-09-03T15:25:37.000Z</time>
      </trkpt>
      <trkpt lat="48.20651" lon="6.67281">
        <ele>499.40002441406</ele>
        <time>2026-09-03T15:25:38.000Z</time>
      </trkpt>
      <trkpt lat="48.2065" lon="6.67282">
        <ele>499.40002441406</ele>
        <time>2026-09-03T15:25:39.000Z</time>
      </trkpt>
      <trkpt lat="48.20649" lon="6.67283">
        <ele>499.40002441406</ele>
        <time>2026-09-03T15:25:40.000Z</time>
      </trkpt>
      <trkpt lat="48.20649" lon="6.67284">
        <ele>499.40002441406</ele>
        <time>2026-09-03T15:25:41.000Z</time>
      </trkpt>
      <trkpt lat="48.20648" lon="6.67285">
        <ele>499.40002441406</ele>
        <time>2026-09-03T15:25:42.000Z</time>
      </trkpt>
      <trkpt lat="48.20647" lon="6.67286">
        <ele>499.20001220703</ele>
        <time>2026-09-03T15:25:43.000Z</time>
      </trkpt>
      <trkpt lat="48.20646" lon="6.67288">
        <ele>499.20001220703</ele>
        <time>2026-09-03T15:25:44.000Z</time>
      </trkpt>
      <trkpt lat="48.20645" lon="6.6729">
        <ele>499.20001220703</ele>
        <time>2026-09-03T15:25:45.000Z</time>
      </trkpt>
      <trkpt lat="48.20644" lon="6.67291">
        <ele>499.20001220703</ele>
        <time>2026-09-03T15:25:46.000Z</time>
      </trkpt>
      <trkpt lat="48.20644" lon="6.67292">
        <ele>499.20001220703</ele>
        <time>2026-09-03T15:25:47.000Z</time>
      </trkpt>
      <trkpt lat="48.20643" lon="6.67293">
        <ele>499.20001220703</ele>
        <time>2026-09-03T15:25:48.000Z</time>
      </trkpt>
      <trkpt lat="48.20642" lon="6.67295">
        <ele>499</ele>
        <time>2026-09-03T15:25:49.000Z</time>
      </trkpt>
      <trkpt lat="48.20642" lon="6.67296">
        <ele>499</ele>
        <time>2026-09-03T15:25:50.000Z</time>
      </trkpt>
      <trkpt lat="48.20641" lon="6.67298">
        <ele>499</ele>
        <time>2026-09-03T15:25:51.000Z</time>
      </trkpt>
      <trkpt lat="48.20641" lon="6.67299">
        <ele>499</ele>
        <time>2026-09-03T15:25:52.000Z</time>
      </trkpt>
      <trkpt lat="48.20641" lon="6.673">
        <ele>499</ele>
        <time>2026-09-03T15:25:53.000Z</time>
      </trkpt>
      <trkpt lat="48.2064" lon="6.67302">
        <ele>499</ele>
        <time>2026-09-03T15:25:54.000Z</time>
      </trkpt>
      <trkpt lat="48.2064" lon="6.67303">
        <ele>499</ele>
        <time>2026-09-03T15:25:55.000Z</time>
      </trkpt>
      <trkpt lat="48.20639" lon="6.67305">
        <ele>499</ele>
        <time>2026-09-03T15:25:56.000Z</time>
      </trkpt>
      <trkpt lat="48.20638" lon="6.67306">
        <ele>499</ele>
        <time>2026-09-03T15:25:57.000Z</time>
      </trkpt>
      <trkpt lat="48.20638" lon="6.67309">
        <ele>499</ele>
        <time>2026-09-03T15:25:58.000Z</time>
      </trkpt>
      <trkpt lat="48.20638" lon="6.6731">
        <ele>499.20001220703</ele>
        <time>2026-09-03T15:25:59.000Z</time>
      </trkpt>
      <trkpt lat="48.20637" lon="6.67311">
        <ele>499.20001220703</ele>
        <time>2026-09-03T15:26:00.000Z</time>
      </trkpt>
      <trkpt lat="48.20637" lon="6.67312">
        <ele>499.20001220703</ele>
        <time>2026-09-03T15:26:01.000Z</time>
      </trkpt>
      <trkpt lat="48.20636" lon="6.67313">
        <ele>499.20001220703</ele>
        <time>2026-09-03T15:26:02.000Z</time>
      </trkpt>
      <trkpt lat="48.20636" lon="6.67314">
        <ele>499.20001220703</ele>
        <time>2026-09-03T15:26:03.000Z</time>
      </trkpt>
      <trkpt lat="48.20636" lon="6.67316">
        <ele>499.20001220703</ele>
        <time>2026-09-03T15:26:04.000Z</time>
      </trkpt>
      <trkpt lat="48.20636" lon="6.67318">
        <ele>499.20001220703</ele>
        <time>2026-09-03T15:26:05.000Z</time>
      </trkpt>
      <trkpt lat="48.20635" lon="6.67319">
        <ele>499.20001220703</ele>
        <time>2026-09-03T15:26:06.000Z</time>
      </trkpt>
      <trkpt lat="48.20635" lon="6.6732">
        <ele>499.20001220703</ele>
        <time>2026-09-03T15:26:07.000Z</time>
      </trkpt>
      <trkpt lat="48.20634" lon="6.67322">
        <ele>499.40002441406</ele>
        <time>2026-09-03T15:26:08.000Z</time>
      </trkpt>
      <trkpt lat="48.20634" lon="6.67323">
        <ele>499.40002441406</ele>
        <time>2026-09-03T15:26:09.000Z</time>
      </trkpt>
      <trkpt lat="48.20634" lon="6.67323">
        <ele>499.40002441406</ele>
        <time>2026-09-03T15:26:10.000Z</time>
      </trkpt>
      <trkpt lat="48.20633" lon="6.67325">
        <ele>499.40002441406</ele>
        <time>2026-09-03T15:26:11.000Z</time>
      </trkpt>
      <trkpt lat="48.20633" lon="6.67327">
        <ele>499.40002441406</ele>
        <time>2026-09-03T15:26:12.000Z</time>
      </trkpt>
      <trkpt lat="48.20632" lon="6.67328">
        <ele>499.40002441406</ele>
        <time>2026-09-03T15:26:13.000Z</time>
      </trkpt>
      <trkpt lat="48.20632" lon="6.6733">
        <ele>499.40002441406</ele>
        <time>2026-09-03T15:26:14.000Z</time>
      </trkpt>
      <trkpt lat="48.20632" lon="6.67332">
        <ele>499.40002441406</ele>
        <time>2026-09-03T15:26:15.000Z</time>
      </trkpt>
      <trkpt lat="48.20631" lon="6.67333">
        <ele>499.40002441406</ele>
        <time>2026-09-03T15:26:16.000Z</time>
      </trkpt>
      <trkpt lat="48.20631" lon="6.67334">
        <ele>499.20001220703</ele>
        <time>2026-09-03T15:26:17.000Z</time>
      </trkpt>
      <trkpt lat="48.2063" lon="6.67335">
        <ele>499.20001220703</ele>
        <time>2026-09-03T15:26:18.000Z</time>
      </trkpt>
      <trkpt lat="48.2063" lon="6.67337">
        <ele>499.40002441406</ele>
        <time>2026-09-03T15:26:19.000Z</time>
      </trkpt>
      <trkpt lat="48.20629" lon="6.67339">
        <ele>499.40002441406</ele>
        <time>2026-09-03T15:26:20.000Z</time>
      </trkpt>
      <trkpt lat="48.20629" lon="6.67341">
        <ele>499.40002441406</ele>
        <time>2026-09-03T15:26:21.000Z</time>
      </trkpt>
      <trkpt lat="48.20628" lon="6.67344">
        <ele>499.20001220703</ele>
        <time>2026-09-03T15:26:22.000Z</time>
      </trkpt>
      <trkpt lat="48.20628" lon="6.67346">
        <ele>499.20001220703</ele>
        <time>2026-09-03T15:26:23.000Z</time>
      </trkpt>
      <trkpt lat="48.20627" lon="6.67347">
        <ele>499.20001220703</ele>
        <time>2026-09-03T15:26:24.000Z</time>
      </trkpt>
      <trkpt lat="48.20627" lon="6.67349">
        <ele>499</ele>
        <time>2026-09-03T15:26:25.000Z</time>
      </trkpt>
      <trkpt lat="48.20627" lon="6.67351">
        <ele>499</ele>
        <time>2026-09-03T15:26:26.000Z</time>
      </trkpt>
      <trkpt lat="48.20626" lon="6.67353">
        <ele>498.79998779297</ele>
        <time>2026-09-03T15:26:27.000Z</time>
      </trkpt>
      <trkpt lat="48.20626" lon="6.67355">
        <ele>498.79998779297</ele>
        <time>2026-09-03T15:26:28.000Z</time>
      </trkpt>
      <trkpt lat="48.20625" lon="6.67357">
        <ele>498.79998779297</ele>
        <time>2026-09-03T15:26:29.000Z</time>
      </trkpt>
      <trkpt lat="48.20625" lon="6.67358">
        <ele>498.79998779297</ele>
        <time>2026-09-03T15:26:30.000Z</time>
      </trkpt>
      <trkpt lat="48.20624" lon="6.67359">
        <ele>498.79998779297</ele>
        <time>2026-09-03T15:26:31.000Z</time>
      </trkpt>
      <trkpt lat="48.20623" lon="6.67361">
        <ele>498.59997558594</ele>
        <time>2026-09-03T15:26:32.000Z</time>
      </trkpt>
      <trkpt lat="48.20623" lon="6.67362">
        <ele>498.59997558594</ele>
        <time>2026-09-03T15:26:33.000Z</time>
      </trkpt>
      <trkpt lat="48.20622" lon="6.67364">
        <ele>498.59997558594</ele>
        <time>2026-09-03T15:26:34.000Z</time>
      </trkpt>
      <trkpt lat="48.20622" lon="6.67365">
        <ele>498.40002441406</ele>
        <time>2026-09-03T15:26:35.000Z</time>
      </trkpt>
      <trkpt lat="48.20621" lon="6.67366">
        <ele>498.40002441406</ele>
        <time>2026-09-03T15:26:36.000Z</time>
      </trkpt>
      <trkpt lat="48.2062" lon="6.67369">
        <ele>498.40002441406</ele>
        <time>2026-09-03T15:26:37.000Z</time>
      </trkpt>
      <trkpt lat="48.2062" lon="6.67371">
        <ele>498.20001220703</ele>
        <time>2026-09-03T15:26:38.000Z</time>
      </trkpt>
      <trkpt lat="48.2062" lon="6.67373">
        <ele>498.20001220703</ele>
        <time>2026-09-03T15:26:39.000Z</time>
      </trkpt>
      <trkpt lat="48.20619" lon="6.67374">
        <ele>498.20001220703</ele>
        <time>2026-09-03T15:26:40.000Z</time>
      </trkpt>
      <trkpt lat="48.20619" lon="6.67375">
        <ele>498</ele>
        <time>2026-09-03T15:26:41.000Z</time>
      </trkpt>
      <trkpt lat="48.20618" lon="6.67376">
        <ele>498</ele>
        <time>2026-09-03T15:26:42.000Z</time>
      </trkpt>
      <trkpt lat="48.20617" lon="6.67378">
        <ele>497.79998779297</ele>
        <time>2026-09-03T15:26:43.000Z</time>
      </trkpt>
      <trkpt lat="48.20617" lon="6.67379">
        <ele>497.79998779297</ele>
        <time>2026-09-03T15:26:44.000Z</time>
      </trkpt>
      <trkpt lat="48.20616" lon="6.67381">
        <ele>497.79998779297</ele>
        <time>2026-09-03T15:26:45.000Z</time>
      </trkpt>
      <trkpt lat="48.20616" lon="6.67383">
        <ele>497.79998779297</ele>
        <time>2026-09-03T15:26:46.000Z</time>
      </trkpt>
      <trkpt lat="48.20615" lon="6.67384">
        <ele>497.59997558594</ele>
        <time>2026-09-03T15:26:47.000Z</time>
      </trkpt>
      <trkpt lat="48.20615" lon="6.67386">
        <ele>497.59997558594</ele>
        <time>2026-09-03T15:26:48.000Z</time>
      </trkpt>
      <trkpt lat="48.20615" lon="6.67387">
        <ele>497.59997558594</ele>
        <time>2026-09-03T15:26:49.000Z</time>
      </trkpt>
      <trkpt lat="48.20615" lon="6.67388">
        <ele>497.59997558594</ele>
        <time>2026-09-03T15:26:50.000Z</time>
      </trkpt>
      <trkpt lat="48.20614" lon="6.67391">
        <ele>497.59997558594</ele>
        <time>2026-09-03T15:26:51.000Z</time>
      </trkpt>
      <trkpt lat="48.20613" lon="6.67392">
        <ele>497.59997558594</ele>
        <time>2026-09-03T15:26:52.000Z</time>
      </trkpt>
      <trkpt lat="48.20612" lon="6.67394">
        <ele>497.59997558594</ele>
        <time>2026-09-03T15:26:53.000Z</time>
      </trkpt>
      <trkpt lat="48.20611" lon="6.67397">
        <ele>497.59997558594</ele>
        <time>2026-09-03T15:26:54.000Z</time>
      </trkpt>
      <trkpt lat="48.20611" lon="6.67398">
        <ele>497.40002441406</ele>
        <time>2026-09-03T15:26:55.000Z</time>
      </trkpt>
      <trkpt lat="48.2061" lon="6.674">
        <ele>497.20001220703</ele>
        <time>2026-09-03T15:26:56.000Z</time>
      </trkpt>
      <trkpt lat="48.20609" lon="6.67401">
        <ele>497.20001220703</ele>
        <time>2026-09-03T15:26:57.000Z</time>
      </trkpt>
      <trkpt lat="48.20608" lon="6.67403">
        <ele>497.20001220703</ele>
        <time>2026-09-03T15:26:58.000Z</time>
      </trkpt>
      <trkpt lat="48.20607" lon="6.67404">
        <ele>497</ele>
        <time>2026-09-03T15:26:59.000Z</time>
      </trkpt>
      <trkpt lat="48.20606" lon="6.67405">
        <ele>497</ele>
        <time>2026-09-03T15:27:00.000Z</time>
      </trkpt>
      <trkpt lat="48.20605" lon="6.67407">
        <ele>496.79998779297</ele>
        <time>2026-09-03T15:27:01.000Z</time>
      </trkpt>
      <trkpt lat="48.20605" lon="6.67409">
        <ele>496.79998779297</ele>
        <time>2026-09-03T15:27:02.000Z</time>
      </trkpt>
      <trkpt lat="48.20604" lon="6.67411">
        <ele>496.79998779297</ele>
        <time>2026-09-03T15:27:03.000Z</time>
      </trkpt>
      <trkpt lat="48.20603" lon="6.67412">
        <ele>496.59997558594</ele>
        <time>2026-09-03T15:27:04.000Z</time>
      </trkpt>
      <trkpt lat="48.20603" lon="6.67413">
        <ele>496.59997558594</ele>
        <time>2026-09-03T15:27:05.000Z</time>
      </trkpt>
      <trkpt lat="48.20602" lon="6.67414">
        <ele>496.59997558594</ele>
        <time>2026-09-03T15:27:06.000Z</time>
      </trkpt>
      <trkpt lat="48.20601" lon="6.67416">
        <ele>496.59997558594</ele>
        <time>2026-09-03T15:27:07.000Z</time>
      </trkpt>
      <trkpt lat="48.20601" lon="6.67417">
        <ele>496.59997558594</ele>
        <time>2026-09-03T15:27:08.000Z</time>
      </trkpt>
      <trkpt lat="48.206" lon="6.67418">
        <ele>496.40002441406</ele>
        <time>2026-09-03T15:27:09.000Z</time>
      </trkpt>
      <trkpt lat="48.20599" lon="6.67419">
        <ele>496.40002441406</ele>
        <time>2026-09-03T15:27:10.000Z</time>
      </trkpt>
      <trkpt lat="48.20599" lon="6.67421">
        <ele>496.40002441406</ele>
        <time>2026-09-03T15:27:11.000Z</time>
      </trkpt>
      <trkpt lat="48.20598" lon="6.67423">
        <ele>496.40002441406</ele>
        <time>2026-09-03T15:27:12.000Z</time>
      </trkpt>
      <trkpt lat="48.20598" lon="6.67424">
        <ele>496.20001220703</ele>
        <time>2026-09-03T15:27:13.000Z</time>
      </trkpt>
      <trkpt lat="48.20598" lon="6.67425">
        <ele>496.20001220703</ele>
        <time>2026-09-03T15:27:14.000Z</time>
      </trkpt>
      <trkpt lat="48.20597" lon="6.67426">
        <ele>496.20001220703</ele>
        <time>2026-09-03T15:27:15.000Z</time>
      </trkpt>
      <trkpt lat="48.20596" lon="6.67428">
        <ele>496.20001220703</ele>
        <time>2026-09-03T15:27:16.000Z</time>
      </trkpt>
      <trkpt lat="48.20595" lon="6.67429">
        <ele>496.20001220703</ele>
        <time>2026-09-03T15:27:17.000Z</time>
      </trkpt>
      <trkpt lat="48.20595" lon="6.6743">
        <ele>496</ele>
        <time>2026-09-03T15:27:18.000Z</time>
      </trkpt>
      <trkpt lat="48.20594" lon="6.67432">
        <ele>496</ele>
        <time>2026-09-03T15:27:19.000Z</time>
      </trkpt>
      <trkpt lat="48.20593" lon="6.67434">
        <ele>496</ele>
        <time>2026-09-03T15:27:20.000Z</time>
      </trkpt>
      <trkpt lat="48.20592" lon="6.67435">
        <ele>495.79998779297</ele>
        <time>2026-09-03T15:27:21.000Z</time>
      </trkpt>
      <trkpt lat="48.20591" lon="6.67436">
        <ele>495.79998779297</ele>
        <time>2026-09-03T15:27:22.000Z</time>
      </trkpt>
      <trkpt lat="48.2059" lon="6.67437">
        <ele>495.59997558594</ele>
        <time>2026-09-03T15:27:23.000Z</time>
      </trkpt>
      <trkpt lat="48.20589" lon="6.67438">
        <ele>495.59997558594</ele>
        <time>2026-09-03T15:27:24.000Z</time>
      </trkpt>
      <trkpt lat="48.20589" lon="6.67439">
        <ele>495.40002441406</ele>
        <time>2026-09-03T15:27:25.000Z</time>
      </trkpt>
      <trkpt lat="48.20588" lon="6.67441">
        <ele>495.40002441406</ele>
        <time>2026-09-03T15:27:26.000Z</time>
      </trkpt>
      <trkpt lat="48.20587" lon="6.67442">
        <ele>495.20001220703</ele>
        <time>2026-09-03T15:27:27.000Z</time>
      </trkpt>
      <trkpt lat="48.20586" lon="6.67443">
        <ele>495</ele>
        <time>2026-09-03T15:27:28.000Z</time>
      </trkpt>
      <trkpt lat="48.20586" lon="6.67444">
        <ele>494.79998779297</ele>
        <time>2026-09-03T15:27:29.000Z</time>
      </trkpt>
      <trkpt lat="48.20585" lon="6.67445">
        <ele>494.79998779297</ele>
        <time>2026-09-03T15:27:30.000Z</time>
      </trkpt>
      <trkpt lat="48.20585" lon="6.67446">
        <ele>494.59997558594</ele>
        <time>2026-09-03T15:27:31.000Z</time>
      </trkpt>
      <trkpt lat="48.20584" lon="6.67447">
        <ele>494.59997558594</ele>
        <time>2026-09-03T15:27:32.000Z</time>
      </trkpt>
      <trkpt lat="48.20583" lon="6.67448">
        <ele>494.40002441406</ele>
        <time>2026-09-03T15:27:33.000Z</time>
      </trkpt>
      <trkpt lat="48.20582" lon="6.6745">
        <ele>494.20001220703</ele>
        <time>2026-09-03T15:27:34.000Z</time>
      </trkpt>
      <trkpt lat="48.20582" lon="6.67452">
        <ele>494.20001220703</ele>
        <time>2026-09-03T15:27:35.000Z</time>
      </trkpt>
      <trkpt lat="48.20581" lon="6.67453">
        <ele>494</ele>
        <time>2026-09-03T15:27:36.000Z</time>
      </trkpt>
      <trkpt lat="48.2058" lon="6.67454">
        <ele>493.79998779297</ele>
        <time>2026-09-03T15:27:37.000Z</time>
      </trkpt>
      <trkpt lat="48.20579" lon="6.67455">
        <ele>493.59997558594</ele>
        <time>2026-09-03T15:27:38.000Z</time>
      </trkpt>
      <trkpt lat="48.20579" lon="6.67456">
        <ele>493.40002441406</ele>
        <time>2026-09-03T15:27:39.000Z</time>
      </trkpt>
      <trkpt lat="48.20578" lon="6.67457">
        <ele>493.40002441406</ele>
        <time>2026-09-03T15:27:40.000Z</time>
      </trkpt>
      <trkpt lat="48.20578" lon="6.67458">
        <ele>493.20001220703</ele>
        <time>2026-09-03T15:27:41.000Z</time>
      </trkpt>
      <trkpt lat="48.20577" lon="6.67459">
        <ele>493</ele>
        <time>2026-09-03T15:27:42.000Z</time>
      </trkpt>
      <trkpt lat="48.20577" lon="6.6746">
        <ele>492.79998779297</ele>
        <time>2026-09-03T15:27:43.000Z</time>
      </trkpt>
      <trkpt lat="48.20575" lon="6.67461">
        <ele>492.59997558594</ele>
        <time>2026-09-03T15:27:44.000Z</time>
      </trkpt>
      <trkpt lat="48.20575" lon="6.67462">
        <ele>492.40002441406</ele>
        <time>2026-09-03T15:27:45.000Z</time>
      </trkpt>
      <trkpt lat="48.20574" lon="6.67463">
        <ele>492.20001220703</ele>
        <time>2026-09-03T15:27:46.000Z</time>
      </trkpt>
      <trkpt lat="48.20573" lon="6.67464">
        <ele>492</ele>
        <time>2026-09-03T15:27:47.000Z</time>
      </trkpt>
      <trkpt lat="48.20572" lon="6.67465">
        <ele>492</ele>
        <time>2026-09-03T15:27:48.000Z</time>
      </trkpt>
      <trkpt lat="48.20571" lon="6.67465">
        <ele>491.79998779297</ele>
        <time>2026-09-03T15:27:49.000Z</time>
      </trkpt>
      <trkpt lat="48.20571" lon="6.67467">
        <ele>491.59997558594</ele>
        <time>2026-09-03T15:27:50.000Z</time>
      </trkpt>
      <trkpt lat="48.2057" lon="6.67468">
        <ele>491.59997558594</ele>
        <time>2026-09-03T15:27:51.000Z</time>
      </trkpt>
      <trkpt lat="48.20569" lon="6.6747">
        <ele>491.40002441406</ele>
        <time>2026-09-03T15:27:52.000Z</time>
      </trkpt>
      <trkpt lat="48.20568" lon="6.67471">
        <ele>491.20001220703</ele>
        <time>2026-09-03T15:27:53.000Z</time>
      </trkpt>
      <trkpt lat="48.20568" lon="6.67472">
        <ele>491.20001220703</ele>
        <time>2026-09-03T15:27:54.000Z</time>
      </trkpt>
      <trkpt lat="48.20567" lon="6.67474">
        <ele>491</ele>
        <time>2026-09-03T15:27:55.000Z</time>
      </trkpt>
      <trkpt lat="48.20566" lon="6.67475">
        <ele>491</ele>
        <time>2026-09-03T15:27:56.000Z</time>
      </trkpt>
      <trkpt lat="48.20566" lon="6.67476">
        <ele>490.79998779297</ele>
        <time>2026-09-03T15:27:57.000Z</time>
      </trkpt>
      <trkpt lat="48.20564" lon="6.67477">
        <ele>490.79998779297</ele>
        <time>2026-09-03T15:27:58.000Z</time>
      </trkpt>
      <trkpt lat="48.20564" lon="6.67477">
        <ele>490.59997558594</ele>
        <time>2026-09-03T15:27:59.000Z</time>
      </trkpt>
      <trkpt lat="48.20563" lon="6.67479">
        <ele>490.40002441406</ele>
        <time>2026-09-03T15:28:00.000Z</time>
      </trkpt>
      <trkpt lat="48.20562" lon="6.6748">
        <ele>490.20001220703</ele>
        <time>2026-09-03T15:28:01.000Z</time>
      </trkpt>
      <trkpt lat="48.20561" lon="6.67481">
        <ele>490</ele>
        <time>2026-09-03T15:28:02.000Z</time>
      </trkpt>
      <trkpt lat="48.20561" lon="6.67482">
        <ele>490</ele>
        <time>2026-09-03T15:28:03.000Z</time>
      </trkpt>
      <trkpt lat="48.2056" lon="6.67484">
        <ele>489.79998779297</ele>
        <time>2026-09-03T15:28:04.000Z</time>
      </trkpt>
      <trkpt lat="48.20558" lon="6.67485">
        <ele>489.79998779297</ele>
        <time>2026-09-03T15:28:05.000Z</time>
      </trkpt>
      <trkpt lat="48.20558" lon="6.67486">
        <ele>489.79998779297</ele>
        <time>2026-09-03T15:28:06.000Z</time>
      </trkpt>
      <trkpt lat="48.20557" lon="6.67487">
        <ele>489.59997558594</ele>
        <time>2026-09-03T15:28:07.000Z</time>
      </trkpt>
      <trkpt lat="48.20556" lon="6.67489">
        <ele>489.59997558594</ele>
        <time>2026-09-03T15:28:08.000Z</time>
      </trkpt>
      <trkpt lat="48.20555" lon="6.6749">
        <ele>489.40002441406</ele>
        <time>2026-09-03T15:28:09.000Z</time>
      </trkpt>
      <trkpt lat="48.20554" lon="6.6749">
        <ele>489.20001220703</ele>
        <time>2026-09-03T15:28:10.000Z</time>
      </trkpt>
      <trkpt lat="48.20553" lon="6.67491">
        <ele>489</ele>
        <time>2026-09-03T15:28:11.000Z</time>
      </trkpt>
      <trkpt lat="48.20552" lon="6.67492">
        <ele>488.79998779297</ele>
        <time>2026-09-03T15:28:12.000Z</time>
      </trkpt>
      <trkpt lat="48.20552" lon="6.67494">
        <ele>488.59997558594</ele>
        <time>2026-09-03T15:28:13.000Z</time>
      </trkpt>
      <trkpt lat="48.20551" lon="6.67495">
        <ele>488.40002441406</ele>
        <time>2026-09-03T15:28:14.000Z</time>
      </trkpt>
      <trkpt lat="48.2055" lon="6.67496">
        <ele>488.20001220703</ele>
        <time>2026-09-03T15:28:15.000Z</time>
      </trkpt>
      <trkpt lat="48.20549" lon="6.67498">
        <ele>488.20001220703</ele>
        <time>2026-09-03T15:28:16.000Z</time>
      </trkpt>
      <trkpt lat="48.20549" lon="6.67499">
        <ele>488</ele>
        <time>2026-09-03T15:28:17.000Z</time>
      </trkpt>
      <trkpt lat="48.20548" lon="6.67499">
        <ele>487.79998779297</ele>
        <time>2026-09-03T15:28:18.000Z</time>
      </trkpt>
      <trkpt lat="48.20547" lon="6.675">
        <ele>487.59997558594</ele>
        <time>2026-09-03T15:28:19.000Z</time>
      </trkpt>
      <trkpt lat="48.20546" lon="6.67501">
        <ele>487.59997558594</ele>
        <time>2026-09-03T15:28:20.000Z</time>
      </trkpt>
      <trkpt lat="48.20545" lon="6.67502">
        <ele>487.40002441406</ele>
        <time>2026-09-03T15:28:21.000Z</time>
      </trkpt>
      <trkpt lat="48.20545" lon="6.67504">
        <ele>487.20001220703</ele>
        <time>2026-09-03T15:28:22.000Z</time>
      </trkpt>
      <trkpt lat="48.20544" lon="6.67505">
        <ele>487</ele>
        <time>2026-09-03T15:28:23.000Z</time>
      </trkpt>
      <trkpt lat="48.20543" lon="6.67507">
        <ele>487</ele>
        <time>2026-09-03T15:28:24.000Z</time>
      </trkpt>
      <trkpt lat="48.20543" lon="6.67508">
        <ele>486.79998779297</ele>
        <time>2026-09-03T15:28:25.000Z</time>
      </trkpt>
      <trkpt lat="48.20542" lon="6.67509">
        <ele>486.79998779297</ele>
        <time>2026-09-03T15:28:26.000Z</time>
      </trkpt>
      <trkpt lat="48.20541" lon="6.6751">
        <ele>486.79998779297</ele>
        <time>2026-09-03T15:28:27.000Z</time>
      </trkpt>
      <trkpt lat="48.2054" lon="6.67511">
        <ele>486.59997558594</ele>
        <time>2026-09-03T15:28:28.000Z</time>
      </trkpt>
      <trkpt lat="48.20539" lon="6.67512">
        <ele>486.40002441406</ele>
        <time>2026-09-03T15:28:29.000Z</time>
      </trkpt>
      <trkpt lat="48.20538" lon="6.67513">
        <ele>486.40002441406</ele>
        <time>2026-09-03T15:28:30.000Z</time>
      </trkpt>
      <trkpt lat="48.20537" lon="6.67514">
        <ele>486.20001220703</ele>
        <time>2026-09-03T15:28:31.000Z</time>
      </trkpt>
      <trkpt lat="48.20536" lon="6.67516">
        <ele>486</ele>
        <time>2026-09-03T15:28:32.000Z</time>
      </trkpt>
      <trkpt lat="48.20536" lon="6.67517">
        <ele>486</ele>
        <time>2026-09-03T15:28:33.000Z</time>
      </trkpt>
      <trkpt lat="48.20535" lon="6.67518">
        <ele>485.79998779297</ele>
        <time>2026-09-03T15:28:34.000Z</time>
      </trkpt>
      <trkpt lat="48.20534" lon="6.67518">
        <ele>485.79998779297</ele>
        <time>2026-09-03T15:28:35.000Z</time>
      </trkpt>
      <trkpt lat="48.20533" lon="6.67519">
        <ele>485.79998779297</ele>
        <time>2026-09-03T15:28:36.000Z</time>
      </trkpt>
      <trkpt lat="48.20533" lon="6.67521">
        <ele>485.59997558594</ele>
        <time>2026-09-03T15:28:37.000Z</time>
      </trkpt>
      <trkpt lat="48.20532" lon="6.67522">
        <ele>485.59997558594</ele>
        <time>2026-09-03T15:28:38.000Z</time>
      </trkpt>
      <trkpt lat="48.20532" lon="6.67523">
        <ele>485.40002441406</ele>
        <time>2026-09-03T15:28:39.000Z</time>
      </trkpt>
      <trkpt lat="48.20531" lon="6.67524">
        <ele>485.20001220703</ele>
        <time>2026-09-03T15:28:40.000Z</time>
      </trkpt>
      <trkpt lat="48.20531" lon="6.67525">
        <ele>485.20001220703</ele>
        <time>2026-09-03T15:28:41.000Z</time>
      </trkpt>
      <trkpt lat="48.2053" lon="6.67525">
        <ele>485</ele>
        <time>2026-09-03T15:28:42.000Z</time>
      </trkpt>
      <trkpt lat="48.2053" lon="6.67527">
        <ele>484.79998779297</ele>
        <time>2026-09-03T15:28:43.000Z</time>
      </trkpt>
      <trkpt lat="48.20529" lon="6.67528">
        <ele>484.79998779297</ele>
        <time>2026-09-03T15:28:44.000Z</time>
      </trkpt>
      <trkpt lat="48.20529" lon="6.67529">
        <ele>484.59997558594</ele>
        <time>2026-09-03T15:28:45.000Z</time>
      </trkpt>
      <trkpt lat="48.20528" lon="6.67529">
        <ele>484.59997558594</ele>
        <time>2026-09-03T15:28:46.000Z</time>
      </trkpt>
      <trkpt lat="48.20527" lon="6.67531">
        <ele>484.40002441406</ele>
        <time>2026-09-03T15:28:47.000Z</time>
      </trkpt>
      <trkpt lat="48.20527" lon="6.67531">
        <ele>484.40002441406</ele>
        <time>2026-09-03T15:28:48.000Z</time>
      </trkpt>
      <trkpt lat="48.20526" lon="6.67533">
        <ele>484.20001220703</ele>
        <time>2026-09-03T15:28:49.000Z</time>
      </trkpt>
      <trkpt lat="48.20526" lon="6.67534">
        <ele>484.20001220703</ele>
        <time>2026-09-03T15:28:50.000Z</time>
      </trkpt>
      <trkpt lat="48.20525" lon="6.67536">
        <ele>484</ele>
        <time>2026-09-03T15:28:51.000Z</time>
      </trkpt>
      <trkpt lat="48.20525" lon="6.67537">
        <ele>484</ele>
        <time>2026-09-03T15:28:52.000Z</time>
      </trkpt>
      <trkpt lat="48.20524" lon="6.67539">
        <ele>483.79998779297</ele>
        <time>2026-09-03T15:28:53.000Z</time>
      </trkpt>
      <trkpt lat="48.20523" lon="6.6754">
        <ele>483.59997558594</ele>
        <time>2026-09-03T15:28:54.000Z</time>
      </trkpt>
      <trkpt lat="48.20522" lon="6.67541">
        <ele>483.59997558594</ele>
        <time>2026-09-03T15:28:55.000Z</time>
      </trkpt>
      <trkpt lat="48.20521" lon="6.67542">
        <ele>483.40002441406</ele>
        <time>2026-09-03T15:28:56.000Z</time>
      </trkpt>
      <trkpt lat="48.20521" lon="6.67543">
        <ele>483.40002441406</ele>
        <time>2026-09-03T15:28:57.000Z</time>
      </trkpt>
      <trkpt lat="48.2052" lon="6.67544">
        <ele>483.20001220703</ele>
        <time>2026-09-03T15:28:58.000Z</time>
      </trkpt>
      <trkpt lat="48.20519" lon="6.67546">
        <ele>483</ele>
        <time>2026-09-03T15:28:59.000Z</time>
      </trkpt>
      <trkpt lat="48.20518" lon="6.67548">
        <ele>483</ele>
        <time>2026-09-03T15:29:00.000Z</time>
      </trkpt>
      <trkpt lat="48.20518" lon="6.67549">
        <ele>483</ele>
        <time>2026-09-03T15:29:01.000Z</time>
      </trkpt>
      <trkpt lat="48.20517" lon="6.67551">
        <ele>483</ele>
        <time>2026-09-03T15:29:02.000Z</time>
      </trkpt>
      <trkpt lat="48.20517" lon="6.67551">
        <ele>482.79998779297</ele>
        <time>2026-09-03T15:29:03.000Z</time>
      </trkpt>
      <trkpt lat="48.20516" lon="6.67552">
        <ele>482.79998779297</ele>
        <time>2026-09-03T15:29:04.000Z</time>
      </trkpt>
      <trkpt lat="48.20515" lon="6.67554">
        <ele>482.59997558594</ele>
        <time>2026-09-03T15:29:05.000Z</time>
      </trkpt>
      <trkpt lat="48.20514" lon="6.67555">
        <ele>482.40002441406</ele>
        <time>2026-09-03T15:29:06.000Z</time>
      </trkpt>
      <trkpt lat="48.20513" lon="6.67557">
        <ele>482.40002441406</ele>
        <time>2026-09-03T15:29:07.000Z</time>
      </trkpt>
      <trkpt lat="48.20512" lon="6.67558">
        <ele>482.20001220703</ele>
        <time>2026-09-03T15:29:08.000Z</time>
      </trkpt>
      <trkpt lat="48.20512" lon="6.6756">
        <ele>482.20001220703</ele>
        <time>2026-09-03T15:29:09.000Z</time>
      </trkpt>
      <trkpt lat="48.20511" lon="6.67561">
        <ele>482</ele>
        <time>2026-09-03T15:29:10.000Z</time>
      </trkpt>
      <trkpt lat="48.20511" lon="6.67563">
        <ele>482</ele>
        <time>2026-09-03T15:29:11.000Z</time>
      </trkpt>
      <trkpt lat="48.2051" lon="6.67564">
        <ele>482</ele>
        <time>2026-09-03T15:29:12.000Z</time>
      </trkpt>
      <trkpt lat="48.20509" lon="6.67566">
        <ele>481.79998779297</ele>
        <time>2026-09-03T15:29:13.000Z</time>
      </trkpt>
      <trkpt lat="48.20508" lon="6.67566">
        <ele>481.79998779297</ele>
        <time>2026-09-03T15:29:14.000Z</time>
      </trkpt>
      <trkpt lat="48.20507" lon="6.67567">
        <ele>481.59997558594</ele>
        <time>2026-09-03T15:29:15.000Z</time>
      </trkpt>
      <trkpt lat="48.20507" lon="6.67569">
        <ele>481.59997558594</ele>
        <time>2026-09-03T15:29:16.000Z</time>
      </trkpt>
      <trkpt lat="48.20506" lon="6.6757">
        <ele>481.40002441406</ele>
        <time>2026-09-03T15:29:17.000Z</time>
      </trkpt>
      <trkpt lat="48.20505" lon="6.67571">
        <ele>481.20001220703</ele>
        <time>2026-09-03T15:29:18.000Z</time>
      </trkpt>
      <trkpt lat="48.20505" lon="6.67572">
        <ele>481</ele>
        <time>2026-09-03T15:29:19.000Z</time>
      </trkpt>
      <trkpt lat="48.20503" lon="6.67574">
        <ele>480.79998779297</ele>
        <time>2026-09-03T15:29:20.000Z</time>
      </trkpt>
      <trkpt lat="48.20503" lon="6.67575">
        <ele>480.79998779297</ele>
        <time>2026-09-03T15:29:21.000Z</time>
      </trkpt>
      <trkpt lat="48.20501" lon="6.67576">
        <ele>480.79998779297</ele>
        <time>2026-09-03T15:29:22.000Z</time>
      </trkpt>
      <trkpt lat="48.20501" lon="6.67577">
        <ele>480.79998779297</ele>
        <time>2026-09-03T15:29:23.000Z</time>
      </trkpt>
      <trkpt lat="48.205" lon="6.67579">
        <ele>480.79998779297</ele>
        <time>2026-09-03T15:29:24.000Z</time>
      </trkpt>
      <trkpt lat="48.20499" lon="6.6758">
        <ele>480.79998779297</ele>
        <time>2026-09-03T15:29:25.000Z</time>
      </trkpt>
      <trkpt lat="48.20499" lon="6.67582">
        <ele>480.79998779297</ele>
        <time>2026-09-03T15:29:26.000Z</time>
      </trkpt>
      <trkpt lat="48.20498" lon="6.67583">
        <ele>480.79998779297</ele>
        <time>2026-09-03T15:29:27.000Z</time>
      </trkpt>
      <trkpt lat="48.20497" lon="6.67584">
        <ele>480.79998779297</ele>
        <time>2026-09-03T15:29:28.000Z</time>
      </trkpt>
      <trkpt lat="48.20496" lon="6.67585">
        <ele>480.59997558594</ele>
        <time>2026-09-03T15:29:29.000Z</time>
      </trkpt>
      <trkpt lat="48.20494" lon="6.67586">
        <ele>480.40002441406</ele>
        <time>2026-09-03T15:29:30.000Z</time>
      </trkpt>
      <trkpt lat="48.20493" lon="6.67588">
        <ele>480.20001220703</ele>
        <time>2026-09-03T15:29:31.000Z</time>
      </trkpt>
      <trkpt lat="48.20492" lon="6.67589">
        <ele>480.20001220703</ele>
        <time>2026-09-03T15:29:32.000Z</time>
      </trkpt>
      <trkpt lat="48.20492" lon="6.67591">
        <ele>480</ele>
        <time>2026-09-03T15:29:33.000Z</time>
      </trkpt>
      <trkpt lat="48.20491" lon="6.67592">
        <ele>480</ele>
        <time>2026-09-03T15:29:34.000Z</time>
      </trkpt>
      <trkpt lat="48.20491" lon="6.67593">
        <ele>480</ele>
        <time>2026-09-03T15:29:35.000Z</time>
      </trkpt>
      <trkpt lat="48.2049" lon="6.67594">
        <ele>480</ele>
        <time>2026-09-03T15:29:36.000Z</time>
      </trkpt>
      <trkpt lat="48.20489" lon="6.67596">
        <ele>479.79998779297</ele>
        <time>2026-09-03T15:29:37.000Z</time>
      </trkpt>
      <trkpt lat="48.20488" lon="6.67597">
        <ele>479.79998779297</ele>
        <time>2026-09-03T15:29:38.000Z</time>
      </trkpt>
      <trkpt lat="48.20487" lon="6.67598">
        <ele>479.79998779297</ele>
        <time>2026-09-03T15:29:39.000Z</time>
      </trkpt>
      <trkpt lat="48.20486" lon="6.67598">
        <ele>479.59997558594</ele>
        <time>2026-09-03T15:29:40.000Z</time>
      </trkpt>
      <trkpt lat="48.20485" lon="6.67598">
        <ele>479.59997558594</ele>
        <time>2026-09-03T15:29:41.000Z</time>
      </trkpt>
      <trkpt lat="48.20484" lon="6.67597">
        <ele>479.59997558594</ele>
        <time>2026-09-03T15:29:42.000Z</time>
      </trkpt>
      <trkpt lat="48.20483" lon="6.67596">
        <ele>479.59997558594</ele>
        <time>2026-09-03T15:29:43.000Z</time>
      </trkpt>
      <trkpt lat="48.20483" lon="6.67595">
        <ele>479.59997558594</ele>
        <time>2026-09-03T15:29:44.000Z</time>
      </trkpt>
      <trkpt lat="48.20482" lon="6.67593">
        <ele>479.59997558594</ele>
        <time>2026-09-03T15:29:45.000Z</time>
      </trkpt>
      <trkpt lat="48.20481" lon="6.67591">
        <ele>479.59997558594</ele>
        <time>2026-09-03T15:29:46.000Z</time>
      </trkpt>
      <trkpt lat="48.2048" lon="6.67588">
        <ele>479.59997558594</ele>
        <time>2026-09-03T15:29:47.000Z</time>
      </trkpt>
      <trkpt lat="48.20479" lon="6.67586">
        <ele>479.79998779297</ele>
        <time>2026-09-03T15:29:48.000Z</time>
      </trkpt>
      <trkpt lat="48.20478" lon="6.67584">
        <ele>479.79998779297</ele>
        <time>2026-09-03T15:29:49.000Z</time>
      </trkpt>
      <trkpt lat="48.20478" lon="6.67582">
        <ele>479.79998779297</ele>
        <time>2026-09-03T15:29:50.000Z</time>
      </trkpt>
      <trkpt lat="48.20477" lon="6.6758">
        <ele>480</ele>
        <time>2026-09-03T15:29:51.000Z</time>
      </trkpt>
      <trkpt lat="48.20477" lon="6.67579">
        <ele>480</ele>
        <time>2026-09-03T15:29:52.000Z</time>
      </trkpt>
      <trkpt lat="48.20477" lon="6.67576">
        <ele>480.20001220703</ele>
        <time>2026-09-03T15:29:53.000Z</time>
      </trkpt>
      <trkpt lat="48.20477" lon="6.67573">
        <ele>480.20001220703</ele>
        <time>2026-09-03T15:29:54.000Z</time>
      </trkpt>
      <trkpt lat="48.20477" lon="6.6757">
        <ele>480.20001220703</ele>
        <time>2026-09-03T15:29:55.000Z</time>
      </trkpt>
      <trkpt lat="48.20476" lon="6.67568">
        <ele>480.20001220703</ele>
        <time>2026-09-03T15:29:56.000Z</time>
      </trkpt>
      <trkpt lat="48.20477" lon="6.67565">
        <ele>480</ele>
        <time>2026-09-03T15:29:57.000Z</time>
      </trkpt>
      <trkpt lat="48.20477" lon="6.67563">
        <ele>479.79998779297</ele>
        <time>2026-09-03T15:29:58.000Z</time>
      </trkpt>
      <trkpt lat="48.20477" lon="6.67562">
        <ele>479.79998779297</ele>
        <time>2026-09-03T15:29:59.000Z</time>
      </trkpt>
    </trkseg>
  </trk>
</gpx>